<?xml version='1.0' encoding='UTF-8'?><gpx version="1.1" creator="JPX - https://github.com/jenetics/jpx" xmlns="http://www.topografix.com/GPX/1/1"><trk><trkseg><trkpt lat="39.384327" lon="17.1155956"><ele>58.0</ele><time>2026-03-29T07:35:05.918Z</time></trkpt><trkpt lat="39.3843644" lon="17.1156736"><ele>58.0</ele><time>2026-03-29T07:35:37.911Z</time></trkpt><trkpt lat="39.3843736" lon="17.1158018"><ele>58.0</ele><time>2026-03-29T07:35:58.917Z</time></trkpt><trkpt lat="39.3843603" lon="17.1159449"><ele>58.0</ele><time>2026-03-29T07:36:00.91Z</time></trkpt><trkpt lat="39.3843189" lon="17.1160405"><ele>58.0</ele><time>2026-03-29T07:36:02.913Z</time></trkpt><trkpt lat="39.3842306" lon="17.1160796"><ele>57.2</ele><time>2026-03-29T07:36:04.898Z</time></trkpt><trkpt lat="39.3841671" lon="17.11609"><ele>56.4</ele><time>2026-03-29T07:36:05.908Z</time></trkpt><trkpt lat="39.3840446" lon="17.1161165"><ele>55.60000000000001</ele><time>2026-03-29T07:36:07.909Z</time></trkpt><trkpt lat="39.3839829" lon="17.1161334"><ele>54.800000000000004</ele><time>2026-03-29T07:36:08.899Z</time></trkpt><trkpt lat="39.3838744" lon="17.1161648"><ele>54.0</ele><time>2026-03-29T07:36:10.906Z</time></trkpt><trkpt lat="39.3837853" lon="17.1162161"><ele>53.333333333333336</ele><time>2026-03-29T07:36:12.904Z</time></trkpt><trkpt lat="39.38372" lon="17.1162615"><ele>52.66666666666667</ele><time>2026-03-29T07:36:14.908Z</time></trkpt><trkpt lat="39.3836575" lon="17.1162923"><ele>52.0</ele><time>2026-03-29T07:36:16.942Z</time></trkpt><trkpt lat="39.3835563" lon="17.1163433"><ele>51.333333333333336</ele><time>2026-03-29T07:36:19.965Z</time></trkpt><trkpt lat="39.3834809" lon="17.1163577"><ele>50.66666666666667</ele><time>2026-03-29T07:36:22.935Z</time></trkpt><trkpt lat="39.3834144" lon="17.1163501"><ele>50.0</ele><time>2026-03-29T07:36:26.921Z</time></trkpt><trkpt lat="39.3833743" lon="17.1162657"><ele>50.00000000000001</ele><time>2026-03-29T07:36:42.935Z</time></trkpt><trkpt lat="39.3833644" lon="17.1161171"><ele>50.0</ele><time>2026-03-29T07:36:44.928Z</time></trkpt><trkpt lat="39.3833774" lon="17.1160233"><ele>50.0</ele><time>2026-03-29T07:36:45.98Z</time></trkpt><trkpt lat="39.3833828" lon="17.1159358"><ele>50.0</ele><time>2026-03-29T07:36:46.907Z</time></trkpt><trkpt lat="39.3833839" lon="17.1158427"><ele>50.00000000000001</ele><time>2026-03-29T07:36:47.924Z</time></trkpt><trkpt lat="39.3833756" lon="17.1157521"><ele>50.0</ele><time>2026-03-29T07:36:48.911Z</time></trkpt><trkpt lat="39.3833565" lon="17.1156628"><ele>50.66666666666667</ele><time>2026-03-29T07:36:49.915Z</time></trkpt><trkpt lat="39.3833358" lon="17.1155792"><ele>51.333333333333336</ele><time>2026-03-29T07:36:50.923Z</time></trkpt><trkpt lat="39.3833102" lon="17.1154575"><ele>52.0</ele><time>2026-03-29T07:36:52.918Z</time></trkpt><trkpt lat="39.3832947" lon="17.1153597"><ele>52.66666666666667</ele><time>2026-03-29T07:36:55.921Z</time></trkpt><trkpt lat="39.3832782" lon="17.1152538"><ele>53.333333333333336</ele><time>2026-03-29T07:36:58.917Z</time></trkpt><trkpt lat="39.3832508" lon="17.115153"><ele>54.0</ele><time>2026-03-29T07:37:02.968Z</time></trkpt><trkpt lat="39.3832103" lon="17.1150533"><ele>54.0</ele><time>2026-03-29T07:37:06.917Z</time></trkpt><trkpt lat="39.3831776" lon="17.1149743"><ele>54.0</ele><time>2026-03-29T07:37:09.917Z</time></trkpt><trkpt lat="39.3831194" lon="17.1148585"><ele>54.0</ele><time>2026-03-29T07:37:47.917Z</time></trkpt><trkpt lat="39.383065" lon="17.1147161"><ele>54.0</ele><time>2026-03-29T07:37:49.914Z</time></trkpt><trkpt lat="39.3830379" lon="17.1146298"><ele>54.0</ele><time>2026-03-29T07:37:50.935Z</time></trkpt><trkpt lat="39.3830105" lon="17.1145367"><ele>54.0</ele><time>2026-03-29T07:37:51.921Z</time></trkpt><trkpt lat="39.3829801" lon="17.1144408"><ele>53.666666666666664</ele><time>2026-03-29T07:37:52.918Z</time></trkpt><trkpt lat="39.3829487" lon="17.1143432"><ele>53.33333333333333</ele><time>2026-03-29T07:37:53.92Z</time></trkpt><trkpt lat="39.3829158" lon="17.1142476"><ele>53.0</ele><time>2026-03-29T07:37:54.916Z</time></trkpt><trkpt lat="39.382877" lon="17.1141586"><ele>52.666666666666664</ele><time>2026-03-29T07:37:55.902Z</time></trkpt><trkpt lat="39.3828282" lon="17.1140794"><ele>52.33333333333333</ele><time>2026-03-29T07:37:56.913Z</time></trkpt><trkpt lat="39.3827699" lon="17.1140117"><ele>52.0</ele><time>2026-03-29T07:37:57.921Z</time></trkpt><trkpt lat="39.382709" lon="17.1139513"><ele>52.0</ele><time>2026-03-29T07:37:58.913Z</time></trkpt><trkpt lat="39.3826572" lon="17.1138885"><ele>52.0</ele><time>2026-03-29T07:37:59.904Z</time></trkpt><trkpt lat="39.3825953" lon="17.1137625"><ele>52.0</ele><time>2026-03-29T07:38:01.919Z</time></trkpt><trkpt lat="39.3825302" lon="17.1136161"><ele>52.0</ele><time>2026-03-29T07:38:03.914Z</time></trkpt><trkpt lat="39.38249" lon="17.1135301"><ele>52.0</ele><time>2026-03-29T07:38:04.911Z</time></trkpt><trkpt lat="39.3824448" lon="17.1134378"><ele>52.0</ele><time>2026-03-29T07:38:05.913Z</time></trkpt><trkpt lat="39.3823953" lon="17.1133373"><ele>52.0</ele><time>2026-03-29T07:38:06.935Z</time></trkpt><trkpt lat="39.3823443" lon="17.1132297"><ele>52.0</ele><time>2026-03-29T07:38:07.905Z</time></trkpt><trkpt lat="39.3822991" lon="17.1131156"><ele>52.0</ele><time>2026-03-29T07:38:08.909Z</time></trkpt><trkpt lat="39.3822572" lon="17.1130103"><ele>52.0</ele><time>2026-03-29T07:38:09.919Z</time></trkpt><trkpt lat="39.3822134" lon="17.1129093"><ele>52.8</ele><time>2026-03-29T07:38:10.927Z</time></trkpt><trkpt lat="39.3821729" lon="17.1127986"><ele>53.6</ele><time>2026-03-29T07:38:11.909Z</time></trkpt><trkpt lat="39.3821318" lon="17.1126773"><ele>54.39999999999999</ele><time>2026-03-29T07:38:12.907Z</time></trkpt><trkpt lat="39.382087" lon="17.1125444"><ele>55.199999999999996</ele><time>2026-03-29T07:38:13.914Z</time></trkpt><trkpt lat="39.3820396" lon="17.1124026"><ele>56.0</ele><time>2026-03-29T07:38:14.922Z</time></trkpt><trkpt lat="39.3819916" lon="17.1122604"><ele>56.199999999999996</ele><time>2026-03-29T07:38:15.918Z</time></trkpt><trkpt lat="39.3819372" lon="17.1121256"><ele>56.39999999999999</ele><time>2026-03-29T07:38:16.92Z</time></trkpt><trkpt lat="39.3818779" lon="17.1120019"><ele>56.6</ele><time>2026-03-29T07:38:17.906Z</time></trkpt><trkpt lat="39.381811" lon="17.1118971"><ele>56.8</ele><time>2026-03-29T07:38:18.915Z</time></trkpt><trkpt lat="39.3817405" lon="17.1118166"><ele>57.0</ele><time>2026-03-29T07:38:19.919Z</time></trkpt><trkpt lat="39.3816807" lon="17.1117426"><ele>57.0</ele><time>2026-03-29T07:38:20.915Z</time></trkpt><trkpt lat="39.3816293" lon="17.1116693"><ele>56.99999999999999</ele><time>2026-03-29T07:38:21.916Z</time></trkpt><trkpt lat="39.381575" lon="17.1116032"><ele>57.0</ele><time>2026-03-29T07:38:22.926Z</time></trkpt><trkpt lat="39.3815162" lon="17.1115497"><ele>57.0</ele><time>2026-03-29T07:38:23.914Z</time></trkpt><trkpt lat="39.3814575" lon="17.1115003"><ele>56.99999999999999</ele><time>2026-03-29T07:38:24.91Z</time></trkpt><trkpt lat="39.381402" lon="17.1114524"><ele>57.0</ele><time>2026-03-29T07:38:25.909Z</time></trkpt><trkpt lat="39.3813689" lon="17.1113718"><ele>57.0</ele><time>2026-03-29T07:38:26.919Z</time></trkpt><trkpt lat="39.3813611" lon="17.1112846"><ele>57.5</ele><time>2026-03-29T07:38:27.94Z</time></trkpt><trkpt lat="39.3813628" lon="17.1111932"><ele>58.0</ele><time>2026-03-29T07:38:28.922Z</time></trkpt><trkpt lat="39.3813619" lon="17.1110884"><ele>58.5</ele><time>2026-03-29T07:38:29.918Z</time></trkpt><trkpt lat="39.3813524" lon="17.110982"><ele>59.0</ele><time>2026-03-29T07:38:30.918Z</time></trkpt><trkpt lat="39.3813376" lon="17.1108729"><ele>59.5</ele><time>2026-03-29T07:38:31.913Z</time></trkpt><trkpt lat="39.3813194" lon="17.1107699"><ele>60.0</ele><time>2026-03-29T07:38:32.918Z</time></trkpt><trkpt lat="39.3812954" lon="17.110673"><ele>60.333333333333336</ele><time>2026-03-29T07:38:33.92Z</time></trkpt><trkpt lat="39.3812424" lon="17.1105016"><ele>60.66666666666667</ele><time>2026-03-29T07:38:35.93Z</time></trkpt><trkpt lat="39.381221" lon="17.1104208"><ele>61.0</ele><time>2026-03-29T07:38:36.91Z</time></trkpt><trkpt lat="39.3811973" lon="17.1103383"><ele>61.333333333333336</ele><time>2026-03-29T07:38:37.919Z</time></trkpt><trkpt lat="39.3811681" lon="17.1102505"><ele>61.66666666666667</ele><time>2026-03-29T07:38:38.925Z</time></trkpt><trkpt lat="39.3811376" lon="17.1101581"><ele>62.0</ele><time>2026-03-29T07:38:39.922Z</time></trkpt><trkpt lat="39.3811089" lon="17.1100715"><ele>62.00000000000001</ele><time>2026-03-29T07:38:40.913Z</time></trkpt><trkpt lat="39.3810848" lon="17.1099948"><ele>62.0</ele><time>2026-03-29T07:38:41.906Z</time></trkpt><trkpt lat="39.3810202" lon="17.109854"><ele>62.0</ele><time>2026-03-29T07:38:43.916Z</time></trkpt><trkpt lat="39.3809825" lon="17.1097792"><ele>62.0</ele><time>2026-03-29T07:38:44.916Z</time></trkpt><trkpt lat="39.3809448" lon="17.1097063"><ele>62.00000000000001</ele><time>2026-03-29T07:38:45.924Z</time></trkpt><trkpt lat="39.3809036" lon="17.1096345"><ele>62.0</ele><time>2026-03-29T07:38:46.912Z</time></trkpt><trkpt lat="39.3808535" lon="17.1095592"><ele>61.833333333333336</ele><time>2026-03-29T07:38:47.912Z</time></trkpt><trkpt lat="39.380794" lon="17.1094875"><ele>61.66666666666667</ele><time>2026-03-29T07:38:48.937Z</time></trkpt><trkpt lat="39.3807341" lon="17.1094167"><ele>61.5</ele><time>2026-03-29T07:38:49.905Z</time></trkpt><trkpt lat="39.3806837" lon="17.1093316"><ele>61.33333333333333</ele><time>2026-03-29T07:38:50.912Z</time></trkpt><trkpt lat="39.3806401" lon="17.1092423"><ele>61.166666666666664</ele><time>2026-03-29T07:38:51.922Z</time></trkpt><trkpt lat="39.3806134" lon="17.1091405"><ele>61.0</ele><time>2026-03-29T07:38:52.905Z</time></trkpt><trkpt lat="39.3805868" lon="17.1090342"><ele>60.83333333333333</ele><time>2026-03-29T07:38:53.897Z</time></trkpt><trkpt lat="39.3805626" lon="17.1089296"><ele>60.666666666666664</ele><time>2026-03-29T07:38:54.936Z</time></trkpt><trkpt lat="39.3805383" lon="17.1088397"><ele>60.5</ele><time>2026-03-29T07:38:55.916Z</time></trkpt><trkpt lat="39.3805012" lon="17.1087101"><ele>60.33333333333333</ele><time>2026-03-29T07:38:57.924Z</time></trkpt><trkpt lat="39.3804905" lon="17.1085896"><ele>60.166666666666664</ele><time>2026-03-29T07:38:59.905Z</time></trkpt><trkpt lat="39.3805083" lon="17.1085089"><ele>60.0</ele><time>2026-03-29T07:39:00.905Z</time></trkpt><trkpt lat="39.3805329" lon="17.1084273"><ele>59.833333333333336</ele><time>2026-03-29T07:39:01.947Z</time></trkpt><trkpt lat="39.3805545" lon="17.1083506"><ele>59.66666666666667</ele><time>2026-03-29T07:39:02.909Z</time></trkpt><trkpt lat="39.3805934" lon="17.1082071"><ele>59.5</ele><time>2026-03-29T07:39:04.912Z</time></trkpt><trkpt lat="39.3806102" lon="17.1081239"><ele>59.333333333333336</ele><time>2026-03-29T07:39:05.91Z</time></trkpt><trkpt lat="39.3806193" lon="17.1080199"><ele>59.16666666666667</ele><time>2026-03-29T07:39:06.908Z</time></trkpt><trkpt lat="39.3806136" lon="17.1079068"><ele>59.0</ele><time>2026-03-29T07:39:07.911Z</time></trkpt><trkpt lat="39.3805975" lon="17.10779"><ele>59.0</ele><time>2026-03-29T07:39:08.91Z</time></trkpt><trkpt lat="39.380567" lon="17.1076879"><ele>59.00000000000001</ele><time>2026-03-29T07:39:09.918Z</time></trkpt><trkpt lat="39.3805319" lon="17.1075844"><ele>59.00000000000001</ele><time>2026-03-29T07:39:10.906Z</time></trkpt><trkpt lat="39.3804915" lon="17.1074778"><ele>59.0</ele><time>2026-03-29T07:39:11.903Z</time></trkpt><trkpt lat="39.3804472" lon="17.1073672"><ele>59.0</ele><time>2026-03-29T07:39:12.906Z</time></trkpt><trkpt lat="39.3804045" lon="17.1072556"><ele>59.0</ele><time>2026-03-29T07:39:13.907Z</time></trkpt><trkpt lat="39.3803679" lon="17.1071469"><ele>59.00000000000001</ele><time>2026-03-29T07:39:14.917Z</time></trkpt><trkpt lat="39.3803402" lon="17.1070348"><ele>59.00000000000001</ele><time>2026-03-29T07:39:15.912Z</time></trkpt><trkpt lat="39.3803235" lon="17.1069151"><ele>59.0</ele><time>2026-03-29T07:39:16.917Z</time></trkpt><trkpt lat="39.3803123" lon="17.1067959"><ele>59.0</ele><time>2026-03-29T07:39:17.924Z</time></trkpt><trkpt lat="39.3803005" lon="17.1066797"><ele>59.400000000000006</ele><time>2026-03-29T07:39:18.909Z</time></trkpt><trkpt lat="39.3802879" lon="17.1065657"><ele>59.800000000000004</ele><time>2026-03-29T07:39:19.911Z</time></trkpt><trkpt lat="39.380276" lon="17.1064542"><ele>60.199999999999996</ele><time>2026-03-29T07:39:20.909Z</time></trkpt><trkpt lat="39.3802644" lon="17.1063367"><ele>60.599999999999994</ele><time>2026-03-29T07:39:21.902Z</time></trkpt><trkpt lat="39.3802529" lon="17.1062159"><ele>61.0</ele><time>2026-03-29T07:39:22.909Z</time></trkpt><trkpt lat="39.380241" lon="17.1060992"><ele>61.0</ele><time>2026-03-29T07:39:23.905Z</time></trkpt><trkpt lat="39.3802282" lon="17.1059863"><ele>60.99999999999999</ele><time>2026-03-29T07:39:24.899Z</time></trkpt><trkpt lat="39.3802143" lon="17.1058723"><ele>60.99999999999999</ele><time>2026-03-29T07:39:25.904Z</time></trkpt><trkpt lat="39.3802016" lon="17.1057558"><ele>61.0</ele><time>2026-03-29T07:39:26.911Z</time></trkpt><trkpt lat="39.3801904" lon="17.1056401"><ele>61.0</ele><time>2026-03-29T07:39:27.904Z</time></trkpt><trkpt lat="39.3801768" lon="17.1055232"><ele>60.8</ele><time>2026-03-29T07:39:28.899Z</time></trkpt><trkpt lat="39.380161" lon="17.1054007"><ele>60.599999999999994</ele><time>2026-03-29T07:39:29.914Z</time></trkpt><trkpt lat="39.3801463" lon="17.105275"><ele>60.4</ele><time>2026-03-29T07:39:30.921Z</time></trkpt><trkpt lat="39.3801332" lon="17.1051525"><ele>60.2</ele><time>2026-03-29T07:39:31.907Z</time></trkpt><trkpt lat="39.3801173" lon="17.1050343"><ele>60.0</ele><time>2026-03-29T07:39:32.898Z</time></trkpt><trkpt lat="39.3800955" lon="17.1049202"><ele>59.166666666666664</ele><time>2026-03-29T07:39:33.907Z</time></trkpt><trkpt lat="39.3800674" lon="17.1048116"><ele>58.33333333333333</ele><time>2026-03-29T07:39:34.905Z</time></trkpt><trkpt lat="39.3800341" lon="17.1047084"><ele>57.5</ele><time>2026-03-29T07:39:35.904Z</time></trkpt><trkpt lat="39.3799971" lon="17.1046094"><ele>56.666666666666664</ele><time>2026-03-29T07:39:36.908Z</time></trkpt><trkpt lat="39.3799586" lon="17.1045135"><ele>55.83333333333333</ele><time>2026-03-29T07:39:37.916Z</time></trkpt><trkpt lat="39.3799198" lon="17.1044185"><ele>55.0</ele><time>2026-03-29T07:39:38.91Z</time></trkpt><trkpt lat="39.3798788" lon="17.1043137"><ele>55.0</ele><time>2026-03-29T07:39:39.918Z</time></trkpt><trkpt lat="39.3798441" lon="17.1041988"><ele>55.0</ele><time>2026-03-29T07:39:40.923Z</time></trkpt><trkpt lat="39.3798295" lon="17.1040849"><ele>55.0</ele><time>2026-03-29T07:39:41.918Z</time></trkpt><trkpt lat="39.3798274" lon="17.1039724"><ele>55.0</ele><time>2026-03-29T07:39:42.901Z</time></trkpt><trkpt lat="39.3798514" lon="17.1038606"><ele>55.0</ele><time>2026-03-29T07:39:43.911Z</time></trkpt><trkpt lat="39.3798785" lon="17.1037498"><ele>54.99999999999999</ele><time>2026-03-29T07:39:44.909Z</time></trkpt><trkpt lat="39.379908" lon="17.103641"><ele>55.0</ele><time>2026-03-29T07:39:45.909Z</time></trkpt><trkpt lat="39.3799356" lon="17.1035329"><ele>55.0</ele><time>2026-03-29T07:39:46.914Z</time></trkpt><trkpt lat="39.3799602" lon="17.1034324"><ele>55.0</ele><time>2026-03-29T07:39:47.902Z</time></trkpt><trkpt lat="39.3799824" lon="17.1033384"><ele>54.99999999999999</ele><time>2026-03-29T07:39:48.917Z</time></trkpt><trkpt lat="39.380002" lon="17.1032525"><ele>55.0</ele><time>2026-03-29T07:39:49.913Z</time></trkpt><trkpt lat="39.3800344" lon="17.1031065"><ele>54.99999999999999</ele><time>2026-03-29T07:39:51.934Z</time></trkpt><trkpt lat="39.3800579" lon="17.1030009"><ele>55.0</ele><time>2026-03-29T07:39:53.903Z</time></trkpt><trkpt lat="39.3800819" lon="17.1029126"><ele>55.0</ele><time>2026-03-29T07:40:10.908Z</time></trkpt><trkpt lat="39.3801016" lon="17.1027854"><ele>55.0</ele><time>2026-03-29T07:40:13.909Z</time></trkpt><trkpt lat="39.3801244" lon="17.1026657"><ele>54.99999999999999</ele><time>2026-03-29T07:40:15.915Z</time></trkpt><trkpt lat="39.3801461" lon="17.1025643"><ele>55.0</ele><time>2026-03-29T07:40:17.899Z</time></trkpt><trkpt lat="39.3801681" lon="17.1024648"><ele>54.99999999999999</ele><time>2026-03-29T07:40:19.915Z</time></trkpt><trkpt lat="39.380195" lon="17.1023269"><ele>55.0</ele><time>2026-03-29T07:40:21.907Z</time></trkpt><trkpt lat="39.3802109" lon="17.1022418"><ele>55.0</ele><time>2026-03-29T07:40:22.918Z</time></trkpt><trkpt lat="39.3802273" lon="17.1021541"><ele>55.0</ele><time>2026-03-29T07:40:23.91Z</time></trkpt><trkpt lat="39.3802448" lon="17.1020675"><ele>54.99999999999999</ele><time>2026-03-29T07:40:24.914Z</time></trkpt><trkpt lat="39.3802741" lon="17.1019201"><ele>55.0</ele><time>2026-03-29T07:40:26.908Z</time></trkpt><trkpt lat="39.3802958" lon="17.101803"><ele>54.99999999999999</ele><time>2026-03-29T07:40:28.905Z</time></trkpt><trkpt lat="39.3803249" lon="17.1016625"><ele>55.0</ele><time>2026-03-29T07:40:30.902Z</time></trkpt><trkpt lat="39.3803457" lon="17.101571"><ele>55.0</ele><time>2026-03-29T07:40:31.907Z</time></trkpt><trkpt lat="39.3803678" lon="17.1014853"><ele>55.0</ele><time>2026-03-29T07:40:32.911Z</time></trkpt><trkpt lat="39.3803998" lon="17.1013973"><ele>54.99999999999999</ele><time>2026-03-29T07:40:33.912Z</time></trkpt><trkpt lat="39.3804453" lon="17.1013138"><ele>55.0</ele><time>2026-03-29T07:40:34.909Z</time></trkpt><trkpt lat="39.3805002" lon="17.1012448"><ele>55.49999999999999</ele><time>2026-03-29T07:40:35.919Z</time></trkpt><trkpt lat="39.3805581" lon="17.1011856"><ele>56.0</ele><time>2026-03-29T07:40:36.915Z</time></trkpt><trkpt lat="39.3806139" lon="17.1011278"><ele>56.5</ele><time>2026-03-29T07:40:37.908Z</time></trkpt><trkpt lat="39.3806665" lon="17.1010691"><ele>57.0</ele><time>2026-03-29T07:40:38.914Z</time></trkpt><trkpt lat="39.3806987" lon="17.1009979"><ele>57.49999999999999</ele><time>2026-03-29T07:40:39.907Z</time></trkpt><trkpt lat="39.3807187" lon="17.1008398"><ele>58.0</ele><time>2026-03-29T07:40:41.908Z</time></trkpt><trkpt lat="39.3807138" lon="17.1007313"><ele>58.2</ele><time>2026-03-29T07:40:42.913Z</time></trkpt><trkpt lat="39.3806676" lon="17.1006099"><ele>58.4</ele><time>2026-03-29T07:40:43.925Z</time></trkpt><trkpt lat="39.3806191" lon="17.1004917"><ele>58.60000000000001</ele><time>2026-03-29T07:40:44.912Z</time></trkpt><trkpt lat="39.3805734" lon="17.1003803"><ele>58.800000000000004</ele><time>2026-03-29T07:40:45.9Z</time></trkpt><trkpt lat="39.3805294" lon="17.1002732"><ele>59.0</ele><time>2026-03-29T07:40:46.914Z</time></trkpt><trkpt lat="39.3804878" lon="17.1001689"><ele>59.0</ele><time>2026-03-29T07:40:47.931Z</time></trkpt><trkpt lat="39.3804468" lon="17.1000626"><ele>59.00000000000001</ele><time>2026-03-29T07:40:48.904Z</time></trkpt><trkpt lat="39.3804046" lon="17.0999418"><ele>59.00000000000001</ele><time>2026-03-29T07:40:49.906Z</time></trkpt><trkpt lat="39.3803643" lon="17.0998163"><ele>59.0</ele><time>2026-03-29T07:40:50.905Z</time></trkpt><trkpt lat="39.3803273" lon="17.0997076"><ele>59.0</ele><time>2026-03-29T07:40:51.914Z</time></trkpt><trkpt lat="39.3802899" lon="17.0996126"><ele>59.833333333333336</ele><time>2026-03-29T07:40:52.907Z</time></trkpt><trkpt lat="39.3802494" lon="17.0995158"><ele>60.66666666666667</ele><time>2026-03-29T07:40:53.898Z</time></trkpt><trkpt lat="39.3802109" lon="17.0994269"><ele>61.5</ele><time>2026-03-29T07:40:54.903Z</time></trkpt><trkpt lat="39.380171" lon="17.0993367"><ele>62.33333333333333</ele><time>2026-03-29T07:40:55.907Z</time></trkpt><trkpt lat="39.3801283" lon="17.099223"><ele>63.166666666666664</ele><time>2026-03-29T07:40:56.91Z</time></trkpt><trkpt lat="39.3800899" lon="17.0991031"><ele>64.0</ele><time>2026-03-29T07:40:57.915Z</time></trkpt><trkpt lat="39.3800642" lon="17.0989867"><ele>65.0</ele><time>2026-03-29T07:40:58.912Z</time></trkpt><trkpt lat="39.380046" lon="17.0988745"><ele>66.0</ele><time>2026-03-29T07:40:59.899Z</time></trkpt><trkpt lat="39.3800535" lon="17.0987548"><ele>67.0</ele><time>2026-03-29T07:41:00.911Z</time></trkpt><trkpt lat="39.3800762" lon="17.0986202"><ele>68.0</ele><time>2026-03-29T07:41:01.906Z</time></trkpt><trkpt lat="39.3801091" lon="17.0984568"><ele>69.0</ele><time>2026-03-29T07:41:02.899Z</time></trkpt><trkpt lat="39.3801432" lon="17.098282"><ele>69.25</ele><time>2026-03-29T07:41:03.907Z</time></trkpt><trkpt lat="39.3801733" lon="17.0981165"><ele>69.5</ele><time>2026-03-29T07:41:04.923Z</time></trkpt><trkpt lat="39.3802019" lon="17.0979565"><ele>69.75</ele><time>2026-03-29T07:41:05.911Z</time></trkpt><trkpt lat="39.3802279" lon="17.0978166"><ele>70.0</ele><time>2026-03-29T07:41:06.911Z</time></trkpt><trkpt lat="39.3802524" lon="17.0976905"><ele>70.0</ele><time>2026-03-29T07:41:07.91Z</time></trkpt><trkpt lat="39.3802757" lon="17.0975675"><ele>70.0</ele><time>2026-03-29T07:41:08.911Z</time></trkpt><trkpt lat="39.3802979" lon="17.0974493"><ele>70.0</ele><time>2026-03-29T07:41:09.918Z</time></trkpt><trkpt lat="39.380317" lon="17.097339"><ele>70.0</ele><time>2026-03-29T07:41:10.91Z</time></trkpt><trkpt lat="39.3803346" lon="17.0972368"><ele>70.0</ele><time>2026-03-29T07:41:11.896Z</time></trkpt><trkpt lat="39.3803532" lon="17.097139"><ele>70.0</ele><time>2026-03-29T07:41:12.917Z</time></trkpt><trkpt lat="39.3803711" lon="17.0970443"><ele>70.16666666666666</ele><time>2026-03-29T07:41:13.903Z</time></trkpt><trkpt lat="39.3803902" lon="17.0969425"><ele>70.33333333333333</ele><time>2026-03-29T07:41:14.921Z</time></trkpt><trkpt lat="39.3804112" lon="17.0968308"><ele>70.5</ele><time>2026-03-29T07:41:15.911Z</time></trkpt><trkpt lat="39.3804331" lon="17.0967118"><ele>70.66666666666667</ele><time>2026-03-29T07:41:16.912Z</time></trkpt><trkpt lat="39.380454" lon="17.0965978"><ele>70.83333333333334</ele><time>2026-03-29T07:41:17.912Z</time></trkpt><trkpt lat="39.380473" lon="17.0964867"><ele>71.0</ele><time>2026-03-29T07:41:18.924Z</time></trkpt><trkpt lat="39.3804915" lon="17.0963813"><ele>71.6</ele><time>2026-03-29T07:41:19.912Z</time></trkpt><trkpt lat="39.3805071" lon="17.0962919"><ele>72.19999999999999</ele><time>2026-03-29T07:41:20.905Z</time></trkpt><trkpt lat="39.3805237" lon="17.0961575"><ele>72.80000000000001</ele><time>2026-03-29T07:41:22.906Z</time></trkpt><trkpt lat="39.3804795" lon="17.0960477"><ele>73.4</ele><time>2026-03-29T07:41:24.911Z</time></trkpt><trkpt lat="39.3803785" lon="17.0959992"><ele>74.0</ele><time>2026-03-29T07:41:26.912Z</time></trkpt><trkpt lat="39.3803083" lon="17.0960476"><ele>74.0</ele><time>2026-03-29T07:41:27.912Z</time></trkpt><trkpt lat="39.3802399" lon="17.0961338"><ele>74.0</ele><time>2026-03-29T07:41:28.908Z</time></trkpt><trkpt lat="39.3801668" lon="17.0962324"><ele>74.0</ele><time>2026-03-29T07:41:29.902Z</time></trkpt><trkpt lat="39.3800909" lon="17.0963374"><ele>74.0</ele><time>2026-03-29T07:41:30.908Z</time></trkpt><trkpt lat="39.3800185" lon="17.0964326"><ele>74.0</ele><time>2026-03-29T07:41:31.916Z</time></trkpt><trkpt lat="39.3799488" lon="17.0965058"><ele>74.0</ele><time>2026-03-29T07:41:32.903Z</time></trkpt><trkpt lat="39.3798817" lon="17.0965505"><ele>74.0</ele><time>2026-03-29T07:41:33.914Z</time></trkpt><trkpt lat="39.3798192" lon="17.0965667"><ele>74.0</ele><time>2026-03-29T07:41:34.915Z</time></trkpt><trkpt lat="39.3797432" lon="17.0965162"><ele>74.0</ele><time>2026-03-29T07:41:36.906Z</time></trkpt><trkpt lat="39.3797777" lon="17.096384"><ele>74.0</ele><time>2026-03-29T07:41:38.925Z</time></trkpt><trkpt lat="39.379801" lon="17.0963016"><ele>74.0</ele><time>2026-03-29T07:41:39.901Z</time></trkpt><trkpt lat="39.3798216" lon="17.0962152"><ele>74.0</ele><time>2026-03-29T07:41:40.907Z</time></trkpt><trkpt lat="39.3798302" lon="17.0961237"><ele>74.0</ele><time>2026-03-29T07:41:41.908Z</time></trkpt><trkpt lat="39.3798248" lon="17.0960259"><ele>74.0</ele><time>2026-03-29T07:41:42.909Z</time></trkpt><trkpt lat="39.3798127" lon="17.0959236"><ele>74.0</ele><time>2026-03-29T07:41:43.899Z</time></trkpt><trkpt lat="39.3797956" lon="17.0958196"><ele>74.0</ele><time>2026-03-29T07:41:44.917Z</time></trkpt><trkpt lat="39.3797707" lon="17.0957203"><ele>74.0</ele><time>2026-03-29T07:41:45.91Z</time></trkpt><trkpt lat="39.3797359" lon="17.0956283"><ele>74.16666666666667</ele><time>2026-03-29T07:41:46.909Z</time></trkpt><trkpt lat="39.3796896" lon="17.0955458"><ele>74.33333333333334</ele><time>2026-03-29T07:41:47.911Z</time></trkpt><trkpt lat="39.3796352" lon="17.095472"><ele>74.5</ele><time>2026-03-29T07:41:48.905Z</time></trkpt><trkpt lat="39.3795793" lon="17.0954012"><ele>74.66666666666667</ele><time>2026-03-29T07:41:49.911Z</time></trkpt><trkpt lat="39.379528" lon="17.0953239"><ele>74.83333333333333</ele><time>2026-03-29T07:41:50.911Z</time></trkpt><trkpt lat="39.3794831" lon="17.0952352"><ele>75.0</ele><time>2026-03-29T07:41:51.913Z</time></trkpt><trkpt lat="39.3794408" lon="17.0951405"><ele>75.0</ele><time>2026-03-29T07:41:52.91Z</time></trkpt><trkpt lat="39.379392" lon="17.0950464"><ele>75.0</ele><time>2026-03-29T07:41:53.908Z</time></trkpt><trkpt lat="39.37934" lon="17.0949543"><ele>75.0</ele><time>2026-03-29T07:41:54.937Z</time></trkpt><trkpt lat="39.3792912" lon="17.0948641"><ele>75.0</ele><time>2026-03-29T07:41:55.94Z</time></trkpt><trkpt lat="39.3792535" lon="17.0947715"><ele>75.0</ele><time>2026-03-29T07:41:56.907Z</time></trkpt><trkpt lat="39.3792252" lon="17.0946698"><ele>75.0</ele><time>2026-03-29T07:41:57.899Z</time></trkpt><trkpt lat="39.3791974" lon="17.0945669"><ele>75.5</ele><time>2026-03-29T07:41:58.909Z</time></trkpt><trkpt lat="39.3791656" lon="17.094471"><ele>76.0</ele><time>2026-03-29T07:41:59.936Z</time></trkpt><trkpt lat="39.3791348" lon="17.0943839"><ele>76.5</ele><time>2026-03-29T07:42:00.92Z</time></trkpt><trkpt lat="39.3791052" lon="17.0943037"><ele>77.0</ele><time>2026-03-29T07:42:01.903Z</time></trkpt><trkpt lat="39.3790553" lon="17.0941742"><ele>77.5</ele><time>2026-03-29T07:42:03.908Z</time></trkpt><trkpt lat="39.379022" lon="17.0940469"><ele>78.0</ele><time>2026-03-29T07:42:05.913Z</time></trkpt><trkpt lat="39.3789898" lon="17.0939218"><ele>79.0</ele><time>2026-03-29T07:42:07.91Z</time></trkpt><trkpt lat="39.3789595" lon="17.0937876"><ele>80.0</ele><time>2026-03-29T07:42:09.901Z</time></trkpt><trkpt lat="39.3789358" lon="17.0936355"><ele>81.0</ele><time>2026-03-29T07:42:11.915Z</time></trkpt><trkpt lat="39.3789291" lon="17.0935532"><ele>82.0</ele><time>2026-03-29T07:42:12.911Z</time></trkpt><trkpt lat="39.3789148" lon="17.0933897"><ele>83.0</ele><time>2026-03-29T07:42:14.903Z</time></trkpt><trkpt lat="39.3789015" lon="17.093305"><ele>83.14285714285714</ele><time>2026-03-29T07:42:15.905Z</time></trkpt><trkpt lat="39.3788854" lon="17.093218"><ele>83.28571428571429</ele><time>2026-03-29T07:42:16.907Z</time></trkpt><trkpt lat="39.3788673" lon="17.0931256"><ele>83.42857142857143</ele><time>2026-03-29T07:42:17.904Z</time></trkpt><trkpt lat="39.3788465" lon="17.0930306"><ele>83.57142857142857</ele><time>2026-03-29T07:42:18.91Z</time></trkpt><trkpt lat="39.3788266" lon="17.0929349"><ele>83.71428571428572</ele><time>2026-03-29T07:42:19.903Z</time></trkpt><trkpt lat="39.3788035" lon="17.0928409"><ele>83.85714285714286</ele><time>2026-03-29T07:42:20.913Z</time></trkpt><trkpt lat="39.3787808" lon="17.0927472"><ele>84.0</ele><time>2026-03-29T07:42:21.916Z</time></trkpt><trkpt lat="39.3787626" lon="17.0926471"><ele>84.0</ele><time>2026-03-29T07:42:22.914Z</time></trkpt><trkpt lat="39.3787492" lon="17.0925435"><ele>84.0</ele><time>2026-03-29T07:42:23.904Z</time></trkpt><trkpt lat="39.3787386" lon="17.0924411"><ele>84.0</ele><time>2026-03-29T07:42:24.916Z</time></trkpt><trkpt lat="39.378739" lon="17.0923495"><ele>84.0</ele><time>2026-03-29T07:42:25.911Z</time></trkpt><trkpt lat="39.3787442" lon="17.0922319"><ele>84.0</ele><time>2026-03-29T07:42:27.908Z</time></trkpt><trkpt lat="39.378724" lon="17.0921453"><ele>84.0</ele><time>2026-03-29T07:42:30.911Z</time></trkpt><trkpt lat="39.378717" lon="17.0920624"><ele>85.16666666666667</ele><time>2026-03-29T07:42:32.915Z</time></trkpt><trkpt lat="39.3786979" lon="17.0919839"><ele>86.33333333333333</ele><time>2026-03-29T07:42:38.924Z</time></trkpt><trkpt lat="39.3786659" lon="17.0918658"><ele>87.5</ele><time>2026-03-29T07:42:41.94Z</time></trkpt><trkpt lat="39.3786278" lon="17.0917787"><ele>88.66666666666666</ele><time>2026-03-29T07:42:43.911Z</time></trkpt><trkpt lat="39.3785808" lon="17.0916822"><ele>89.83333333333333</ele><time>2026-03-29T07:42:46.911Z</time></trkpt><trkpt lat="39.3785478" lon="17.0915879"><ele>91.0</ele><time>2026-03-29T07:43:52.92Z</time></trkpt><trkpt lat="39.3784977" lon="17.0914572"><ele>91.6</ele><time>2026-03-29T07:43:54.933Z</time></trkpt><trkpt lat="39.3784339" lon="17.0913529"><ele>92.19999999999999</ele><time>2026-03-29T07:43:56.912Z</time></trkpt><trkpt lat="39.3783364" lon="17.0912536"><ele>92.80000000000001</ele><time>2026-03-29T07:43:58.915Z</time></trkpt><trkpt lat="39.3782444" lon="17.091187"><ele>93.4</ele><time>2026-03-29T07:44:00.915Z</time></trkpt><trkpt lat="39.378146" lon="17.0911493"><ele>94.0</ele><time>2026-03-29T07:44:02.916Z</time></trkpt><trkpt lat="39.3780426" lon="17.0911079"><ele>95.6</ele><time>2026-03-29T07:44:04.903Z</time></trkpt><trkpt lat="39.3779409" lon="17.0910634"><ele>97.2</ele><time>2026-03-29T07:44:06.906Z</time></trkpt><trkpt lat="39.377852" lon="17.0910225"><ele>98.8</ele><time>2026-03-29T07:44:08.907Z</time></trkpt><trkpt lat="39.3777401" lon="17.0910316"><ele>100.39999999999999</ele><time>2026-03-29T07:44:10.909Z</time></trkpt><trkpt lat="39.3776203" lon="17.09102"><ele>102.0</ele><time>2026-03-29T07:44:12.907Z</time></trkpt><trkpt lat="39.3775105" lon="17.0909475"><ele>102.0</ele><time>2026-03-29T07:44:14.91Z</time></trkpt><trkpt lat="39.3774468" lon="17.0909286"><ele>102.0</ele><time>2026-03-29T07:44:15.912Z</time></trkpt><trkpt lat="39.3773766" lon="17.0909507"><ele>102.0</ele><time>2026-03-29T07:44:16.91Z</time></trkpt><trkpt lat="39.3773108" lon="17.0909992"><ele>102.0</ele><time>2026-03-29T07:44:17.904Z</time></trkpt><trkpt lat="39.3772521" lon="17.0910471"><ele>102.0</ele><time>2026-03-29T07:44:18.906Z</time></trkpt><trkpt lat="39.3771473" lon="17.0910195"><ele>102.0</ele><time>2026-03-29T07:44:20.903Z</time></trkpt><trkpt lat="39.3770982" lon="17.0909618"><ele>102.19999999999999</ele><time>2026-03-29T07:44:21.9Z</time></trkpt><trkpt lat="39.3770579" lon="17.090896"><ele>102.4</ele><time>2026-03-29T07:44:22.908Z</time></trkpt><trkpt lat="39.3769629" lon="17.0908103"><ele>102.6</ele><time>2026-03-29T07:44:24.917Z</time></trkpt><trkpt lat="39.3768647" lon="17.0907675"><ele>102.80000000000001</ele><time>2026-03-29T07:44:26.906Z</time></trkpt><trkpt lat="39.3767767" lon="17.0906495"><ele>103.0</ele><time>2026-03-29T07:44:28.918Z</time></trkpt><trkpt lat="39.3767297" lon="17.0905728"><ele>104.0</ele><time>2026-03-29T07:44:29.913Z</time></trkpt><trkpt lat="39.3766779" lon="17.0904858"><ele>105.0</ele><time>2026-03-29T07:44:30.915Z</time></trkpt><trkpt lat="39.3766347" lon="17.090389"><ele>106.00000000000001</ele><time>2026-03-29T07:44:31.898Z</time></trkpt><trkpt lat="39.3765991" lon="17.0903062"><ele>107.0</ele><time>2026-03-29T07:44:32.909Z</time></trkpt><trkpt lat="39.3764897" lon="17.0902136"><ele>108.0</ele><time>2026-03-29T07:44:34.899Z</time></trkpt><trkpt lat="39.376415" lon="17.0901888"><ele>110.16666666666667</ele><time>2026-03-29T07:44:35.908Z</time></trkpt><trkpt lat="39.3763408" lon="17.0901617"><ele>112.33333333333334</ele><time>2026-03-29T07:44:36.919Z</time></trkpt><trkpt lat="39.3762715" lon="17.0901361"><ele>114.5</ele><time>2026-03-29T07:44:37.915Z</time></trkpt><trkpt lat="39.3762089" lon="17.0900938"><ele>116.66666666666667</ele><time>2026-03-29T07:44:38.908Z</time></trkpt><trkpt lat="39.3761472" lon="17.0900502"><ele>118.83333333333334</ele><time>2026-03-29T07:44:39.903Z</time></trkpt><trkpt lat="39.3760547" lon="17.0900055"><ele>121.0</ele><time>2026-03-29T07:44:41.909Z</time></trkpt><trkpt lat="39.3759734" lon="17.0899406"><ele>120.4</ele><time>2026-03-29T07:44:43.914Z</time></trkpt><trkpt lat="39.3758899" lon="17.0898946"><ele>119.8</ele><time>2026-03-29T07:44:45.904Z</time></trkpt><trkpt lat="39.3758138" lon="17.0898267"><ele>119.20000000000002</ele><time>2026-03-29T07:44:47.905Z</time></trkpt><trkpt lat="39.3757674" lon="17.0897714"><ele>118.60000000000001</ele><time>2026-03-29T07:44:48.912Z</time></trkpt><trkpt lat="39.375684" lon="17.0896509"><ele>118.0</ele><time>2026-03-29T07:44:50.904Z</time></trkpt><trkpt lat="39.3755963" lon="17.0895616"><ele>119.0</ele><time>2026-03-29T07:44:52.914Z</time></trkpt><trkpt lat="39.3754873" lon="17.0895121"><ele>120.00000000000001</ele><time>2026-03-29T07:44:54.913Z</time></trkpt><trkpt lat="39.3753919" lon="17.0894469"><ele>121.00000000000001</ele><time>2026-03-29T07:44:56.928Z</time></trkpt><trkpt lat="39.375301" lon="17.0893637"><ele>122.0</ele><time>2026-03-29T07:44:58.906Z</time></trkpt><trkpt lat="39.3752535" lon="17.0893047"><ele>123.0</ele><time>2026-03-29T07:44:59.902Z</time></trkpt><trkpt lat="39.3752151" lon="17.0892333"><ele>123.00000000000001</ele><time>2026-03-29T07:45:00.916Z</time></trkpt><trkpt lat="39.375186" lon="17.089153"><ele>123.0</ele><time>2026-03-29T07:45:01.924Z</time></trkpt><trkpt lat="39.375169" lon="17.0890662"><ele>123.00000000000001</ele><time>2026-03-29T07:45:02.914Z</time></trkpt><trkpt lat="39.3751557" lon="17.0889729"><ele>123.00000000000001</ele><time>2026-03-29T07:45:03.909Z</time></trkpt><trkpt lat="39.3751378" lon="17.0888767"><ele>123.0</ele><time>2026-03-29T07:45:04.926Z</time></trkpt><trkpt lat="39.3751162" lon="17.0887815"><ele>123.00000000000001</ele><time>2026-03-29T07:45:05.92Z</time></trkpt><trkpt lat="39.3750956" lon="17.0886813"><ele>123.00000000000001</ele><time>2026-03-29T07:45:06.912Z</time></trkpt><trkpt lat="39.3750829" lon="17.0885736"><ele>123.0</ele><time>2026-03-29T07:45:07.916Z</time></trkpt><trkpt lat="39.3750761" lon="17.088465"><ele>123.0</ele><time>2026-03-29T07:45:08.913Z</time></trkpt><trkpt lat="39.3750689" lon="17.0883689"><ele>123.0</ele><time>2026-03-29T07:45:09.907Z</time></trkpt><trkpt lat="39.3750579" lon="17.0882803"><ele>123.0</ele><time>2026-03-29T07:45:10.913Z</time></trkpt><trkpt lat="39.3750365" lon="17.0881931"><ele>123.0</ele><time>2026-03-29T07:45:11.914Z</time></trkpt><trkpt lat="39.375015" lon="17.0881142"><ele>123.0</ele><time>2026-03-29T07:45:12.898Z</time></trkpt><trkpt lat="39.3749561" lon="17.0879701"><ele>122.60000000000001</ele><time>2026-03-29T07:45:14.911Z</time></trkpt><trkpt lat="39.3749119" lon="17.0878999"><ele>122.20000000000002</ele><time>2026-03-29T07:45:15.908Z</time></trkpt><trkpt lat="39.3748607" lon="17.0878416"><ele>121.8</ele><time>2026-03-29T07:45:16.903Z</time></trkpt><trkpt lat="39.3748076" lon="17.087793"><ele>121.4</ele><time>2026-03-29T07:45:17.905Z</time></trkpt><trkpt lat="39.3747018" lon="17.0877121"><ele>121.0</ele><time>2026-03-29T07:45:19.907Z</time></trkpt><trkpt lat="39.3745843" lon="17.0876539"><ele>122.00000000000001</ele><time>2026-03-29T07:45:21.906Z</time></trkpt><trkpt lat="39.3744606" lon="17.0876022"><ele>123.0</ele><time>2026-03-29T07:45:23.904Z</time></trkpt><trkpt lat="39.3743902" lon="17.087576"><ele>124.0</ele><time>2026-03-29T07:45:24.906Z</time></trkpt><trkpt lat="39.3743146" lon="17.0875484"><ele>125.0</ele><time>2026-03-29T07:45:25.915Z</time></trkpt><trkpt lat="39.3742375" lon="17.0875243"><ele>126.00000000000001</ele><time>2026-03-29T07:45:26.904Z</time></trkpt><trkpt lat="39.3741602" lon="17.0874991"><ele>127.0</ele><time>2026-03-29T07:45:27.9Z</time></trkpt><trkpt lat="39.3740859" lon="17.087474"><ele>127.00000000000001</ele><time>2026-03-29T07:45:28.911Z</time></trkpt><trkpt lat="39.3740167" lon="17.0874511"><ele>127.0</ele><time>2026-03-29T07:45:29.904Z</time></trkpt><trkpt lat="39.3739505" lon="17.0874291"><ele>127.0</ele><time>2026-03-29T07:45:30.912Z</time></trkpt><trkpt lat="39.3738864" lon="17.0874078"><ele>127.0</ele><time>2026-03-29T07:45:31.904Z</time></trkpt><trkpt lat="39.3737767" lon="17.0873705"><ele>127.00000000000001</ele><time>2026-03-29T07:45:33.911Z</time></trkpt><trkpt lat="39.3737024" lon="17.0873425"><ele>127.0</ele><time>2026-03-29T07:45:35.921Z</time></trkpt><trkpt lat="39.373634" lon="17.0873207"><ele>127.16666666666667</ele><time>2026-03-29T07:45:37.915Z</time></trkpt><trkpt lat="39.3735665" lon="17.0873017"><ele>127.33333333333334</ele><time>2026-03-29T07:45:40.912Z</time></trkpt><trkpt lat="39.3734914" lon="17.0872782"><ele>127.5</ele><time>2026-03-29T07:45:42.918Z</time></trkpt><trkpt lat="39.373406" lon="17.0872546"><ele>127.66666666666666</ele><time>2026-03-29T07:45:45.906Z</time></trkpt><trkpt lat="39.3733271" lon="17.0872333"><ele>127.83333333333333</ele><time>2026-03-29T07:45:48.928Z</time></trkpt><trkpt lat="39.3732586" lon="17.0872063"><ele>128.0</ele><time>2026-03-29T07:45:51.91Z</time></trkpt><trkpt lat="39.373191" lon="17.0871629"><ele>128.0</ele><time>2026-03-29T07:46:11.913Z</time></trkpt><trkpt lat="39.3731133" lon="17.0870942"><ele>128.0</ele><time>2026-03-29T07:46:13.917Z</time></trkpt><trkpt lat="39.373065" lon="17.0869828"><ele>128.0</ele><time>2026-03-29T07:46:15.914Z</time></trkpt><trkpt lat="39.3730477" lon="17.0868717"><ele>128.0</ele><time>2026-03-29T07:46:17.905Z</time></trkpt><trkpt lat="39.3730464" lon="17.0867472"><ele>128.0</ele><time>2026-03-29T07:46:19.912Z</time></trkpt><trkpt lat="39.3730331" lon="17.0866015"><ele>127.80000000000001</ele><time>2026-03-29T07:46:21.902Z</time></trkpt><trkpt lat="39.3730125" lon="17.0864557"><ele>127.60000000000001</ele><time>2026-03-29T07:46:23.909Z</time></trkpt><trkpt lat="39.3730029" lon="17.0862947"><ele>127.39999999999999</ele><time>2026-03-29T07:46:25.91Z</time></trkpt><trkpt lat="39.3729992" lon="17.0862134"><ele>127.19999999999999</ele><time>2026-03-29T07:46:26.899Z</time></trkpt><trkpt lat="39.372983" lon="17.0860814"><ele>127.0</ele><time>2026-03-29T07:46:28.906Z</time></trkpt><trkpt lat="39.3729403" lon="17.0859645"><ele>127.0</ele><time>2026-03-29T07:46:30.909Z</time></trkpt><trkpt lat="39.3728931" lon="17.0859033"><ele>127.0</ele><time>2026-03-29T07:46:31.901Z</time></trkpt><trkpt lat="39.372837" lon="17.0858375"><ele>127.0</ele><time>2026-03-29T07:46:32.914Z</time></trkpt><trkpt lat="39.372791" lon="17.0857744"><ele>127.0</ele><time>2026-03-29T07:46:33.905Z</time></trkpt><trkpt lat="39.3727446" lon="17.0857134"><ele>127.0</ele><time>2026-03-29T07:46:34.901Z</time></trkpt><trkpt lat="39.3727016" lon="17.0856401"><ele>127.0</ele><time>2026-03-29T07:46:35.916Z</time></trkpt><trkpt lat="39.3726657" lon="17.0855662"><ele>127.0</ele><time>2026-03-29T07:46:36.908Z</time></trkpt><trkpt lat="39.3726961" lon="17.0854143"><ele>129.2</ele><time>2026-03-29T07:46:38.908Z</time></trkpt><trkpt lat="39.3727546" lon="17.0853525"><ele>131.39999999999998</ele><time>2026-03-29T07:46:39.91Z</time></trkpt><trkpt lat="39.3728097" lon="17.0852926"><ele>133.60000000000002</ele><time>2026-03-29T07:46:40.919Z</time></trkpt><trkpt lat="39.3728795" lon="17.0851748"><ele>135.8</ele><time>2026-03-29T07:46:42.902Z</time></trkpt><trkpt lat="39.3729678" lon="17.0850602"><ele>138.0</ele><time>2026-03-29T07:46:44.908Z</time></trkpt><trkpt lat="39.3730204" lon="17.0850025"><ele>138.0</ele><time>2026-03-29T07:46:45.903Z</time></trkpt><trkpt lat="39.3730698" lon="17.0849417"><ele>138.0</ele><time>2026-03-29T07:46:46.908Z</time></trkpt><trkpt lat="39.373113" lon="17.0848755"><ele>138.0</ele><time>2026-03-29T07:46:47.899Z</time></trkpt><trkpt lat="39.3731512" lon="17.0848035"><ele>138.0</ele><time>2026-03-29T07:46:48.91Z</time></trkpt><trkpt lat="39.3731847" lon="17.084727"><ele>138.0</ele><time>2026-03-29T07:46:49.908Z</time></trkpt><trkpt lat="39.3732146" lon="17.0846462"><ele>138.0</ele><time>2026-03-29T07:46:50.913Z</time></trkpt><trkpt lat="39.3732412" lon="17.084562"><ele>138.0</ele><time>2026-03-29T07:46:51.898Z</time></trkpt><trkpt lat="39.3732637" lon="17.0844733"><ele>138.0</ele><time>2026-03-29T07:46:52.908Z</time></trkpt><trkpt lat="39.3732804" lon="17.0843839"><ele>138.0</ele><time>2026-03-29T07:46:53.903Z</time></trkpt><trkpt lat="39.3732935" lon="17.0842963"><ele>138.0</ele><time>2026-03-29T07:46:54.907Z</time></trkpt><trkpt lat="39.3733221" lon="17.0841651"><ele>138.0</ele><time>2026-03-29T07:46:56.903Z</time></trkpt><trkpt lat="39.3733201" lon="17.0840649"><ele>138.0</ele><time>2026-03-29T07:46:59.914Z</time></trkpt><trkpt lat="39.3732382" lon="17.0840437"><ele>138.0</ele><time>2026-03-29T07:47:03.909Z</time></trkpt><trkpt lat="39.3731756" lon="17.0841014"><ele>138.0</ele><time>2026-03-29T07:47:05.91Z</time></trkpt><trkpt lat="39.3731362" lon="17.0841783"><ele>138.0</ele><time>2026-03-29T07:47:07.906Z</time></trkpt><trkpt lat="39.3731029" lon="17.0842742"><ele>138.0</ele><time>2026-03-29T07:47:09.902Z</time></trkpt><trkpt lat="39.3730466" lon="17.0843199"><ele>138.0</ele><time>2026-03-29T07:47:11.927Z</time></trkpt><trkpt lat="39.3729826" lon="17.0843015"><ele>138.0</ele><time>2026-03-29T07:47:13.907Z</time></trkpt><trkpt lat="39.3729186" lon="17.0842344"><ele>138.0</ele><time>2026-03-29T07:47:15.897Z</time></trkpt><trkpt lat="39.372836" lon="17.0841537"><ele>143.60000000000002</ele><time>2026-03-29T07:47:17.921Z</time></trkpt><trkpt lat="39.3727546" lon="17.0840923"><ele>149.20000000000002</ele><time>2026-03-29T07:47:19.911Z</time></trkpt><trkpt lat="39.3726782" lon="17.0840108"><ele>154.8</ele><time>2026-03-29T07:47:21.912Z</time></trkpt><trkpt lat="39.3726119" lon="17.0839348"><ele>160.4</ele><time>2026-03-29T07:47:23.908Z</time></trkpt><trkpt lat="39.3725539" lon="17.0838512"><ele>166.0</ele><time>2026-03-29T07:47:25.909Z</time></trkpt><trkpt lat="39.372539" lon="17.0837476"><ele>166.0</ele><time>2026-03-29T07:47:27.911Z</time></trkpt><trkpt lat="39.3725388" lon="17.08365"><ele>166.0</ele><time>2026-03-29T07:47:29.908Z</time></trkpt><trkpt lat="39.3725094" lon="17.0835639"><ele>166.0</ele><time>2026-03-29T07:47:31.907Z</time></trkpt><trkpt lat="39.3725483" lon="17.0834996"><ele>166.0</ele><time>2026-03-29T07:47:33.903Z</time></trkpt><trkpt lat="39.3726591" lon="17.0834363"><ele>166.0</ele><time>2026-03-29T07:47:35.907Z</time></trkpt><trkpt lat="39.3727548" lon="17.0833711"><ele>166.0</ele><time>2026-03-29T07:47:37.924Z</time></trkpt><trkpt lat="39.3727268" lon="17.0832465"><ele>166.60000000000002</ele><time>2026-03-29T07:47:40.914Z</time></trkpt><trkpt lat="39.3726725" lon="17.0831432"><ele>167.2</ele><time>2026-03-29T07:47:42.908Z</time></trkpt><trkpt lat="39.3726269" lon="17.0830365"><ele>167.8</ele><time>2026-03-29T07:47:44.908Z</time></trkpt><trkpt lat="39.3725818" lon="17.0829377"><ele>168.39999999999998</ele><time>2026-03-29T07:47:46.918Z</time></trkpt><trkpt lat="39.3725359" lon="17.0828398"><ele>169.0</ele><time>2026-03-29T07:47:48.904Z</time></trkpt><trkpt lat="39.3725309" lon="17.0827142"><ele>169.0</ele><time>2026-03-29T07:47:50.905Z</time></trkpt><trkpt lat="39.3725828" lon="17.0825769"><ele>169.0</ele><time>2026-03-29T07:47:52.91Z</time></trkpt><trkpt lat="39.3726088" lon="17.0824913"><ele>169.0</ele><time>2026-03-29T07:47:53.904Z</time></trkpt><trkpt lat="39.3726221" lon="17.0824009"><ele>169.0</ele><time>2026-03-29T07:47:54.902Z</time></trkpt><trkpt lat="39.3726183" lon="17.0823171"><ele>169.0</ele><time>2026-03-29T07:47:55.903Z</time></trkpt><trkpt lat="39.3726438" lon="17.0822031"><ele>169.0</ele><time>2026-03-29T07:47:57.907Z</time></trkpt><trkpt lat="39.3727594" lon="17.0821606"><ele>168.83333333333334</ele><time>2026-03-29T07:47:59.913Z</time></trkpt><trkpt lat="39.3728273" lon="17.0821403"><ele>168.66666666666669</ele><time>2026-03-29T07:48:00.91Z</time></trkpt><trkpt lat="39.3728987" lon="17.0821106"><ele>168.5</ele><time>2026-03-29T07:48:01.903Z</time></trkpt><trkpt lat="39.3729721" lon="17.0820763"><ele>168.33333333333334</ele><time>2026-03-29T07:48:02.91Z</time></trkpt><trkpt lat="39.3730451" lon="17.0820454"><ele>168.16666666666666</ele><time>2026-03-29T07:48:03.909Z</time></trkpt><trkpt lat="39.3731136" lon="17.0820058"><ele>168.0</ele><time>2026-03-29T07:48:04.912Z</time></trkpt><trkpt lat="39.3731662" lon="17.0819353"><ele>168.66666666666666</ele><time>2026-03-29T07:48:05.898Z</time></trkpt><trkpt lat="39.3732039" lon="17.0818494"><ele>169.33333333333334</ele><time>2026-03-29T07:48:06.912Z</time></trkpt><trkpt lat="39.3732441" lon="17.0817584"><ele>170.0</ele><time>2026-03-29T07:48:07.918Z</time></trkpt><trkpt lat="39.3732967" lon="17.0816749"><ele>170.66666666666669</ele><time>2026-03-29T07:48:08.911Z</time></trkpt><trkpt lat="39.3733615" lon="17.0816058"><ele>171.33333333333334</ele><time>2026-03-29T07:48:09.916Z</time></trkpt><trkpt lat="39.3734325" lon="17.0815531"><ele>172.0</ele><time>2026-03-29T07:48:10.91Z</time></trkpt><trkpt lat="39.3735036" lon="17.0815049"><ele>169.16666666666669</ele><time>2026-03-29T07:48:11.897Z</time></trkpt><trkpt lat="39.3735734" lon="17.0814549"><ele>166.33333333333334</ele><time>2026-03-29T07:48:12.917Z</time></trkpt><trkpt lat="39.3736387" lon="17.0814004"><ele>163.5</ele><time>2026-03-29T07:48:13.914Z</time></trkpt><trkpt lat="39.3736935" lon="17.0813565"><ele>160.66666666666666</ele><time>2026-03-29T07:48:14.905Z</time></trkpt><trkpt lat="39.3737605" lon="17.0813083"><ele>157.83333333333331</ele><time>2026-03-29T07:48:16.911Z</time></trkpt><trkpt lat="39.3737997" lon="17.0812296"><ele>155.0</ele><time>2026-03-29T07:48:21.899Z</time></trkpt><trkpt lat="39.3738526" lon="17.0811055"><ele>155.0</ele><time>2026-03-29T07:48:23.915Z</time></trkpt><trkpt lat="39.3739078" lon="17.0809798"><ele>155.0</ele><time>2026-03-29T07:48:25.9Z</time></trkpt><trkpt lat="39.3739749" lon="17.0808811"><ele>155.0</ele><time>2026-03-29T07:48:27.913Z</time></trkpt><trkpt lat="39.3740409" lon="17.0807845"><ele>155.0</ele><time>2026-03-29T07:48:29.911Z</time></trkpt><trkpt lat="39.3741237" lon="17.0807091"><ele>155.0</ele><time>2026-03-29T07:48:31.915Z</time></trkpt><trkpt lat="39.3742293" lon="17.0806642"><ele>155.0</ele><time>2026-03-29T07:48:33.923Z</time></trkpt><trkpt lat="39.3743059" lon="17.0805998"><ele>155.0</ele><time>2026-03-29T07:48:35.918Z</time></trkpt><trkpt lat="39.3743503" lon="17.0805206"><ele>155.0</ele><time>2026-03-29T07:48:37.92Z</time></trkpt><trkpt lat="39.3744138" lon="17.0804426"><ele>155.0</ele><time>2026-03-29T07:48:39.922Z</time></trkpt><trkpt lat="39.3745005" lon="17.0803667"><ele>155.0</ele><time>2026-03-29T07:48:41.914Z</time></trkpt><trkpt lat="39.3745656" lon="17.0802882"><ele>155.0</ele><time>2026-03-29T07:48:43.906Z</time></trkpt><trkpt lat="39.374626" lon="17.0802104"><ele>156.0</ele><time>2026-03-29T07:48:45.913Z</time></trkpt><trkpt lat="39.3747159" lon="17.0801434"><ele>157.0</ele><time>2026-03-29T07:48:47.915Z</time></trkpt><trkpt lat="39.3747896" lon="17.0800599"><ele>158.0</ele><time>2026-03-29T07:48:49.91Z</time></trkpt><trkpt lat="39.3748337" lon="17.0799703"><ele>159.0</ele><time>2026-03-29T07:48:51.911Z</time></trkpt><trkpt lat="39.3748741" lon="17.0798511"><ele>160.0</ele><time>2026-03-29T07:48:53.917Z</time></trkpt><trkpt lat="39.374917" lon="17.0797514"><ele>160.0</ele><time>2026-03-29T07:48:55.909Z</time></trkpt><trkpt lat="39.3749889" lon="17.0797059"><ele>160.0</ele><time>2026-03-29T07:49:14.912Z</time></trkpt><trkpt lat="39.3750636" lon="17.0795944"><ele>160.0</ele><time>2026-03-29T07:49:16.922Z</time></trkpt><trkpt lat="39.3751161" lon="17.0795104"><ele>160.0</ele><time>2026-03-29T07:49:17.908Z</time></trkpt><trkpt lat="39.3751743" lon="17.0794236"><ele>160.0</ele><time>2026-03-29T07:49:18.908Z</time></trkpt><trkpt lat="39.3752283" lon="17.0793459"><ele>160.0</ele><time>2026-03-29T07:49:19.904Z</time></trkpt><trkpt lat="39.3753144" lon="17.0792813"><ele>160.0</ele><time>2026-03-29T07:49:21.926Z</time></trkpt><trkpt lat="39.3752741" lon="17.0792119"><ele>160.0</ele><time>2026-03-29T07:49:24.908Z</time></trkpt><trkpt lat="39.3751999" lon="17.0792933"><ele>160.0</ele><time>2026-03-29T07:49:26.919Z</time></trkpt><trkpt lat="39.3751479" lon="17.0794058"><ele>160.0</ele><time>2026-03-29T07:49:27.915Z</time></trkpt><trkpt lat="39.3750864" lon="17.0795337"><ele>160.0</ele><time>2026-03-29T07:49:28.9Z</time></trkpt><trkpt lat="39.3750229" lon="17.0796372"><ele>160.0</ele><time>2026-03-29T07:49:29.911Z</time></trkpt><trkpt lat="39.3749638" lon="17.0796973"><ele>160.0</ele><time>2026-03-29T07:49:30.91Z</time></trkpt><trkpt lat="39.3748863" lon="17.0797602"><ele>160.0</ele><time>2026-03-29T07:49:32.911Z</time></trkpt><trkpt lat="39.3748491" lon="17.0798564"><ele>160.0</ele><time>2026-03-29T07:49:34.917Z</time></trkpt><trkpt lat="39.3747787" lon="17.079905"><ele>160.0</ele><time>2026-03-29T07:49:36.918Z</time></trkpt><trkpt lat="39.3747058" lon="17.0799079"><ele>160.0</ele><time>2026-03-29T07:49:38.918Z</time></trkpt><trkpt lat="39.3746645" lon="17.079841"><ele>160.0</ele><time>2026-03-29T07:49:40.907Z</time></trkpt><trkpt lat="39.3746935" lon="17.0797324"><ele>160.0</ele><time>2026-03-29T07:49:42.908Z</time></trkpt><trkpt lat="39.3747634" lon="17.0796154"><ele>160.0</ele><time>2026-03-29T07:49:44.903Z</time></trkpt><trkpt lat="39.374824" lon="17.0794738"><ele>160.0</ele><time>2026-03-29T07:49:46.909Z</time></trkpt><trkpt lat="39.37485" lon="17.0793962"><ele>160.0</ele><time>2026-03-29T07:49:47.9Z</time></trkpt><trkpt lat="39.3748736" lon="17.0793113"><ele>160.0</ele><time>2026-03-29T07:49:48.905Z</time></trkpt><trkpt lat="39.3748894" lon="17.0792252"><ele>160.0</ele><time>2026-03-29T07:49:49.916Z</time></trkpt><trkpt lat="39.3748966" lon="17.0791397"><ele>160.0</ele><time>2026-03-29T07:49:50.913Z</time></trkpt><trkpt lat="39.3749099" lon="17.079057"><ele>160.0</ele><time>2026-03-29T07:49:51.911Z</time></trkpt><trkpt lat="39.3749324" lon="17.0789806"><ele>160.0</ele><time>2026-03-29T07:49:52.905Z</time></trkpt><trkpt lat="39.3749827" lon="17.0788599"><ele>160.0</ele><time>2026-03-29T07:49:54.912Z</time></trkpt><trkpt lat="39.3749995" lon="17.0787719"><ele>160.0</ele><time>2026-03-29T07:49:56.909Z</time></trkpt><trkpt lat="39.3749745" lon="17.0786891"><ele>159.8</ele><time>2026-03-29T07:49:58.925Z</time></trkpt><trkpt lat="39.374882" lon="17.0786537"><ele>159.6</ele><time>2026-03-29T07:50:00.903Z</time></trkpt><trkpt lat="39.3747675" lon="17.0786811"><ele>159.4</ele><time>2026-03-29T07:50:02.911Z</time></trkpt><trkpt lat="39.3746875" lon="17.0787656"><ele>159.2</ele><time>2026-03-29T07:50:04.901Z</time></trkpt><trkpt lat="39.3746352" lon="17.0789008"><ele>159.0</ele><time>2026-03-29T07:50:06.917Z</time></trkpt><trkpt lat="39.374574" lon="17.0790369"><ele>157.5</ele><time>2026-03-29T07:50:08.921Z</time></trkpt><trkpt lat="39.3745389" lon="17.0791089"><ele>156.0</ele><time>2026-03-29T07:50:09.901Z</time></trkpt><trkpt lat="39.3744997" lon="17.0791759"><ele>154.5</ele><time>2026-03-29T07:50:10.906Z</time></trkpt><trkpt lat="39.3744247" lon="17.0792882"><ele>153.0</ele><time>2026-03-29T07:50:12.908Z</time></trkpt><trkpt lat="39.3743196" lon="17.0793617"><ele>151.5</ele><time>2026-03-29T07:50:14.914Z</time></trkpt><trkpt lat="39.3742657" lon="17.0794212"><ele>150.0</ele><time>2026-03-29T07:50:15.911Z</time></trkpt><trkpt lat="39.3742232" lon="17.0794922"><ele>150.0</ele><time>2026-03-29T07:50:16.901Z</time></trkpt><trkpt lat="39.3741772" lon="17.0795666"><ele>150.0</ele><time>2026-03-29T07:50:17.921Z</time></trkpt><trkpt lat="39.3741238" lon="17.0796446"><ele>150.0</ele><time>2026-03-29T07:50:18.912Z</time></trkpt><trkpt lat="39.3740673" lon="17.0797257"><ele>150.0</ele><time>2026-03-29T07:50:19.911Z</time></trkpt><trkpt lat="39.3740002" lon="17.0798015"><ele>150.0</ele><time>2026-03-29T07:50:20.902Z</time></trkpt><trkpt lat="39.373922" lon="17.0798719"><ele>150.0</ele><time>2026-03-29T07:50:21.908Z</time></trkpt><trkpt lat="39.3738433" lon="17.0799327"><ele>148.66666666666666</ele><time>2026-03-29T07:50:22.911Z</time></trkpt><trkpt lat="39.3737689" lon="17.0799726"><ele>147.33333333333334</ele><time>2026-03-29T07:50:23.9Z</time></trkpt><trkpt lat="39.3737054" lon="17.0800048"><ele>146.0</ele><time>2026-03-29T07:50:24.912Z</time></trkpt><trkpt lat="39.3735854" lon="17.0799902"><ele>144.66666666666669</ele><time>2026-03-29T07:50:26.908Z</time></trkpt><trkpt lat="39.3735128" lon="17.0799824"><ele>143.33333333333334</ele><time>2026-03-29T07:50:27.908Z</time></trkpt><trkpt lat="39.3734411" lon="17.0800165"><ele>142.0</ele><time>2026-03-29T07:50:28.909Z</time></trkpt><trkpt lat="39.3733672" lon="17.0800705"><ele>142.0</ele><time>2026-03-29T07:50:29.907Z</time></trkpt><trkpt lat="39.3732876" lon="17.0801336"><ele>142.0</ele><time>2026-03-29T07:50:30.897Z</time></trkpt><trkpt lat="39.3732103" lon="17.0801906"><ele>142.0</ele><time>2026-03-29T07:50:31.902Z</time></trkpt><trkpt lat="39.3731363" lon="17.0802235"><ele>142.0</ele><time>2026-03-29T07:50:32.916Z</time></trkpt><trkpt lat="39.3730659" lon="17.0802255"><ele>142.0</ele><time>2026-03-29T07:50:33.903Z</time></trkpt><trkpt lat="39.3730028" lon="17.0801914"><ele>142.0</ele><time>2026-03-29T07:50:34.895Z</time></trkpt><trkpt lat="39.3729349" lon="17.0801395"><ele>142.0</ele><time>2026-03-29T07:50:35.903Z</time></trkpt><trkpt lat="39.3728679" lon="17.0800925"><ele>142.0</ele><time>2026-03-29T07:50:36.91Z</time></trkpt><trkpt lat="39.3728095" lon="17.0800583"><ele>142.0</ele><time>2026-03-29T07:50:37.918Z</time></trkpt><trkpt lat="39.3727395" lon="17.0800038"><ele>142.0</ele><time>2026-03-29T07:50:39.917Z</time></trkpt><trkpt lat="39.3727128" lon="17.0799232"><ele>142.0</ele><time>2026-03-29T07:50:42.913Z</time></trkpt><trkpt lat="39.3726865" lon="17.0798445"><ele>142.0</ele><time>2026-03-29T07:50:50.916Z</time></trkpt><trkpt lat="39.372601" lon="17.0798292"><ele>142.0</ele><time>2026-03-29T07:50:54.914Z</time></trkpt><trkpt lat="39.37252" lon="17.079798"><ele>142.0</ele><time>2026-03-29T07:50:57.912Z</time></trkpt><trkpt lat="39.3724445" lon="17.07978"><ele>142.0</ele><time>2026-03-29T07:50:59.891Z</time></trkpt><trkpt lat="39.3723558" lon="17.0797976"><ele>142.0</ele><time>2026-03-29T07:51:01.903Z</time></trkpt><trkpt lat="39.3722788" lon="17.0798374"><ele>142.0</ele><time>2026-03-29T07:51:03.923Z</time></trkpt><trkpt lat="39.3722037" lon="17.079907"><ele>142.0</ele><time>2026-03-29T07:51:05.916Z</time></trkpt><trkpt lat="39.3721647" lon="17.0800282"><ele>142.0</ele><time>2026-03-29T07:51:07.897Z</time></trkpt><trkpt lat="39.3721038" lon="17.0801638"><ele>143.42857142857142</ele><time>2026-03-29T07:51:09.915Z</time></trkpt><trkpt lat="39.3720603" lon="17.0802252"><ele>144.85714285714283</ele><time>2026-03-29T07:51:10.911Z</time></trkpt><trkpt lat="39.3720022" lon="17.0802821"><ele>146.28571428571428</ele><time>2026-03-29T07:51:11.91Z</time></trkpt><trkpt lat="39.3719392" lon="17.080338"><ele>147.71428571428572</ele><time>2026-03-29T07:51:12.911Z</time></trkpt><trkpt lat="39.3718727" lon="17.0803984"><ele>149.14285714285717</ele><time>2026-03-29T07:51:13.918Z</time></trkpt><trkpt lat="39.3718098" lon="17.0804575"><ele>150.57142857142856</ele><time>2026-03-29T07:51:14.908Z</time></trkpt><trkpt lat="39.3717564" lon="17.0805084"><ele>152.0</ele><time>2026-03-29T07:51:15.904Z</time></trkpt><trkpt lat="39.3716832" lon="17.0806018"><ele>152.0</ele><time>2026-03-29T07:51:17.913Z</time></trkpt><trkpt lat="39.3716342" lon="17.0807038"><ele>152.0</ele><time>2026-03-29T07:51:19.899Z</time></trkpt><trkpt lat="39.3715931" lon="17.0808267"><ele>152.0</ele><time>2026-03-29T07:51:21.913Z</time></trkpt><trkpt lat="39.3715472" lon="17.080962"><ele>152.0</ele><time>2026-03-29T07:51:23.913Z</time></trkpt><trkpt lat="39.3715076" lon="17.081057"><ele>152.0</ele><time>2026-03-29T07:51:31.901Z</time></trkpt><trkpt lat="39.3714748" lon="17.0811478"><ele>153.0</ele><time>2026-03-29T07:51:34.91Z</time></trkpt><trkpt lat="39.3714235" lon="17.0812355"><ele>154.0</ele><time>2026-03-29T07:52:06.912Z</time></trkpt><trkpt lat="39.3713556" lon="17.0813189"><ele>155.0</ele><time>2026-03-29T07:52:08.906Z</time></trkpt><trkpt lat="39.3712676" lon="17.0813941"><ele>156.0</ele><time>2026-03-29T07:52:10.9Z</time></trkpt><trkpt lat="39.3711894" lon="17.0814464"><ele>157.0</ele><time>2026-03-29T07:52:12.9Z</time></trkpt><trkpt lat="39.3711205" lon="17.0815091"><ele>157.0</ele><time>2026-03-29T07:52:14.912Z</time></trkpt><trkpt lat="39.3710689" lon="17.0815863"><ele>157.0</ele><time>2026-03-29T07:52:16.912Z</time></trkpt><trkpt lat="39.371097" lon="17.081689"><ele>157.0</ele><time>2026-03-29T07:52:18.919Z</time></trkpt><trkpt lat="39.3711481" lon="17.0817887"><ele>157.0</ele><time>2026-03-29T07:52:20.909Z</time></trkpt><trkpt lat="39.3711271" lon="17.0819051"><ele>157.0</ele><time>2026-03-29T07:52:22.91Z</time></trkpt><trkpt lat="39.371068" lon="17.082013"><ele>155.0</ele><time>2026-03-29T07:52:24.903Z</time></trkpt><trkpt lat="39.3709981" lon="17.0820585"><ele>153.0</ele><time>2026-03-29T07:52:26.902Z</time></trkpt><trkpt lat="39.370914" lon="17.0820603"><ele>151.0</ele><time>2026-03-29T07:52:29.917Z</time></trkpt><trkpt lat="39.3709039" lon="17.0821818"><ele>149.0</ele><time>2026-03-29T07:52:32.945Z</time></trkpt><trkpt lat="39.3709342" lon="17.0823017"><ele>147.0</ele><time>2026-03-29T07:52:34.9Z</time></trkpt><trkpt lat="39.3709504" lon="17.08243"><ele>144.6</ele><time>2026-03-29T07:52:36.898Z</time></trkpt><trkpt lat="39.3709307" lon="17.082578"><ele>142.2</ele><time>2026-03-29T07:52:38.907Z</time></trkpt><trkpt lat="39.3709344" lon="17.0827059"><ele>139.8</ele><time>2026-03-29T07:52:40.897Z</time></trkpt><trkpt lat="39.3709837" lon="17.0828373"><ele>137.4</ele><time>2026-03-29T07:52:42.91Z</time></trkpt><trkpt lat="39.3710172" lon="17.0829581"><ele>135.0</ele><time>2026-03-29T07:52:44.917Z</time></trkpt><trkpt lat="39.3710413" lon="17.0830531"><ele>135.0</ele><time>2026-03-29T07:52:46.91Z</time></trkpt><trkpt lat="39.3710602" lon="17.0831607"><ele>135.0</ele><time>2026-03-29T07:52:48.905Z</time></trkpt><trkpt lat="39.3710586" lon="17.0832629"><ele>135.0</ele><time>2026-03-29T07:52:50.909Z</time></trkpt><trkpt lat="39.3710382" lon="17.0833745"><ele>135.0</ele><time>2026-03-29T07:52:52.906Z</time></trkpt><trkpt lat="39.3710133" lon="17.0834782"><ele>135.0</ele><time>2026-03-29T07:52:54.9Z</time></trkpt><trkpt lat="39.3709993" lon="17.0835882"><ele>135.0</ele><time>2026-03-29T07:52:56.902Z</time></trkpt><trkpt lat="39.3709495" lon="17.0836862"><ele>134.2</ele><time>2026-03-29T07:52:58.914Z</time></trkpt><trkpt lat="39.3708594" lon="17.0837495"><ele>133.4</ele><time>2026-03-29T07:53:00.908Z</time></trkpt><trkpt lat="39.3707699" lon="17.0838443"><ele>132.6</ele><time>2026-03-29T07:53:02.901Z</time></trkpt><trkpt lat="39.3706951" lon="17.0839282"><ele>131.8</ele><time>2026-03-29T07:53:04.909Z</time></trkpt><trkpt lat="39.370629" lon="17.083978"><ele>131.0</ele><time>2026-03-29T07:53:06.907Z</time></trkpt><trkpt lat="39.3705554" lon="17.0839577"><ele>135.33333333333331</ele><time>2026-03-29T07:53:08.912Z</time></trkpt><trkpt lat="39.3704925" lon="17.0838903"><ele>139.66666666666666</ele><time>2026-03-29T07:53:10.911Z</time></trkpt><trkpt lat="39.3704381" lon="17.0838167"><ele>144.0</ele><time>2026-03-29T07:53:12.897Z</time></trkpt><trkpt lat="39.3703963" lon="17.0837094"><ele>148.33333333333334</ele><time>2026-03-29T07:53:14.913Z</time></trkpt><trkpt lat="39.3703588" lon="17.0836112"><ele>152.66666666666669</ele><time>2026-03-29T07:53:16.912Z</time></trkpt><trkpt lat="39.370319" lon="17.0835334"><ele>157.0</ele><time>2026-03-29T07:53:18.925Z</time></trkpt><trkpt lat="39.3702481" lon="17.083471"><ele>157.0</ele><time>2026-03-29T07:53:20.902Z</time></trkpt><trkpt lat="39.3701306" lon="17.0834731"><ele>157.0</ele><time>2026-03-29T07:53:22.91Z</time></trkpt><trkpt lat="39.3700652" lon="17.0834927"><ele>157.0</ele><time>2026-03-29T07:53:23.926Z</time></trkpt><trkpt lat="39.3699521" lon="17.0835352"><ele>157.0</ele><time>2026-03-29T07:53:25.91Z</time></trkpt><trkpt lat="39.3698673" lon="17.083588"><ele>157.0</ele><time>2026-03-29T07:53:27.91Z</time></trkpt><trkpt lat="39.3697779" lon="17.083645"><ele>157.0</ele><time>2026-03-29T07:53:29.907Z</time></trkpt><trkpt lat="39.3697065" lon="17.0835897"><ele>157.0</ele><time>2026-03-29T07:53:31.92Z</time></trkpt><trkpt lat="39.3696554" lon="17.0834774"><ele>157.0</ele><time>2026-03-29T07:53:33.911Z</time></trkpt><trkpt lat="39.3695918" lon="17.0833743"><ele>157.0</ele><time>2026-03-29T07:53:35.912Z</time></trkpt><trkpt lat="39.3695352" lon="17.0832985"><ele>157.0</ele><time>2026-03-29T07:53:37.916Z</time></trkpt><trkpt lat="39.3694628" lon="17.0832054"><ele>162.6</ele><time>2026-03-29T07:53:39.911Z</time></trkpt><trkpt lat="39.3694032" lon="17.0830924"><ele>168.2</ele><time>2026-03-29T07:53:41.901Z</time></trkpt><trkpt lat="39.3694024" lon="17.082974"><ele>173.8</ele><time>2026-03-29T07:53:43.912Z</time></trkpt><trkpt lat="39.3694336" lon="17.0828408"><ele>179.4</ele><time>2026-03-29T07:53:45.905Z</time></trkpt><trkpt lat="39.3694684" lon="17.0827163"><ele>185.0</ele><time>2026-03-29T07:53:47.924Z</time></trkpt><trkpt lat="39.3695256" lon="17.0826235"><ele>185.0</ele><time>2026-03-29T07:53:49.906Z</time></trkpt><trkpt lat="39.3696072" lon="17.0825349"><ele>185.0</ele><time>2026-03-29T07:53:51.913Z</time></trkpt><trkpt lat="39.3696671" lon="17.0824286"><ele>185.0</ele><time>2026-03-29T07:53:53.909Z</time></trkpt><trkpt lat="39.3696468" lon="17.0823073"><ele>185.0</ele><time>2026-03-29T07:53:55.917Z</time></trkpt><trkpt lat="39.3695839" lon="17.08222"><ele>185.0</ele><time>2026-03-29T07:53:57.916Z</time></trkpt><trkpt lat="39.3695103" lon="17.0821433"><ele>187.2</ele><time>2026-03-29T07:53:59.907Z</time></trkpt><trkpt lat="39.3694412" lon="17.0820745"><ele>189.4</ele><time>2026-03-29T07:54:01.911Z</time></trkpt><trkpt lat="39.3693615" lon="17.0820056"><ele>191.60000000000002</ele><time>2026-03-29T07:54:03.914Z</time></trkpt><trkpt lat="39.3692777" lon="17.0819435"><ele>193.8</ele><time>2026-03-29T07:54:05.913Z</time></trkpt><trkpt lat="39.369196" lon="17.0818944"><ele>196.0</ele><time>2026-03-29T07:54:07.915Z</time></trkpt><trkpt lat="39.3691156" lon="17.0818054"><ele>195.99999999999997</ele><time>2026-03-29T07:54:09.935Z</time></trkpt><trkpt lat="39.3690177" lon="17.0817361"><ele>196.0</ele><time>2026-03-29T07:54:11.911Z</time></trkpt><trkpt lat="39.3689301" lon="17.0817502"><ele>196.0</ele><time>2026-03-29T07:54:13.916Z</time></trkpt><trkpt lat="39.3688569" lon="17.0817469"><ele>196.0</ele><time>2026-03-29T07:54:25.922Z</time></trkpt><trkpt lat="39.3688039" lon="17.0816793"><ele>195.99999999999997</ele><time>2026-03-29T07:55:05.925Z</time></trkpt><trkpt lat="39.368783" lon="17.0815714"><ele>196.0</ele><time>2026-03-29T07:55:07.941Z</time></trkpt><trkpt lat="39.3688033" lon="17.0814472"><ele>200.20000000000002</ele><time>2026-03-29T07:55:09.925Z</time></trkpt><trkpt lat="39.3688209" lon="17.0813212"><ele>204.4</ele><time>2026-03-29T07:55:11.922Z</time></trkpt><trkpt lat="39.3688122" lon="17.0812138"><ele>208.6</ele><time>2026-03-29T07:55:13.925Z</time></trkpt><trkpt lat="39.3687793" lon="17.081085"><ele>212.8</ele><time>2026-03-29T07:55:15.93Z</time></trkpt><trkpt lat="39.3687297" lon="17.0809632"><ele>217.0</ele><time>2026-03-29T07:55:17.915Z</time></trkpt><trkpt lat="39.3686701" lon="17.0808597"><ele>217.0</ele><time>2026-03-29T07:55:19.908Z</time></trkpt><trkpt lat="39.368646" lon="17.0807803"><ele>217.0</ele><time>2026-03-29T07:55:21.911Z</time></trkpt><trkpt lat="39.368701" lon="17.0807032"><ele>217.0</ele><time>2026-03-29T07:55:24.919Z</time></trkpt><trkpt lat="39.3687521" lon="17.0806543"><ele>217.0</ele><time>2026-03-29T07:55:28.915Z</time></trkpt><trkpt lat="39.3688088" lon="17.0805906"><ele>217.0</ele><time>2026-03-29T07:55:31.915Z</time></trkpt><trkpt lat="39.3687858" lon="17.0805039"><ele>217.0</ele><time>2026-03-29T07:55:53.915Z</time></trkpt><trkpt lat="39.368717" lon="17.0804572"><ele>217.0</ele><time>2026-03-29T07:55:55.916Z</time></trkpt><trkpt lat="39.3686743" lon="17.0803875"><ele>217.33333333333331</ele><time>2026-03-29T07:55:57.915Z</time></trkpt><trkpt lat="39.3686191" lon="17.0803175"><ele>217.66666666666666</ele><time>2026-03-29T07:55:59.92Z</time></trkpt><trkpt lat="39.3685257" lon="17.0802492"><ele>218.0</ele><time>2026-03-29T07:56:01.92Z</time></trkpt><trkpt lat="39.3684421" lon="17.0801791"><ele>218.33333333333331</ele><time>2026-03-29T07:56:03.915Z</time></trkpt><trkpt lat="39.3684209" lon="17.080086"><ele>218.66666666666666</ele><time>2026-03-29T07:56:06.905Z</time></trkpt><trkpt lat="39.3683798" lon="17.0799836"><ele>219.0</ele><time>2026-03-29T07:56:09.915Z</time></trkpt><trkpt lat="39.3683577" lon="17.0798911"><ele>219.0</ele><time>2026-03-29T07:56:11.925Z</time></trkpt><trkpt lat="39.3683307" lon="17.0797691"><ele>219.0</ele><time>2026-03-29T07:56:13.907Z</time></trkpt><trkpt lat="39.3682893" lon="17.0796503"><ele>219.0</ele><time>2026-03-29T07:56:15.914Z</time></trkpt><trkpt lat="39.3682753" lon="17.0795701"><ele>219.0</ele><time>2026-03-29T07:56:17.909Z</time></trkpt><trkpt lat="39.3683028" lon="17.0794867"><ele>219.0</ele><time>2026-03-29T07:56:19.911Z</time></trkpt><trkpt lat="39.3683675" lon="17.079396"><ele>219.0</ele><time>2026-03-29T07:56:21.909Z</time></trkpt><trkpt lat="39.3684336" lon="17.0793312"><ele>219.0</ele><time>2026-03-29T07:56:23.923Z</time></trkpt><trkpt lat="39.3685049" lon="17.0792965"><ele>219.0</ele><time>2026-03-29T07:56:25.919Z</time></trkpt><trkpt lat="39.3685585" lon="17.0792394"><ele>219.0</ele><time>2026-03-29T07:56:30.914Z</time></trkpt><trkpt lat="39.3686068" lon="17.0791775"><ele>219.0</ele><time>2026-03-29T07:56:33.924Z</time></trkpt><trkpt lat="39.3686665" lon="17.0791013"><ele>219.0</ele><time>2026-03-29T07:56:36.911Z</time></trkpt><trkpt lat="39.3686974" lon="17.0790013"><ele>219.0</ele><time>2026-03-29T07:56:39.902Z</time></trkpt><trkpt lat="39.3687427" lon="17.078921"><ele>215.83333333333334</ele><time>2026-03-29T07:56:49.918Z</time></trkpt><trkpt lat="39.3687699" lon="17.0788105"><ele>212.66666666666669</ele><time>2026-03-29T07:56:52.899Z</time></trkpt><trkpt lat="39.3687583" lon="17.0787194"><ele>209.5</ele><time>2026-03-29T07:56:55.917Z</time></trkpt><trkpt lat="39.3687667" lon="17.0786197"><ele>206.33333333333334</ele><time>2026-03-29T07:56:58.91Z</time></trkpt><trkpt lat="39.368759" lon="17.0785033"><ele>203.16666666666669</ele><time>2026-03-29T07:57:01.912Z</time></trkpt><trkpt lat="39.3687674" lon="17.0783833"><ele>200.0</ele><time>2026-03-29T07:57:04.92Z</time></trkpt><trkpt lat="39.3687796" lon="17.0782644"><ele>196.50000000000003</ele><time>2026-03-29T07:57:07.913Z</time></trkpt><trkpt lat="39.3687759" lon="17.0781453"><ele>193.0</ele><time>2026-03-29T07:57:10.904Z</time></trkpt><trkpt lat="39.368772" lon="17.078063"><ele>189.5</ele><time>2026-03-29T07:57:12.911Z</time></trkpt><trkpt lat="39.3687747" lon="17.0779795"><ele>186.0</ele><time>2026-03-29T07:57:14.919Z</time></trkpt><trkpt lat="39.3687908" lon="17.0778623"><ele>182.5</ele><time>2026-03-29T07:57:17.92Z</time></trkpt><trkpt lat="39.3688222" lon="17.0777477"><ele>179.0</ele><time>2026-03-29T07:57:20.907Z</time></trkpt><trkpt lat="39.3688399" lon="17.0776315"><ele>179.0</ele><time>2026-03-29T07:57:23.917Z</time></trkpt><trkpt lat="39.368858" lon="17.0775152"><ele>179.0</ele><time>2026-03-29T07:57:26.911Z</time></trkpt><trkpt lat="39.3688756" lon="17.0774045"><ele>179.0</ele><time>2026-03-29T07:57:30.906Z</time></trkpt><trkpt lat="39.3688873" lon="17.0773014"><ele>179.0</ele><time>2026-03-29T07:57:32.95Z</time></trkpt><trkpt lat="39.3689042" lon="17.0771903"><ele>179.0</ele><time>2026-03-29T07:57:34.903Z</time></trkpt><trkpt lat="39.3689196" lon="17.077088"><ele>179.0</ele><time>2026-03-29T07:57:36.922Z</time></trkpt><trkpt lat="39.3689286" lon="17.07699"><ele>178.00000000000003</ele><time>2026-03-29T07:57:38.919Z</time></trkpt><trkpt lat="39.3689356" lon="17.0769029"><ele>177.0</ele><time>2026-03-29T07:57:40.897Z</time></trkpt><trkpt lat="39.3689408" lon="17.0768081"><ele>176.0</ele><time>2026-03-29T07:57:42.912Z</time></trkpt><trkpt lat="39.3689472" lon="17.0767092"><ele>175.0</ele><time>2026-03-29T07:57:44.936Z</time></trkpt><trkpt lat="39.3689556" lon="17.0766148"><ele>174.0</ele><time>2026-03-29T07:57:46.91Z</time></trkpt><trkpt lat="39.3689707" lon="17.0765254"><ele>173.00000000000003</ele><time>2026-03-29T07:57:48.912Z</time></trkpt><trkpt lat="39.3690129" lon="17.0764403"><ele>172.0</ele><time>2026-03-29T07:57:50.929Z</time></trkpt><trkpt lat="39.3690498" lon="17.076366"><ele>170.16666666666669</ele><time>2026-03-29T07:57:52.919Z</time></trkpt><trkpt lat="39.3690773" lon="17.0762534"><ele>168.33333333333334</ele><time>2026-03-29T07:57:55.917Z</time></trkpt><trkpt lat="39.3690163" lon="17.0761691"><ele>166.5</ele><time>2026-03-29T07:57:58.917Z</time></trkpt><trkpt lat="39.3689572" lon="17.0761363"><ele>164.66666666666666</ele><time>2026-03-29T07:58:01.902Z</time></trkpt><trkpt lat="39.3688888" lon="17.0761043"><ele>162.83333333333331</ele><time>2026-03-29T07:58:04.902Z</time></trkpt><trkpt lat="39.3688124" lon="17.0760818"><ele>161.0</ele><time>2026-03-29T07:58:07.902Z</time></trkpt><trkpt lat="39.3687191" lon="17.0761003"><ele>158.16666666666666</ele><time>2026-03-29T07:58:11.903Z</time></trkpt><trkpt lat="39.3686226" lon="17.0761856"><ele>155.33333333333331</ele><time>2026-03-29T07:58:13.917Z</time></trkpt><trkpt lat="39.368574" lon="17.0762414"><ele>152.5</ele><time>2026-03-29T07:58:14.914Z</time></trkpt><trkpt lat="39.3685282" lon="17.0763035"><ele>149.66666666666666</ele><time>2026-03-29T07:58:15.898Z</time></trkpt><trkpt lat="39.3684816" lon="17.0763751"><ele>146.83333333333334</ele><time>2026-03-29T07:58:16.899Z</time></trkpt><trkpt lat="39.3684369" lon="17.0764419"><ele>144.0</ele><time>2026-03-29T07:58:17.922Z</time></trkpt><trkpt lat="39.3684044" lon="17.0765346"><ele>144.0</ele><time>2026-03-29T07:58:19.899Z</time></trkpt><trkpt lat="39.3683298" lon="17.0765365"><ele>144.0</ele><time>2026-03-29T07:58:24.924Z</time></trkpt><trkpt lat="39.3683454" lon="17.0764254"><ele>144.0</ele><time>2026-03-29T07:58:27.906Z</time></trkpt><trkpt lat="39.368379" lon="17.0763342"><ele>144.0</ele><time>2026-03-29T07:58:29.911Z</time></trkpt><trkpt lat="39.3684164" lon="17.0762284"><ele>144.0</ele><time>2026-03-29T07:58:32.912Z</time></trkpt><trkpt lat="39.3684443" lon="17.0761179"><ele>144.0</ele><time>2026-03-29T07:58:35.911Z</time></trkpt><trkpt lat="39.3684672" lon="17.0760271"><ele>144.0</ele><time>2026-03-29T07:58:38.917Z</time></trkpt><trkpt lat="39.3684999" lon="17.0759205"><ele>144.0</ele><time>2026-03-29T07:59:16.912Z</time></trkpt><trkpt lat="39.368532" lon="17.0758201"><ele>144.0</ele><time>2026-03-29T07:59:18.921Z</time></trkpt><trkpt lat="39.3685636" lon="17.0757157"><ele>144.0</ele><time>2026-03-29T07:59:20.916Z</time></trkpt><trkpt lat="39.3685768" lon="17.0756275"><ele>144.0</ele><time>2026-03-29T07:59:22.914Z</time></trkpt><trkpt lat="39.3685567" lon="17.0755453"><ele>144.0</ele><time>2026-03-29T07:59:24.933Z</time></trkpt><trkpt lat="39.368505" lon="17.0754825"><ele>141.6</ele><time>2026-03-29T07:59:26.908Z</time></trkpt><trkpt lat="39.3684403" lon="17.0754154"><ele>139.2</ele><time>2026-03-29T07:59:28.915Z</time></trkpt><trkpt lat="39.3683718" lon="17.0753292"><ele>136.79999999999998</ele><time>2026-03-29T07:59:30.911Z</time></trkpt><trkpt lat="39.3683206" lon="17.0752141"><ele>134.4</ele><time>2026-03-29T07:59:32.917Z</time></trkpt><trkpt lat="39.36828" lon="17.0750978"><ele>132.0</ele><time>2026-03-29T07:59:34.914Z</time></trkpt><trkpt lat="39.3682387" lon="17.0749965"><ele>130.66666666666666</ele><time>2026-03-29T07:59:36.931Z</time></trkpt><trkpt lat="39.3681993" lon="17.074906"><ele>129.33333333333334</ele><time>2026-03-29T07:59:38.92Z</time></trkpt><trkpt lat="39.3681679" lon="17.0748177"><ele>128.0</ele><time>2026-03-29T07:59:40.907Z</time></trkpt><trkpt lat="39.3681281" lon="17.0747036"><ele>126.66666666666667</ele><time>2026-03-29T07:59:43.911Z</time></trkpt><trkpt lat="39.3680699" lon="17.0746248"><ele>125.33333333333334</ele><time>2026-03-29T07:59:45.912Z</time></trkpt><trkpt lat="39.3679836" lon="17.0745541"><ele>124.0</ele><time>2026-03-29T07:59:47.911Z</time></trkpt><trkpt lat="39.3678708" lon="17.0744796"><ele>121.50000000000001</ele><time>2026-03-29T07:59:49.908Z</time></trkpt><trkpt lat="39.3678137" lon="17.0744395"><ele>119.0</ele><time>2026-03-29T07:59:50.911Z</time></trkpt><trkpt lat="39.3677047" lon="17.0743648"><ele>116.5</ele><time>2026-03-29T07:59:52.906Z</time></trkpt><trkpt lat="39.3676468" lon="17.0743256"><ele>114.0</ele><time>2026-03-29T07:59:53.906Z</time></trkpt><trkpt lat="39.3675841" lon="17.0742839"><ele>111.50000000000001</ele><time>2026-03-29T07:59:54.912Z</time></trkpt><trkpt lat="39.3675238" lon="17.0742419"><ele>109.0</ele><time>2026-03-29T07:59:55.91Z</time></trkpt><trkpt lat="39.3674239" lon="17.0741674"><ele>109.0</ele><time>2026-03-29T07:59:57.909Z</time></trkpt><trkpt lat="39.3673701" lon="17.0741235"><ele>109.0</ele><time>2026-03-29T07:59:59.908Z</time></trkpt><trkpt lat="39.3672781" lon="17.0740576"><ele>109.0</ele><time>2026-03-29T08:01:20.922Z</time></trkpt><trkpt lat="39.3671811" lon="17.0739764"><ele>109.0</ele><time>2026-03-29T08:01:22.904Z</time></trkpt><trkpt lat="39.3670874" lon="17.0739026"><ele>109.0</ele><time>2026-03-29T08:01:24.945Z</time></trkpt><trkpt lat="39.3670043" lon="17.0738315"><ele>106.4</ele><time>2026-03-29T08:01:26.908Z</time></trkpt><trkpt lat="39.3669179" lon="17.0737585"><ele>103.80000000000001</ele><time>2026-03-29T08:01:28.911Z</time></trkpt><trkpt lat="39.3668278" lon="17.0736855"><ele>101.19999999999999</ele><time>2026-03-29T08:01:30.919Z</time></trkpt><trkpt lat="39.3667244" lon="17.0736216"><ele>98.6</ele><time>2026-03-29T08:01:32.936Z</time></trkpt><trkpt lat="39.3666067" lon="17.0736027"><ele>96.0</ele><time>2026-03-29T08:01:34.939Z</time></trkpt><trkpt lat="39.3664753" lon="17.0735991"><ele>95.99999999999999</ele><time>2026-03-29T08:01:36.934Z</time></trkpt><trkpt lat="39.3664061" lon="17.0735996"><ele>96.0</ele><time>2026-03-29T08:01:37.944Z</time></trkpt><trkpt lat="39.3663378" lon="17.0736028"><ele>96.0</ele><time>2026-03-29T08:01:38.923Z</time></trkpt><trkpt lat="39.3662705" lon="17.0736064"><ele>96.0</ele><time>2026-03-29T08:01:39.906Z</time></trkpt><trkpt lat="39.3662044" lon="17.0736101"><ele>96.0</ele><time>2026-03-29T08:01:40.91Z</time></trkpt><trkpt lat="39.3661387" lon="17.0736254"><ele>95.99999999999999</ele><time>2026-03-29T08:01:41.915Z</time></trkpt><trkpt lat="39.3660786" lon="17.073656"><ele>96.0</ele><time>2026-03-29T08:01:42.923Z</time></trkpt><trkpt lat="39.3659841" lon="17.0737354"><ele>94.16666666666667</ele><time>2026-03-29T08:01:44.916Z</time></trkpt><trkpt lat="39.365916" lon="17.0737731"><ele>92.33333333333333</ele><time>2026-03-29T08:01:46.916Z</time></trkpt><trkpt lat="39.3658531" lon="17.0737546"><ele>90.5</ele><time>2026-03-29T08:01:48.911Z</time></trkpt><trkpt lat="39.3657731" lon="17.0736956"><ele>88.66666666666666</ele><time>2026-03-29T08:01:50.923Z</time></trkpt><trkpt lat="39.3656708" lon="17.0736355"><ele>86.83333333333333</ele><time>2026-03-29T08:01:52.901Z</time></trkpt><trkpt lat="39.3655715" lon="17.0735879"><ele>85.0</ele><time>2026-03-29T08:01:54.913Z</time></trkpt><trkpt lat="39.3655024" lon="17.0735611"><ele>83.5</ele><time>2026-03-29T08:01:56.913Z</time></trkpt><trkpt lat="39.3654271" lon="17.0735458"><ele>82.0</ele><time>2026-03-29T08:01:59.905Z</time></trkpt><trkpt lat="39.3653161" lon="17.0735652"><ele>80.5</ele><time>2026-03-29T08:02:02.903Z</time></trkpt><trkpt lat="39.3652023" lon="17.073569"><ele>79.0</ele><time>2026-03-29T08:02:04.925Z</time></trkpt><trkpt lat="39.3651382" lon="17.0735561"><ele>77.5</ele><time>2026-03-29T08:02:05.913Z</time></trkpt><trkpt lat="39.365069" lon="17.0735286"><ele>76.0</ele><time>2026-03-29T08:02:06.91Z</time></trkpt><trkpt lat="39.3649996" lon="17.0734938"><ele>76.0</ele><time>2026-03-29T08:02:07.906Z</time></trkpt><trkpt lat="39.3649294" lon="17.0734605"><ele>76.0</ele><time>2026-03-29T08:02:08.906Z</time></trkpt><trkpt lat="39.3648608" lon="17.0734285"><ele>76.0</ele><time>2026-03-29T08:02:09.902Z</time></trkpt><trkpt lat="39.3647947" lon="17.0733928"><ele>76.0</ele><time>2026-03-29T08:02:10.907Z</time></trkpt><trkpt lat="39.3647301" lon="17.0733583"><ele>76.0</ele><time>2026-03-29T08:02:11.905Z</time></trkpt><trkpt lat="39.3646662" lon="17.0733298"><ele>76.0</ele><time>2026-03-29T08:02:12.91Z</time></trkpt><trkpt lat="39.3645512" lon="17.07331"><ele>75.66666666666666</ele><time>2026-03-29T08:02:14.899Z</time></trkpt><trkpt lat="39.3644431" lon="17.0733257"><ele>75.33333333333333</ele><time>2026-03-29T08:02:16.906Z</time></trkpt><trkpt lat="39.3643603" lon="17.0733582"><ele>75.0</ele><time>2026-03-29T08:02:18.91Z</time></trkpt><trkpt lat="39.364288" lon="17.0733586"><ele>74.66666666666667</ele><time>2026-03-29T08:02:20.912Z</time></trkpt><trkpt lat="39.3642164" lon="17.0733526"><ele>74.33333333333334</ele><time>2026-03-29T08:02:22.912Z</time></trkpt><trkpt lat="39.3641527" lon="17.073346"><ele>74.0</ele><time>2026-03-29T08:02:24.909Z</time></trkpt><trkpt lat="39.3640689" lon="17.073334"><ele>74.0</ele><time>2026-03-29T08:02:27.909Z</time></trkpt><trkpt lat="39.3640032" lon="17.0733228"><ele>74.0</ele><time>2026-03-29T08:02:29.917Z</time></trkpt><trkpt lat="39.3639133" lon="17.0732815"><ele>74.0</ele><time>2026-03-29T08:02:31.903Z</time></trkpt><trkpt lat="39.3638058" lon="17.0732219"><ele>74.0</ele><time>2026-03-29T08:02:33.909Z</time></trkpt><trkpt lat="39.3637471" lon="17.07319"><ele>74.0</ele><time>2026-03-29T08:02:34.907Z</time></trkpt><trkpt lat="39.3636347" lon="17.0731278"><ele>72.60000000000001</ele><time>2026-03-29T08:02:36.906Z</time></trkpt><trkpt lat="39.3635227" lon="17.0731082"><ele>71.2</ele><time>2026-03-29T08:02:38.906Z</time></trkpt><trkpt lat="39.3634174" lon="17.0731233"><ele>69.80000000000001</ele><time>2026-03-29T08:02:40.92Z</time></trkpt><trkpt lat="39.3633133" lon="17.073085"><ele>68.4</ele><time>2026-03-29T08:02:42.9Z</time></trkpt><trkpt lat="39.3632611" lon="17.0729979"><ele>67.0</ele><time>2026-03-29T08:02:44.915Z</time></trkpt><trkpt lat="39.3632625" lon="17.0728813"><ele>67.0</ele><time>2026-03-29T08:02:47.909Z</time></trkpt><trkpt lat="39.3632934" lon="17.0727693"><ele>67.0</ele><time>2026-03-29T08:02:49.912Z</time></trkpt><trkpt lat="39.3633323" lon="17.0726691"><ele>67.0</ele><time>2026-03-29T08:02:51.91Z</time></trkpt><trkpt lat="39.3634037" lon="17.0725551"><ele>67.0</ele><time>2026-03-29T08:02:53.91Z</time></trkpt><trkpt lat="39.3634748" lon="17.0724451"><ele>67.0</ele><time>2026-03-29T08:02:55.918Z</time></trkpt><trkpt lat="39.36354" lon="17.0723251"><ele>67.28571428571429</ele><time>2026-03-29T08:02:57.911Z</time></trkpt><trkpt lat="39.3635737" lon="17.0722538"><ele>67.57142857142857</ele><time>2026-03-29T08:02:58.91Z</time></trkpt><trkpt lat="39.3636029" lon="17.0721801"><ele>67.85714285714286</ele><time>2026-03-29T08:02:59.926Z</time></trkpt><trkpt lat="39.3636287" lon="17.0721008"><ele>68.14285714285714</ele><time>2026-03-29T08:03:00.905Z</time></trkpt><trkpt lat="39.3636564" lon="17.0720149"><ele>68.42857142857143</ele><time>2026-03-29T08:03:01.904Z</time></trkpt><trkpt lat="39.3636854" lon="17.0719325"><ele>68.71428571428572</ele><time>2026-03-29T08:03:02.913Z</time></trkpt><trkpt lat="39.3637161" lon="17.0718578"><ele>69.0</ele><time>2026-03-29T08:03:03.915Z</time></trkpt><trkpt lat="39.3637503" lon="17.0717822"><ele>69.0</ele><time>2026-03-29T08:03:04.907Z</time></trkpt><trkpt lat="39.3637796" lon="17.0717011"><ele>69.0</ele><time>2026-03-29T08:03:05.909Z</time></trkpt><trkpt lat="39.3637869" lon="17.0715494"><ele>69.0</ele><time>2026-03-29T08:03:07.906Z</time></trkpt><trkpt lat="39.363721" lon="17.0714439"><ele>69.0</ele><time>2026-03-29T08:03:09.921Z</time></trkpt><trkpt lat="39.3636005" lon="17.0713835"><ele>69.0</ele><time>2026-03-29T08:03:11.906Z</time></trkpt><trkpt lat="39.3635247" lon="17.0713666"><ele>69.5</ele><time>2026-03-29T08:03:12.907Z</time></trkpt><trkpt lat="39.3634469" lon="17.0713532"><ele>70.0</ele><time>2026-03-29T08:03:13.915Z</time></trkpt><trkpt lat="39.3633682" lon="17.0713246"><ele>70.5</ele><time>2026-03-29T08:03:14.915Z</time></trkpt><trkpt lat="39.3632968" lon="17.0712762"><ele>71.0</ele><time>2026-03-29T08:03:15.896Z</time></trkpt><trkpt lat="39.3632302" lon="17.0712117"><ele>71.5</ele><time>2026-03-29T08:03:16.904Z</time></trkpt><trkpt lat="39.3631687" lon="17.0711464"><ele>72.0</ele><time>2026-03-29T08:03:17.905Z</time></trkpt><trkpt lat="39.3631084" lon="17.071076"><ele>72.0</ele><time>2026-03-29T08:03:18.909Z</time></trkpt><trkpt lat="39.3630481" lon="17.0710016"><ele>72.0</ele><time>2026-03-29T08:03:19.911Z</time></trkpt><trkpt lat="39.3629983" lon="17.0709085"><ele>72.0</ele><time>2026-03-29T08:03:20.919Z</time></trkpt><trkpt lat="39.3629577" lon="17.0708134"><ele>72.0</ele><time>2026-03-29T08:03:21.913Z</time></trkpt><trkpt lat="39.3629161" lon="17.0707272"><ele>72.0</ele><time>2026-03-29T08:03:22.908Z</time></trkpt><trkpt lat="39.3628608" lon="17.0706646"><ele>72.0</ele><time>2026-03-29T08:03:23.923Z</time></trkpt><trkpt lat="39.3627867" lon="17.0706267"><ele>70.5</ele><time>2026-03-29T08:03:24.913Z</time></trkpt><trkpt lat="39.362706" lon="17.0706063"><ele>69.0</ele><time>2026-03-29T08:03:25.899Z</time></trkpt><trkpt lat="39.3626198" lon="17.0706016"><ele>67.5</ele><time>2026-03-29T08:03:26.912Z</time></trkpt><trkpt lat="39.3625329" lon="17.0705956"><ele>66.0</ele><time>2026-03-29T08:03:27.912Z</time></trkpt><trkpt lat="39.3624469" lon="17.0705894"><ele>64.5</ele><time>2026-03-29T08:03:28.917Z</time></trkpt><trkpt lat="39.3623599" lon="17.0705834"><ele>63.0</ele><time>2026-03-29T08:03:29.904Z</time></trkpt><trkpt lat="39.3622674" lon="17.0705809"><ele>62.599999999999994</ele><time>2026-03-29T08:03:30.903Z</time></trkpt><trkpt lat="39.3621669" lon="17.0705791"><ele>62.199999999999996</ele><time>2026-03-29T08:03:31.908Z</time></trkpt><trkpt lat="39.3620647" lon="17.070577"><ele>61.8</ele><time>2026-03-29T08:03:32.918Z</time></trkpt><trkpt lat="39.3619643" lon="17.0705778"><ele>61.4</ele><time>2026-03-29T08:03:33.903Z</time></trkpt><trkpt lat="39.3618567" lon="17.0705823"><ele>61.0</ele><time>2026-03-29T08:03:34.914Z</time></trkpt><trkpt lat="39.361746" lon="17.0705891"><ele>61.0</ele><time>2026-03-29T08:03:35.91Z</time></trkpt><trkpt lat="39.3616363" lon="17.070601"><ele>60.99999999999999</ele><time>2026-03-29T08:03:36.913Z</time></trkpt><trkpt lat="39.361528" lon="17.0706186"><ele>60.99999999999999</ele><time>2026-03-29T08:03:37.905Z</time></trkpt><trkpt lat="39.3614169" lon="17.0706358"><ele>61.0</ele><time>2026-03-29T08:03:38.911Z</time></trkpt><trkpt lat="39.3613033" lon="17.0706533"><ele>61.0</ele><time>2026-03-29T08:03:39.907Z</time></trkpt><trkpt lat="39.3611892" lon="17.0706675"><ele>60.4</ele><time>2026-03-29T08:03:40.911Z</time></trkpt><trkpt lat="39.3610768" lon="17.0706795"><ele>59.8</ele><time>2026-03-29T08:03:41.906Z</time></trkpt><trkpt lat="39.3609641" lon="17.0706946"><ele>59.199999999999996</ele><time>2026-03-29T08:03:42.919Z</time></trkpt><trkpt lat="39.3608534" lon="17.0707063"><ele>58.599999999999994</ele><time>2026-03-29T08:03:43.904Z</time></trkpt><trkpt lat="39.3607442" lon="17.0707168"><ele>58.0</ele><time>2026-03-29T08:03:44.911Z</time></trkpt><trkpt lat="39.3606406" lon="17.0707289"><ele>58.0</ele><time>2026-03-29T08:03:45.912Z</time></trkpt><trkpt lat="39.360541" lon="17.0707403"><ele>58.0</ele><time>2026-03-29T08:03:46.912Z</time></trkpt><trkpt lat="39.360443" lon="17.0707493"><ele>58.0</ele><time>2026-03-29T08:03:47.908Z</time></trkpt><trkpt lat="39.3603464" lon="17.0707532"><ele>58.0</ele><time>2026-03-29T08:03:48.911Z</time></trkpt><trkpt lat="39.3602517" lon="17.070747"><ele>58.0</ele><time>2026-03-29T08:03:49.913Z</time></trkpt><trkpt lat="39.3601567" lon="17.0707306"><ele>58.0</ele><time>2026-03-29T08:03:50.913Z</time></trkpt><trkpt lat="39.3600595" lon="17.070701"><ele>58.0</ele><time>2026-03-29T08:03:51.902Z</time></trkpt><trkpt lat="39.3599636" lon="17.0706516"><ele>58.0</ele><time>2026-03-29T08:03:52.915Z</time></trkpt><trkpt lat="39.3598732" lon="17.0705906"><ele>58.0</ele><time>2026-03-29T08:03:53.912Z</time></trkpt><trkpt lat="39.3597856" lon="17.0705289"><ele>58.0</ele><time>2026-03-29T08:03:54.907Z</time></trkpt><trkpt lat="39.3596964" lon="17.070473"><ele>58.0</ele><time>2026-03-29T08:03:55.919Z</time></trkpt><trkpt lat="39.3596063" lon="17.0704216"><ele>58.0</ele><time>2026-03-29T08:03:56.931Z</time></trkpt><trkpt lat="39.3595187" lon="17.0703723"><ele>58.0</ele><time>2026-03-29T08:03:57.918Z</time></trkpt><trkpt lat="39.359432" lon="17.0703244"><ele>58.0</ele><time>2026-03-29T08:03:58.904Z</time></trkpt><trkpt lat="39.3593366" lon="17.070275"><ele>58.0</ele><time>2026-03-29T08:03:59.913Z</time></trkpt><trkpt lat="39.3592352" lon="17.070226"><ele>58.0</ele><time>2026-03-29T08:04:00.903Z</time></trkpt><trkpt lat="39.3591351" lon="17.0701773"><ele>58.0</ele><time>2026-03-29T08:04:01.901Z</time></trkpt><trkpt lat="39.3590366" lon="17.07013"><ele>58.0</ele><time>2026-03-29T08:04:02.908Z</time></trkpt><trkpt lat="39.3589395" lon="17.0700844"><ele>58.0</ele><time>2026-03-29T08:04:03.916Z</time></trkpt><trkpt lat="39.3588448" lon="17.0700371"><ele>58.0</ele><time>2026-03-29T08:04:04.905Z</time></trkpt><trkpt lat="39.3587511" lon="17.0699884"><ele>58.8</ele><time>2026-03-29T08:04:05.907Z</time></trkpt><trkpt lat="39.3586585" lon="17.0699411"><ele>59.599999999999994</ele><time>2026-03-29T08:04:06.91Z</time></trkpt><trkpt lat="39.3585671" lon="17.0698963"><ele>60.400000000000006</ele><time>2026-03-29T08:04:07.909Z</time></trkpt><trkpt lat="39.3584762" lon="17.0698547"><ele>61.2</ele><time>2026-03-29T08:04:08.909Z</time></trkpt><trkpt lat="39.3583819" lon="17.0698137"><ele>62.0</ele><time>2026-03-29T08:04:09.91Z</time></trkpt><trkpt lat="39.3582817" lon="17.0697662"><ele>62.0</ele><time>2026-03-29T08:04:10.91Z</time></trkpt><trkpt lat="39.3581808" lon="17.0697104"><ele>62.0</ele><time>2026-03-29T08:04:11.907Z</time></trkpt><trkpt lat="39.3580832" lon="17.0696517"><ele>62.0</ele><time>2026-03-29T08:04:12.91Z</time></trkpt><trkpt lat="39.357988" lon="17.0695927"><ele>62.0</ele><time>2026-03-29T08:04:13.905Z</time></trkpt><trkpt lat="39.3578955" lon="17.0695333"><ele>62.0</ele><time>2026-03-29T08:04:14.921Z</time></trkpt><trkpt lat="39.357803" lon="17.0694689"><ele>60.0</ele><time>2026-03-29T08:04:15.91Z</time></trkpt><trkpt lat="39.357706" lon="17.0693941"><ele>58.0</ele><time>2026-03-29T08:04:16.918Z</time></trkpt><trkpt lat="39.3576099" lon="17.0693173"><ele>56.0</ele><time>2026-03-29T08:04:17.919Z</time></trkpt><trkpt lat="39.357516" lon="17.0692412"><ele>54.0</ele><time>2026-03-29T08:04:18.917Z</time></trkpt><trkpt lat="39.3574262" lon="17.0691634"><ele>52.0</ele><time>2026-03-29T08:04:19.911Z</time></trkpt><trkpt lat="39.3573414" lon="17.0690846"><ele>52.0</ele><time>2026-03-29T08:04:20.92Z</time></trkpt><trkpt lat="39.3572554" lon="17.0690074"><ele>52.0</ele><time>2026-03-29T08:04:21.911Z</time></trkpt><trkpt lat="39.3571627" lon="17.0689299"><ele>52.0</ele><time>2026-03-29T08:04:22.913Z</time></trkpt><trkpt lat="39.3570669" lon="17.0688544"><ele>52.0</ele><time>2026-03-29T08:04:23.926Z</time></trkpt><trkpt lat="39.3569719" lon="17.068782"><ele>52.0</ele><time>2026-03-29T08:04:24.91Z</time></trkpt><trkpt lat="39.3568755" lon="17.0687113"><ele>51.6</ele><time>2026-03-29T08:04:25.902Z</time></trkpt><trkpt lat="39.356777" lon="17.0686446"><ele>51.2</ele><time>2026-03-29T08:04:26.916Z</time></trkpt><trkpt lat="39.3566786" lon="17.0685825"><ele>50.8</ele><time>2026-03-29T08:04:27.908Z</time></trkpt><trkpt lat="39.3565802" lon="17.0685198"><ele>50.4</ele><time>2026-03-29T08:04:28.922Z</time></trkpt><trkpt lat="39.3564836" lon="17.0684571"><ele>50.0</ele><time>2026-03-29T08:04:29.919Z</time></trkpt><trkpt lat="39.3563878" lon="17.0683945"><ele>50.0</ele><time>2026-03-29T08:04:30.907Z</time></trkpt><trkpt lat="39.3562902" lon="17.0683386"><ele>50.0</ele><time>2026-03-29T08:04:31.916Z</time></trkpt><trkpt lat="39.3561898" lon="17.0682947"><ele>50.0</ele><time>2026-03-29T08:04:32.915Z</time></trkpt><trkpt lat="39.356081" lon="17.0682616"><ele>50.0</ele><time>2026-03-29T08:04:33.909Z</time></trkpt><trkpt lat="39.3559618" lon="17.0682436"><ele>50.0</ele><time>2026-03-29T08:04:34.908Z</time></trkpt><trkpt lat="39.3558395" lon="17.0682379"><ele>50.0</ele><time>2026-03-29T08:04:35.939Z</time></trkpt><trkpt lat="39.3557205" lon="17.068236"><ele>50.0</ele><time>2026-03-29T08:04:36.959Z</time></trkpt><trkpt lat="39.3556022" lon="17.0682353"><ele>50.0</ele><time>2026-03-29T08:04:37.975Z</time></trkpt><trkpt lat="39.3554854" lon="17.0682314"><ele>50.0</ele><time>2026-03-29T08:04:38.968Z</time></trkpt><trkpt lat="39.3553708" lon="17.0682258"><ele>49.0</ele><time>2026-03-29T08:04:39.923Z</time></trkpt><trkpt lat="39.3552539" lon="17.0682206"><ele>48.0</ele><time>2026-03-29T08:04:40.962Z</time></trkpt><trkpt lat="39.3551425" lon="17.0682168"><ele>47.0</ele><time>2026-03-29T08:04:41.952Z</time></trkpt><trkpt lat="39.3550354" lon="17.0682126"><ele>46.0</ele><time>2026-03-29T08:04:42.982Z</time></trkpt><trkpt lat="39.3549421" lon="17.068209"><ele>45.0</ele><time>2026-03-29T08:04:43.928Z</time></trkpt><trkpt lat="39.3548632" lon="17.0682095"><ele>45.0</ele><time>2026-03-29T08:04:44.926Z</time></trkpt><trkpt lat="39.3547681" lon="17.0681927"><ele>45.0</ele><time>2026-03-29T08:04:46.915Z</time></trkpt><trkpt lat="39.3547808" lon="17.0680928"><ele>45.0</ele><time>2026-03-29T08:04:49.92Z</time></trkpt><trkpt lat="39.3548571" lon="17.0680512"><ele>45.0</ele><time>2026-03-29T08:04:51.921Z</time></trkpt><trkpt lat="39.3549339" lon="17.0680089"><ele>45.0</ele><time>2026-03-29T08:04:54.913Z</time></trkpt><trkpt lat="39.3549986" lon="17.0679698"><ele>45.0</ele><time>2026-03-29T08:04:56.924Z</time></trkpt><trkpt lat="39.355072" lon="17.0679224"><ele>45.0</ele><time>2026-03-29T08:04:58.91Z</time></trkpt><trkpt lat="39.3551567" lon="17.06786"><ele>45.0</ele><time>2026-03-29T08:05:01.916Z</time></trkpt><trkpt lat="39.3552562" lon="17.0677893"><ele>45.0</ele><time>2026-03-29T08:05:03.91Z</time></trkpt><trkpt lat="39.3553418" lon="17.0677262"><ele>45.0</ele><time>2026-03-29T08:05:05.92Z</time></trkpt><trkpt lat="39.3554255" lon="17.0676637"><ele>45.0</ele><time>2026-03-29T08:05:07.915Z</time></trkpt><trkpt lat="39.3555094" lon="17.0675998"><ele>46.0</ele><time>2026-03-29T08:05:09.921Z</time></trkpt><trkpt lat="39.3555735" lon="17.0675487"><ele>47.0</ele><time>2026-03-29T08:05:11.916Z</time></trkpt><trkpt lat="39.3556586" lon="17.0674638"><ele>48.0</ele><time>2026-03-29T08:05:13.915Z</time></trkpt><trkpt lat="39.3557225" lon="17.0673913"><ele>49.0</ele><time>2026-03-29T08:05:15.919Z</time></trkpt><trkpt lat="39.355786" lon="17.0673224"><ele>50.0</ele><time>2026-03-29T08:05:17.906Z</time></trkpt><trkpt lat="39.3558736" lon="17.0672354"><ele>50.0</ele><time>2026-03-29T08:05:19.919Z</time></trkpt><trkpt lat="39.3559521" lon="17.0671763"><ele>50.0</ele><time>2026-03-29T08:05:21.926Z</time></trkpt><trkpt lat="39.3560402" lon="17.0671267"><ele>50.0</ele><time>2026-03-29T08:05:23.906Z</time></trkpt><trkpt lat="39.356142" lon="17.0670703"><ele>50.0</ele><time>2026-03-29T08:05:25.934Z</time></trkpt><trkpt lat="39.3562281" lon="17.0670354"><ele>50.0</ele><time>2026-03-29T08:05:27.916Z</time></trkpt><trkpt lat="39.3563091" lon="17.0670075"><ele>52.0</ele><time>2026-03-29T08:05:29.915Z</time></trkpt><trkpt lat="39.3564285" lon="17.0669583"><ele>54.0</ele><time>2026-03-29T08:05:31.912Z</time></trkpt><trkpt lat="39.3565399" lon="17.066899"><ele>56.0</ele><time>2026-03-29T08:05:33.904Z</time></trkpt><trkpt lat="39.3566391" lon="17.0668445"><ele>58.0</ele><time>2026-03-29T08:05:35.905Z</time></trkpt><trkpt lat="39.3567289" lon="17.0667967"><ele>57.99999999999999</ele><time>2026-03-29T08:05:37.908Z</time></trkpt><trkpt lat="39.3568102" lon="17.0667572"><ele>58.0</ele><time>2026-03-29T08:05:39.915Z</time></trkpt><trkpt lat="39.3569095" lon="17.0667069"><ele>58.0</ele><time>2026-03-29T08:05:41.928Z</time></trkpt><trkpt lat="39.3569784" lon="17.0666723"><ele>58.0</ele><time>2026-03-29T08:05:42.911Z</time></trkpt><trkpt lat="39.3570468" lon="17.0666375"><ele>57.99999999999999</ele><time>2026-03-29T08:05:43.919Z</time></trkpt><trkpt lat="39.357116" lon="17.0666021"><ele>58.0</ele><time>2026-03-29T08:05:44.92Z</time></trkpt><trkpt lat="39.3571917" lon="17.0665638"><ele>57.666666666666664</ele><time>2026-03-29T08:05:45.91Z</time></trkpt><trkpt lat="39.3572684" lon="17.0665265"><ele>57.33333333333333</ele><time>2026-03-29T08:05:46.915Z</time></trkpt><trkpt lat="39.3573404" lon="17.0664924"><ele>57.0</ele><time>2026-03-29T08:05:47.92Z</time></trkpt><trkpt lat="39.3574076" lon="17.0664592"><ele>56.66666666666667</ele><time>2026-03-29T08:05:48.909Z</time></trkpt><trkpt lat="39.3574715" lon="17.0664258"><ele>56.333333333333336</ele><time>2026-03-29T08:05:49.919Z</time></trkpt><trkpt lat="39.3575328" lon="17.0663961"><ele>56.0</ele><time>2026-03-29T08:05:50.916Z</time></trkpt><trkpt lat="39.3576484" lon="17.0663428"><ele>56.00000000000001</ele><time>2026-03-29T08:05:52.915Z</time></trkpt><trkpt lat="39.3577593" lon="17.0662927"><ele>56.0</ele><time>2026-03-29T08:05:54.918Z</time></trkpt><trkpt lat="39.3578227" lon="17.0662672"><ele>56.0</ele><time>2026-03-29T08:05:55.904Z</time></trkpt><trkpt lat="39.3578889" lon="17.0662483"><ele>56.0</ele><time>2026-03-29T08:05:56.908Z</time></trkpt><trkpt lat="39.3579527" lon="17.066246"><ele>56.00000000000001</ele><time>2026-03-29T08:05:57.909Z</time></trkpt><trkpt lat="39.358068" lon="17.066281"><ele>56.0</ele><time>2026-03-29T08:05:59.926Z</time></trkpt><trkpt lat="39.3581748" lon="17.066328"><ele>57.0</ele><time>2026-03-29T08:06:01.903Z</time></trkpt><trkpt lat="39.3582672" lon="17.0663923"><ele>57.99999999999999</ele><time>2026-03-29T08:06:03.916Z</time></trkpt><trkpt lat="39.3583387" lon="17.0664794"><ele>58.99999999999999</ele><time>2026-03-29T08:06:05.912Z</time></trkpt><trkpt lat="39.3584028" lon="17.0665554"><ele>60.0</ele><time>2026-03-29T08:06:07.92Z</time></trkpt><trkpt lat="39.3584989" lon="17.0666232"><ele>61.0</ele><time>2026-03-29T08:06:09.931Z</time></trkpt><trkpt lat="39.3585579" lon="17.0666554"><ele>61.199999999999996</ele><time>2026-03-29T08:06:10.905Z</time></trkpt><trkpt lat="39.3586171" lon="17.0666861"><ele>61.39999999999999</ele><time>2026-03-29T08:06:11.927Z</time></trkpt><trkpt lat="39.3587233" lon="17.0667217"><ele>61.6</ele><time>2026-03-29T08:06:13.912Z</time></trkpt><trkpt lat="39.3588093" lon="17.0667335"><ele>61.8</ele><time>2026-03-29T08:06:15.91Z</time></trkpt><trkpt lat="39.3589014" lon="17.0667545"><ele>62.0</ele><time>2026-03-29T08:06:17.924Z</time></trkpt><trkpt lat="39.3590161" lon="17.0667902"><ele>63.8</ele><time>2026-03-29T08:06:19.907Z</time></trkpt><trkpt lat="39.3591156" lon="17.0668428"><ele>65.6</ele><time>2026-03-29T08:06:21.922Z</time></trkpt><trkpt lat="39.3592031" lon="17.0669096"><ele>67.39999999999999</ele><time>2026-03-29T08:06:23.912Z</time></trkpt><trkpt lat="39.3592759" lon="17.0670071"><ele>69.2</ele><time>2026-03-29T08:06:25.919Z</time></trkpt><trkpt lat="39.35933" lon="17.0670969"><ele>71.0</ele><time>2026-03-29T08:06:27.919Z</time></trkpt><trkpt lat="39.359391" lon="17.0672131"><ele>71.0</ele><time>2026-03-29T08:06:29.915Z</time></trkpt><trkpt lat="39.3594424" lon="17.067296"><ele>71.0</ele><time>2026-03-29T08:06:31.917Z</time></trkpt><trkpt lat="39.3595086" lon="17.0673688"><ele>71.0</ele><time>2026-03-29T08:06:33.913Z</time></trkpt><trkpt lat="39.3595842" lon="17.0674279"><ele>71.0</ele><time>2026-03-29T08:06:35.923Z</time></trkpt><trkpt lat="39.3596569" lon="17.0674955"><ele>71.0</ele><time>2026-03-29T08:06:37.922Z</time></trkpt><trkpt lat="39.3597232" lon="17.0675553"><ele>71.0</ele><time>2026-03-29T08:06:39.903Z</time></trkpt><trkpt lat="39.3597968" lon="17.0675972"><ele>73.19999999999999</ele><time>2026-03-29T08:06:41.942Z</time></trkpt><trkpt lat="39.3598843" lon="17.0676286"><ele>75.39999999999999</ele><time>2026-03-29T08:06:43.91Z</time></trkpt><trkpt lat="39.359969" lon="17.0676563"><ele>77.6</ele><time>2026-03-29T08:06:45.918Z</time></trkpt><trkpt lat="39.3600667" lon="17.067701"><ele>79.8</ele><time>2026-03-29T08:06:47.917Z</time></trkpt><trkpt lat="39.3601606" lon="17.0677408"><ele>82.0</ele><time>2026-03-29T08:06:49.913Z</time></trkpt><trkpt lat="39.3602575" lon="17.0677514"><ele>82.0</ele><time>2026-03-29T08:06:51.918Z</time></trkpt><trkpt lat="39.3603641" lon="17.0677242"><ele>82.0</ele><time>2026-03-29T08:06:53.907Z</time></trkpt><trkpt lat="39.3604625" lon="17.0676603"><ele>82.0</ele><time>2026-03-29T08:06:55.91Z</time></trkpt><trkpt lat="39.3605287" lon="17.0676048"><ele>82.0</ele><time>2026-03-29T08:06:57.91Z</time></trkpt><trkpt lat="39.3606184" lon="17.0675403"><ele>82.0</ele><time>2026-03-29T08:06:59.914Z</time></trkpt><trkpt lat="39.3607001" lon="17.0674726"><ele>83.39999999999999</ele><time>2026-03-29T08:07:01.902Z</time></trkpt><trkpt lat="39.3607998" lon="17.0673966"><ele>84.8</ele><time>2026-03-29T08:07:03.916Z</time></trkpt><trkpt lat="39.3609062" lon="17.06733"><ele>86.2</ele><time>2026-03-29T08:07:05.919Z</time></trkpt><trkpt lat="39.3609679" lon="17.0673098"><ele>87.6</ele><time>2026-03-29T08:07:06.913Z</time></trkpt><trkpt lat="39.3610901" lon="17.067312"><ele>89.0</ele><time>2026-03-29T08:07:08.912Z</time></trkpt><trkpt lat="39.3612171" lon="17.0673177"><ele>88.99999999999999</ele><time>2026-03-29T08:07:10.906Z</time></trkpt><trkpt lat="39.3612801" lon="17.0673186"><ele>89.0</ele><time>2026-03-29T08:07:11.899Z</time></trkpt><trkpt lat="39.3613448" lon="17.0673151"><ele>89.0</ele><time>2026-03-29T08:07:12.908Z</time></trkpt><trkpt lat="39.3614127" lon="17.0673095"><ele>89.0</ele><time>2026-03-29T08:07:13.908Z</time></trkpt><trkpt lat="39.3614841" lon="17.0673036"><ele>89.0</ele><time>2026-03-29T08:07:14.905Z</time></trkpt><trkpt lat="39.3615531" lon="17.0672973"><ele>88.99999999999999</ele><time>2026-03-29T08:07:15.902Z</time></trkpt><trkpt lat="39.3616213" lon="17.0672899"><ele>89.0</ele><time>2026-03-29T08:07:16.912Z</time></trkpt><trkpt lat="39.3616872" lon="17.0672774"><ele>89.85714285714285</ele><time>2026-03-29T08:07:17.911Z</time></trkpt><trkpt lat="39.3617497" lon="17.067253"><ele>90.71428571428571</ele><time>2026-03-29T08:07:18.912Z</time></trkpt><trkpt lat="39.3618067" lon="17.0672136"><ele>91.57142857142857</ele><time>2026-03-29T08:07:19.914Z</time></trkpt><trkpt lat="39.3618656" lon="17.0671592"><ele>92.42857142857142</ele><time>2026-03-29T08:07:20.911Z</time></trkpt><trkpt lat="39.3619232" lon="17.0671011"><ele>93.28571428571429</ele><time>2026-03-29T08:07:21.92Z</time></trkpt><trkpt lat="39.3619762" lon="17.0670426"><ele>94.14285714285714</ele><time>2026-03-29T08:07:22.921Z</time></trkpt><trkpt lat="39.3620301" lon="17.0669875"><ele>95.0</ele><time>2026-03-29T08:07:23.919Z</time></trkpt><trkpt lat="39.3620922" lon="17.0669417"><ele>95.0</ele><time>2026-03-29T08:07:24.921Z</time></trkpt><trkpt lat="39.3621627" lon="17.0669025"><ele>95.0</ele><time>2026-03-29T08:07:25.905Z</time></trkpt><trkpt lat="39.3622363" lon="17.0668605"><ele>95.0</ele><time>2026-03-29T08:07:26.915Z</time></trkpt><trkpt lat="39.3623045" lon="17.0668088"><ele>95.0</ele><time>2026-03-29T08:07:27.912Z</time></trkpt><trkpt lat="39.3623735" lon="17.0667541"><ele>95.0</ele><time>2026-03-29T08:07:28.916Z</time></trkpt><trkpt lat="39.3624433" lon="17.0666993"><ele>95.0</ele><time>2026-03-29T08:07:29.906Z</time></trkpt><trkpt lat="39.3625087" lon="17.0666417"><ele>95.0</ele><time>2026-03-29T08:07:30.909Z</time></trkpt><trkpt lat="39.3625672" lon="17.0665843"><ele>95.0</ele><time>2026-03-29T08:07:31.921Z</time></trkpt><trkpt lat="39.3626201" lon="17.0665339"><ele>95.0</ele><time>2026-03-29T08:07:32.918Z</time></trkpt><trkpt lat="39.3627369" lon="17.0665059"><ele>95.0</ele><time>2026-03-29T08:07:34.91Z</time></trkpt><trkpt lat="39.362801" lon="17.0665227"><ele>95.0</ele><time>2026-03-29T08:07:35.913Z</time></trkpt><trkpt lat="39.3628605" lon="17.0665498"><ele>95.0</ele><time>2026-03-29T08:07:36.905Z</time></trkpt><trkpt lat="39.3629199" lon="17.0665775"><ele>95.0</ele><time>2026-03-29T08:07:37.911Z</time></trkpt><trkpt lat="39.3629832" lon="17.0665983"><ele>95.0</ele><time>2026-03-29T08:07:38.907Z</time></trkpt><trkpt lat="39.3630475" lon="17.0666158"><ele>95.0</ele><time>2026-03-29T08:07:39.909Z</time></trkpt><trkpt lat="39.3631118" lon="17.0666274"><ele>95.0</ele><time>2026-03-29T08:07:40.928Z</time></trkpt><trkpt lat="39.3632299" lon="17.066627"><ele>95.0</ele><time>2026-03-29T08:07:42.903Z</time></trkpt><trkpt lat="39.3633254" lon="17.0666121"><ele>95.0</ele><time>2026-03-29T08:07:44.911Z</time></trkpt><trkpt lat="39.3634268" lon="17.0666161"><ele>95.0</ele><time>2026-03-29T08:07:46.912Z</time></trkpt><trkpt lat="39.3635266" lon="17.0666181"><ele>95.0</ele><time>2026-03-29T08:07:48.901Z</time></trkpt><trkpt lat="39.363627" lon="17.0665874"><ele>95.0</ele><time>2026-03-29T08:07:50.91Z</time></trkpt><trkpt lat="39.3637286" lon="17.066552"><ele>95.0</ele><time>2026-03-29T08:07:52.919Z</time></trkpt><trkpt lat="39.3638184" lon="17.0665179"><ele>95.0</ele><time>2026-03-29T08:07:54.908Z</time></trkpt><trkpt lat="39.3639062" lon="17.0664817"><ele>95.0</ele><time>2026-03-29T08:07:56.903Z</time></trkpt><trkpt lat="39.363984" lon="17.0664238"><ele>95.0</ele><time>2026-03-29T08:07:58.907Z</time></trkpt><trkpt lat="39.3640586" lon="17.0663524"><ele>95.0</ele><time>2026-03-29T08:08:00.912Z</time></trkpt><trkpt lat="39.3641314" lon="17.0662721"><ele>95.0</ele><time>2026-03-29T08:08:02.916Z</time></trkpt><trkpt lat="39.3642058" lon="17.0661843"><ele>95.0</ele><time>2026-03-29T08:08:04.908Z</time></trkpt><trkpt lat="39.3642773" lon="17.0660963"><ele>95.0</ele><time>2026-03-29T08:08:06.918Z</time></trkpt><trkpt lat="39.3643407" lon="17.0660198"><ele>95.0</ele><time>2026-03-29T08:08:08.915Z</time></trkpt><trkpt lat="39.3644127" lon="17.0659282"><ele>95.0</ele><time>2026-03-29T08:08:10.904Z</time></trkpt><trkpt lat="39.3644695" lon="17.0658602"><ele>95.0</ele><time>2026-03-29T08:08:12.917Z</time></trkpt><trkpt lat="39.3645422" lon="17.0657889"><ele>95.0</ele><time>2026-03-29T08:08:15.927Z</time></trkpt><trkpt lat="39.3646019" lon="17.0657268"><ele>95.0</ele><time>2026-03-29T08:08:17.909Z</time></trkpt><trkpt lat="39.3646717" lon="17.0656587"><ele>95.66666666666667</ele><time>2026-03-29T08:08:19.907Z</time></trkpt><trkpt lat="39.3647273" lon="17.0655919"><ele>96.33333333333334</ele><time>2026-03-29T08:08:21.912Z</time></trkpt><trkpt lat="39.3647844" lon="17.0655115"><ele>97.0</ele><time>2026-03-29T08:08:23.917Z</time></trkpt><trkpt lat="39.3648358" lon="17.0654394"><ele>97.66666666666667</ele><time>2026-03-29T08:08:25.913Z</time></trkpt><trkpt lat="39.3648958" lon="17.0653577"><ele>98.33333333333333</ele><time>2026-03-29T08:08:27.925Z</time></trkpt><trkpt lat="39.3649681" lon="17.0652481"><ele>99.0</ele><time>2026-03-29T08:08:29.909Z</time></trkpt><trkpt lat="39.365034" lon="17.0651389"><ele>99.0</ele><time>2026-03-29T08:08:31.909Z</time></trkpt><trkpt lat="39.3650964" lon="17.0650784"><ele>99.0</ele><time>2026-03-29T08:08:33.915Z</time></trkpt><trkpt lat="39.3651571" lon="17.0650344"><ele>99.0</ele><time>2026-03-29T08:08:37.921Z</time></trkpt><trkpt lat="39.3652187" lon="17.0649996"><ele>99.0</ele><time>2026-03-29T08:08:39.908Z</time></trkpt><trkpt lat="39.3652919" lon="17.0649408"><ele>99.0</ele><time>2026-03-29T08:08:41.924Z</time></trkpt><trkpt lat="39.3653591" lon="17.0648513"><ele>99.0</ele><time>2026-03-29T08:08:43.911Z</time></trkpt><trkpt lat="39.3654374" lon="17.0647691"><ele>96.80000000000001</ele><time>2026-03-29T08:08:45.911Z</time></trkpt><trkpt lat="39.3655289" lon="17.0647225"><ele>94.60000000000001</ele><time>2026-03-29T08:08:47.914Z</time></trkpt><trkpt lat="39.3656208" lon="17.0647086"><ele>92.4</ele><time>2026-03-29T08:08:49.909Z</time></trkpt><trkpt lat="39.365721" lon="17.0647113"><ele>90.2</ele><time>2026-03-29T08:08:51.906Z</time></trkpt><trkpt lat="39.365821" lon="17.0646995"><ele>88.0</ele><time>2026-03-29T08:08:53.912Z</time></trkpt><trkpt lat="39.3659228" lon="17.0646775"><ele>88.0</ele><time>2026-03-29T08:08:55.917Z</time></trkpt><trkpt lat="39.3660338" lon="17.0646435"><ele>88.0</ele><time>2026-03-29T08:08:57.909Z</time></trkpt><trkpt lat="39.3661432" lon="17.0645877"><ele>88.0</ele><time>2026-03-29T08:08:59.908Z</time></trkpt><trkpt lat="39.3662407" lon="17.0645439"><ele>88.0</ele><time>2026-03-29T08:09:01.91Z</time></trkpt><trkpt lat="39.3663382" lon="17.0644985"><ele>88.0</ele><time>2026-03-29T08:09:03.913Z</time></trkpt><trkpt lat="39.3664242" lon="17.0644155"><ele>88.75</ele><time>2026-03-29T08:09:05.914Z</time></trkpt><trkpt lat="39.3665224" lon="17.0643218"><ele>89.5</ele><time>2026-03-29T08:09:07.906Z</time></trkpt><trkpt lat="39.3666299" lon="17.0642433"><ele>90.25</ele><time>2026-03-29T08:09:09.913Z</time></trkpt><trkpt lat="39.3667336" lon="17.0641658"><ele>91.0</ele><time>2026-03-29T08:09:11.913Z</time></trkpt><trkpt lat="39.3668479" lon="17.0640975"><ele>91.0</ele><time>2026-03-29T08:09:13.9Z</time></trkpt><trkpt lat="39.3669075" lon="17.0640631"><ele>91.0</ele><time>2026-03-29T08:09:14.911Z</time></trkpt><trkpt lat="39.3670182" lon="17.063993"><ele>91.0</ele><time>2026-03-29T08:09:16.914Z</time></trkpt><trkpt lat="39.3671191" lon="17.0639262"><ele>91.0</ele><time>2026-03-29T08:09:18.903Z</time></trkpt><trkpt lat="39.3672247" lon="17.0638732"><ele>91.0</ele><time>2026-03-29T08:09:20.905Z</time></trkpt><trkpt lat="39.3673539" lon="17.063844"><ele>90.42857142857143</ele><time>2026-03-29T08:09:22.912Z</time></trkpt><trkpt lat="39.3674232" lon="17.0638323"><ele>89.85714285714286</ele><time>2026-03-29T08:09:23.927Z</time></trkpt><trkpt lat="39.3674931" lon="17.0638186"><ele>89.28571428571428</ele><time>2026-03-29T08:09:24.91Z</time></trkpt><trkpt lat="39.3675633" lon="17.063803"><ele>88.71428571428572</ele><time>2026-03-29T08:09:25.9Z</time></trkpt><trkpt lat="39.3676365" lon="17.0637833"><ele>88.14285714285714</ele><time>2026-03-29T08:09:26.912Z</time></trkpt><trkpt lat="39.3677098" lon="17.0637643"><ele>87.57142857142857</ele><time>2026-03-29T08:09:27.912Z</time></trkpt><trkpt lat="39.3677852" lon="17.0637436"><ele>87.0</ele><time>2026-03-29T08:09:28.909Z</time></trkpt><trkpt lat="39.3678614" lon="17.063725"><ele>87.0</ele><time>2026-03-29T08:09:29.918Z</time></trkpt><trkpt lat="39.3679366" lon="17.0637064"><ele>87.0</ele><time>2026-03-29T08:09:30.907Z</time></trkpt><trkpt lat="39.3680142" lon="17.063689"><ele>87.0</ele><time>2026-03-29T08:09:31.909Z</time></trkpt><trkpt lat="39.368092" lon="17.0636709"><ele>87.0</ele><time>2026-03-29T08:09:32.914Z</time></trkpt><trkpt lat="39.3681681" lon="17.0636502"><ele>87.0</ele><time>2026-03-29T08:09:33.902Z</time></trkpt><trkpt lat="39.3682423" lon="17.0636208"><ele>87.0</ele><time>2026-03-29T08:09:34.909Z</time></trkpt><trkpt lat="39.3683139" lon="17.0635851"><ele>86.57142857142857</ele><time>2026-03-29T08:09:35.907Z</time></trkpt><trkpt lat="39.3683828" lon="17.0635568"><ele>86.14285714285714</ele><time>2026-03-29T08:09:36.911Z</time></trkpt><trkpt lat="39.3684497" lon="17.0635352"><ele>85.71428571428572</ele><time>2026-03-29T08:09:37.91Z</time></trkpt><trkpt lat="39.3685153" lon="17.0635163"><ele>85.28571428571428</ele><time>2026-03-29T08:09:38.919Z</time></trkpt><trkpt lat="39.368581" lon="17.0634987"><ele>84.85714285714286</ele><time>2026-03-29T08:09:39.908Z</time></trkpt><trkpt lat="39.3686488" lon="17.0634786"><ele>84.42857142857143</ele><time>2026-03-29T08:09:40.911Z</time></trkpt><trkpt lat="39.3687165" lon="17.0634572"><ele>84.0</ele><time>2026-03-29T08:09:41.918Z</time></trkpt><trkpt lat="39.3687845" lon="17.0634372"><ele>84.0</ele><time>2026-03-29T08:09:42.905Z</time></trkpt><trkpt lat="39.368853" lon="17.0634189"><ele>84.0</ele><time>2026-03-29T08:09:43.919Z</time></trkpt><trkpt lat="39.3689205" lon="17.0634004"><ele>84.0</ele><time>2026-03-29T08:09:44.918Z</time></trkpt><trkpt lat="39.3689875" lon="17.0633792"><ele>84.0</ele><time>2026-03-29T08:09:45.923Z</time></trkpt><trkpt lat="39.3690559" lon="17.0633471"><ele>84.0</ele><time>2026-03-29T08:09:46.91Z</time></trkpt><trkpt lat="39.3691222" lon="17.063304"><ele>84.0</ele><time>2026-03-29T08:09:47.91Z</time></trkpt><trkpt lat="39.3691845" lon="17.0632565"><ele>84.0</ele><time>2026-03-29T08:09:48.908Z</time></trkpt><trkpt lat="39.3692211" lon="17.0631853"><ele>84.0</ele><time>2026-03-29T08:09:49.904Z</time></trkpt><trkpt lat="39.3692435" lon="17.0631024"><ele>84.0</ele><time>2026-03-29T08:09:50.937Z</time></trkpt><trkpt lat="39.3692618" lon="17.0629373"><ele>84.0</ele><time>2026-03-29T08:09:52.925Z</time></trkpt><trkpt lat="39.3692825" lon="17.0628545"><ele>84.0</ele><time>2026-03-29T08:09:53.911Z</time></trkpt><trkpt lat="39.3693108" lon="17.0627786"><ele>84.0</ele><time>2026-03-29T08:09:54.915Z</time></trkpt><trkpt lat="39.3693453" lon="17.0627089"><ele>84.0</ele><time>2026-03-29T08:09:55.904Z</time></trkpt><trkpt lat="39.3693848" lon="17.0626383"><ele>84.0</ele><time>2026-03-29T08:09:56.911Z</time></trkpt><trkpt lat="39.369426" lon="17.0625678"><ele>84.0</ele><time>2026-03-29T08:09:57.913Z</time></trkpt><trkpt lat="39.36947" lon="17.0624975"><ele>84.0</ele><time>2026-03-29T08:09:58.902Z</time></trkpt><trkpt lat="39.369514" lon="17.0624327"><ele>84.0</ele><time>2026-03-29T08:09:59.914Z</time></trkpt><trkpt lat="39.3695873" lon="17.0623331"><ele>84.0</ele><time>2026-03-29T08:10:01.903Z</time></trkpt><trkpt lat="39.3696723" lon="17.0622576"><ele>84.0</ele><time>2026-03-29T08:10:03.908Z</time></trkpt><trkpt lat="39.3697971" lon="17.0622498"><ele>85.80000000000001</ele><time>2026-03-29T08:10:05.919Z</time></trkpt><trkpt lat="39.3699068" lon="17.0622647"><ele>87.60000000000001</ele><time>2026-03-29T08:10:07.911Z</time></trkpt><trkpt lat="39.3700119" lon="17.0622841"><ele>89.4</ele><time>2026-03-29T08:10:09.912Z</time></trkpt><trkpt lat="39.3701076" lon="17.0623227"><ele>91.2</ele><time>2026-03-29T08:10:11.919Z</time></trkpt><trkpt lat="39.3701888" lon="17.0623509"><ele>93.0</ele><time>2026-03-29T08:10:13.903Z</time></trkpt><trkpt lat="39.3702677" lon="17.0623511"><ele>93.0</ele><time>2026-03-29T08:10:15.924Z</time></trkpt><trkpt lat="39.3703316" lon="17.0623243"><ele>93.0</ele><time>2026-03-29T08:10:17.916Z</time></trkpt><trkpt lat="39.3703933" lon="17.0622763"><ele>93.0</ele><time>2026-03-29T08:10:19.914Z</time></trkpt><trkpt lat="39.3704454" lon="17.062225"><ele>93.0</ele><time>2026-03-29T08:10:21.915Z</time></trkpt><trkpt lat="39.3705013" lon="17.0621366"><ele>93.0</ele><time>2026-03-29T08:10:23.905Z</time></trkpt><trkpt lat="39.3705501" lon="17.0620348"><ele>93.0</ele><time>2026-03-29T08:10:25.905Z</time></trkpt><trkpt lat="39.3705936" lon="17.061931"><ele>92.80000000000001</ele><time>2026-03-29T08:10:27.911Z</time></trkpt><trkpt lat="39.3706374" lon="17.0618127"><ele>92.6</ele><time>2026-03-29T08:10:29.923Z</time></trkpt><trkpt lat="39.3706779" lon="17.0616855"><ele>92.4</ele><time>2026-03-29T08:10:31.91Z</time></trkpt><trkpt lat="39.3707171" lon="17.0615898"><ele>92.19999999999999</ele><time>2026-03-29T08:10:33.915Z</time></trkpt><trkpt lat="39.3707594" lon="17.061484"><ele>92.0</ele><time>2026-03-29T08:10:35.923Z</time></trkpt><trkpt lat="39.3707946" lon="17.0613794"><ele>93.16666666666667</ele><time>2026-03-29T08:10:37.909Z</time></trkpt><trkpt lat="39.3708282" lon="17.0612795"><ele>94.33333333333334</ele><time>2026-03-29T08:10:39.903Z</time></trkpt><trkpt lat="39.3708594" lon="17.0611801"><ele>95.5</ele><time>2026-03-29T08:10:41.922Z</time></trkpt><trkpt lat="39.3708977" lon="17.0610814"><ele>96.66666666666667</ele><time>2026-03-29T08:10:43.905Z</time></trkpt><trkpt lat="39.3709437" lon="17.0609826"><ele>97.83333333333333</ele><time>2026-03-29T08:10:45.908Z</time></trkpt><trkpt lat="39.3709902" lon="17.0608824"><ele>99.0</ele><time>2026-03-29T08:10:47.903Z</time></trkpt><trkpt lat="39.3710321" lon="17.0607789"><ele>100.33333333333333</ele><time>2026-03-29T08:10:49.985Z</time></trkpt><trkpt lat="39.3710596" lon="17.060665"><ele>101.66666666666666</ele><time>2026-03-29T08:10:51.91Z</time></trkpt><trkpt lat="39.37107" lon="17.0605594"><ele>103.0</ele><time>2026-03-29T08:10:53.903Z</time></trkpt><trkpt lat="39.371078" lon="17.0604525"><ele>104.33333333333333</ele><time>2026-03-29T08:10:55.929Z</time></trkpt><trkpt lat="39.3710803" lon="17.0603372"><ele>105.66666666666666</ele><time>2026-03-29T08:10:57.906Z</time></trkpt><trkpt lat="39.3710865" lon="17.0602208"><ele>107.0</ele><time>2026-03-29T08:10:59.913Z</time></trkpt><trkpt lat="39.3710926" lon="17.0601344"><ele>106.99999999999999</ele><time>2026-03-29T08:11:01.921Z</time></trkpt><trkpt lat="39.3710988" lon="17.0600335"><ele>107.0</ele><time>2026-03-29T08:11:05.91Z</time></trkpt><trkpt lat="39.3710935" lon="17.059919"><ele>107.0</ele><time>2026-03-29T08:11:07.92Z</time></trkpt><trkpt lat="39.371092" lon="17.0598218"><ele>107.0</ele><time>2026-03-29T08:11:09.906Z</time></trkpt><trkpt lat="39.3710882" lon="17.0597168"><ele>106.99999999999999</ele><time>2026-03-29T08:11:12.912Z</time></trkpt><trkpt lat="39.3710852" lon="17.0595858"><ele>107.0</ele><time>2026-03-29T08:11:14.912Z</time></trkpt><trkpt lat="39.3711121" lon="17.0594471"><ele>107.49999999999999</ele><time>2026-03-29T08:11:16.914Z</time></trkpt><trkpt lat="39.371163" lon="17.059299"><ele>108.0</ele><time>2026-03-29T08:11:18.907Z</time></trkpt><trkpt lat="39.3711895" lon="17.0592231"><ele>108.5</ele><time>2026-03-29T08:11:19.904Z</time></trkpt><trkpt lat="39.3712143" lon="17.0591466"><ele>109.0</ele><time>2026-03-29T08:11:20.909Z</time></trkpt><trkpt lat="39.3712581" lon="17.0590104"><ele>109.49999999999999</ele><time>2026-03-29T08:11:22.918Z</time></trkpt><trkpt lat="39.3712827" lon="17.0589305"><ele>110.0</ele><time>2026-03-29T08:11:24.922Z</time></trkpt><trkpt lat="39.3712916" lon="17.0588385"><ele>108.99999999999999</ele><time>2026-03-29T08:42:09.915Z</time></trkpt><trkpt lat="39.3713083" lon="17.0587445"><ele>108.0</ele><time>2026-03-29T08:42:11.941Z</time></trkpt><trkpt lat="39.3713277" lon="17.0586525"><ele>107.0</ele><time>2026-03-29T08:42:13.916Z</time></trkpt><trkpt lat="39.3713475" lon="17.0585474"><ele>106.0</ele><time>2026-03-29T08:42:15.916Z</time></trkpt><trkpt lat="39.371372" lon="17.0584431"><ele>104.99999999999999</ele><time>2026-03-29T08:42:17.927Z</time></trkpt><trkpt lat="39.3713974" lon="17.058347"><ele>104.0</ele><time>2026-03-29T08:42:19.922Z</time></trkpt><trkpt lat="39.3714231" lon="17.058245"><ele>103.0</ele><time>2026-03-29T08:42:21.925Z</time></trkpt><trkpt lat="39.3714431" lon="17.0581115"><ele>102.0</ele><time>2026-03-29T08:42:23.939Z</time></trkpt><trkpt lat="39.3714589" lon="17.0579533"><ele>101.0</ele><time>2026-03-29T08:42:25.93Z</time></trkpt><trkpt lat="39.3714442" lon="17.0578123"><ele>100.0</ele><time>2026-03-29T08:42:27.928Z</time></trkpt><trkpt lat="39.3714182" lon="17.0576798"><ele>99.0</ele><time>2026-03-29T08:42:29.925Z</time></trkpt><trkpt lat="39.3713813" lon="17.0575755"><ele>98.33333333333333</ele><time>2026-03-29T08:42:31.93Z</time></trkpt><trkpt lat="39.3713413" lon="17.0574729"><ele>97.66666666666667</ele><time>2026-03-29T08:42:33.935Z</time></trkpt><trkpt lat="39.3712897" lon="17.0573571"><ele>97.0</ele><time>2026-03-29T08:42:35.926Z</time></trkpt><trkpt lat="39.3712618" lon="17.0572801"><ele>96.33333333333334</ele><time>2026-03-29T08:42:37.938Z</time></trkpt><trkpt lat="39.3712449" lon="17.0571997"><ele>95.66666666666667</ele><time>2026-03-29T08:42:41.924Z</time></trkpt><trkpt lat="39.3712554" lon="17.0571066"><ele>95.0</ele><time>2026-03-29T08:42:45.942Z</time></trkpt><trkpt lat="39.3712681" lon="17.0570182"><ele>95.0</ele><time>2026-03-29T08:42:49.928Z</time></trkpt><trkpt lat="39.3712866" lon="17.0569135"><ele>95.0</ele><time>2026-03-29T08:42:53.927Z</time></trkpt><trkpt lat="39.3713126" lon="17.0567865"><ele>95.0</ele><time>2026-03-29T08:43:19.912Z</time></trkpt><trkpt lat="39.3713365" lon="17.0566656"><ele>95.0</ele><time>2026-03-29T08:43:21.915Z</time></trkpt><trkpt lat="39.3713627" lon="17.0565368"><ele>95.0</ele><time>2026-03-29T08:43:23.932Z</time></trkpt><trkpt lat="39.3713536" lon="17.0564116"><ele>95.33333333333334</ele><time>2026-03-29T08:43:25.931Z</time></trkpt><trkpt lat="39.37132" lon="17.0563397"><ele>95.66666666666667</ele><time>2026-03-29T08:43:28.918Z</time></trkpt><trkpt lat="39.3712526" lon="17.0562742"><ele>96.0</ele><time>2026-03-29T08:43:31.923Z</time></trkpt><trkpt lat="39.371171" lon="17.0562464"><ele>96.33333333333334</ele><time>2026-03-29T08:43:33.909Z</time></trkpt><trkpt lat="39.3711059" lon="17.0562229"><ele>96.66666666666667</ele><time>2026-03-29T08:43:35.922Z</time></trkpt><trkpt lat="39.37102" lon="17.0562022"><ele>97.0</ele><time>2026-03-29T08:43:37.919Z</time></trkpt><trkpt lat="39.3709076" lon="17.0561813"><ele>97.00000000000001</ele><time>2026-03-29T08:43:39.916Z</time></trkpt><trkpt lat="39.3708405" lon="17.0561715"><ele>97.0</ele><time>2026-03-29T08:43:40.928Z</time></trkpt><trkpt lat="39.3707707" lon="17.0561624"><ele>97.0</ele><time>2026-03-29T08:43:41.925Z</time></trkpt><trkpt lat="39.3707008" lon="17.05614"><ele>97.0</ele><time>2026-03-29T08:43:42.93Z</time></trkpt><trkpt lat="39.3706368" lon="17.0561062"><ele>97.00000000000001</ele><time>2026-03-29T08:43:43.91Z</time></trkpt><trkpt lat="39.3705804" lon="17.0560606"><ele>97.0</ele><time>2026-03-29T08:43:44.922Z</time></trkpt><trkpt lat="39.3704991" lon="17.0559634"><ele>96.33333333333334</ele><time>2026-03-29T08:43:46.922Z</time></trkpt><trkpt lat="39.3704437" lon="17.0558996"><ele>95.66666666666667</ele><time>2026-03-29T08:43:48.92Z</time></trkpt><trkpt lat="39.3703831" lon="17.0558444"><ele>95.0</ele><time>2026-03-29T08:43:50.929Z</time></trkpt><trkpt lat="39.3703166" lon="17.0557941"><ele>94.33333333333334</ele><time>2026-03-29T08:43:52.918Z</time></trkpt><trkpt lat="39.3702565" lon="17.0557134"><ele>93.66666666666667</ele><time>2026-03-29T08:43:54.929Z</time></trkpt><trkpt lat="39.3702078" lon="17.0556137"><ele>93.0</ele><time>2026-03-29T08:43:56.914Z</time></trkpt><trkpt lat="39.3701727" lon="17.0555034"><ele>94.80000000000001</ele><time>2026-03-29T08:43:58.923Z</time></trkpt><trkpt lat="39.3701393" lon="17.0553883"><ele>96.6</ele><time>2026-03-29T08:44:00.931Z</time></trkpt><trkpt lat="39.3701066" lon="17.0552799"><ele>98.4</ele><time>2026-03-29T08:44:02.939Z</time></trkpt><trkpt lat="39.3700672" lon="17.0551618"><ele>100.19999999999999</ele><time>2026-03-29T08:44:04.925Z</time></trkpt><trkpt lat="39.3700259" lon="17.0550404"><ele>102.0</ele><time>2026-03-29T08:44:06.928Z</time></trkpt><trkpt lat="39.3699988" lon="17.0549097"><ele>102.0</ele><time>2026-03-29T08:44:08.924Z</time></trkpt><trkpt lat="39.370008" lon="17.0547722"><ele>102.0</ele><time>2026-03-29T08:44:10.918Z</time></trkpt><trkpt lat="39.3700253" lon="17.0546549"><ele>102.0</ele><time>2026-03-29T08:44:12.92Z</time></trkpt><trkpt lat="39.3700432" lon="17.0545467"><ele>102.0</ele><time>2026-03-29T08:44:14.913Z</time></trkpt><trkpt lat="39.3700182" lon="17.0544489"><ele>102.0</ele><time>2026-03-29T08:44:16.925Z</time></trkpt><trkpt lat="39.3699696" lon="17.0543648"><ele>102.0</ele><time>2026-03-29T08:44:18.922Z</time></trkpt><trkpt lat="39.3699207" lon="17.0543113"><ele>102.0</ele><time>2026-03-29T08:44:20.921Z</time></trkpt><trkpt lat="39.3698504" lon="17.0542459"><ele>102.0</ele><time>2026-03-29T08:44:23.916Z</time></trkpt><trkpt lat="39.369786" lon="17.0541935"><ele>102.0</ele><time>2026-03-29T08:44:36.923Z</time></trkpt><trkpt lat="39.3697212" lon="17.0541392"><ele>102.0</ele><time>2026-03-29T08:44:42.919Z</time></trkpt><trkpt lat="39.3696653" lon="17.054084"><ele>102.0</ele><time>2026-03-29T08:44:46.934Z</time></trkpt><trkpt lat="39.3696089" lon="17.0540355"><ele>102.0</ele><time>2026-03-29T08:44:49.932Z</time></trkpt><trkpt lat="39.3695551" lon="17.0539859"><ele>102.0</ele><time>2026-03-29T08:44:51.918Z</time></trkpt><trkpt lat="39.3694998" lon="17.0539189"><ele>100.16666666666667</ele><time>2026-03-29T08:44:54.92Z</time></trkpt><trkpt lat="39.3694543" lon="17.0538408"><ele>98.33333333333333</ele><time>2026-03-29T08:44:58.929Z</time></trkpt><trkpt lat="39.3694615" lon="17.0537409"><ele>96.5</ele><time>2026-03-29T08:45:02.907Z</time></trkpt><trkpt lat="39.3695086" lon="17.0536548"><ele>94.66666666666666</ele><time>2026-03-29T08:45:06.911Z</time></trkpt><trkpt lat="39.369563" lon="17.0535777"><ele>92.83333333333333</ele><time>2026-03-29T08:45:09.905Z</time></trkpt><trkpt lat="39.3696185" lon="17.0535034"><ele>91.0</ele><time>2026-03-29T08:45:12.91Z</time></trkpt><trkpt lat="39.3696623" lon="17.0534441"><ele>92.19999999999999</ele><time>2026-03-29T08:45:14.903Z</time></trkpt><trkpt lat="39.369713" lon="17.0533615"><ele>93.39999999999999</ele><time>2026-03-29T08:45:16.903Z</time></trkpt><trkpt lat="39.3697695" lon="17.0532573"><ele>94.6</ele><time>2026-03-29T08:45:18.92Z</time></trkpt><trkpt lat="39.3698356" lon="17.0531541"><ele>95.8</ele><time>2026-03-29T08:45:20.908Z</time></trkpt><trkpt lat="39.3699024" lon="17.0530575"><ele>97.0</ele><time>2026-03-29T08:45:22.922Z</time></trkpt><trkpt lat="39.3699679" lon="17.0529734"><ele>97.0</ele><time>2026-03-29T08:45:24.906Z</time></trkpt><trkpt lat="39.3700383" lon="17.0528744"><ele>97.0</ele><time>2026-03-29T08:45:26.917Z</time></trkpt><trkpt lat="39.3701042" lon="17.0527564"><ele>97.0</ele><time>2026-03-29T08:45:28.925Z</time></trkpt><trkpt lat="39.3701499" lon="17.0526072"><ele>97.0</ele><time>2026-03-29T08:45:30.932Z</time></trkpt><trkpt lat="39.3701577" lon="17.0525196"><ele>97.0</ele><time>2026-03-29T08:45:31.926Z</time></trkpt><trkpt lat="39.3701446" lon="17.0524132"><ele>97.33333333333334</ele><time>2026-03-29T08:45:33.92Z</time></trkpt><trkpt lat="39.3700897" lon="17.0523043"><ele>97.66666666666667</ele><time>2026-03-29T08:45:36.927Z</time></trkpt><trkpt lat="39.3700716" lon="17.052225"><ele>98.0</ele><time>2026-03-29T08:45:37.925Z</time></trkpt><trkpt lat="39.3700513" lon="17.0521369"><ele>98.33333333333334</ele><time>2026-03-29T08:45:38.931Z</time></trkpt><trkpt lat="39.3700225" lon="17.0520498"><ele>98.66666666666667</ele><time>2026-03-29T08:45:39.941Z</time></trkpt><trkpt lat="39.3699885" lon="17.0519627"><ele>99.0</ele><time>2026-03-29T08:45:40.941Z</time></trkpt><trkpt lat="39.3699595" lon="17.0518738"><ele>99.0</ele><time>2026-03-29T08:45:41.937Z</time></trkpt><trkpt lat="39.3699411" lon="17.0517922"><ele>99.0</ele><time>2026-03-29T08:45:42.923Z</time></trkpt><trkpt lat="39.369938" lon="17.0516739"><ele>99.0</ele><time>2026-03-29T08:45:44.92Z</time></trkpt><trkpt lat="39.3699882" lon="17.0515973"><ele>99.0</ele><time>2026-03-29T08:45:46.918Z</time></trkpt><trkpt lat="39.3700519" lon="17.0514961"><ele>99.0</ele><time>2026-03-29T08:45:48.93Z</time></trkpt><trkpt lat="39.3700972" lon="17.0513582"><ele>100.4</ele><time>2026-03-29T08:45:50.922Z</time></trkpt><trkpt lat="39.3701429" lon="17.0512114"><ele>101.80000000000001</ele><time>2026-03-29T08:45:52.922Z</time></trkpt><trkpt lat="39.3701928" lon="17.051079"><ele>103.19999999999999</ele><time>2026-03-29T08:45:54.928Z</time></trkpt><trkpt lat="39.3702188" lon="17.0509596"><ele>104.6</ele><time>2026-03-29T08:45:56.934Z</time></trkpt><trkpt lat="39.3702288" lon="17.0508577"><ele>106.0</ele><time>2026-03-29T08:45:58.932Z</time></trkpt><trkpt lat="39.3702486" lon="17.0507656"><ele>106.6</ele><time>2026-03-29T08:46:00.92Z</time></trkpt><trkpt lat="39.3702785" lon="17.050671"><ele>107.19999999999999</ele><time>2026-03-29T08:46:02.922Z</time></trkpt><trkpt lat="39.3703571" lon="17.0505738"><ele>107.80000000000001</ele><time>2026-03-29T08:46:05.926Z</time></trkpt><trkpt lat="39.37045" lon="17.0504919"><ele>108.4</ele><time>2026-03-29T08:46:07.919Z</time></trkpt><trkpt lat="39.370501" lon="17.050444"><ele>109.0</ele><time>2026-03-29T08:46:08.929Z</time></trkpt><trkpt lat="39.3705898" lon="17.0503356"><ele>109.0</ele><time>2026-03-29T08:46:10.923Z</time></trkpt><trkpt lat="39.3706422" lon="17.05019"><ele>109.0</ele><time>2026-03-29T08:46:12.923Z</time></trkpt><trkpt lat="39.3706665" lon="17.0501144"><ele>109.0</ele><time>2026-03-29T08:46:13.909Z</time></trkpt><trkpt lat="39.370724" lon="17.0499837"><ele>109.0</ele><time>2026-03-29T08:46:15.933Z</time></trkpt><trkpt lat="39.3708225" lon="17.0499189"><ele>109.0</ele><time>2026-03-29T08:46:17.932Z</time></trkpt><trkpt lat="39.3709119" lon="17.0499145"><ele>111.16666666666667</ele><time>2026-03-29T08:46:19.923Z</time></trkpt><trkpt lat="39.370985" lon="17.0498532"><ele>113.33333333333334</ele><time>2026-03-29T08:46:21.935Z</time></trkpt><trkpt lat="39.371036" lon="17.0497673"><ele>115.5</ele><time>2026-03-29T08:46:23.921Z</time></trkpt><trkpt lat="39.371081" lon="17.0496866"><ele>117.66666666666666</ele><time>2026-03-29T08:46:25.931Z</time></trkpt><trkpt lat="39.3711576" lon="17.0496309"><ele>119.83333333333333</ele><time>2026-03-29T08:46:27.928Z</time></trkpt><trkpt lat="39.3712278" lon="17.0495398"><ele>122.0</ele><time>2026-03-29T08:46:29.917Z</time></trkpt><trkpt lat="39.3712671" lon="17.0494092"><ele>122.0</ele><time>2026-03-29T08:46:31.922Z</time></trkpt><trkpt lat="39.3713118" lon="17.0492639"><ele>121.99999999999999</ele><time>2026-03-29T08:46:33.92Z</time></trkpt><trkpt lat="39.3713298" lon="17.0491855"><ele>121.99999999999999</ele><time>2026-03-29T08:46:34.918Z</time></trkpt><trkpt lat="39.371345" lon="17.0491052"><ele>122.0</ele><time>2026-03-29T08:46:35.922Z</time></trkpt><trkpt lat="39.3713909" lon="17.048968"><ele>122.0</ele><time>2026-03-29T08:46:37.913Z</time></trkpt><trkpt lat="39.3714816" lon="17.0489"><ele>125.25</ele><time>2026-03-29T08:46:39.923Z</time></trkpt><trkpt lat="39.3716002" lon="17.0488645"><ele>128.5</ele><time>2026-03-29T08:46:41.917Z</time></trkpt><trkpt lat="39.3717194" lon="17.0488963"><ele>131.75</ele><time>2026-03-29T08:46:43.919Z</time></trkpt><trkpt lat="39.3718312" lon="17.048934"><ele>135.0</ele><time>2026-03-29T08:46:45.917Z</time></trkpt><trkpt lat="39.3719249" lon="17.0489067"><ele>135.0</ele><time>2026-03-29T08:46:47.925Z</time></trkpt><trkpt lat="39.3720108" lon="17.048902"><ele>135.0</ele><time>2026-03-29T08:46:49.928Z</time></trkpt><trkpt lat="39.372085" lon="17.0489632"><ele>135.0</ele><time>2026-03-29T08:46:51.923Z</time></trkpt><trkpt lat="39.3721683" lon="17.0490412"><ele>135.0</ele><time>2026-03-29T08:46:53.921Z</time></trkpt><trkpt lat="39.3722613" lon="17.0490618"><ele>135.0</ele><time>2026-03-29T08:46:55.929Z</time></trkpt><trkpt lat="39.3723474" lon="17.0490373"><ele>133.8</ele><time>2026-03-29T08:46:57.927Z</time></trkpt><trkpt lat="39.3724223" lon="17.0490759"><ele>132.6</ele><time>2026-03-29T08:46:59.916Z</time></trkpt><trkpt lat="39.3725188" lon="17.0490778"><ele>131.4</ele><time>2026-03-29T08:47:02.908Z</time></trkpt><trkpt lat="39.3726125" lon="17.0490372"><ele>130.2</ele><time>2026-03-29T08:47:04.949Z</time></trkpt><trkpt lat="39.372718" lon="17.0489958"><ele>129.0</ele><time>2026-03-29T08:47:06.932Z</time></trkpt><trkpt lat="39.3728121" lon="17.0489072"><ele>129.0</ele><time>2026-03-29T08:47:08.928Z</time></trkpt><trkpt lat="39.3728619" lon="17.0487824"><ele>129.0</ele><time>2026-03-29T08:47:10.921Z</time></trkpt><trkpt lat="39.3728943" lon="17.0486857"><ele>129.0</ele><time>2026-03-29T08:47:12.925Z</time></trkpt><trkpt lat="39.3729536" lon="17.0486044"><ele>129.0</ele><time>2026-03-29T08:47:15.922Z</time></trkpt><trkpt lat="39.3730129" lon="17.0485644"><ele>129.0</ele><time>2026-03-29T08:47:17.926Z</time></trkpt><trkpt lat="39.3730782" lon="17.0485121"><ele>129.0</ele><time>2026-03-29T08:47:19.938Z</time></trkpt><trkpt lat="39.3731436" lon="17.0484642"><ele>128.33333333333334</ele><time>2026-03-29T08:47:21.921Z</time></trkpt><trkpt lat="39.3732054" lon="17.0484105"><ele>127.66666666666666</ele><time>2026-03-29T08:47:23.924Z</time></trkpt><trkpt lat="39.3732665" lon="17.0483575"><ele>127.0</ele><time>2026-03-29T08:47:25.95Z</time></trkpt><trkpt lat="39.3733324" lon="17.0483069"><ele>126.33333333333333</ele><time>2026-03-29T08:47:27.917Z</time></trkpt><trkpt lat="39.3734073" lon="17.0482415"><ele>125.66666666666666</ele><time>2026-03-29T08:47:29.921Z</time></trkpt><trkpt lat="39.373478" lon="17.0481672"><ele>125.0</ele><time>2026-03-29T08:47:31.936Z</time></trkpt><trkpt lat="39.3735552" lon="17.0480994"><ele>126.66666666666666</ele><time>2026-03-29T08:47:33.925Z</time></trkpt><trkpt lat="39.3736451" lon="17.0480628"><ele>128.33333333333331</ele><time>2026-03-29T08:47:35.921Z</time></trkpt><trkpt lat="39.3737279" lon="17.0480501"><ele>130.0</ele><time>2026-03-29T08:47:37.928Z</time></trkpt><trkpt lat="39.3738006" lon="17.0480851"><ele>131.66666666666666</ele><time>2026-03-29T08:47:40.921Z</time></trkpt><trkpt lat="39.3738706" lon="17.0481061"><ele>133.33333333333334</ele><time>2026-03-29T08:47:43.924Z</time></trkpt><trkpt lat="39.3739453" lon="17.0481696"><ele>135.0</ele><time>2026-03-29T08:47:46.926Z</time></trkpt><trkpt lat="39.3739911" lon="17.04824"><ele>135.5</ele><time>2026-03-29T08:47:48.925Z</time></trkpt><trkpt lat="39.3740522" lon="17.0482974"><ele>136.0</ele><time>2026-03-29T08:47:50.921Z</time></trkpt><trkpt lat="39.3741217" lon="17.0483788"><ele>136.5</ele><time>2026-03-29T08:47:53.919Z</time></trkpt><trkpt lat="39.3741766" lon="17.0484323"><ele>137.0</ele><time>2026-03-29T08:47:55.921Z</time></trkpt><trkpt lat="39.3742551" lon="17.0484704"><ele>137.5</ele><time>2026-03-29T08:47:57.933Z</time></trkpt><trkpt lat="39.3743356" lon="17.0484928"><ele>138.0</ele><time>2026-03-29T08:47:59.934Z</time></trkpt><trkpt lat="39.3744013" lon="17.0484908"><ele>138.0</ele><time>2026-03-29T08:48:01.924Z</time></trkpt><trkpt lat="39.3744854" lon="17.0484933"><ele>138.0</ele><time>2026-03-29T08:48:03.915Z</time></trkpt><trkpt lat="39.374567" lon="17.0485272"><ele>138.0</ele><time>2026-03-29T08:48:05.928Z</time></trkpt><trkpt lat="39.374639" lon="17.0485712"><ele>138.0</ele><time>2026-03-29T08:48:07.913Z</time></trkpt><trkpt lat="39.3747009" lon="17.0485909"><ele>138.0</ele><time>2026-03-29T08:48:09.933Z</time></trkpt><trkpt lat="39.37478" lon="17.0485862"><ele>138.0</ele><time>2026-03-29T08:48:13.919Z</time></trkpt><trkpt lat="39.3748502" lon="17.0485557"><ele>139.83333333333334</ele><time>2026-03-29T08:48:16.927Z</time></trkpt><trkpt lat="39.3749401" lon="17.0485288"><ele>141.66666666666666</ele><time>2026-03-29T08:48:19.92Z</time></trkpt><trkpt lat="39.375023" lon="17.0484927"><ele>143.5</ele><time>2026-03-29T08:48:22.92Z</time></trkpt><trkpt lat="39.3750893" lon="17.0484983"><ele>145.33333333333331</ele><time>2026-03-29T08:48:24.917Z</time></trkpt><trkpt lat="39.3751599" lon="17.048487"><ele>147.16666666666666</ele><time>2026-03-29T08:48:26.914Z</time></trkpt><trkpt lat="39.3752523" lon="17.0484252"><ele>149.0</ele><time>2026-03-29T08:48:28.935Z</time></trkpt><trkpt lat="39.3753437" lon="17.0483692"><ele>149.0</ele><time>2026-03-29T08:48:30.92Z</time></trkpt><trkpt lat="39.3754328" lon="17.0484367"><ele>149.0</ele><time>2026-03-29T08:48:32.922Z</time></trkpt><trkpt lat="39.3755045" lon="17.0485428"><ele>149.0</ele><time>2026-03-29T08:48:34.922Z</time></trkpt><trkpt lat="39.3755929" lon="17.0485789"><ele>149.0</ele><time>2026-03-29T08:48:36.921Z</time></trkpt><trkpt lat="39.3756738" lon="17.0485644"><ele>149.0</ele><time>2026-03-29T08:48:38.914Z</time></trkpt><trkpt lat="39.3757268" lon="17.0485126"><ele>149.85714285714286</ele><time>2026-03-29T08:48:42.914Z</time></trkpt><trkpt lat="39.3757972" lon="17.0484851"><ele>150.7142857142857</ele><time>2026-03-29T08:48:47.936Z</time></trkpt><trkpt lat="39.3758841" lon="17.0484694"><ele>151.57142857142856</ele><time>2026-03-29T08:48:50.919Z</time></trkpt><trkpt lat="39.3759474" lon="17.0484654"><ele>152.42857142857142</ele><time>2026-03-29T08:48:53.924Z</time></trkpt><trkpt lat="39.3759856" lon="17.0483957"><ele>153.28571428571428</ele><time>2026-03-29T08:48:56.918Z</time></trkpt><trkpt lat="39.3760077" lon="17.0483127"><ele>154.14285714285714</ele><time>2026-03-29T08:49:01.922Z</time></trkpt><trkpt lat="39.3760083" lon="17.0482269"><ele>155.0</ele><time>2026-03-29T08:49:03.905Z</time></trkpt><trkpt lat="39.3759587" lon="17.0481412"><ele>158.2</ele><time>2026-03-29T08:49:05.949Z</time></trkpt><trkpt lat="39.3758774" lon="17.0481093"><ele>161.4</ele><time>2026-03-29T08:49:07.929Z</time></trkpt><trkpt lat="39.3757953" lon="17.0480813"><ele>164.60000000000002</ele><time>2026-03-29T08:49:09.917Z</time></trkpt><trkpt lat="39.3756998" lon="17.0480504"><ele>167.8</ele><time>2026-03-29T08:49:11.93Z</time></trkpt><trkpt lat="39.3756006" lon="17.0480361"><ele>171.0</ele><time>2026-03-29T08:49:13.922Z</time></trkpt><trkpt lat="39.3755173" lon="17.048002"><ele>171.0</ele><time>2026-03-29T08:49:15.921Z</time></trkpt><trkpt lat="39.3754506" lon="17.0479529"><ele>171.0</ele><time>2026-03-29T08:49:17.95Z</time></trkpt><trkpt lat="39.3753838" lon="17.0479056"><ele>171.0</ele><time>2026-03-29T08:49:19.925Z</time></trkpt><trkpt lat="39.3753337" lon="17.0478368"><ele>171.0</ele><time>2026-03-29T08:49:21.927Z</time></trkpt><trkpt lat="39.3753748" lon="17.0477567"><ele>171.0</ele><time>2026-03-29T08:49:23.926Z</time></trkpt><trkpt lat="39.3754614" lon="17.0476953"><ele>171.0</ele><time>2026-03-29T08:49:25.924Z</time></trkpt><trkpt lat="39.3755566" lon="17.047654"><ele>174.60000000000002</ele><time>2026-03-29T08:49:27.918Z</time></trkpt><trkpt lat="39.3756511" lon="17.0476198"><ele>178.2</ele><time>2026-03-29T08:49:29.92Z</time></trkpt><trkpt lat="39.3757656" lon="17.0475736"><ele>181.8</ele><time>2026-03-29T08:49:31.911Z</time></trkpt><trkpt lat="39.3758636" lon="17.0475229"><ele>185.39999999999998</ele><time>2026-03-29T08:49:33.926Z</time></trkpt><trkpt lat="39.3759347" lon="17.0475108"><ele>189.0</ele><time>2026-03-29T08:49:35.919Z</time></trkpt><trkpt lat="39.3760102" lon="17.0474654"><ele>193.16666666666666</ele><time>2026-03-29T08:49:38.924Z</time></trkpt><trkpt lat="39.3759698" lon="17.0473906"><ele>197.33333333333331</ele><time>2026-03-29T08:49:40.92Z</time></trkpt><trkpt lat="39.3759005" lon="17.0473278"><ele>201.5</ele><time>2026-03-29T08:49:42.941Z</time></trkpt><trkpt lat="39.3758408" lon="17.0472658"><ele>205.66666666666666</ele><time>2026-03-29T08:49:44.922Z</time></trkpt><trkpt lat="39.375744" lon="17.0472658"><ele>209.83333333333331</ele><time>2026-03-29T08:49:46.928Z</time></trkpt><trkpt lat="39.3756394" lon="17.0472065"><ele>214.0</ele><time>2026-03-29T08:49:48.934Z</time></trkpt><trkpt lat="39.3755307" lon="17.0471582"><ele>214.0</ele><time>2026-03-29T08:49:50.919Z</time></trkpt><trkpt lat="39.3754125" lon="17.0471271"><ele>213.99999999999997</ele><time>2026-03-29T08:49:52.918Z</time></trkpt><trkpt lat="39.3753138" lon="17.0470857"><ele>213.99999999999997</ele><time>2026-03-29T08:49:54.929Z</time></trkpt><trkpt lat="39.3754377" lon="17.0470665"><ele>214.0</ele><time>2026-03-29T08:49:59.919Z</time></trkpt><trkpt lat="39.375513" lon="17.0470416"><ele>214.0</ele><time>2026-03-29T08:50:00.92Z</time></trkpt><trkpt lat="39.3755872" lon="17.0470104"><ele>214.00000000000003</ele><time>2026-03-29T08:50:01.925Z</time></trkpt><trkpt lat="39.3756503" lon="17.0469851"><ele>214.0</ele><time>2026-03-29T08:50:02.923Z</time></trkpt><trkpt lat="39.3757163" lon="17.0469829"><ele>214.0</ele><time>2026-03-29T08:50:03.915Z</time></trkpt><trkpt lat="39.37578" lon="17.0469864"><ele>214.0</ele><time>2026-03-29T08:50:04.929Z</time></trkpt><trkpt lat="39.3758885" lon="17.0469876"><ele>214.0</ele><time>2026-03-29T08:50:06.918Z</time></trkpt><trkpt lat="39.3759569" lon="17.047012"><ele>214.00000000000003</ele><time>2026-03-29T08:50:08.916Z</time></trkpt><trkpt lat="39.3760208" lon="17.0470416"><ele>214.0</ele><time>2026-03-29T08:50:19.921Z</time></trkpt><trkpt lat="39.3760901" lon="17.047013"><ele>214.00000000000003</ele><time>2026-03-29T08:51:43.918Z</time></trkpt><trkpt lat="39.3761097" lon="17.04693"><ele>214.0</ele><time>2026-03-29T08:51:46.931Z</time></trkpt><trkpt lat="39.3761042" lon="17.0468227"><ele>214.0</ele><time>2026-03-29T08:51:49.917Z</time></trkpt><trkpt lat="39.3761017" lon="17.0467213"><ele>214.0</ele><time>2026-03-29T08:51:52.914Z</time></trkpt><trkpt lat="39.3760915" lon="17.0466255"><ele>214.0</ele><time>2026-03-29T08:51:55.915Z</time></trkpt><trkpt lat="39.376062" lon="17.0465515"><ele>214.00000000000003</ele><time>2026-03-29T08:51:58.917Z</time></trkpt><trkpt lat="39.3760706" lon="17.0464555"><ele>214.0</ele><time>2026-03-29T08:52:02.923Z</time></trkpt><trkpt lat="39.3761332" lon="17.0464195"><ele>213.99999999999997</ele><time>2026-03-29T08:52:05.931Z</time></trkpt><trkpt lat="39.3761983" lon="17.0463514"><ele>214.0</ele><time>2026-03-29T08:57:39.911Z</time></trkpt><trkpt lat="39.3762615" lon="17.0462632"><ele>214.0</ele><time>2026-03-29T08:57:42.924Z</time></trkpt><trkpt lat="39.3763306" lon="17.0462084"><ele>214.0</ele><time>2026-03-29T08:57:45.939Z</time></trkpt><trkpt lat="39.3764104" lon="17.0461811"><ele>213.99999999999997</ele><time>2026-03-29T08:57:48.931Z</time></trkpt><trkpt lat="39.3764719" lon="17.046146"><ele>214.0</ele><time>2026-03-29T08:57:50.911Z</time></trkpt><trkpt lat="39.3765386" lon="17.0461108"><ele>217.16666666666666</ele><time>2026-03-29T08:57:52.931Z</time></trkpt><trkpt lat="39.3766072" lon="17.0460832"><ele>220.33333333333331</ele><time>2026-03-29T08:57:54.925Z</time></trkpt><trkpt lat="39.3766772" lon="17.046057"><ele>223.5</ele><time>2026-03-29T08:57:56.915Z</time></trkpt><trkpt lat="39.376756" lon="17.0460353"><ele>226.66666666666669</ele><time>2026-03-29T08:57:58.912Z</time></trkpt><trkpt lat="39.3768378" lon="17.0460193"><ele>229.83333333333334</ele><time>2026-03-29T08:58:00.913Z</time></trkpt><trkpt lat="39.3769228" lon="17.0460128"><ele>233.0</ele><time>2026-03-29T08:58:02.923Z</time></trkpt><trkpt lat="39.3770098" lon="17.0459893"><ele>233.00000000000003</ele><time>2026-03-29T08:58:04.917Z</time></trkpt><trkpt lat="39.3770946" lon="17.0459652"><ele>233.0</ele><time>2026-03-29T08:58:06.907Z</time></trkpt><trkpt lat="39.3771809" lon="17.0459716"><ele>233.0</ele><time>2026-03-29T08:58:08.915Z</time></trkpt><trkpt lat="39.3772641" lon="17.045993"><ele>233.0</ele><time>2026-03-29T08:58:10.914Z</time></trkpt><trkpt lat="39.3773499" lon="17.0460102"><ele>233.00000000000003</ele><time>2026-03-29T08:58:12.916Z</time></trkpt><trkpt lat="39.3774345" lon="17.0460197"><ele>233.0</ele><time>2026-03-29T08:58:14.918Z</time></trkpt><trkpt lat="39.3775215" lon="17.046013"><ele>235.33333333333334</ele><time>2026-03-29T08:58:16.915Z</time></trkpt><trkpt lat="39.3776042" lon="17.0459923"><ele>237.66666666666669</ele><time>2026-03-29T08:58:18.9Z</time></trkpt><trkpt lat="39.3776798" lon="17.0459619"><ele>240.0</ele><time>2026-03-29T08:58:20.927Z</time></trkpt><trkpt lat="39.3777488" lon="17.0459139"><ele>242.33333333333331</ele><time>2026-03-29T08:58:22.916Z</time></trkpt><trkpt lat="39.3778255" lon="17.0458556"><ele>244.66666666666666</ele><time>2026-03-29T08:58:24.918Z</time></trkpt><trkpt lat="39.3779341" lon="17.0458344"><ele>247.0</ele><time>2026-03-29T08:58:26.911Z</time></trkpt><trkpt lat="39.3779998" lon="17.0458299"><ele>247.66666666666666</ele><time>2026-03-29T08:58:27.926Z</time></trkpt><trkpt lat="39.3780752" lon="17.0458106"><ele>248.33333333333331</ele><time>2026-03-29T08:58:28.936Z</time></trkpt><trkpt lat="39.378154" lon="17.0457873"><ele>249.0</ele><time>2026-03-29T08:58:29.918Z</time></trkpt><trkpt lat="39.3782346" lon="17.0457685"><ele>249.66666666666669</ele><time>2026-03-29T08:58:30.914Z</time></trkpt><trkpt lat="39.3783157" lon="17.0457532"><ele>250.33333333333334</ele><time>2026-03-29T08:58:31.925Z</time></trkpt><trkpt lat="39.3783953" lon="17.0457409"><ele>251.0</ele><time>2026-03-29T08:58:32.92Z</time></trkpt><trkpt lat="39.3784723" lon="17.0457297"><ele>251.00000000000003</ele><time>2026-03-29T08:58:33.915Z</time></trkpt><trkpt lat="39.3785463" lon="17.0457191"><ele>251.0</ele><time>2026-03-29T08:58:34.914Z</time></trkpt><trkpt lat="39.3786142" lon="17.0457175"><ele>251.0</ele><time>2026-03-29T08:58:35.92Z</time></trkpt><trkpt lat="39.37868" lon="17.0457258"><ele>251.0</ele><time>2026-03-29T08:58:36.903Z</time></trkpt><trkpt lat="39.3787467" lon="17.0457352"><ele>251.00000000000003</ele><time>2026-03-29T08:58:37.922Z</time></trkpt><trkpt lat="39.3788107" lon="17.0457461"><ele>251.0</ele><time>2026-03-29T08:58:38.916Z</time></trkpt><trkpt lat="39.3789264" lon="17.0457685"><ele>254.60000000000002</ele><time>2026-03-29T08:58:40.918Z</time></trkpt><trkpt lat="39.3790274" lon="17.04581"><ele>258.20000000000005</ele><time>2026-03-29T08:58:42.916Z</time></trkpt><trkpt lat="39.3791291" lon="17.0458821"><ele>261.79999999999995</ele><time>2026-03-29T08:58:44.931Z</time></trkpt><trkpt lat="39.379233" lon="17.0459503"><ele>265.4</ele><time>2026-03-29T08:58:46.919Z</time></trkpt><trkpt lat="39.379318" lon="17.0459906"><ele>269.0</ele><time>2026-03-29T08:58:48.915Z</time></trkpt><trkpt lat="39.3793816" lon="17.0459966"><ele>269.0</ele><time>2026-03-29T08:58:54.918Z</time></trkpt><trkpt lat="39.3794448" lon="17.045996"><ele>269.0</ele><time>2026-03-29T08:58:56.921Z</time></trkpt><trkpt lat="39.3795182" lon="17.0459559"><ele>269.0</ele><time>2026-03-29T08:58:58.915Z</time></trkpt><trkpt lat="39.3796007" lon="17.0458812"><ele>269.0</ele><time>2026-03-29T08:59:00.922Z</time></trkpt><trkpt lat="39.3796817" lon="17.0458023"><ele>269.0</ele><time>2026-03-29T08:59:02.919Z</time></trkpt><trkpt lat="39.3797764" lon="17.0457474"><ele>269.0</ele><time>2026-03-29T08:59:04.918Z</time></trkpt><trkpt lat="39.3798608" lon="17.0457268"><ele>274.33333333333337</ele><time>2026-03-29T08:59:06.896Z</time></trkpt><trkpt lat="39.379933" lon="17.0457135"><ele>279.6666666666667</ele><time>2026-03-29T08:59:08.951Z</time></trkpt><trkpt lat="39.380011" lon="17.045678"><ele>285.0</ele><time>2026-03-29T08:59:10.91Z</time></trkpt><trkpt lat="39.3800939" lon="17.045645"><ele>290.3333333333333</ele><time>2026-03-29T08:59:12.914Z</time></trkpt><trkpt lat="39.3801726" lon="17.0456147"><ele>295.66666666666663</ele><time>2026-03-29T08:59:14.912Z</time></trkpt><trkpt lat="39.3802454" lon="17.0455337"><ele>301.0</ele><time>2026-03-29T08:59:16.915Z</time></trkpt><trkpt lat="39.3803057" lon="17.04546"><ele>301.0</ele><time>2026-03-29T08:59:18.92Z</time></trkpt><trkpt lat="39.3803927" lon="17.0454124"><ele>301.0</ele><time>2026-03-29T08:59:21.927Z</time></trkpt><trkpt lat="39.380473" lon="17.0453814"><ele>301.0</ele><time>2026-03-29T08:59:23.916Z</time></trkpt><trkpt lat="39.3805681" lon="17.04536"><ele>301.0</ele><time>2026-03-29T08:59:25.919Z</time></trkpt><trkpt lat="39.3806607" lon="17.04536"><ele>301.0</ele><time>2026-03-29T08:59:27.913Z</time></trkpt><trkpt lat="39.380752" lon="17.0453512"><ele>300.8</ele><time>2026-03-29T08:59:29.917Z</time></trkpt><trkpt lat="39.3808542" lon="17.0453234"><ele>300.6</ele><time>2026-03-29T08:59:31.915Z</time></trkpt><trkpt lat="39.3809621" lon="17.045306"><ele>300.4</ele><time>2026-03-29T08:59:33.919Z</time></trkpt><trkpt lat="39.3810644" lon="17.045288"><ele>300.2</ele><time>2026-03-29T08:59:35.913Z</time></trkpt><trkpt lat="39.3811425" lon="17.0452675"><ele>300.0</ele><time>2026-03-29T08:59:37.906Z</time></trkpt><trkpt lat="39.3812058" lon="17.0452541"><ele>300.0</ele><time>2026-03-29T08:59:40.922Z</time></trkpt><trkpt lat="39.3813076" lon="17.0452356"><ele>300.0</ele><time>2026-03-29T08:59:43.914Z</time></trkpt><trkpt lat="39.3814144" lon="17.0452163"><ele>300.0</ele><time>2026-03-29T08:59:45.927Z</time></trkpt><trkpt lat="39.3815239" lon="17.0451946"><ele>300.0</ele><time>2026-03-29T08:59:47.92Z</time></trkpt><trkpt lat="39.3816287" lon="17.0451815"><ele>300.0</ele><time>2026-03-29T08:59:49.918Z</time></trkpt><trkpt lat="39.3817307" lon="17.0451874"><ele>301.6</ele><time>2026-03-29T08:59:51.919Z</time></trkpt><trkpt lat="39.3818341" lon="17.0452076"><ele>303.2</ele><time>2026-03-29T08:59:53.927Z</time></trkpt><trkpt lat="39.3819184" lon="17.0452346"><ele>304.8</ele><time>2026-03-29T08:59:55.917Z</time></trkpt><trkpt lat="39.3820032" lon="17.04524"><ele>306.4</ele><time>2026-03-29T08:59:57.919Z</time></trkpt><trkpt lat="39.3820808" lon="17.0452322"><ele>308.0</ele><time>2026-03-29T08:59:59.921Z</time></trkpt><trkpt lat="39.3821771" lon="17.0452261"><ele>308.5</ele><time>2026-03-29T09:00:01.918Z</time></trkpt><trkpt lat="39.3822661" lon="17.0452595"><ele>309.0</ele><time>2026-03-29T09:00:03.912Z</time></trkpt><trkpt lat="39.3823376" lon="17.0452559"><ele>309.5</ele><time>2026-03-29T09:00:06.916Z</time></trkpt><trkpt lat="39.38241" lon="17.0452374"><ele>310.0</ele><time>2026-03-29T09:00:08.912Z</time></trkpt><trkpt lat="39.3824961" lon="17.0452274"><ele>310.5</ele><time>2026-03-29T09:00:10.914Z</time></trkpt><trkpt lat="39.3825813" lon="17.0452155"><ele>311.0</ele><time>2026-03-29T09:00:12.918Z</time></trkpt><trkpt lat="39.382664" lon="17.0451697"><ele>311.0</ele><time>2026-03-29T09:00:14.912Z</time></trkpt><trkpt lat="39.3827372" lon="17.0451052"><ele>311.0</ele><time>2026-03-29T09:00:16.914Z</time></trkpt><trkpt lat="39.3828069" lon="17.0450335"><ele>311.0</ele><time>2026-03-29T09:00:18.913Z</time></trkpt><trkpt lat="39.3828546" lon="17.04498"><ele>311.0</ele><time>2026-03-29T09:00:20.927Z</time></trkpt><trkpt lat="39.3829527" lon="17.0449526"><ele>311.0</ele><time>2026-03-29T09:00:23.927Z</time></trkpt><trkpt lat="39.3830323" lon="17.044969"><ele>311.0</ele><time>2026-03-29T09:00:24.925Z</time></trkpt><trkpt lat="39.3831216" lon="17.045003"><ele>309.6666666666667</ele><time>2026-03-29T09:00:25.915Z</time></trkpt><trkpt lat="39.3832121" lon="17.0450415"><ele>308.33333333333337</ele><time>2026-03-29T09:00:26.928Z</time></trkpt><trkpt lat="39.3832955" lon="17.0450757"><ele>307.0</ele><time>2026-03-29T09:00:27.927Z</time></trkpt><trkpt lat="39.3833729" lon="17.0451069"><ele>305.6666666666667</ele><time>2026-03-29T09:00:28.928Z</time></trkpt><trkpt lat="39.3834508" lon="17.0451418"><ele>304.3333333333333</ele><time>2026-03-29T09:00:29.915Z</time></trkpt><trkpt lat="39.3835341" lon="17.045179"><ele>303.0</ele><time>2026-03-29T09:00:30.917Z</time></trkpt><trkpt lat="39.3836267" lon="17.0452181"><ele>303.0</ele><time>2026-03-29T09:00:31.913Z</time></trkpt><trkpt lat="39.3837241" lon="17.0452596"><ele>303.0</ele><time>2026-03-29T09:00:32.921Z</time></trkpt><trkpt lat="39.3838186" lon="17.0452992"><ele>303.0</ele><time>2026-03-29T09:00:33.921Z</time></trkpt><trkpt lat="39.3839025" lon="17.045334"><ele>303.0</ele><time>2026-03-29T09:00:34.92Z</time></trkpt><trkpt lat="39.383974" lon="17.0453632"><ele>303.0</ele><time>2026-03-29T09:00:35.919Z</time></trkpt><trkpt lat="39.384045" lon="17.0453838"><ele>303.0</ele><time>2026-03-29T09:00:36.915Z</time></trkpt><trkpt lat="39.3841241" lon="17.0453893"><ele>303.0</ele><time>2026-03-29T09:00:37.925Z</time></trkpt><trkpt lat="39.38421" lon="17.0453758"><ele>303.0</ele><time>2026-03-29T09:00:38.915Z</time></trkpt><trkpt lat="39.3843021" lon="17.0453455"><ele>303.0</ele><time>2026-03-29T09:00:39.925Z</time></trkpt><trkpt lat="39.3843929" lon="17.045297"><ele>303.0</ele><time>2026-03-29T09:00:40.919Z</time></trkpt><trkpt lat="39.3844801" lon="17.0452291"><ele>303.0</ele><time>2026-03-29T09:00:41.909Z</time></trkpt><trkpt lat="39.3845632" lon="17.0451512"><ele>303.0</ele><time>2026-03-29T09:00:42.913Z</time></trkpt><trkpt lat="39.3846396" lon="17.0450678"><ele>303.0</ele><time>2026-03-29T09:00:43.917Z</time></trkpt><trkpt lat="39.3847104" lon="17.0449815"><ele>303.0</ele><time>2026-03-29T09:00:44.927Z</time></trkpt><trkpt lat="39.3847735" lon="17.0448906"><ele>303.0</ele><time>2026-03-29T09:00:45.916Z</time></trkpt><trkpt lat="39.3848267" lon="17.0447961"><ele>303.0</ele><time>2026-03-29T09:00:46.922Z</time></trkpt><trkpt lat="39.3848708" lon="17.0447014"><ele>304.0</ele><time>2026-03-29T09:00:47.919Z</time></trkpt><trkpt lat="39.3849111" lon="17.0446096"><ele>305.0</ele><time>2026-03-29T09:00:48.916Z</time></trkpt><trkpt lat="39.3849527" lon="17.0445321"><ele>306.0</ele><time>2026-03-29T09:00:49.925Z</time></trkpt><trkpt lat="39.385001" lon="17.0444788"><ele>307.0</ele><time>2026-03-29T09:00:50.912Z</time></trkpt><trkpt lat="39.3850983" lon="17.0444392"><ele>308.0</ele><time>2026-03-29T09:00:52.925Z</time></trkpt><trkpt lat="39.3851763" lon="17.0443428"><ele>309.0</ele><time>2026-03-29T09:01:16.914Z</time></trkpt><trkpt lat="39.3852644" lon="17.0442413"><ele>309.00000000000006</ele><time>2026-03-29T09:01:18.915Z</time></trkpt><trkpt lat="39.3853137" lon="17.0441832"><ele>309.0</ele><time>2026-03-29T09:01:19.916Z</time></trkpt><trkpt lat="39.3853658" lon="17.0441215"><ele>309.0</ele><time>2026-03-29T09:01:20.924Z</time></trkpt><trkpt lat="39.3854142" lon="17.0440553"><ele>309.0</ele><time>2026-03-29T09:01:21.92Z</time></trkpt><trkpt lat="39.385449" lon="17.0439775"><ele>309.0</ele><time>2026-03-29T09:01:22.917Z</time></trkpt><trkpt lat="39.3854774" lon="17.0438868"><ele>309.00000000000006</ele><time>2026-03-29T09:01:23.932Z</time></trkpt><trkpt lat="39.3855059" lon="17.0437894"><ele>309.0</ele><time>2026-03-29T09:01:24.92Z</time></trkpt><trkpt lat="39.3855407" lon="17.0436902"><ele>309.5</ele><time>2026-03-29T09:01:25.923Z</time></trkpt><trkpt lat="39.385582" lon="17.0435909"><ele>310.0</ele><time>2026-03-29T09:01:26.921Z</time></trkpt><trkpt lat="39.3856243" lon="17.0434916"><ele>310.5</ele><time>2026-03-29T09:01:27.923Z</time></trkpt><trkpt lat="39.3856589" lon="17.0433871"><ele>311.0</ele><time>2026-03-29T09:01:28.926Z</time></trkpt><trkpt lat="39.3856879" lon="17.043274"><ele>311.5</ele><time>2026-03-29T09:01:29.92Z</time></trkpt><trkpt lat="39.3857149" lon="17.0431565"><ele>312.0</ele><time>2026-03-29T09:01:30.92Z</time></trkpt><trkpt lat="39.385738" lon="17.0430434"><ele>312.0</ele><time>2026-03-29T09:01:31.929Z</time></trkpt><trkpt lat="39.3857518" lon="17.0429504"><ele>312.0</ele><time>2026-03-29T09:01:32.923Z</time></trkpt><trkpt lat="39.3857934" lon="17.0428428"><ele>312.0</ele><time>2026-03-29T09:01:34.915Z</time></trkpt><trkpt lat="39.3858903" lon="17.0428062"><ele>312.0</ele><time>2026-03-29T09:01:36.922Z</time></trkpt><trkpt lat="39.3859662" lon="17.0428036"><ele>312.0</ele><time>2026-03-29T09:01:37.921Z</time></trkpt><trkpt lat="39.3860539" lon="17.0428043"><ele>312.0</ele><time>2026-03-29T09:01:38.926Z</time></trkpt><trkpt lat="39.3861404" lon="17.0428106"><ele>312.0</ele><time>2026-03-29T09:01:39.927Z</time></trkpt><trkpt lat="39.3862211" lon="17.0428243"><ele>312.0</ele><time>2026-03-29T09:01:40.925Z</time></trkpt><trkpt lat="39.3862957" lon="17.0428412"><ele>312.0</ele><time>2026-03-29T09:01:41.919Z</time></trkpt><trkpt lat="39.3863626" lon="17.0428592"><ele>312.0</ele><time>2026-03-29T09:01:42.918Z</time></trkpt><trkpt lat="39.3864669" lon="17.0429247"><ele>312.0</ele><time>2026-03-29T09:01:44.923Z</time></trkpt><trkpt lat="39.3865211" lon="17.0429709"><ele>312.0</ele><time>2026-03-29T09:01:45.919Z</time></trkpt><trkpt lat="39.3865813" lon="17.0430154"><ele>311.3333333333333</ele><time>2026-03-29T09:01:46.917Z</time></trkpt><trkpt lat="39.3866418" lon="17.0430606"><ele>310.6666666666667</ele><time>2026-03-29T09:01:47.911Z</time></trkpt><trkpt lat="39.3866989" lon="17.0431192"><ele>310.0</ele><time>2026-03-29T09:01:48.909Z</time></trkpt><trkpt lat="39.3867466" lon="17.0431982"><ele>309.33333333333337</ele><time>2026-03-29T09:01:49.91Z</time></trkpt><trkpt lat="39.3867911" lon="17.043286"><ele>308.6666666666667</ele><time>2026-03-29T09:01:50.915Z</time></trkpt><trkpt lat="39.3868319" lon="17.0433726"><ele>308.0</ele><time>2026-03-29T09:01:51.925Z</time></trkpt><trkpt lat="39.3868672" lon="17.0434601"><ele>308.0</ele><time>2026-03-29T09:01:52.929Z</time></trkpt><trkpt lat="39.3868963" lon="17.043545"><ele>308.0</ele><time>2026-03-29T09:01:53.928Z</time></trkpt><trkpt lat="39.3869183" lon="17.0436252"><ele>308.0</ele><time>2026-03-29T09:01:54.916Z</time></trkpt><trkpt lat="39.3869506" lon="17.0437598"><ele>308.0</ele><time>2026-03-29T09:01:56.957Z</time></trkpt><trkpt lat="39.3870129" lon="17.0438647"><ele>308.0</ele><time>2026-03-29T09:01:58.928Z</time></trkpt><trkpt lat="39.3871093" lon="17.0439324"><ele>305.4</ele><time>2026-03-29T09:02:00.933Z</time></trkpt><trkpt lat="39.3872105" lon="17.0440048"><ele>302.8</ele><time>2026-03-29T09:02:02.924Z</time></trkpt><trkpt lat="39.3873042" lon="17.0440997"><ele>300.2</ele><time>2026-03-29T09:02:04.919Z</time></trkpt><trkpt lat="39.387374" lon="17.0441744"><ele>297.6</ele><time>2026-03-29T09:02:06.922Z</time></trkpt><trkpt lat="39.387446" lon="17.0442061"><ele>295.0</ele><time>2026-03-29T09:02:08.927Z</time></trkpt><trkpt lat="39.3875607" lon="17.0441781"><ele>295.0</ele><time>2026-03-29T09:02:10.934Z</time></trkpt><trkpt lat="39.3876235" lon="17.0441582"><ele>295.0</ele><time>2026-03-29T09:02:11.926Z</time></trkpt><trkpt lat="39.3877478" lon="17.0441381"><ele>295.0</ele><time>2026-03-29T09:02:13.915Z</time></trkpt><trkpt lat="39.3878617" lon="17.0441368"><ele>295.0</ele><time>2026-03-29T09:02:15.924Z</time></trkpt><trkpt lat="39.3879534" lon="17.0441585"><ele>295.0</ele><time>2026-03-29T09:02:17.915Z</time></trkpt><trkpt lat="39.3880302" lon="17.0442304"><ele>293.66666666666663</ele><time>2026-03-29T09:02:19.928Z</time></trkpt><trkpt lat="39.3881073" lon="17.044291"><ele>292.3333333333333</ele><time>2026-03-29T09:02:21.915Z</time></trkpt><trkpt lat="39.388203" lon="17.0442552"><ele>291.0</ele><time>2026-03-29T09:02:23.919Z</time></trkpt><trkpt lat="39.388259" lon="17.0441961"><ele>289.6666666666667</ele><time>2026-03-29T09:02:24.922Z</time></trkpt><trkpt lat="39.3883171" lon="17.044129"><ele>288.33333333333337</ele><time>2026-03-29T09:02:25.92Z</time></trkpt><trkpt lat="39.3883725" lon="17.0440655"><ele>287.0</ele><time>2026-03-29T09:02:26.916Z</time></trkpt><trkpt lat="39.3884254" lon="17.0440126"><ele>287.0</ele><time>2026-03-29T09:02:27.924Z</time></trkpt><trkpt lat="39.3885245" lon="17.0439866"><ele>287.0</ele><time>2026-03-29T09:02:29.923Z</time></trkpt><trkpt lat="39.3886112" lon="17.0440847"><ele>287.0</ele><time>2026-03-29T09:02:31.916Z</time></trkpt><trkpt lat="39.3886644" lon="17.0441289"><ele>287.0</ele><time>2026-03-29T09:02:32.913Z</time></trkpt><trkpt lat="39.3887313" lon="17.0441496"><ele>287.0</ele><time>2026-03-29T09:02:33.927Z</time></trkpt><trkpt lat="39.3888055" lon="17.0441565"><ele>287.0</ele><time>2026-03-29T09:02:34.931Z</time></trkpt><trkpt lat="39.388884" lon="17.0441685"><ele>287.0</ele><time>2026-03-29T09:02:35.911Z</time></trkpt><trkpt lat="39.3889635" lon="17.044187"><ele>287.0</ele><time>2026-03-29T09:02:36.922Z</time></trkpt><trkpt lat="39.3890399" lon="17.0441955"><ele>287.0</ele><time>2026-03-29T09:02:37.928Z</time></trkpt><trkpt lat="39.3891125" lon="17.0441731"><ele>287.0</ele><time>2026-03-29T09:02:38.915Z</time></trkpt><trkpt lat="39.3891802" lon="17.0441199"><ele>287.0</ele><time>2026-03-29T09:02:39.927Z</time></trkpt><trkpt lat="39.389253" lon="17.0440536"><ele>287.0</ele><time>2026-03-29T09:02:40.913Z</time></trkpt><trkpt lat="39.3893325" lon="17.0439911"><ele>283.4</ele><time>2026-03-29T09:02:41.915Z</time></trkpt><trkpt lat="39.3894105" lon="17.0439371"><ele>279.79999999999995</ele><time>2026-03-29T09:02:42.927Z</time></trkpt><trkpt lat="39.3894866" lon="17.0438825"><ele>276.2</ele><time>2026-03-29T09:02:43.908Z</time></trkpt><trkpt lat="39.3895615" lon="17.0438133"><ele>272.59999999999997</ele><time>2026-03-29T09:02:44.928Z</time></trkpt><trkpt lat="39.3896386" lon="17.0437398"><ele>269.0</ele><time>2026-03-29T09:02:45.924Z</time></trkpt><trkpt lat="39.3897262" lon="17.0436739"><ele>269.0</ele><time>2026-03-29T09:02:46.914Z</time></trkpt><trkpt lat="39.3898192" lon="17.0436106"><ele>269.0</ele><time>2026-03-29T09:02:47.92Z</time></trkpt><trkpt lat="39.3899041" lon="17.0435495"><ele>269.0</ele><time>2026-03-29T09:02:48.907Z</time></trkpt><trkpt lat="39.3899806" lon="17.0434956"><ele>269.0</ele><time>2026-03-29T09:02:49.905Z</time></trkpt><trkpt lat="39.39005" lon="17.0434426"><ele>269.0</ele><time>2026-03-29T09:02:50.929Z</time></trkpt><trkpt lat="39.3901081" lon="17.0433727"><ele>269.0</ele><time>2026-03-29T09:02:51.916Z</time></trkpt><trkpt lat="39.3901586" lon="17.0432839"><ele>266.6666666666667</ele><time>2026-03-29T09:02:52.915Z</time></trkpt><trkpt lat="39.390207" lon="17.0431881"><ele>264.33333333333337</ele><time>2026-03-29T09:02:53.912Z</time></trkpt><trkpt lat="39.3902533" lon="17.0430893"><ele>262.0</ele><time>2026-03-29T09:02:54.936Z</time></trkpt><trkpt lat="39.3902908" lon="17.042991"><ele>259.6666666666667</ele><time>2026-03-29T09:02:55.922Z</time></trkpt><trkpt lat="39.3903137" lon="17.0428972"><ele>257.3333333333333</ele><time>2026-03-29T09:02:56.915Z</time></trkpt><trkpt lat="39.3903108" lon="17.042812"><ele>255.0</ele><time>2026-03-29T09:02:57.916Z</time></trkpt><trkpt lat="39.3902863" lon="17.0427355"><ele>255.0</ele><time>2026-03-29T09:02:58.923Z</time></trkpt><trkpt lat="39.3902045" lon="17.0426344"><ele>255.0</ele><time>2026-03-29T09:03:00.918Z</time></trkpt><trkpt lat="39.3901694" lon="17.0425523"><ele>255.0</ele><time>2026-03-29T09:03:03.931Z</time></trkpt><trkpt lat="39.3901299" lon="17.0424462"><ele>255.0</ele><time>2026-03-29T09:03:06.916Z</time></trkpt><trkpt lat="39.3901025" lon="17.042363"><ele>255.0</ele><time>2026-03-29T09:03:08.914Z</time></trkpt><trkpt lat="39.3901133" lon="17.0422459"><ele>255.0</ele><time>2026-03-29T09:03:11.92Z</time></trkpt><trkpt lat="39.3901693" lon="17.0421495"><ele>251.6</ele><time>2026-03-29T09:03:14.936Z</time></trkpt><trkpt lat="39.390227" lon="17.0420962"><ele>248.2</ele><time>2026-03-29T09:03:16.927Z</time></trkpt><trkpt lat="39.3903002" lon="17.0420501"><ele>244.8</ele><time>2026-03-29T09:03:18.926Z</time></trkpt><trkpt lat="39.3903932" lon="17.0420313"><ele>241.4</ele><time>2026-03-29T09:03:20.918Z</time></trkpt><trkpt lat="39.390497" lon="17.0420433"><ele>238.0</ele><time>2026-03-29T09:03:22.918Z</time></trkpt><trkpt lat="39.390599" lon="17.0420364"><ele>238.0</ele><time>2026-03-29T09:03:24.913Z</time></trkpt><trkpt lat="39.3906983" lon="17.0420053"><ele>238.0</ele><time>2026-03-29T09:03:26.922Z</time></trkpt><trkpt lat="39.390789" lon="17.0419595"><ele>238.0</ele><time>2026-03-29T09:03:28.923Z</time></trkpt><trkpt lat="39.3908693" lon="17.0418974"><ele>238.0</ele><time>2026-03-29T09:03:30.923Z</time></trkpt><trkpt lat="39.3909657" lon="17.0418361"><ele>238.0</ele><time>2026-03-29T09:03:32.926Z</time></trkpt><trkpt lat="39.3910613" lon="17.0417635"><ele>238.0</ele><time>2026-03-29T09:03:34.916Z</time></trkpt><trkpt lat="39.3911569" lon="17.0416699"><ele>238.0</ele><time>2026-03-29T09:03:36.932Z</time></trkpt><trkpt lat="39.391202" lon="17.0416102"><ele>238.0</ele><time>2026-03-29T09:03:37.917Z</time></trkpt><trkpt lat="39.3912432" lon="17.0415436"><ele>238.0</ele><time>2026-03-29T09:03:38.94Z</time></trkpt><trkpt lat="39.3913185" lon="17.0414181"><ele>238.0</ele><time>2026-03-29T09:03:40.924Z</time></trkpt><trkpt lat="39.3913661" lon="17.0412781"><ele>234.60000000000002</ele><time>2026-03-29T09:03:42.926Z</time></trkpt><trkpt lat="39.3913885" lon="17.0411242"><ele>231.20000000000002</ele><time>2026-03-29T09:03:44.927Z</time></trkpt><trkpt lat="39.3914043" lon="17.0409756"><ele>227.8</ele><time>2026-03-29T09:03:46.917Z</time></trkpt><trkpt lat="39.3914201" lon="17.0408722"><ele>224.4</ele><time>2026-03-29T09:03:48.926Z</time></trkpt><trkpt lat="39.3914514" lon="17.0407754"><ele>221.0</ele><time>2026-03-29T09:03:50.934Z</time></trkpt><trkpt lat="39.3915086" lon="17.0406957"><ele>218.0</ele><time>2026-03-29T09:03:52.917Z</time></trkpt><trkpt lat="39.3915818" lon="17.0406244"><ele>215.00000000000003</ele><time>2026-03-29T09:03:54.927Z</time></trkpt><trkpt lat="39.3916693" lon="17.0405558"><ele>212.0</ele><time>2026-03-29T09:03:56.929Z</time></trkpt><trkpt lat="39.3917586" lon="17.0405112"><ele>209.0</ele><time>2026-03-29T09:03:58.926Z</time></trkpt><trkpt lat="39.3918497" lon="17.0404612"><ele>206.0</ele><time>2026-03-29T09:04:00.924Z</time></trkpt><trkpt lat="39.3919362" lon="17.040418"><ele>205.99999999999997</ele><time>2026-03-29T09:04:02.936Z</time></trkpt><trkpt lat="39.3920185" lon="17.0404038"><ele>206.0</ele><time>2026-03-29T09:04:04.918Z</time></trkpt><trkpt lat="39.3920895" lon="17.04041"><ele>206.0</ele><time>2026-03-29T09:04:06.924Z</time></trkpt><trkpt lat="39.3921535" lon="17.0404103"><ele>206.0</ele><time>2026-03-29T09:04:08.921Z</time></trkpt><trkpt lat="39.3922195" lon="17.0403979"><ele>206.0</ele><time>2026-03-29T09:04:10.922Z</time></trkpt><trkpt lat="39.3922863" lon="17.04038"><ele>205.99999999999997</ele><time>2026-03-29T09:04:12.931Z</time></trkpt><trkpt lat="39.3923561" lon="17.0403281"><ele>206.0</ele><time>2026-03-29T09:04:14.923Z</time></trkpt><trkpt lat="39.39243" lon="17.0402828"><ele>204.16666666666669</ele><time>2026-03-29T09:04:16.919Z</time></trkpt><trkpt lat="39.3924841" lon="17.040234"><ele>202.33333333333334</ele><time>2026-03-29T09:04:18.91Z</time></trkpt><trkpt lat="39.3925452" lon="17.0401743"><ele>200.5</ele><time>2026-03-29T09:04:20.91Z</time></trkpt><trkpt lat="39.3926079" lon="17.0401272"><ele>198.66666666666669</ele><time>2026-03-29T09:04:22.918Z</time></trkpt><trkpt lat="39.392698" lon="17.040109"><ele>196.83333333333334</ele><time>2026-03-29T09:04:25.918Z</time></trkpt><trkpt lat="39.3927661" lon="17.0401456"><ele>195.0</ele><time>2026-03-29T09:04:27.91Z</time></trkpt><trkpt lat="39.3928296" lon="17.0402148"><ele>195.0</ele><time>2026-03-29T09:04:29.929Z</time></trkpt><trkpt lat="39.3928802" lon="17.0402953"><ele>195.0</ele><time>2026-03-29T09:04:31.916Z</time></trkpt><trkpt lat="39.3929193" lon="17.0403696"><ele>195.0</ele><time>2026-03-29T09:04:33.917Z</time></trkpt><trkpt lat="39.3929708" lon="17.040425"><ele>195.0</ele><time>2026-03-29T09:04:35.917Z</time></trkpt><trkpt lat="39.3930201" lon="17.0404837"><ele>195.0</ele><time>2026-03-29T09:04:37.921Z</time></trkpt><trkpt lat="39.3930884" lon="17.040538"><ele>195.0</ele><time>2026-03-29T09:04:40.914Z</time></trkpt><trkpt lat="39.3931494" lon="17.0405704"><ele>195.0</ele><time>2026-03-29T09:04:43.896Z</time></trkpt><trkpt lat="39.3932323" lon="17.0405934"><ele>191.5</ele><time>2026-03-29T09:04:46.906Z</time></trkpt><trkpt lat="39.393306" lon="17.0406028"><ele>188.0</ele><time>2026-03-29T09:04:49.9Z</time></trkpt><trkpt lat="39.3933819" lon="17.040604"><ele>184.5</ele><time>2026-03-29T09:04:52.907Z</time></trkpt><trkpt lat="39.3935058" lon="17.0406243"><ele>181.0</ele><time>2026-03-29T09:04:56.908Z</time></trkpt><trkpt lat="39.3935866" lon="17.0406327"><ele>177.5</ele><time>2026-03-29T09:04:59.901Z</time></trkpt><trkpt lat="39.3936606" lon="17.0406348"><ele>174.0</ele><time>2026-03-29T09:05:03.896Z</time></trkpt><trkpt lat="39.3937333" lon="17.0406451"><ele>174.0</ele><time>2026-03-29T09:05:07.894Z</time></trkpt><trkpt lat="39.3938121" lon="17.0406503"><ele>174.0</ele><time>2026-03-29T09:05:11.895Z</time></trkpt><trkpt lat="39.3938842" lon="17.0406348"><ele>174.0</ele><time>2026-03-29T09:05:15.896Z</time></trkpt><trkpt lat="39.3939523" lon="17.0406155"><ele>174.0</ele><time>2026-03-29T09:05:18.905Z</time></trkpt><trkpt lat="39.3940183" lon="17.0405962"><ele>174.0</ele><time>2026-03-29T09:05:20.907Z</time></trkpt><trkpt lat="39.394101" lon="17.04056"><ele>174.0</ele><time>2026-03-29T09:05:22.896Z</time></trkpt><trkpt lat="39.3941767" lon="17.0405385"><ele>172.0</ele><time>2026-03-29T09:05:24.905Z</time></trkpt><trkpt lat="39.3942407" lon="17.0405401"><ele>170.0</ele><time>2026-03-29T09:05:26.9Z</time></trkpt><trkpt lat="39.3943336" lon="17.0405702"><ele>168.0</ele><time>2026-03-29T09:05:29.893Z</time></trkpt><trkpt lat="39.3943968" lon="17.0405962"><ele>166.0</ele><time>2026-03-29T09:05:31.894Z</time></trkpt><trkpt lat="39.394482" lon="17.0406411"><ele>164.0</ele><time>2026-03-29T09:05:34.898Z</time></trkpt><trkpt lat="39.3945581" lon="17.0406933"><ele>162.0</ele><time>2026-03-29T09:05:37.898Z</time></trkpt><trkpt lat="39.3946099" lon="17.0407686"><ele>161.66666666666666</ele><time>2026-03-29T09:05:41.902Z</time></trkpt><trkpt lat="39.3946526" lon="17.040861"><ele>161.33333333333334</ele><time>2026-03-29T09:05:45.898Z</time></trkpt><trkpt lat="39.3947153" lon="17.0409493"><ele>161.0</ele><time>2026-03-29T09:05:48.915Z</time></trkpt><trkpt lat="39.3947558" lon="17.0410173"><ele>160.66666666666669</ele><time>2026-03-29T09:05:50.896Z</time></trkpt><trkpt lat="39.3947977" lon="17.0410889"><ele>160.33333333333334</ele><time>2026-03-29T09:05:52.904Z</time></trkpt><trkpt lat="39.394845" lon="17.0411531"><ele>160.0</ele><time>2026-03-29T09:05:54.898Z</time></trkpt><trkpt lat="39.3949225" lon="17.0412074"><ele>160.0</ele><time>2026-03-29T09:05:57.897Z</time></trkpt><trkpt lat="39.394985" lon="17.0412296"><ele>160.0</ele><time>2026-03-29T09:06:07.907Z</time></trkpt><trkpt lat="39.3950544" lon="17.041246"><ele>160.0</ele><time>2026-03-29T09:06:20.918Z</time></trkpt><trkpt lat="39.3951225" lon="17.041239"><ele>160.0</ele><time>2026-03-29T09:06:23.919Z</time></trkpt><trkpt lat="39.3951866" lon="17.0412376"><ele>160.0</ele><time>2026-03-29T09:06:28.915Z</time></trkpt><trkpt lat="39.3952623" lon="17.0412245"><ele>160.0</ele><time>2026-03-29T09:06:32.913Z</time></trkpt><trkpt lat="39.3953276" lon="17.0411777"><ele>160.0</ele><time>2026-03-29T09:07:39.913Z</time></trkpt><trkpt lat="39.3953838" lon="17.0411256"><ele>160.0</ele><time>2026-03-29T09:07:44.904Z</time></trkpt><trkpt lat="39.395435" lon="17.0410677"><ele>160.0</ele><time>2026-03-29T09:07:50.907Z</time></trkpt><trkpt lat="39.3954803" lon="17.0410007"><ele>160.0</ele><time>2026-03-29T09:09:51.915Z</time></trkpt><trkpt lat="39.3955173" lon="17.0409243"><ele>160.0</ele><time>2026-03-29T09:09:56.918Z</time></trkpt><trkpt lat="39.3955402" lon="17.0408172"><ele>160.0</ele><time>2026-03-29T09:10:45.907Z</time></trkpt><trkpt lat="39.3955875" lon="17.0407242"><ele>160.0</ele><time>2026-03-29T09:10:47.919Z</time></trkpt><trkpt lat="39.3956496" lon="17.040704"><ele>160.0</ele><time>2026-03-29T09:10:51.918Z</time></trkpt><trkpt lat="39.3957248" lon="17.0407003"><ele>155.0</ele><time>2026-03-29T09:10:56.916Z</time></trkpt><trkpt lat="39.3958186" lon="17.0407052"><ele>150.0</ele><time>2026-03-29T09:10:59.914Z</time></trkpt><trkpt lat="39.3958927" lon="17.0406974"><ele>145.0</ele><time>2026-03-29T09:11:01.916Z</time></trkpt><trkpt lat="39.3959654" lon="17.0406738"><ele>140.0</ele><time>2026-03-29T09:11:03.912Z</time></trkpt><trkpt lat="39.3960251" lon="17.0406107"><ele>135.0</ele><time>2026-03-29T09:11:05.928Z</time></trkpt><trkpt lat="39.3960678" lon="17.0405283"><ele>130.0</ele><time>2026-03-29T09:11:07.915Z</time></trkpt><trkpt lat="39.3961019" lon="17.0404441"><ele>130.0</ele><time>2026-03-29T09:11:09.896Z</time></trkpt><trkpt lat="39.3961423" lon="17.0403715"><ele>130.0</ele><time>2026-03-29T09:11:11.92Z</time></trkpt><trkpt lat="39.3962141" lon="17.0403079"><ele>130.0</ele><time>2026-03-29T09:11:14.917Z</time></trkpt><trkpt lat="39.3963012" lon="17.0403423"><ele>130.0</ele><time>2026-03-29T09:11:17.91Z</time></trkpt><trkpt lat="39.3963839" lon="17.0403965"><ele>130.0</ele><time>2026-03-29T09:11:20.914Z</time></trkpt><trkpt lat="39.3964441" lon="17.0404814"><ele>130.0</ele><time>2026-03-29T09:11:23.916Z</time></trkpt><trkpt lat="39.3964535" lon="17.0405787"><ele>129.85714285714286</ele><time>2026-03-29T09:11:26.928Z</time></trkpt><trkpt lat="39.3964138" lon="17.0406575"><ele>129.71428571428572</ele><time>2026-03-29T09:11:29.909Z</time></trkpt><trkpt lat="39.3963988" lon="17.0407431"><ele>129.57142857142856</ele><time>2026-03-29T09:11:32.916Z</time></trkpt><trkpt lat="39.3963854" lon="17.0408268"><ele>129.42857142857144</ele><time>2026-03-29T09:11:35.894Z</time></trkpt><trkpt lat="39.396374" lon="17.0409151"><ele>129.28571428571428</ele><time>2026-03-29T09:11:41.916Z</time></trkpt><trkpt lat="39.3964417" lon="17.0409477"><ele>129.14285714285714</ele><time>2026-03-29T09:11:47.911Z</time></trkpt><trkpt lat="39.3964971" lon="17.0408771"><ele>129.0</ele><time>2026-03-29T09:11:51.91Z</time></trkpt><trkpt lat="39.3965311" lon="17.0407849"><ele>129.0</ele><time>2026-03-29T09:11:54.907Z</time></trkpt><trkpt lat="39.3965831" lon="17.040693"><ele>129.0</ele><time>2026-03-29T09:11:57.911Z</time></trkpt><trkpt lat="39.3966339" lon="17.0406187"><ele>129.0</ele><time>2026-03-29T09:12:00.904Z</time></trkpt><trkpt lat="39.3966712" lon="17.0405494"><ele>129.0</ele><time>2026-03-29T09:12:03.897Z</time></trkpt><trkpt lat="39.3967186" lon="17.0404717"><ele>129.0</ele><time>2026-03-29T09:12:06.903Z</time></trkpt><trkpt lat="39.3967829" lon="17.0404085"><ele>129.0</ele><time>2026-03-29T09:12:09.894Z</time></trkpt><trkpt lat="39.3968255" lon="17.0403256"><ele>128.99999999999997</ele><time>2026-03-29T09:12:12.915Z</time></trkpt><trkpt lat="39.396832" lon="17.0402041"><ele>129.0</ele><time>2026-03-29T09:12:16.914Z</time></trkpt><trkpt lat="39.3968113" lon="17.040119"><ele>129.0</ele><time>2026-03-29T09:12:18.915Z</time></trkpt><trkpt lat="39.3967797" lon="17.0400413"><ele>129.0</ele><time>2026-03-29T09:12:20.909Z</time></trkpt><trkpt lat="39.3967401" lon="17.0399716"><ele>129.0</ele><time>2026-03-29T09:12:22.917Z</time></trkpt><trkpt lat="39.3966971" lon="17.0398999"><ele>128.99999999999997</ele><time>2026-03-29T09:12:24.922Z</time></trkpt><trkpt lat="39.3967189" lon="17.039805"><ele>129.0</ele><time>2026-03-29T09:12:27.912Z</time></trkpt><trkpt lat="39.3967808" lon="17.0397625"><ele>130.83333333333334</ele><time>2026-03-29T09:12:29.909Z</time></trkpt><trkpt lat="39.3968746" lon="17.0397649"><ele>132.66666666666666</ele><time>2026-03-29T09:12:32.913Z</time></trkpt><trkpt lat="39.3969631" lon="17.0397958"><ele>134.5</ele><time>2026-03-29T09:12:35.916Z</time></trkpt><trkpt lat="39.3970282" lon="17.0397292"><ele>136.33333333333331</ele><time>2026-03-29T09:12:38.918Z</time></trkpt><trkpt lat="39.3970236" lon="17.0396099"><ele>138.16666666666666</ele><time>2026-03-29T09:12:41.907Z</time></trkpt><trkpt lat="39.3970179" lon="17.0394968"><ele>140.0</ele><time>2026-03-29T09:12:44.899Z</time></trkpt><trkpt lat="39.3970023" lon="17.0394167"><ele>140.0</ele><time>2026-03-29T09:12:46.912Z</time></trkpt><trkpt lat="39.396963" lon="17.0393325"><ele>140.0</ele><time>2026-03-29T09:12:48.913Z</time></trkpt><trkpt lat="39.3969489" lon="17.0392322"><ele>140.0</ele><time>2026-03-29T09:12:50.913Z</time></trkpt><trkpt lat="39.3969158" lon="17.0391502"><ele>140.0</ele><time>2026-03-29T09:12:52.91Z</time></trkpt><trkpt lat="39.3968601" lon="17.0390966"><ele>140.0</ele><time>2026-03-29T09:12:54.918Z</time></trkpt><trkpt lat="39.396821" lon="17.0390128"><ele>140.0</ele><time>2026-03-29T09:12:56.909Z</time></trkpt><trkpt lat="39.3968201" lon="17.0388977"><ele>142.33333333333331</ele><time>2026-03-29T09:12:58.951Z</time></trkpt><trkpt lat="39.3968433" lon="17.0387872"><ele>144.66666666666666</ele><time>2026-03-29T09:13:00.913Z</time></trkpt><trkpt lat="39.3968593" lon="17.0386833"><ele>147.0</ele><time>2026-03-29T09:13:02.91Z</time></trkpt><trkpt lat="39.3968669" lon="17.0385834"><ele>149.33333333333334</ele><time>2026-03-29T09:13:04.907Z</time></trkpt><trkpt lat="39.3968874" lon="17.0384876"><ele>151.66666666666669</ele><time>2026-03-29T09:13:06.927Z</time></trkpt><trkpt lat="39.3969227" lon="17.0383983"><ele>154.0</ele><time>2026-03-29T09:13:08.915Z</time></trkpt><trkpt lat="39.3969635" lon="17.0382987"><ele>155.4</ele><time>2026-03-29T09:13:10.919Z</time></trkpt><trkpt lat="39.3970017" lon="17.0381859"><ele>156.8</ele><time>2026-03-29T09:13:12.911Z</time></trkpt><trkpt lat="39.3970404" lon="17.0380667"><ele>158.20000000000002</ele><time>2026-03-29T09:13:14.907Z</time></trkpt><trkpt lat="39.3970795" lon="17.037947"><ele>159.60000000000002</ele><time>2026-03-29T09:13:16.928Z</time></trkpt><trkpt lat="39.3971237" lon="17.0378329"><ele>161.0</ele><time>2026-03-29T09:13:18.912Z</time></trkpt><trkpt lat="39.3971642" lon="17.0377354"><ele>164.5</ele><time>2026-03-29T09:13:20.915Z</time></trkpt><trkpt lat="39.3972058" lon="17.0376385"><ele>168.0</ele><time>2026-03-29T09:13:26.915Z</time></trkpt><trkpt lat="39.3972628" lon="17.0375077"><ele>171.5</ele><time>2026-03-29T09:13:28.922Z</time></trkpt><trkpt lat="39.3972853" lon="17.0374295"><ele>175.0</ele><time>2026-03-29T09:13:29.914Z</time></trkpt><trkpt lat="39.397279" lon="17.037338"><ele>178.5</ele><time>2026-03-29T09:13:30.915Z</time></trkpt><trkpt lat="39.3972636" lon="17.0372505"><ele>182.0</ele><time>2026-03-29T09:13:31.904Z</time></trkpt><trkpt lat="39.3972441" lon="17.037164"><ele>182.66666666666666</ele><time>2026-03-29T09:13:32.917Z</time></trkpt><trkpt lat="39.3972155" lon="17.0370789"><ele>183.33333333333331</ele><time>2026-03-29T09:13:33.912Z</time></trkpt><trkpt lat="39.3971765" lon="17.0369937"><ele>184.0</ele><time>2026-03-29T09:13:34.912Z</time></trkpt><trkpt lat="39.3971332" lon="17.0369176"><ele>184.66666666666666</ele><time>2026-03-29T09:13:35.913Z</time></trkpt><trkpt lat="39.3970903" lon="17.0368436"><ele>185.33333333333334</ele><time>2026-03-29T09:13:36.92Z</time></trkpt><trkpt lat="39.3970463" lon="17.0367741"><ele>186.0</ele><time>2026-03-29T09:13:37.918Z</time></trkpt><trkpt lat="39.3969735" lon="17.0366617"><ele>186.33333333333334</ele><time>2026-03-29T09:13:39.914Z</time></trkpt><trkpt lat="39.3969071" lon="17.0365738"><ele>186.66666666666666</ele><time>2026-03-29T09:13:41.926Z</time></trkpt><trkpt lat="39.3968401" lon="17.0364733"><ele>187.0</ele><time>2026-03-29T09:13:43.928Z</time></trkpt><trkpt lat="39.3968045" lon="17.0364056"><ele>187.33333333333331</ele><time>2026-03-29T09:13:44.921Z</time></trkpt><trkpt lat="39.3967667" lon="17.03633"><ele>187.66666666666666</ele><time>2026-03-29T09:13:45.919Z</time></trkpt><trkpt lat="39.3967273" lon="17.0362499"><ele>188.0</ele><time>2026-03-29T09:13:46.92Z</time></trkpt><trkpt lat="39.396689" lon="17.0361689"><ele>188.0</ele><time>2026-03-29T09:13:47.92Z</time></trkpt><trkpt lat="39.3966512" lon="17.036086"><ele>188.0</ele><time>2026-03-29T09:13:48.914Z</time></trkpt><trkpt lat="39.3966163" lon="17.0360027"><ele>188.0</ele><time>2026-03-29T09:13:49.92Z</time></trkpt><trkpt lat="39.3965785" lon="17.0359264"><ele>188.0</ele><time>2026-03-29T09:13:50.917Z</time></trkpt><trkpt lat="39.3965423" lon="17.0358548"><ele>188.0</ele><time>2026-03-29T09:13:51.926Z</time></trkpt><trkpt lat="39.396507" lon="17.0357126"><ele>188.0</ele><time>2026-03-29T09:13:53.908Z</time></trkpt><trkpt lat="39.3965073" lon="17.0355918"><ele>190.33333333333331</ele><time>2026-03-29T09:13:55.919Z</time></trkpt><trkpt lat="39.3965014" lon="17.0354627"><ele>192.66666666666666</ele><time>2026-03-29T09:13:58.919Z</time></trkpt><trkpt lat="39.3965163" lon="17.0353498"><ele>195.0</ele><time>2026-03-29T09:14:00.923Z</time></trkpt><trkpt lat="39.3965222" lon="17.0352372"><ele>197.33333333333331</ele><time>2026-03-29T09:14:02.919Z</time></trkpt><trkpt lat="39.396502" lon="17.0351417"><ele>199.66666666666666</ele><time>2026-03-29T09:14:04.921Z</time></trkpt><trkpt lat="39.3964878" lon="17.0350468"><ele>202.0</ele><time>2026-03-29T09:14:06.92Z</time></trkpt><trkpt lat="39.396488" lon="17.0349425"><ele>201.49999999999997</ele><time>2026-03-29T09:14:08.914Z</time></trkpt><trkpt lat="39.3964633" lon="17.0348451"><ele>201.0</ele><time>2026-03-29T09:14:10.921Z</time></trkpt><trkpt lat="39.3964211" lon="17.0347279"><ele>200.5</ele><time>2026-03-29T09:14:12.92Z</time></trkpt><trkpt lat="39.3963934" lon="17.0346541"><ele>200.0</ele><time>2026-03-29T09:14:13.915Z</time></trkpt><trkpt lat="39.3963663" lon="17.0345658"><ele>199.49999999999997</ele><time>2026-03-29T09:14:14.92Z</time></trkpt><trkpt lat="39.3963478" lon="17.0344764"><ele>199.0</ele><time>2026-03-29T09:14:15.929Z</time></trkpt><trkpt lat="39.3963337" lon="17.0343445"><ele>199.99999999999997</ele><time>2026-03-29T09:14:17.915Z</time></trkpt><trkpt lat="39.3963408" lon="17.0342437"><ele>201.0</ele><time>2026-03-29T09:14:19.922Z</time></trkpt><trkpt lat="39.396342" lon="17.034128"><ele>202.0</ele><time>2026-03-29T09:14:21.913Z</time></trkpt><trkpt lat="39.396343" lon="17.0340037"><ele>203.0</ele><time>2026-03-29T09:14:23.914Z</time></trkpt><trkpt lat="39.3963616" lon="17.0338832"><ele>203.99999999999997</ele><time>2026-03-29T09:14:25.923Z</time></trkpt><trkpt lat="39.3964034" lon="17.0337824"><ele>205.0</ele><time>2026-03-29T09:14:27.931Z</time></trkpt><trkpt lat="39.3964447" lon="17.0336761"><ele>205.0</ele><time>2026-03-29T09:14:29.926Z</time></trkpt><trkpt lat="39.3964603" lon="17.0335308"><ele>205.0</ele><time>2026-03-29T09:14:31.921Z</time></trkpt><trkpt lat="39.3964398" lon="17.0333767"><ele>205.0</ele><time>2026-03-29T09:14:33.933Z</time></trkpt><trkpt lat="39.3964034" lon="17.0332256"><ele>205.0</ele><time>2026-03-29T09:14:35.921Z</time></trkpt><trkpt lat="39.3963821" lon="17.0330764"><ele>204.6</ele><time>2026-03-29T09:14:37.916Z</time></trkpt><trkpt lat="39.3963735" lon="17.0329283"><ele>204.2</ele><time>2026-03-29T09:14:39.916Z</time></trkpt><trkpt lat="39.396387" lon="17.0327729"><ele>203.8</ele><time>2026-03-29T09:14:41.923Z</time></trkpt><trkpt lat="39.3963971" lon="17.0326902"><ele>203.4</ele><time>2026-03-29T09:14:42.917Z</time></trkpt><trkpt lat="39.3964142" lon="17.0325298"><ele>203.0</ele><time>2026-03-29T09:14:44.924Z</time></trkpt><trkpt lat="39.3964401" lon="17.0323797"><ele>199.4</ele><time>2026-03-29T09:14:46.924Z</time></trkpt><trkpt lat="39.3964683" lon="17.0322396"><ele>195.8</ele><time>2026-03-29T09:14:48.917Z</time></trkpt><trkpt lat="39.3964847" lon="17.0321043"><ele>192.2</ele><time>2026-03-29T09:14:50.932Z</time></trkpt><trkpt lat="39.3964919" lon="17.0319817"><ele>188.6</ele><time>2026-03-29T09:14:52.924Z</time></trkpt><trkpt lat="39.3964933" lon="17.0318597"><ele>185.0</ele><time>2026-03-29T09:14:54.923Z</time></trkpt><trkpt lat="39.3964961" lon="17.0317359"><ele>182.0</ele><time>2026-03-29T09:14:56.928Z</time></trkpt><trkpt lat="39.3964974" lon="17.0316052"><ele>179.0</ele><time>2026-03-29T09:14:58.929Z</time></trkpt><trkpt lat="39.3965264" lon="17.031459"><ele>176.0</ele><time>2026-03-29T09:15:00.912Z</time></trkpt><trkpt lat="39.3965863" lon="17.0313187"><ele>173.0</ele><time>2026-03-29T09:15:02.933Z</time></trkpt><trkpt lat="39.3966343" lon="17.0312608"><ele>170.0</ele><time>2026-03-29T09:15:03.908Z</time></trkpt><trkpt lat="39.396685" lon="17.0311993"><ele>170.0</ele><time>2026-03-29T09:15:04.921Z</time></trkpt><trkpt lat="39.3967361" lon="17.0311381"><ele>170.0</ele><time>2026-03-29T09:15:05.931Z</time></trkpt><trkpt lat="39.3967884" lon="17.0310765"><ele>170.0</ele><time>2026-03-29T09:15:06.922Z</time></trkpt><trkpt lat="39.3968365" lon="17.0310014"><ele>170.0</ele><time>2026-03-29T09:15:07.898Z</time></trkpt><trkpt lat="39.3968798" lon="17.0309205"><ele>170.0</ele><time>2026-03-29T09:15:08.91Z</time></trkpt><trkpt lat="39.3969197" lon="17.0308442"><ele>170.0</ele><time>2026-03-29T09:15:09.914Z</time></trkpt><trkpt lat="39.396959" lon="17.0307758"><ele>170.0</ele><time>2026-03-29T09:15:10.911Z</time></trkpt><trkpt lat="39.3970022" lon="17.0307114"><ele>168.14285714285714</ele><time>2026-03-29T09:15:11.927Z</time></trkpt><trkpt lat="39.3970481" lon="17.0306518"><ele>166.28571428571428</ele><time>2026-03-29T09:15:12.917Z</time></trkpt><trkpt lat="39.3971006" lon="17.0306016"><ele>164.42857142857142</ele><time>2026-03-29T09:15:13.919Z</time></trkpt><trkpt lat="39.3971594" lon="17.0305592"><ele>162.57142857142856</ele><time>2026-03-29T09:15:14.921Z</time></trkpt><trkpt lat="39.3972198" lon="17.0305173"><ele>160.71428571428572</ele><time>2026-03-29T09:15:15.925Z</time></trkpt><trkpt lat="39.3972777" lon="17.030474"><ele>158.85714285714283</ele><time>2026-03-29T09:15:16.918Z</time></trkpt><trkpt lat="39.3973385" lon="17.0304337"><ele>157.0</ele><time>2026-03-29T09:15:17.923Z</time></trkpt><trkpt lat="39.3974065" lon="17.030401"><ele>156.99999999999997</ele><time>2026-03-29T09:15:18.918Z</time></trkpt><trkpt lat="39.3974715" lon="17.0303781"><ele>157.0</ele><time>2026-03-29T09:15:19.929Z</time></trkpt><trkpt lat="39.3975384" lon="17.030378"><ele>157.0</ele><time>2026-03-29T09:15:20.922Z</time></trkpt><trkpt lat="39.3976027" lon="17.0303794"><ele>157.0</ele><time>2026-03-29T09:15:21.916Z</time></trkpt><trkpt lat="39.3976718" lon="17.0303794"><ele>157.0</ele><time>2026-03-29T09:15:22.922Z</time></trkpt><trkpt lat="39.3977391" lon="17.0303723"><ele>156.99999999999997</ele><time>2026-03-29T09:15:23.928Z</time></trkpt><trkpt lat="39.3978441" lon="17.0303465"><ele>157.0</ele><time>2026-03-29T09:15:25.905Z</time></trkpt><trkpt lat="39.3979431" lon="17.0302812"><ele>156.79999999999998</ele><time>2026-03-29T09:15:27.922Z</time></trkpt><trkpt lat="39.3980374" lon="17.0302045"><ele>156.6</ele><time>2026-03-29T09:15:29.917Z</time></trkpt><trkpt lat="39.3980976" lon="17.0301304"><ele>156.39999999999998</ele><time>2026-03-29T09:15:31.917Z</time></trkpt><trkpt lat="39.3981241" lon="17.0300277"><ele>156.2</ele><time>2026-03-29T09:15:33.927Z</time></trkpt><trkpt lat="39.3981819" lon="17.0298998"><ele>156.0</ele><time>2026-03-29T09:15:36.928Z</time></trkpt><trkpt lat="39.3982327" lon="17.0298427"><ele>152.4</ele><time>2026-03-29T09:15:38.899Z</time></trkpt><trkpt lat="39.3982948" lon="17.029789"><ele>148.8</ele><time>2026-03-29T09:15:40.894Z</time></trkpt><trkpt lat="39.3983682" lon="17.0297214"><ele>145.20000000000002</ele><time>2026-03-29T09:15:42.9Z</time></trkpt><trkpt lat="39.3984543" lon="17.0296412"><ele>141.6</ele><time>2026-03-29T09:15:44.905Z</time></trkpt><trkpt lat="39.3985387" lon="17.0295665"><ele>138.0</ele><time>2026-03-29T09:15:46.899Z</time></trkpt><trkpt lat="39.3986207" lon="17.0294814"><ele>138.0</ele><time>2026-03-29T09:15:48.894Z</time></trkpt><trkpt lat="39.3987099" lon="17.0293942"><ele>138.0</ele><time>2026-03-29T09:15:50.897Z</time></trkpt><trkpt lat="39.3988143" lon="17.0293187"><ele>138.0</ele><time>2026-03-29T09:15:52.896Z</time></trkpt><trkpt lat="39.3989268" lon="17.0292664"><ele>138.0</ele><time>2026-03-29T09:15:54.891Z</time></trkpt><trkpt lat="39.399035" lon="17.0292426"><ele>136.6</ele><time>2026-03-29T09:15:56.896Z</time></trkpt><trkpt lat="39.3991464" lon="17.029218"><ele>135.20000000000002</ele><time>2026-03-29T09:15:58.893Z</time></trkpt><trkpt lat="39.3992622" lon="17.0292037"><ele>133.8</ele><time>2026-03-29T09:16:00.896Z</time></trkpt><trkpt lat="39.3993494" lon="17.0291856"><ele>132.4</ele><time>2026-03-29T09:16:02.891Z</time></trkpt><trkpt lat="39.3994127" lon="17.0291647"><ele>131.0</ele><time>2026-03-29T09:16:04.898Z</time></trkpt><trkpt lat="39.3994779" lon="17.0291336"><ele>129.66666666666666</ele><time>2026-03-29T09:16:06.903Z</time></trkpt><trkpt lat="39.3995517" lon="17.0290721"><ele>128.33333333333331</ele><time>2026-03-29T09:16:09.896Z</time></trkpt><trkpt lat="39.3996253" lon="17.0290047"><ele>127.0</ele><time>2026-03-29T09:16:11.898Z</time></trkpt><trkpt lat="39.3997166" lon="17.0289067"><ele>125.66666666666666</ele><time>2026-03-29T09:16:13.892Z</time></trkpt><trkpt lat="39.399763" lon="17.0288451"><ele>124.33333333333333</ele><time>2026-03-29T09:16:14.894Z</time></trkpt><trkpt lat="39.3998105" lon="17.0287828"><ele>123.0</ele><time>2026-03-29T09:16:15.899Z</time></trkpt><trkpt lat="39.3998558" lon="17.0287255"><ele>121.66666666666667</ele><time>2026-03-29T09:16:16.9Z</time></trkpt><trkpt lat="39.3999348" lon="17.0286217"><ele>120.33333333333334</ele><time>2026-03-29T09:16:18.893Z</time></trkpt><trkpt lat="39.3999811" lon="17.0285565"><ele>119.0</ele><time>2026-03-29T09:16:20.9Z</time></trkpt><trkpt lat="39.4000228" lon="17.0284738"><ele>117.66666666666667</ele><time>2026-03-29T09:16:23.891Z</time></trkpt><trkpt lat="39.400079" lon="17.0284079"><ele>116.33333333333334</ele><time>2026-03-29T09:16:25.9Z</time></trkpt><trkpt lat="39.4001489" lon="17.0283483"><ele>115.0</ele><time>2026-03-29T09:16:27.906Z</time></trkpt><trkpt lat="39.4002319" lon="17.0283009"><ele>113.33333333333334</ele><time>2026-03-29T09:16:29.901Z</time></trkpt><trkpt lat="39.4003086" lon="17.0282616"><ele>111.66666666666667</ele><time>2026-03-29T09:16:31.896Z</time></trkpt><trkpt lat="39.4003678" lon="17.0282087"><ele>110.0</ele><time>2026-03-29T09:16:33.904Z</time></trkpt><trkpt lat="39.4004353" lon="17.0281231"><ele>108.33333333333334</ele><time>2026-03-29T09:16:36.901Z</time></trkpt><trkpt lat="39.400475" lon="17.0280455"><ele>106.66666666666667</ele><time>2026-03-29T09:16:38.911Z</time></trkpt><trkpt lat="39.4005326" lon="17.0279577"><ele>105.0</ele><time>2026-03-29T09:16:40.898Z</time></trkpt><trkpt lat="39.4005998" lon="17.0278879"><ele>102.0</ele><time>2026-03-29T09:16:42.895Z</time></trkpt><trkpt lat="39.4006667" lon="17.0278222"><ele>99.0</ele><time>2026-03-29T09:16:44.898Z</time></trkpt><trkpt lat="39.4007218" lon="17.0277548"><ele>96.0</ele><time>2026-03-29T09:16:46.898Z</time></trkpt><trkpt lat="39.4007798" lon="17.0277146"><ele>93.0</ele><time>2026-03-29T09:16:49.89Z</time></trkpt><trkpt lat="39.400849" lon="17.0276939"><ele>90.0</ele><time>2026-03-29T09:16:52.898Z</time></trkpt><trkpt lat="39.4009336" lon="17.0276562"><ele>87.0</ele><time>2026-03-29T09:16:54.904Z</time></trkpt><trkpt lat="39.4010182" lon="17.0276154"><ele>87.0</ele><time>2026-03-29T09:16:56.896Z</time></trkpt><trkpt lat="39.4011062" lon="17.0275812"><ele>87.0</ele><time>2026-03-29T09:16:58.894Z</time></trkpt><trkpt lat="39.4011917" lon="17.027538"><ele>87.0</ele><time>2026-03-29T09:17:00.893Z</time></trkpt><trkpt lat="39.4012854" lon="17.0274763"><ele>87.0</ele><time>2026-03-29T09:17:02.896Z</time></trkpt><trkpt lat="39.4013794" lon="17.027426"><ele>87.0</ele><time>2026-03-29T09:17:04.896Z</time></trkpt><trkpt lat="39.4014564" lon="17.0274648"><ele>85.16666666666667</ele><time>2026-03-29T09:17:06.896Z</time></trkpt><trkpt lat="39.4015125" lon="17.0275994"><ele>83.33333333333333</ele><time>2026-03-29T09:17:08.912Z</time></trkpt><trkpt lat="39.4015452" lon="17.0276759"><ele>81.5</ele><time>2026-03-29T09:17:09.9Z</time></trkpt><trkpt lat="39.4015782" lon="17.0277539"><ele>79.66666666666666</ele><time>2026-03-29T09:17:10.89Z</time></trkpt><trkpt lat="39.4016073" lon="17.0278292"><ele>77.83333333333333</ele><time>2026-03-29T09:17:11.901Z</time></trkpt><trkpt lat="39.4016573" lon="17.027937"><ele>76.0</ele><time>2026-03-29T09:17:13.902Z</time></trkpt><trkpt lat="39.4017357" lon="17.0279587"><ele>76.0</ele><time>2026-03-29T09:17:15.897Z</time></trkpt><trkpt lat="39.4018313" lon="17.0279177"><ele>76.0</ele><time>2026-03-29T09:17:17.891Z</time></trkpt><trkpt lat="39.4018834" lon="17.0278719"><ele>76.0</ele><time>2026-03-29T09:17:18.9Z</time></trkpt><trkpt lat="39.401938" lon="17.0278246"><ele>76.0</ele><time>2026-03-29T09:17:19.899Z</time></trkpt><trkpt lat="39.4019928" lon="17.0277817"><ele>76.0</ele><time>2026-03-29T09:17:20.9Z</time></trkpt><trkpt lat="39.4020987" lon="17.0277013"><ele>76.0</ele><time>2026-03-29T09:17:22.902Z</time></trkpt><trkpt lat="39.4021537" lon="17.0276598"><ele>74.85714285714285</ele><time>2026-03-29T09:17:23.895Z</time></trkpt><trkpt lat="39.4022107" lon="17.0276179"><ele>73.71428571428572</ele><time>2026-03-29T09:17:24.894Z</time></trkpt><trkpt lat="39.4022679" lon="17.0275734"><ele>72.57142857142857</ele><time>2026-03-29T09:17:25.891Z</time></trkpt><trkpt lat="39.402326" lon="17.0275252"><ele>71.42857142857142</ele><time>2026-03-29T09:17:26.891Z</time></trkpt><trkpt lat="39.4023836" lon="17.0274707"><ele>70.28571428571428</ele><time>2026-03-29T09:17:27.895Z</time></trkpt><trkpt lat="39.4024449" lon="17.0274204"><ele>69.14285714285714</ele><time>2026-03-29T09:17:28.893Z</time></trkpt><trkpt lat="39.4025084" lon="17.0273699"><ele>68.0</ele><time>2026-03-29T09:17:29.894Z</time></trkpt><trkpt lat="39.4025751" lon="17.027318"><ele>67.83333333333334</ele><time>2026-03-29T09:17:30.901Z</time></trkpt><trkpt lat="39.4026437" lon="17.0272658"><ele>67.66666666666667</ele><time>2026-03-29T09:17:31.892Z</time></trkpt><trkpt lat="39.4027141" lon="17.0272192"><ele>67.5</ele><time>2026-03-29T09:17:32.894Z</time></trkpt><trkpt lat="39.4027837" lon="17.0271845"><ele>67.33333333333333</ele><time>2026-03-29T09:17:33.897Z</time></trkpt><trkpt lat="39.4028476" lon="17.0271627"><ele>67.16666666666666</ele><time>2026-03-29T09:17:34.894Z</time></trkpt><trkpt lat="39.4029114" lon="17.0271697"><ele>67.0</ele><time>2026-03-29T09:17:35.898Z</time></trkpt><trkpt lat="39.4030245" lon="17.0272233"><ele>67.14285714285714</ele><time>2026-03-29T09:17:37.905Z</time></trkpt><trkpt lat="39.403077" lon="17.0272749"><ele>67.28571428571428</ele><time>2026-03-29T09:17:38.897Z</time></trkpt><trkpt lat="39.403132" lon="17.0273201"><ele>67.42857142857142</ele><time>2026-03-29T09:17:39.895Z</time></trkpt><trkpt lat="39.4031898" lon="17.027363"><ele>67.57142857142857</ele><time>2026-03-29T09:17:40.897Z</time></trkpt><trkpt lat="39.4032479" lon="17.027405"><ele>67.71428571428571</ele><time>2026-03-29T09:17:41.898Z</time></trkpt><trkpt lat="39.4033045" lon="17.0274461"><ele>67.85714285714285</ele><time>2026-03-29T09:17:42.891Z</time></trkpt><trkpt lat="39.4033577" lon="17.0274907"><ele>68.0</ele><time>2026-03-29T09:17:43.895Z</time></trkpt><trkpt lat="39.4034105" lon="17.0275409"><ele>68.0</ele><time>2026-03-29T09:17:44.894Z</time></trkpt><trkpt lat="39.4034803" lon="17.0276754"><ele>68.0</ele><time>2026-03-29T09:17:46.893Z</time></trkpt><trkpt lat="39.4035004" lon="17.0277569"><ele>68.0</ele><time>2026-03-29T09:17:47.898Z</time></trkpt><trkpt lat="39.403516" lon="17.0278393"><ele>68.0</ele><time>2026-03-29T09:17:48.898Z</time></trkpt><trkpt lat="39.4035279" lon="17.0279245"><ele>68.0</ele><time>2026-03-29T09:17:49.901Z</time></trkpt><trkpt lat="39.4035377" lon="17.028009"><ele>68.0</ele><time>2026-03-29T09:17:50.894Z</time></trkpt><trkpt lat="39.4035661" lon="17.028151"><ele>68.0</ele><time>2026-03-29T09:17:52.895Z</time></trkpt><trkpt lat="39.4036148" lon="17.0282242"><ele>68.0</ele><time>2026-03-29T09:17:54.898Z</time></trkpt><trkpt lat="39.4036961" lon="17.0282008"><ele>68.0</ele><time>2026-03-29T09:17:57.893Z</time></trkpt><trkpt lat="39.4037337" lon="17.0281221"><ele>68.0</ele><time>2026-03-29T09:17:59.899Z</time></trkpt><trkpt lat="39.4037482" lon="17.0280004"><ele>68.0</ele><time>2026-03-29T09:18:01.903Z</time></trkpt><trkpt lat="39.4037459" lon="17.027858"><ele>68.0</ele><time>2026-03-29T09:18:03.893Z</time></trkpt><trkpt lat="39.4037043" lon="17.0277022"><ele>68.0</ele><time>2026-03-29T09:18:05.893Z</time></trkpt><trkpt lat="39.403689" lon="17.0276188"><ele>68.0</ele><time>2026-03-29T09:18:06.894Z</time></trkpt><trkpt lat="39.4037056" lon="17.0274732"><ele>68.0</ele><time>2026-03-29T09:18:08.914Z</time></trkpt><trkpt lat="39.4037497" lon="17.0274139"><ele>68.0</ele><time>2026-03-29T09:18:10.891Z</time></trkpt><trkpt lat="39.4037731" lon="17.0273361"><ele>68.0</ele><time>2026-03-29T09:18:19.898Z</time></trkpt><trkpt lat="39.4037273" lon="17.0272371"><ele>68.0</ele><time>2026-03-29T09:18:21.902Z</time></trkpt><trkpt lat="39.4036507" lon="17.0271343"><ele>68.5</ele><time>2026-03-29T09:18:23.897Z</time></trkpt><trkpt lat="39.4035675" lon="17.0270389"><ele>69.0</ele><time>2026-03-29T09:18:25.897Z</time></trkpt><trkpt lat="39.4035195" lon="17.026981"><ele>69.5</ele><time>2026-03-29T09:18:26.895Z</time></trkpt><trkpt lat="39.4034677" lon="17.0269188"><ele>70.0</ele><time>2026-03-29T09:18:27.893Z</time></trkpt><trkpt lat="39.4034126" lon="17.0268572"><ele>70.5</ele><time>2026-03-29T09:18:28.897Z</time></trkpt><trkpt lat="39.4033548" lon="17.0267955"><ele>71.0</ele><time>2026-03-29T09:18:29.893Z</time></trkpt><trkpt lat="39.4032919" lon="17.0267342"><ele>71.0</ele><time>2026-03-29T09:18:30.901Z</time></trkpt><trkpt lat="39.4032234" lon="17.0266721"><ele>71.0</ele><time>2026-03-29T09:18:31.9Z</time></trkpt><trkpt lat="39.4031425" lon="17.0265994"><ele>71.0</ele><time>2026-03-29T09:18:32.898Z</time></trkpt><trkpt lat="39.4030544" lon="17.0265205"><ele>71.0</ele><time>2026-03-29T09:18:33.894Z</time></trkpt><trkpt lat="39.4029719" lon="17.0264367"><ele>71.0</ele><time>2026-03-29T09:18:34.898Z</time></trkpt><trkpt lat="39.4029046" lon="17.0263422"><ele>70.8</ele><time>2026-03-29T09:18:35.897Z</time></trkpt><trkpt lat="39.4028509" lon="17.0262405"><ele>70.6</ele><time>2026-03-29T09:18:36.894Z</time></trkpt><trkpt lat="39.4028075" lon="17.0261362"><ele>70.4</ele><time>2026-03-29T09:18:37.896Z</time></trkpt><trkpt lat="39.402769" lon="17.0260319"><ele>70.2</ele><time>2026-03-29T09:18:38.899Z</time></trkpt><trkpt lat="39.40273" lon="17.025928"><ele>70.0</ele><time>2026-03-29T09:18:39.89Z</time></trkpt><trkpt lat="39.4026915" lon="17.025821"><ele>70.8</ele><time>2026-03-29T09:18:40.891Z</time></trkpt><trkpt lat="39.4026546" lon="17.0257123"><ele>71.6</ele><time>2026-03-29T09:18:41.899Z</time></trkpt><trkpt lat="39.4026211" lon="17.0256009"><ele>72.4</ele><time>2026-03-29T09:18:42.899Z</time></trkpt><trkpt lat="39.4025918" lon="17.0254871"><ele>73.2</ele><time>2026-03-29T09:18:43.893Z</time></trkpt><trkpt lat="39.4025666" lon="17.0253687"><ele>74.0</ele><time>2026-03-29T09:18:44.899Z</time></trkpt><trkpt lat="39.4025411" lon="17.0252496"><ele>74.0</ele><time>2026-03-29T09:18:45.898Z</time></trkpt><trkpt lat="39.4025176" lon="17.0251288"><ele>74.0</ele><time>2026-03-29T09:18:46.89Z</time></trkpt><trkpt lat="39.4024938" lon="17.0250074"><ele>74.0</ele><time>2026-03-29T09:18:47.896Z</time></trkpt><trkpt lat="39.4024672" lon="17.0248863"><ele>74.0</ele><time>2026-03-29T09:18:48.899Z</time></trkpt><trkpt lat="39.4024304" lon="17.0247698"><ele>74.0</ele><time>2026-03-29T09:18:49.891Z</time></trkpt><trkpt lat="39.4023884" lon="17.0246587"><ele>73.60000000000001</ele><time>2026-03-29T09:18:50.893Z</time></trkpt><trkpt lat="39.4023264" lon="17.0245608"><ele>73.2</ele><time>2026-03-29T09:18:51.891Z</time></trkpt><trkpt lat="39.4022597" lon="17.0244643"><ele>72.80000000000001</ele><time>2026-03-29T09:18:52.894Z</time></trkpt><trkpt lat="39.4021942" lon="17.0243672"><ele>72.4</ele><time>2026-03-29T09:18:53.89Z</time></trkpt><trkpt lat="39.4021267" lon="17.0242714"><ele>72.0</ele><time>2026-03-29T09:18:54.896Z</time></trkpt><trkpt lat="39.4020548" lon="17.0241802"><ele>72.8</ele><time>2026-03-29T09:18:55.897Z</time></trkpt><trkpt lat="39.4019792" lon="17.0240861"><ele>73.6</ele><time>2026-03-29T09:18:56.898Z</time></trkpt><trkpt lat="39.4019036" lon="17.023987"><ele>74.39999999999999</ele><time>2026-03-29T09:18:57.898Z</time></trkpt><trkpt lat="39.4018257" lon="17.0238819"><ele>75.2</ele><time>2026-03-29T09:18:58.895Z</time></trkpt><trkpt lat="39.4017437" lon="17.0237784"><ele>76.0</ele><time>2026-03-29T09:18:59.898Z</time></trkpt><trkpt lat="39.401661" lon="17.0236776"><ele>76.0</ele><time>2026-03-29T09:19:00.894Z</time></trkpt><trkpt lat="39.4015752" lon="17.0235807"><ele>76.0</ele><time>2026-03-29T09:19:01.894Z</time></trkpt><trkpt lat="39.4014868" lon="17.0234878"><ele>76.0</ele><time>2026-03-29T09:19:02.893Z</time></trkpt><trkpt lat="39.4013956" lon="17.0234023"><ele>76.0</ele><time>2026-03-29T09:19:03.899Z</time></trkpt><trkpt lat="39.401295" lon="17.0233328"><ele>77.75</ele><time>2026-03-29T09:19:04.894Z</time></trkpt><trkpt lat="39.4011883" lon="17.0232749"><ele>79.5</ele><time>2026-03-29T09:19:05.898Z</time></trkpt><trkpt lat="39.4010806" lon="17.0232245"><ele>81.25</ele><time>2026-03-29T09:19:06.895Z</time></trkpt><trkpt lat="39.4009732" lon="17.0231717"><ele>83.0</ele><time>2026-03-29T09:19:07.898Z</time></trkpt><trkpt lat="39.400867" lon="17.0231159"><ele>83.0</ele><time>2026-03-29T09:19:08.898Z</time></trkpt><trkpt lat="39.4007617" lon="17.0230569"><ele>83.0</ele><time>2026-03-29T09:19:09.906Z</time></trkpt><trkpt lat="39.4006572" lon="17.0229975"><ele>83.0</ele><time>2026-03-29T09:19:10.905Z</time></trkpt><trkpt lat="39.4005514" lon="17.0229391"><ele>83.0</ele><time>2026-03-29T09:19:11.892Z</time></trkpt><trkpt lat="39.4004461" lon="17.0228782"><ele>81.75</ele><time>2026-03-29T09:19:12.9Z</time></trkpt><trkpt lat="39.4003435" lon="17.0228155"><ele>80.5</ele><time>2026-03-29T09:19:13.903Z</time></trkpt><trkpt lat="39.4002422" lon="17.0227507"><ele>79.25</ele><time>2026-03-29T09:19:14.899Z</time></trkpt><trkpt lat="39.4001416" lon="17.0226823"><ele>78.0</ele><time>2026-03-29T09:19:15.895Z</time></trkpt><trkpt lat="39.4000403" lon="17.0226128"><ele>78.0</ele><time>2026-03-29T09:19:16.901Z</time></trkpt><trkpt lat="39.3999407" lon="17.0225392"><ele>78.0</ele><time>2026-03-29T09:19:17.92Z</time></trkpt><trkpt lat="39.399844" lon="17.0224599"><ele>78.0</ele><time>2026-03-29T09:19:18.913Z</time></trkpt><trkpt lat="39.3997454" lon="17.022376"><ele>78.0</ele><time>2026-03-29T09:19:19.919Z</time></trkpt><trkpt lat="39.3996454" lon="17.0222914"><ele>78.5</ele><time>2026-03-29T09:19:20.913Z</time></trkpt><trkpt lat="39.3995437" lon="17.022203"><ele>79.0</ele><time>2026-03-29T09:19:21.92Z</time></trkpt><trkpt lat="39.3994402" lon="17.0221093"><ele>79.5</ele><time>2026-03-29T09:19:22.92Z</time></trkpt><trkpt lat="39.3993512" lon="17.0220081"><ele>80.0</ele><time>2026-03-29T09:19:23.915Z</time></trkpt><trkpt lat="39.3992894" lon="17.0218934"><ele>80.0</ele><time>2026-03-29T09:19:24.925Z</time></trkpt><trkpt lat="39.3992456" lon="17.0217629"><ele>80.0</ele><time>2026-03-29T09:19:25.915Z</time></trkpt><trkpt lat="39.3992077" lon="17.0216087"><ele>80.0</ele><time>2026-03-29T09:19:26.923Z</time></trkpt><trkpt lat="39.3991668" lon="17.0214314"><ele>80.0</ele><time>2026-03-29T09:19:27.923Z</time></trkpt><trkpt lat="39.3991245" lon="17.0212481"><ele>80.5</ele><time>2026-03-29T09:19:28.917Z</time></trkpt><trkpt lat="39.399082" lon="17.02107"><ele>81.0</ele><time>2026-03-29T09:19:29.912Z</time></trkpt><trkpt lat="39.3990412" lon="17.0209025"><ele>81.5</ele><time>2026-03-29T09:19:30.917Z</time></trkpt><trkpt lat="39.399008" lon="17.0207427"><ele>82.0</ele><time>2026-03-29T09:19:31.93Z</time></trkpt><trkpt lat="39.3989822" lon="17.0205887"><ele>82.5</ele><time>2026-03-29T09:19:32.927Z</time></trkpt><trkpt lat="39.3989615" lon="17.0204372"><ele>83.0</ele><time>2026-03-29T09:19:33.924Z</time></trkpt><trkpt lat="39.3989423" lon="17.0202897"><ele>83.5</ele><time>2026-03-29T09:19:34.92Z</time></trkpt><trkpt lat="39.3989225" lon="17.0201448"><ele>84.0</ele><time>2026-03-29T09:19:35.918Z</time></trkpt><trkpt lat="39.3988985" lon="17.0200013"><ele>83.5</ele><time>2026-03-29T09:19:36.906Z</time></trkpt><trkpt lat="39.3988723" lon="17.0198569"><ele>83.0</ele><time>2026-03-29T09:19:37.906Z</time></trkpt><trkpt lat="39.3988419" lon="17.0197149"><ele>82.5</ele><time>2026-03-29T09:19:38.908Z</time></trkpt><trkpt lat="39.3987983" lon="17.0195781"><ele>82.0</ele><time>2026-03-29T09:19:39.917Z</time></trkpt><trkpt lat="39.3987374" lon="17.0194521"><ele>82.0</ele><time>2026-03-29T09:19:40.902Z</time></trkpt><trkpt lat="39.3986633" lon="17.0193307"><ele>82.0</ele><time>2026-03-29T09:19:41.912Z</time></trkpt><trkpt lat="39.3985851" lon="17.0192149"><ele>82.0</ele><time>2026-03-29T09:19:42.913Z</time></trkpt><trkpt lat="39.3985108" lon="17.01911"><ele>82.0</ele><time>2026-03-29T09:19:43.918Z</time></trkpt><trkpt lat="39.3984457" lon="17.0190236"><ele>82.0</ele><time>2026-03-29T09:19:44.908Z</time></trkpt><trkpt lat="39.3983853" lon="17.0189483"><ele>83.19999999999999</ele><time>2026-03-29T09:19:45.924Z</time></trkpt><trkpt lat="39.3983279" lon="17.0188768"><ele>84.4</ele><time>2026-03-29T09:19:46.915Z</time></trkpt><trkpt lat="39.3982662" lon="17.0188004"><ele>85.6</ele><time>2026-03-29T09:19:47.922Z</time></trkpt><trkpt lat="39.3981986" lon="17.0187184"><ele>86.80000000000001</ele><time>2026-03-29T09:19:48.909Z</time></trkpt><trkpt lat="39.3981249" lon="17.0186291"><ele>88.0</ele><time>2026-03-29T09:19:49.922Z</time></trkpt><trkpt lat="39.3980485" lon="17.0185411"><ele>88.0</ele><time>2026-03-29T09:19:50.933Z</time></trkpt><trkpt lat="39.3979694" lon="17.0184566"><ele>88.0</ele><time>2026-03-29T09:19:51.923Z</time></trkpt><trkpt lat="39.3978875" lon="17.0183753"><ele>88.0</ele><time>2026-03-29T09:19:52.926Z</time></trkpt><trkpt lat="39.397803" lon="17.0182975"><ele>88.0</ele><time>2026-03-29T09:19:53.928Z</time></trkpt><trkpt lat="39.3977173" lon="17.018219"><ele>88.0</ele><time>2026-03-29T09:19:54.948Z</time></trkpt><trkpt lat="39.3976345" lon="17.018142"><ele>90.0</ele><time>2026-03-29T09:19:55.923Z</time></trkpt><trkpt lat="39.3975518" lon="17.0180672"><ele>92.0</ele><time>2026-03-29T09:19:56.922Z</time></trkpt><trkpt lat="39.3974708" lon="17.0179946"><ele>94.0</ele><time>2026-03-29T09:19:57.924Z</time></trkpt><trkpt lat="39.3973901" lon="17.0179228"><ele>96.0</ele><time>2026-03-29T09:19:58.917Z</time></trkpt><trkpt lat="39.3973089" lon="17.0178484"><ele>98.0</ele><time>2026-03-29T09:19:59.919Z</time></trkpt><trkpt lat="39.3972257" lon="17.0177722"><ele>98.2</ele><time>2026-03-29T09:20:00.919Z</time></trkpt><trkpt lat="39.3971404" lon="17.0176941"><ele>98.4</ele><time>2026-03-29T09:20:01.919Z</time></trkpt><trkpt lat="39.3970536" lon="17.0176128"><ele>98.60000000000001</ele><time>2026-03-29T09:20:02.94Z</time></trkpt><trkpt lat="39.3969666" lon="17.0175298"><ele>98.80000000000001</ele><time>2026-03-29T09:20:03.913Z</time></trkpt><trkpt lat="39.3968726" lon="17.0174519"><ele>99.0</ele><time>2026-03-29T09:20:04.931Z</time></trkpt><trkpt lat="39.3967729" lon="17.0173906"><ele>100.2</ele><time>2026-03-29T09:20:05.922Z</time></trkpt><trkpt lat="39.3966655" lon="17.0173437"><ele>101.4</ele><time>2026-03-29T09:20:06.927Z</time></trkpt><trkpt lat="39.396559" lon="17.0173022"><ele>102.6</ele><time>2026-03-29T09:20:07.915Z</time></trkpt><trkpt lat="39.3964634" lon="17.017262"><ele>103.8</ele><time>2026-03-29T09:20:08.917Z</time></trkpt><trkpt lat="39.3963812" lon="17.0172256"><ele>105.0</ele><time>2026-03-29T09:20:09.924Z</time></trkpt><trkpt lat="39.3963098" lon="17.0171931"><ele>105.0</ele><time>2026-03-29T09:20:10.917Z</time></trkpt><trkpt lat="39.3962455" lon="17.0171624"><ele>105.0</ele><time>2026-03-29T09:20:11.915Z</time></trkpt><trkpt lat="39.3961392" lon="17.0171131"><ele>105.0</ele><time>2026-03-29T09:20:13.918Z</time></trkpt><trkpt lat="39.3960698" lon="17.0170808"><ele>105.0</ele><time>2026-03-29T09:20:15.92Z</time></trkpt><trkpt lat="39.3959831" lon="17.0170462"><ele>105.0</ele><time>2026-03-29T09:20:18.918Z</time></trkpt><trkpt lat="39.395913" lon="17.0170204"><ele>105.0</ele><time>2026-03-29T09:20:20.915Z</time></trkpt><trkpt lat="39.3958137" lon="17.01699"><ele>105.0</ele><time>2026-03-29T09:20:22.925Z</time></trkpt><trkpt lat="39.3956986" lon="17.0169529"><ele>105.0</ele><time>2026-03-29T09:20:24.912Z</time></trkpt><trkpt lat="39.3956328" lon="17.0169327"><ele>105.0</ele><time>2026-03-29T09:20:25.924Z</time></trkpt><trkpt lat="39.3955624" lon="17.0169146"><ele>105.0</ele><time>2026-03-29T09:20:26.914Z</time></trkpt><trkpt lat="39.3954883" lon="17.0168943"><ele>105.0</ele><time>2026-03-29T09:20:27.919Z</time></trkpt><trkpt lat="39.3954129" lon="17.0168714"><ele>105.0</ele><time>2026-03-29T09:20:28.917Z</time></trkpt><trkpt lat="39.3953346" lon="17.0168492"><ele>104.16666666666667</ele><time>2026-03-29T09:20:29.93Z</time></trkpt><trkpt lat="39.3952537" lon="17.0168266"><ele>103.33333333333334</ele><time>2026-03-29T09:20:30.921Z</time></trkpt><trkpt lat="39.3951694" lon="17.0168033"><ele>102.5</ele><time>2026-03-29T09:20:31.923Z</time></trkpt><trkpt lat="39.3950839" lon="17.0167777"><ele>101.66666666666667</ele><time>2026-03-29T09:20:32.922Z</time></trkpt><trkpt lat="39.3949966" lon="17.0167513"><ele>100.83333333333334</ele><time>2026-03-29T09:20:33.926Z</time></trkpt><trkpt lat="39.3949076" lon="17.0167263"><ele>100.0</ele><time>2026-03-29T09:20:34.93Z</time></trkpt><trkpt lat="39.3948191" lon="17.0167013"><ele>100.0</ele><time>2026-03-29T09:20:35.92Z</time></trkpt><trkpt lat="39.3947304" lon="17.0166746"><ele>100.0</ele><time>2026-03-29T09:20:36.92Z</time></trkpt><trkpt lat="39.3946427" lon="17.0166457"><ele>100.0</ele><time>2026-03-29T09:20:37.924Z</time></trkpt><trkpt lat="39.3945561" lon="17.0166132"><ele>100.0</ele><time>2026-03-29T09:20:38.916Z</time></trkpt><trkpt lat="39.3944707" lon="17.01657"><ele>100.0</ele><time>2026-03-29T09:20:39.919Z</time></trkpt><trkpt lat="39.3943917" lon="17.0165063"><ele>99.8</ele><time>2026-03-29T09:20:40.918Z</time></trkpt><trkpt lat="39.3943217" lon="17.0164286"><ele>99.6</ele><time>2026-03-29T09:20:41.921Z</time></trkpt><trkpt lat="39.3942769" lon="17.0163261"><ele>99.4</ele><time>2026-03-29T09:20:42.919Z</time></trkpt><trkpt lat="39.3942416" lon="17.0162022"><ele>99.2</ele><time>2026-03-29T09:20:43.916Z</time></trkpt><trkpt lat="39.394202" lon="17.0160683"><ele>99.0</ele><time>2026-03-29T09:20:44.92Z</time></trkpt><trkpt lat="39.3941586" lon="17.0159357"><ele>100.0</ele><time>2026-03-29T09:20:45.919Z</time></trkpt><trkpt lat="39.3941154" lon="17.0158014"><ele>101.0</ele><time>2026-03-29T09:20:46.929Z</time></trkpt><trkpt lat="39.3940744" lon="17.0156669"><ele>102.0</ele><time>2026-03-29T09:20:47.941Z</time></trkpt><trkpt lat="39.3940348" lon="17.0155338"><ele>103.0</ele><time>2026-03-29T09:20:48.915Z</time></trkpt><trkpt lat="39.3939934" lon="17.0154015"><ele>104.0</ele><time>2026-03-29T09:20:49.921Z</time></trkpt><trkpt lat="39.3939499" lon="17.0152723"><ele>104.0</ele><time>2026-03-29T09:20:50.922Z</time></trkpt><trkpt lat="39.3939084" lon="17.0151424"><ele>104.0</ele><time>2026-03-29T09:20:51.922Z</time></trkpt><trkpt lat="39.3938689" lon="17.0150152"><ele>104.0</ele><time>2026-03-29T09:20:52.916Z</time></trkpt><trkpt lat="39.3938299" lon="17.0148922"><ele>104.0</ele><time>2026-03-29T09:20:53.919Z</time></trkpt><trkpt lat="39.3937793" lon="17.0147803"><ele>104.0</ele><time>2026-03-29T09:20:54.922Z</time></trkpt><trkpt lat="39.3937261" lon="17.014671"><ele>104.2</ele><time>2026-03-29T09:20:55.926Z</time></trkpt><trkpt lat="39.3936735" lon="17.0145644"><ele>104.4</ele><time>2026-03-29T09:20:56.923Z</time></trkpt><trkpt lat="39.3936254" lon="17.0144584"><ele>104.6</ele><time>2026-03-29T09:20:57.92Z</time></trkpt><trkpt lat="39.3935842" lon="17.0143486"><ele>104.8</ele><time>2026-03-29T09:20:58.914Z</time></trkpt><trkpt lat="39.3935433" lon="17.0142404"><ele>105.0</ele><time>2026-03-29T09:20:59.915Z</time></trkpt><trkpt lat="39.3934968" lon="17.0141366"><ele>105.0</ele><time>2026-03-29T09:21:00.918Z</time></trkpt><trkpt lat="39.3934499" lon="17.0140358"><ele>105.0</ele><time>2026-03-29T09:21:01.938Z</time></trkpt><trkpt lat="39.3934001" lon="17.0139484"><ele>105.0</ele><time>2026-03-29T09:21:02.923Z</time></trkpt><trkpt lat="39.3933346" lon="17.0138747"><ele>105.0</ele><time>2026-03-29T09:21:03.912Z</time></trkpt><trkpt lat="39.3932615" lon="17.0138025"><ele>105.0</ele><time>2026-03-29T09:21:04.921Z</time></trkpt><trkpt lat="39.3931905" lon="17.013724"><ele>105.0</ele><time>2026-03-29T09:21:05.926Z</time></trkpt><trkpt lat="39.3931258" lon="17.0136364"><ele>105.0</ele><time>2026-03-29T09:21:06.923Z</time></trkpt><trkpt lat="39.3930643" lon="17.0135419"><ele>105.0</ele><time>2026-03-29T09:21:07.919Z</time></trkpt><trkpt lat="39.3930027" lon="17.0134464"><ele>105.0</ele><time>2026-03-29T09:21:08.924Z</time></trkpt><trkpt lat="39.3929412" lon="17.0133508"><ele>105.0</ele><time>2026-03-29T09:21:09.914Z</time></trkpt><trkpt lat="39.3928774" lon="17.0132522"><ele>105.0</ele><time>2026-03-29T09:21:10.924Z</time></trkpt><trkpt lat="39.3928158" lon="17.0131493"><ele>104.6</ele><time>2026-03-29T09:21:11.927Z</time></trkpt><trkpt lat="39.3927565" lon="17.0130464"><ele>104.2</ele><time>2026-03-29T09:21:12.914Z</time></trkpt><trkpt lat="39.392693" lon="17.0129461"><ele>103.80000000000001</ele><time>2026-03-29T09:21:13.925Z</time></trkpt><trkpt lat="39.392634" lon="17.0128412"><ele>103.4</ele><time>2026-03-29T09:21:14.942Z</time></trkpt><trkpt lat="39.3925793" lon="17.0127326"><ele>103.0</ele><time>2026-03-29T09:21:15.942Z</time></trkpt><trkpt lat="39.3925227" lon="17.0126336"><ele>103.00000000000001</ele><time>2026-03-29T09:21:16.93Z</time></trkpt><trkpt lat="39.3924632" lon="17.012561"><ele>103.0</ele><time>2026-03-29T09:21:17.921Z</time></trkpt><trkpt lat="39.392407" lon="17.0125194"><ele>103.0</ele><time>2026-03-29T09:21:18.926Z</time></trkpt><trkpt lat="39.3923431" lon="17.0124639"><ele>103.0</ele><time>2026-03-29T09:21:20.936Z</time></trkpt><trkpt lat="39.3923527" lon="17.0123505"><ele>103.00000000000001</ele><time>2026-03-29T09:21:40.901Z</time></trkpt><trkpt lat="39.39241" lon="17.0122436"><ele>103.0</ele><time>2026-03-29T09:21:42.916Z</time></trkpt><trkpt lat="39.392497" lon="17.0121443"><ele>104.00000000000001</ele><time>2026-03-29T09:21:44.906Z</time></trkpt><trkpt lat="39.3925973" lon="17.0120545"><ele>105.0</ele><time>2026-03-29T09:21:46.897Z</time></trkpt><trkpt lat="39.3927044" lon="17.0119843"><ele>106.0</ele><time>2026-03-29T09:21:48.906Z</time></trkpt><trkpt lat="39.3927597" lon="17.011939"><ele>107.0</ele><time>2026-03-29T09:21:49.907Z</time></trkpt><trkpt lat="39.3928179" lon="17.0118882"><ele>108.00000000000001</ele><time>2026-03-29T09:21:50.911Z</time></trkpt><trkpt lat="39.3928745" lon="17.0118329"><ele>109.0</ele><time>2026-03-29T09:21:51.903Z</time></trkpt><trkpt lat="39.3929294" lon="17.0117652"><ele>109.00000000000001</ele><time>2026-03-29T09:21:52.906Z</time></trkpt><trkpt lat="39.3929825" lon="17.0116902"><ele>109.0</ele><time>2026-03-29T09:21:53.904Z</time></trkpt><trkpt lat="39.3930341" lon="17.0116112"><ele>109.0</ele><time>2026-03-29T09:21:54.903Z</time></trkpt><trkpt lat="39.3930822" lon="17.0115274"><ele>109.0</ele><time>2026-03-29T09:21:55.898Z</time></trkpt><trkpt lat="39.3931245" lon="17.0114387"><ele>109.00000000000001</ele><time>2026-03-29T09:21:56.911Z</time></trkpt><trkpt lat="39.3931636" lon="17.0113494"><ele>109.0</ele><time>2026-03-29T09:21:57.903Z</time></trkpt><trkpt lat="39.3932019" lon="17.0112598"><ele>110.28571428571429</ele><time>2026-03-29T09:21:58.917Z</time></trkpt><trkpt lat="39.393242" lon="17.0111737"><ele>111.57142857142858</ele><time>2026-03-29T09:21:59.907Z</time></trkpt><trkpt lat="39.3932823" lon="17.0110921"><ele>112.85714285714286</ele><time>2026-03-29T09:22:00.896Z</time></trkpt><trkpt lat="39.3933086" lon="17.0110065"><ele>114.14285714285714</ele><time>2026-03-29T09:22:01.898Z</time></trkpt><trkpt lat="39.3933279" lon="17.0109216"><ele>115.42857142857143</ele><time>2026-03-29T09:22:02.898Z</time></trkpt><trkpt lat="39.3933409" lon="17.0108368"><ele>116.71428571428571</ele><time>2026-03-29T09:22:03.915Z</time></trkpt><trkpt lat="39.3933696" lon="17.010759"><ele>118.0</ele><time>2026-03-29T09:22:04.92Z</time></trkpt><trkpt lat="39.3934095" lon="17.0106835"><ele>119.33333333333334</ele><time>2026-03-29T09:22:05.911Z</time></trkpt><trkpt lat="39.3934562" lon="17.010611"><ele>120.66666666666667</ele><time>2026-03-29T09:22:06.918Z</time></trkpt><trkpt lat="39.3935085" lon="17.0105375"><ele>122.0</ele><time>2026-03-29T09:22:07.914Z</time></trkpt><trkpt lat="39.3935575" lon="17.0104632"><ele>123.33333333333334</ele><time>2026-03-29T09:22:08.907Z</time></trkpt><trkpt lat="39.3936007" lon="17.0103912"><ele>124.66666666666667</ele><time>2026-03-29T09:22:09.9Z</time></trkpt><trkpt lat="39.3936354" lon="17.01032"><ele>126.0</ele><time>2026-03-29T09:22:10.909Z</time></trkpt><trkpt lat="39.3936968" lon="17.0101797"><ele>126.0</ele><time>2026-03-29T09:22:12.905Z</time></trkpt><trkpt lat="39.3937609" lon="17.0100493"><ele>126.0</ele><time>2026-03-29T09:22:14.902Z</time></trkpt><trkpt lat="39.3938059" lon="17.0099398"><ele>126.0</ele><time>2026-03-29T09:22:16.894Z</time></trkpt><trkpt lat="39.3938263" lon="17.0098558"><ele>126.0</ele><time>2026-03-29T09:22:18.925Z</time></trkpt><trkpt lat="39.3938402" lon="17.0097736"><ele>126.0</ele><time>2026-03-29T09:22:20.915Z</time></trkpt><trkpt lat="39.3938557" lon="17.0096726"><ele>126.0</ele><time>2026-03-29T09:22:22.907Z</time></trkpt><trkpt lat="39.3938639" lon="17.0095715"><ele>126.4</ele><time>2026-03-29T09:22:24.922Z</time></trkpt><trkpt lat="39.3938764" lon="17.0094533"><ele>126.8</ele><time>2026-03-29T09:22:26.913Z</time></trkpt><trkpt lat="39.3939073" lon="17.0093304"><ele>127.20000000000002</ele><time>2026-03-29T09:22:28.917Z</time></trkpt><trkpt lat="39.3939308" lon="17.0092023"><ele>127.60000000000001</ele><time>2026-03-29T09:22:30.913Z</time></trkpt><trkpt lat="39.3939365" lon="17.009053"><ele>128.0</ele><time>2026-03-29T09:22:32.916Z</time></trkpt><trkpt lat="39.3939412" lon="17.0089661"><ele>127.99999999999999</ele><time>2026-03-29T09:22:33.928Z</time></trkpt><trkpt lat="39.3939509" lon="17.0088753"><ele>128.0</ele><time>2026-03-29T09:22:34.91Z</time></trkpt><trkpt lat="39.3939641" lon="17.0087824"><ele>128.0</ele><time>2026-03-29T09:22:35.92Z</time></trkpt><trkpt lat="39.393977" lon="17.0086999"><ele>128.0</ele><time>2026-03-29T09:22:36.917Z</time></trkpt><trkpt lat="39.3940004" lon="17.0085599"><ele>127.99999999999999</ele><time>2026-03-29T09:22:38.923Z</time></trkpt><trkpt lat="39.3940523" lon="17.0084065"><ele>128.0</ele><time>2026-03-29T09:22:40.93Z</time></trkpt><trkpt lat="39.3940861" lon="17.0083313"><ele>128.14285714285714</ele><time>2026-03-29T09:22:41.914Z</time></trkpt><trkpt lat="39.3941349" lon="17.0082689"><ele>128.28571428571428</ele><time>2026-03-29T09:22:42.916Z</time></trkpt><trkpt lat="39.3941912" lon="17.0082233"><ele>128.42857142857142</ele><time>2026-03-29T09:22:43.897Z</time></trkpt><trkpt lat="39.3942422" lon="17.0081676"><ele>128.57142857142856</ele><time>2026-03-29T09:22:44.9Z</time></trkpt><trkpt lat="39.3942909" lon="17.0081056"><ele>128.71428571428572</ele><time>2026-03-29T09:22:45.909Z</time></trkpt><trkpt lat="39.3943372" lon="17.0080477"><ele>128.85714285714283</ele><time>2026-03-29T09:22:46.912Z</time></trkpt><trkpt lat="39.394388" lon="17.0079837"><ele>129.0</ele><time>2026-03-29T09:22:47.914Z</time></trkpt><trkpt lat="39.3944413" lon="17.0079358"><ele>129.0</ele><time>2026-03-29T09:22:48.91Z</time></trkpt><trkpt lat="39.3945485" lon="17.007861"><ele>129.0</ele><time>2026-03-29T09:22:50.899Z</time></trkpt><trkpt lat="39.3946502" lon="17.0077876"><ele>129.0</ele><time>2026-03-29T09:22:52.915Z</time></trkpt><trkpt lat="39.3947285" lon="17.0076897"><ele>129.0</ele><time>2026-03-29T09:22:54.914Z</time></trkpt><trkpt lat="39.3947972" lon="17.0075596"><ele>129.0</ele><time>2026-03-29T09:22:56.916Z</time></trkpt><trkpt lat="39.3948356" lon="17.0074429"><ele>129.0</ele><time>2026-03-29T09:22:58.936Z</time></trkpt><trkpt lat="39.3948183" lon="17.0073092"><ele>129.0</ele><time>2026-03-29T09:23:00.915Z</time></trkpt><trkpt lat="39.3948066" lon="17.0071665"><ele>129.0</ele><time>2026-03-29T09:23:02.938Z</time></trkpt><trkpt lat="39.3947985" lon="17.0070338"><ele>129.0</ele><time>2026-03-29T09:23:04.922Z</time></trkpt><trkpt lat="39.3947508" lon="17.0068965"><ele>128.99999999999997</ele><time>2026-03-29T09:23:06.927Z</time></trkpt><trkpt lat="39.394699" lon="17.0068275"><ele>129.0</ele><time>2026-03-29T09:23:07.922Z</time></trkpt><trkpt lat="39.3946457" lon="17.0067497"><ele>129.0</ele><time>2026-03-29T09:23:08.915Z</time></trkpt><trkpt lat="39.3946122" lon="17.0066603"><ele>129.0</ele><time>2026-03-29T09:23:09.902Z</time></trkpt><trkpt lat="39.3945941" lon="17.0065723"><ele>129.0</ele><time>2026-03-29T09:23:10.921Z</time></trkpt><trkpt lat="39.3945954" lon="17.006483"><ele>128.99999999999997</ele><time>2026-03-29T09:23:11.925Z</time></trkpt><trkpt lat="39.3946033" lon="17.0063852"><ele>129.0</ele><time>2026-03-29T09:23:12.914Z</time></trkpt><trkpt lat="39.3946136" lon="17.0062795"><ele>129.33333333333334</ele><time>2026-03-29T09:23:13.918Z</time></trkpt><trkpt lat="39.3946284" lon="17.0061731"><ele>129.66666666666666</ele><time>2026-03-29T09:23:14.921Z</time></trkpt><trkpt lat="39.39466" lon="17.0060758"><ele>130.0</ele><time>2026-03-29T09:23:15.923Z</time></trkpt><trkpt lat="39.3947096" lon="17.0059864"><ele>130.33333333333331</ele><time>2026-03-29T09:23:16.918Z</time></trkpt><trkpt lat="39.3947721" lon="17.0059102"><ele>130.66666666666666</ele><time>2026-03-29T09:23:17.918Z</time></trkpt><trkpt lat="39.3948369" lon="17.0058442"><ele>131.0</ele><time>2026-03-29T09:23:18.915Z</time></trkpt><trkpt lat="39.3949147" lon="17.0058097"><ele>131.0</ele><time>2026-03-29T09:23:19.912Z</time></trkpt><trkpt lat="39.3949963" lon="17.0057879"><ele>131.0</ele><time>2026-03-29T09:23:20.92Z</time></trkpt><trkpt lat="39.3950721" lon="17.005774"><ele>131.0</ele><time>2026-03-29T09:23:21.904Z</time></trkpt><trkpt lat="39.3951402" lon="17.0057651"><ele>131.0</ele><time>2026-03-29T09:23:22.926Z</time></trkpt><trkpt lat="39.3952424" lon="17.0057374"><ele>131.0</ele><time>2026-03-29T09:23:24.913Z</time></trkpt><trkpt lat="39.3953157" lon="17.0056679"><ele>131.0</ele><time>2026-03-29T09:23:26.909Z</time></trkpt><trkpt lat="39.395367" lon="17.0055875"><ele>131.0</ele><time>2026-03-29T09:23:29.899Z</time></trkpt><trkpt lat="39.3953901" lon="17.0054896"><ele>131.0</ele><time>2026-03-29T09:23:32.931Z</time></trkpt><trkpt lat="39.3954166" lon="17.0054153"><ele>131.0</ele><time>2026-03-29T09:23:34.913Z</time></trkpt><trkpt lat="39.3954096" lon="17.005324"><ele>131.0</ele><time>2026-03-29T09:23:37.922Z</time></trkpt><trkpt lat="39.3953676" lon="17.005245"><ele>131.0</ele><time>2026-03-29T09:23:39.908Z</time></trkpt><trkpt lat="39.3953108" lon="17.0051691"><ele>131.0</ele><time>2026-03-29T09:23:41.932Z</time></trkpt><trkpt lat="39.3952582" lon="17.0050924"><ele>131.0</ele><time>2026-03-29T09:23:43.932Z</time></trkpt><trkpt lat="39.3952109" lon="17.0050186"><ele>131.42857142857144</ele><time>2026-03-29T09:23:45.913Z</time></trkpt><trkpt lat="39.3951643" lon="17.0049497"><ele>131.85714285714286</ele><time>2026-03-29T09:23:47.916Z</time></trkpt><trkpt lat="39.3951204" lon="17.0048614"><ele>132.28571428571428</ele><time>2026-03-29T09:23:50.914Z</time></trkpt><trkpt lat="39.3950874" lon="17.004781"><ele>132.71428571428572</ele><time>2026-03-29T09:23:54.914Z</time></trkpt><trkpt lat="39.3950641" lon="17.0046991"><ele>133.14285714285714</ele><time>2026-03-29T09:24:04.937Z</time></trkpt><trkpt lat="39.3950767" lon="17.0045936"><ele>133.57142857142858</ele><time>2026-03-29T09:24:07.925Z</time></trkpt><trkpt lat="39.3951151" lon="17.0045242"><ele>134.0</ele><time>2026-03-29T09:24:09.907Z</time></trkpt><trkpt lat="39.3951587" lon="17.0044497"><ele>134.0</ele><time>2026-03-29T09:24:11.915Z</time></trkpt><trkpt lat="39.3951899" lon="17.0043707"><ele>134.0</ele><time>2026-03-29T09:24:13.924Z</time></trkpt><trkpt lat="39.3952431" lon="17.0042803"><ele>134.0</ele><time>2026-03-29T09:24:16.931Z</time></trkpt><trkpt lat="39.3952781" lon="17.0041997"><ele>134.0</ele><time>2026-03-29T09:24:21.922Z</time></trkpt><trkpt lat="39.395313" lon="17.0041179"><ele>134.0</ele><time>2026-03-29T09:24:24.913Z</time></trkpt><trkpt lat="39.3953328" lon="17.0040115"><ele>134.0</ele><time>2026-03-29T09:24:26.922Z</time></trkpt><trkpt lat="39.3953405" lon="17.0038995"><ele>134.83333333333331</ele><time>2026-03-29T09:24:28.93Z</time></trkpt><trkpt lat="39.3953333" lon="17.003791"><ele>135.66666666666666</ele><time>2026-03-29T09:24:30.912Z</time></trkpt><trkpt lat="39.3953257" lon="17.0036924"><ele>136.5</ele><time>2026-03-29T09:24:32.914Z</time></trkpt><trkpt lat="39.3953163" lon="17.0035996"><ele>137.33333333333334</ele><time>2026-03-29T09:24:34.926Z</time></trkpt><trkpt lat="39.3953275" lon="17.0035019"><ele>138.16666666666669</ele><time>2026-03-29T09:24:36.92Z</time></trkpt><trkpt lat="39.3953562" lon="17.0034032"><ele>139.0</ele><time>2026-03-29T09:24:38.909Z</time></trkpt><trkpt lat="39.3954041" lon="17.0032925"><ele>139.0</ele><time>2026-03-29T09:24:40.922Z</time></trkpt><trkpt lat="39.3954908" lon="17.0031966"><ele>139.0</ele><time>2026-03-29T09:24:42.917Z</time></trkpt><trkpt lat="39.3955993" lon="17.0031205"><ele>139.0</ele><time>2026-03-29T09:24:44.92Z</time></trkpt><trkpt lat="39.3956504" lon="17.003072"><ele>139.0</ele><time>2026-03-29T09:24:45.921Z</time></trkpt><trkpt lat="39.3957232" lon="17.0029567"><ele>139.0</ele><time>2026-03-29T09:24:47.929Z</time></trkpt><trkpt lat="39.395774" lon="17.0028412"><ele>139.0</ele><time>2026-03-29T09:24:49.925Z</time></trkpt><trkpt lat="39.3958436" lon="17.0027246"><ele>139.0</ele><time>2026-03-29T09:24:51.914Z</time></trkpt><trkpt lat="39.3958863" lon="17.0026567"><ele>139.0</ele><time>2026-03-29T09:24:52.915Z</time></trkpt><trkpt lat="39.3959292" lon="17.0025885"><ele>139.0</ele><time>2026-03-29T09:24:53.93Z</time></trkpt><trkpt lat="39.3959678" lon="17.0025169"><ele>139.0</ele><time>2026-03-29T09:24:54.914Z</time></trkpt><trkpt lat="39.3960017" lon="17.0024439"><ele>139.0</ele><time>2026-03-29T09:24:55.912Z</time></trkpt><trkpt lat="39.3960453" lon="17.0023124"><ele>139.5</ele><time>2026-03-29T09:24:57.919Z</time></trkpt><trkpt lat="39.3960635" lon="17.0022017"><ele>140.0</ele><time>2026-03-29T09:24:59.919Z</time></trkpt><trkpt lat="39.3960688" lon="17.0020792"><ele>140.5</ele><time>2026-03-29T09:25:01.926Z</time></trkpt><trkpt lat="39.3961026" lon="17.0019869"><ele>141.0</ele><time>2026-03-29T09:25:06.911Z</time></trkpt><trkpt lat="39.3961499" lon="17.0019192"><ele>141.5</ele><time>2026-03-29T09:25:08.916Z</time></trkpt><trkpt lat="39.3961991" lon="17.0017986"><ele>142.0</ele><time>2026-03-29T09:25:10.925Z</time></trkpt><trkpt lat="39.3962488" lon="17.0016555"><ele>143.0</ele><time>2026-03-29T09:25:12.931Z</time></trkpt><trkpt lat="39.3962985" lon="17.0015161"><ele>144.0</ele><time>2026-03-29T09:25:14.919Z</time></trkpt><trkpt lat="39.396326" lon="17.0014039"><ele>145.0</ele><time>2026-03-29T09:25:16.925Z</time></trkpt><trkpt lat="39.3963595" lon="17.0013043"><ele>146.0</ele><time>2026-03-29T09:25:18.918Z</time></trkpt><trkpt lat="39.3963779" lon="17.0011942"><ele>147.0</ele><time>2026-03-29T09:25:21.92Z</time></trkpt><trkpt lat="39.3964007" lon="17.0010812"><ele>146.42857142857142</ele><time>2026-03-29T09:25:24.915Z</time></trkpt><trkpt lat="39.3964207" lon="17.0010024"><ele>145.85714285714286</ele><time>2026-03-29T09:25:26.921Z</time></trkpt><trkpt lat="39.3964458" lon="17.0009021"><ele>145.28571428571428</ele><time>2026-03-29T09:25:29.918Z</time></trkpt><trkpt lat="39.3964741" lon="17.0008012"><ele>144.71428571428572</ele><time>2026-03-29T09:25:32.917Z</time></trkpt><trkpt lat="39.3964896" lon="17.0007213"><ele>144.14285714285714</ele><time>2026-03-29T09:25:34.909Z</time></trkpt><trkpt lat="39.3965161" lon="17.0006465"><ele>143.57142857142856</ele><time>2026-03-29T09:25:36.914Z</time></trkpt><trkpt lat="39.3965713" lon="17.000549"><ele>143.0</ele><time>2026-03-29T09:25:39.917Z</time></trkpt><trkpt lat="39.3966157" lon="17.0004579"><ele>143.0</ele><time>2026-03-29T09:25:41.918Z</time></trkpt><trkpt lat="39.3966628" lon="17.0003522"><ele>143.0</ele><time>2026-03-29T09:25:43.941Z</time></trkpt><trkpt lat="39.3966847" lon="17.0002334"><ele>143.0</ele><time>2026-03-29T09:25:45.933Z</time></trkpt><trkpt lat="39.3966778" lon="17.0001295"><ele>143.0</ele><time>2026-03-29T09:25:47.918Z</time></trkpt><trkpt lat="39.3966442" lon="17.0000418"><ele>143.0</ele><time>2026-03-29T09:25:49.898Z</time></trkpt><trkpt lat="39.3966045" lon="16.9999707"><ele>143.0</ele><time>2026-03-29T09:25:51.903Z</time></trkpt><trkpt lat="39.3965401" lon="16.9999387"><ele>142.99999999999997</ele><time>2026-03-29T09:25:53.895Z</time></trkpt><trkpt lat="39.3964652" lon="16.9999549"><ele>143.0</ele><time>2026-03-29T09:25:55.905Z</time></trkpt><trkpt lat="39.3963889" lon="16.999963"><ele>143.0</ele><time>2026-03-29T09:25:57.899Z</time></trkpt><trkpt lat="39.3963227" lon="16.9999705"><ele>143.0</ele><time>2026-03-29T09:25:59.915Z</time></trkpt><trkpt lat="39.3962635" lon="17.0000115"><ele>143.0</ele><time>2026-03-29T09:26:01.904Z</time></trkpt><trkpt lat="39.396198" lon="17.000046"><ele>142.99999999999997</ele><time>2026-03-29T09:26:03.899Z</time></trkpt><trkpt lat="39.3961086" lon="17.0000507"><ele>143.0</ele><time>2026-03-29T09:26:05.895Z</time></trkpt><trkpt lat="39.396004" lon="17.0000308"><ele>146.0</ele><time>2026-03-29T09:26:07.901Z</time></trkpt><trkpt lat="39.3959066" lon="16.9999915"><ele>149.0</ele><time>2026-03-29T09:26:09.904Z</time></trkpt><trkpt lat="39.3958062" lon="16.9999886"><ele>152.0</ele><time>2026-03-29T09:26:11.896Z</time></trkpt><trkpt lat="39.3957115" lon="16.9999807"><ele>155.0</ele><time>2026-03-29T09:26:13.9Z</time></trkpt><trkpt lat="39.3956141" lon="16.9999781"><ele>158.0</ele><time>2026-03-29T09:26:15.895Z</time></trkpt><trkpt lat="39.3955096" lon="16.9999709"><ele>161.0</ele><time>2026-03-29T09:26:17.903Z</time></trkpt><trkpt lat="39.3954129" lon="16.9999407"><ele>164.0</ele><time>2026-03-29T09:26:19.894Z</time></trkpt><trkpt lat="39.3953241" lon="16.9999294"><ele>167.0</ele><time>2026-03-29T09:26:21.902Z</time></trkpt><trkpt lat="39.3952376" lon="16.9999452"><ele>170.0</ele><time>2026-03-29T09:26:23.903Z</time></trkpt><trkpt lat="39.3951513" lon="16.999958"><ele>173.0</ele><time>2026-03-29T09:26:25.922Z</time></trkpt><trkpt lat="39.3950539" lon="16.9999547"><ele>173.0</ele><time>2026-03-29T09:26:27.92Z</time></trkpt><trkpt lat="39.3949572" lon="16.9999286"><ele>173.0</ele><time>2026-03-29T09:26:29.941Z</time></trkpt><trkpt lat="39.3948639" lon="16.9998814"><ele>173.0</ele><time>2026-03-29T09:26:31.92Z</time></trkpt><trkpt lat="39.3947854" lon="16.9998089"><ele>173.0</ele><time>2026-03-29T09:26:33.915Z</time></trkpt><trkpt lat="39.3946956" lon="16.9997353"><ele>173.0</ele><time>2026-03-29T09:26:35.921Z</time></trkpt><trkpt lat="39.3946374" lon="16.9996078"><ele>174.66666666666666</ele><time>2026-03-29T09:26:37.924Z</time></trkpt><trkpt lat="39.3946166" lon="16.9995284"><ele>176.33333333333331</ele><time>2026-03-29T09:26:38.928Z</time></trkpt><trkpt lat="39.3945883" lon="16.99945"><ele>178.0</ele><time>2026-03-29T09:26:39.938Z</time></trkpt><trkpt lat="39.3945516" lon="16.9993777"><ele>179.66666666666666</ele><time>2026-03-29T09:26:40.92Z</time></trkpt><trkpt lat="39.3944806" lon="16.999256"><ele>181.33333333333334</ele><time>2026-03-29T09:26:42.911Z</time></trkpt><trkpt lat="39.3943985" lon="16.9991648"><ele>183.0</ele><time>2026-03-29T09:26:44.942Z</time></trkpt><trkpt lat="39.3943107" lon="16.9990716"><ele>185.0</ele><time>2026-03-29T09:26:46.934Z</time></trkpt><trkpt lat="39.3942347" lon="16.9989681"><ele>187.0</ele><time>2026-03-29T09:26:48.931Z</time></trkpt><trkpt lat="39.394181" lon="16.9988488"><ele>189.0</ele><time>2026-03-29T09:26:50.926Z</time></trkpt><trkpt lat="39.3941339" lon="16.9987303"><ele>191.0</ele><time>2026-03-29T09:26:52.927Z</time></trkpt><trkpt lat="39.3940704" lon="16.9986322"><ele>193.0</ele><time>2026-03-29T09:26:54.92Z</time></trkpt><trkpt lat="39.3939683" lon="16.9985967"><ele>192.99999999999997</ele><time>2026-03-29T09:26:56.923Z</time></trkpt><trkpt lat="39.393868" lon="16.9985899"><ele>193.0</ele><time>2026-03-29T09:26:58.924Z</time></trkpt><trkpt lat="39.3937766" lon="16.9985861"><ele>193.0</ele><time>2026-03-29T09:27:00.921Z</time></trkpt><trkpt lat="39.3937071" lon="16.9985818"><ele>193.0</ele><time>2026-03-29T09:27:02.919Z</time></trkpt><trkpt lat="39.3936223" lon="16.9985996"><ele>192.99999999999997</ele><time>2026-03-29T09:27:50.916Z</time></trkpt><trkpt lat="39.3935634" lon="16.9986298"><ele>193.0</ele><time>2026-03-29T09:27:52.913Z</time></trkpt><trkpt lat="39.3934891" lon="16.9986707"><ele>194.49999999999997</ele><time>2026-03-29T09:27:54.943Z</time></trkpt><trkpt lat="39.3934035" lon="16.9986764"><ele>196.0</ele><time>2026-03-29T09:27:56.9Z</time></trkpt><trkpt lat="39.3933049" lon="16.9986525"><ele>197.5</ele><time>2026-03-29T09:27:58.922Z</time></trkpt><trkpt lat="39.3932214" lon="16.9986226"><ele>199.0</ele><time>2026-03-29T09:28:00.923Z</time></trkpt><trkpt lat="39.3931611" lon="16.9985877"><ele>200.49999999999997</ele><time>2026-03-29T09:28:02.918Z</time></trkpt><trkpt lat="39.3930874" lon="16.9985524"><ele>202.0</ele><time>2026-03-29T09:28:04.916Z</time></trkpt><trkpt lat="39.3930158" lon="16.9985164"><ele>203.16666666666666</ele><time>2026-03-29T09:28:06.899Z</time></trkpt><trkpt lat="39.3929204" lon="16.9985069"><ele>204.33333333333331</ele><time>2026-03-29T09:28:09.912Z</time></trkpt><trkpt lat="39.3928496" lon="16.9985252"><ele>205.5</ele><time>2026-03-29T09:28:11.917Z</time></trkpt><trkpt lat="39.3927725" lon="16.9985646"><ele>206.66666666666669</ele><time>2026-03-29T09:28:14.919Z</time></trkpt><trkpt lat="39.3927122" lon="16.9985974"><ele>207.83333333333334</ele><time>2026-03-29T09:28:16.922Z</time></trkpt><trkpt lat="39.3926349" lon="16.998627"><ele>209.0</ele><time>2026-03-29T09:28:18.916Z</time></trkpt><trkpt lat="39.3925408" lon="16.9986426"><ele>209.00000000000003</ele><time>2026-03-29T09:28:20.922Z</time></trkpt><trkpt lat="39.3924658" lon="16.9986425"><ele>209.0</ele><time>2026-03-29T09:28:22.923Z</time></trkpt><trkpt lat="39.3923804" lon="16.998619"><ele>209.0</ele><time>2026-03-29T09:28:25.914Z</time></trkpt><trkpt lat="39.3923033" lon="16.9986402"><ele>209.0</ele><time>2026-03-29T09:28:28.92Z</time></trkpt><trkpt lat="39.3922461" lon="16.9986926"><ele>209.00000000000003</ele><time>2026-03-29T09:28:30.916Z</time></trkpt><trkpt lat="39.3921811" lon="16.9986778"><ele>209.0</ele><time>2026-03-29T09:28:32.918Z</time></trkpt><trkpt lat="39.3921257" lon="16.9986043"><ele>211.00000000000003</ele><time>2026-03-29T09:28:34.923Z</time></trkpt><trkpt lat="39.3920646" lon="16.9985439"><ele>213.0</ele><time>2026-03-29T09:28:36.913Z</time></trkpt><trkpt lat="39.391991" lon="16.9984997"><ele>215.0</ele><time>2026-03-29T09:28:38.922Z</time></trkpt><trkpt lat="39.3919328" lon="16.9984619"><ele>217.0</ele><time>2026-03-29T09:28:40.92Z</time></trkpt><trkpt lat="39.3918641" lon="16.9984132"><ele>219.00000000000003</ele><time>2026-03-29T09:28:44.918Z</time></trkpt><trkpt lat="39.391809" lon="16.9983649"><ele>221.0</ele><time>2026-03-29T09:28:47.918Z</time></trkpt><trkpt lat="39.391737" lon="16.9982912"><ele>221.00000000000003</ele><time>2026-03-29T09:28:50.921Z</time></trkpt><trkpt lat="39.3916757" lon="16.9982295"><ele>221.0</ele><time>2026-03-29T09:28:52.912Z</time></trkpt><trkpt lat="39.3916157" lon="16.9981757"><ele>221.0</ele><time>2026-03-29T09:28:54.916Z</time></trkpt><trkpt lat="39.391554" lon="16.9981353"><ele>221.0</ele><time>2026-03-29T09:28:56.918Z</time></trkpt><trkpt lat="39.3914915" lon="16.9981113"><ele>221.0</ele><time>2026-03-29T09:28:58.913Z</time></trkpt><trkpt lat="39.3914172" lon="16.9980927"><ele>221.00000000000003</ele><time>2026-03-29T09:29:00.923Z</time></trkpt><trkpt lat="39.391332" lon="16.9980693"><ele>221.0</ele><time>2026-03-29T09:29:02.916Z</time></trkpt><trkpt lat="39.3912587" lon="16.9980439"><ele>222.33333333333334</ele><time>2026-03-29T09:29:04.917Z</time></trkpt><trkpt lat="39.3911944" lon="16.9980135"><ele>223.66666666666669</ele><time>2026-03-29T09:29:06.925Z</time></trkpt><trkpt lat="39.3911211" lon="16.9979657"><ele>225.0</ele><time>2026-03-29T09:29:08.915Z</time></trkpt><trkpt lat="39.3910646" lon="16.9979139"><ele>226.33333333333331</ele><time>2026-03-29T09:29:10.919Z</time></trkpt><trkpt lat="39.3910089" lon="16.9978704"><ele>227.66666666666666</ele><time>2026-03-29T09:29:13.918Z</time></trkpt><trkpt lat="39.3909058" lon="16.9978349"><ele>229.0</ele><time>2026-03-29T09:29:16.923Z</time></trkpt><trkpt lat="39.3908219" lon="16.9977943"><ele>228.99999999999997</ele><time>2026-03-29T09:29:18.923Z</time></trkpt><trkpt lat="39.3907394" lon="16.997764"><ele>229.0</ele><time>2026-03-29T09:29:20.917Z</time></trkpt><trkpt lat="39.3906508" lon="16.9977311"><ele>229.0</ele><time>2026-03-29T09:29:22.911Z</time></trkpt><trkpt lat="39.3905699" lon="16.9976915"><ele>229.0</ele><time>2026-03-29T09:29:24.921Z</time></trkpt><trkpt lat="39.3904981" lon="16.9976483"><ele>228.99999999999997</ele><time>2026-03-29T09:29:26.916Z</time></trkpt><trkpt lat="39.39044" lon="16.997606"><ele>229.0</ele><time>2026-03-29T09:29:28.915Z</time></trkpt><trkpt lat="39.3903798" lon="16.9975665"><ele>228.71428571428572</ele><time>2026-03-29T09:29:32.914Z</time></trkpt><trkpt lat="39.3903256" lon="16.9975114"><ele>228.42857142857144</ele><time>2026-03-29T09:29:34.911Z</time></trkpt><trkpt lat="39.390284" lon="16.99745"><ele>228.14285714285717</ele><time>2026-03-29T09:29:36.923Z</time></trkpt><trkpt lat="39.3902462" lon="16.9973775"><ele>227.85714285714286</ele><time>2026-03-29T09:29:39.912Z</time></trkpt><trkpt lat="39.3902073" lon="16.9972884"><ele>227.5714285714286</ele><time>2026-03-29T09:29:42.916Z</time></trkpt><trkpt lat="39.3901676" lon="16.9972003"><ele>227.2857142857143</ele><time>2026-03-29T09:29:44.917Z</time></trkpt><trkpt lat="39.3901131" lon="16.9971175"><ele>227.0</ele><time>2026-03-29T09:29:46.928Z</time></trkpt><trkpt lat="39.3900557" lon="16.9970442"><ele>227.00000000000003</ele><time>2026-03-29T09:29:48.915Z</time></trkpt><trkpt lat="39.3899941" lon="16.9969747"><ele>227.0</ele><time>2026-03-29T09:29:51.92Z</time></trkpt><trkpt lat="39.38993" lon="16.9968984"><ele>227.0</ele><time>2026-03-29T09:29:53.915Z</time></trkpt><trkpt lat="39.3898632" lon="16.9968097"><ele>227.0</ele><time>2026-03-29T09:29:55.92Z</time></trkpt><trkpt lat="39.3898092" lon="16.9967473"><ele>227.00000000000003</ele><time>2026-03-29T09:29:57.917Z</time></trkpt><trkpt lat="39.3897586" lon="16.9966899"><ele>227.0</ele><time>2026-03-29T09:29:59.93Z</time></trkpt><trkpt lat="39.3897044" lon="16.996619"><ele>228.00000000000003</ele><time>2026-03-29T09:30:01.931Z</time></trkpt><trkpt lat="39.3896377" lon="16.996541"><ele>229.0</ele><time>2026-03-29T09:30:03.927Z</time></trkpt><trkpt lat="39.3895537" lon="16.9964542"><ele>230.0</ele><time>2026-03-29T09:30:05.929Z</time></trkpt><trkpt lat="39.3894865" lon="16.9963877"><ele>231.0</ele><time>2026-03-29T09:30:07.925Z</time></trkpt><trkpt lat="39.3894368" lon="16.9963322"><ele>232.00000000000003</ele><time>2026-03-29T09:30:09.913Z</time></trkpt><trkpt lat="39.3893869" lon="16.9962769"><ele>233.0</ele><time>2026-03-29T09:30:11.914Z</time></trkpt><trkpt lat="39.3893199" lon="16.9962019"><ele>233.0</ele><time>2026-03-29T09:30:13.922Z</time></trkpt><trkpt lat="39.3892484" lon="16.9961009"><ele>233.0</ele><time>2026-03-29T09:30:15.918Z</time></trkpt><trkpt lat="39.3892056" lon="16.9959773"><ele>233.0</ele><time>2026-03-29T09:30:17.92Z</time></trkpt><trkpt lat="39.389166" lon="16.9958592"><ele>233.0</ele><time>2026-03-29T09:30:19.926Z</time></trkpt><trkpt lat="39.3891199" lon="16.9957435"><ele>233.0</ele><time>2026-03-29T09:30:21.924Z</time></trkpt><trkpt lat="39.3890641" lon="16.9956243"><ele>232.4</ele><time>2026-03-29T09:30:23.917Z</time></trkpt><trkpt lat="39.3890114" lon="16.9955044"><ele>231.8</ele><time>2026-03-29T09:30:25.926Z</time></trkpt><trkpt lat="39.3889591" lon="16.9953827"><ele>231.2</ele><time>2026-03-29T09:30:27.927Z</time></trkpt><trkpt lat="39.3889058" lon="16.9952538"><ele>230.6</ele><time>2026-03-29T09:30:29.913Z</time></trkpt><trkpt lat="39.3888493" lon="16.9951249"><ele>230.0</ele><time>2026-03-29T09:30:31.92Z</time></trkpt><trkpt lat="39.3887986" lon="16.9949846"><ele>229.1428571428571</ele><time>2026-03-29T09:30:33.936Z</time></trkpt><trkpt lat="39.3887751" lon="16.9949061"><ele>228.28571428571428</ele><time>2026-03-29T09:30:34.915Z</time></trkpt><trkpt lat="39.3887453" lon="16.9948253"><ele>227.42857142857142</ele><time>2026-03-29T09:30:35.931Z</time></trkpt><trkpt lat="39.3887116" lon="16.9947501"><ele>226.57142857142856</ele><time>2026-03-29T09:30:36.899Z</time></trkpt><trkpt lat="39.3886748" lon="16.9946768"><ele>225.71428571428572</ele><time>2026-03-29T09:30:37.905Z</time></trkpt><trkpt lat="39.3886346" lon="16.9946035"><ele>224.85714285714286</ele><time>2026-03-29T09:30:38.917Z</time></trkpt><trkpt lat="39.3885929" lon="16.9945297"><ele>224.0</ele><time>2026-03-29T09:30:39.914Z</time></trkpt><trkpt lat="39.3885585" lon="16.9944528"><ele>224.0</ele><time>2026-03-29T09:30:40.919Z</time></trkpt><trkpt lat="39.3885306" lon="16.9943103"><ele>223.99999999999997</ele><time>2026-03-29T09:30:42.921Z</time></trkpt><trkpt lat="39.3885141" lon="16.9941755"><ele>223.99999999999997</ele><time>2026-03-29T09:30:44.922Z</time></trkpt><trkpt lat="39.3884967" lon="16.9940242"><ele>224.0</ele><time>2026-03-29T09:30:46.922Z</time></trkpt><trkpt lat="39.3884799" lon="16.9939434"><ele>224.0</ele><time>2026-03-29T09:30:47.928Z</time></trkpt><trkpt lat="39.3884516" lon="16.9938647"><ele>223.66666666666669</ele><time>2026-03-29T09:30:48.919Z</time></trkpt><trkpt lat="39.3884217" lon="16.9937844"><ele>223.33333333333334</ele><time>2026-03-29T09:30:49.932Z</time></trkpt><trkpt lat="39.3883992" lon="16.993702"><ele>223.0</ele><time>2026-03-29T09:30:50.927Z</time></trkpt><trkpt lat="39.3883894" lon="16.9935627"><ele>222.66666666666669</ele><time>2026-03-29T09:30:52.939Z</time></trkpt><trkpt lat="39.3884123" lon="16.9934619"><ele>222.33333333333334</ele><time>2026-03-29T09:30:55.933Z</time></trkpt><trkpt lat="39.3884257" lon="16.993337"><ele>222.0</ele><time>2026-03-29T09:31:36.895Z</time></trkpt><trkpt lat="39.3884229" lon="16.9931743"><ele>222.0</ele><time>2026-03-29T09:31:38.925Z</time></trkpt><trkpt lat="39.388421" lon="16.9930778"><ele>222.0</ele><time>2026-03-29T09:31:39.891Z</time></trkpt><trkpt lat="39.3884192" lon="16.9929709"><ele>222.0</ele><time>2026-03-29T09:31:40.901Z</time></trkpt><trkpt lat="39.388417" lon="16.9928607"><ele>222.0</ele><time>2026-03-29T09:31:41.892Z</time></trkpt><trkpt lat="39.3884152" lon="16.9927475"><ele>222.0</ele><time>2026-03-29T09:31:42.897Z</time></trkpt><trkpt lat="39.3884165" lon="16.9926346"><ele>222.0</ele><time>2026-03-29T09:31:43.903Z</time></trkpt><trkpt lat="39.3884186" lon="16.9925263"><ele>222.6</ele><time>2026-03-29T09:31:44.892Z</time></trkpt><trkpt lat="39.3884089" lon="16.9924282"><ele>223.2</ele><time>2026-03-29T09:31:45.91Z</time></trkpt><trkpt lat="39.3883971" lon="16.9923398"><ele>223.8</ele><time>2026-03-29T09:31:46.897Z</time></trkpt><trkpt lat="39.3883774" lon="16.9921902"><ele>224.4</ele><time>2026-03-29T09:31:48.893Z</time></trkpt><trkpt lat="39.3883747" lon="16.9920463"><ele>225.0</ele><time>2026-03-29T09:31:50.893Z</time></trkpt><trkpt lat="39.3883776" lon="16.9918981"><ele>225.0</ele><time>2026-03-29T09:31:52.894Z</time></trkpt><trkpt lat="39.3883787" lon="16.9917767"><ele>225.0</ele><time>2026-03-29T09:31:54.894Z</time></trkpt><trkpt lat="39.3883791" lon="16.9916803"><ele>225.0</ele><time>2026-03-29T09:31:56.896Z</time></trkpt><trkpt lat="39.388366" lon="16.9915752"><ele>225.0</ele><time>2026-03-29T09:31:58.898Z</time></trkpt><trkpt lat="39.3883453" lon="16.991479"><ele>225.0</ele><time>2026-03-29T09:32:00.9Z</time></trkpt><trkpt lat="39.3883611" lon="16.991353"><ele>225.0</ele><time>2026-03-29T09:32:02.939Z</time></trkpt><trkpt lat="39.38839" lon="16.9912395"><ele>224.8571428571429</ele><time>2026-03-29T09:32:04.909Z</time></trkpt><trkpt lat="39.3883636" lon="16.9911544"><ele>224.71428571428572</ele><time>2026-03-29T09:32:06.896Z</time></trkpt><trkpt lat="39.3883028" lon="16.991089"><ele>224.57142857142858</ele><time>2026-03-29T09:32:09.912Z</time></trkpt><trkpt lat="39.3882763" lon="16.9910129"><ele>224.42857142857144</ele><time>2026-03-29T09:32:11.898Z</time></trkpt><trkpt lat="39.3882703" lon="16.9909047"><ele>224.28571428571428</ele><time>2026-03-29T09:32:13.898Z</time></trkpt><trkpt lat="39.3882642" lon="16.9908013"><ele>224.14285714285714</ele><time>2026-03-29T09:32:15.897Z</time></trkpt><trkpt lat="39.3882557" lon="16.990717"><ele>224.0</ele><time>2026-03-29T09:32:17.896Z</time></trkpt><trkpt lat="39.3882331" lon="16.990601"><ele>225.50000000000003</ele><time>2026-03-29T09:32:20.906Z</time></trkpt><trkpt lat="39.3882135" lon="16.9905042"><ele>227.0</ele><time>2026-03-29T09:32:22.916Z</time></trkpt><trkpt lat="39.3881881" lon="16.9904054"><ele>228.5</ele><time>2026-03-29T09:32:24.91Z</time></trkpt><trkpt lat="39.3881625" lon="16.9903055"><ele>230.0</ele><time>2026-03-29T09:32:26.909Z</time></trkpt><trkpt lat="39.388138" lon="16.9902053"><ele>231.50000000000003</ele><time>2026-03-29T09:32:28.899Z</time></trkpt><trkpt lat="39.3881358" lon="16.9900907"><ele>233.0</ele><time>2026-03-29T09:32:30.917Z</time></trkpt><trkpt lat="39.388145" lon="16.9899284"><ele>235.0</ele><time>2026-03-29T09:32:32.904Z</time></trkpt><trkpt lat="39.3881544" lon="16.9897972"><ele>237.0</ele><time>2026-03-29T09:32:34.896Z</time></trkpt><trkpt lat="39.3881637" lon="16.9896516"><ele>239.0</ele><time>2026-03-29T09:32:36.901Z</time></trkpt><trkpt lat="39.3881682" lon="16.9895699"><ele>241.0</ele><time>2026-03-29T09:32:37.915Z</time></trkpt><trkpt lat="39.3881815" lon="16.9894369"><ele>243.0</ele><time>2026-03-29T09:32:39.899Z</time></trkpt><trkpt lat="39.3882041" lon="16.9893218"><ele>243.0</ele><time>2026-03-29T09:32:41.912Z</time></trkpt><trkpt lat="39.3882227" lon="16.9891931"><ele>243.0</ele><time>2026-03-29T09:32:43.905Z</time></trkpt><trkpt lat="39.3882394" lon="16.9890552"><ele>243.0</ele><time>2026-03-29T09:32:45.892Z</time></trkpt><trkpt lat="39.388278" lon="16.9889082"><ele>243.0</ele><time>2026-03-29T09:32:47.898Z</time></trkpt><trkpt lat="39.3883237" lon="16.9887698"><ele>243.0</ele><time>2026-03-29T09:32:49.906Z</time></trkpt><trkpt lat="39.3883634" lon="16.9886388"><ele>244.33333333333334</ele><time>2026-03-29T09:32:51.898Z</time></trkpt><trkpt lat="39.3883971" lon="16.9885294"><ele>245.66666666666669</ele><time>2026-03-29T09:32:53.927Z</time></trkpt><trkpt lat="39.3884217" lon="16.9884514"><ele>247.0</ele><time>2026-03-29T09:32:55.907Z</time></trkpt><trkpt lat="39.3884479" lon="16.9883768"><ele>248.33333333333334</ele><time>2026-03-29T09:32:57.915Z</time></trkpt><trkpt lat="39.3884833" lon="16.9882744"><ele>249.66666666666669</ele><time>2026-03-29T09:33:00.892Z</time></trkpt><trkpt lat="39.3885087" lon="16.9881988"><ele>251.0</ele><time>2026-03-29T09:33:02.89Z</time></trkpt><trkpt lat="39.3885539" lon="16.9880958"><ele>252.33333333333334</ele><time>2026-03-29T09:33:05.933Z</time></trkpt><trkpt lat="39.3885927" lon="16.9880253"><ele>253.66666666666669</ele><time>2026-03-29T09:33:07.907Z</time></trkpt><trkpt lat="39.3886255" lon="16.9879335"><ele>255.0</ele><time>2026-03-29T09:33:09.911Z</time></trkpt><trkpt lat="39.3886359" lon="16.9878283"><ele>256.3333333333333</ele><time>2026-03-29T09:33:11.91Z</time></trkpt><trkpt lat="39.3886284" lon="16.9877356"><ele>257.66666666666663</ele><time>2026-03-29T09:33:13.919Z</time></trkpt><trkpt lat="39.388607" lon="16.9876357"><ele>259.0</ele><time>2026-03-29T09:33:15.893Z</time></trkpt><trkpt lat="39.3885735" lon="16.9875218"><ele>260.16666666666663</ele><time>2026-03-29T09:33:17.894Z</time></trkpt><trkpt lat="39.3885477" lon="16.9874274"><ele>261.3333333333333</ele><time>2026-03-29T09:33:19.9Z</time></trkpt><trkpt lat="39.38852" lon="16.987332"><ele>262.5</ele><time>2026-03-29T09:33:21.893Z</time></trkpt><trkpt lat="39.3884952" lon="16.9872234"><ele>263.6666666666667</ele><time>2026-03-29T09:33:23.893Z</time></trkpt><trkpt lat="39.3884722" lon="16.9871114"><ele>264.83333333333337</ele><time>2026-03-29T09:33:25.904Z</time></trkpt><trkpt lat="39.3884443" lon="16.9869899"><ele>266.0</ele><time>2026-03-29T09:33:27.897Z</time></trkpt><trkpt lat="39.3884255" lon="16.9868935"><ele>266.0</ele><time>2026-03-29T09:33:29.897Z</time></trkpt><trkpt lat="39.3884119" lon="16.986806"><ele>266.0</ele><time>2026-03-29T09:33:32.901Z</time></trkpt><trkpt lat="39.3883995" lon="16.9866785"><ele>266.0</ele><time>2026-03-29T09:33:35.924Z</time></trkpt><trkpt lat="39.3883976" lon="16.9865767"><ele>266.0</ele><time>2026-03-29T09:33:37.929Z</time></trkpt><trkpt lat="39.3884046" lon="16.9864596"><ele>266.0</ele><time>2026-03-29T09:33:40.896Z</time></trkpt><trkpt lat="39.3884192" lon="16.9863568"><ele>266.0</ele><time>2026-03-29T09:33:42.894Z</time></trkpt><trkpt lat="39.3884247" lon="16.9862397"><ele>266.2</ele><time>2026-03-29T09:33:44.896Z</time></trkpt><trkpt lat="39.3884247" lon="16.9861103"><ele>266.40000000000003</ele><time>2026-03-29T09:33:46.894Z</time></trkpt><trkpt lat="39.3884217" lon="16.9859783"><ele>266.6</ele><time>2026-03-29T09:33:48.899Z</time></trkpt><trkpt lat="39.3884096" lon="16.9858426"><ele>266.8</ele><time>2026-03-29T09:33:50.894Z</time></trkpt><trkpt lat="39.3883903" lon="16.9856813"><ele>267.0</ele><time>2026-03-29T09:33:52.889Z</time></trkpt><trkpt lat="39.3883807" lon="16.9855968"><ele>267.5</ele><time>2026-03-29T09:33:53.899Z</time></trkpt><trkpt lat="39.3883739" lon="16.9855155"><ele>268.0</ele><time>2026-03-29T09:33:54.894Z</time></trkpt><trkpt lat="39.3883555" lon="16.9853719"><ele>268.5</ele><time>2026-03-29T09:33:56.895Z</time></trkpt><trkpt lat="39.3883396" lon="16.9852477"><ele>269.0</ele><time>2026-03-29T09:33:58.902Z</time></trkpt><trkpt lat="39.3883204" lon="16.9851307"><ele>269.5</ele><time>2026-03-29T09:34:00.893Z</time></trkpt><trkpt lat="39.3883142" lon="16.9850451"><ele>270.0</ele><time>2026-03-29T09:34:02.89Z</time></trkpt><trkpt lat="39.3883111" lon="16.9849418"><ele>270.0</ele><time>2026-03-29T09:34:05.898Z</time></trkpt><trkpt lat="39.3883529" lon="16.9848537"><ele>270.0</ele><time>2026-03-29T09:34:07.904Z</time></trkpt><trkpt lat="39.3884215" lon="16.9847687"><ele>270.0</ele><time>2026-03-29T09:34:09.899Z</time></trkpt><trkpt lat="39.3884893" lon="16.98469"><ele>270.0</ele><time>2026-03-29T09:34:11.895Z</time></trkpt><trkpt lat="39.388548" lon="16.9846092"><ele>270.0</ele><time>2026-03-29T09:34:13.943Z</time></trkpt><trkpt lat="39.3886105" lon="16.9845121"><ele>270.0</ele><time>2026-03-29T09:34:15.925Z</time></trkpt><trkpt lat="39.3886558" lon="16.9844098"><ele>270.0</ele><time>2026-03-29T09:34:17.912Z</time></trkpt><trkpt lat="39.3886855" lon="16.9843136"><ele>270.0</ele><time>2026-03-29T09:34:19.911Z</time></trkpt><trkpt lat="39.3887125" lon="16.9842141"><ele>270.0</ele><time>2026-03-29T09:34:21.925Z</time></trkpt><trkpt lat="39.3887406" lon="16.9841366"><ele>270.0</ele><time>2026-03-29T09:34:23.918Z</time></trkpt><trkpt lat="39.3887794" lon="16.984022"><ele>270.0</ele><time>2026-03-29T09:34:25.913Z</time></trkpt><trkpt lat="39.3888325" lon="16.9838916"><ele>270.0</ele><time>2026-03-29T09:34:27.921Z</time></trkpt><trkpt lat="39.3888851" lon="16.9837802"><ele>267.4</ele><time>2026-03-29T09:34:29.913Z</time></trkpt><trkpt lat="39.3889489" lon="16.9836546"><ele>264.8</ele><time>2026-03-29T09:34:31.918Z</time></trkpt><trkpt lat="39.3890116" lon="16.9835473"><ele>262.2</ele><time>2026-03-29T09:34:33.909Z</time></trkpt><trkpt lat="39.3890744" lon="16.9834535"><ele>259.6</ele><time>2026-03-29T09:34:35.914Z</time></trkpt><trkpt lat="39.3891274" lon="16.9833806"><ele>257.0</ele><time>2026-03-29T09:34:37.91Z</time></trkpt><trkpt lat="39.3891746" lon="16.9833107"><ele>257.0</ele><time>2026-03-29T09:34:39.918Z</time></trkpt><trkpt lat="39.3892249" lon="16.9831999"><ele>257.0</ele><time>2026-03-29T09:34:41.925Z</time></trkpt><trkpt lat="39.3892715" lon="16.9830547"><ele>257.0</ele><time>2026-03-29T09:34:43.922Z</time></trkpt><trkpt lat="39.3892924" lon="16.9829742"><ele>257.0</ele><time>2026-03-29T09:34:44.925Z</time></trkpt><trkpt lat="39.3893062" lon="16.9828886"><ele>257.0</ele><time>2026-03-29T09:34:45.919Z</time></trkpt><trkpt lat="39.3893119" lon="16.9827968"><ele>257.0</ele><time>2026-03-29T09:34:46.923Z</time></trkpt><trkpt lat="39.3893171" lon="16.9826985"><ele>257.0</ele><time>2026-03-29T09:34:47.938Z</time></trkpt><trkpt lat="39.3893293" lon="16.9826037"><ele>257.0</ele><time>2026-03-29T09:34:48.931Z</time></trkpt><trkpt lat="39.3893555" lon="16.982516"><ele>257.0</ele><time>2026-03-29T09:34:49.921Z</time></trkpt><trkpt lat="39.3893875" lon="16.9824312"><ele>257.0</ele><time>2026-03-29T09:34:50.922Z</time></trkpt><trkpt lat="39.3894205" lon="16.9823451"><ele>257.0</ele><time>2026-03-29T09:34:51.923Z</time></trkpt><trkpt lat="39.389452" lon="16.9822639"><ele>257.0</ele><time>2026-03-29T09:34:52.918Z</time></trkpt><trkpt lat="39.3895004" lon="16.9821158"><ele>257.6666666666667</ele><time>2026-03-29T09:34:54.917Z</time></trkpt><trkpt lat="39.3895297" lon="16.9820431"><ele>258.33333333333337</ele><time>2026-03-29T09:34:55.932Z</time></trkpt><trkpt lat="39.389551" lon="16.9818983"><ele>259.0</ele><time>2026-03-29T09:34:57.911Z</time></trkpt><trkpt lat="39.3895062" lon="16.9817752"><ele>259.6666666666667</ele><time>2026-03-29T09:34:59.931Z</time></trkpt><trkpt lat="39.389478" lon="16.9816718"><ele>260.3333333333333</ele><time>2026-03-29T09:35:01.908Z</time></trkpt><trkpt lat="39.3894812" lon="16.9815675"><ele>261.0</ele><time>2026-03-29T09:35:03.909Z</time></trkpt><trkpt lat="39.3895345" lon="16.9814598"><ele>262.40000000000003</ele><time>2026-03-29T09:35:05.925Z</time></trkpt><trkpt lat="39.3895694" lon="16.9813467"><ele>263.8</ele><time>2026-03-29T09:35:07.927Z</time></trkpt><trkpt lat="39.3896174" lon="16.9812615"><ele>265.20000000000005</ele><time>2026-03-29T09:35:09.916Z</time></trkpt><trkpt lat="39.3896945" lon="16.9811636"><ele>266.6</ele><time>2026-03-29T09:35:11.928Z</time></trkpt><trkpt lat="39.3897419" lon="16.9810336"><ele>268.0</ele><time>2026-03-29T09:35:13.931Z</time></trkpt><trkpt lat="39.3897157" lon="16.9809037"><ele>271.2</ele><time>2026-03-29T09:35:15.922Z</time></trkpt><trkpt lat="39.3896177" lon="16.9808311"><ele>274.4</ele><time>2026-03-29T09:35:17.923Z</time></trkpt><trkpt lat="39.3895318" lon="16.9808127"><ele>277.59999999999997</ele><time>2026-03-29T09:35:19.925Z</time></trkpt><trkpt lat="39.3894381" lon="16.9807705"><ele>280.8</ele><time>2026-03-29T09:35:22.917Z</time></trkpt><trkpt lat="39.389358" lon="16.9806742"><ele>284.0</ele><time>2026-03-29T09:35:24.914Z</time></trkpt><trkpt lat="39.3892861" lon="16.9805457"><ele>284.0</ele><time>2026-03-29T09:35:26.917Z</time></trkpt><trkpt lat="39.3891968" lon="16.9804522"><ele>284.0</ele><time>2026-03-29T09:35:28.923Z</time></trkpt><trkpt lat="39.3891327" lon="16.9804305"><ele>284.0</ele><time>2026-03-29T09:35:29.917Z</time></trkpt><trkpt lat="39.3890629" lon="16.9804146"><ele>284.0</ele><time>2026-03-29T09:35:30.918Z</time></trkpt><trkpt lat="39.3889935" lon="16.9803997"><ele>284.0</ele><time>2026-03-29T09:35:31.918Z</time></trkpt><trkpt lat="39.3889278" lon="16.9803735"><ele>284.0</ele><time>2026-03-29T09:35:32.923Z</time></trkpt><trkpt lat="39.3888673" lon="16.9803389"><ele>284.7142857142857</ele><time>2026-03-29T09:35:33.911Z</time></trkpt><trkpt lat="39.3888076" lon="16.9803013"><ele>285.4285714285714</ele><time>2026-03-29T09:35:34.918Z</time></trkpt><trkpt lat="39.3887487" lon="16.9802639"><ele>286.1428571428571</ele><time>2026-03-29T09:35:35.923Z</time></trkpt><trkpt lat="39.3887021" lon="16.9802005"><ele>286.85714285714283</ele><time>2026-03-29T09:35:36.918Z</time></trkpt><trkpt lat="39.3886615" lon="16.98013"><ele>287.57142857142856</ele><time>2026-03-29T09:35:37.92Z</time></trkpt><trkpt lat="39.3886409" lon="16.9800443"><ele>288.2857142857143</ele><time>2026-03-29T09:35:38.921Z</time></trkpt><trkpt lat="39.3886401" lon="16.9799559"><ele>289.0</ele><time>2026-03-29T09:35:39.92Z</time></trkpt><trkpt lat="39.3886508" lon="16.9798669"><ele>289.0</ele><time>2026-03-29T09:35:40.93Z</time></trkpt><trkpt lat="39.3886635" lon="16.9797779"><ele>289.0</ele><time>2026-03-29T09:35:41.911Z</time></trkpt><trkpt lat="39.3886731" lon="16.9796901"><ele>289.0</ele><time>2026-03-29T09:35:42.933Z</time></trkpt><trkpt lat="39.3886277" lon="16.9795624"><ele>289.0</ele><time>2026-03-29T09:35:44.913Z</time></trkpt><trkpt lat="39.3885085" lon="16.9794979"><ele>289.0</ele><time>2026-03-29T09:35:46.918Z</time></trkpt><trkpt lat="39.3884485" lon="16.9794429"><ele>289.0</ele><time>2026-03-29T09:35:47.923Z</time></trkpt><trkpt lat="39.3883898" lon="16.9793805"><ele>289.0</ele><time>2026-03-29T09:35:48.929Z</time></trkpt><trkpt lat="39.3883388" lon="16.9793268"><ele>289.0</ele><time>2026-03-29T09:35:49.915Z</time></trkpt><trkpt lat="39.3882671" lon="16.9792349"><ele>289.0</ele><time>2026-03-29T09:35:51.917Z</time></trkpt><trkpt lat="39.3882049" lon="16.9791634"><ele>289.0</ele><time>2026-03-29T09:35:53.919Z</time></trkpt><trkpt lat="39.3881403" lon="16.9791117"><ele>289.0</ele><time>2026-03-29T09:35:55.934Z</time></trkpt><trkpt lat="39.388055" lon="16.9790472"><ele>288.16666666666663</ele><time>2026-03-29T09:35:57.934Z</time></trkpt><trkpt lat="39.3879882" lon="16.9789866"><ele>287.3333333333333</ele><time>2026-03-29T09:35:59.93Z</time></trkpt><trkpt lat="39.3879249" lon="16.9789547"><ele>286.5</ele><time>2026-03-29T09:36:01.918Z</time></trkpt><trkpt lat="39.387828" lon="16.9789485"><ele>285.6666666666667</ele><time>2026-03-29T09:36:04.908Z</time></trkpt><trkpt lat="39.3877507" lon="16.9789052"><ele>284.83333333333337</ele><time>2026-03-29T09:36:07.918Z</time></trkpt><trkpt lat="39.3876779" lon="16.9788354"><ele>284.0</ele><time>2026-03-29T09:36:10.909Z</time></trkpt><trkpt lat="39.3876257" lon="16.978748"><ele>284.0</ele><time>2026-03-29T09:36:13.917Z</time></trkpt><trkpt lat="39.3875979" lon="16.9786304"><ele>284.0</ele><time>2026-03-29T09:36:16.915Z</time></trkpt><trkpt lat="39.3876009" lon="16.978523"><ele>284.0</ele><time>2026-03-29T09:36:18.928Z</time></trkpt><trkpt lat="39.3875953" lon="16.9784214"><ele>284.0</ele><time>2026-03-29T09:36:20.92Z</time></trkpt><trkpt lat="39.3875748" lon="16.9783273"><ele>284.0</ele><time>2026-03-29T09:36:22.918Z</time></trkpt><trkpt lat="39.3875533" lon="16.9782389"><ele>284.0</ele><time>2026-03-29T09:36:24.927Z</time></trkpt><trkpt lat="39.3875257" lon="16.9781472"><ele>286.8</ele><time>2026-03-29T09:36:26.92Z</time></trkpt><trkpt lat="39.3874928" lon="16.97804"><ele>289.59999999999997</ele><time>2026-03-29T09:36:28.927Z</time></trkpt><trkpt lat="39.3874529" lon="16.9779374"><ele>292.4</ele><time>2026-03-29T09:36:30.913Z</time></trkpt><trkpt lat="39.3874078" lon="16.9778333"><ele>295.2</ele><time>2026-03-29T09:36:33.914Z</time></trkpt><trkpt lat="39.3873735" lon="16.9777437"><ele>298.0</ele><time>2026-03-29T09:36:35.9Z</time></trkpt><trkpt lat="39.387331" lon="16.9776162"><ele>299.0</ele><time>2026-03-29T09:36:37.92Z</time></trkpt><trkpt lat="39.3873174" lon="16.9774976"><ele>300.0</ele><time>2026-03-29T09:36:39.932Z</time></trkpt><trkpt lat="39.3873314" lon="16.9773793"><ele>301.0</ele><time>2026-03-29T09:36:41.915Z</time></trkpt><trkpt lat="39.3873285" lon="16.9772671"><ele>302.0</ele><time>2026-03-29T09:36:43.935Z</time></trkpt><trkpt lat="39.387292" lon="16.9771506"><ele>303.0</ele><time>2026-03-29T09:36:45.917Z</time></trkpt><trkpt lat="39.3872399" lon="16.9770136"><ele>303.0</ele><time>2026-03-29T09:36:47.914Z</time></trkpt><trkpt lat="39.3871853" lon="16.9768685"><ele>303.0</ele><time>2026-03-29T09:36:49.93Z</time></trkpt><trkpt lat="39.3871398" lon="16.9768077"><ele>303.0</ele><time>2026-03-29T09:36:50.927Z</time></trkpt><trkpt lat="39.3870894" lon="16.9767502"><ele>303.0</ele><time>2026-03-29T09:36:51.915Z</time></trkpt><trkpt lat="39.3870411" lon="16.9766963"><ele>303.0</ele><time>2026-03-29T09:36:52.914Z</time></trkpt><trkpt lat="39.387" lon="16.9765848"><ele>303.0</ele><time>2026-03-29T09:36:54.926Z</time></trkpt><trkpt lat="39.3870633" lon="16.9764985"><ele>302.3333333333333</ele><time>2026-03-29T09:36:56.916Z</time></trkpt><trkpt lat="39.387151" lon="16.9763818"><ele>301.6666666666667</ele><time>2026-03-29T09:36:58.893Z</time></trkpt><trkpt lat="39.3871726" lon="16.9762948"><ele>301.0</ele><time>2026-03-29T09:36:59.927Z</time></trkpt><trkpt lat="39.3871813" lon="16.9762069"><ele>300.33333333333337</ele><time>2026-03-29T09:37:00.914Z</time></trkpt><trkpt lat="39.3871855" lon="16.9761202"><ele>299.6666666666667</ele><time>2026-03-29T09:37:01.919Z</time></trkpt><trkpt lat="39.3871899" lon="16.9760381"><ele>299.0</ele><time>2026-03-29T09:37:02.92Z</time></trkpt><trkpt lat="39.3872266" lon="16.9758963"><ele>297.0</ele><time>2026-03-29T09:37:04.914Z</time></trkpt><trkpt lat="39.3873112" lon="16.9757699"><ele>295.0</ele><time>2026-03-29T09:37:06.921Z</time></trkpt><trkpt lat="39.3873576" lon="16.975705"><ele>293.0</ele><time>2026-03-29T09:37:07.924Z</time></trkpt><trkpt lat="39.3874032" lon="16.9756372"><ele>291.0</ele><time>2026-03-29T09:37:08.94Z</time></trkpt><trkpt lat="39.3874418" lon="16.9755635"><ele>289.0</ele><time>2026-03-29T09:37:09.919Z</time></trkpt><trkpt lat="39.3874687" lon="16.9754823"><ele>287.0</ele><time>2026-03-29T09:37:10.916Z</time></trkpt><trkpt lat="39.3874885" lon="16.9753988"><ele>287.0</ele><time>2026-03-29T09:37:11.921Z</time></trkpt><trkpt lat="39.3875166" lon="16.9753192"><ele>287.0</ele><time>2026-03-29T09:37:12.914Z</time></trkpt><trkpt lat="39.3875593" lon="16.9752496"><ele>287.0</ele><time>2026-03-29T09:37:13.93Z</time></trkpt><trkpt lat="39.3876101" lon="16.9751874"><ele>287.0</ele><time>2026-03-29T09:37:14.914Z</time></trkpt><trkpt lat="39.387667" lon="16.9751267"><ele>287.0</ele><time>2026-03-29T09:37:15.915Z</time></trkpt><trkpt lat="39.3877244" lon="16.9750641"><ele>287.0</ele><time>2026-03-29T09:37:16.919Z</time></trkpt><trkpt lat="39.3877759" lon="16.9749951"><ele>287.0</ele><time>2026-03-29T09:37:17.932Z</time></trkpt><trkpt lat="39.3878171" lon="16.9749227"><ele>285.2</ele><time>2026-03-29T09:37:18.929Z</time></trkpt><trkpt lat="39.3878777" lon="16.9747934"><ele>283.4</ele><time>2026-03-29T09:37:20.92Z</time></trkpt><trkpt lat="39.3879309" lon="16.9746509"><ele>281.6</ele><time>2026-03-29T09:37:22.913Z</time></trkpt><trkpt lat="39.3879591" lon="16.9745711"><ele>279.8</ele><time>2026-03-29T09:37:23.917Z</time></trkpt><trkpt lat="39.3879958" lon="16.9744931"><ele>278.0</ele><time>2026-03-29T09:37:24.923Z</time></trkpt><trkpt lat="39.3880399" lon="16.974416"><ele>281.6666666666667</ele><time>2026-03-29T09:37:25.919Z</time></trkpt><trkpt lat="39.3880869" lon="16.9743335"><ele>285.33333333333337</ele><time>2026-03-29T09:37:26.916Z</time></trkpt><trkpt lat="39.388132" lon="16.9742474"><ele>289.0</ele><time>2026-03-29T09:37:27.923Z</time></trkpt><trkpt lat="39.3881696" lon="16.974157"><ele>292.6666666666667</ele><time>2026-03-29T09:37:28.919Z</time></trkpt><trkpt lat="39.3882093" lon="16.9740692"><ele>296.3333333333333</ele><time>2026-03-29T09:37:29.922Z</time></trkpt><trkpt lat="39.3882512" lon="16.9739831"><ele>300.0</ele><time>2026-03-29T09:37:30.925Z</time></trkpt><trkpt lat="39.3882881" lon="16.9738918"><ele>300.0</ele><time>2026-03-29T09:37:31.921Z</time></trkpt><trkpt lat="39.3883204" lon="16.973792"><ele>300.0</ele><time>2026-03-29T09:37:32.927Z</time></trkpt><trkpt lat="39.388345" lon="16.9736872"><ele>300.0</ele><time>2026-03-29T09:37:33.932Z</time></trkpt><trkpt lat="39.3883677" lon="16.9735832"><ele>300.0</ele><time>2026-03-29T09:37:34.916Z</time></trkpt><trkpt lat="39.3883948" lon="16.9734853"><ele>300.0</ele><time>2026-03-29T09:37:35.92Z</time></trkpt><trkpt lat="39.3884207" lon="16.9733904"><ele>300.0</ele><time>2026-03-29T09:37:36.918Z</time></trkpt><trkpt lat="39.388443" lon="16.9733002"><ele>298.6666666666667</ele><time>2026-03-29T09:37:37.917Z</time></trkpt><trkpt lat="39.3884765" lon="16.9731492"><ele>297.3333333333333</ele><time>2026-03-29T09:37:39.925Z</time></trkpt><trkpt lat="39.3885245" lon="16.9730086"><ele>296.0</ele><time>2026-03-29T09:37:41.921Z</time></trkpt><trkpt lat="39.3885471" lon="16.9729311"><ele>294.66666666666663</ele><time>2026-03-29T09:37:42.931Z</time></trkpt><trkpt lat="39.3885704" lon="16.9728551"><ele>293.3333333333333</ele><time>2026-03-29T09:37:43.918Z</time></trkpt><trkpt lat="39.3885819" lon="16.9727652"><ele>292.0</ele><time>2026-03-29T09:37:44.912Z</time></trkpt><trkpt lat="39.388575" lon="16.9726742"><ele>292.0</ele><time>2026-03-29T09:37:45.919Z</time></trkpt><trkpt lat="39.3885518" lon="16.9725832"><ele>292.0</ele><time>2026-03-29T09:37:46.911Z</time></trkpt><trkpt lat="39.3885159" lon="16.9724981"><ele>292.0</ele><time>2026-03-29T09:37:47.919Z</time></trkpt><trkpt lat="39.3884744" lon="16.9724156"><ele>292.0</ele><time>2026-03-29T09:37:48.918Z</time></trkpt><trkpt lat="39.388434" lon="16.9723287"><ele>292.0</ele><time>2026-03-29T09:37:49.914Z</time></trkpt><trkpt lat="39.3883997" lon="16.9722381"><ele>292.0</ele><time>2026-03-29T09:37:50.917Z</time></trkpt><trkpt lat="39.3883845" lon="16.9721435"><ele>292.6</ele><time>2026-03-29T09:37:51.915Z</time></trkpt><trkpt lat="39.3883923" lon="16.9720581"><ele>293.2</ele><time>2026-03-29T09:37:52.917Z</time></trkpt><trkpt lat="39.3884471" lon="16.9719485"><ele>293.8</ele><time>2026-03-29T09:37:54.923Z</time></trkpt><trkpt lat="39.3885197" lon="16.9718505"><ele>294.4</ele><time>2026-03-29T09:37:56.906Z</time></trkpt><trkpt lat="39.3885973" lon="16.9717297"><ele>295.0</ele><time>2026-03-29T09:37:58.913Z</time></trkpt><trkpt lat="39.3886983" lon="16.9716477"><ele>295.0</ele><time>2026-03-29T09:38:00.926Z</time></trkpt><trkpt lat="39.3888054" lon="16.9716361"><ele>295.0</ele><time>2026-03-29T09:38:02.915Z</time></trkpt><trkpt lat="39.388871" lon="16.9716276"><ele>295.0</ele><time>2026-03-29T09:38:03.909Z</time></trkpt><trkpt lat="39.3889477" lon="16.9716164"><ele>295.0</ele><time>2026-03-29T09:38:04.917Z</time></trkpt><trkpt lat="39.3890255" lon="16.9716108"><ele>295.0</ele><time>2026-03-29T09:38:05.917Z</time></trkpt><trkpt lat="39.3890998" lon="16.9716202"><ele>295.0</ele><time>2026-03-29T09:38:06.917Z</time></trkpt><trkpt lat="39.3891721" lon="16.971645"><ele>296.16666666666663</ele><time>2026-03-29T09:38:07.913Z</time></trkpt><trkpt lat="39.3892419" lon="16.9716841"><ele>297.3333333333333</ele><time>2026-03-29T09:38:08.928Z</time></trkpt><trkpt lat="39.3893096" lon="16.9717329"><ele>298.5</ele><time>2026-03-29T09:38:09.93Z</time></trkpt><trkpt lat="39.3893789" lon="16.9717779"><ele>299.6666666666667</ele><time>2026-03-29T09:38:10.918Z</time></trkpt><trkpt lat="39.3894473" lon="16.9718229"><ele>300.83333333333337</ele><time>2026-03-29T09:38:11.931Z</time></trkpt><trkpt lat="39.3895123" lon="16.971873"><ele>302.0</ele><time>2026-03-29T09:38:12.914Z</time></trkpt><trkpt lat="39.3895744" lon="16.9719313"><ele>304.6666666666667</ele><time>2026-03-29T09:38:13.918Z</time></trkpt><trkpt lat="39.3896365" lon="16.9719924"><ele>307.33333333333337</ele><time>2026-03-29T09:38:14.92Z</time></trkpt><trkpt lat="39.3897004" lon="16.9720545"><ele>310.0</ele><time>2026-03-29T09:38:15.915Z</time></trkpt><trkpt lat="39.3897624" lon="16.9721149"><ele>312.6666666666667</ele><time>2026-03-29T09:38:16.912Z</time></trkpt><trkpt lat="39.3898271" lon="16.9721683"><ele>315.3333333333333</ele><time>2026-03-29T09:38:17.926Z</time></trkpt><trkpt lat="39.3898982" lon="16.9722014"><ele>318.0</ele><time>2026-03-29T09:38:18.927Z</time></trkpt><trkpt lat="39.3899713" lon="16.9722052"><ele>318.2857142857143</ele><time>2026-03-29T09:38:19.926Z</time></trkpt><trkpt lat="39.3900419" lon="16.9721852"><ele>318.5714285714286</ele><time>2026-03-29T09:38:20.902Z</time></trkpt><trkpt lat="39.3901078" lon="16.9721465"><ele>318.8571428571429</ele><time>2026-03-29T09:38:21.9Z</time></trkpt><trkpt lat="39.3901618" lon="16.9720851"><ele>319.1428571428571</ele><time>2026-03-29T09:38:22.901Z</time></trkpt><trkpt lat="39.3901931" lon="16.9720067"><ele>319.42857142857144</ele><time>2026-03-29T09:38:23.905Z</time></trkpt><trkpt lat="39.3902004" lon="16.9719142"><ele>319.7142857142857</ele><time>2026-03-29T09:38:24.928Z</time></trkpt><trkpt lat="39.3901952" lon="16.9718279"><ele>320.0</ele><time>2026-03-29T09:38:25.897Z</time></trkpt><trkpt lat="39.3902008" lon="16.9717439"><ele>317.0</ele><time>2026-03-29T09:38:26.914Z</time></trkpt><trkpt lat="39.3902114" lon="16.9715892"><ele>314.0</ele><time>2026-03-29T09:38:28.921Z</time></trkpt><trkpt lat="39.3902104" lon="16.9714481"><ele>311.0</ele><time>2026-03-29T09:38:30.924Z</time></trkpt><trkpt lat="39.3901967" lon="16.9713018"><ele>308.0</ele><time>2026-03-29T09:38:32.925Z</time></trkpt><trkpt lat="39.3901883" lon="16.9712192"><ele>305.0</ele><time>2026-03-29T09:38:33.908Z</time></trkpt><trkpt lat="39.3901794" lon="16.9711328"><ele>305.0</ele><time>2026-03-29T09:38:34.926Z</time></trkpt><trkpt lat="39.3901732" lon="16.9710472"><ele>305.0</ele><time>2026-03-29T09:38:35.915Z</time></trkpt><trkpt lat="39.3901674" lon="16.9709575"><ele>305.0</ele><time>2026-03-29T09:38:36.937Z</time></trkpt><trkpt lat="39.3901624" lon="16.9708621"><ele>305.0</ele><time>2026-03-29T09:38:37.911Z</time></trkpt><trkpt lat="39.3901645" lon="16.9707645"><ele>305.0</ele><time>2026-03-29T09:38:38.92Z</time></trkpt><trkpt lat="39.3901773" lon="16.9706832"><ele>305.0</ele><time>2026-03-29T09:38:39.922Z</time></trkpt><trkpt lat="39.3902305" lon="16.9705577"><ele>304.1666666666667</ele><time>2026-03-29T09:38:41.93Z</time></trkpt><trkpt lat="39.3903106" lon="16.9704245"><ele>303.33333333333337</ele><time>2026-03-29T09:38:43.938Z</time></trkpt><trkpt lat="39.3903524" lon="16.9703548"><ele>302.5</ele><time>2026-03-29T09:38:44.928Z</time></trkpt><trkpt lat="39.3904005" lon="16.9702917"><ele>301.6666666666667</ele><time>2026-03-29T09:38:45.922Z</time></trkpt><trkpt lat="39.3904563" lon="16.9702253"><ele>300.8333333333333</ele><time>2026-03-29T09:38:46.929Z</time></trkpt><trkpt lat="39.3905133" lon="16.9701435"><ele>300.0</ele><time>2026-03-29T09:38:47.927Z</time></trkpt><trkpt lat="39.3905673" lon="16.9700464"><ele>302.8</ele><time>2026-03-29T09:38:48.926Z</time></trkpt><trkpt lat="39.3906255" lon="16.9699424"><ele>305.6</ele><time>2026-03-29T09:38:49.93Z</time></trkpt><trkpt lat="39.3906881" lon="16.9698372"><ele>308.4</ele><time>2026-03-29T09:38:50.927Z</time></trkpt><trkpt lat="39.3907489" lon="16.9697369"><ele>311.2</ele><time>2026-03-29T09:38:51.916Z</time></trkpt><trkpt lat="39.3908073" lon="16.9696393"><ele>314.0</ele><time>2026-03-29T09:38:52.933Z</time></trkpt><trkpt lat="39.3908596" lon="16.9695386"><ele>314.0</ele><time>2026-03-29T09:38:53.924Z</time></trkpt><trkpt lat="39.3909051" lon="16.9694351"><ele>314.0</ele><time>2026-03-29T09:38:54.929Z</time></trkpt><trkpt lat="39.3909426" lon="16.9693395"><ele>314.0</ele><time>2026-03-29T09:38:55.923Z</time></trkpt><trkpt lat="39.3909685" lon="16.9692613"><ele>314.0</ele><time>2026-03-29T09:38:56.92Z</time></trkpt><trkpt lat="39.3910126" lon="16.9691743"><ele>314.0</ele><time>2026-03-29T09:38:58.911Z</time></trkpt><trkpt lat="39.3910614" lon="16.9690789"><ele>314.0</ele><time>2026-03-29T09:39:00.93Z</time></trkpt><trkpt lat="39.3911084" lon="16.9689502"><ele>314.75</ele><time>2026-03-29T09:39:02.918Z</time></trkpt><trkpt lat="39.3911546" lon="16.9688057"><ele>315.5</ele><time>2026-03-29T09:39:04.919Z</time></trkpt><trkpt lat="39.3911869" lon="16.9686676"><ele>316.25</ele><time>2026-03-29T09:39:06.925Z</time></trkpt><trkpt lat="39.3912212" lon="16.9685283"><ele>317.0</ele><time>2026-03-29T09:39:08.915Z</time></trkpt><trkpt lat="39.3912559" lon="16.9683726"><ele>316.83333333333337</ele><time>2026-03-29T09:39:10.924Z</time></trkpt><trkpt lat="39.3912615" lon="16.968288"><ele>316.6666666666667</ele><time>2026-03-29T09:39:11.917Z</time></trkpt><trkpt lat="39.3912708" lon="16.9681959"><ele>316.5</ele><time>2026-03-29T09:39:12.923Z</time></trkpt><trkpt lat="39.3912951" lon="16.9681017"><ele>316.3333333333333</ele><time>2026-03-29T09:39:13.918Z</time></trkpt><trkpt lat="39.3913316" lon="16.9680096"><ele>316.16666666666663</ele><time>2026-03-29T09:39:14.925Z</time></trkpt><trkpt lat="39.391373" lon="16.9679195"><ele>316.0</ele><time>2026-03-29T09:39:15.94Z</time></trkpt><trkpt lat="39.3914164" lon="16.967833"><ele>318.8333333333333</ele><time>2026-03-29T09:39:16.92Z</time></trkpt><trkpt lat="39.3914611" lon="16.9677427"><ele>321.66666666666663</ele><time>2026-03-29T09:39:17.934Z</time></trkpt><trkpt lat="39.3915103" lon="16.9676537"><ele>324.5</ele><time>2026-03-29T09:39:18.912Z</time></trkpt><trkpt lat="39.3915658" lon="16.9675627"><ele>327.3333333333333</ele><time>2026-03-29T09:39:19.923Z</time></trkpt><trkpt lat="39.391617" lon="16.9674641"><ele>330.1666666666667</ele><time>2026-03-29T09:39:20.908Z</time></trkpt><trkpt lat="39.3916639" lon="16.9673573"><ele>333.0</ele><time>2026-03-29T09:39:21.929Z</time></trkpt><trkpt lat="39.3917063" lon="16.9672576"><ele>333.0</ele><time>2026-03-29T09:39:22.922Z</time></trkpt><trkpt lat="39.391747" lon="16.9671655"><ele>333.0</ele><time>2026-03-29T09:39:23.916Z</time></trkpt><trkpt lat="39.3917886" lon="16.9670809"><ele>333.0</ele><time>2026-03-29T09:39:24.912Z</time></trkpt><trkpt lat="39.3918298" lon="16.9669968"><ele>333.0</ele><time>2026-03-29T09:39:25.922Z</time></trkpt><trkpt lat="39.3918693" lon="16.9669102"><ele>333.0</ele><time>2026-03-29T09:39:26.926Z</time></trkpt><trkpt lat="39.3919083" lon="16.9668253"><ele>333.0</ele><time>2026-03-29T09:39:27.915Z</time></trkpt><trkpt lat="39.3919483" lon="16.9667405"><ele>331.3333333333333</ele><time>2026-03-29T09:39:28.915Z</time></trkpt><trkpt lat="39.3919882" lon="16.966649"><ele>329.6666666666667</ele><time>2026-03-29T09:39:29.917Z</time></trkpt><trkpt lat="39.3920262" lon="16.9665467"><ele>328.0</ele><time>2026-03-29T09:39:30.921Z</time></trkpt><trkpt lat="39.3920556" lon="16.9664371"><ele>326.33333333333337</ele><time>2026-03-29T09:39:31.917Z</time></trkpt><trkpt lat="39.3920753" lon="16.9663238"><ele>324.6666666666667</ele><time>2026-03-29T09:39:32.931Z</time></trkpt><trkpt lat="39.3920888" lon="16.9662198"><ele>323.0</ele><time>2026-03-29T09:39:33.918Z</time></trkpt><trkpt lat="39.392102" lon="16.9661256"><ele>323.0</ele><time>2026-03-29T09:39:34.918Z</time></trkpt><trkpt lat="39.3921194" lon="16.966037"><ele>323.0</ele><time>2026-03-29T09:39:35.912Z</time></trkpt><trkpt lat="39.3921417" lon="16.9659501"><ele>323.0</ele><time>2026-03-29T09:39:36.913Z</time></trkpt><trkpt lat="39.3921675" lon="16.9658593"><ele>323.0</ele><time>2026-03-29T09:39:37.913Z</time></trkpt><trkpt lat="39.3921893" lon="16.9657569"><ele>323.0</ele><time>2026-03-29T09:39:38.909Z</time></trkpt><trkpt lat="39.3922073" lon="16.9656435"><ele>323.0</ele><time>2026-03-29T09:39:39.914Z</time></trkpt><trkpt lat="39.3922295" lon="16.9655298"><ele>325.0</ele><time>2026-03-29T09:39:40.913Z</time></trkpt><trkpt lat="39.3922606" lon="16.9654177"><ele>327.0</ele><time>2026-03-29T09:39:41.916Z</time></trkpt><trkpt lat="39.3922958" lon="16.9653033"><ele>329.0</ele><time>2026-03-29T09:39:42.921Z</time></trkpt><trkpt lat="39.3923196" lon="16.9651875"><ele>331.0</ele><time>2026-03-29T09:39:43.917Z</time></trkpt><trkpt lat="39.392327" lon="16.9650824"><ele>333.0</ele><time>2026-03-29T09:39:44.918Z</time></trkpt><trkpt lat="39.392329" lon="16.9649903"><ele>335.0</ele><time>2026-03-29T09:39:45.914Z</time></trkpt><trkpt lat="39.3923143" lon="16.9648274"><ele>334.99999999999994</ele><time>2026-03-29T09:39:47.92Z</time></trkpt><trkpt lat="39.3922973" lon="16.9647443"><ele>335.0</ele><time>2026-03-29T09:39:48.925Z</time></trkpt><trkpt lat="39.3922801" lon="16.9646658"><ele>335.0</ele><time>2026-03-29T09:39:49.923Z</time></trkpt><trkpt lat="39.3922626" lon="16.964587"><ele>335.0</ele><time>2026-03-29T09:39:50.916Z</time></trkpt><trkpt lat="39.3922515" lon="16.9645017"><ele>335.0</ele><time>2026-03-29T09:39:51.925Z</time></trkpt><trkpt lat="39.3922432" lon="16.9644169"><ele>334.99999999999994</ele><time>2026-03-29T09:39:52.922Z</time></trkpt><trkpt lat="39.3922231" lon="16.9642837"><ele>335.0</ele><time>2026-03-29T09:39:54.929Z</time></trkpt><trkpt lat="39.3921983" lon="16.9641653"><ele>335.1428571428571</ele><time>2026-03-29T09:39:56.922Z</time></trkpt><trkpt lat="39.3922022" lon="16.964081"><ele>335.2857142857143</ele><time>2026-03-29T09:39:57.926Z</time></trkpt><trkpt lat="39.3922187" lon="16.9639869"><ele>335.42857142857144</ele><time>2026-03-29T09:39:58.915Z</time></trkpt><trkpt lat="39.3922409" lon="16.9638872"><ele>335.57142857142856</ele><time>2026-03-29T09:39:59.921Z</time></trkpt><trkpt lat="39.3922621" lon="16.9637893"><ele>335.7142857142857</ele><time>2026-03-29T09:40:00.923Z</time></trkpt><trkpt lat="39.3922765" lon="16.9636961"><ele>335.85714285714283</ele><time>2026-03-29T09:40:01.92Z</time></trkpt><trkpt lat="39.3922919" lon="16.9636166"><ele>336.0</ele><time>2026-03-29T09:40:02.921Z</time></trkpt><trkpt lat="39.3923271" lon="16.9634651"><ele>336.0</ele><time>2026-03-29T09:40:04.92Z</time></trkpt><trkpt lat="39.3923475" lon="16.963368"><ele>336.0</ele><time>2026-03-29T09:40:05.917Z</time></trkpt><trkpt lat="39.3923708" lon="16.9632595"><ele>336.0</ele><time>2026-03-29T09:40:06.92Z</time></trkpt><trkpt lat="39.3923917" lon="16.9631469"><ele>336.0</ele><time>2026-03-29T09:40:07.915Z</time></trkpt><trkpt lat="39.3924111" lon="16.9630286"><ele>336.0</ele><time>2026-03-29T09:40:08.926Z</time></trkpt><trkpt lat="39.3924321" lon="16.9629083"><ele>336.0</ele><time>2026-03-29T09:40:09.906Z</time></trkpt><trkpt lat="39.3924576" lon="16.9627808"><ele>336.20000000000005</ele><time>2026-03-29T09:40:10.922Z</time></trkpt><trkpt lat="39.3924866" lon="16.9626599"><ele>336.40000000000003</ele><time>2026-03-29T09:40:11.916Z</time></trkpt><trkpt lat="39.3925227" lon="16.9625345"><ele>336.6</ele><time>2026-03-29T09:40:12.925Z</time></trkpt><trkpt lat="39.3925594" lon="16.9624119"><ele>336.8</ele><time>2026-03-29T09:40:13.917Z</time></trkpt><trkpt lat="39.3925927" lon="16.9622902"><ele>337.0</ele><time>2026-03-29T09:40:14.917Z</time></trkpt><trkpt lat="39.3926214" lon="16.962165"><ele>337.3333333333333</ele><time>2026-03-29T09:40:15.922Z</time></trkpt><trkpt lat="39.3926492" lon="16.9620388"><ele>337.66666666666663</ele><time>2026-03-29T09:40:16.924Z</time></trkpt><trkpt lat="39.3926672" lon="16.9619198"><ele>338.0</ele><time>2026-03-29T09:40:17.918Z</time></trkpt><trkpt lat="39.3926791" lon="16.9618148"><ele>338.3333333333333</ele><time>2026-03-29T09:40:18.918Z</time></trkpt><trkpt lat="39.3926803" lon="16.9617285"><ele>338.6666666666667</ele><time>2026-03-29T09:40:19.915Z</time></trkpt><trkpt lat="39.3926793" lon="16.9616372"><ele>339.0</ele><time>2026-03-29T09:40:20.918Z</time></trkpt><trkpt lat="39.3926828" lon="16.9615398"><ele>337.6</ele><time>2026-03-29T09:40:21.915Z</time></trkpt><trkpt lat="39.3926944" lon="16.9614301"><ele>336.2</ele><time>2026-03-29T09:40:22.917Z</time></trkpt><trkpt lat="39.3927074" lon="16.9613105"><ele>334.8</ele><time>2026-03-29T09:40:23.917Z</time></trkpt><trkpt lat="39.3927155" lon="16.9611848"><ele>333.40000000000003</ele><time>2026-03-29T09:40:24.914Z</time></trkpt><trkpt lat="39.3927208" lon="16.961054"><ele>332.0</ele><time>2026-03-29T09:40:25.926Z</time></trkpt><trkpt lat="39.3927266" lon="16.9609206"><ele>332.20000000000005</ele><time>2026-03-29T09:40:26.918Z</time></trkpt><trkpt lat="39.3927296" lon="16.9607862"><ele>332.4</ele><time>2026-03-29T09:40:27.92Z</time></trkpt><trkpt lat="39.3927291" lon="16.9606499"><ele>332.6</ele><time>2026-03-29T09:40:28.919Z</time></trkpt><trkpt lat="39.3927222" lon="16.9605118"><ele>332.79999999999995</ele><time>2026-03-29T09:40:29.926Z</time></trkpt><trkpt lat="39.3927076" lon="16.9603739"><ele>333.0</ele><time>2026-03-29T09:40:30.923Z</time></trkpt><trkpt lat="39.39269" lon="16.9602385"><ele>333.0</ele><time>2026-03-29T09:40:31.926Z</time></trkpt><trkpt lat="39.3926743" lon="16.9601118"><ele>333.0</ele><time>2026-03-29T09:40:32.912Z</time></trkpt><trkpt lat="39.3926725" lon="16.959997"><ele>333.0</ele><time>2026-03-29T09:40:33.919Z</time></trkpt><trkpt lat="39.392667" lon="16.959898"><ele>333.0</ele><time>2026-03-29T09:40:34.929Z</time></trkpt><trkpt lat="39.3926531" lon="16.9598118"><ele>333.0</ele><time>2026-03-29T09:40:35.923Z</time></trkpt><trkpt lat="39.3926375" lon="16.9597257"><ele>333.0</ele><time>2026-03-29T09:40:36.913Z</time></trkpt><trkpt lat="39.3926222" lon="16.9596386"><ele>333.0</ele><time>2026-03-29T09:40:37.913Z</time></trkpt><trkpt lat="39.392604" lon="16.9595471"><ele>333.0</ele><time>2026-03-29T09:40:38.922Z</time></trkpt><trkpt lat="39.3925812" lon="16.9594452"><ele>333.0</ele><time>2026-03-29T09:40:39.914Z</time></trkpt><trkpt lat="39.3925587" lon="16.9593321"><ele>333.0</ele><time>2026-03-29T09:40:40.923Z</time></trkpt><trkpt lat="39.3925411" lon="16.9592121"><ele>333.0</ele><time>2026-03-29T09:40:41.92Z</time></trkpt><trkpt lat="39.3925261" lon="16.9590889"><ele>333.0</ele><time>2026-03-29T09:40:42.918Z</time></trkpt><trkpt lat="39.3925054" lon="16.9589652"><ele>332.4</ele><time>2026-03-29T09:40:43.918Z</time></trkpt><trkpt lat="39.3924828" lon="16.9588444"><ele>331.79999999999995</ele><time>2026-03-29T09:40:44.919Z</time></trkpt><trkpt lat="39.3924641" lon="16.9587251"><ele>331.2</ele><time>2026-03-29T09:40:45.935Z</time></trkpt><trkpt lat="39.3924546" lon="16.958604"><ele>330.6</ele><time>2026-03-29T09:40:46.929Z</time></trkpt><trkpt lat="39.392445" lon="16.9584751"><ele>330.0</ele><time>2026-03-29T09:40:47.923Z</time></trkpt><trkpt lat="39.3924317" lon="16.9583388"><ele>329.4</ele><time>2026-03-29T09:40:48.928Z</time></trkpt><trkpt lat="39.392419" lon="16.9582027"><ele>328.8</ele><time>2026-03-29T09:40:49.926Z</time></trkpt><trkpt lat="39.3924054" lon="16.9580679"><ele>328.20000000000005</ele><time>2026-03-29T09:40:50.921Z</time></trkpt><trkpt lat="39.3923891" lon="16.9579397"><ele>327.6</ele><time>2026-03-29T09:40:51.92Z</time></trkpt><trkpt lat="39.3923721" lon="16.9578149"><ele>327.0</ele><time>2026-03-29T09:40:52.921Z</time></trkpt><trkpt lat="39.3923556" lon="16.9576886"><ele>327.0</ele><time>2026-03-29T09:40:53.915Z</time></trkpt><trkpt lat="39.3923349" lon="16.9575587"><ele>327.0</ele><time>2026-03-29T09:40:54.916Z</time></trkpt><trkpt lat="39.3923103" lon="16.957422"><ele>327.0</ele><time>2026-03-29T09:40:55.933Z</time></trkpt><trkpt lat="39.3922861" lon="16.957289"><ele>327.0</ele><time>2026-03-29T09:40:56.918Z</time></trkpt><trkpt lat="39.39226" lon="16.957172"><ele>327.0</ele><time>2026-03-29T09:40:57.912Z</time></trkpt><trkpt lat="39.3922341" lon="16.957082"><ele>326.6666666666667</ele><time>2026-03-29T09:40:58.915Z</time></trkpt><trkpt lat="39.3922" lon="16.9569919"><ele>326.3333333333333</ele><time>2026-03-29T09:41:00.911Z</time></trkpt><trkpt lat="39.3921665" lon="16.9569139"><ele>326.0</ele><time>2026-03-29T09:41:04.917Z</time></trkpt><trkpt lat="39.3921038" lon="16.95681"><ele>325.66666666666663</ele><time>2026-03-29T09:41:06.919Z</time></trkpt><trkpt lat="39.3920615" lon="16.9567421"><ele>325.3333333333333</ele><time>2026-03-29T09:41:07.92Z</time></trkpt><trkpt lat="39.3920154" lon="16.9566677"><ele>325.0</ele><time>2026-03-29T09:41:08.923Z</time></trkpt><trkpt lat="39.3919715" lon="16.9565891"><ele>323.0</ele><time>2026-03-29T09:41:09.915Z</time></trkpt><trkpt lat="39.3919327" lon="16.9565118"><ele>321.0</ele><time>2026-03-29T09:41:10.922Z</time></trkpt><trkpt lat="39.3919175" lon="16.9564251"><ele>319.0</ele><time>2026-03-29T09:41:11.916Z</time></trkpt><trkpt lat="39.3919191" lon="16.9563302"><ele>317.0</ele><time>2026-03-29T09:41:12.923Z</time></trkpt><trkpt lat="39.3919332" lon="16.9562339"><ele>315.0</ele><time>2026-03-29T09:41:13.917Z</time></trkpt><trkpt lat="39.3919523" lon="16.956142"><ele>313.0</ele><time>2026-03-29T09:41:14.915Z</time></trkpt><trkpt lat="39.3919528" lon="16.9560583"><ele>311.0</ele><time>2026-03-29T09:41:15.932Z</time></trkpt><trkpt lat="39.3918937" lon="16.9559489"><ele>311.0</ele><time>2026-03-29T09:41:17.916Z</time></trkpt><trkpt lat="39.3918271" lon="16.955909"><ele>311.0</ele><time>2026-03-29T09:41:18.932Z</time></trkpt><trkpt lat="39.3917479" lon="16.9558849"><ele>311.0</ele><time>2026-03-29T09:41:19.923Z</time></trkpt><trkpt lat="39.3916621" lon="16.9558815"><ele>311.0</ele><time>2026-03-29T09:41:20.915Z</time></trkpt><trkpt lat="39.3915706" lon="16.9558984"><ele>311.0</ele><time>2026-03-29T09:41:21.922Z</time></trkpt><trkpt lat="39.3914774" lon="16.955911"><ele>311.0</ele><time>2026-03-29T09:41:22.921Z</time></trkpt><trkpt lat="39.3913823" lon="16.9559031"><ele>308.6</ele><time>2026-03-29T09:41:23.928Z</time></trkpt><trkpt lat="39.3912855" lon="16.9558861"><ele>306.20000000000005</ele><time>2026-03-29T09:41:24.919Z</time></trkpt><trkpt lat="39.391188" lon="16.9558832"><ele>303.79999999999995</ele><time>2026-03-29T09:41:25.92Z</time></trkpt><trkpt lat="39.3910886" lon="16.9558932"><ele>301.4</ele><time>2026-03-29T09:41:26.92Z</time></trkpt><trkpt lat="39.3909904" lon="16.9559133"><ele>299.0</ele><time>2026-03-29T09:41:27.922Z</time></trkpt><trkpt lat="39.3908905" lon="16.955921"><ele>299.0</ele><time>2026-03-29T09:41:28.921Z</time></trkpt><trkpt lat="39.3907938" lon="16.9559162"><ele>299.0</ele><time>2026-03-29T09:41:29.917Z</time></trkpt><trkpt lat="39.3907027" lon="16.9558951"><ele>299.0</ele><time>2026-03-29T09:41:30.912Z</time></trkpt><trkpt lat="39.3906109" lon="16.955872"><ele>299.0</ele><time>2026-03-29T09:41:31.918Z</time></trkpt><trkpt lat="39.3905141" lon="16.9558554"><ele>299.0</ele><time>2026-03-29T09:41:32.914Z</time></trkpt><trkpt lat="39.3904199" lon="16.9558405"><ele>302.5</ele><time>2026-03-29T09:41:33.918Z</time></trkpt><trkpt lat="39.3903302" lon="16.95582"><ele>306.0</ele><time>2026-03-29T09:41:34.913Z</time></trkpt><trkpt lat="39.3902469" lon="16.9557894"><ele>309.5</ele><time>2026-03-29T09:41:35.922Z</time></trkpt><trkpt lat="39.3901664" lon="16.9557531"><ele>313.0</ele><time>2026-03-29T09:41:36.915Z</time></trkpt><trkpt lat="39.3900865" lon="16.9557116"><ele>316.5</ele><time>2026-03-29T09:41:37.914Z</time></trkpt><trkpt lat="39.390002" lon="16.9556613"><ele>320.0</ele><time>2026-03-29T09:41:38.921Z</time></trkpt><trkpt lat="39.3899144" lon="16.9556037"><ele>320.0</ele><time>2026-03-29T09:41:39.919Z</time></trkpt><trkpt lat="39.3898365" lon="16.9555428"><ele>320.0</ele><time>2026-03-29T09:41:40.908Z</time></trkpt><trkpt lat="39.3897754" lon="16.9554821"><ele>320.0</ele><time>2026-03-29T09:41:41.919Z</time></trkpt><trkpt lat="39.3897027" lon="16.9554002"><ele>320.0</ele><time>2026-03-29T09:41:43.915Z</time></trkpt><trkpt lat="39.3896505" lon="16.9553517"><ele>320.0</ele><time>2026-03-29T09:41:46.916Z</time></trkpt><trkpt lat="39.389564" lon="16.9552936"><ele>320.0</ele><time>2026-03-29T09:41:48.914Z</time></trkpt><trkpt lat="39.389509" lon="16.9552493"><ele>319.8</ele><time>2026-03-29T09:41:49.918Z</time></trkpt><trkpt lat="39.3894478" lon="16.9551949"><ele>319.6</ele><time>2026-03-29T09:41:50.912Z</time></trkpt><trkpt lat="39.3893749" lon="16.955131"><ele>319.4</ele><time>2026-03-29T09:41:51.93Z</time></trkpt><trkpt lat="39.3892947" lon="16.955059"><ele>319.2</ele><time>2026-03-29T09:41:52.927Z</time></trkpt><trkpt lat="39.3892093" lon="16.9549796"><ele>319.0</ele><time>2026-03-29T09:41:53.929Z</time></trkpt><trkpt lat="39.3891314" lon="16.9548989"><ele>319.0</ele><time>2026-03-29T09:41:54.918Z</time></trkpt><trkpt lat="39.3890611" lon="16.9548247"><ele>319.0</ele><time>2026-03-29T09:41:55.925Z</time></trkpt><trkpt lat="39.388992" lon="16.954768"><ele>319.0</ele><time>2026-03-29T09:41:56.924Z</time></trkpt><trkpt lat="39.3889185" lon="16.9547392"><ele>319.0</ele><time>2026-03-29T09:41:57.926Z</time></trkpt><trkpt lat="39.3888318" lon="16.9547382"><ele>319.0</ele><time>2026-03-29T09:41:58.916Z</time></trkpt><trkpt lat="39.3887245" lon="16.9547601"><ele>319.0</ele><time>2026-03-29T09:41:59.92Z</time></trkpt><trkpt lat="39.3885981" lon="16.9547792"><ele>318.0</ele><time>2026-03-29T09:42:00.92Z</time></trkpt><trkpt lat="39.3884668" lon="16.9547934"><ele>317.0</ele><time>2026-03-29T09:42:01.923Z</time></trkpt><trkpt lat="39.3883451" lon="16.9548042"><ele>316.0</ele><time>2026-03-29T09:42:02.919Z</time></trkpt><trkpt lat="39.3882359" lon="16.9548148"><ele>315.0</ele><time>2026-03-29T09:42:03.917Z</time></trkpt><trkpt lat="39.3881383" lon="16.9548331"><ele>315.0</ele><time>2026-03-29T09:42:04.919Z</time></trkpt><trkpt lat="39.3880498" lon="16.95486"><ele>315.0</ele><time>2026-03-29T09:42:05.945Z</time></trkpt><trkpt lat="39.3879734" lon="16.9548779"><ele>315.0</ele><time>2026-03-29T09:42:06.919Z</time></trkpt><trkpt lat="39.3879071" lon="16.9548821"><ele>315.0</ele><time>2026-03-29T09:42:07.916Z</time></trkpt><trkpt lat="39.3877703" lon="16.9548918"><ele>315.0</ele><time>2026-03-29T09:42:09.914Z</time></trkpt><trkpt lat="39.3876813" lon="16.9549129"><ele>315.6</ele><time>2026-03-29T09:42:10.915Z</time></trkpt><trkpt lat="39.3875875" lon="16.9549442"><ele>316.2</ele><time>2026-03-29T09:42:11.909Z</time></trkpt><trkpt lat="39.3874917" lon="16.9549772"><ele>316.8</ele><time>2026-03-29T09:42:12.897Z</time></trkpt><trkpt lat="39.3873959" lon="16.9550094"><ele>317.4</ele><time>2026-03-29T09:42:13.917Z</time></trkpt><trkpt lat="39.3873046" lon="16.9550414"><ele>318.0</ele><time>2026-03-29T09:42:14.926Z</time></trkpt><trkpt lat="39.3872139" lon="16.9550741"><ele>315.6666666666667</ele><time>2026-03-29T09:42:15.935Z</time></trkpt><trkpt lat="39.3871269" lon="16.955102"><ele>313.3333333333333</ele><time>2026-03-29T09:42:16.923Z</time></trkpt><trkpt lat="39.387044" lon="16.9551273"><ele>311.0</ele><time>2026-03-29T09:42:17.918Z</time></trkpt><trkpt lat="39.3869606" lon="16.9551496"><ele>308.66666666666663</ele><time>2026-03-29T09:42:18.924Z</time></trkpt><trkpt lat="39.386878" lon="16.955172"><ele>306.3333333333333</ele><time>2026-03-29T09:42:19.925Z</time></trkpt><trkpt lat="39.3867953" lon="16.955199"><ele>304.0</ele><time>2026-03-29T09:42:20.931Z</time></trkpt><trkpt lat="39.3867131" lon="16.9552261"><ele>304.0</ele><time>2026-03-29T09:42:21.92Z</time></trkpt><trkpt lat="39.3866329" lon="16.9552516"><ele>304.0</ele><time>2026-03-29T09:42:22.919Z</time></trkpt><trkpt lat="39.3865585" lon="16.9552695"><ele>304.0</ele><time>2026-03-29T09:42:23.912Z</time></trkpt><trkpt lat="39.3864544" lon="16.955282"><ele>304.0</ele><time>2026-03-29T09:42:25.921Z</time></trkpt><trkpt lat="39.3863745" lon="16.95534"><ele>304.0</ele><time>2026-03-29T09:42:28.915Z</time></trkpt><trkpt lat="39.3862963" lon="16.9553166"><ele>304.0</ele><time>2026-03-29T09:42:31.91Z</time></trkpt><trkpt lat="39.3862095" lon="16.9553074"><ele>304.16666666666663</ele><time>2026-03-29T09:42:34.918Z</time></trkpt><trkpt lat="39.3861345" lon="16.9553073"><ele>304.3333333333333</ele><time>2026-03-29T09:42:36.928Z</time></trkpt><trkpt lat="39.386046" lon="16.95531"><ele>304.5</ele><time>2026-03-29T09:42:38.922Z</time></trkpt><trkpt lat="39.3859233" lon="16.955307"><ele>304.6666666666667</ele><time>2026-03-29T09:42:40.941Z</time></trkpt><trkpt lat="39.3858533" lon="16.9553039"><ele>304.83333333333337</ele><time>2026-03-29T09:42:41.919Z</time></trkpt><trkpt lat="39.3857788" lon="16.955306"><ele>305.0</ele><time>2026-03-29T09:42:42.929Z</time></trkpt><trkpt lat="39.3857035" lon="16.9553052"><ele>305.0</ele><time>2026-03-29T09:42:43.917Z</time></trkpt><trkpt lat="39.3856292" lon="16.9552983"><ele>305.0</ele><time>2026-03-29T09:42:44.917Z</time></trkpt><trkpt lat="39.3855647" lon="16.9552899"><ele>305.0</ele><time>2026-03-29T09:42:45.921Z</time></trkpt><trkpt lat="39.385501" lon="16.9552839"><ele>305.0</ele><time>2026-03-29T09:42:47.937Z</time></trkpt><trkpt lat="39.3854375" lon="16.9552756"><ele>305.0</ele><time>2026-03-29T09:42:50.92Z</time></trkpt><trkpt lat="39.3853701" lon="16.9552585"><ele>305.0</ele><time>2026-03-29T09:42:52.93Z</time></trkpt><trkpt lat="39.3852886" lon="16.9552383"><ele>305.0</ele><time>2026-03-29T09:42:55.917Z</time></trkpt><trkpt lat="39.3852122" lon="16.9552459"><ele>306.0</ele><time>2026-03-29T09:42:57.897Z</time></trkpt><trkpt lat="39.3850937" lon="16.9552801"><ele>307.0</ele><time>2026-03-29T09:42:59.925Z</time></trkpt><trkpt lat="39.3850275" lon="16.9552901"><ele>308.0</ele><time>2026-03-29T09:43:00.921Z</time></trkpt><trkpt lat="39.3849591" lon="16.9552968"><ele>309.0</ele><time>2026-03-29T09:43:01.927Z</time></trkpt><trkpt lat="39.3848934" lon="16.9553132"><ele>310.0</ele><time>2026-03-29T09:43:02.926Z</time></trkpt><trkpt lat="39.3848273" lon="16.9553311"><ele>311.0</ele><time>2026-03-29T09:43:03.913Z</time></trkpt><trkpt lat="39.3847557" lon="16.9553431"><ele>311.83333333333337</ele><time>2026-03-29T09:43:04.924Z</time></trkpt><trkpt lat="39.3846776" lon="16.9553513"><ele>312.6666666666667</ele><time>2026-03-29T09:43:05.927Z</time></trkpt><trkpt lat="39.3845921" lon="16.9553591"><ele>313.5</ele><time>2026-03-29T09:43:06.923Z</time></trkpt><trkpt lat="39.3845054" lon="16.9553678"><ele>314.3333333333333</ele><time>2026-03-29T09:43:07.918Z</time></trkpt><trkpt lat="39.3844264" lon="16.9553737"><ele>315.16666666666663</ele><time>2026-03-29T09:43:08.915Z</time></trkpt><trkpt lat="39.3843614" lon="16.9553699"><ele>316.0</ele><time>2026-03-29T09:43:09.915Z</time></trkpt><trkpt lat="39.3842863" lon="16.9553621"><ele>316.0</ele><time>2026-03-29T09:43:11.916Z</time></trkpt><trkpt lat="39.3841851" lon="16.9554114"><ele>316.0</ele><time>2026-03-29T09:43:16.914Z</time></trkpt><trkpt lat="39.3840742" lon="16.9554414"><ele>316.0</ele><time>2026-03-29T09:43:18.909Z</time></trkpt><trkpt lat="39.3839651" lon="16.9554556"><ele>316.0</ele><time>2026-03-29T09:43:20.915Z</time></trkpt><trkpt lat="39.3838635" lon="16.9554675"><ele>316.0</ele><time>2026-03-29T09:43:22.918Z</time></trkpt><trkpt lat="39.3837617" lon="16.9554789"><ele>316.0</ele><time>2026-03-29T09:43:24.934Z</time></trkpt><trkpt lat="39.3836662" lon="16.9554806"><ele>316.0</ele><time>2026-03-29T09:43:26.922Z</time></trkpt><trkpt lat="39.3835645" lon="16.9554671"><ele>316.0</ele><time>2026-03-29T09:43:28.92Z</time></trkpt><trkpt lat="39.3834489" lon="16.9554224"><ele>316.0</ele><time>2026-03-29T09:43:30.921Z</time></trkpt><trkpt lat="39.3833849" lon="16.9553956"><ele>316.0</ele><time>2026-03-29T09:43:31.922Z</time></trkpt><trkpt lat="39.3833201" lon="16.9553654"><ele>316.0</ele><time>2026-03-29T09:43:32.921Z</time></trkpt><trkpt lat="39.383251" lon="16.9553377"><ele>316.0</ele><time>2026-03-29T09:43:33.928Z</time></trkpt><trkpt lat="39.3831778" lon="16.9553155"><ele>316.0</ele><time>2026-03-29T09:43:34.933Z</time></trkpt><trkpt lat="39.3831" lon="16.9552988"><ele>316.0</ele><time>2026-03-29T09:43:35.914Z</time></trkpt><trkpt lat="39.3830197" lon="16.9552823"><ele>316.0</ele><time>2026-03-29T09:43:36.924Z</time></trkpt><trkpt lat="39.3829398" lon="16.9552685"><ele>316.0</ele><time>2026-03-29T09:43:37.922Z</time></trkpt><trkpt lat="39.3828596" lon="16.9552544"><ele>315.0</ele><time>2026-03-29T09:43:38.918Z</time></trkpt><trkpt lat="39.3827847" lon="16.9552394"><ele>314.0</ele><time>2026-03-29T09:43:39.92Z</time></trkpt><trkpt lat="39.3827217" lon="16.9552285"><ele>313.0</ele><time>2026-03-29T09:43:40.927Z</time></trkpt><trkpt lat="39.382635" lon="16.9552114"><ele>312.0</ele><time>2026-03-29T09:43:42.914Z</time></trkpt><trkpt lat="39.3825694" lon="16.9551932"><ele>311.0</ele><time>2026-03-29T09:43:44.938Z</time></trkpt><trkpt lat="39.3824817" lon="16.9551727"><ele>310.0</ele><time>2026-03-29T09:43:47.921Z</time></trkpt><trkpt lat="39.3823869" lon="16.9551521"><ele>310.0</ele><time>2026-03-29T09:43:49.925Z</time></trkpt><trkpt lat="39.3822923" lon="16.9551438"><ele>310.0</ele><time>2026-03-29T09:43:51.927Z</time></trkpt><trkpt lat="39.3822025" lon="16.9551261"><ele>310.0</ele><time>2026-03-29T09:43:53.925Z</time></trkpt><trkpt lat="39.3821132" lon="16.9551123"><ele>310.0</ele><time>2026-03-29T09:43:55.933Z</time></trkpt><trkpt lat="39.3820429" lon="16.9551003"><ele>310.0</ele><time>2026-03-29T09:43:58.911Z</time></trkpt><trkpt lat="39.3819561" lon="16.9550928"><ele>310.0</ele><time>2026-03-29T09:44:01.917Z</time></trkpt><trkpt lat="39.3818743" lon="16.9550825"><ele>309.6</ele><time>2026-03-29T09:44:03.923Z</time></trkpt><trkpt lat="39.3817778" lon="16.9550716"><ele>309.2</ele><time>2026-03-29T09:44:05.945Z</time></trkpt><trkpt lat="39.3816791" lon="16.9550773"><ele>308.8</ele><time>2026-03-29T09:44:07.92Z</time></trkpt><trkpt lat="39.3815926" lon="16.9550931"><ele>308.4</ele><time>2026-03-29T09:44:09.922Z</time></trkpt><trkpt lat="39.3815167" lon="16.9551227"><ele>308.0</ele><time>2026-03-29T09:44:12.922Z</time></trkpt><trkpt lat="39.3814289" lon="16.9551414"><ele>308.0</ele><time>2026-03-29T09:44:15.927Z</time></trkpt><trkpt lat="39.3813602" lon="16.9551404"><ele>308.0</ele><time>2026-03-29T09:44:17.933Z</time></trkpt><trkpt lat="39.3812901" lon="16.9551442"><ele>308.0</ele><time>2026-03-29T09:44:19.917Z</time></trkpt><trkpt lat="39.3812142" lon="16.9551456"><ele>308.0</ele><time>2026-03-29T09:44:21.923Z</time></trkpt><trkpt lat="39.3811308" lon="16.9551419"><ele>308.0</ele><time>2026-03-29T09:44:23.928Z</time></trkpt><trkpt lat="39.3810401" lon="16.9551476"><ele>308.0</ele><time>2026-03-29T09:44:25.922Z</time></trkpt><trkpt lat="39.3809447" lon="16.9551853"><ele>308.4</ele><time>2026-03-29T09:44:27.916Z</time></trkpt><trkpt lat="39.380848" lon="16.9552255"><ele>308.8</ele><time>2026-03-29T09:44:29.914Z</time></trkpt><trkpt lat="39.3807556" lon="16.9552418"><ele>309.2</ele><time>2026-03-29T09:44:31.933Z</time></trkpt><trkpt lat="39.3806779" lon="16.955208"><ele>309.6</ele><time>2026-03-29T09:44:33.92Z</time></trkpt><trkpt lat="39.3806011" lon="16.9551532"><ele>310.0</ele><time>2026-03-29T09:44:35.916Z</time></trkpt><trkpt lat="39.3805119" lon="16.9551023"><ele>310.5</ele><time>2026-03-29T09:44:37.917Z</time></trkpt><trkpt lat="39.3804517" lon="16.9550726"><ele>311.0</ele><time>2026-03-29T09:44:39.93Z</time></trkpt><trkpt lat="39.3803632" lon="16.955024"><ele>311.5</ele><time>2026-03-29T09:44:42.923Z</time></trkpt><trkpt lat="39.3802897" lon="16.9549884"><ele>312.0</ele><time>2026-03-29T09:44:44.924Z</time></trkpt><trkpt lat="39.3802307" lon="16.9549588"><ele>312.5</ele><time>2026-03-29T09:44:46.922Z</time></trkpt><trkpt lat="39.3801472" lon="16.9549095"><ele>313.0</ele><time>2026-03-29T09:44:49.922Z</time></trkpt><trkpt lat="39.3800877" lon="16.9548657"><ele>313.0</ele><time>2026-03-29T09:44:52.914Z</time></trkpt><trkpt lat="39.3800281" lon="16.9548227"><ele>313.0</ele><time>2026-03-29T09:44:55.921Z</time></trkpt><trkpt lat="39.3799631" lon="16.9547755"><ele>313.0</ele><time>2026-03-29T09:44:58.916Z</time></trkpt><trkpt lat="39.3799088" lon="16.9547033"><ele>313.0</ele><time>2026-03-29T09:45:04.925Z</time></trkpt><trkpt lat="39.3798459" lon="16.9546745"><ele>313.0</ele><time>2026-03-29T09:45:07.924Z</time></trkpt><trkpt lat="39.3797853" lon="16.9546254"><ele>313.0</ele><time>2026-03-29T09:45:13.926Z</time></trkpt><trkpt lat="39.3797179" lon="16.9545869"><ele>313.0</ele><time>2026-03-29T09:45:19.914Z</time></trkpt><trkpt lat="39.3796514" lon="16.954535"><ele>313.7142857142857</ele><time>2026-03-29T09:45:23.929Z</time></trkpt><trkpt lat="39.379593" lon="16.9544905"><ele>314.42857142857144</ele><time>2026-03-29T09:45:27.924Z</time></trkpt><trkpt lat="39.3795263" lon="16.9544549"><ele>315.1428571428571</ele><time>2026-03-29T09:45:31.924Z</time></trkpt><trkpt lat="39.3794598" lon="16.9544009"><ele>315.8571428571429</ele><time>2026-03-29T09:45:40.93Z</time></trkpt><trkpt lat="39.379387" lon="16.9543518"><ele>316.5714285714286</ele><time>2026-03-29T09:45:51.915Z</time></trkpt><trkpt lat="39.3793224" lon="16.9543059"><ele>317.2857142857143</ele><time>2026-03-29T09:45:56.923Z</time></trkpt><trkpt lat="39.3792618" lon="16.9542669"><ele>318.0</ele><time>2026-03-29T09:46:00.913Z</time></trkpt><trkpt lat="39.3791951" lon="16.9542472"><ele>318.0</ele><time>2026-03-29T09:46:04.928Z</time></trkpt><trkpt lat="39.3791337" lon="16.9542292"><ele>318.0</ele><time>2026-03-29T09:46:09.92Z</time></trkpt><trkpt lat="39.3790662" lon="16.9541937"><ele>318.0</ele><time>2026-03-29T09:46:15.931Z</time></trkpt><trkpt lat="39.379001" lon="16.9541847"><ele>318.0</ele><time>2026-03-29T09:46:21.916Z</time></trkpt><trkpt lat="39.3789437" lon="16.9541384"><ele>318.0</ele><time>2026-03-29T09:46:29.929Z</time></trkpt><trkpt lat="39.3788863" lon="16.9540824"><ele>318.0</ele><time>2026-03-29T09:46:37.916Z</time></trkpt><trkpt lat="39.3788263" lon="16.9540308"><ele>318.0</ele><time>2026-03-29T09:46:45.916Z</time></trkpt><trkpt lat="39.3787757" lon="16.9539654"><ele>315.2857142857143</ele><time>2026-03-29T09:46:54.917Z</time></trkpt><trkpt lat="39.378717" lon="16.9539072"><ele>312.5714285714286</ele><time>2026-03-29T09:47:02.918Z</time></trkpt><trkpt lat="39.3786806" lon="16.9538372"><ele>309.8571428571429</ele><time>2026-03-29T09:47:12.929Z</time></trkpt><trkpt lat="39.3786377" lon="16.9537689"><ele>307.1428571428571</ele><time>2026-03-29T09:47:19.923Z</time></trkpt><trkpt lat="39.3785892" lon="16.9537139"><ele>304.42857142857144</ele><time>2026-03-29T09:47:26.922Z</time></trkpt><trkpt lat="39.3785389" lon="16.9536553"><ele>301.7142857142857</ele><time>2026-03-29T09:47:34.917Z</time></trkpt><trkpt lat="39.3784804" lon="16.9536019"><ele>299.0</ele><time>2026-03-29T09:47:41.916Z</time></trkpt><trkpt lat="39.3784211" lon="16.953555"><ele>299.0</ele><time>2026-03-29T09:47:47.923Z</time></trkpt><trkpt lat="39.378363" lon="16.953517"><ele>299.0</ele><time>2026-03-29T09:47:52.921Z</time></trkpt><trkpt lat="39.3783023" lon="16.9534742"><ele>299.0</ele><time>2026-03-29T09:47:58.925Z</time></trkpt><trkpt lat="39.3782342" lon="16.9534277"><ele>299.0</ele><time>2026-03-29T09:48:02.923Z</time></trkpt><trkpt lat="39.3781707" lon="16.9533801"><ele>299.0</ele><time>2026-03-29T09:48:43.915Z</time></trkpt><trkpt lat="39.3781109" lon="16.9533396"><ele>299.0</ele><time>2026-03-29T09:48:48.91Z</time></trkpt><trkpt lat="39.37805" lon="16.9532968"><ele>299.0</ele><time>2026-03-29T09:49:01.921Z</time></trkpt><trkpt lat="39.3779804" lon="16.9532809"><ele>270.0</ele><time>2026-03-29T09:49:18.903Z</time></trkpt><trkpt lat="39.3779124" lon="16.9532382"><ele>270.0</ele><time>2026-03-29T09:50:16.886Z</time></trkpt></trkseg><trkseg><trkpt lat="39.3804238" lon="16.9300066"><ele>233.00000000000003</ele><time>2026-03-29T10:21:21.907Z</time></trkpt><trkpt lat="39.3804242" lon="16.9299032"><ele>233.0</ele><time>2026-03-29T10:21:46.911Z</time></trkpt><trkpt lat="39.3804339" lon="16.929818"><ele>233.0</ele><time>2026-03-29T10:21:49.914Z</time></trkpt><trkpt lat="39.3804569" lon="16.9296926"><ele>233.0</ele><time>2026-03-29T10:21:52.914Z</time></trkpt><trkpt lat="39.3804845" lon="16.9295823"><ele>233.00000000000003</ele><time>2026-03-29T10:21:54.908Z</time></trkpt><trkpt lat="39.3805125" lon="16.9294716"><ele>233.0</ele><time>2026-03-29T10:21:56.92Z</time></trkpt><trkpt lat="39.3805255" lon="16.9293831"><ele>234.33333333333334</ele><time>2026-03-29T10:21:58.912Z</time></trkpt><trkpt lat="39.3805328" lon="16.9292972"><ele>235.66666666666669</ele><time>2026-03-29T10:22:01.903Z</time></trkpt><trkpt lat="39.3805508" lon="16.9292018"><ele>237.0</ele><time>2026-03-29T10:22:04.911Z</time></trkpt><trkpt lat="39.3805385" lon="16.9291114"><ele>238.33333333333331</ele><time>2026-03-29T10:22:07.899Z</time></trkpt><trkpt lat="39.3805261" lon="16.9290079"><ele>239.66666666666666</ele><time>2026-03-29T10:22:09.912Z</time></trkpt><trkpt lat="39.3805379" lon="16.9288888"><ele>241.0</ele><time>2026-03-29T10:22:11.905Z</time></trkpt><trkpt lat="39.3805466" lon="16.9287459"><ele>241.0</ele><time>2026-03-29T10:22:13.904Z</time></trkpt><trkpt lat="39.3805317" lon="16.928596"><ele>241.00000000000003</ele><time>2026-03-29T10:22:15.913Z</time></trkpt><trkpt lat="39.3805138" lon="16.9284584"><ele>241.00000000000003</ele><time>2026-03-29T10:22:17.911Z</time></trkpt><trkpt lat="39.3804861" lon="16.9283263"><ele>241.0</ele><time>2026-03-29T10:22:19.909Z</time></trkpt><trkpt lat="39.3804393" lon="16.928204"><ele>241.0</ele><time>2026-03-29T10:22:21.912Z</time></trkpt><trkpt lat="39.3803976" lon="16.9280869"><ele>242.33333333333331</ele><time>2026-03-29T10:22:23.906Z</time></trkpt><trkpt lat="39.3803686" lon="16.92801"><ele>243.66666666666666</ele><time>2026-03-29T10:22:25.933Z</time></trkpt><trkpt lat="39.3803167" lon="16.9279388"><ele>245.0</ele><time>2026-03-29T10:22:29.914Z</time></trkpt><trkpt lat="39.3802637" lon="16.9278565"><ele>246.33333333333331</ele><time>2026-03-29T10:22:33.92Z</time></trkpt><trkpt lat="39.3802064" lon="16.9277742"><ele>247.66666666666666</ele><time>2026-03-29T10:22:36.908Z</time></trkpt><trkpt lat="39.3801531" lon="16.927679"><ele>249.0</ele><time>2026-03-29T10:22:39.912Z</time></trkpt><trkpt lat="39.380116" lon="16.9275853"><ele>248.83333333333334</ele><time>2026-03-29T10:22:41.916Z</time></trkpt><trkpt lat="39.3800873" lon="16.9274661"><ele>248.66666666666669</ele><time>2026-03-29T10:22:43.914Z</time></trkpt><trkpt lat="39.380065" lon="16.9273452"><ele>248.5</ele><time>2026-03-29T10:22:45.913Z</time></trkpt><trkpt lat="39.3800484" lon="16.9272242"><ele>248.33333333333334</ele><time>2026-03-29T10:22:47.912Z</time></trkpt><trkpt lat="39.3800425" lon="16.9271359"><ele>248.16666666666669</ele><time>2026-03-29T10:22:49.915Z</time></trkpt><trkpt lat="39.380018" lon="16.9270242"><ele>248.0</ele><time>2026-03-29T10:22:52.913Z</time></trkpt><trkpt lat="39.3799966" lon="16.9269272"><ele>248.0</ele><time>2026-03-29T10:22:54.913Z</time></trkpt><trkpt lat="39.3799943" lon="16.9268182"><ele>248.0</ele><time>2026-03-29T10:22:56.908Z</time></trkpt><trkpt lat="39.3800159" lon="16.9267241"><ele>248.0</ele><time>2026-03-29T10:22:58.911Z</time></trkpt><trkpt lat="39.3800579" lon="16.9266358"><ele>248.0</ele><time>2026-03-29T10:23:00.924Z</time></trkpt><trkpt lat="39.3800856" lon="16.9265074"><ele>248.0</ele><time>2026-03-29T10:23:02.923Z</time></trkpt><trkpt lat="39.3800667" lon="16.9263465"><ele>248.0</ele><time>2026-03-29T10:23:04.903Z</time></trkpt><trkpt lat="39.380055" lon="16.9262633"><ele>248.0</ele><time>2026-03-29T10:23:05.904Z</time></trkpt><trkpt lat="39.3800375" lon="16.9261328"><ele>248.0</ele><time>2026-03-29T10:23:07.915Z</time></trkpt><trkpt lat="39.3800355" lon="16.9259956"><ele>248.0</ele><time>2026-03-29T10:23:09.909Z</time></trkpt><trkpt lat="39.380063" lon="16.9258583"><ele>248.0</ele><time>2026-03-29T10:23:11.909Z</time></trkpt><trkpt lat="39.3800776" lon="16.9257225"><ele>248.5</ele><time>2026-03-29T10:23:13.909Z</time></trkpt><trkpt lat="39.3800712" lon="16.9255694"><ele>249.0</ele><time>2026-03-29T10:23:15.921Z</time></trkpt><trkpt lat="39.3800196" lon="16.9254241"><ele>249.5</ele><time>2026-03-29T10:23:17.907Z</time></trkpt><trkpt lat="39.3799605" lon="16.9252978"><ele>250.0</ele><time>2026-03-29T10:23:19.906Z</time></trkpt><trkpt lat="39.3799224" lon="16.9251779"><ele>249.99999999999997</ele><time>2026-03-29T10:23:21.91Z</time></trkpt><trkpt lat="39.3798963" lon="16.9250716"><ele>250.0</ele><time>2026-03-29T10:23:23.918Z</time></trkpt><trkpt lat="39.3798735" lon="16.9249387"><ele>250.0</ele><time>2026-03-29T10:23:25.909Z</time></trkpt><trkpt lat="39.3798667" lon="16.9248542"><ele>250.0</ele><time>2026-03-29T10:23:26.904Z</time></trkpt><trkpt lat="39.3798632" lon="16.9247626"><ele>249.99999999999997</ele><time>2026-03-29T10:23:27.913Z</time></trkpt><trkpt lat="39.37986" lon="16.9246734"><ele>250.0</ele><time>2026-03-29T10:23:28.914Z</time></trkpt><trkpt lat="39.3798528" lon="16.9245898"><ele>249.66666666666666</ele><time>2026-03-29T10:23:29.906Z</time></trkpt><trkpt lat="39.3798194" lon="16.9244598"><ele>249.33333333333331</ele><time>2026-03-29T10:23:31.913Z</time></trkpt><trkpt lat="39.3797562" lon="16.9243993"><ele>249.0</ele><time>2026-03-29T10:23:33.924Z</time></trkpt><trkpt lat="39.3796846" lon="16.9243405"><ele>248.66666666666669</ele><time>2026-03-29T10:23:35.906Z</time></trkpt><trkpt lat="39.3796107" lon="16.9243001"><ele>248.33333333333334</ele><time>2026-03-29T10:23:37.914Z</time></trkpt><trkpt lat="39.3795475" lon="16.92429"><ele>248.0</ele><time>2026-03-29T10:23:39.902Z</time></trkpt><trkpt lat="39.3794568" lon="16.9242642"><ele>248.0</ele><time>2026-03-29T10:23:42.921Z</time></trkpt><trkpt lat="39.3793895" lon="16.9242442"><ele>248.00000000000003</ele><time>2026-03-29T10:23:44.911Z</time></trkpt><trkpt lat="39.3793092" lon="16.9242256"><ele>248.0</ele><time>2026-03-29T10:23:46.924Z</time></trkpt><trkpt lat="39.379233" lon="16.9242135"><ele>248.0</ele><time>2026-03-29T10:23:48.908Z</time></trkpt><trkpt lat="39.3791728" lon="16.9241867"><ele>248.00000000000003</ele><time>2026-03-29T10:23:51.91Z</time></trkpt><trkpt lat="39.3791179" lon="16.9241435"><ele>248.0</ele><time>2026-03-29T10:24:06.918Z</time></trkpt><trkpt lat="39.3790899" lon="16.9240577"><ele>248.0</ele><time>2026-03-29T10:24:09.918Z</time></trkpt><trkpt lat="39.3790507" lon="16.9239722"><ele>248.33333333333334</ele><time>2026-03-29T10:24:12.909Z</time></trkpt><trkpt lat="39.3789808" lon="16.9238747"><ele>248.66666666666669</ele><time>2026-03-29T10:24:14.916Z</time></trkpt><trkpt lat="39.3789395" lon="16.9238092"><ele>249.0</ele><time>2026-03-29T10:24:15.918Z</time></trkpt><trkpt lat="39.3788963" lon="16.9237282"><ele>249.33333333333331</ele><time>2026-03-29T10:24:16.899Z</time></trkpt><trkpt lat="39.3788517" lon="16.9236287"><ele>249.66666666666666</ele><time>2026-03-29T10:24:17.92Z</time></trkpt><trkpt lat="39.3788023" lon="16.9235171"><ele>250.0</ele><time>2026-03-29T10:24:18.922Z</time></trkpt><trkpt lat="39.3787472" lon="16.9234005"><ele>248.4</ele><time>2026-03-29T10:24:19.904Z</time></trkpt><trkpt lat="39.3786886" lon="16.9232804"><ele>246.8</ele><time>2026-03-29T10:24:20.912Z</time></trkpt><trkpt lat="39.378629" lon="16.923161"><ele>245.2</ele><time>2026-03-29T10:24:21.919Z</time></trkpt><trkpt lat="39.3785666" lon="16.9230541"><ele>243.6</ele><time>2026-03-29T10:24:22.913Z</time></trkpt><trkpt lat="39.3784984" lon="16.9229691"><ele>242.0</ele><time>2026-03-29T10:24:23.908Z</time></trkpt><trkpt lat="39.3784249" lon="16.9229055"><ele>242.00000000000003</ele><time>2026-03-29T10:24:24.9Z</time></trkpt><trkpt lat="39.3783472" lon="16.9228637"><ele>242.0</ele><time>2026-03-29T10:24:25.91Z</time></trkpt><trkpt lat="39.3782677" lon="16.922841"><ele>242.0</ele><time>2026-03-29T10:24:26.904Z</time></trkpt><trkpt lat="39.378191" lon="16.922836"><ele>242.0</ele><time>2026-03-29T10:24:27.906Z</time></trkpt><trkpt lat="39.3781172" lon="16.9228434"><ele>242.00000000000003</ele><time>2026-03-29T10:24:28.91Z</time></trkpt><trkpt lat="39.3780502" lon="16.9228468"><ele>242.0</ele><time>2026-03-29T10:24:29.912Z</time></trkpt><trkpt lat="39.3779338" lon="16.9228237"><ele>243.14285714285714</ele><time>2026-03-29T10:24:31.91Z</time></trkpt><trkpt lat="39.377869" lon="16.9228051"><ele>244.28571428571428</ele><time>2026-03-29T10:24:32.92Z</time></trkpt><trkpt lat="39.3778001" lon="16.9227994"><ele>245.42857142857142</ele><time>2026-03-29T10:24:33.918Z</time></trkpt><trkpt lat="39.3777311" lon="16.9228129"><ele>246.57142857142856</ele><time>2026-03-29T10:24:34.905Z</time></trkpt><trkpt lat="39.3776667" lon="16.9228527"><ele>247.71428571428572</ele><time>2026-03-29T10:24:35.909Z</time></trkpt><trkpt lat="39.3776115" lon="16.9229101"><ele>248.85714285714283</ele><time>2026-03-29T10:24:36.919Z</time></trkpt><trkpt lat="39.3775694" lon="16.9229908"><ele>250.0</ele><time>2026-03-29T10:24:37.91Z</time></trkpt><trkpt lat="39.3775424" lon="16.9231023"><ele>250.0</ele><time>2026-03-29T10:24:38.906Z</time></trkpt><trkpt lat="39.3775274" lon="16.9232411"><ele>250.0</ele><time>2026-03-29T10:24:39.914Z</time></trkpt><trkpt lat="39.3775057" lon="16.9234013"><ele>250.0</ele><time>2026-03-29T10:24:40.918Z</time></trkpt><trkpt lat="39.3774736" lon="16.9235803"><ele>250.0</ele><time>2026-03-29T10:24:41.915Z</time></trkpt><trkpt lat="39.3774392" lon="16.9237663"><ele>249.75</ele><time>2026-03-29T10:24:42.916Z</time></trkpt><trkpt lat="39.377407" lon="16.9239438"><ele>249.5</ele><time>2026-03-29T10:24:43.908Z</time></trkpt><trkpt lat="39.3773774" lon="16.9241285"><ele>249.25</ele><time>2026-03-29T10:24:44.909Z</time></trkpt><trkpt lat="39.3773502" lon="16.9243116"><ele>249.0</ele><time>2026-03-29T10:24:45.91Z</time></trkpt><trkpt lat="39.3773252" lon="16.9244709"><ele>249.0</ele><time>2026-03-29T10:24:46.903Z</time></trkpt><trkpt lat="39.3773011" lon="16.9246076"><ele>248.99999999999997</ele><time>2026-03-29T10:24:47.907Z</time></trkpt><trkpt lat="39.3772748" lon="16.9247227"><ele>248.99999999999997</ele><time>2026-03-29T10:24:48.901Z</time></trkpt><trkpt lat="39.377244" lon="16.9248279"><ele>249.0</ele><time>2026-03-29T10:24:49.902Z</time></trkpt><trkpt lat="39.3772075" lon="16.9249273"><ele>249.0</ele><time>2026-03-29T10:24:50.912Z</time></trkpt><trkpt lat="39.377162" lon="16.9250145"><ele>250.83333333333334</ele><time>2026-03-29T10:24:51.909Z</time></trkpt><trkpt lat="39.3771026" lon="16.925086"><ele>252.66666666666669</ele><time>2026-03-29T10:24:52.901Z</time></trkpt><trkpt lat="39.3770259" lon="16.9251402"><ele>254.5</ele><time>2026-03-29T10:24:53.917Z</time></trkpt><trkpt lat="39.3769401" lon="16.9251715"><ele>256.33333333333337</ele><time>2026-03-29T10:24:54.909Z</time></trkpt><trkpt lat="39.3768556" lon="16.9251771"><ele>258.1666666666667</ele><time>2026-03-29T10:24:55.913Z</time></trkpt><trkpt lat="39.3767755" lon="16.9251616"><ele>260.0</ele><time>2026-03-29T10:24:56.912Z</time></trkpt><trkpt lat="39.3766965" lon="16.9251153"><ele>260.0</ele><time>2026-03-29T10:24:57.903Z</time></trkpt><trkpt lat="39.3766175" lon="16.9250353"><ele>260.0</ele><time>2026-03-29T10:24:58.906Z</time></trkpt><trkpt lat="39.3765359" lon="16.9249395"><ele>260.0</ele><time>2026-03-29T10:24:59.916Z</time></trkpt><trkpt lat="39.3764525" lon="16.9248389"><ele>260.0</ele><time>2026-03-29T10:25:00.919Z</time></trkpt><trkpt lat="39.3763779" lon="16.9247403"><ele>260.0</ele><time>2026-03-29T10:25:01.907Z</time></trkpt><trkpt lat="39.3763162" lon="16.9246415"><ele>258.4</ele><time>2026-03-29T10:25:02.91Z</time></trkpt><trkpt lat="39.3762595" lon="16.9245411"><ele>256.8</ele><time>2026-03-29T10:25:03.915Z</time></trkpt><trkpt lat="39.3762277" lon="16.9244157"><ele>255.2</ele><time>2026-03-29T10:25:04.91Z</time></trkpt><trkpt lat="39.3762065" lon="16.9242766"><ele>253.6</ele><time>2026-03-29T10:25:05.906Z</time></trkpt><trkpt lat="39.376199" lon="16.9241303"><ele>252.0</ele><time>2026-03-29T10:25:06.904Z</time></trkpt><trkpt lat="39.376199" lon="16.9239901"><ele>252.0</ele><time>2026-03-29T10:25:07.911Z</time></trkpt><trkpt lat="39.37619" lon="16.923866"><ele>252.0</ele><time>2026-03-29T10:25:08.911Z</time></trkpt><trkpt lat="39.3761614" lon="16.9237463"><ele>252.0</ele><time>2026-03-29T10:25:09.903Z</time></trkpt><trkpt lat="39.3761106" lon="16.923626"><ele>252.0</ele><time>2026-03-29T10:25:10.902Z</time></trkpt><trkpt lat="39.376044" lon="16.9235066"><ele>252.0</ele><time>2026-03-29T10:25:11.91Z</time></trkpt><trkpt lat="39.3759662" lon="16.9233864"><ele>255.0</ele><time>2026-03-29T10:25:12.927Z</time></trkpt><trkpt lat="39.3758843" lon="16.9232671"><ele>258.0</ele><time>2026-03-29T10:25:13.901Z</time></trkpt><trkpt lat="39.3758031" lon="16.9231425"><ele>261.0</ele><time>2026-03-29T10:25:14.921Z</time></trkpt><trkpt lat="39.3757309" lon="16.9230176"><ele>264.0</ele><time>2026-03-29T10:25:15.91Z</time></trkpt><trkpt lat="39.3756653" lon="16.9228938"><ele>264.0</ele><time>2026-03-29T10:25:16.909Z</time></trkpt><trkpt lat="39.3756018" lon="16.9227704"><ele>264.0</ele><time>2026-03-29T10:25:17.911Z</time></trkpt><trkpt lat="39.3755389" lon="16.9226482"><ele>264.0</ele><time>2026-03-29T10:25:18.916Z</time></trkpt><trkpt lat="39.3754845" lon="16.9225332"><ele>264.0</ele><time>2026-03-29T10:25:19.906Z</time></trkpt><trkpt lat="39.3754415" lon="16.9224315"><ele>264.0</ele><time>2026-03-29T10:25:20.908Z</time></trkpt><trkpt lat="39.3754093" lon="16.9223435"><ele>263.8333333333333</ele><time>2026-03-29T10:25:21.902Z</time></trkpt><trkpt lat="39.3753843" lon="16.9222597"><ele>263.6666666666667</ele><time>2026-03-29T10:25:22.909Z</time></trkpt><trkpt lat="39.3753636" lon="16.9221687"><ele>263.5</ele><time>2026-03-29T10:25:23.915Z</time></trkpt><trkpt lat="39.3753485" lon="16.9220674"><ele>263.33333333333337</ele><time>2026-03-29T10:25:24.905Z</time></trkpt><trkpt lat="39.3753345" lon="16.9219516"><ele>263.1666666666667</ele><time>2026-03-29T10:25:25.9Z</time></trkpt><trkpt lat="39.3753133" lon="16.9218083"><ele>263.0</ele><time>2026-03-29T10:25:26.911Z</time></trkpt><trkpt lat="39.3752847" lon="16.9216396"><ele>263.0</ele><time>2026-03-29T10:25:27.916Z</time></trkpt><trkpt lat="39.3752576" lon="16.9214584"><ele>263.0</ele><time>2026-03-29T10:25:28.906Z</time></trkpt><trkpt lat="39.3752297" lon="16.9212826"><ele>263.0</ele><time>2026-03-29T10:25:29.904Z</time></trkpt><trkpt lat="39.3752043" lon="16.9211152"><ele>263.0</ele><time>2026-03-29T10:25:30.91Z</time></trkpt><trkpt lat="39.3751799" lon="16.920954"><ele>264.0</ele><time>2026-03-29T10:25:31.91Z</time></trkpt><trkpt lat="39.3751535" lon="16.9207892"><ele>265.0</ele><time>2026-03-29T10:25:32.907Z</time></trkpt><trkpt lat="39.3751315" lon="16.920599"><ele>266.0</ele><time>2026-03-29T10:25:33.911Z</time></trkpt><trkpt lat="39.3751238" lon="16.9203815"><ele>267.0</ele><time>2026-03-29T10:25:34.907Z</time></trkpt><trkpt lat="39.3751258" lon="16.9201635"><ele>267.0</ele><time>2026-03-29T10:25:35.912Z</time></trkpt><trkpt lat="39.3751315" lon="16.919946"><ele>267.0</ele><time>2026-03-29T10:25:36.902Z</time></trkpt><trkpt lat="39.3751399" lon="16.919736"><ele>267.0</ele><time>2026-03-29T10:25:37.899Z</time></trkpt><trkpt lat="39.3751429" lon="16.9195459"><ele>267.0</ele><time>2026-03-29T10:25:38.905Z</time></trkpt><trkpt lat="39.3751256" lon="16.9193748"><ele>267.0</ele><time>2026-03-29T10:25:39.907Z</time></trkpt><trkpt lat="39.3750952" lon="16.9192111"><ele>267.0</ele><time>2026-03-29T10:25:40.911Z</time></trkpt><trkpt lat="39.3750299" lon="16.9190652"><ele>267.0</ele><time>2026-03-29T10:25:41.906Z</time></trkpt><trkpt lat="39.3749568" lon="16.9189299"><ele>267.0</ele><time>2026-03-29T10:25:42.908Z</time></trkpt><trkpt lat="39.3748903" lon="16.9188033"><ele>267.0</ele><time>2026-03-29T10:25:43.921Z</time></trkpt><trkpt lat="39.3748485" lon="16.9186764"><ele>267.0</ele><time>2026-03-29T10:25:44.909Z</time></trkpt><trkpt lat="39.3748306" lon="16.9185416"><ele>267.0</ele><time>2026-03-29T10:25:45.915Z</time></trkpt><trkpt lat="39.3748291" lon="16.9183978"><ele>267.0</ele><time>2026-03-29T10:25:46.915Z</time></trkpt><trkpt lat="39.3748423" lon="16.9182325"><ele>267.3333333333333</ele><time>2026-03-29T10:25:47.909Z</time></trkpt><trkpt lat="39.3748606" lon="16.9180389"><ele>267.66666666666663</ele><time>2026-03-29T10:25:48.904Z</time></trkpt><trkpt lat="39.3748816" lon="16.9178108"><ele>268.0</ele><time>2026-03-29T10:25:49.911Z</time></trkpt><trkpt lat="39.3749057" lon="16.917563"><ele>266.0</ele><time>2026-03-29T10:25:50.905Z</time></trkpt><trkpt lat="39.3749276" lon="16.917322"><ele>264.0</ele><time>2026-03-29T10:25:51.91Z</time></trkpt><trkpt lat="39.3749451" lon="16.9170947"><ele>262.0</ele><time>2026-03-29T10:25:52.911Z</time></trkpt><trkpt lat="39.3749624" lon="16.9168746"><ele>260.66666666666663</ele><time>2026-03-29T10:25:53.908Z</time></trkpt><trkpt lat="39.374979" lon="16.9166586"><ele>259.3333333333333</ele><time>2026-03-29T10:25:54.907Z</time></trkpt><trkpt lat="39.3749948" lon="16.916446"><ele>258.0</ele><time>2026-03-29T10:25:55.918Z</time></trkpt><trkpt lat="39.3750125" lon="16.9162378"><ele>258.0</ele><time>2026-03-29T10:25:56.937Z</time></trkpt><trkpt lat="39.3750313" lon="16.9160382"><ele>258.0</ele><time>2026-03-29T10:25:57.903Z</time></trkpt><trkpt lat="39.3750495" lon="16.9158406"><ele>258.0</ele><time>2026-03-29T10:25:58.901Z</time></trkpt><trkpt lat="39.3750668" lon="16.9156529"><ele>257.5</ele><time>2026-03-29T10:25:59.916Z</time></trkpt><trkpt lat="39.3750808" lon="16.9154743"><ele>257.0</ele><time>2026-03-29T10:26:00.911Z</time></trkpt><trkpt lat="39.3750924" lon="16.9153006"><ele>256.5</ele><time>2026-03-29T10:26:01.906Z</time></trkpt><trkpt lat="39.3751059" lon="16.915128"><ele>256.0</ele><time>2026-03-29T10:26:02.908Z</time></trkpt><trkpt lat="39.3751212" lon="16.914955"><ele>255.75</ele><time>2026-03-29T10:26:03.907Z</time></trkpt><trkpt lat="39.3751355" lon="16.9147825"><ele>255.5</ele><time>2026-03-29T10:26:04.908Z</time></trkpt><trkpt lat="39.37515" lon="16.9146105"><ele>255.25</ele><time>2026-03-29T10:26:05.912Z</time></trkpt><trkpt lat="39.3751638" lon="16.9144421"><ele>255.0</ele><time>2026-03-29T10:26:06.901Z</time></trkpt><trkpt lat="39.3751751" lon="16.9142706"><ele>254.25</ele><time>2026-03-29T10:26:07.905Z</time></trkpt><trkpt lat="39.375183" lon="16.9140979"><ele>253.5</ele><time>2026-03-29T10:26:08.906Z</time></trkpt><trkpt lat="39.3751927" lon="16.9139406"><ele>252.75</ele><time>2026-03-29T10:26:09.914Z</time></trkpt><trkpt lat="39.3751953" lon="16.9137958"><ele>252.0</ele><time>2026-03-29T10:26:10.901Z</time></trkpt><trkpt lat="39.3751851" lon="16.9136579"><ele>252.0</ele><time>2026-03-29T10:26:11.904Z</time></trkpt><trkpt lat="39.3751656" lon="16.9135295"><ele>252.0</ele><time>2026-03-29T10:26:12.913Z</time></trkpt><trkpt lat="39.3751305" lon="16.9134189"><ele>252.0</ele><time>2026-03-29T10:26:13.899Z</time></trkpt><trkpt lat="39.3750848" lon="16.9133072"><ele>252.0</ele><time>2026-03-29T10:26:14.9Z</time></trkpt><trkpt lat="39.3750246" lon="16.9131978"><ele>252.0</ele><time>2026-03-29T10:26:15.918Z</time></trkpt><trkpt lat="39.3749528" lon="16.9130717"><ele>252.25</ele><time>2026-03-29T10:26:16.91Z</time></trkpt><trkpt lat="39.3748721" lon="16.9129314"><ele>252.5</ele><time>2026-03-29T10:26:17.916Z</time></trkpt><trkpt lat="39.3747827" lon="16.9127875"><ele>252.75</ele><time>2026-03-29T10:26:18.914Z</time></trkpt><trkpt lat="39.3746876" lon="16.9126353"><ele>253.0</ele><time>2026-03-29T10:26:19.916Z</time></trkpt><trkpt lat="39.3745904" lon="16.9124806"><ele>254.33333333333331</ele><time>2026-03-29T10:26:20.903Z</time></trkpt><trkpt lat="39.3744979" lon="16.9123196"><ele>255.66666666666669</ele><time>2026-03-29T10:26:21.911Z</time></trkpt><trkpt lat="39.3744055" lon="16.9121593"><ele>257.0</ele><time>2026-03-29T10:26:22.914Z</time></trkpt><trkpt lat="39.3743145" lon="16.9119992"><ele>257.0</ele><time>2026-03-29T10:26:23.918Z</time></trkpt><trkpt lat="39.3742226" lon="16.9118376"><ele>257.0</ele><time>2026-03-29T10:26:24.913Z</time></trkpt><trkpt lat="39.374126" lon="16.911665"><ele>257.0</ele><time>2026-03-29T10:26:25.915Z</time></trkpt><trkpt lat="39.3740292" lon="16.9115136"><ele>258.25</ele><time>2026-03-29T10:26:26.907Z</time></trkpt><trkpt lat="39.3739371" lon="16.9113589"><ele>259.5</ele><time>2026-03-29T10:26:27.918Z</time></trkpt><trkpt lat="39.3738503" lon="16.9112021"><ele>260.75</ele><time>2026-03-29T10:26:28.911Z</time></trkpt><trkpt lat="39.373766" lon="16.9110534"><ele>262.0</ele><time>2026-03-29T10:26:29.903Z</time></trkpt><trkpt lat="39.373685" lon="16.9109072"><ele>263.25</ele><time>2026-03-29T10:26:30.91Z</time></trkpt><trkpt lat="39.3736118" lon="16.9107626"><ele>264.5</ele><time>2026-03-29T10:26:31.91Z</time></trkpt><trkpt lat="39.3735541" lon="16.9106182"><ele>265.75</ele><time>2026-03-29T10:26:32.904Z</time></trkpt><trkpt lat="39.3735101" lon="16.9104739"><ele>267.0</ele><time>2026-03-29T10:26:33.902Z</time></trkpt><trkpt lat="39.3734719" lon="16.9103216"><ele>267.0</ele><time>2026-03-29T10:26:34.908Z</time></trkpt><trkpt lat="39.3734369" lon="16.9101665"><ele>267.0</ele><time>2026-03-29T10:26:35.918Z</time></trkpt><trkpt lat="39.3734039" lon="16.9100173"><ele>267.0</ele><time>2026-03-29T10:26:36.918Z</time></trkpt><trkpt lat="39.3733684" lon="16.9098712"><ele>267.0</ele><time>2026-03-29T10:26:37.91Z</time></trkpt><trkpt lat="39.3733283" lon="16.9097197"><ele>267.2</ele><time>2026-03-29T10:26:38.911Z</time></trkpt><trkpt lat="39.3732905" lon="16.9095706"><ele>267.4</ele><time>2026-03-29T10:26:39.918Z</time></trkpt><trkpt lat="39.3732586" lon="16.9094324"><ele>267.6</ele><time>2026-03-29T10:26:40.916Z</time></trkpt><trkpt lat="39.3732343" lon="16.9093003"><ele>267.8</ele><time>2026-03-29T10:26:41.913Z</time></trkpt><trkpt lat="39.3732212" lon="16.9091676"><ele>268.0</ele><time>2026-03-29T10:26:42.906Z</time></trkpt><trkpt lat="39.3732239" lon="16.9090298"><ele>268.5</ele><time>2026-03-29T10:26:43.906Z</time></trkpt><trkpt lat="39.3732445" lon="16.9088877"><ele>269.0</ele><time>2026-03-29T10:26:44.914Z</time></trkpt><trkpt lat="39.3732791" lon="16.9087424"><ele>269.5</ele><time>2026-03-29T10:26:45.906Z</time></trkpt><trkpt lat="39.3733217" lon="16.9085896"><ele>270.0</ele><time>2026-03-29T10:26:46.898Z</time></trkpt><trkpt lat="39.3733666" lon="16.9084299"><ele>268.0</ele><time>2026-03-29T10:26:47.907Z</time></trkpt><trkpt lat="39.3734118" lon="16.9082666"><ele>266.0</ele><time>2026-03-29T10:26:48.913Z</time></trkpt><trkpt lat="39.3734572" lon="16.9081006"><ele>264.0</ele><time>2026-03-29T10:26:49.905Z</time></trkpt><trkpt lat="39.3735041" lon="16.9079342"><ele>262.0</ele><time>2026-03-29T10:26:50.901Z</time></trkpt><trkpt lat="39.3735506" lon="16.907777"><ele>262.0</ele><time>2026-03-29T10:26:51.908Z</time></trkpt><trkpt lat="39.3735927" lon="16.9076353"><ele>262.0</ele><time>2026-03-29T10:26:52.907Z</time></trkpt><trkpt lat="39.3736269" lon="16.9075061"><ele>262.0</ele><time>2026-03-29T10:26:53.907Z</time></trkpt><trkpt lat="39.3736583" lon="16.9073886"><ele>262.0</ele><time>2026-03-29T10:26:54.909Z</time></trkpt><trkpt lat="39.3736941" lon="16.9072823"><ele>262.0</ele><time>2026-03-29T10:26:55.902Z</time></trkpt><trkpt lat="39.373725" lon="16.9071722"><ele>261.2</ele><time>2026-03-29T10:26:56.962Z</time></trkpt><trkpt lat="39.3737395" lon="16.9070566"><ele>260.4</ele><time>2026-03-29T10:26:57.929Z</time></trkpt><trkpt lat="39.3737452" lon="16.9069322"><ele>259.6</ele><time>2026-03-29T10:26:58.949Z</time></trkpt><trkpt lat="39.3737439" lon="16.906809"><ele>258.8</ele><time>2026-03-29T10:26:59.972Z</time></trkpt><trkpt lat="39.3737357" lon="16.9066966"><ele>258.0</ele><time>2026-03-29T10:27:00.958Z</time></trkpt><trkpt lat="39.3737202" lon="16.9065908"><ele>258.0</ele><time>2026-03-29T10:27:02.026Z</time></trkpt><trkpt lat="39.3736623" lon="16.9063792"><ele>258.0</ele><time>2026-03-29T10:27:03.98Z</time></trkpt><trkpt lat="39.3736176" lon="16.9062729"><ele>258.0</ele><time>2026-03-29T10:27:04.941Z</time></trkpt><trkpt lat="39.3735636" lon="16.9061735"><ele>258.0</ele><time>2026-03-29T10:27:05.934Z</time></trkpt><trkpt lat="39.3735057" lon="16.9060873"><ele>258.0</ele><time>2026-03-29T10:27:06.926Z</time></trkpt><trkpt lat="39.3734389" lon="16.9060249"><ele>258.0</ele><time>2026-03-29T10:27:07.949Z</time></trkpt><trkpt lat="39.3733765" lon="16.9059633"><ele>258.0</ele><time>2026-03-29T10:27:08.93Z</time></trkpt><trkpt lat="39.3733236" lon="16.9058837"><ele>258.0</ele><time>2026-03-29T10:27:09.911Z</time></trkpt><trkpt lat="39.3732766" lon="16.9058003"><ele>258.0</ele><time>2026-03-29T10:27:10.936Z</time></trkpt><trkpt lat="39.3732301" lon="16.9057204"><ele>258.0</ele><time>2026-03-29T10:27:11.9Z</time></trkpt><trkpt lat="39.3731844" lon="16.905641"><ele>258.0</ele><time>2026-03-29T10:27:12.928Z</time></trkpt><trkpt lat="39.3731486" lon="16.9055693"><ele>258.5</ele><time>2026-03-29T10:27:13.921Z</time></trkpt><trkpt lat="39.3730976" lon="16.9054333"><ele>259.0</ele><time>2026-03-29T10:27:15.915Z</time></trkpt><trkpt lat="39.3730729" lon="16.9053559"><ele>259.5</ele><time>2026-03-29T10:27:16.915Z</time></trkpt><trkpt lat="39.3730447" lon="16.9052747"><ele>260.0</ele><time>2026-03-29T10:27:17.91Z</time></trkpt><trkpt lat="39.3730159" lon="16.9051903"><ele>260.5</ele><time>2026-03-29T10:27:18.921Z</time></trkpt><trkpt lat="39.3729855" lon="16.9050996"><ele>261.0</ele><time>2026-03-29T10:27:19.91Z</time></trkpt><trkpt lat="39.3729466" lon="16.9049993"><ele>264.2</ele><time>2026-03-29T10:27:20.97Z</time></trkpt><trkpt lat="39.3729036" lon="16.9048996"><ele>267.40000000000003</ele><time>2026-03-29T10:27:21.937Z</time></trkpt><trkpt lat="39.3728526" lon="16.9047975"><ele>270.6</ele><time>2026-03-29T10:27:22.904Z</time></trkpt><trkpt lat="39.3727973" lon="16.9046852"><ele>273.8</ele><time>2026-03-29T10:27:23.929Z</time></trkpt><trkpt lat="39.372736" lon="16.9045534"><ele>277.0</ele><time>2026-03-29T10:27:24.922Z</time></trkpt><trkpt lat="39.3726719" lon="16.9043975"><ele>278.0</ele><time>2026-03-29T10:27:25.951Z</time></trkpt><trkpt lat="39.3726139" lon="16.9042412"><ele>279.0</ele><time>2026-03-29T10:27:26.904Z</time></trkpt><trkpt lat="39.3725601" lon="16.904089"><ele>280.0</ele><time>2026-03-29T10:27:27.909Z</time></trkpt><trkpt lat="39.3725097" lon="16.9039521"><ele>281.0</ele><time>2026-03-29T10:27:28.915Z</time></trkpt><trkpt lat="39.372461" lon="16.9038282"><ele>281.0</ele><time>2026-03-29T10:27:29.914Z</time></trkpt><trkpt lat="39.3724096" lon="16.9037176"><ele>281.0</ele><time>2026-03-29T10:27:30.925Z</time></trkpt><trkpt lat="39.3723558" lon="16.9036185"><ele>281.0</ele><time>2026-03-29T10:27:31.916Z</time></trkpt><trkpt lat="39.3722961" lon="16.9035249"><ele>281.0</ele><time>2026-03-29T10:27:32.915Z</time></trkpt><trkpt lat="39.3722335" lon="16.9034315"><ele>281.0</ele><time>2026-03-29T10:27:33.92Z</time></trkpt><trkpt lat="39.3721688" lon="16.9033406"><ele>285.40000000000003</ele><time>2026-03-29T10:27:34.916Z</time></trkpt><trkpt lat="39.3720976" lon="16.9032549"><ele>289.8</ele><time>2026-03-29T10:27:35.912Z</time></trkpt><trkpt lat="39.3720293" lon="16.9031702"><ele>294.20000000000005</ele><time>2026-03-29T10:27:36.911Z</time></trkpt><trkpt lat="39.3719527" lon="16.903085"><ele>298.6</ele><time>2026-03-29T10:27:37.915Z</time></trkpt><trkpt lat="39.3718732" lon="16.9030064"><ele>303.0</ele><time>2026-03-29T10:27:38.908Z</time></trkpt><trkpt lat="39.3717886" lon="16.9029359"><ele>303.0</ele><time>2026-03-29T10:27:39.908Z</time></trkpt><trkpt lat="39.3716994" lon="16.9028697"><ele>303.0</ele><time>2026-03-29T10:27:40.908Z</time></trkpt><trkpt lat="39.371611" lon="16.9028022"><ele>303.0</ele><time>2026-03-29T10:27:41.905Z</time></trkpt><trkpt lat="39.371519" lon="16.9027299"><ele>303.0</ele><time>2026-03-29T10:27:42.913Z</time></trkpt><trkpt lat="39.3714242" lon="16.9026679"><ele>303.0</ele><time>2026-03-29T10:27:43.912Z</time></trkpt><trkpt lat="39.3713266" lon="16.9026109"><ele>308.5</ele><time>2026-03-29T10:27:44.91Z</time></trkpt><trkpt lat="39.3712257" lon="16.9025459"><ele>314.0</ele><time>2026-03-29T10:27:45.905Z</time></trkpt><trkpt lat="39.3711205" lon="16.9024746"><ele>319.5</ele><time>2026-03-29T10:27:46.912Z</time></trkpt><trkpt lat="39.3710079" lon="16.9023993"><ele>325.0</ele><time>2026-03-29T10:27:47.91Z</time></trkpt><trkpt lat="39.3708919" lon="16.9023245"><ele>325.0</ele><time>2026-03-29T10:27:48.904Z</time></trkpt><trkpt lat="39.3707829" lon="16.9022525"><ele>325.0</ele><time>2026-03-29T10:27:49.907Z</time></trkpt><trkpt lat="39.3706862" lon="16.9021907"><ele>325.0</ele><time>2026-03-29T10:27:50.909Z</time></trkpt><trkpt lat="39.3705981" lon="16.9021142"><ele>325.0</ele><time>2026-03-29T10:27:51.921Z</time></trkpt><trkpt lat="39.3705192" lon="16.9020208"><ele>325.0</ele><time>2026-03-29T10:27:52.907Z</time></trkpt><trkpt lat="39.3704398" lon="16.9019145"><ele>328.0</ele><time>2026-03-29T10:27:53.902Z</time></trkpt><trkpt lat="39.3703566" lon="16.9018042"><ele>331.0</ele><time>2026-03-29T10:27:54.91Z</time></trkpt><trkpt lat="39.370269" lon="16.9016969"><ele>334.0</ele><time>2026-03-29T10:27:55.905Z</time></trkpt><trkpt lat="39.3701825" lon="16.9015982"><ele>337.0</ele><time>2026-03-29T10:27:56.906Z</time></trkpt><trkpt lat="39.3701043" lon="16.9015151"><ele>338.40000000000003</ele><time>2026-03-29T10:27:57.912Z</time></trkpt><trkpt lat="39.3700444" lon="16.9014426"><ele>339.8</ele><time>2026-03-29T10:27:58.91Z</time></trkpt><trkpt lat="39.3700126" lon="16.9013699"><ele>341.2</ele><time>2026-03-29T10:27:59.904Z</time></trkpt><trkpt lat="39.3700161" lon="16.9012024"><ele>342.6</ele><time>2026-03-29T10:28:01.899Z</time></trkpt><trkpt lat="39.3700261" lon="16.9010882"><ele>344.0</ele><time>2026-03-29T10:28:02.912Z</time></trkpt><trkpt lat="39.370053" lon="16.9009483"><ele>345.4</ele><time>2026-03-29T10:28:03.918Z</time></trkpt><trkpt lat="39.3700849" lon="16.9008159"><ele>346.79999999999995</ele><time>2026-03-29T10:28:04.903Z</time></trkpt><trkpt lat="39.3701084" lon="16.9006944"><ele>348.20000000000005</ele><time>2026-03-29T10:28:05.908Z</time></trkpt><trkpt lat="39.3701102" lon="16.9005722"><ele>349.6</ele><time>2026-03-29T10:28:06.917Z</time></trkpt><trkpt lat="39.3701055" lon="16.9004316"><ele>351.0</ele><time>2026-03-29T10:28:07.903Z</time></trkpt><trkpt lat="39.3701037" lon="16.9002689"><ele>351.0</ele><time>2026-03-29T10:28:08.905Z</time></trkpt><trkpt lat="39.3701084" lon="16.9001227"><ele>351.0</ele><time>2026-03-29T10:28:09.92Z</time></trkpt><trkpt lat="39.3701077" lon="16.9000085"><ele>351.0</ele><time>2026-03-29T10:28:10.91Z</time></trkpt><trkpt lat="39.3700878" lon="16.899906"><ele>351.0</ele><time>2026-03-29T10:28:11.922Z</time></trkpt><trkpt lat="39.3700451" lon="16.8998067"><ele>351.0</ele><time>2026-03-29T10:28:12.907Z</time></trkpt><trkpt lat="39.3699876" lon="16.8997182"><ele>352.0</ele><time>2026-03-29T10:28:13.911Z</time></trkpt><trkpt lat="39.3699308" lon="16.8996636"><ele>353.0</ele><time>2026-03-29T10:28:14.908Z</time></trkpt><trkpt lat="39.3698212" lon="16.899668"><ele>354.0</ele><time>2026-03-29T10:28:16.907Z</time></trkpt><trkpt lat="39.3697546" lon="16.8997285"><ele>355.0</ele><time>2026-03-29T10:28:17.909Z</time></trkpt><trkpt lat="39.3696655" lon="16.899811"><ele>356.0</ele><time>2026-03-29T10:28:18.918Z</time></trkpt><trkpt lat="39.36956" lon="16.8999071"><ele>360.0</ele><time>2026-03-29T10:28:19.913Z</time></trkpt><trkpt lat="39.3694436" lon="16.9000053"><ele>364.0</ele><time>2026-03-29T10:28:20.898Z</time></trkpt><trkpt lat="39.3693218" lon="16.9000982"><ele>368.0</ele><time>2026-03-29T10:28:21.903Z</time></trkpt><trkpt lat="39.3692114" lon="16.9001725"><ele>372.0</ele><time>2026-03-29T10:28:22.922Z</time></trkpt><trkpt lat="39.3691207" lon="16.9002219"><ele>372.0</ele><time>2026-03-29T10:28:23.909Z</time></trkpt><trkpt lat="39.3690453" lon="16.9002353"><ele>372.0</ele><time>2026-03-29T10:28:24.915Z</time></trkpt><trkpt lat="39.3689352" lon="16.9001619"><ele>372.0</ele><time>2026-03-29T10:28:26.913Z</time></trkpt><trkpt lat="39.3688877" lon="16.900079"><ele>372.0</ele><time>2026-03-29T10:28:27.904Z</time></trkpt><trkpt lat="39.3688247" lon="16.9000121"><ele>372.0</ele><time>2026-03-29T10:28:28.92Z</time></trkpt><trkpt lat="39.3687525" lon="16.8999724"><ele>372.0</ele><time>2026-03-29T10:28:29.914Z</time></trkpt><trkpt lat="39.3686703" lon="16.8999617"><ele>376.20000000000005</ele><time>2026-03-29T10:28:30.92Z</time></trkpt><trkpt lat="39.368589" lon="16.8999755"><ele>380.4</ele><time>2026-03-29T10:28:31.909Z</time></trkpt><trkpt lat="39.3685057" lon="16.9000127"><ele>384.6</ele><time>2026-03-29T10:28:32.909Z</time></trkpt><trkpt lat="39.3684202" lon="16.9000737"><ele>388.79999999999995</ele><time>2026-03-29T10:28:33.913Z</time></trkpt><trkpt lat="39.3683319" lon="16.9001449"><ele>393.0</ele><time>2026-03-29T10:28:34.917Z</time></trkpt><trkpt lat="39.368244" lon="16.900227"><ele>393.0</ele><time>2026-03-29T10:28:35.9Z</time></trkpt><trkpt lat="39.3681614" lon="16.900322"><ele>393.0</ele><time>2026-03-29T10:28:36.906Z</time></trkpt><trkpt lat="39.3680955" lon="16.9004268"><ele>393.0</ele><time>2026-03-29T10:28:37.912Z</time></trkpt><trkpt lat="39.3680384" lon="16.900527"><ele>393.0</ele><time>2026-03-29T10:28:38.906Z</time></trkpt><trkpt lat="39.3679977" lon="16.9006213"><ele>393.0</ele><time>2026-03-29T10:28:39.908Z</time></trkpt><trkpt lat="39.3679571" lon="16.9007168"><ele>393.8333333333333</ele><time>2026-03-29T10:28:40.919Z</time></trkpt><trkpt lat="39.3679138" lon="16.900812"><ele>394.66666666666663</ele><time>2026-03-29T10:28:41.912Z</time></trkpt><trkpt lat="39.3678673" lon="16.9009091"><ele>395.5</ele><time>2026-03-29T10:28:42.91Z</time></trkpt><trkpt lat="39.3678139" lon="16.9009992"><ele>396.3333333333333</ele><time>2026-03-29T10:28:43.916Z</time></trkpt><trkpt lat="39.3677499" lon="16.9010812"><ele>397.16666666666663</ele><time>2026-03-29T10:28:44.913Z</time></trkpt><trkpt lat="39.3676759" lon="16.9011445"><ele>398.0</ele><time>2026-03-29T10:28:45.912Z</time></trkpt><trkpt lat="39.3676015" lon="16.9011834"><ele>397.99999999999994</ele><time>2026-03-29T10:28:46.917Z</time></trkpt><trkpt lat="39.367531" lon="16.901196"><ele>398.0</ele><time>2026-03-29T10:28:47.91Z</time></trkpt><trkpt lat="39.3674598" lon="16.9011785"><ele>398.0</ele><time>2026-03-29T10:28:48.907Z</time></trkpt><trkpt lat="39.3673845" lon="16.9011482"><ele>398.0</ele><time>2026-03-29T10:28:49.917Z</time></trkpt><trkpt lat="39.3673086" lon="16.9011305"><ele>397.99999999999994</ele><time>2026-03-29T10:28:50.91Z</time></trkpt><trkpt lat="39.3672298" lon="16.9011356"><ele>398.0</ele><time>2026-03-29T10:28:51.903Z</time></trkpt><trkpt lat="39.3671485" lon="16.9011625"><ele>400.49999999999994</ele><time>2026-03-29T10:28:52.907Z</time></trkpt><trkpt lat="39.3670713" lon="16.9011932"><ele>403.0</ele><time>2026-03-29T10:28:53.906Z</time></trkpt><trkpt lat="39.3669995" lon="16.9012216"><ele>405.5</ele><time>2026-03-29T10:28:54.91Z</time></trkpt><trkpt lat="39.3669343" lon="16.9012351"><ele>408.0</ele><time>2026-03-29T10:28:55.911Z</time></trkpt><trkpt lat="39.3668116" lon="16.9012385"><ele>410.49999999999994</ele><time>2026-03-29T10:28:57.901Z</time></trkpt><trkpt lat="39.3667467" lon="16.9012241"><ele>413.0</ele><time>2026-03-29T10:28:58.909Z</time></trkpt><trkpt lat="39.3666781" lon="16.9012044"><ele>412.99999999999994</ele><time>2026-03-29T10:28:59.916Z</time></trkpt><trkpt lat="39.3666099" lon="16.9011581"><ele>413.0</ele><time>2026-03-29T10:29:00.908Z</time></trkpt><trkpt lat="39.3665512" lon="16.9010809"><ele>413.0</ele><time>2026-03-29T10:29:01.905Z</time></trkpt><trkpt lat="39.3664936" lon="16.9009913"><ele>413.0</ele><time>2026-03-29T10:29:02.911Z</time></trkpt><trkpt lat="39.3664363" lon="16.900901"><ele>412.99999999999994</ele><time>2026-03-29T10:29:03.922Z</time></trkpt><trkpt lat="39.3663814" lon="16.9008111"><ele>413.0</ele><time>2026-03-29T10:29:04.903Z</time></trkpt><trkpt lat="39.3663386" lon="16.9007103"><ele>418.49999999999994</ele><time>2026-03-29T10:29:05.899Z</time></trkpt><trkpt lat="39.366316" lon="16.9005995"><ele>424.0</ele><time>2026-03-29T10:29:06.921Z</time></trkpt><trkpt lat="39.3663211" lon="16.900488"><ele>429.5</ele><time>2026-03-29T10:29:07.91Z</time></trkpt><trkpt lat="39.3663523" lon="16.9003811"><ele>435.0</ele><time>2026-03-29T10:29:08.906Z</time></trkpt><trkpt lat="39.3663739" lon="16.9002728"><ele>440.49999999999994</ele><time>2026-03-29T10:29:09.905Z</time></trkpt><trkpt lat="39.3663683" lon="16.9001649"><ele>446.0</ele><time>2026-03-29T10:29:10.912Z</time></trkpt><trkpt lat="39.3663379" lon="16.9000705"><ele>448.0</ele><time>2026-03-29T10:29:11.908Z</time></trkpt><trkpt lat="39.3662979" lon="16.899998"><ele>450.0</ele><time>2026-03-29T10:29:12.905Z</time></trkpt><trkpt lat="39.3662535" lon="16.8999293"><ele>452.0</ele><time>2026-03-29T10:29:13.917Z</time></trkpt><trkpt lat="39.3661898" lon="16.8998826"><ele>454.0</ele><time>2026-03-29T10:29:14.913Z</time></trkpt><trkpt lat="39.3661224" lon="16.8998309"><ele>456.0</ele><time>2026-03-29T10:29:15.9Z</time></trkpt><trkpt lat="39.3660606" lon="16.8997779"><ele>457.99999999999994</ele><time>2026-03-29T10:29:16.913Z</time></trkpt><trkpt lat="39.3660063" lon="16.8997354"><ele>459.99999999999994</ele><time>2026-03-29T10:29:17.92Z</time></trkpt><trkpt lat="39.3659084" lon="16.8996828"><ele>460.0</ele><time>2026-03-29T10:29:19.901Z</time></trkpt><trkpt lat="39.3657902" lon="16.8996663"><ele>460.0</ele><time>2026-03-29T10:29:21.908Z</time></trkpt><trkpt lat="39.3656587" lon="16.899672"><ele>460.0</ele><time>2026-03-29T10:29:23.918Z</time></trkpt><trkpt lat="39.3655487" lon="16.8996854"><ele>460.0</ele><time>2026-03-29T10:29:25.905Z</time></trkpt><trkpt lat="39.3654443" lon="16.8996863"><ele>461.00000000000006</ele><time>2026-03-29T10:29:27.91Z</time></trkpt><trkpt lat="39.3653241" lon="16.8996841"><ele>462.0</ele><time>2026-03-29T10:29:29.905Z</time></trkpt><trkpt lat="39.3652623" lon="16.8996585"><ele>463.0</ele><time>2026-03-29T10:29:30.904Z</time></trkpt><trkpt lat="39.365197" lon="16.8996212"><ele>464.0</ele><time>2026-03-29T10:29:31.909Z</time></trkpt><trkpt lat="39.3651192" lon="16.8996063"><ele>465.00000000000006</ele><time>2026-03-29T10:29:32.909Z</time></trkpt><trkpt lat="39.3650318" lon="16.8996152"><ele>466.0</ele><time>2026-03-29T10:29:33.898Z</time></trkpt><trkpt lat="39.3649336" lon="16.8996481"><ele>466.0</ele><time>2026-03-29T10:29:34.908Z</time></trkpt><trkpt lat="39.3648375" lon="16.8996808"><ele>466.0</ele><time>2026-03-29T10:29:35.913Z</time></trkpt><trkpt lat="39.3647472" lon="16.8997145"><ele>466.0</ele><time>2026-03-29T10:29:36.905Z</time></trkpt><trkpt lat="39.364656" lon="16.8997379"><ele>466.0</ele><time>2026-03-29T10:29:37.907Z</time></trkpt><trkpt lat="39.3645627" lon="16.899747"><ele>466.0</ele><time>2026-03-29T10:29:38.911Z</time></trkpt><trkpt lat="39.3644704" lon="16.8997497"><ele>467.6666666666667</ele><time>2026-03-29T10:29:39.915Z</time></trkpt><trkpt lat="39.3643799" lon="16.8997412"><ele>469.33333333333337</ele><time>2026-03-29T10:29:40.91Z</time></trkpt><trkpt lat="39.3642904" lon="16.899729"><ele>471.0</ele><time>2026-03-29T10:29:41.903Z</time></trkpt><trkpt lat="39.3642042" lon="16.8997213"><ele>472.66666666666663</ele><time>2026-03-29T10:29:42.905Z</time></trkpt><trkpt lat="39.3641221" lon="16.8997074"><ele>474.3333333333333</ele><time>2026-03-29T10:29:43.907Z</time></trkpt><trkpt lat="39.3640422" lon="16.8996769"><ele>476.0</ele><time>2026-03-29T10:29:44.908Z</time></trkpt><trkpt lat="39.3639614" lon="16.8996349"><ele>475.99999999999994</ele><time>2026-03-29T10:29:45.913Z</time></trkpt><trkpt lat="39.3638807" lon="16.8996066"><ele>476.0</ele><time>2026-03-29T10:29:46.902Z</time></trkpt><trkpt lat="39.3637983" lon="16.8996061"><ele>476.0</ele><time>2026-03-29T10:29:47.901Z</time></trkpt><trkpt lat="39.3637152" lon="16.8996173"><ele>476.0</ele><time>2026-03-29T10:29:48.91Z</time></trkpt><trkpt lat="39.3636328" lon="16.899615"><ele>475.99999999999994</ele><time>2026-03-29T10:29:49.921Z</time></trkpt><trkpt lat="39.3635532" lon="16.8996007"><ele>476.0</ele><time>2026-03-29T10:29:50.899Z</time></trkpt><trkpt lat="39.3634708" lon="16.8995856"><ele>477.20000000000005</ele><time>2026-03-29T10:29:51.906Z</time></trkpt><trkpt lat="39.3633855" lon="16.8995757"><ele>478.40000000000003</ele><time>2026-03-29T10:29:52.914Z</time></trkpt><trkpt lat="39.3632967" lon="16.8995681"><ele>479.6</ele><time>2026-03-29T10:29:53.906Z</time></trkpt><trkpt lat="39.3632027" lon="16.8995607"><ele>480.8</ele><time>2026-03-29T10:29:54.909Z</time></trkpt><trkpt lat="39.3631061" lon="16.8995557"><ele>482.0</ele><time>2026-03-29T10:29:55.914Z</time></trkpt><trkpt lat="39.3630087" lon="16.8995476"><ele>482.20000000000005</ele><time>2026-03-29T10:29:56.914Z</time></trkpt><trkpt lat="39.3629136" lon="16.8995245"><ele>482.40000000000003</ele><time>2026-03-29T10:29:57.936Z</time></trkpt><trkpt lat="39.3628251" lon="16.8994817"><ele>482.59999999999997</ele><time>2026-03-29T10:29:58.925Z</time></trkpt><trkpt lat="39.3627409" lon="16.8994219"><ele>482.79999999999995</ele><time>2026-03-29T10:29:59.904Z</time></trkpt><trkpt lat="39.3626613" lon="16.899353"><ele>483.0</ele><time>2026-03-29T10:30:00.932Z</time></trkpt><trkpt lat="39.3625848" lon="16.8992829"><ele>485.0</ele><time>2026-03-29T10:30:01.912Z</time></trkpt><trkpt lat="39.3625143" lon="16.8992061"><ele>487.0</ele><time>2026-03-29T10:30:02.899Z</time></trkpt><trkpt lat="39.3624449" lon="16.899125"><ele>489.0</ele><time>2026-03-29T10:30:03.913Z</time></trkpt><trkpt lat="39.3623832" lon="16.8990502"><ele>491.0</ele><time>2026-03-29T10:30:04.923Z</time></trkpt><trkpt lat="39.3623288" lon="16.8989894"><ele>493.0</ele><time>2026-03-29T10:30:05.904Z</time></trkpt><trkpt lat="39.3622946" lon="16.8988639"><ele>495.0</ele><time>2026-03-29T10:30:07.911Z</time></trkpt><trkpt lat="39.3623991" lon="16.8988112"><ele>495.0</ele><time>2026-03-29T10:30:09.916Z</time></trkpt><trkpt lat="39.3624856" lon="16.8987343"><ele>495.0</ele><time>2026-03-29T10:30:11.91Z</time></trkpt><trkpt lat="39.362424" lon="16.8986309"><ele>495.0</ele><time>2026-03-29T10:30:13.909Z</time></trkpt><trkpt lat="39.3623552" lon="16.8985769"><ele>495.0</ele><time>2026-03-29T10:30:14.911Z</time></trkpt><trkpt lat="39.3622796" lon="16.8985087"><ele>495.0</ele><time>2026-03-29T10:30:15.91Z</time></trkpt><trkpt lat="39.3622013" lon="16.8984342"><ele>496.2</ele><time>2026-03-29T10:30:16.901Z</time></trkpt><trkpt lat="39.3621259" lon="16.8983578"><ele>497.4</ele><time>2026-03-29T10:30:17.904Z</time></trkpt><trkpt lat="39.3620546" lon="16.8982776"><ele>498.6</ele><time>2026-03-29T10:30:18.911Z</time></trkpt><trkpt lat="39.3619956" lon="16.8981901"><ele>499.8</ele><time>2026-03-29T10:30:19.911Z</time></trkpt><trkpt lat="39.3619492" lon="16.8980858"><ele>501.0</ele><time>2026-03-29T10:30:20.909Z</time></trkpt><trkpt lat="39.3619078" lon="16.8979671"><ele>501.0</ele><time>2026-03-29T10:30:21.904Z</time></trkpt><trkpt lat="39.3618645" lon="16.8978393"><ele>501.0</ele><time>2026-03-29T10:30:22.907Z</time></trkpt><trkpt lat="39.3618218" lon="16.8977109"><ele>501.0</ele><time>2026-03-29T10:30:23.912Z</time></trkpt><trkpt lat="39.3617831" lon="16.8975879"><ele>501.0</ele><time>2026-03-29T10:30:24.903Z</time></trkpt><trkpt lat="39.3617488" lon="16.8974675"><ele>501.0</ele><time>2026-03-29T10:30:25.906Z</time></trkpt><trkpt lat="39.3617239" lon="16.8973547"><ele>502.1666666666667</ele><time>2026-03-29T10:30:26.913Z</time></trkpt><trkpt lat="39.3617141" lon="16.8972493"><ele>503.33333333333337</ele><time>2026-03-29T10:30:27.91Z</time></trkpt><trkpt lat="39.3617247" lon="16.897145"><ele>504.5</ele><time>2026-03-29T10:30:28.903Z</time></trkpt><trkpt lat="39.3617511" lon="16.8970425"><ele>505.6666666666667</ele><time>2026-03-29T10:30:29.913Z</time></trkpt><trkpt lat="39.3617544" lon="16.8969479"><ele>506.83333333333337</ele><time>2026-03-29T10:30:30.915Z</time></trkpt><trkpt lat="39.361744" lon="16.8968552"><ele>508.0</ele><time>2026-03-29T10:30:31.919Z</time></trkpt><trkpt lat="39.3617013" lon="16.8967534"><ele>509.00000000000006</ele><time>2026-03-29T10:30:32.899Z</time></trkpt><trkpt lat="39.3616491" lon="16.8966449"><ele>510.0</ele><time>2026-03-29T10:30:33.92Z</time></trkpt><trkpt lat="39.3615998" lon="16.8965394"><ele>511.0</ele><time>2026-03-29T10:30:34.911Z</time></trkpt><trkpt lat="39.3615592" lon="16.8964434"><ele>512.0</ele><time>2026-03-29T10:30:35.905Z</time></trkpt><trkpt lat="39.3615281" lon="16.8963655"><ele>513.0</ele><time>2026-03-29T10:30:36.909Z</time></trkpt><trkpt lat="39.3615298" lon="16.8962378"><ele>514.0</ele><time>2026-03-29T10:30:38.905Z</time></trkpt><trkpt lat="39.3615283" lon="16.896112"><ele>514.0</ele><time>2026-03-29T10:30:40.905Z</time></trkpt><trkpt lat="39.3615037" lon="16.895968"><ele>514.0</ele><time>2026-03-29T10:30:42.913Z</time></trkpt><trkpt lat="39.361444" lon="16.8958341"><ele>514.0</ele><time>2026-03-29T10:30:44.911Z</time></trkpt><trkpt lat="39.3613687" lon="16.8957255"><ele>514.0</ele><time>2026-03-29T10:30:46.905Z</time></trkpt><trkpt lat="39.3612888" lon="16.8956414"><ele>514.0</ele><time>2026-03-29T10:30:48.91Z</time></trkpt><trkpt lat="39.3612088" lon="16.8955721"><ele>515.3333333333334</ele><time>2026-03-29T10:30:50.895Z</time></trkpt><trkpt lat="39.3611137" lon="16.8954954"><ele>516.6666666666667</ele><time>2026-03-29T10:30:52.912Z</time></trkpt><trkpt lat="39.3610592" lon="16.8954435"><ele>518.0</ele><time>2026-03-29T10:30:53.917Z</time></trkpt><trkpt lat="39.3610025" lon="16.8953797"><ele>519.3333333333334</ele><time>2026-03-29T10:30:54.914Z</time></trkpt><trkpt lat="39.3609508" lon="16.8953094"><ele>520.6666666666666</ele><time>2026-03-29T10:30:55.9Z</time></trkpt><trkpt lat="39.3609044" lon="16.8952356"><ele>522.0</ele><time>2026-03-29T10:30:56.905Z</time></trkpt><trkpt lat="39.3608641" lon="16.8951621"><ele>522.7142857142858</ele><time>2026-03-29T10:30:57.905Z</time></trkpt><trkpt lat="39.3608311" lon="16.8950857"><ele>523.4285714285714</ele><time>2026-03-29T10:30:58.912Z</time></trkpt><trkpt lat="39.3608056" lon="16.8950054"><ele>524.1428571428571</ele><time>2026-03-29T10:30:59.905Z</time></trkpt><trkpt lat="39.3607859" lon="16.8949212"><ele>524.8571428571429</ele><time>2026-03-29T10:31:00.904Z</time></trkpt><trkpt lat="39.3607725" lon="16.8948349"><ele>525.5714285714286</ele><time>2026-03-29T10:31:01.917Z</time></trkpt><trkpt lat="39.3607627" lon="16.8947507"><ele>526.2857142857143</ele><time>2026-03-29T10:31:02.91Z</time></trkpt><trkpt lat="39.3607541" lon="16.8946677"><ele>527.0</ele><time>2026-03-29T10:31:03.902Z</time></trkpt><trkpt lat="39.360746" lon="16.8945862"><ele>527.0</ele><time>2026-03-29T10:31:04.914Z</time></trkpt><trkpt lat="39.3607334" lon="16.8944314"><ele>527.0</ele><time>2026-03-29T10:31:06.908Z</time></trkpt><trkpt lat="39.3607282" lon="16.8942957"><ele>527.0</ele><time>2026-03-29T10:31:08.91Z</time></trkpt><trkpt lat="39.360725" lon="16.8941618"><ele>527.0</ele><time>2026-03-29T10:31:10.905Z</time></trkpt><trkpt lat="39.3607263" lon="16.8940296"><ele>527.0</ele><time>2026-03-29T10:31:12.917Z</time></trkpt><trkpt lat="39.3607335" lon="16.8939218"><ele>528.0</ele><time>2026-03-29T10:31:14.914Z</time></trkpt><trkpt lat="39.3607372" lon="16.893827"><ele>529.0</ele><time>2026-03-29T10:31:16.902Z</time></trkpt><trkpt lat="39.3607435" lon="16.8937425"><ele>530.0</ele><time>2026-03-29T10:31:18.923Z</time></trkpt><trkpt lat="39.3607566" lon="16.8936532"><ele>531.0</ele><time>2026-03-29T10:31:20.91Z</time></trkpt><trkpt lat="39.3607709" lon="16.8935523"><ele>532.0</ele><time>2026-03-29T10:31:23.915Z</time></trkpt><trkpt lat="39.3607855" lon="16.8934482"><ele>533.0</ele><time>2026-03-29T10:31:54.914Z</time></trkpt><trkpt lat="39.3607917" lon="16.8933447"><ele>533.1666666666666</ele><time>2026-03-29T10:31:56.932Z</time></trkpt><trkpt lat="39.3607895" lon="16.8932249"><ele>533.3333333333333</ele><time>2026-03-29T10:31:59.912Z</time></trkpt><trkpt lat="39.360766" lon="16.8931364"><ele>533.5</ele><time>2026-03-29T10:32:03.911Z</time></trkpt><trkpt lat="39.3607739" lon="16.8930481"><ele>533.6666666666666</ele><time>2026-03-29T10:32:07.907Z</time></trkpt><trkpt lat="39.3607801" lon="16.8929276"><ele>533.8333333333334</ele><time>2026-03-29T10:32:11.914Z</time></trkpt><trkpt lat="39.360796" lon="16.8928378"><ele>534.0</ele><time>2026-03-29T10:32:13.904Z</time></trkpt><trkpt lat="39.3608301" lon="16.8927303"><ele>533.8333333333334</ele><time>2026-03-29T10:32:15.926Z</time></trkpt><trkpt lat="39.3608694" lon="16.8925797"><ele>533.6666666666666</ele><time>2026-03-29T10:32:17.91Z</time></trkpt><trkpt lat="39.3608884" lon="16.8924859"><ele>533.5</ele><time>2026-03-29T10:32:18.91Z</time></trkpt><trkpt lat="39.3609045" lon="16.8923853"><ele>533.3333333333333</ele><time>2026-03-29T10:32:19.912Z</time></trkpt><trkpt lat="39.3609162" lon="16.8922798"><ele>533.1666666666666</ele><time>2026-03-29T10:32:20.914Z</time></trkpt><trkpt lat="39.3609259" lon="16.8921677"><ele>533.0</ele><time>2026-03-29T10:32:21.914Z</time></trkpt><trkpt lat="39.3609386" lon="16.8920466"><ele>533.0</ele><time>2026-03-29T10:32:22.909Z</time></trkpt><trkpt lat="39.3609542" lon="16.8919194"><ele>533.0</ele><time>2026-03-29T10:32:23.915Z</time></trkpt><trkpt lat="39.3609726" lon="16.8917873"><ele>533.0</ele><time>2026-03-29T10:32:24.92Z</time></trkpt><trkpt lat="39.3609967" lon="16.8916535"><ele>533.0</ele><time>2026-03-29T10:32:25.912Z</time></trkpt><trkpt lat="39.3610208" lon="16.8915177"><ele>533.0</ele><time>2026-03-29T10:32:26.903Z</time></trkpt><trkpt lat="39.3610419" lon="16.8913789"><ele>532.6</ele><time>2026-03-29T10:32:27.911Z</time></trkpt><trkpt lat="39.3610641" lon="16.8912386"><ele>532.1999999999999</ele><time>2026-03-29T10:32:28.914Z</time></trkpt><trkpt lat="39.3610872" lon="16.8910975"><ele>531.8</ele><time>2026-03-29T10:32:29.908Z</time></trkpt><trkpt lat="39.3611113" lon="16.8909585"><ele>531.4</ele><time>2026-03-29T10:32:30.906Z</time></trkpt><trkpt lat="39.3611355" lon="16.890825"><ele>531.0</ele><time>2026-03-29T10:32:31.912Z</time></trkpt><trkpt lat="39.3611536" lon="16.8906939"><ele>531.0</ele><time>2026-03-29T10:32:32.91Z</time></trkpt><trkpt lat="39.3611681" lon="16.8905711"><ele>531.0</ele><time>2026-03-29T10:32:33.908Z</time></trkpt><trkpt lat="39.3611753" lon="16.8904642"><ele>531.0</ele><time>2026-03-29T10:32:34.917Z</time></trkpt><trkpt lat="39.3611773" lon="16.8903681"><ele>531.0</ele><time>2026-03-29T10:32:35.911Z</time></trkpt><trkpt lat="39.361159" lon="16.8902886"><ele>531.0</ele><time>2026-03-29T10:32:36.909Z</time></trkpt><trkpt lat="39.3611567" lon="16.8901828"><ele>531.0</ele><time>2026-03-29T10:32:42.918Z</time></trkpt><trkpt lat="39.3611683" lon="16.8900983"><ele>531.8333333333334</ele><time>2026-03-29T10:32:45.924Z</time></trkpt><trkpt lat="39.3612311" lon="16.8900694"><ele>532.6666666666666</ele><time>2026-03-29T11:20:46.928Z</time></trkpt><trkpt lat="39.3613055" lon="16.8900554"><ele>533.5</ele><time>2026-03-29T11:20:47.936Z</time></trkpt><trkpt lat="39.3613925" lon="16.8900377"><ele>534.3333333333333</ele><time>2026-03-29T11:20:48.918Z</time></trkpt><trkpt lat="39.3614746" lon="16.8900187"><ele>535.1666666666666</ele><time>2026-03-29T11:20:49.925Z</time></trkpt><trkpt lat="39.3615453" lon="16.8899999"><ele>536.0</ele><time>2026-03-29T11:20:50.92Z</time></trkpt><trkpt lat="39.3616581" lon="16.8899754"><ele>536.0</ele><time>2026-03-29T11:20:52.918Z</time></trkpt><trkpt lat="39.3617533" lon="16.8899419"><ele>536.0</ele><time>2026-03-29T11:20:54.909Z</time></trkpt><trkpt lat="39.361841" lon="16.8899046"><ele>536.0</ele><time>2026-03-29T11:20:56.929Z</time></trkpt><trkpt lat="39.3619172" lon="16.8898709"><ele>536.0</ele><time>2026-03-29T11:20:58.917Z</time></trkpt><trkpt lat="39.3619862" lon="16.8898416"><ele>536.0</ele><time>2026-03-29T11:21:01.924Z</time></trkpt><trkpt lat="39.3620505" lon="16.8898068"><ele>536.0</ele><time>2026-03-29T11:21:04.922Z</time></trkpt><trkpt lat="39.3621295" lon="16.8897662"><ele>536.0</ele><time>2026-03-29T11:21:06.918Z</time></trkpt><trkpt lat="39.3621919" lon="16.8897492"><ele>536.0</ele><time>2026-03-29T11:21:08.924Z</time></trkpt><trkpt lat="39.3622569" lon="16.8897302"><ele>536.0</ele><time>2026-03-29T11:21:11.915Z</time></trkpt><trkpt lat="39.3623236" lon="16.8897199"><ele>536.0</ele><time>2026-03-29T11:21:14.912Z</time></trkpt><trkpt lat="39.3623845" lon="16.8896968"><ele>536.0</ele><time>2026-03-29T11:21:16.908Z</time></trkpt><trkpt lat="39.3624645" lon="16.8896632"><ele>536.0</ele><time>2026-03-29T11:21:18.915Z</time></trkpt><trkpt lat="39.3625466" lon="16.8896209"><ele>536.0</ele><time>2026-03-29T11:21:20.914Z</time></trkpt><trkpt lat="39.3626085" lon="16.8895837"><ele>536.2857142857143</ele><time>2026-03-29T11:21:22.913Z</time></trkpt><trkpt lat="39.3626798" lon="16.8895374"><ele>536.5714285714286</ele><time>2026-03-29T11:21:25.908Z</time></trkpt><trkpt lat="39.3627459" lon="16.8895057"><ele>536.8571428571429</ele><time>2026-03-29T11:21:27.919Z</time></trkpt><trkpt lat="39.3628073" lon="16.8894819"><ele>537.1428571428571</ele><time>2026-03-29T11:21:29.918Z</time></trkpt><trkpt lat="39.362876" lon="16.889453"><ele>537.4285714285714</ele><time>2026-03-29T11:21:31.92Z</time></trkpt><trkpt lat="39.3629484" lon="16.8894326"><ele>537.7142857142858</ele><time>2026-03-29T11:21:33.927Z</time></trkpt><trkpt lat="39.3630297" lon="16.8894356"><ele>538.0</ele><time>2026-03-29T11:21:36.909Z</time></trkpt><trkpt lat="39.3631238" lon="16.8894457"><ele>538.0</ele><time>2026-03-29T11:21:39.929Z</time></trkpt><trkpt lat="39.3631868" lon="16.8894529"><ele>538.0</ele><time>2026-03-29T11:21:41.919Z</time></trkpt><trkpt lat="39.3632516" lon="16.8894667"><ele>538.0</ele><time>2026-03-29T11:21:43.915Z</time></trkpt><trkpt lat="39.3633331" lon="16.8894819"><ele>538.0</ele><time>2026-03-29T11:21:45.919Z</time></trkpt><trkpt lat="39.3634244" lon="16.8894667"><ele>538.0</ele><time>2026-03-29T11:21:47.917Z</time></trkpt><trkpt lat="39.3634843" lon="16.8894239"><ele>538.0</ele><time>2026-03-29T11:21:49.914Z</time></trkpt><trkpt lat="39.3635617" lon="16.8893774"><ele>538.0</ele><time>2026-03-29T11:21:52.918Z</time></trkpt><trkpt lat="39.363624" lon="16.8893438"><ele>538.0</ele><time>2026-03-29T11:21:54.915Z</time></trkpt><trkpt lat="39.3636997" lon="16.8892824"><ele>538.0</ele><time>2026-03-29T11:21:57.926Z</time></trkpt><trkpt lat="39.3637551" lon="16.8892378"><ele>538.0</ele><time>2026-03-29T11:21:59.915Z</time></trkpt><trkpt lat="39.3638183" lon="16.8891917"><ele>538.0</ele><time>2026-03-29T11:22:01.914Z</time></trkpt><trkpt lat="39.3638788" lon="16.8891418"><ele>538.0</ele><time>2026-03-29T11:22:03.938Z</time></trkpt><trkpt lat="39.3639374" lon="16.8891048"><ele>538.0</ele><time>2026-03-29T11:22:05.905Z</time></trkpt><trkpt lat="39.3640021" lon="16.8890686"><ele>536.1428571428571</ele><time>2026-03-29T11:22:08.906Z</time></trkpt><trkpt lat="39.3640681" lon="16.8890355"><ele>534.2857142857143</ele><time>2026-03-29T11:22:12.911Z</time></trkpt><trkpt lat="39.3641479" lon="16.8890035"><ele>532.4285714285714</ele><time>2026-03-29T11:22:15.921Z</time></trkpt><trkpt lat="39.3642147" lon="16.8889753"><ele>530.5714285714286</ele><time>2026-03-29T11:22:17.909Z</time></trkpt><trkpt lat="39.3642854" lon="16.8889632"><ele>528.7142857142858</ele><time>2026-03-29T11:22:19.918Z</time></trkpt><trkpt lat="39.3643531" lon="16.8889478"><ele>526.8571428571429</ele><time>2026-03-29T11:22:21.932Z</time></trkpt><trkpt lat="39.3644252" lon="16.8889278"><ele>525.0</ele><time>2026-03-29T11:22:24.916Z</time></trkpt><trkpt lat="39.3645029" lon="16.8889118"><ele>525.0</ele><time>2026-03-29T11:22:27.924Z</time></trkpt><trkpt lat="39.3645756" lon="16.8888893"><ele>525.0</ele><time>2026-03-29T11:22:29.911Z</time></trkpt><trkpt lat="39.364639" lon="16.8888691"><ele>525.0</ele><time>2026-03-29T11:22:31.911Z</time></trkpt><trkpt lat="39.3647228" lon="16.8888492"><ele>525.0</ele><time>2026-03-29T11:22:35.92Z</time></trkpt><trkpt lat="39.3648115" lon="16.8888306"><ele>525.0</ele><time>2026-03-29T11:22:38.913Z</time></trkpt><trkpt lat="39.3648769" lon="16.888814"><ele>525.0</ele><time>2026-03-29T11:22:40.912Z</time></trkpt><trkpt lat="39.3649414" lon="16.8887997"><ele>525.0</ele><time>2026-03-29T11:22:42.907Z</time></trkpt><trkpt lat="39.365008" lon="16.8887844"><ele>524.7142857142857</ele><time>2026-03-29T11:22:44.914Z</time></trkpt><trkpt lat="39.3650784" lon="16.8887721"><ele>524.4285714285714</ele><time>2026-03-29T11:22:46.925Z</time></trkpt><trkpt lat="39.3651515" lon="16.8887623"><ele>524.1428571428571</ele><time>2026-03-29T11:22:48.906Z</time></trkpt><trkpt lat="39.3652241" lon="16.888756"><ele>523.8571428571429</ele><time>2026-03-29T11:22:50.915Z</time></trkpt><trkpt lat="39.3653119" lon="16.888739"><ele>523.5714285714286</ele><time>2026-03-29T11:22:53.904Z</time></trkpt><trkpt lat="39.3653784" lon="16.8887273"><ele>523.2857142857142</ele><time>2026-03-29T11:22:55.92Z</time></trkpt><trkpt lat="39.3654414" lon="16.8887108"><ele>523.0</ele><time>2026-03-29T11:22:57.905Z</time></trkpt><trkpt lat="39.3655099" lon="16.8886874"><ele>521.0</ele><time>2026-03-29T11:22:59.911Z</time></trkpt><trkpt lat="39.365577" lon="16.8886648"><ele>519.0</ele><time>2026-03-29T11:23:01.913Z</time></trkpt><trkpt lat="39.3656633" lon="16.88864"><ele>517.0</ele><time>2026-03-29T11:23:04.914Z</time></trkpt><trkpt lat="39.3657511" lon="16.8885988"><ele>515.0</ele><time>2026-03-29T11:23:07.903Z</time></trkpt><trkpt lat="39.3658232" lon="16.8885649"><ele>513.0</ele><time>2026-03-29T11:23:09.906Z</time></trkpt><trkpt lat="39.3658887" lon="16.8885223"><ele>511.0</ele><time>2026-03-29T11:23:11.911Z</time></trkpt><trkpt lat="39.3659604" lon="16.88847"><ele>510.1666666666667</ele><time>2026-03-29T11:23:13.919Z</time></trkpt><trkpt lat="39.3660344" lon="16.8884063"><ele>509.33333333333337</ele><time>2026-03-29T11:23:15.909Z</time></trkpt><trkpt lat="39.3660969" lon="16.8883434"><ele>508.5</ele><time>2026-03-29T11:23:17.911Z</time></trkpt><trkpt lat="39.3661694" lon="16.8882807"><ele>507.66666666666663</ele><time>2026-03-29T11:23:20.922Z</time></trkpt><trkpt lat="39.366233" lon="16.8882518"><ele>506.8333333333333</ele><time>2026-03-29T11:23:23.914Z</time></trkpt><trkpt lat="39.3663092" lon="16.8882272"><ele>506.0</ele><time>2026-03-29T11:23:26.906Z</time></trkpt><trkpt lat="39.366403" lon="16.8882038"><ele>505.99999999999994</ele><time>2026-03-29T11:23:28.926Z</time></trkpt><trkpt lat="39.3665056" lon="16.8881726"><ele>506.0</ele><time>2026-03-29T11:23:30.919Z</time></trkpt><trkpt lat="39.3665952" lon="16.8881482"><ele>506.0</ele><time>2026-03-29T11:23:32.908Z</time></trkpt><trkpt lat="39.3666633" lon="16.8881292"><ele>506.0</ele><time>2026-03-29T11:23:34.919Z</time></trkpt><trkpt lat="39.3667402" lon="16.8880972"><ele>505.99999999999994</ele><time>2026-03-29T11:23:36.918Z</time></trkpt><trkpt lat="39.3668282" lon="16.8880631"><ele>506.0</ele><time>2026-03-29T11:23:38.915Z</time></trkpt><trkpt lat="39.3669189" lon="16.8880336"><ele>506.0</ele><time>2026-03-29T11:23:40.921Z</time></trkpt><trkpt lat="39.3670018" lon="16.88801"><ele>506.0</ele><time>2026-03-29T11:23:42.92Z</time></trkpt><trkpt lat="39.3670911" lon="16.8879797"><ele>506.0</ele><time>2026-03-29T11:23:44.906Z</time></trkpt><trkpt lat="39.3671799" lon="16.8879287"><ele>506.0</ele><time>2026-03-29T11:23:46.916Z</time></trkpt><trkpt lat="39.3672715" lon="16.887874"><ele>506.0</ele><time>2026-03-29T11:23:48.906Z</time></trkpt><trkpt lat="39.3673753" lon="16.8878248"><ele>508.8</ele><time>2026-03-29T11:23:50.92Z</time></trkpt><trkpt lat="39.3674568" lon="16.8877806"><ele>511.6</ele><time>2026-03-29T11:23:52.911Z</time></trkpt><trkpt lat="39.3675408" lon="16.887741"><ele>514.4</ele><time>2026-03-29T11:23:54.924Z</time></trkpt><trkpt lat="39.3676428" lon="16.8877051"><ele>517.2</ele><time>2026-03-29T11:23:56.91Z</time></trkpt><trkpt lat="39.3677587" lon="16.8876634"><ele>520.0</ele><time>2026-03-29T11:23:58.913Z</time></trkpt><trkpt lat="39.367875" lon="16.8876226"><ele>520.0</ele><time>2026-03-29T11:24:00.914Z</time></trkpt><trkpt lat="39.3679422" lon="16.8875999"><ele>520.0</ele><time>2026-03-29T11:24:01.912Z</time></trkpt><trkpt lat="39.3680207" lon="16.8875721"><ele>520.0</ele><time>2026-03-29T11:24:02.913Z</time></trkpt><trkpt lat="39.3680996" lon="16.8875437"><ele>520.0</ele><time>2026-03-29T11:24:03.92Z</time></trkpt><trkpt lat="39.3681742" lon="16.8875167"><ele>520.0</ele><time>2026-03-29T11:24:04.912Z</time></trkpt><trkpt lat="39.3682426" lon="16.8874949"><ele>520.0</ele><time>2026-03-29T11:24:05.909Z</time></trkpt><trkpt lat="39.3683462" lon="16.8874591"><ele>519.6</ele><time>2026-03-29T11:24:07.926Z</time></trkpt><trkpt lat="39.3684376" lon="16.8874215"><ele>519.2</ele><time>2026-03-29T11:24:09.909Z</time></trkpt><trkpt lat="39.3685676" lon="16.8873795"><ele>518.8</ele><time>2026-03-29T11:24:11.923Z</time></trkpt><trkpt lat="39.3686437" lon="16.8873555"><ele>518.4</ele><time>2026-03-29T11:24:12.914Z</time></trkpt><trkpt lat="39.3687239" lon="16.8873333"><ele>518.0</ele><time>2026-03-29T11:24:13.922Z</time></trkpt><trkpt lat="39.3688046" lon="16.887309"><ele>519.3333333333333</ele><time>2026-03-29T11:24:14.917Z</time></trkpt><trkpt lat="39.368884" lon="16.8872774"><ele>520.6666666666666</ele><time>2026-03-29T11:24:15.925Z</time></trkpt><trkpt lat="39.3689561" lon="16.8872398"><ele>522.0</ele><time>2026-03-29T11:24:16.922Z</time></trkpt><trkpt lat="39.3690138" lon="16.8871878"><ele>523.3333333333334</ele><time>2026-03-29T11:24:17.923Z</time></trkpt><trkpt lat="39.3690762" lon="16.8870782"><ele>524.6666666666667</ele><time>2026-03-29T11:24:19.91Z</time></trkpt><trkpt lat="39.3691229" lon="16.8870087"><ele>526.0</ele><time>2026-03-29T11:24:21.919Z</time></trkpt><trkpt lat="39.3691815" lon="16.8869431"><ele>526.0</ele><time>2026-03-29T11:24:23.918Z</time></trkpt><trkpt lat="39.3692183" lon="16.8868583"><ele>526.0</ele><time>2026-03-29T11:24:25.92Z</time></trkpt><trkpt lat="39.3692665" lon="16.886723"><ele>526.0</ele><time>2026-03-29T11:24:27.919Z</time></trkpt><trkpt lat="39.3693366" lon="16.8865915"><ele>526.0</ele><time>2026-03-29T11:24:29.91Z</time></trkpt><trkpt lat="39.3694064" lon="16.8864669"><ele>526.0</ele><time>2026-03-29T11:24:31.916Z</time></trkpt><trkpt lat="39.3694653" lon="16.8863458"><ele>525.8333333333334</ele><time>2026-03-29T11:24:33.908Z</time></trkpt><trkpt lat="39.3695001" lon="16.8862767"><ele>525.6666666666667</ele><time>2026-03-29T11:24:34.911Z</time></trkpt><trkpt lat="39.3695504" lon="16.8862057"><ele>525.5</ele><time>2026-03-29T11:24:35.916Z</time></trkpt><trkpt lat="39.369618" lon="16.8861381"><ele>525.3333333333334</ele><time>2026-03-29T11:24:36.918Z</time></trkpt><trkpt lat="39.3696926" lon="16.8860754"><ele>525.1666666666666</ele><time>2026-03-29T11:24:37.92Z</time></trkpt><trkpt lat="39.3697725" lon="16.886014"><ele>525.0</ele><time>2026-03-29T11:24:38.919Z</time></trkpt><trkpt lat="39.3698551" lon="16.8859506"><ele>526.2</ele><time>2026-03-29T11:24:39.912Z</time></trkpt><trkpt lat="39.369942" lon="16.8858839"><ele>527.4</ele><time>2026-03-29T11:24:40.915Z</time></trkpt><trkpt lat="39.3700345" lon="16.8858146"><ele>528.6</ele><time>2026-03-29T11:24:41.926Z</time></trkpt><trkpt lat="39.3701264" lon="16.8857433"><ele>529.8</ele><time>2026-03-29T11:24:42.928Z</time></trkpt><trkpt lat="39.3702104" lon="16.8856803"><ele>531.0</ele><time>2026-03-29T11:24:43.917Z</time></trkpt><trkpt lat="39.3702851" lon="16.8856241"><ele>531.0</ele><time>2026-03-29T11:24:44.911Z</time></trkpt><trkpt lat="39.3703546" lon="16.8855696"><ele>531.0</ele><time>2026-03-29T11:24:45.914Z</time></trkpt><trkpt lat="39.3704237" lon="16.8855221"><ele>531.0</ele><time>2026-03-29T11:24:46.92Z</time></trkpt><trkpt lat="39.3704902" lon="16.8854749"><ele>531.0</ele><time>2026-03-29T11:24:47.918Z</time></trkpt><trkpt lat="39.3705595" lon="16.8854378"><ele>531.0</ele><time>2026-03-29T11:24:48.926Z</time></trkpt><trkpt lat="39.3706291" lon="16.8854068"><ele>531.0</ele><time>2026-03-29T11:24:49.922Z</time></trkpt><trkpt lat="39.3707024" lon="16.8853775"><ele>532.0</ele><time>2026-03-29T11:24:50.922Z</time></trkpt><trkpt lat="39.3707877" lon="16.8853635"><ele>533.0</ele><time>2026-03-29T11:24:51.926Z</time></trkpt><trkpt lat="39.3708801" lon="16.885355"><ele>534.0</ele><time>2026-03-29T11:24:52.909Z</time></trkpt><trkpt lat="39.3709789" lon="16.8853598"><ele>535.0</ele><time>2026-03-29T11:24:53.907Z</time></trkpt><trkpt lat="39.3710792" lon="16.8853778"><ele>536.0</ele><time>2026-03-29T11:24:54.915Z</time></trkpt><trkpt lat="39.3711796" lon="16.8854029"><ele>536.0</ele><time>2026-03-29T11:24:55.913Z</time></trkpt><trkpt lat="39.3712843" lon="16.8854356"><ele>536.0</ele><time>2026-03-29T11:24:56.93Z</time></trkpt><trkpt lat="39.371394" lon="16.8854715"><ele>536.0</ele><time>2026-03-29T11:24:57.917Z</time></trkpt><trkpt lat="39.3715103" lon="16.8855077"><ele>536.0</ele><time>2026-03-29T11:24:58.907Z</time></trkpt><trkpt lat="39.371633" lon="16.8855291"><ele>535.4</ele><time>2026-03-29T11:24:59.913Z</time></trkpt><trkpt lat="39.3717501" lon="16.8855412"><ele>534.8</ele><time>2026-03-29T11:25:00.913Z</time></trkpt><trkpt lat="39.3718609" lon="16.8855513"><ele>534.1999999999999</ele><time>2026-03-29T11:25:01.913Z</time></trkpt><trkpt lat="39.3719688" lon="16.8855574"><ele>533.6</ele><time>2026-03-29T11:25:02.913Z</time></trkpt><trkpt lat="39.3720661" lon="16.8855622"><ele>533.0</ele><time>2026-03-29T11:25:03.913Z</time></trkpt><trkpt lat="39.3721351" lon="16.8855727"><ele>532.6666666666666</ele><time>2026-03-29T11:25:04.915Z</time></trkpt><trkpt lat="39.3722018" lon="16.8855884"><ele>532.3333333333333</ele><time>2026-03-29T11:25:06.91Z</time></trkpt><trkpt lat="39.372279" lon="16.8855786"><ele>532.0</ele><time>2026-03-29T11:25:08.913Z</time></trkpt><trkpt lat="39.3723654" lon="16.885554"><ele>531.6666666666666</ele><time>2026-03-29T11:25:10.931Z</time></trkpt><trkpt lat="39.3724602" lon="16.885533"><ele>531.3333333333334</ele><time>2026-03-29T11:25:12.909Z</time></trkpt><trkpt lat="39.3725656" lon="16.8855145"><ele>531.0</ele><time>2026-03-29T11:25:14.912Z</time></trkpt><trkpt lat="39.3726568" lon="16.8855223"><ele>531.0</ele><time>2026-03-29T11:25:16.915Z</time></trkpt><trkpt lat="39.3727567" lon="16.8855279"><ele>531.0</ele><time>2026-03-29T11:25:25.922Z</time></trkpt><trkpt lat="39.3728261" lon="16.8855447"><ele>531.0</ele><time>2026-03-29T11:25:27.92Z</time></trkpt><trkpt lat="39.3729081" lon="16.8855738"><ele>531.0</ele><time>2026-03-29T11:25:31.917Z</time></trkpt><trkpt lat="39.3729779" lon="16.8856006"><ele>531.0</ele><time>2026-03-29T11:25:34.917Z</time></trkpt><trkpt lat="39.3730469" lon="16.8856364"><ele>531.0</ele><time>2026-03-29T11:25:36.932Z</time></trkpt><trkpt lat="39.3731234" lon="16.8856839"><ele>529.6666666666666</ele><time>2026-03-29T11:25:38.911Z</time></trkpt><trkpt lat="39.3732156" lon="16.8857292"><ele>528.3333333333334</ele><time>2026-03-29T11:25:40.916Z</time></trkpt><trkpt lat="39.3733283" lon="16.885817"><ele>527.0</ele><time>2026-03-29T11:25:42.919Z</time></trkpt><trkpt lat="39.3733818" lon="16.8858818"><ele>525.6666666666667</ele><time>2026-03-29T11:25:43.913Z</time></trkpt><trkpt lat="39.3734359" lon="16.8859437"><ele>524.3333333333334</ele><time>2026-03-29T11:25:44.909Z</time></trkpt><trkpt lat="39.3734894" lon="16.8859995"><ele>523.0</ele><time>2026-03-29T11:25:45.906Z</time></trkpt><trkpt lat="39.373595" lon="16.8860162"><ele>522.8333333333334</ele><time>2026-03-29T11:25:47.908Z</time></trkpt><trkpt lat="39.3736725" lon="16.8860178"><ele>522.6666666666667</ele><time>2026-03-29T11:25:49.922Z</time></trkpt><trkpt lat="39.3737515" lon="16.8860307"><ele>522.5</ele><time>2026-03-29T11:25:51.911Z</time></trkpt><trkpt lat="39.3738336" lon="16.8860848"><ele>522.3333333333334</ele><time>2026-03-29T11:25:53.921Z</time></trkpt><trkpt lat="39.3739195" lon="16.8861946"><ele>522.1666666666666</ele><time>2026-03-29T11:25:55.916Z</time></trkpt><trkpt lat="39.3739592" lon="16.8862649"><ele>522.0</ele><time>2026-03-29T11:25:56.914Z</time></trkpt><trkpt lat="39.373997" lon="16.8863466"><ele>522.0</ele><time>2026-03-29T11:25:57.908Z</time></trkpt><trkpt lat="39.3740384" lon="16.8864383"><ele>522.0</ele><time>2026-03-29T11:25:58.92Z</time></trkpt><trkpt lat="39.3740833" lon="16.8865341"><ele>522.0</ele><time>2026-03-29T11:25:59.925Z</time></trkpt><trkpt lat="39.3741367" lon="16.8866274"><ele>522.0</ele><time>2026-03-29T11:26:00.91Z</time></trkpt><trkpt lat="39.3741934" lon="16.8867146"><ele>522.0</ele><time>2026-03-29T11:26:01.917Z</time></trkpt><trkpt lat="39.3742505" lon="16.8867767"><ele>522.0</ele><time>2026-03-29T11:26:02.921Z</time></trkpt><trkpt lat="39.374366" lon="16.8868176"><ele>522.0</ele><time>2026-03-29T11:26:04.916Z</time></trkpt><trkpt lat="39.3744314" lon="16.8868313"><ele>522.0</ele><time>2026-03-29T11:26:05.923Z</time></trkpt><trkpt lat="39.3744998" lon="16.8868457"><ele>522.0</ele><time>2026-03-29T11:26:06.914Z</time></trkpt><trkpt lat="39.3745763" lon="16.886862"><ele>522.0</ele><time>2026-03-29T11:26:07.917Z</time></trkpt><trkpt lat="39.3746582" lon="16.8868767"><ele>522.0</ele><time>2026-03-29T11:26:08.917Z</time></trkpt><trkpt lat="39.3747394" lon="16.886888"><ele>522.0</ele><time>2026-03-29T11:26:09.914Z</time></trkpt><trkpt lat="39.3748159" lon="16.8868917"><ele>522.0</ele><time>2026-03-29T11:26:10.911Z</time></trkpt><trkpt lat="39.374883" lon="16.8868892"><ele>522.0</ele><time>2026-03-29T11:26:11.927Z</time></trkpt><trkpt lat="39.3749696" lon="16.8868716"><ele>522.0</ele><time>2026-03-29T11:26:13.909Z</time></trkpt><trkpt lat="39.3750665" lon="16.8868471"><ele>522.0</ele><time>2026-03-29T11:26:15.914Z</time></trkpt><trkpt lat="39.3751329" lon="16.886834"><ele>522.0</ele><time>2026-03-29T11:26:16.911Z</time></trkpt><trkpt lat="39.3752029" lon="16.8868197"><ele>522.0</ele><time>2026-03-29T11:26:17.911Z</time></trkpt><trkpt lat="39.3753124" lon="16.8868205"><ele>522.0</ele><time>2026-03-29T11:26:19.909Z</time></trkpt><trkpt lat="39.3753939" lon="16.8868184"><ele>522.0</ele><time>2026-03-29T11:26:21.916Z</time></trkpt><trkpt lat="39.3754666" lon="16.8868207"><ele>522.0</ele><time>2026-03-29T11:26:23.915Z</time></trkpt><trkpt lat="39.3755733" lon="16.8868276"><ele>522.0</ele><time>2026-03-29T11:26:25.913Z</time></trkpt><trkpt lat="39.3756848" lon="16.8868237"><ele>522.0</ele><time>2026-03-29T11:26:27.908Z</time></trkpt><trkpt lat="39.3757562" lon="16.8867813"><ele>521.0</ele><time>2026-03-29T11:26:29.919Z</time></trkpt><trkpt lat="39.3758101" lon="16.8866975"><ele>520.0</ele><time>2026-03-29T11:26:31.92Z</time></trkpt><trkpt lat="39.3758662" lon="16.8866081"><ele>519.0</ele><time>2026-03-29T11:26:33.91Z</time></trkpt><trkpt lat="39.3759304" lon="16.8865338"><ele>518.0</ele><time>2026-03-29T11:26:35.923Z</time></trkpt><trkpt lat="39.3759955" lon="16.8864626"><ele>517.0</ele><time>2026-03-29T11:26:37.917Z</time></trkpt><trkpt lat="39.3760881" lon="16.8863776"><ele>517.0</ele><time>2026-03-29T11:26:39.934Z</time></trkpt><trkpt lat="39.3761461" lon="16.8863361"><ele>517.0</ele><time>2026-03-29T11:26:40.92Z</time></trkpt><trkpt lat="39.3762063" lon="16.8862954"><ele>517.0</ele><time>2026-03-29T11:26:41.921Z</time></trkpt><trkpt lat="39.3762683" lon="16.8862602"><ele>517.0</ele><time>2026-03-29T11:26:42.923Z</time></trkpt><trkpt lat="39.3763327" lon="16.8862392"><ele>517.0</ele><time>2026-03-29T11:26:43.927Z</time></trkpt><trkpt lat="39.3764454" lon="16.8861825"><ele>517.0</ele><time>2026-03-29T11:26:45.937Z</time></trkpt><trkpt lat="39.3765216" lon="16.8860913"><ele>516.0</ele><time>2026-03-29T11:26:47.932Z</time></trkpt><trkpt lat="39.3766022" lon="16.8860322"><ele>515.0</ele><time>2026-03-29T11:26:49.927Z</time></trkpt><trkpt lat="39.3767016" lon="16.8859778"><ele>514.0</ele><time>2026-03-29T11:26:51.928Z</time></trkpt><trkpt lat="39.3768036" lon="16.8859208"><ele>513.0</ele><time>2026-03-29T11:26:53.926Z</time></trkpt><trkpt lat="39.376893" lon="16.8858653"><ele>512.0</ele><time>2026-03-29T11:26:55.928Z</time></trkpt><trkpt lat="39.3769668" lon="16.8857955"><ele>511.99999999999994</ele><time>2026-03-29T11:26:57.932Z</time></trkpt><trkpt lat="39.3770128" lon="16.8856483"><ele>512.0</ele><time>2026-03-29T11:26:59.925Z</time></trkpt><trkpt lat="39.3770414" lon="16.885568"><ele>512.0</ele><time>2026-03-29T11:27:00.925Z</time></trkpt><trkpt lat="39.3770881" lon="16.8854976"><ele>512.0</ele><time>2026-03-29T11:27:01.93Z</time></trkpt><trkpt lat="39.377146" lon="16.8854235"><ele>511.99999999999994</ele><time>2026-03-29T11:27:02.931Z</time></trkpt><trkpt lat="39.3772151" lon="16.885347"><ele>512.0</ele><time>2026-03-29T11:27:03.924Z</time></trkpt><trkpt lat="39.3772849" lon="16.8852691"><ele>512.1428571428571</ele><time>2026-03-29T11:27:04.936Z</time></trkpt><trkpt lat="39.3773552" lon="16.885203"><ele>512.2857142857142</ele><time>2026-03-29T11:27:05.94Z</time></trkpt><trkpt lat="39.3774218" lon="16.8851467"><ele>512.4285714285714</ele><time>2026-03-29T11:27:06.926Z</time></trkpt><trkpt lat="39.3774867" lon="16.8850941"><ele>512.5714285714286</ele><time>2026-03-29T11:27:07.927Z</time></trkpt><trkpt lat="39.3775452" lon="16.8850416"><ele>512.7142857142858</ele><time>2026-03-29T11:27:08.931Z</time></trkpt><trkpt lat="39.3775947" lon="16.8849876"><ele>512.8571428571429</ele><time>2026-03-29T11:27:09.922Z</time></trkpt><trkpt lat="39.3776417" lon="16.8849299"><ele>513.0</ele><time>2026-03-29T11:27:10.922Z</time></trkpt><trkpt lat="39.3776894" lon="16.8848599"><ele>513.0000000000001</ele><time>2026-03-29T11:27:11.937Z</time></trkpt><trkpt lat="39.3777337" lon="16.8847803"><ele>513.0</ele><time>2026-03-29T11:27:12.932Z</time></trkpt><trkpt lat="39.3777716" lon="16.8847021"><ele>513.0</ele><time>2026-03-29T11:27:13.933Z</time></trkpt><trkpt lat="39.3778071" lon="16.8846264"><ele>513.0</ele><time>2026-03-29T11:27:14.925Z</time></trkpt><trkpt lat="39.3778553" lon="16.8845579"><ele>513.0</ele><time>2026-03-29T11:27:15.931Z</time></trkpt><trkpt lat="39.3779163" lon="16.8844935"><ele>513.0000000000001</ele><time>2026-03-29T11:27:16.93Z</time></trkpt><trkpt lat="39.3779839" lon="16.8844363"><ele>513.0</ele><time>2026-03-29T11:27:17.941Z</time></trkpt><trkpt lat="39.378052" lon="16.8843908"><ele>512.8333333333334</ele><time>2026-03-29T11:27:18.93Z</time></trkpt><trkpt lat="39.3781245" lon="16.8843615"><ele>512.6666666666666</ele><time>2026-03-29T11:27:19.935Z</time></trkpt><trkpt lat="39.3782029" lon="16.8843354"><ele>512.5</ele><time>2026-03-29T11:27:20.939Z</time></trkpt><trkpt lat="39.3782818" lon="16.8843046"><ele>512.3333333333333</ele><time>2026-03-29T11:27:21.928Z</time></trkpt><trkpt lat="39.3783583" lon="16.8842667"><ele>512.1666666666666</ele><time>2026-03-29T11:27:22.93Z</time></trkpt><trkpt lat="39.3784323" lon="16.8842152"><ele>512.0</ele><time>2026-03-29T11:27:23.935Z</time></trkpt><trkpt lat="39.3785026" lon="16.8841489"><ele>512.5</ele><time>2026-03-29T11:27:24.931Z</time></trkpt><trkpt lat="39.3785617" lon="16.8840754"><ele>513.0</ele><time>2026-03-29T11:27:25.931Z</time></trkpt><trkpt lat="39.3786115" lon="16.8840027"><ele>513.5</ele><time>2026-03-29T11:27:26.915Z</time></trkpt><trkpt lat="39.3786567" lon="16.8839416"><ele>514.0</ele><time>2026-03-29T11:27:27.911Z</time></trkpt><trkpt lat="39.3787433" lon="16.8838422"><ele>514.5</ele><time>2026-03-29T11:27:29.917Z</time></trkpt><trkpt lat="39.3787907" lon="16.883779"><ele>515.0</ele><time>2026-03-29T11:27:30.926Z</time></trkpt><trkpt lat="39.3788411" lon="16.8837106"><ele>514.4285714285714</ele><time>2026-03-29T11:27:31.914Z</time></trkpt><trkpt lat="39.378894" lon="16.8836389"><ele>513.8571428571429</ele><time>2026-03-29T11:27:32.92Z</time></trkpt><trkpt lat="39.3789439" lon="16.8835654"><ele>513.2857142857142</ele><time>2026-03-29T11:27:33.918Z</time></trkpt><trkpt lat="39.3789988" lon="16.8835009"><ele>512.7142857142858</ele><time>2026-03-29T11:27:34.915Z</time></trkpt><trkpt lat="39.3790586" lon="16.8834462"><ele>512.1428571428571</ele><time>2026-03-29T11:27:35.911Z</time></trkpt><trkpt lat="39.3791186" lon="16.8833977"><ele>511.57142857142856</ele><time>2026-03-29T11:27:36.912Z</time></trkpt><trkpt lat="39.3791721" lon="16.8833505"><ele>511.0</ele><time>2026-03-29T11:27:37.914Z</time></trkpt><trkpt lat="39.3792597" lon="16.8832553"><ele>512.6666666666667</ele><time>2026-03-29T11:27:39.908Z</time></trkpt><trkpt lat="39.3793513" lon="16.8831748"><ele>514.3333333333334</ele><time>2026-03-29T11:27:41.908Z</time></trkpt><trkpt lat="39.3794161" lon="16.8831344"><ele>516.0</ele><time>2026-03-29T11:27:42.933Z</time></trkpt><trkpt lat="39.3794823" lon="16.883089"><ele>517.6666666666666</ele><time>2026-03-29T11:27:43.926Z</time></trkpt><trkpt lat="39.3795434" lon="16.8830447"><ele>519.3333333333333</ele><time>2026-03-29T11:27:44.925Z</time></trkpt><trkpt lat="39.3796333" lon="16.8829686"><ele>521.0</ele><time>2026-03-29T11:27:46.923Z</time></trkpt><trkpt lat="39.3797066" lon="16.8828894"><ele>521.5714285714286</ele><time>2026-03-29T11:27:48.923Z</time></trkpt><trkpt lat="39.3797621" lon="16.8828368"><ele>522.1428571428571</ele><time>2026-03-29T11:27:49.934Z</time></trkpt><trkpt lat="39.3798174" lon="16.8827818"><ele>522.7142857142858</ele><time>2026-03-29T11:27:50.933Z</time></trkpt><trkpt lat="39.379874" lon="16.8827267"><ele>523.2857142857142</ele><time>2026-03-29T11:27:51.931Z</time></trkpt><trkpt lat="39.3799339" lon="16.8826829"><ele>523.8571428571429</ele><time>2026-03-29T11:27:52.928Z</time></trkpt><trkpt lat="39.3799966" lon="16.8826508"><ele>524.4285714285714</ele><time>2026-03-29T11:27:53.926Z</time></trkpt><trkpt lat="39.3800614" lon="16.8826118"><ele>525.0</ele><time>2026-03-29T11:27:54.945Z</time></trkpt><trkpt lat="39.3801247" lon="16.8825651"><ele>525.0</ele><time>2026-03-29T11:27:55.915Z</time></trkpt><trkpt lat="39.3801871" lon="16.882513"><ele>525.0</ele><time>2026-03-29T11:27:56.92Z</time></trkpt><trkpt lat="39.3802469" lon="16.8824595"><ele>525.0</ele><time>2026-03-29T11:27:57.927Z</time></trkpt><trkpt lat="39.3803049" lon="16.8824067"><ele>525.0</ele><time>2026-03-29T11:27:58.936Z</time></trkpt><trkpt lat="39.3803589" lon="16.8823548"><ele>525.0</ele><time>2026-03-29T11:27:59.937Z</time></trkpt><trkpt lat="39.3804113" lon="16.8823047"><ele>525.0</ele><time>2026-03-29T11:28:00.933Z</time></trkpt><trkpt lat="39.380464" lon="16.8822545"><ele>525.0</ele><time>2026-03-29T11:28:01.94Z</time></trkpt><trkpt lat="39.3805697" lon="16.8821622"><ele>526.1666666666666</ele><time>2026-03-29T11:28:03.922Z</time></trkpt><trkpt lat="39.3806233" lon="16.8820996"><ele>527.3333333333334</ele><time>2026-03-29T11:28:04.928Z</time></trkpt><trkpt lat="39.3806742" lon="16.8820309"><ele>528.5</ele><time>2026-03-29T11:28:05.939Z</time></trkpt><trkpt lat="39.3807236" lon="16.8819573"><ele>529.6666666666667</ele><time>2026-03-29T11:28:06.928Z</time></trkpt><trkpt lat="39.3807682" lon="16.8818731"><ele>530.8333333333334</ele><time>2026-03-29T11:28:07.927Z</time></trkpt><trkpt lat="39.380807" lon="16.8817847"><ele>532.0</ele><time>2026-03-29T11:28:08.921Z</time></trkpt><trkpt lat="39.3808377" lon="16.8816939"><ele>532.0</ele><time>2026-03-29T11:28:09.948Z</time></trkpt><trkpt lat="39.3808627" lon="16.8815993"><ele>532.0</ele><time>2026-03-29T11:28:10.927Z</time></trkpt><trkpt lat="39.3808883" lon="16.8814984"><ele>532.0</ele><time>2026-03-29T11:28:11.931Z</time></trkpt><trkpt lat="39.3809161" lon="16.8813961"><ele>532.0</ele><time>2026-03-29T11:28:12.943Z</time></trkpt><trkpt lat="39.3809483" lon="16.8813008"><ele>532.0</ele><time>2026-03-29T11:28:13.933Z</time></trkpt><trkpt lat="39.3809843" lon="16.8812126"><ele>532.0</ele><time>2026-03-29T11:28:14.925Z</time></trkpt><trkpt lat="39.3810213" lon="16.8811364"><ele>532.0</ele><time>2026-03-29T11:28:15.93Z</time></trkpt><trkpt lat="39.3810975" lon="16.881021"><ele>532.0</ele><time>2026-03-29T11:28:17.933Z</time></trkpt><trkpt lat="39.3811934" lon="16.8809687"><ele>532.0</ele><time>2026-03-29T11:28:19.928Z</time></trkpt><trkpt lat="39.3812974" lon="16.8809153"><ele>532.0</ele><time>2026-03-29T11:28:21.928Z</time></trkpt><trkpt lat="39.3813725" lon="16.8808778"><ele>532.0</ele><time>2026-03-29T11:28:23.937Z</time></trkpt><trkpt lat="39.3814749" lon="16.8808224"><ele>530.8000000000001</ele><time>2026-03-29T11:28:25.942Z</time></trkpt><trkpt lat="39.3815306" lon="16.8807782"><ele>529.6</ele><time>2026-03-29T11:28:26.936Z</time></trkpt><trkpt lat="39.3816294" lon="16.8806957"><ele>528.4000000000001</ele><time>2026-03-29T11:28:28.931Z</time></trkpt><trkpt lat="39.3817267" lon="16.8806485"><ele>527.2</ele><time>2026-03-29T11:28:30.933Z</time></trkpt><trkpt lat="39.38185" lon="16.8806277"><ele>526.0</ele><time>2026-03-29T11:28:32.933Z</time></trkpt><trkpt lat="39.3819217" lon="16.8806113"><ele>526.0</ele><time>2026-03-29T11:28:33.937Z</time></trkpt><trkpt lat="39.3819955" lon="16.8805784"><ele>526.0</ele><time>2026-03-29T11:28:34.927Z</time></trkpt><trkpt lat="39.3820779" lon="16.8805406"><ele>526.0</ele><time>2026-03-29T11:28:35.928Z</time></trkpt><trkpt lat="39.3821671" lon="16.8805151"><ele>526.0</ele><time>2026-03-29T11:28:36.927Z</time></trkpt><trkpt lat="39.3822523" lon="16.8804973"><ele>526.0</ele><time>2026-03-29T11:28:37.933Z</time></trkpt><trkpt lat="39.3823267" lon="16.8804692"><ele>526.0</ele><time>2026-03-29T11:28:38.929Z</time></trkpt><trkpt lat="39.3823968" lon="16.8804289"><ele>525.0</ele><time>2026-03-29T11:28:39.922Z</time></trkpt><trkpt lat="39.3824698" lon="16.8803849"><ele>524.0</ele><time>2026-03-29T11:28:40.925Z</time></trkpt><trkpt lat="39.3825374" lon="16.8803315"><ele>523.0</ele><time>2026-03-29T11:28:41.927Z</time></trkpt><trkpt lat="39.3826101" lon="16.8802838"><ele>522.0</ele><time>2026-03-29T11:28:42.924Z</time></trkpt><trkpt lat="39.3826837" lon="16.8802477"><ele>521.0</ele><time>2026-03-29T11:28:43.927Z</time></trkpt><trkpt lat="39.382759" lon="16.8802201"><ele>520.0</ele><time>2026-03-29T11:28:44.923Z</time></trkpt><trkpt lat="39.3828397" lon="16.8801979"><ele>520.0000000000001</ele><time>2026-03-29T11:28:45.921Z</time></trkpt><trkpt lat="39.3829191" lon="16.8801833"><ele>520.0</ele><time>2026-03-29T11:28:46.921Z</time></trkpt><trkpt lat="39.3829941" lon="16.8801718"><ele>520.0</ele><time>2026-03-29T11:28:47.928Z</time></trkpt><trkpt lat="39.3830658" lon="16.8801614"><ele>520.0</ele><time>2026-03-29T11:28:48.921Z</time></trkpt><trkpt lat="39.3831365" lon="16.8801561"><ele>520.0</ele><time>2026-03-29T11:28:49.932Z</time></trkpt><trkpt lat="39.383208" lon="16.8801524"><ele>520.0000000000001</ele><time>2026-03-29T11:28:50.934Z</time></trkpt><trkpt lat="39.3832808" lon="16.8801482"><ele>520.0</ele><time>2026-03-29T11:28:51.928Z</time></trkpt><trkpt lat="39.3833544" lon="16.8801419"><ele>520.6666666666667</ele><time>2026-03-29T11:28:52.927Z</time></trkpt><trkpt lat="39.3834277" lon="16.8801317"><ele>521.3333333333334</ele><time>2026-03-29T11:28:53.925Z</time></trkpt><trkpt lat="39.3835033" lon="16.8801155"><ele>522.0</ele><time>2026-03-29T11:28:54.925Z</time></trkpt><trkpt lat="39.3835794" lon="16.8800983"><ele>522.6666666666666</ele><time>2026-03-29T11:28:55.935Z</time></trkpt><trkpt lat="39.3836473" lon="16.8800844"><ele>523.3333333333333</ele><time>2026-03-29T11:28:56.928Z</time></trkpt><trkpt lat="39.3837499" lon="16.8800722"><ele>524.0</ele><time>2026-03-29T11:28:58.938Z</time></trkpt><trkpt lat="39.383838" lon="16.8800705"><ele>525.2</ele><time>2026-03-29T11:29:01.943Z</time></trkpt><trkpt lat="39.3839238" lon="16.8800717"><ele>526.4</ele><time>2026-03-29T11:29:03.932Z</time></trkpt><trkpt lat="39.3840336" lon="16.8800738"><ele>527.6</ele><time>2026-03-29T11:29:05.923Z</time></trkpt><trkpt lat="39.3841519" lon="16.8800789"><ele>528.8</ele><time>2026-03-29T11:29:07.929Z</time></trkpt><trkpt lat="39.3842747" lon="16.8800808"><ele>530.0</ele><time>2026-03-29T11:29:09.932Z</time></trkpt><trkpt lat="39.3843976" lon="16.8800748"><ele>530.0</ele><time>2026-03-29T11:29:11.927Z</time></trkpt><trkpt lat="39.3844675" lon="16.8800694"><ele>530.0</ele><time>2026-03-29T11:29:12.944Z</time></trkpt><trkpt lat="39.384543" lon="16.8800643"><ele>530.0</ele><time>2026-03-29T11:29:13.935Z</time></trkpt><trkpt lat="39.3846232" lon="16.8800603"><ele>530.0</ele><time>2026-03-29T11:29:14.939Z</time></trkpt><trkpt lat="39.384706" lon="16.8800573"><ele>530.0</ele><time>2026-03-29T11:29:15.93Z</time></trkpt><trkpt lat="39.3847876" lon="16.8800536"><ele>530.0</ele><time>2026-03-29T11:29:16.932Z</time></trkpt><trkpt lat="39.3848642" lon="16.8800477"><ele>528.9999999999999</ele><time>2026-03-29T11:29:17.931Z</time></trkpt><trkpt lat="39.3849384" lon="16.8800385"><ele>528.0</ele><time>2026-03-29T11:29:18.929Z</time></trkpt><trkpt lat="39.3850098" lon="16.8800226"><ele>527.0</ele><time>2026-03-29T11:29:19.943Z</time></trkpt><trkpt lat="39.3850773" lon="16.8800029"><ele>526.0</ele><time>2026-03-29T11:29:20.929Z</time></trkpt><trkpt lat="39.3851452" lon="16.8799858"><ele>525.0</ele><time>2026-03-29T11:29:21.929Z</time></trkpt><trkpt lat="39.3852135" lon="16.879973"><ele>523.9999999999999</ele><time>2026-03-29T11:29:22.948Z</time></trkpt><trkpt lat="39.3852782" lon="16.8799624"><ele>523.0</ele><time>2026-03-29T11:29:23.931Z</time></trkpt><trkpt lat="39.385406" lon="16.8799435"><ele>523.0</ele><time>2026-03-29T11:29:25.934Z</time></trkpt><trkpt lat="39.3854761" lon="16.8799267"><ele>523.0</ele><time>2026-03-29T11:29:26.924Z</time></trkpt><trkpt lat="39.3855495" lon="16.8799135"><ele>523.0</ele><time>2026-03-29T11:29:27.926Z</time></trkpt><trkpt lat="39.3856215" lon="16.879902"><ele>523.0</ele><time>2026-03-29T11:29:28.932Z</time></trkpt><trkpt lat="39.3856855" lon="16.8798853"><ele>523.0</ele><time>2026-03-29T11:29:29.93Z</time></trkpt><trkpt lat="39.3857911" lon="16.8798268"><ele>523.0</ele><time>2026-03-29T11:29:31.929Z</time></trkpt><trkpt lat="39.3858768" lon="16.8797685"><ele>521.8333333333334</ele><time>2026-03-29T11:29:33.957Z</time></trkpt><trkpt lat="39.3859411" lon="16.8797155"><ele>520.6666666666667</ele><time>2026-03-29T11:29:35.927Z</time></trkpt><trkpt lat="39.3859927" lon="16.8796639"><ele>519.5</ele><time>2026-03-29T11:29:37.926Z</time></trkpt><trkpt lat="39.3860592" lon="16.8796062"><ele>518.3333333333334</ele><time>2026-03-29T11:29:40.941Z</time></trkpt><trkpt lat="39.386116" lon="16.8795569"><ele>517.1666666666666</ele><time>2026-03-29T11:29:44.924Z</time></trkpt><trkpt lat="39.3861807" lon="16.87951"><ele>516.0</ele><time>2026-03-29T11:29:50.927Z</time></trkpt><trkpt lat="39.3862528" lon="16.8794364"><ele>516.0</ele><time>2026-03-29T11:29:53.925Z</time></trkpt><trkpt lat="39.3863084" lon="16.8793924"><ele>516.0</ele><time>2026-03-29T11:29:55.926Z</time></trkpt><trkpt lat="39.3863853" lon="16.8793184"><ele>516.0</ele><time>2026-03-29T11:29:57.925Z</time></trkpt><trkpt lat="39.3864713" lon="16.8792411"><ele>516.0</ele><time>2026-03-29T11:29:59.932Z</time></trkpt><trkpt lat="39.3865552" lon="16.8791667"><ele>516.0</ele><time>2026-03-29T11:30:01.927Z</time></trkpt><trkpt lat="39.3866313" lon="16.8790975"><ele>515.2</ele><time>2026-03-29T11:30:03.931Z</time></trkpt><trkpt lat="39.386703" lon="16.8790419"><ele>514.4000000000001</ele><time>2026-03-29T11:30:05.928Z</time></trkpt><trkpt lat="39.3867917" lon="16.8789916"><ele>513.6</ele><time>2026-03-29T11:30:07.949Z</time></trkpt><trkpt lat="39.3868801" lon="16.8789247"><ele>512.8000000000001</ele><time>2026-03-29T11:30:09.937Z</time></trkpt><trkpt lat="39.386967" lon="16.8788389"><ele>512.0</ele><time>2026-03-29T11:30:11.936Z</time></trkpt><trkpt lat="39.387051" lon="16.8787534"><ele>512.0</ele><time>2026-03-29T11:30:13.928Z</time></trkpt><trkpt lat="39.3871278" lon="16.8786899"><ele>512.0</ele><time>2026-03-29T11:30:15.917Z</time></trkpt><trkpt lat="39.3872192" lon="16.878642"><ele>512.0</ele><time>2026-03-29T11:30:17.926Z</time></trkpt><trkpt lat="39.3873288" lon="16.8786202"><ele>512.0</ele><time>2026-03-29T11:30:19.921Z</time></trkpt><trkpt lat="39.387431" lon="16.8785674"><ele>512.0</ele><time>2026-03-29T11:30:21.936Z</time></trkpt><trkpt lat="39.3875357" lon="16.8785151"><ele>511.16666666666663</ele><time>2026-03-29T11:30:23.925Z</time></trkpt><trkpt lat="39.3876295" lon="16.8784969"><ele>510.3333333333333</ele><time>2026-03-29T11:30:25.94Z</time></trkpt><trkpt lat="39.3877073" lon="16.8784792"><ele>509.5</ele><time>2026-03-29T11:30:27.931Z</time></trkpt><trkpt lat="39.3877732" lon="16.8784659"><ele>508.66666666666663</ele><time>2026-03-29T11:30:29.92Z</time></trkpt><trkpt lat="39.3878393" lon="16.8784445"><ele>507.8333333333333</ele><time>2026-03-29T11:30:31.926Z</time></trkpt><trkpt lat="39.3879249" lon="16.8784272"><ele>507.0</ele><time>2026-03-29T11:30:33.934Z</time></trkpt><trkpt lat="39.3880123" lon="16.878413"><ele>503.6</ele><time>2026-03-29T11:30:35.937Z</time></trkpt><trkpt lat="39.3880874" lon="16.8783756"><ele>500.20000000000005</ele><time>2026-03-29T11:30:37.918Z</time></trkpt><trkpt lat="39.3881806" lon="16.8783366"><ele>496.8</ele><time>2026-03-29T11:30:40.931Z</time></trkpt><trkpt lat="39.38827" lon="16.8783259"><ele>493.4</ele><time>2026-03-29T11:30:42.94Z</time></trkpt><trkpt lat="39.3883861" lon="16.8783547"><ele>490.0</ele><time>2026-03-29T11:30:44.95Z</time></trkpt><trkpt lat="39.3885128" lon="16.8783702"><ele>490.0</ele><time>2026-03-29T11:30:46.929Z</time></trkpt><trkpt lat="39.388579" lon="16.8783766"><ele>490.0</ele><time>2026-03-29T11:30:47.933Z</time></trkpt><trkpt lat="39.3886433" lon="16.878388"><ele>490.0</ele><time>2026-03-29T11:30:48.927Z</time></trkpt><trkpt lat="39.3887073" lon="16.8784026"><ele>490.0</ele><time>2026-03-29T11:30:49.943Z</time></trkpt><trkpt lat="39.3887692" lon="16.8784208"><ele>490.0</ele><time>2026-03-29T11:30:50.931Z</time></trkpt><trkpt lat="39.388832" lon="16.8784413"><ele>490.0</ele><time>2026-03-29T11:30:51.93Z</time></trkpt><trkpt lat="39.3889403" lon="16.8784958"><ele>490.0</ele><time>2026-03-29T11:30:53.917Z</time></trkpt><trkpt lat="39.3890123" lon="16.8784886"><ele>488.57142857142856</ele><time>2026-03-29T11:30:55.937Z</time></trkpt><trkpt lat="39.3890376" lon="16.8784122"><ele>487.1428571428571</ele><time>2026-03-29T11:30:57.927Z</time></trkpt><trkpt lat="39.3890837" lon="16.8783544"><ele>485.7142857142857</ele><time>2026-03-29T11:31:02.938Z</time></trkpt><trkpt lat="39.3891431" lon="16.8783909"><ele>484.2857142857143</ele><time>2026-03-29T11:31:07.924Z</time></trkpt><trkpt lat="39.3892224" lon="16.8783785"><ele>482.85714285714283</ele><time>2026-03-29T11:31:10.936Z</time></trkpt><trkpt lat="39.3892864" lon="16.8783355"><ele>481.42857142857144</ele><time>2026-03-29T11:31:14.943Z</time></trkpt><trkpt lat="39.3893571" lon="16.8782759"><ele>480.0</ele><time>2026-03-29T11:31:17.929Z</time></trkpt><trkpt lat="39.389427" lon="16.8782076"><ele>480.0</ele><time>2026-03-29T11:31:19.93Z</time></trkpt><trkpt lat="39.3895075" lon="16.8781627"><ele>480.0</ele><time>2026-03-29T11:31:21.933Z</time></trkpt><trkpt lat="39.3895835" lon="16.8781627"><ele>480.0</ele><time>2026-03-29T11:31:23.93Z</time></trkpt><trkpt lat="39.3896716" lon="16.878194"><ele>480.0</ele><time>2026-03-29T11:31:26.929Z</time></trkpt><trkpt lat="39.3897691" lon="16.8782069"><ele>480.0</ele><time>2026-03-29T11:31:29.923Z</time></trkpt><trkpt lat="39.3898706" lon="16.8781975"><ele>479.6</ele><time>2026-03-29T11:31:31.931Z</time></trkpt><trkpt lat="39.3899858" lon="16.8781772"><ele>479.2</ele><time>2026-03-29T11:31:33.94Z</time></trkpt><trkpt lat="39.3900874" lon="16.8781654"><ele>478.79999999999995</ele><time>2026-03-29T11:31:35.929Z</time></trkpt><trkpt lat="39.3901582" lon="16.8781697"><ele>478.4</ele><time>2026-03-29T11:31:38.928Z</time></trkpt><trkpt lat="39.3902503" lon="16.8782054"><ele>478.0</ele><time>2026-03-29T11:31:41.934Z</time></trkpt><trkpt lat="39.3903109" lon="16.8782754"><ele>478.0</ele><time>2026-03-29T11:31:43.925Z</time></trkpt><trkpt lat="39.3903678" lon="16.8783738"><ele>477.99999999999994</ele><time>2026-03-29T11:31:45.921Z</time></trkpt><trkpt lat="39.3904418" lon="16.8784639"><ele>477.99999999999994</ele><time>2026-03-29T11:31:47.934Z</time></trkpt><trkpt lat="39.3905361" lon="16.8785511"><ele>478.0</ele><time>2026-03-29T11:31:49.933Z</time></trkpt><trkpt lat="39.3906395" lon="16.8786235"><ele>478.0</ele><time>2026-03-29T11:31:51.924Z</time></trkpt><trkpt lat="39.3907266" lon="16.8787171"><ele>478.79999999999995</ele><time>2026-03-29T11:31:53.942Z</time></trkpt><trkpt lat="39.3907913" lon="16.8788088"><ele>479.59999999999997</ele><time>2026-03-29T11:31:55.927Z</time></trkpt><trkpt lat="39.3908152" lon="16.8789175"><ele>480.40000000000003</ele><time>2026-03-29T11:31:57.932Z</time></trkpt><trkpt lat="39.3908356" lon="16.8790252"><ele>481.20000000000005</ele><time>2026-03-29T11:31:59.958Z</time></trkpt><trkpt lat="39.3908837" lon="16.8791084"><ele>482.0</ele><time>2026-03-29T11:32:01.93Z</time></trkpt><trkpt lat="39.3909782" lon="16.8791987"><ele>482.0</ele><time>2026-03-29T11:32:03.942Z</time></trkpt><trkpt lat="39.3910378" lon="16.8792498"><ele>482.00000000000006</ele><time>2026-03-29T11:32:04.919Z</time></trkpt><trkpt lat="39.3911019" lon="16.8792955"><ele>482.0</ele><time>2026-03-29T11:32:05.932Z</time></trkpt><trkpt lat="39.391165" lon="16.8793446"><ele>482.0</ele><time>2026-03-29T11:32:06.933Z</time></trkpt><trkpt lat="39.3912244" lon="16.8794035"><ele>482.00000000000006</ele><time>2026-03-29T11:32:07.917Z</time></trkpt><trkpt lat="39.3912808" lon="16.8794688"><ele>482.0</ele><time>2026-03-29T11:32:08.931Z</time></trkpt><trkpt lat="39.3913351" lon="16.8795346"><ele>482.0</ele><time>2026-03-29T11:32:09.921Z</time></trkpt><trkpt lat="39.3913879" lon="16.8795987"><ele>482.40000000000003</ele><time>2026-03-29T11:32:10.933Z</time></trkpt><trkpt lat="39.3914367" lon="16.8796556"><ele>482.80000000000007</ele><time>2026-03-29T11:32:11.933Z</time></trkpt><trkpt lat="39.3915131" lon="16.8797594"><ele>483.2</ele><time>2026-03-29T11:32:13.932Z</time></trkpt><trkpt lat="39.3916022" lon="16.879821"><ele>483.6</ele><time>2026-03-29T11:32:15.925Z</time></trkpt><trkpt lat="39.3917103" lon="16.8798199"><ele>484.0</ele><time>2026-03-29T11:32:17.932Z</time></trkpt><trkpt lat="39.3918361" lon="16.8798154"><ele>484.00000000000006</ele><time>2026-03-29T11:32:19.925Z</time></trkpt><trkpt lat="39.3919024" lon="16.8798164"><ele>484.0</ele><time>2026-03-29T11:32:20.942Z</time></trkpt><trkpt lat="39.3919657" lon="16.8798206"><ele>484.0</ele><time>2026-03-29T11:32:21.936Z</time></trkpt><trkpt lat="39.3920777" lon="16.8798205"><ele>484.0</ele><time>2026-03-29T11:32:23.929Z</time></trkpt><trkpt lat="39.392147" lon="16.8798604"><ele>484.00000000000006</ele><time>2026-03-29T11:32:25.931Z</time></trkpt><trkpt lat="39.3921217" lon="16.879944"><ele>484.0</ele><time>2026-03-29T11:32:27.938Z</time></trkpt><trkpt lat="39.3920413" lon="16.88"><ele>484.0</ele><time>2026-03-29T11:32:29.922Z</time></trkpt><trkpt lat="39.3919666" lon="16.8800902"><ele>484.0</ele><time>2026-03-29T11:32:31.917Z</time></trkpt><trkpt lat="39.391925" lon="16.8802406"><ele>484.0</ele><time>2026-03-29T11:32:33.923Z</time></trkpt><trkpt lat="39.3919168" lon="16.880333"><ele>484.0</ele><time>2026-03-29T11:32:34.931Z</time></trkpt><trkpt lat="39.3919145" lon="16.8804321"><ele>484.0</ele><time>2026-03-29T11:32:35.926Z</time></trkpt><trkpt lat="39.391915" lon="16.8805315"><ele>483.6666666666667</ele><time>2026-03-29T11:32:36.926Z</time></trkpt><trkpt lat="39.3919215" lon="16.8806306"><ele>483.33333333333337</ele><time>2026-03-29T11:32:37.927Z</time></trkpt><trkpt lat="39.3919413" lon="16.8807312"><ele>483.0</ele><time>2026-03-29T11:32:38.929Z</time></trkpt><trkpt lat="39.3919723" lon="16.880829"><ele>482.66666666666663</ele><time>2026-03-29T11:32:39.95Z</time></trkpt><trkpt lat="39.3920046" lon="16.880919"><ele>482.3333333333333</ele><time>2026-03-29T11:32:40.926Z</time></trkpt><trkpt lat="39.3920338" lon="16.8810033"><ele>482.0</ele><time>2026-03-29T11:32:41.934Z</time></trkpt><trkpt lat="39.3920925" lon="16.8811257"><ele>483.99999999999994</ele><time>2026-03-29T11:32:43.937Z</time></trkpt><trkpt lat="39.3921839" lon="16.8812254"><ele>486.0</ele><time>2026-03-29T11:32:45.947Z</time></trkpt><trkpt lat="39.3922414" lon="16.8812884"><ele>488.0</ele><time>2026-03-29T11:32:46.929Z</time></trkpt><trkpt lat="39.3923027" lon="16.8813567"><ele>490.0</ele><time>2026-03-29T11:32:47.935Z</time></trkpt><trkpt lat="39.3923687" lon="16.8814147"><ele>491.99999999999994</ele><time>2026-03-29T11:32:48.946Z</time></trkpt><trkpt lat="39.3924395" lon="16.8814427"><ele>494.0</ele><time>2026-03-29T11:32:49.931Z</time></trkpt><trkpt lat="39.3925139" lon="16.8814475"><ele>493.99999999999994</ele><time>2026-03-29T11:32:50.93Z</time></trkpt><trkpt lat="39.392586" lon="16.8814515"><ele>494.0</ele><time>2026-03-29T11:32:51.93Z</time></trkpt><trkpt lat="39.3926918" lon="16.8815153"><ele>494.0</ele><time>2026-03-29T11:32:53.92Z</time></trkpt><trkpt lat="39.3927085" lon="16.8816586"><ele>494.0</ele><time>2026-03-29T11:32:55.926Z</time></trkpt><trkpt lat="39.3927308" lon="16.8817421"><ele>493.99999999999994</ele><time>2026-03-29T11:32:56.923Z</time></trkpt><trkpt lat="39.392756" lon="16.8818322"><ele>494.0</ele><time>2026-03-29T11:32:57.931Z</time></trkpt><trkpt lat="39.3927751" lon="16.8819214"><ele>493.49999999999994</ele><time>2026-03-29T11:32:58.934Z</time></trkpt><trkpt lat="39.3927496" lon="16.8820089"><ele>493.0</ele><time>2026-03-29T11:32:59.943Z</time></trkpt><trkpt lat="39.3926998" lon="16.8820805"><ele>492.5</ele><time>2026-03-29T11:33:00.932Z</time></trkpt><trkpt lat="39.3926391" lon="16.8821424"><ele>492.0</ele><time>2026-03-29T11:33:01.929Z</time></trkpt><trkpt lat="39.3925799" lon="16.8821942"><ele>491.49999999999994</ele><time>2026-03-29T11:33:02.951Z</time></trkpt><trkpt lat="39.392497" lon="16.8823026"><ele>491.0</ele><time>2026-03-29T11:33:04.948Z</time></trkpt><trkpt lat="39.3924345" lon="16.8824103"><ele>490.99999999999994</ele><time>2026-03-29T11:33:06.926Z</time></trkpt><trkpt lat="39.3923575" lon="16.8825143"><ele>491.0</ele><time>2026-03-29T11:33:08.93Z</time></trkpt><trkpt lat="39.3922755" lon="16.8826295"><ele>491.0</ele><time>2026-03-29T11:33:10.925Z</time></trkpt><trkpt lat="39.3922314" lon="16.8826887"><ele>491.0</ele><time>2026-03-29T11:33:11.929Z</time></trkpt><trkpt lat="39.3921842" lon="16.8827471"><ele>490.99999999999994</ele><time>2026-03-29T11:33:12.939Z</time></trkpt><trkpt lat="39.392135" lon="16.8828025"><ele>491.0</ele><time>2026-03-29T11:33:13.93Z</time></trkpt><trkpt lat="39.3920506" lon="16.8829117"><ele>488.6</ele><time>2026-03-29T11:33:15.929Z</time></trkpt><trkpt lat="39.392053" lon="16.8830472"><ele>486.20000000000005</ele><time>2026-03-29T11:33:17.918Z</time></trkpt><trkpt lat="39.3921013" lon="16.8831919"><ele>483.79999999999995</ele><time>2026-03-29T11:33:19.926Z</time></trkpt><trkpt lat="39.3921366" lon="16.8833259"><ele>481.4</ele><time>2026-03-29T11:33:21.94Z</time></trkpt><trkpt lat="39.3921556" lon="16.8834138"><ele>479.0</ele><time>2026-03-29T11:33:23.95Z</time></trkpt><trkpt lat="39.3920908" lon="16.8835138"><ele>478.4</ele><time>2026-03-29T11:33:26.93Z</time></trkpt><trkpt lat="39.3920259" lon="16.8836626"><ele>477.79999999999995</ele><time>2026-03-29T11:33:28.927Z</time></trkpt><trkpt lat="39.3919891" lon="16.8837593"><ele>477.20000000000005</ele><time>2026-03-29T11:33:29.926Z</time></trkpt><trkpt lat="39.3919581" lon="16.8838699"><ele>476.6</ele><time>2026-03-29T11:33:30.93Z</time></trkpt><trkpt lat="39.3919355" lon="16.8839881"><ele>476.0</ele><time>2026-03-29T11:33:31.934Z</time></trkpt><trkpt lat="39.3919158" lon="16.8841021"><ele>475.99999999999994</ele><time>2026-03-29T11:33:32.93Z</time></trkpt><trkpt lat="39.3918904" lon="16.884206"><ele>476.0</ele><time>2026-03-29T11:33:33.927Z</time></trkpt><trkpt lat="39.3918586" lon="16.8843034"><ele>476.0</ele><time>2026-03-29T11:33:34.926Z</time></trkpt><trkpt lat="39.3918261" lon="16.8844034"><ele>476.0</ele><time>2026-03-29T11:33:35.935Z</time></trkpt><trkpt lat="39.391796" lon="16.8845089"><ele>475.99999999999994</ele><time>2026-03-29T11:33:36.927Z</time></trkpt><trkpt lat="39.3917661" lon="16.8846216"><ele>476.0</ele><time>2026-03-29T11:33:37.93Z</time></trkpt><trkpt lat="39.3917376" lon="16.8847373"><ele>474.4</ele><time>2026-03-29T11:33:38.931Z</time></trkpt><trkpt lat="39.3917066" lon="16.8848526"><ele>472.8</ele><time>2026-03-29T11:33:39.928Z</time></trkpt><trkpt lat="39.3916762" lon="16.8849654"><ele>471.19999999999993</ele><time>2026-03-29T11:33:40.922Z</time></trkpt><trkpt lat="39.3916481" lon="16.8850785"><ele>469.59999999999997</ele><time>2026-03-29T11:33:41.934Z</time></trkpt><trkpt lat="39.3916206" lon="16.8851893"><ele>468.0</ele><time>2026-03-29T11:33:42.936Z</time></trkpt><trkpt lat="39.3915921" lon="16.8852938"><ele>465.59999999999997</ele><time>2026-03-29T11:33:43.926Z</time></trkpt><trkpt lat="39.3915555" lon="16.8853958"><ele>463.19999999999993</ele><time>2026-03-29T11:33:44.922Z</time></trkpt><trkpt lat="39.3915217" lon="16.8854908"><ele>460.8</ele><time>2026-03-29T11:33:45.925Z</time></trkpt><trkpt lat="39.3914969" lon="16.8855721"><ele>458.4</ele><time>2026-03-29T11:33:46.948Z</time></trkpt><trkpt lat="39.3914551" lon="16.8857095"><ele>456.0</ele><time>2026-03-29T11:33:48.926Z</time></trkpt><trkpt lat="39.3914164" lon="16.8858475"><ele>453.20000000000005</ele><time>2026-03-29T11:33:50.933Z</time></trkpt><trkpt lat="39.3913786" lon="16.8859788"><ele>450.40000000000003</ele><time>2026-03-29T11:33:52.939Z</time></trkpt><trkpt lat="39.3913429" lon="16.8861221"><ele>447.6</ele><time>2026-03-29T11:33:54.927Z</time></trkpt><trkpt lat="39.3913374" lon="16.8862208"><ele>444.8</ele><time>2026-03-29T11:33:55.925Z</time></trkpt><trkpt lat="39.3913301" lon="16.8863487"><ele>442.0</ele><time>2026-03-29T11:33:56.939Z</time></trkpt><trkpt lat="39.3913185" lon="16.8864981"><ele>441.25</ele><time>2026-03-29T11:33:57.941Z</time></trkpt><trkpt lat="39.3913068" lon="16.8866617"><ele>440.5</ele><time>2026-03-29T11:33:58.938Z</time></trkpt><trkpt lat="39.3912978" lon="16.8868356"><ele>439.75</ele><time>2026-03-29T11:33:59.929Z</time></trkpt><trkpt lat="39.3912907" lon="16.8869981"><ele>439.0</ele><time>2026-03-29T11:34:00.933Z</time></trkpt><trkpt lat="39.3912796" lon="16.8871252"><ele>439.00000000000006</ele><time>2026-03-29T11:34:01.925Z</time></trkpt><trkpt lat="39.3912593" lon="16.887232"><ele>439.0</ele><time>2026-03-29T11:34:02.931Z</time></trkpt><trkpt lat="39.391231" lon="16.8873318"><ele>439.0</ele><time>2026-03-29T11:34:03.931Z</time></trkpt><trkpt lat="39.3911955" lon="16.8874273"><ele>439.0</ele><time>2026-03-29T11:34:04.927Z</time></trkpt><trkpt lat="39.3911562" lon="16.8875211"><ele>439.00000000000006</ele><time>2026-03-29T11:34:05.931Z</time></trkpt><trkpt lat="39.3911159" lon="16.8876161"><ele>439.0</ele><time>2026-03-29T11:34:06.925Z</time></trkpt><trkpt lat="39.391078" lon="16.887724"><ele>438.2</ele><time>2026-03-29T11:34:07.94Z</time></trkpt><trkpt lat="39.3910431" lon="16.887842"><ele>437.4</ele><time>2026-03-29T11:34:08.929Z</time></trkpt><trkpt lat="39.3910061" lon="16.8879607"><ele>436.6</ele><time>2026-03-29T11:34:09.932Z</time></trkpt><trkpt lat="39.390975" lon="16.8880793"><ele>435.8</ele><time>2026-03-29T11:34:10.93Z</time></trkpt><trkpt lat="39.390948" lon="16.8881954"><ele>435.0</ele><time>2026-03-29T11:34:11.93Z</time></trkpt><trkpt lat="39.3909243" lon="16.8883068"><ele>435.0</ele><time>2026-03-29T11:34:12.928Z</time></trkpt><trkpt lat="39.3909002" lon="16.8884088"><ele>435.0</ele><time>2026-03-29T11:34:13.932Z</time></trkpt><trkpt lat="39.3908736" lon="16.8885042"><ele>435.0</ele><time>2026-03-29T11:34:14.933Z</time></trkpt><trkpt lat="39.390847" lon="16.8885931"><ele>435.0</ele><time>2026-03-29T11:34:15.944Z</time></trkpt><trkpt lat="39.3908199" lon="16.8886713"><ele>435.0</ele><time>2026-03-29T11:34:16.927Z</time></trkpt><trkpt lat="39.3907946" lon="16.8887609"><ele>435.0</ele><time>2026-03-29T11:34:17.925Z</time></trkpt><trkpt lat="39.3907779" lon="16.8888663"><ele>432.8571428571429</ele><time>2026-03-29T11:34:18.935Z</time></trkpt><trkpt lat="39.3907547" lon="16.8889756"><ele>430.7142857142857</ele><time>2026-03-29T11:34:19.928Z</time></trkpt><trkpt lat="39.3907259" lon="16.8890695"><ele>428.57142857142856</ele><time>2026-03-29T11:34:20.929Z</time></trkpt><trkpt lat="39.3906835" lon="16.889132"><ele>426.42857142857144</ele><time>2026-03-29T11:34:21.923Z</time></trkpt><trkpt lat="39.3906365" lon="16.889193"><ele>424.2857142857143</ele><time>2026-03-29T11:34:22.937Z</time></trkpt><trkpt lat="39.3905821" lon="16.8892595"><ele>422.14285714285717</ele><time>2026-03-29T11:34:23.948Z</time></trkpt><trkpt lat="39.3905323" lon="16.8893232"><ele>420.0</ele><time>2026-03-29T11:34:24.916Z</time></trkpt><trkpt lat="39.3904782" lon="16.8893822"><ele>418.42857142857144</ele><time>2026-03-29T11:34:25.932Z</time></trkpt><trkpt lat="39.3904247" lon="16.8894334"><ele>416.8571428571429</ele><time>2026-03-29T11:34:26.945Z</time></trkpt><trkpt lat="39.39037" lon="16.8894763"><ele>415.2857142857143</ele><time>2026-03-29T11:34:27.931Z</time></trkpt><trkpt lat="39.3903081" lon="16.8895028"><ele>413.7142857142857</ele><time>2026-03-29T11:34:28.939Z</time></trkpt><trkpt lat="39.3902392" lon="16.8895245"><ele>412.14285714285717</ele><time>2026-03-29T11:34:29.932Z</time></trkpt><trkpt lat="39.3901668" lon="16.8895426"><ele>410.57142857142856</ele><time>2026-03-29T11:34:30.926Z</time></trkpt><trkpt lat="39.3900895" lon="16.8895495"><ele>409.0</ele><time>2026-03-29T11:34:31.934Z</time></trkpt><trkpt lat="39.3900207" lon="16.8895723"><ele>409.00000000000006</ele><time>2026-03-29T11:34:32.926Z</time></trkpt><trkpt lat="39.3899051" lon="16.8896103"><ele>409.0</ele><time>2026-03-29T11:34:34.943Z</time></trkpt><trkpt lat="39.3898233" lon="16.8896553"><ele>409.0</ele><time>2026-03-29T11:34:36.935Z</time></trkpt><trkpt lat="39.3897798" lon="16.8897294"><ele>409.0</ele><time>2026-03-29T11:34:38.934Z</time></trkpt><trkpt lat="39.3898221" lon="16.8898114"><ele>409.00000000000006</ele><time>2026-03-29T11:34:59.933Z</time></trkpt><trkpt lat="39.389889" lon="16.8898357"><ele>409.0</ele><time>2026-03-29T11:35:01.936Z</time></trkpt><trkpt lat="39.3900103" lon="16.8898566"><ele>409.00000000000006</ele><time>2026-03-29T11:35:03.929Z</time></trkpt><trkpt lat="39.3900807" lon="16.8898642"><ele>409.0</ele><time>2026-03-29T11:35:04.929Z</time></trkpt><trkpt lat="39.3901513" lon="16.8898636"><ele>409.0</ele><time>2026-03-29T11:35:05.928Z</time></trkpt><trkpt lat="39.3902161" lon="16.889862"><ele>409.0</ele><time>2026-03-29T11:35:06.928Z</time></trkpt><trkpt lat="39.3902791" lon="16.8898636"><ele>409.00000000000006</ele><time>2026-03-29T11:35:07.94Z</time></trkpt><trkpt lat="39.3904017" lon="16.8898791"><ele>409.0</ele><time>2026-03-29T11:35:09.925Z</time></trkpt><trkpt lat="39.3904713" lon="16.8898956"><ele>408.7142857142857</ele><time>2026-03-29T11:35:10.923Z</time></trkpt><trkpt lat="39.3905456" lon="16.8899081"><ele>408.42857142857144</ele><time>2026-03-29T11:35:11.953Z</time></trkpt><trkpt lat="39.3906191" lon="16.8899192"><ele>408.14285714285717</ele><time>2026-03-29T11:35:12.928Z</time></trkpt><trkpt lat="39.3906873" lon="16.8899196"><ele>407.8571428571429</ele><time>2026-03-29T11:35:13.932Z</time></trkpt><trkpt lat="39.3907533" lon="16.8899093"><ele>407.57142857142856</ele><time>2026-03-29T11:35:14.934Z</time></trkpt><trkpt lat="39.3908178" lon="16.8898931"><ele>407.28571428571433</ele><time>2026-03-29T11:35:15.929Z</time></trkpt><trkpt lat="39.3908799" lon="16.889875"><ele>407.0</ele><time>2026-03-29T11:35:16.925Z</time></trkpt><trkpt lat="39.390943" lon="16.8898476"><ele>406.99999999999994</ele><time>2026-03-29T11:35:17.937Z</time></trkpt><trkpt lat="39.3910067" lon="16.8898108"><ele>407.0</ele><time>2026-03-29T11:35:18.932Z</time></trkpt><trkpt lat="39.3910635" lon="16.889766"><ele>407.0</ele><time>2026-03-29T11:35:19.939Z</time></trkpt><trkpt lat="39.3911647" lon="16.8896939"><ele>407.0</ele><time>2026-03-29T11:35:21.926Z</time></trkpt><trkpt lat="39.3912559" lon="16.8896875"><ele>406.99999999999994</ele><time>2026-03-29T11:35:23.931Z</time></trkpt><trkpt lat="39.3913115" lon="16.8897423"><ele>407.0</ele><time>2026-03-29T11:35:24.921Z</time></trkpt><trkpt lat="39.3913784" lon="16.8897979"><ele>406.99999999999994</ele><time>2026-03-29T11:35:25.93Z</time></trkpt><trkpt lat="39.3914603" lon="16.8898515"><ele>407.0</ele><time>2026-03-29T11:35:26.926Z</time></trkpt><trkpt lat="39.3915552" lon="16.889877"><ele>407.0</ele><time>2026-03-29T11:35:27.932Z</time></trkpt><trkpt lat="39.39165" lon="16.8898867"><ele>407.0</ele><time>2026-03-29T11:35:28.926Z</time></trkpt><trkpt lat="39.3917345" lon="16.8898698"><ele>406.99999999999994</ele><time>2026-03-29T11:35:29.929Z</time></trkpt><trkpt lat="39.3918085" lon="16.8898459"><ele>407.0</ele><time>2026-03-29T11:35:30.926Z</time></trkpt><trkpt lat="39.391882" lon="16.8898256"><ele>407.0</ele><time>2026-03-29T11:35:31.933Z</time></trkpt><trkpt lat="39.3919475" lon="16.8898111"><ele>407.0</ele><time>2026-03-29T11:35:32.944Z</time></trkpt><trkpt lat="39.3920622" lon="16.8897784"><ele>407.0</ele><time>2026-03-29T11:35:34.93Z</time></trkpt><trkpt lat="39.392181" lon="16.8897514"><ele>407.0</ele><time>2026-03-29T11:35:36.929Z</time></trkpt><trkpt lat="39.3923065" lon="16.8897146"><ele>407.0</ele><time>2026-03-29T11:35:38.925Z</time></trkpt><trkpt lat="39.3923761" lon="16.889699"><ele>409.49999999999994</ele><time>2026-03-29T11:35:39.928Z</time></trkpt><trkpt lat="39.3924498" lon="16.8896916"><ele>412.0</ele><time>2026-03-29T11:35:40.932Z</time></trkpt><trkpt lat="39.3925274" lon="16.8896899"><ele>414.5</ele><time>2026-03-29T11:35:41.931Z</time></trkpt><trkpt lat="39.3926172" lon="16.8897035"><ele>417.0</ele><time>2026-03-29T11:35:42.921Z</time></trkpt><trkpt lat="39.3927108" lon="16.8897161"><ele>419.49999999999994</ele><time>2026-03-29T11:35:43.925Z</time></trkpt><trkpt lat="39.3928028" lon="16.8897254"><ele>422.0</ele><time>2026-03-29T11:35:44.93Z</time></trkpt><trkpt lat="39.3928859" lon="16.8897355"><ele>421.99999999999994</ele><time>2026-03-29T11:35:45.936Z</time></trkpt><trkpt lat="39.3929544" lon="16.8897524"><ele>422.0</ele><time>2026-03-29T11:35:46.921Z</time></trkpt><trkpt lat="39.3930274" lon="16.8897776"><ele>422.0</ele><time>2026-03-29T11:35:47.93Z</time></trkpt><trkpt lat="39.3931139" lon="16.889793"><ele>422.0</ele><time>2026-03-29T11:35:48.92Z</time></trkpt><trkpt lat="39.3932083" lon="16.8897764"><ele>421.99999999999994</ele><time>2026-03-29T11:35:49.932Z</time></trkpt><trkpt lat="39.393307" lon="16.8897243"><ele>422.0</ele><time>2026-03-29T11:35:50.931Z</time></trkpt><trkpt lat="39.3934095" lon="16.8896631"><ele>423.66666666666663</ele><time>2026-03-29T11:35:51.926Z</time></trkpt><trkpt lat="39.3935029" lon="16.8896079"><ele>425.3333333333333</ele><time>2026-03-29T11:35:52.93Z</time></trkpt><trkpt lat="39.393587" lon="16.8895722"><ele>427.0</ele><time>2026-03-29T11:35:53.934Z</time></trkpt><trkpt lat="39.393663" lon="16.8895569"><ele>428.66666666666663</ele><time>2026-03-29T11:35:54.925Z</time></trkpt><trkpt lat="39.3937277" lon="16.8895658"><ele>430.3333333333333</ele><time>2026-03-29T11:35:55.926Z</time></trkpt><trkpt lat="39.3937886" lon="16.8895994"><ele>432.0</ele><time>2026-03-29T11:35:56.92Z</time></trkpt><trkpt lat="39.3938574" lon="16.8896416"><ele>433.5</ele><time>2026-03-29T11:35:57.928Z</time></trkpt><trkpt lat="39.3939421" lon="16.8896611"><ele>435.0</ele><time>2026-03-29T11:35:58.934Z</time></trkpt><trkpt lat="39.3940241" lon="16.8896204"><ele>436.5</ele><time>2026-03-29T11:35:59.924Z</time></trkpt><trkpt lat="39.3941081" lon="16.889568"><ele>438.0</ele><time>2026-03-29T11:36:00.926Z</time></trkpt><trkpt lat="39.3941887" lon="16.8895221"><ele>439.5</ele><time>2026-03-29T11:36:01.925Z</time></trkpt><trkpt lat="39.3942783" lon="16.8895199"><ele>441.0</ele><time>2026-03-29T11:36:02.921Z</time></trkpt><trkpt lat="39.3943737" lon="16.8895294"><ele>441.0</ele><time>2026-03-29T11:36:03.931Z</time></trkpt><trkpt lat="39.3944805" lon="16.8895568"><ele>441.0</ele><time>2026-03-29T11:36:04.916Z</time></trkpt><trkpt lat="39.3945902" lon="16.8895877"><ele>441.0</ele><time>2026-03-29T11:36:05.928Z</time></trkpt><trkpt lat="39.3946892" lon="16.8896259"><ele>441.0</ele><time>2026-03-29T11:36:06.943Z</time></trkpt><trkpt lat="39.3947757" lon="16.8896748"><ele>441.0</ele><time>2026-03-29T11:36:07.934Z</time></trkpt><trkpt lat="39.394855" lon="16.8897273"><ele>440.8333333333333</ele><time>2026-03-29T11:36:08.938Z</time></trkpt><trkpt lat="39.3949274" lon="16.889777"><ele>440.66666666666663</ele><time>2026-03-29T11:36:09.928Z</time></trkpt><trkpt lat="39.3949925" lon="16.8898283"><ele>440.5</ele><time>2026-03-29T11:36:10.925Z</time></trkpt><trkpt lat="39.3950525" lon="16.8898777"><ele>440.3333333333333</ele><time>2026-03-29T11:36:11.928Z</time></trkpt><trkpt lat="39.3951133" lon="16.8899117"><ele>440.16666666666663</ele><time>2026-03-29T11:36:12.927Z</time></trkpt><trkpt lat="39.3951892" lon="16.8899247"><ele>440.0</ele><time>2026-03-29T11:36:13.924Z</time></trkpt><trkpt lat="39.395272" lon="16.8899299"><ele>439.99999999999994</ele><time>2026-03-29T11:36:14.934Z</time></trkpt><trkpt lat="39.3953523" lon="16.8899412"><ele>440.0</ele><time>2026-03-29T11:36:15.936Z</time></trkpt><trkpt lat="39.3954286" lon="16.8899599"><ele>440.0</ele><time>2026-03-29T11:36:16.92Z</time></trkpt><trkpt lat="39.395503" lon="16.889986"><ele>440.0</ele><time>2026-03-29T11:36:17.927Z</time></trkpt><trkpt lat="39.3955712" lon="16.8900184"><ele>439.99999999999994</ele><time>2026-03-29T11:36:18.933Z</time></trkpt><trkpt lat="39.3956298" lon="16.8900499"><ele>440.0</ele><time>2026-03-29T11:36:19.922Z</time></trkpt><trkpt lat="39.3956834" lon="16.8901664"><ele>438.99999999999994</ele><time>2026-03-29T11:36:21.925Z</time></trkpt><trkpt lat="39.3956989" lon="16.8902673"><ele>438.0</ele><time>2026-03-29T11:36:22.918Z</time></trkpt><trkpt lat="39.3957129" lon="16.8903821"><ele>437.0</ele><time>2026-03-29T11:36:23.943Z</time></trkpt><trkpt lat="39.3957269" lon="16.8904986"><ele>436.0</ele><time>2026-03-29T11:36:24.939Z</time></trkpt><trkpt lat="39.3957406" lon="16.890609"><ele>434.99999999999994</ele><time>2026-03-29T11:36:25.928Z</time></trkpt><trkpt lat="39.3957557" lon="16.8907029"><ele>434.0</ele><time>2026-03-29T11:36:26.941Z</time></trkpt><trkpt lat="39.3957783" lon="16.8908459"><ele>435.0</ele><time>2026-03-29T11:36:28.941Z</time></trkpt><trkpt lat="39.3957999" lon="16.8909539"><ele>436.0</ele><time>2026-03-29T11:36:30.939Z</time></trkpt><trkpt lat="39.3958503" lon="16.8910374"><ele>437.0</ele><time>2026-03-29T11:36:33.93Z</time></trkpt><trkpt lat="39.3959061" lon="16.8911058"><ele>438.0</ele><time>2026-03-29T11:37:11.928Z</time></trkpt><trkpt lat="39.3959454" lon="16.8912129"><ele>439.0</ele><time>2026-03-29T11:37:13.924Z</time></trkpt><trkpt lat="39.3960072" lon="16.8913605"><ele>439.00000000000006</ele><time>2026-03-29T11:37:15.92Z</time></trkpt><trkpt lat="39.396042" lon="16.8914376"><ele>439.0</ele><time>2026-03-29T11:37:16.926Z</time></trkpt><trkpt lat="39.3960725" lon="16.8915178"><ele>439.0</ele><time>2026-03-29T11:37:17.91Z</time></trkpt><trkpt lat="39.396102" lon="16.8915935"><ele>439.0</ele><time>2026-03-29T11:37:18.928Z</time></trkpt><trkpt lat="39.3961729" lon="16.8917039"><ele>439.00000000000006</ele><time>2026-03-29T11:37:20.932Z</time></trkpt><trkpt lat="39.3962747" lon="16.8917475"><ele>439.0</ele><time>2026-03-29T11:37:22.932Z</time></trkpt><trkpt lat="39.3963534" lon="16.8917669"><ele>434.33333333333337</ele><time>2026-03-29T11:37:24.921Z</time></trkpt><trkpt lat="39.3964307" lon="16.8918144"><ele>429.6666666666667</ele><time>2026-03-29T11:37:27.924Z</time></trkpt><trkpt lat="39.3964973" lon="16.8918712"><ele>425.0</ele><time>2026-03-29T11:37:31.929Z</time></trkpt><trkpt lat="39.3965758" lon="16.8919305"><ele>420.33333333333337</ele><time>2026-03-29T11:37:34.922Z</time></trkpt><trkpt lat="39.3966214" lon="16.891988"><ele>415.6666666666667</ele><time>2026-03-29T11:37:36.941Z</time></trkpt><trkpt lat="39.3966865" lon="16.8920676"><ele>411.0</ele><time>2026-03-29T11:37:39.93Z</time></trkpt><trkpt lat="39.3967411" lon="16.8921519"><ele>411.0</ele><time>2026-03-29T11:37:42.946Z</time></trkpt><trkpt lat="39.3967732" lon="16.8922302"><ele>411.0</ele><time>2026-03-29T11:38:54.923Z</time></trkpt><trkpt lat="39.3968032" lon="16.8923287"><ele>411.0</ele><time>2026-03-29T11:38:58.928Z</time></trkpt><trkpt lat="39.3968212" lon="16.8924444"><ele>411.0</ele><time>2026-03-29T11:39:01.929Z</time></trkpt><trkpt lat="39.3968389" lon="16.8925437"><ele>411.0</ele><time>2026-03-29T11:39:04.932Z</time></trkpt><trkpt lat="39.3968681" lon="16.8926334"><ele>411.0</ele><time>2026-03-29T11:39:08.925Z</time></trkpt><trkpt lat="39.3968961" lon="16.8927349"><ele>409.3333333333333</ele><time>2026-03-29T11:39:12.927Z</time></trkpt><trkpt lat="39.3968777" lon="16.892861"><ele>407.66666666666663</ele><time>2026-03-29T11:39:15.936Z</time></trkpt><trkpt lat="39.3968673" lon="16.8929632"><ele>406.0</ele><time>2026-03-29T11:39:17.934Z</time></trkpt><trkpt lat="39.3969078" lon="16.8930321"><ele>404.3333333333333</ele><time>2026-03-29T11:39:19.925Z</time></trkpt><trkpt lat="39.3969759" lon="16.8931131"><ele>402.66666666666663</ele><time>2026-03-29T11:39:22.937Z</time></trkpt><trkpt lat="39.3970407" lon="16.8931793"><ele>401.0</ele><time>2026-03-29T11:39:25.927Z</time></trkpt><trkpt lat="39.3970999" lon="16.8932197"><ele>398.0</ele><time>2026-03-29T11:39:28.943Z</time></trkpt><trkpt lat="39.3971815" lon="16.8932803"><ele>395.0</ele><time>2026-03-29T11:39:31.954Z</time></trkpt><trkpt lat="39.3972636" lon="16.8933445"><ele>392.0</ele><time>2026-03-29T11:39:33.92Z</time></trkpt><trkpt lat="39.3973401" lon="16.8934543"><ele>389.0</ele><time>2026-03-29T11:39:35.935Z</time></trkpt><trkpt lat="39.3973663" lon="16.8935365"><ele>386.0</ele><time>2026-03-29T11:39:36.935Z</time></trkpt><trkpt lat="39.3973948" lon="16.893673"><ele>383.16666666666663</ele><time>2026-03-29T11:39:38.928Z</time></trkpt><trkpt lat="39.3974346" lon="16.8937578"><ele>380.3333333333333</ele><time>2026-03-29T11:39:40.929Z</time></trkpt><trkpt lat="39.3974976" lon="16.8937855"><ele>377.5</ele><time>2026-03-29T11:39:42.931Z</time></trkpt><trkpt lat="39.3975574" lon="16.8937518"><ele>374.66666666666663</ele><time>2026-03-29T11:39:44.933Z</time></trkpt><trkpt lat="39.3976022" lon="16.8936833"><ele>371.8333333333333</ele><time>2026-03-29T11:39:46.93Z</time></trkpt><trkpt lat="39.3976321" lon="16.8935857"><ele>369.0</ele><time>2026-03-29T11:39:48.93Z</time></trkpt><trkpt lat="39.3976521" lon="16.893427"><ele>366.8333333333333</ele><time>2026-03-29T11:39:50.933Z</time></trkpt><trkpt lat="39.3976933" lon="16.8933531"><ele>364.6666666666667</ele><time>2026-03-29T11:39:51.944Z</time></trkpt><trkpt lat="39.3977462" lon="16.8932956"><ele>362.5</ele><time>2026-03-29T11:39:52.927Z</time></trkpt><trkpt lat="39.3977999" lon="16.8932495"><ele>360.33333333333337</ele><time>2026-03-29T11:39:53.925Z</time></trkpt><trkpt lat="39.3978597" lon="16.8932163"><ele>358.1666666666667</ele><time>2026-03-29T11:39:54.93Z</time></trkpt><trkpt lat="39.3979657" lon="16.893179"><ele>356.0</ele><time>2026-03-29T11:39:56.93Z</time></trkpt><trkpt lat="39.3980409" lon="16.8932009"><ele>355.99999999999994</ele><time>2026-03-29T11:39:58.928Z</time></trkpt><trkpt lat="39.39806" lon="16.8932844"><ele>356.0</ele><time>2026-03-29T11:40:00.941Z</time></trkpt><trkpt lat="39.3980514" lon="16.8934098"><ele>356.0</ele><time>2026-03-29T11:40:03.922Z</time></trkpt><trkpt lat="39.3980795" lon="16.8934854"><ele>356.0</ele><time>2026-03-29T11:40:07.923Z</time></trkpt><trkpt lat="39.3981547" lon="16.8935254"><ele>356.0</ele><time>2026-03-29T11:40:10.928Z</time></trkpt><trkpt lat="39.3982179" lon="16.8935099"><ele>355.99999999999994</ele><time>2026-03-29T11:40:12.939Z</time></trkpt><trkpt lat="39.3982821" lon="16.8935019"><ele>356.0</ele><time>2026-03-29T11:40:14.939Z</time></trkpt><trkpt lat="39.3983483" lon="16.8935114"><ele>354.5</ele><time>2026-03-29T11:40:16.941Z</time></trkpt><trkpt lat="39.3984166" lon="16.8935136"><ele>353.0</ele><time>2026-03-29T11:40:18.944Z</time></trkpt><trkpt lat="39.3984974" lon="16.8935115"><ele>351.5</ele><time>2026-03-29T11:40:20.931Z</time></trkpt><trkpt lat="39.3985641" lon="16.8935258"><ele>350.0</ele><time>2026-03-29T11:40:22.935Z</time></trkpt><trkpt lat="39.3986432" lon="16.8935763"><ele>348.5</ele><time>2026-03-29T11:40:25.935Z</time></trkpt><trkpt lat="39.3987067" lon="16.8936518"><ele>347.0</ele><time>2026-03-29T11:40:27.935Z</time></trkpt><trkpt lat="39.3987902" lon="16.8937571"><ele>347.0</ele><time>2026-03-29T11:40:29.927Z</time></trkpt><trkpt lat="39.3988236" lon="16.8938897"><ele>347.0</ele><time>2026-03-29T11:40:31.934Z</time></trkpt><trkpt lat="39.3988467" lon="16.8940358"><ele>347.0</ele><time>2026-03-29T11:40:33.94Z</time></trkpt><trkpt lat="39.3988719" lon="16.8941851"><ele>347.0</ele><time>2026-03-29T11:40:35.931Z</time></trkpt><trkpt lat="39.3988811" lon="16.8943292"><ele>344.83333333333337</ele><time>2026-03-29T11:40:37.93Z</time></trkpt><trkpt lat="39.398874" lon="16.8944551"><ele>342.6666666666667</ele><time>2026-03-29T11:40:39.93Z</time></trkpt><trkpt lat="39.3988484" lon="16.8945729"><ele>340.5</ele><time>2026-03-29T11:40:41.926Z</time></trkpt><trkpt lat="39.3988023" lon="16.8946426"><ele>338.3333333333333</ele><time>2026-03-29T11:40:43.934Z</time></trkpt><trkpt lat="39.3987733" lon="16.8947268"><ele>336.16666666666663</ele><time>2026-03-29T11:40:46.923Z</time></trkpt><trkpt lat="39.3988379" lon="16.8948355"><ele>334.0</ele><time>2026-03-29T11:40:49.921Z</time></trkpt><trkpt lat="39.3988824" lon="16.8949655"><ele>332.2</ele><time>2026-03-29T11:40:51.93Z</time></trkpt><trkpt lat="39.3989829" lon="16.8950231"><ele>330.4</ele><time>2026-03-29T11:40:53.939Z</time></trkpt><trkpt lat="39.3991114" lon="16.8949873"><ele>328.6</ele><time>2026-03-29T11:40:55.927Z</time></trkpt><trkpt lat="39.3991869" lon="16.894965"><ele>326.8</ele><time>2026-03-29T11:40:56.933Z</time></trkpt><trkpt lat="39.3992729" lon="16.894944"><ele>325.0</ele><time>2026-03-29T11:40:57.932Z</time></trkpt><trkpt lat="39.3993639" lon="16.8949216"><ele>325.0</ele><time>2026-03-29T11:40:58.935Z</time></trkpt><trkpt lat="39.3994572" lon="16.8949086"><ele>325.0</ele><time>2026-03-29T11:40:59.944Z</time></trkpt><trkpt lat="39.3995494" lon="16.8948968"><ele>325.0</ele><time>2026-03-29T11:41:00.925Z</time></trkpt><trkpt lat="39.3996462" lon="16.894886"><ele>325.0</ele><time>2026-03-29T11:41:01.936Z</time></trkpt><trkpt lat="39.3997383" lon="16.8948729"><ele>325.0</ele><time>2026-03-29T11:41:02.934Z</time></trkpt><trkpt lat="39.3998243" lon="16.894858"><ele>324.5</ele><time>2026-03-29T11:41:03.948Z</time></trkpt><trkpt lat="39.3998953" lon="16.8948443"><ele>324.0</ele><time>2026-03-29T11:41:04.931Z</time></trkpt><trkpt lat="39.3999885" lon="16.8947964"><ele>323.5</ele><time>2026-03-29T11:41:06.938Z</time></trkpt><trkpt lat="39.4000031" lon="16.8946577"><ele>323.0</ele><time>2026-03-29T11:41:08.944Z</time></trkpt><trkpt lat="39.4000136" lon="16.8945716"><ele>322.5</ele><time>2026-03-29T11:41:09.933Z</time></trkpt><trkpt lat="39.4000271" lon="16.8944813"><ele>322.0</ele><time>2026-03-29T11:41:10.917Z</time></trkpt><trkpt lat="39.4000448" lon="16.894389"><ele>322.0</ele><time>2026-03-29T11:41:11.92Z</time></trkpt><trkpt lat="39.4000713" lon="16.8942968"><ele>322.0</ele><time>2026-03-29T11:41:12.926Z</time></trkpt><trkpt lat="39.4001076" lon="16.894209"><ele>322.0</ele><time>2026-03-29T11:41:13.931Z</time></trkpt><trkpt lat="39.4001458" lon="16.8941304"><ele>322.0</ele><time>2026-03-29T11:41:14.934Z</time></trkpt><trkpt lat="39.4001818" lon="16.8940598"><ele>322.0</ele><time>2026-03-29T11:41:15.925Z</time></trkpt><trkpt lat="39.4002522" lon="16.8939309"><ele>322.0</ele><time>2026-03-29T11:41:17.93Z</time></trkpt><trkpt lat="39.4003128" lon="16.8937955"><ele>320.8</ele><time>2026-03-29T11:41:19.933Z</time></trkpt><trkpt lat="39.4003426" lon="16.8937221"><ele>319.6</ele><time>2026-03-29T11:41:20.925Z</time></trkpt><trkpt lat="39.4003908" lon="16.8935895"><ele>318.40000000000003</ele><time>2026-03-29T11:41:22.933Z</time></trkpt><trkpt lat="39.4004306" lon="16.8934769"><ele>317.20000000000005</ele><time>2026-03-29T11:41:24.931Z</time></trkpt><trkpt lat="39.4004653" lon="16.8933469"><ele>316.0</ele><time>2026-03-29T11:41:26.934Z</time></trkpt><trkpt lat="39.4005002" lon="16.8932069"><ele>314.40000000000003</ele><time>2026-03-29T11:41:28.926Z</time></trkpt><trkpt lat="39.4005358" lon="16.8930592"><ele>312.8</ele><time>2026-03-29T11:41:30.924Z</time></trkpt><trkpt lat="39.400563" lon="16.8929145"><ele>311.20000000000005</ele><time>2026-03-29T11:41:32.928Z</time></trkpt><trkpt lat="39.4005745" lon="16.8927548"><ele>309.6</ele><time>2026-03-29T11:41:34.921Z</time></trkpt><trkpt lat="39.4005816" lon="16.8926735"><ele>308.0</ele><time>2026-03-29T11:41:35.933Z</time></trkpt><trkpt lat="39.4006006" lon="16.8925137"><ele>306.33333333333337</ele><time>2026-03-29T11:41:37.918Z</time></trkpt><trkpt lat="39.4006309" lon="16.8923611"><ele>304.6666666666667</ele><time>2026-03-29T11:41:39.926Z</time></trkpt><trkpt lat="39.4006628" lon="16.8922881"><ele>303.0</ele><time>2026-03-29T11:41:40.93Z</time></trkpt><trkpt lat="39.4007025" lon="16.8922179"><ele>301.3333333333333</ele><time>2026-03-29T11:41:41.928Z</time></trkpt><trkpt lat="39.4007447" lon="16.89215"><ele>299.66666666666663</ele><time>2026-03-29T11:41:42.935Z</time></trkpt><trkpt lat="39.4007963" lon="16.8921016"><ele>298.0</ele><time>2026-03-29T11:41:43.926Z</time></trkpt><trkpt lat="39.4009088" lon="16.8920537"><ele>298.0</ele><time>2026-03-29T11:41:45.93Z</time></trkpt><trkpt lat="39.4010021" lon="16.8920573"><ele>298.0</ele><time>2026-03-29T11:41:47.929Z</time></trkpt><trkpt lat="39.4010828" lon="16.8920915"><ele>298.0</ele><time>2026-03-29T11:41:49.928Z</time></trkpt><trkpt lat="39.401162" lon="16.8921561"><ele>298.0</ele><time>2026-03-29T11:41:51.929Z</time></trkpt><trkpt lat="39.4012405" lon="16.8921695"><ele>298.0</ele><time>2026-03-29T11:41:54.926Z</time></trkpt><trkpt lat="39.4012585" lon="16.8920542"><ele>298.0</ele><time>2026-03-29T11:41:57.919Z</time></trkpt><trkpt lat="39.4012493" lon="16.891947"><ele>298.0</ele><time>2026-03-29T11:41:59.928Z</time></trkpt><trkpt lat="39.401244" lon="16.8918313"><ele>298.0</ele><time>2026-03-29T11:42:01.925Z</time></trkpt><trkpt lat="39.4012338" lon="16.8917062"><ele>298.0</ele><time>2026-03-29T11:42:03.935Z</time></trkpt><trkpt lat="39.4012235" lon="16.8915672"><ele>298.0</ele><time>2026-03-29T11:42:05.923Z</time></trkpt><trkpt lat="39.4012207" lon="16.891459"><ele>298.0</ele><time>2026-03-29T11:42:07.926Z</time></trkpt><trkpt lat="39.4012209" lon="16.8913701"><ele>298.0</ele><time>2026-03-29T11:42:09.936Z</time></trkpt><trkpt lat="39.4012101" lon="16.8912676"><ele>295.8</ele><time>2026-03-29T11:42:11.933Z</time></trkpt><trkpt lat="39.4011778" lon="16.8911587"><ele>293.6</ele><time>2026-03-29T11:42:13.926Z</time></trkpt><trkpt lat="39.4011194" lon="16.8910554"><ele>291.4</ele><time>2026-03-29T11:42:15.936Z</time></trkpt><trkpt lat="39.4010591" lon="16.8909518"><ele>289.2</ele><time>2026-03-29T11:42:17.929Z</time></trkpt><trkpt lat="39.4010607" lon="16.8908274"><ele>287.0</ele><time>2026-03-29T11:42:19.927Z</time></trkpt><trkpt lat="39.4010771" lon="16.8907023"><ele>286.1666666666667</ele><time>2026-03-29T11:42:21.938Z</time></trkpt><trkpt lat="39.4010875" lon="16.8905684"><ele>285.33333333333337</ele><time>2026-03-29T11:42:24.935Z</time></trkpt><trkpt lat="39.4010978" lon="16.8904869"><ele>284.5</ele><time>2026-03-29T11:42:25.93Z</time></trkpt><trkpt lat="39.4010985" lon="16.8903908"><ele>283.6666666666667</ele><time>2026-03-29T11:42:26.924Z</time></trkpt><trkpt lat="39.4010825" lon="16.8902846"><ele>282.8333333333333</ele><time>2026-03-29T11:42:27.924Z</time></trkpt><trkpt lat="39.4010583" lon="16.890178"><ele>282.0</ele><time>2026-03-29T11:42:28.924Z</time></trkpt><trkpt lat="39.4010353" lon="16.890074"><ele>281.3333333333333</ele><time>2026-03-29T11:42:29.92Z</time></trkpt><trkpt lat="39.4010134" lon="16.88997"><ele>280.6666666666667</ele><time>2026-03-29T11:42:30.936Z</time></trkpt><trkpt lat="39.4010091" lon="16.8898674"><ele>280.0</ele><time>2026-03-29T11:42:31.924Z</time></trkpt><trkpt lat="39.4010236" lon="16.889767"><ele>279.33333333333337</ele><time>2026-03-29T11:42:32.931Z</time></trkpt><trkpt lat="39.4010552" lon="16.8896719"><ele>278.6666666666667</ele><time>2026-03-29T11:42:33.943Z</time></trkpt><trkpt lat="39.4010858" lon="16.8895833"><ele>278.0</ele><time>2026-03-29T11:42:34.929Z</time></trkpt><trkpt lat="39.4011127" lon="16.8895075"><ele>278.0</ele><time>2026-03-29T11:42:35.927Z</time></trkpt><trkpt lat="39.4011445" lon="16.8894222"><ele>278.0</ele><time>2026-03-29T11:42:36.928Z</time></trkpt><trkpt lat="39.40117" lon="16.8893278"><ele>278.0</ele><time>2026-03-29T11:42:37.934Z</time></trkpt><trkpt lat="39.4011826" lon="16.8892377"><ele>278.0</ele><time>2026-03-29T11:42:38.932Z</time></trkpt><trkpt lat="39.4011981" lon="16.889092"><ele>278.0</ele><time>2026-03-29T11:42:40.923Z</time></trkpt><trkpt lat="39.4012462" lon="16.8890057"><ele>278.0</ele><time>2026-03-29T11:42:42.934Z</time></trkpt><trkpt lat="39.4013" lon="16.8889311"><ele>275.83333333333337</ele><time>2026-03-29T11:42:44.946Z</time></trkpt><trkpt lat="39.4013416" lon="16.8888666"><ele>273.6666666666667</ele><time>2026-03-29T11:42:46.936Z</time></trkpt><trkpt lat="39.4013988" lon="16.8887653"><ele>271.5</ele><time>2026-03-29T11:42:49.936Z</time></trkpt><trkpt lat="39.4014476" lon="16.8886647"><ele>269.3333333333333</ele><time>2026-03-29T11:42:51.927Z</time></trkpt><trkpt lat="39.4015005" lon="16.8885744"><ele>267.16666666666663</ele><time>2026-03-29T11:42:53.93Z</time></trkpt><trkpt lat="39.4015682" lon="16.8885035"><ele>265.0</ele><time>2026-03-29T11:42:56.95Z</time></trkpt><trkpt lat="39.4016317" lon="16.8884149"><ele>265.0</ele><time>2026-03-29T11:42:59.925Z</time></trkpt><trkpt lat="39.4016949" lon="16.8883361"><ele>265.0</ele><time>2026-03-29T11:43:01.92Z</time></trkpt><trkpt lat="39.4017694" lon="16.8882372"><ele>265.0</ele><time>2026-03-29T11:43:03.917Z</time></trkpt><trkpt lat="39.4018549" lon="16.8881355"><ele>265.0</ele><time>2026-03-29T11:43:05.935Z</time></trkpt><trkpt lat="39.4019277" lon="16.8880175"><ele>265.0</ele><time>2026-03-29T11:43:07.926Z</time></trkpt><trkpt lat="39.4019989" lon="16.8878992"><ele>265.0</ele><time>2026-03-29T11:43:09.931Z</time></trkpt><trkpt lat="39.402106" lon="16.8877903"><ele>265.0</ele><time>2026-03-29T11:43:11.925Z</time></trkpt><trkpt lat="39.4021639" lon="16.8877304"><ele>265.0</ele><time>2026-03-29T11:43:12.927Z</time></trkpt><trkpt lat="39.4022042" lon="16.8876637"><ele>265.0</ele><time>2026-03-29T11:43:13.923Z</time></trkpt><trkpt lat="39.4022338" lon="16.8875221"><ele>265.0</ele><time>2026-03-29T11:43:15.929Z</time></trkpt><trkpt lat="39.4022664" lon="16.8873745"><ele>262.4</ele><time>2026-03-29T11:43:17.932Z</time></trkpt><trkpt lat="39.4022875" lon="16.8872338"><ele>259.8</ele><time>2026-03-29T11:43:19.924Z</time></trkpt><trkpt lat="39.402334" lon="16.8871116"><ele>257.2</ele><time>2026-03-29T11:43:21.921Z</time></trkpt><trkpt lat="39.4024382" lon="16.887051"><ele>254.6</ele><time>2026-03-29T11:43:23.941Z</time></trkpt><trkpt lat="39.4024888" lon="16.8869979"><ele>252.0</ele><time>2026-03-29T11:43:25Z</time></trkpt><trkpt lat="39.4025497" lon="16.8868655"><ele>250.0</ele><time>2026-03-29T11:43:26.917Z</time></trkpt><trkpt lat="39.4025913" lon="16.8867335"><ele>248.0</ele><time>2026-03-29T11:43:28.942Z</time></trkpt><trkpt lat="39.4026771" lon="16.8866325"><ele>246.0</ele><time>2026-03-29T11:43:30.929Z</time></trkpt><trkpt lat="39.4027336" lon="16.8865832"><ele>244.0</ele><time>2026-03-29T11:43:31.929Z</time></trkpt><trkpt lat="39.4027918" lon="16.8865309"><ele>242.0</ele><time>2026-03-29T11:43:32.939Z</time></trkpt><trkpt lat="39.4028398" lon="16.8864517"><ele>240.0</ele><time>2026-03-29T11:43:33.928Z</time></trkpt><trkpt lat="39.4028853" lon="16.8863628"><ele>240.0</ele><time>2026-03-29T11:43:34.926Z</time></trkpt><trkpt lat="39.4029378" lon="16.8862806"><ele>240.0</ele><time>2026-03-29T11:43:35.927Z</time></trkpt><trkpt lat="39.4029914" lon="16.8862033"><ele>240.0</ele><time>2026-03-29T11:43:36.933Z</time></trkpt><trkpt lat="39.4030375" lon="16.8861289"><ele>240.0</ele><time>2026-03-29T11:43:37.924Z</time></trkpt><trkpt lat="39.4030849" lon="16.8860667"><ele>240.0</ele><time>2026-03-29T11:43:38.928Z</time></trkpt><trkpt lat="39.4031725" lon="16.8859643"><ele>240.0</ele><time>2026-03-29T11:43:40.925Z</time></trkpt><trkpt lat="39.4032222" lon="16.8858371"><ele>236.5</ele><time>2026-03-29T11:43:42.93Z</time></trkpt><trkpt lat="39.4032484" lon="16.885696"><ele>233.0</ele><time>2026-03-29T11:43:44.93Z</time></trkpt><trkpt lat="39.4032809" lon="16.885621"><ele>229.5</ele><time>2026-03-29T11:43:45.933Z</time></trkpt><trkpt lat="39.403322" lon="16.885539"><ele>226.0</ele><time>2026-03-29T11:43:46.938Z</time></trkpt><trkpt lat="39.4033729" lon="16.8854628"><ele>222.5</ele><time>2026-03-29T11:43:47.942Z</time></trkpt><trkpt lat="39.4034219" lon="16.8853952"><ele>219.0</ele><time>2026-03-29T11:43:48.93Z</time></trkpt><trkpt lat="39.4034656" lon="16.8853357"><ele>219.0</ele><time>2026-03-29T11:43:49.929Z</time></trkpt><trkpt lat="39.4035375" lon="16.8852474"><ele>219.0</ele><time>2026-03-29T11:43:51.927Z</time></trkpt><trkpt lat="39.4035524" lon="16.8851432"><ele>219.0</ele><time>2026-03-29T11:43:54.944Z</time></trkpt><trkpt lat="39.4035279" lon="16.8850655"><ele>219.0</ele><time>2026-03-29T11:43:57.93Z</time></trkpt><trkpt lat="39.4035091" lon="16.8849659"><ele>219.0</ele><time>2026-03-29T11:44:00.962Z</time></trkpt><trkpt lat="39.4034919" lon="16.8848796"><ele>219.0</ele><time>2026-03-29T11:44:02.928Z</time></trkpt><trkpt lat="39.4034797" lon="16.8847968"><ele>219.0</ele><time>2026-03-29T11:44:04.926Z</time></trkpt><trkpt lat="39.4035342" lon="16.884733"><ele>219.0</ele><time>2026-03-29T11:44:08.926Z</time></trkpt><trkpt lat="39.4035802" lon="16.8848013"><ele>219.0</ele><time>2026-03-29T11:44:11.917Z</time></trkpt><trkpt lat="39.4036066" lon="16.8849115"><ele>219.0</ele><time>2026-03-29T11:44:13.926Z</time></trkpt><trkpt lat="39.4036536" lon="16.8850431"><ele>219.0</ele><time>2026-03-29T11:44:15.934Z</time></trkpt><trkpt lat="39.4037124" lon="16.8851138"><ele>219.0</ele><time>2026-03-29T11:44:17.923Z</time></trkpt><trkpt lat="39.4037665" lon="16.8850385"><ele>218.33333333333334</ele><time>2026-03-29T11:44:20.923Z</time></trkpt><trkpt lat="39.4037439" lon="16.8849391"><ele>217.66666666666669</ele><time>2026-03-29T11:44:22.925Z</time></trkpt><trkpt lat="39.4037456" lon="16.884828"><ele>217.0</ele><time>2026-03-29T11:44:24.923Z</time></trkpt><trkpt lat="39.403781" lon="16.8847329"><ele>216.33333333333334</ele><time>2026-03-29T11:44:26.916Z</time></trkpt><trkpt lat="39.4038574" lon="16.8847462"><ele>215.66666666666669</ele><time>2026-03-29T11:44:28.924Z</time></trkpt><trkpt lat="39.4039221" lon="16.8847307"><ele>215.0</ele><time>2026-03-29T11:44:30.918Z</time></trkpt><trkpt lat="39.4039666" lon="16.8846067"><ele>215.00000000000003</ele><time>2026-03-29T11:44:32.935Z</time></trkpt><trkpt lat="39.4040029" lon="16.8844879"><ele>215.0</ele><time>2026-03-29T11:44:34.918Z</time></trkpt><trkpt lat="39.4040216" lon="16.8843951"><ele>215.0</ele><time>2026-03-29T11:44:38.929Z</time></trkpt><trkpt lat="39.4040819" lon="16.8843613"><ele>215.0</ele><time>2026-03-29T11:44:49.93Z</time></trkpt><trkpt lat="39.4040822" lon="16.8844697"><ele>215.00000000000003</ele><time>2026-03-29T11:45:02.938Z</time></trkpt><trkpt lat="39.4040798" lon="16.8845842"><ele>215.0</ele><time>2026-03-29T11:45:05.921Z</time></trkpt><trkpt lat="39.4040827" lon="16.8847044"><ele>215.00000000000003</ele><time>2026-03-29T11:45:08.921Z</time></trkpt><trkpt lat="39.4040781" lon="16.8848167"><ele>215.0</ele><time>2026-03-29T11:45:11.927Z</time></trkpt><trkpt lat="39.4040659" lon="16.8849077"><ele>215.0</ele><time>2026-03-29T11:45:14.931Z</time></trkpt><trkpt lat="39.4040381" lon="16.8850137"><ele>215.0</ele><time>2026-03-29T11:45:17.934Z</time></trkpt><trkpt lat="39.4040128" lon="16.885113"><ele>215.00000000000003</ele><time>2026-03-29T11:45:19.925Z</time></trkpt><trkpt lat="39.4039827" lon="16.8852113"><ele>215.0</ele><time>2026-03-29T11:45:21.933Z</time></trkpt><trkpt lat="39.4039258" lon="16.8853274"><ele>216.0</ele><time>2026-03-29T11:45:23.923Z</time></trkpt><trkpt lat="39.4038621" lon="16.8854475"><ele>217.0</ele><time>2026-03-29T11:45:25.922Z</time></trkpt><trkpt lat="39.4038074" lon="16.8855745"><ele>218.0</ele><time>2026-03-29T11:45:27.931Z</time></trkpt><trkpt lat="39.4037514" lon="16.885696"><ele>219.0</ele><time>2026-03-29T11:45:29.929Z</time></trkpt><trkpt lat="39.4036973" lon="16.8858425"><ele>219.0</ele><time>2026-03-29T11:45:31.923Z</time></trkpt><trkpt lat="39.4036744" lon="16.8859227"><ele>219.0</ele><time>2026-03-29T11:45:32.928Z</time></trkpt><trkpt lat="39.4036437" lon="16.8859964"><ele>219.0</ele><time>2026-03-29T11:45:33.924Z</time></trkpt><trkpt lat="39.4035998" lon="16.8860563"><ele>219.0</ele><time>2026-03-29T11:45:34.931Z</time></trkpt><trkpt lat="39.4034955" lon="16.8861488"><ele>219.0</ele><time>2026-03-29T11:45:36.911Z</time></trkpt><trkpt lat="39.4034481" lon="16.8862121"><ele>219.0</ele><time>2026-03-29T11:45:37.923Z</time></trkpt><trkpt lat="39.4034071" lon="16.8862782"><ele>223.0</ele><time>2026-03-29T11:45:38.919Z</time></trkpt><trkpt lat="39.4033373" lon="16.8863748"><ele>226.99999999999997</ele><time>2026-03-29T11:45:40.924Z</time></trkpt><trkpt lat="39.4034016" lon="16.886419"><ele>230.99999999999997</ele><time>2026-03-29T11:45:45.898Z</time></trkpt><trkpt lat="39.403514" lon="16.8863681"><ele>235.0</ele><time>2026-03-29T11:45:47.917Z</time></trkpt><trkpt lat="39.403632" lon="16.8863889"><ele>239.0</ele><time>2026-03-29T11:45:49.912Z</time></trkpt><trkpt lat="39.4037214" lon="16.8864112"><ele>239.0</ele><time>2026-03-29T11:45:51.914Z</time></trkpt><trkpt lat="39.4037764" lon="16.8863291"><ele>238.99999999999997</ele><time>2026-03-29T11:45:53.903Z</time></trkpt><trkpt lat="39.4038335" lon="16.886217"><ele>238.99999999999997</ele><time>2026-03-29T11:45:55.905Z</time></trkpt><trkpt lat="39.4039065" lon="16.8861107"><ele>239.0</ele><time>2026-03-29T11:45:57.923Z</time></trkpt><trkpt lat="39.4039743" lon="16.8859928"><ele>239.0</ele><time>2026-03-29T11:45:59.915Z</time></trkpt><trkpt lat="39.4040499" lon="16.8858664"><ele>238.00000000000003</ele><time>2026-03-29T11:46:01.93Z</time></trkpt><trkpt lat="39.4040926" lon="16.8858001"><ele>237.0</ele><time>2026-03-29T11:46:02.923Z</time></trkpt><trkpt lat="39.4041328" lon="16.8857334"><ele>236.0</ele><time>2026-03-29T11:46:03.928Z</time></trkpt><trkpt lat="39.404212" lon="16.8856443"><ele>235.0</ele><time>2026-03-29T11:46:05.925Z</time></trkpt><trkpt lat="39.4042947" lon="16.8856164"><ele>234.00000000000003</ele><time>2026-03-29T11:46:07.929Z</time></trkpt><trkpt lat="39.4043905" lon="16.885604"><ele>233.0</ele><time>2026-03-29T11:46:09.932Z</time></trkpt><trkpt lat="39.404496" lon="16.8855397"><ele>233.00000000000003</ele><time>2026-03-29T11:46:11.931Z</time></trkpt><trkpt lat="39.4045859" lon="16.8855531"><ele>233.0</ele><time>2026-03-29T11:46:13.916Z</time></trkpt><trkpt lat="39.4045857" lon="16.8856792"><ele>233.0</ele><time>2026-03-29T11:46:15.926Z</time></trkpt><trkpt lat="39.4045228" lon="16.8858105"><ele>233.0</ele><time>2026-03-29T11:46:17.923Z</time></trkpt><trkpt lat="39.4044772" lon="16.8858804"><ele>233.00000000000003</ele><time>2026-03-29T11:46:18.932Z</time></trkpt><trkpt lat="39.4044444" lon="16.8859569"><ele>233.0</ele><time>2026-03-29T11:46:19.932Z</time></trkpt><trkpt lat="39.4044086" lon="16.8860403"><ele>236.28571428571428</ele><time>2026-03-29T11:46:20.938Z</time></trkpt><trkpt lat="39.4043589" lon="16.8861124"><ele>239.57142857142856</ele><time>2026-03-29T11:46:21.914Z</time></trkpt><trkpt lat="39.4043134" lon="16.8861887"><ele>242.85714285714283</ele><time>2026-03-29T11:46:22.924Z</time></trkpt><trkpt lat="39.4042709" lon="16.886257"><ele>246.14285714285714</ele><time>2026-03-29T11:46:23.935Z</time></trkpt><trkpt lat="39.404221" lon="16.8863072"><ele>249.4285714285714</ele><time>2026-03-29T11:46:24.928Z</time></trkpt><trkpt lat="39.4041556" lon="16.8863476"><ele>252.7142857142857</ele><time>2026-03-29T11:46:25.937Z</time></trkpt><trkpt lat="39.4040913" lon="16.8863956"><ele>256.0</ele><time>2026-03-29T11:46:26.938Z</time></trkpt><trkpt lat="39.4040344" lon="16.8864668"><ele>255.99999999999997</ele><time>2026-03-29T11:46:27.927Z</time></trkpt><trkpt lat="39.4039878" lon="16.8865534"><ele>256.0</ele><time>2026-03-29T11:46:28.93Z</time></trkpt><trkpt lat="39.4039504" lon="16.8866486"><ele>256.0</ele><time>2026-03-29T11:46:29.924Z</time></trkpt><trkpt lat="39.4039195" lon="16.8867429"><ele>256.0</ele><time>2026-03-29T11:46:30.945Z</time></trkpt><trkpt lat="39.4039011" lon="16.8868355"><ele>255.99999999999997</ele><time>2026-03-29T11:46:31.925Z</time></trkpt><trkpt lat="39.4038798" lon="16.8869206"><ele>256.0</ele><time>2026-03-29T11:46:32.944Z</time></trkpt><trkpt lat="39.4037817" lon="16.887005"><ele>256.85714285714283</ele><time>2026-03-29T11:46:34.942Z</time></trkpt><trkpt lat="39.4037167" lon="16.8870191"><ele>257.71428571428567</ele><time>2026-03-29T11:46:35.92Z</time></trkpt><trkpt lat="39.4036474" lon="16.8870287"><ele>258.57142857142856</ele><time>2026-03-29T11:46:36.93Z</time></trkpt><trkpt lat="39.4035775" lon="16.8870467"><ele>259.42857142857144</ele><time>2026-03-29T11:46:37.926Z</time></trkpt><trkpt lat="39.403509" lon="16.8870757"><ele>260.28571428571433</ele><time>2026-03-29T11:46:38.934Z</time></trkpt><trkpt lat="39.4034448" lon="16.8871129"><ele>261.14285714285717</ele><time>2026-03-29T11:46:39.921Z</time></trkpt><trkpt lat="39.4033861" lon="16.8871542"><ele>262.0</ele><time>2026-03-29T11:46:40.932Z</time></trkpt><trkpt lat="39.4032888" lon="16.887253"><ele>262.0</ele><time>2026-03-29T11:46:42.925Z</time></trkpt><trkpt lat="39.4032564" lon="16.8873263"><ele>262.0</ele><time>2026-03-29T11:46:43.938Z</time></trkpt><trkpt lat="39.403249" lon="16.8874074"><ele>262.0</ele><time>2026-03-29T11:46:44.919Z</time></trkpt><trkpt lat="39.4032723" lon="16.8875607"><ele>262.0</ele><time>2026-03-29T11:46:46.95Z</time></trkpt><trkpt lat="39.4033137" lon="16.8876935"><ele>262.0</ele><time>2026-03-29T11:46:48.942Z</time></trkpt><trkpt lat="39.4034047" lon="16.8877974"><ele>264.0</ele><time>2026-03-29T11:46:50.925Z</time></trkpt><trkpt lat="39.4034662" lon="16.8878173"><ele>266.0</ele><time>2026-03-29T11:46:51.936Z</time></trkpt><trkpt lat="39.4035323" lon="16.8878184"><ele>268.0</ele><time>2026-03-29T11:46:52.935Z</time></trkpt><trkpt lat="39.4035926" lon="16.8877911"><ele>270.0</ele><time>2026-03-29T11:46:53.92Z</time></trkpt><trkpt lat="39.4036516" lon="16.8877596"><ele>272.0</ele><time>2026-03-29T11:46:54.92Z</time></trkpt><trkpt lat="39.403715" lon="16.8877323"><ele>274.0</ele><time>2026-03-29T11:46:55.923Z</time></trkpt><trkpt lat="39.4037836" lon="16.8877063"><ele>276.0</ele><time>2026-03-29T11:46:56.932Z</time></trkpt><trkpt lat="39.4038527" lon="16.8876952"><ele>276.0</ele><time>2026-03-29T11:46:57.934Z</time></trkpt><trkpt lat="39.4039222" lon="16.8876866"><ele>276.0</ele><time>2026-03-29T11:46:58.925Z</time></trkpt><trkpt lat="39.4039893" lon="16.8876534"><ele>276.0</ele><time>2026-03-29T11:46:59.926Z</time></trkpt><trkpt lat="39.4040558" lon="16.8875995"><ele>276.0</ele><time>2026-03-29T11:47:00.93Z</time></trkpt><trkpt lat="39.4041186" lon="16.8875291"><ele>276.0</ele><time>2026-03-29T11:47:01.93Z</time></trkpt><trkpt lat="39.4041777" lon="16.8874564"><ele>276.0</ele><time>2026-03-29T11:47:02.937Z</time></trkpt><trkpt lat="39.4042322" lon="16.8873768"><ele>276.0</ele><time>2026-03-29T11:47:03.932Z</time></trkpt><trkpt lat="39.4042864" lon="16.8872975"><ele>276.0</ele><time>2026-03-29T11:47:04.939Z</time></trkpt><trkpt lat="39.404346" lon="16.8872365"><ele>276.0</ele><time>2026-03-29T11:47:05.934Z</time></trkpt><trkpt lat="39.4044085" lon="16.8872009"><ele>276.0</ele><time>2026-03-29T11:47:06.922Z</time></trkpt><trkpt lat="39.404476" lon="16.8871879"><ele>276.0</ele><time>2026-03-29T11:47:07.929Z</time></trkpt><trkpt lat="39.4045441" lon="16.8871985"><ele>276.0</ele><time>2026-03-29T11:47:08.923Z</time></trkpt><trkpt lat="39.4046152" lon="16.887206"><ele>276.0</ele><time>2026-03-29T11:47:09.93Z</time></trkpt><trkpt lat="39.4046828" lon="16.8872325"><ele>277.1666666666667</ele><time>2026-03-29T11:47:10.925Z</time></trkpt><trkpt lat="39.404755" lon="16.8873528"><ele>278.3333333333333</ele><time>2026-03-29T11:47:12.952Z</time></trkpt><trkpt lat="39.4047459" lon="16.8874503"><ele>279.5</ele><time>2026-03-29T11:47:13.932Z</time></trkpt><trkpt lat="39.4047289" lon="16.8875462"><ele>280.66666666666663</ele><time>2026-03-29T11:47:14.917Z</time></trkpt><trkpt lat="39.404716" lon="16.8876384"><ele>281.8333333333333</ele><time>2026-03-29T11:47:15.93Z</time></trkpt><trkpt lat="39.4047151" lon="16.8877333"><ele>283.0</ele><time>2026-03-29T11:47:16.939Z</time></trkpt><trkpt lat="39.4047149" lon="16.8878251"><ele>283.8333333333333</ele><time>2026-03-29T11:47:17.925Z</time></trkpt><trkpt lat="39.4047117" lon="16.887917"><ele>284.66666666666663</ele><time>2026-03-29T11:47:18.928Z</time></trkpt><trkpt lat="39.4047004" lon="16.8880146"><ele>285.5</ele><time>2026-03-29T11:47:19.93Z</time></trkpt><trkpt lat="39.4046893" lon="16.8881209"><ele>286.3333333333333</ele><time>2026-03-29T11:47:20.948Z</time></trkpt><trkpt lat="39.4046758" lon="16.888232"><ele>287.1666666666667</ele><time>2026-03-29T11:47:21.937Z</time></trkpt><trkpt lat="39.40466" lon="16.8883447"><ele>288.0</ele><time>2026-03-29T11:47:22.932Z</time></trkpt><trkpt lat="39.4046487" lon="16.8884571"><ele>289.8333333333333</ele><time>2026-03-29T11:47:23.939Z</time></trkpt><trkpt lat="39.404641" lon="16.8885669"><ele>291.6666666666667</ele><time>2026-03-29T11:47:24.942Z</time></trkpt><trkpt lat="39.4046312" lon="16.888669"><ele>293.5</ele><time>2026-03-29T11:47:25.928Z</time></trkpt><trkpt lat="39.4046019" lon="16.8887574"><ele>295.33333333333337</ele><time>2026-03-29T11:47:26.929Z</time></trkpt><trkpt lat="39.4045679" lon="16.8888453"><ele>297.1666666666667</ele><time>2026-03-29T11:47:27.935Z</time></trkpt><trkpt lat="39.404543" lon="16.8889427"><ele>299.0</ele><time>2026-03-29T11:47:28.936Z</time></trkpt><trkpt lat="39.4045374" lon="16.8890485"><ele>299.0</ele><time>2026-03-29T11:47:29.929Z</time></trkpt><trkpt lat="39.4045448" lon="16.8891501"><ele>299.0</ele><time>2026-03-29T11:47:30.93Z</time></trkpt><trkpt lat="39.4045517" lon="16.8892465"><ele>299.0</ele><time>2026-03-29T11:47:31.925Z</time></trkpt><trkpt lat="39.4045517" lon="16.8893433"><ele>299.0</ele><time>2026-03-29T11:47:32.938Z</time></trkpt><trkpt lat="39.4045482" lon="16.8894401"><ele>299.0</ele><time>2026-03-29T11:47:33.936Z</time></trkpt><trkpt lat="39.4045436" lon="16.8895354"><ele>299.0</ele><time>2026-03-29T11:47:34.934Z</time></trkpt><trkpt lat="39.4045282" lon="16.889627"><ele>301.6666666666667</ele><time>2026-03-29T11:47:35.926Z</time></trkpt><trkpt lat="39.4045077" lon="16.8897134"><ele>304.33333333333337</ele><time>2026-03-29T11:47:36.929Z</time></trkpt><trkpt lat="39.4044666" lon="16.8897915"><ele>307.0</ele><time>2026-03-29T11:47:37.929Z</time></trkpt><trkpt lat="39.404423" lon="16.8898523"><ele>309.6666666666667</ele><time>2026-03-29T11:47:38.926Z</time></trkpt><trkpt lat="39.4043587" lon="16.8899152"><ele>312.3333333333333</ele><time>2026-03-29T11:47:40.937Z</time></trkpt><trkpt lat="39.4042969" lon="16.8900154"><ele>315.0</ele><time>2026-03-29T11:47:42.938Z</time></trkpt><trkpt lat="39.4042538" lon="16.8900864"><ele>316.85714285714283</ele><time>2026-03-29T11:47:43.946Z</time></trkpt><trkpt lat="39.4042089" lon="16.8901587"><ele>318.7142857142857</ele><time>2026-03-29T11:47:44.928Z</time></trkpt><trkpt lat="39.404167" lon="16.8902326"><ele>320.57142857142856</ele><time>2026-03-29T11:47:45.929Z</time></trkpt><trkpt lat="39.4041247" lon="16.8903088"><ele>322.42857142857144</ele><time>2026-03-29T11:47:46.927Z</time></trkpt><trkpt lat="39.4040876" lon="16.8903879"><ele>324.2857142857143</ele><time>2026-03-29T11:47:47.93Z</time></trkpt><trkpt lat="39.4040582" lon="16.8904725"><ele>326.1428571428571</ele><time>2026-03-29T11:47:48.939Z</time></trkpt><trkpt lat="39.4040355" lon="16.8905612"><ele>328.0</ele><time>2026-03-29T11:47:49.932Z</time></trkpt><trkpt lat="39.4040129" lon="16.8906508"><ele>328.0</ele><time>2026-03-29T11:47:50.935Z</time></trkpt><trkpt lat="39.4039871" lon="16.8907397"><ele>328.0</ele><time>2026-03-29T11:47:51.937Z</time></trkpt><trkpt lat="39.403961" lon="16.8908295"><ele>328.0</ele><time>2026-03-29T11:47:52.941Z</time></trkpt><trkpt lat="39.403934" lon="16.8909215"><ele>328.0</ele><time>2026-03-29T11:47:53.932Z</time></trkpt><trkpt lat="39.4038985" lon="16.8910119"><ele>328.0</ele><time>2026-03-29T11:47:54.929Z</time></trkpt><trkpt lat="39.4038535" lon="16.8910979"><ele>328.0</ele><time>2026-03-29T11:47:55.929Z</time></trkpt><trkpt lat="39.4037997" lon="16.8911796"><ele>328.3333333333333</ele><time>2026-03-29T11:47:56.928Z</time></trkpt><trkpt lat="39.403742" lon="16.8912622"><ele>328.66666666666663</ele><time>2026-03-29T11:47:57.933Z</time></trkpt><trkpt lat="39.4036839" lon="16.8913457"><ele>329.0</ele><time>2026-03-29T11:47:58.935Z</time></trkpt><trkpt lat="39.4036301" lon="16.8914357"><ele>329.3333333333333</ele><time>2026-03-29T11:47:59.939Z</time></trkpt><trkpt lat="39.4035766" lon="16.8915301"><ele>329.6666666666667</ele><time>2026-03-29T11:48:00.939Z</time></trkpt><trkpt lat="39.4035293" lon="16.8916276"><ele>330.0</ele><time>2026-03-29T11:48:01.926Z</time></trkpt><trkpt lat="39.4034885" lon="16.8917271"><ele>330.6</ele><time>2026-03-29T11:48:02.931Z</time></trkpt><trkpt lat="39.4034551" lon="16.8918322"><ele>331.2</ele><time>2026-03-29T11:48:03.94Z</time></trkpt><trkpt lat="39.4034172" lon="16.8919386"><ele>331.79999999999995</ele><time>2026-03-29T11:48:04.938Z</time></trkpt><trkpt lat="39.4033752" lon="16.892047"><ele>332.4</ele><time>2026-03-29T11:48:05.917Z</time></trkpt><trkpt lat="39.4033263" lon="16.8921599"><ele>333.0</ele><time>2026-03-29T11:48:06.927Z</time></trkpt><trkpt lat="39.4032773" lon="16.8922707"><ele>333.0</ele><time>2026-03-29T11:48:07.928Z</time></trkpt><trkpt lat="39.4032358" lon="16.8923743"><ele>333.0</ele><time>2026-03-29T11:48:08.935Z</time></trkpt><trkpt lat="39.4032072" lon="16.8924645"><ele>333.0</ele><time>2026-03-29T11:48:09.924Z</time></trkpt><trkpt lat="39.4031873" lon="16.8925945"><ele>333.0</ele><time>2026-03-29T11:48:11.936Z</time></trkpt><trkpt lat="39.4031714" lon="16.8926864"><ele>333.0</ele><time>2026-03-29T11:48:22.932Z</time></trkpt><trkpt lat="39.4031585" lon="16.8927741"><ele>333.0</ele><time>2026-03-29T11:48:24.942Z</time></trkpt><trkpt lat="39.4031641" lon="16.8928764"><ele>332.7142857142857</ele><time>2026-03-29T11:48:30.932Z</time></trkpt><trkpt lat="39.4031849" lon="16.8929766"><ele>332.4285714285714</ele><time>2026-03-29T11:48:46.925Z</time></trkpt><trkpt lat="39.4032115" lon="16.8930643"><ele>332.1428571428571</ele><time>2026-03-29T11:48:48.942Z</time></trkpt><trkpt lat="39.4032408" lon="16.8931398"><ele>331.8571428571429</ele><time>2026-03-29T11:48:50.958Z</time></trkpt><trkpt lat="39.4032926" lon="16.8932266"><ele>331.57142857142856</ele><time>2026-03-29T11:48:54.929Z</time></trkpt><trkpt lat="39.4033429" lon="16.8932905"><ele>331.2857142857143</ele><time>2026-03-29T11:48:56.939Z</time></trkpt><trkpt lat="39.4033926" lon="16.8933581"><ele>331.0</ele><time>2026-03-29T11:48:58.93Z</time></trkpt><trkpt lat="39.4034504" lon="16.8934312"><ele>329.3333333333333</ele><time>2026-03-29T11:49:00.921Z</time></trkpt><trkpt lat="39.4035063" lon="16.8934883"><ele>327.66666666666663</ele><time>2026-03-29T11:49:02.928Z</time></trkpt><trkpt lat="39.4036027" lon="16.8935627"><ele>326.0</ele><time>2026-03-29T11:49:04.94Z</time></trkpt><trkpt lat="39.4036641" lon="16.893606"><ele>324.3333333333333</ele><time>2026-03-29T11:49:05.925Z</time></trkpt><trkpt lat="39.4037217" lon="16.8936545"><ele>322.6666666666667</ele><time>2026-03-29T11:49:06.95Z</time></trkpt><trkpt lat="39.4037739" lon="16.8937894"><ele>321.0</ele><time>2026-03-29T11:49:08.934Z</time></trkpt><trkpt lat="39.4037624" lon="16.8939524"><ele>320.99999999999994</ele><time>2026-03-29T11:49:10.929Z</time></trkpt><trkpt lat="39.4037547" lon="16.8940404"><ele>321.0</ele><time>2026-03-29T11:49:11.928Z</time></trkpt><trkpt lat="39.4037495" lon="16.8941235"><ele>321.0</ele><time>2026-03-29T11:49:12.926Z</time></trkpt><trkpt lat="39.4037444" lon="16.8942127"><ele>321.0</ele><time>2026-03-29T11:49:13.937Z</time></trkpt><trkpt lat="39.403739" lon="16.8943125"><ele>321.0</ele><time>2026-03-29T11:49:14.949Z</time></trkpt><trkpt lat="39.4037347" lon="16.8944109"><ele>320.99999999999994</ele><time>2026-03-29T11:49:15.93Z</time></trkpt><trkpt lat="39.4037291" lon="16.8944988"><ele>321.0</ele><time>2026-03-29T11:49:16.932Z</time></trkpt><trkpt lat="39.4037245" lon="16.8946164"><ele>321.0</ele><time>2026-03-29T11:49:18.932Z</time></trkpt><trkpt lat="39.4037409" lon="16.8947121"><ele>321.0</ele><time>2026-03-29T11:50:55.93Z</time></trkpt><trkpt lat="39.4038205" lon="16.8948263"><ele>321.0</ele><time>2026-03-29T11:50:57.929Z</time></trkpt><trkpt lat="39.403883" lon="16.8948676"><ele>321.0</ele><time>2026-03-29T11:50:58.932Z</time></trkpt><trkpt lat="39.4039463" lon="16.894909"><ele>321.0</ele><time>2026-03-29T11:50:59.929Z</time></trkpt><trkpt lat="39.4040025" lon="16.8949547"><ele>321.0</ele><time>2026-03-29T11:51:00.932Z</time></trkpt><trkpt lat="39.4041015" lon="16.8949933"><ele>321.20000000000005</ele><time>2026-03-29T11:51:02.936Z</time></trkpt><trkpt lat="39.4041776" lon="16.8950019"><ele>321.40000000000003</ele><time>2026-03-29T11:51:04.924Z</time></trkpt><trkpt lat="39.4042756" lon="16.8950695"><ele>321.6</ele><time>2026-03-29T11:51:07.924Z</time></trkpt><trkpt lat="39.4043847" lon="16.8951521"><ele>321.8</ele><time>2026-03-29T11:51:09.94Z</time></trkpt><trkpt lat="39.4045001" lon="16.8951715"><ele>322.0</ele><time>2026-03-29T11:51:11.926Z</time></trkpt><trkpt lat="39.4045884" lon="16.8951366"><ele>321.40000000000003</ele><time>2026-03-29T11:51:13.926Z</time></trkpt><trkpt lat="39.4046757" lon="16.8950691"><ele>320.8</ele><time>2026-03-29T11:51:15.931Z</time></trkpt><trkpt lat="39.4047723" lon="16.8950292"><ele>320.2</ele><time>2026-03-29T11:51:17.968Z</time></trkpt><trkpt lat="39.4048562" lon="16.8951351"><ele>319.6</ele><time>2026-03-29T11:51:19.93Z</time></trkpt><trkpt lat="39.4049123" lon="16.8952256"><ele>319.0</ele><time>2026-03-29T11:51:20.925Z</time></trkpt><trkpt lat="39.4049751" lon="16.8953238"><ele>316.5</ele><time>2026-03-29T11:51:21.937Z</time></trkpt><trkpt lat="39.4050289" lon="16.8954246"><ele>314.0</ele><time>2026-03-29T11:51:22.922Z</time></trkpt><trkpt lat="39.4050841" lon="16.895513"><ele>311.5</ele><time>2026-03-29T11:51:23.934Z</time></trkpt><trkpt lat="39.4051469" lon="16.8955752"><ele>309.0</ele><time>2026-03-29T11:51:24.932Z</time></trkpt><trkpt lat="39.4052086" lon="16.89561"><ele>306.5</ele><time>2026-03-29T11:51:25.927Z</time></trkpt><trkpt lat="39.4053229" lon="16.8956381"><ele>304.0</ele><time>2026-03-29T11:51:27.937Z</time></trkpt><trkpt lat="39.4054161" lon="16.8956657"><ele>304.66666666666663</ele><time>2026-03-29T11:51:29.928Z</time></trkpt><trkpt lat="39.4055041" lon="16.8956875"><ele>305.3333333333333</ele><time>2026-03-29T11:51:31.925Z</time></trkpt><trkpt lat="39.4055827" lon="16.895712"><ele>306.0</ele><time>2026-03-29T11:51:33.931Z</time></trkpt><trkpt lat="39.4056303" lon="16.8957655"><ele>306.6666666666667</ele><time>2026-03-29T11:51:35.944Z</time></trkpt><trkpt lat="39.4056376" lon="16.8958528"><ele>307.33333333333337</ele><time>2026-03-29T11:51:38.929Z</time></trkpt><trkpt lat="39.4056897" lon="16.8959502"><ele>308.0</ele><time>2026-03-29T11:51:41.915Z</time></trkpt><trkpt lat="39.4057466" lon="16.8960398"><ele>305.83333333333337</ele><time>2026-03-29T11:51:44.917Z</time></trkpt><trkpt lat="39.4057934" lon="16.8961163"><ele>303.6666666666667</ele><time>2026-03-29T11:51:47.927Z</time></trkpt><trkpt lat="39.4058391" lon="16.8962079"><ele>301.5</ele><time>2026-03-29T11:51:51.921Z</time></trkpt><trkpt lat="39.4058867" lon="16.8963044"><ele>299.3333333333333</ele><time>2026-03-29T11:51:54.927Z</time></trkpt><trkpt lat="39.4059236" lon="16.8963757"><ele>297.16666666666663</ele><time>2026-03-29T11:51:57.926Z</time></trkpt><trkpt lat="39.4059497" lon="16.8964529"><ele>295.0</ele><time>2026-03-29T11:52:00.926Z</time></trkpt><trkpt lat="39.4059938" lon="16.8965502"><ele>295.0</ele><time>2026-03-29T11:52:03.914Z</time></trkpt><trkpt lat="39.4060261" lon="16.8966326"><ele>295.0</ele><time>2026-03-29T11:52:05.916Z</time></trkpt><trkpt lat="39.4060513" lon="16.8967347"><ele>295.0</ele><time>2026-03-29T11:52:07.914Z</time></trkpt><trkpt lat="39.4060631" lon="16.896883"><ele>295.0</ele><time>2026-03-29T11:52:09.914Z</time></trkpt><trkpt lat="39.4060939" lon="16.8970266"><ele>295.0</ele><time>2026-03-29T11:52:11.907Z</time></trkpt><trkpt lat="39.4061256" lon="16.8971586"><ele>292.3333333333333</ele><time>2026-03-29T11:52:13.911Z</time></trkpt><trkpt lat="39.4061623" lon="16.8972628"><ele>289.66666666666663</ele><time>2026-03-29T11:52:15.903Z</time></trkpt><trkpt lat="39.4061753" lon="16.8973675"><ele>287.0</ele><time>2026-03-29T11:52:18.918Z</time></trkpt><trkpt lat="39.4061656" lon="16.8974579"><ele>284.3333333333333</ele><time>2026-03-29T11:52:20.913Z</time></trkpt><trkpt lat="39.4061895" lon="16.897563"><ele>281.6666666666667</ele><time>2026-03-29T11:52:22.909Z</time></trkpt><trkpt lat="39.4062394" lon="16.8976553"><ele>279.0</ele><time>2026-03-29T11:52:24.918Z</time></trkpt><trkpt lat="39.4063117" lon="16.897747"><ele>277.6666666666667</ele><time>2026-03-29T11:52:26.947Z</time></trkpt><trkpt lat="39.4063144" lon="16.897878"><ele>276.3333333333333</ele><time>2026-03-29T11:52:28.94Z</time></trkpt><trkpt lat="39.4063026" lon="16.8980264"><ele>275.0</ele><time>2026-03-29T11:52:30.928Z</time></trkpt><trkpt lat="39.4062981" lon="16.8981135"><ele>273.66666666666663</ele><time>2026-03-29T11:52:31.933Z</time></trkpt><trkpt lat="39.406293" lon="16.8982053"><ele>272.3333333333333</ele><time>2026-03-29T11:52:32.926Z</time></trkpt><trkpt lat="39.406286" lon="16.898301"><ele>271.0</ele><time>2026-03-29T11:52:33.925Z</time></trkpt><trkpt lat="39.4062776" lon="16.8984007"><ele>270.1428571428571</ele><time>2026-03-29T11:52:34.928Z</time></trkpt><trkpt lat="39.4062682" lon="16.8984949"><ele>269.2857142857143</ele><time>2026-03-29T11:52:35.925Z</time></trkpt><trkpt lat="39.4062586" lon="16.8985804"><ele>268.42857142857144</ele><time>2026-03-29T11:52:36.929Z</time></trkpt><trkpt lat="39.406252" lon="16.898662"><ele>267.57142857142856</ele><time>2026-03-29T11:52:37.928Z</time></trkpt><trkpt lat="39.4062455" lon="16.8987434"><ele>266.7142857142857</ele><time>2026-03-29T11:52:38.929Z</time></trkpt><trkpt lat="39.4062378" lon="16.8988275"><ele>265.85714285714283</ele><time>2026-03-29T11:52:39.926Z</time></trkpt><trkpt lat="39.4062275" lon="16.8989138"><ele>265.0</ele><time>2026-03-29T11:52:40.95Z</time></trkpt><trkpt lat="39.4062186" lon="16.8989971"><ele>265.0</ele><time>2026-03-29T11:52:41.936Z</time></trkpt><trkpt lat="39.4062089" lon="16.8990837"><ele>265.0</ele><time>2026-03-29T11:52:42.928Z</time></trkpt><trkpt lat="39.4061907" lon="16.8991797"><ele>265.0</ele><time>2026-03-29T11:52:43.929Z</time></trkpt><trkpt lat="39.4061695" lon="16.8992797"><ele>265.0</ele><time>2026-03-29T11:52:44.931Z</time></trkpt><trkpt lat="39.4061474" lon="16.8993772"><ele>265.0</ele><time>2026-03-29T11:52:45.923Z</time></trkpt><trkpt lat="39.4061272" lon="16.899479"><ele>265.0</ele><time>2026-03-29T11:52:46.94Z</time></trkpt><trkpt lat="39.4061112" lon="16.8995736"><ele>264.0</ele><time>2026-03-29T11:52:47.934Z</time></trkpt><trkpt lat="39.4061023" lon="16.8996574"><ele>263.0</ele><time>2026-03-29T11:52:48.928Z</time></trkpt><trkpt lat="39.4060746" lon="16.8998012"><ele>262.0</ele><time>2026-03-29T11:52:50.939Z</time></trkpt><trkpt lat="39.4060147" lon="16.8999409"><ele>261.0</ele><time>2026-03-29T11:52:52.939Z</time></trkpt><trkpt lat="39.4059833" lon="16.9000208"><ele>260.0</ele><time>2026-03-29T11:52:53.925Z</time></trkpt><trkpt lat="39.4059535" lon="16.9001082"><ele>259.0</ele><time>2026-03-29T11:52:54.934Z</time></trkpt><trkpt lat="39.4059334" lon="16.9001972"><ele>258.16666666666663</ele><time>2026-03-29T11:52:55.926Z</time></trkpt><trkpt lat="39.4059216" lon="16.900284"><ele>257.3333333333333</ele><time>2026-03-29T11:52:56.933Z</time></trkpt><trkpt lat="39.4059322" lon="16.9004269"><ele>256.5</ele><time>2026-03-29T11:52:58.934Z</time></trkpt><trkpt lat="39.4059456" lon="16.9005148"><ele>255.66666666666669</ele><time>2026-03-29T11:53:00.926Z</time></trkpt><trkpt lat="39.4059091" lon="16.9006494"><ele>254.83333333333334</ele><time>2026-03-29T11:53:02.93Z</time></trkpt><trkpt lat="39.4058857" lon="16.9007391"><ele>254.0</ele><time>2026-03-29T11:53:03.931Z</time></trkpt><trkpt lat="39.4058678" lon="16.9008352"><ele>253.0</ele><time>2026-03-29T11:53:04.931Z</time></trkpt><trkpt lat="39.4058533" lon="16.9009274"><ele>252.0</ele><time>2026-03-29T11:53:05.93Z</time></trkpt><trkpt lat="39.4058307" lon="16.9010119"><ele>251.0</ele><time>2026-03-29T11:53:06.935Z</time></trkpt><trkpt lat="39.405813" lon="16.9011006"><ele>250.0</ele><time>2026-03-29T11:53:07.929Z</time></trkpt><trkpt lat="39.4057977" lon="16.9011967"><ele>249.0</ele><time>2026-03-29T11:53:08.932Z</time></trkpt><trkpt lat="39.4057822" lon="16.9012878"><ele>248.0</ele><time>2026-03-29T11:53:09.947Z</time></trkpt><trkpt lat="39.4057663" lon="16.9013727"><ele>247.0</ele><time>2026-03-29T11:53:10.936Z</time></trkpt><trkpt lat="39.405734" lon="16.9015176"><ele>246.99999999999997</ele><time>2026-03-29T11:53:12.932Z</time></trkpt><trkpt lat="39.4057631" lon="16.9016787"><ele>247.0</ele><time>2026-03-29T11:53:14.919Z</time></trkpt><trkpt lat="39.405785" lon="16.9017633"><ele>247.0</ele><time>2026-03-29T11:53:15.93Z</time></trkpt><trkpt lat="39.4058021" lon="16.9018426"><ele>247.0</ele><time>2026-03-29T11:53:16.929Z</time></trkpt><trkpt lat="39.4058714" lon="16.9019715"><ele>246.99999999999997</ele><time>2026-03-29T11:53:18.928Z</time></trkpt><trkpt lat="39.4059204" lon="16.9020304"><ele>247.0</ele><time>2026-03-29T11:53:19.944Z</time></trkpt><trkpt lat="39.4059743" lon="16.9020851"><ele>243.85714285714286</ele><time>2026-03-29T11:53:20.943Z</time></trkpt><trkpt lat="39.4060254" lon="16.9021519"><ele>240.71428571428572</ele><time>2026-03-29T11:53:21.925Z</time></trkpt><trkpt lat="39.4060707" lon="16.9022256"><ele>237.57142857142858</ele><time>2026-03-29T11:53:22.938Z</time></trkpt><trkpt lat="39.406112" lon="16.9022986"><ele>234.42857142857144</ele><time>2026-03-29T11:53:23.931Z</time></trkpt><trkpt lat="39.4061574" lon="16.902368"><ele>231.28571428571428</ele><time>2026-03-29T11:53:24.944Z</time></trkpt><trkpt lat="39.4062049" lon="16.902432"><ele>228.14285714285717</ele><time>2026-03-29T11:53:25.93Z</time></trkpt><trkpt lat="39.4062627" lon="16.9024787"><ele>225.00000000000003</ele><time>2026-03-29T11:53:26.929Z</time></trkpt><trkpt lat="39.4063219" lon="16.9025185"><ele>224.71428571428575</ele><time>2026-03-29T11:53:27.933Z</time></trkpt><trkpt lat="39.4063789" lon="16.9025566"><ele>224.42857142857144</ele><time>2026-03-29T11:53:28.924Z</time></trkpt><trkpt lat="39.4064416" lon="16.9025976"><ele>224.14285714285717</ele><time>2026-03-29T11:53:29.929Z</time></trkpt><trkpt lat="39.4065119" lon="16.9026351"><ele>223.8571428571429</ele><time>2026-03-29T11:53:30.931Z</time></trkpt><trkpt lat="39.4065837" lon="16.9026624"><ele>223.57142857142856</ele><time>2026-03-29T11:53:31.944Z</time></trkpt><trkpt lat="39.4066531" lon="16.9026659"><ele>223.28571428571428</ele><time>2026-03-29T11:53:32.928Z</time></trkpt><trkpt lat="39.4067206" lon="16.9026483"><ele>223.0</ele><time>2026-03-29T11:53:33.93Z</time></trkpt><trkpt lat="39.4067871" lon="16.902625"><ele>223.0</ele><time>2026-03-29T11:53:34.933Z</time></trkpt><trkpt lat="39.4068516" lon="16.9025993"><ele>223.0</ele><time>2026-03-29T11:53:35.934Z</time></trkpt><trkpt lat="39.406915" lon="16.9025733"><ele>223.0</ele><time>2026-03-29T11:53:36.918Z</time></trkpt><trkpt lat="39.4069782" lon="16.9025406"><ele>223.0</ele><time>2026-03-29T11:53:37.926Z</time></trkpt><trkpt lat="39.4070356" lon="16.9025061"><ele>223.0</ele><time>2026-03-29T11:53:38.927Z</time></trkpt><trkpt lat="39.4071004" lon="16.9024906"><ele>223.0</ele><time>2026-03-29T11:53:39.925Z</time></trkpt><trkpt lat="39.4071649" lon="16.9024922"><ele>223.0</ele><time>2026-03-29T11:53:40.929Z</time></trkpt><trkpt lat="39.407228" lon="16.9025048"><ele>225.0</ele><time>2026-03-29T11:53:41.937Z</time></trkpt><trkpt lat="39.407293" lon="16.9025358"><ele>227.0</ele><time>2026-03-29T11:53:42.927Z</time></trkpt><trkpt lat="39.4073633" lon="16.9025558"><ele>229.0</ele><time>2026-03-29T11:53:43.953Z</time></trkpt><trkpt lat="39.4074307" lon="16.9025744"><ele>231.0</ele><time>2026-03-29T11:53:44.929Z</time></trkpt><trkpt lat="39.4074992" lon="16.9026009"><ele>233.0</ele><time>2026-03-29T11:53:45.928Z</time></trkpt><trkpt lat="39.4075726" lon="16.9026415"><ele>234.99999999999997</ele><time>2026-03-29T11:53:46.931Z</time></trkpt><trkpt lat="39.4076363" lon="16.9026849"><ele>236.99999999999997</ele><time>2026-03-29T11:53:47.927Z</time></trkpt><trkpt lat="39.4077096" lon="16.9027491"><ele>237.0</ele><time>2026-03-29T11:53:49.931Z</time></trkpt><trkpt lat="39.4077786" lon="16.9028246"><ele>237.0</ele><time>2026-03-29T11:53:51.921Z</time></trkpt><trkpt lat="39.4078558" lon="16.9028903"><ele>237.0</ele><time>2026-03-29T11:53:53.924Z</time></trkpt><trkpt lat="39.4079067" lon="16.9029949"><ele>237.0</ele><time>2026-03-29T11:53:58.942Z</time></trkpt><trkpt lat="39.4079233" lon="16.9031321"><ele>237.0</ele><time>2026-03-29T11:54:00.943Z</time></trkpt><trkpt lat="39.4079518" lon="16.9032771"><ele>236.8</ele><time>2026-03-29T11:54:02.936Z</time></trkpt><trkpt lat="39.4080283" lon="16.9033725"><ele>236.6</ele><time>2026-03-29T11:54:04.935Z</time></trkpt><trkpt lat="39.4080433" lon="16.903476"><ele>236.40000000000003</ele><time>2026-03-29T11:54:06.942Z</time></trkpt><trkpt lat="39.4079637" lon="16.9035822"><ele>236.20000000000002</ele><time>2026-03-29T11:54:08.948Z</time></trkpt><trkpt lat="39.4078555" lon="16.9036417"><ele>236.0</ele><time>2026-03-29T11:54:10.942Z</time></trkpt><trkpt lat="39.4077639" lon="16.9036651"><ele>236.00000000000003</ele><time>2026-03-29T11:54:12.935Z</time></trkpt><trkpt lat="39.4076961" lon="16.9036814"><ele>236.0</ele><time>2026-03-29T11:54:14.932Z</time></trkpt><trkpt lat="39.407634" lon="16.9037055"><ele>236.0</ele><time>2026-03-29T11:54:16.923Z</time></trkpt><trkpt lat="39.4075635" lon="16.9037388"><ele>236.0</ele><time>2026-03-29T11:54:18.932Z</time></trkpt><trkpt lat="39.4074923" lon="16.9037595"><ele>236.00000000000003</ele><time>2026-03-29T11:54:20.938Z</time></trkpt><trkpt lat="39.4073902" lon="16.903784"><ele>236.0</ele><time>2026-03-29T11:54:22.922Z</time></trkpt><trkpt lat="39.4073246" lon="16.9038"><ele>236.0</ele><time>2026-03-29T11:54:23.934Z</time></trkpt><trkpt lat="39.4072569" lon="16.9038224"><ele>236.0</ele><time>2026-03-29T11:54:24.927Z</time></trkpt><trkpt lat="39.407189" lon="16.9038529"><ele>236.0</ele><time>2026-03-29T11:54:25.935Z</time></trkpt><trkpt lat="39.4071248" lon="16.9038861"><ele>236.0</ele><time>2026-03-29T11:54:26.946Z</time></trkpt><trkpt lat="39.4070626" lon="16.9039171"><ele>236.0</ele><time>2026-03-29T11:54:27.928Z</time></trkpt><trkpt lat="39.4070027" lon="16.9039576"><ele>236.0</ele><time>2026-03-29T11:54:28.933Z</time></trkpt><trkpt lat="39.4069477" lon="16.9040019"><ele>236.0</ele><time>2026-03-29T11:54:29.928Z</time></trkpt><trkpt lat="39.4068403" lon="16.9040891"><ele>233.33333333333334</ele><time>2026-03-29T11:54:31.931Z</time></trkpt><trkpt lat="39.4067765" lon="16.9041159"><ele>230.66666666666669</ele><time>2026-03-29T11:54:32.934Z</time></trkpt><trkpt lat="39.4067078" lon="16.9041259"><ele>228.0</ele><time>2026-03-29T11:54:33.941Z</time></trkpt><trkpt lat="39.4066429" lon="16.9041273"><ele>225.33333333333331</ele><time>2026-03-29T11:54:34.945Z</time></trkpt><trkpt lat="39.4065466" lon="16.9041336"><ele>222.66666666666666</ele><time>2026-03-29T11:54:36.926Z</time></trkpt><trkpt lat="39.4064787" lon="16.904141"><ele>220.0</ele><time>2026-03-29T11:54:38.907Z</time></trkpt><trkpt lat="39.4063932" lon="16.9041511"><ele>217.66666666666666</ele><time>2026-03-29T11:54:41.929Z</time></trkpt><trkpt lat="39.4062971" lon="16.9041618"><ele>215.33333333333331</ele><time>2026-03-29T11:54:44.951Z</time></trkpt><trkpt lat="39.4062183" lon="16.9041632"><ele>213.0</ele><time>2026-03-29T11:54:46.931Z</time></trkpt><trkpt lat="39.4061379" lon="16.9041452"><ele>210.66666666666669</ele><time>2026-03-29T11:54:48.93Z</time></trkpt><trkpt lat="39.40606" lon="16.9041318"><ele>208.33333333333334</ele><time>2026-03-29T11:54:50.933Z</time></trkpt><trkpt lat="39.4059668" lon="16.9040984"><ele>206.0</ele><time>2026-03-29T11:54:53.927Z</time></trkpt><trkpt lat="39.4058827" lon="16.9040871"><ele>206.00000000000003</ele><time>2026-03-29T11:54:55.924Z</time></trkpt><trkpt lat="39.4058016" lon="16.9040767"><ele>206.0</ele><time>2026-03-29T11:54:57.929Z</time></trkpt><trkpt lat="39.4057358" lon="16.9040608"><ele>206.0</ele><time>2026-03-29T11:54:59.93Z</time></trkpt><trkpt lat="39.4056694" lon="16.9040335"><ele>206.0</ele><time>2026-03-29T11:55:01.93Z</time></trkpt><trkpt lat="39.4055919" lon="16.9040772"><ele>206.00000000000003</ele><time>2026-03-29T11:55:04.926Z</time></trkpt><trkpt lat="39.4055474" lon="16.9042032"><ele>206.0</ele><time>2026-03-29T11:55:06.929Z</time></trkpt><trkpt lat="39.405519" lon="16.9042822"><ele>203.50000000000003</ele><time>2026-03-29T11:55:07.927Z</time></trkpt><trkpt lat="39.4054927" lon="16.9043604"><ele>201.0</ele><time>2026-03-29T11:55:08.926Z</time></trkpt><trkpt lat="39.4054464" lon="16.9045"><ele>198.5</ele><time>2026-03-29T11:55:10.921Z</time></trkpt><trkpt lat="39.4054056" lon="16.9045655"><ele>196.0</ele><time>2026-03-29T11:55:11.923Z</time></trkpt><trkpt lat="39.405358" lon="16.904635"><ele>193.5</ele><time>2026-03-29T11:55:12.932Z</time></trkpt><trkpt lat="39.4053047" lon="16.9047156"><ele>191.0</ele><time>2026-03-29T11:55:13.925Z</time></trkpt><trkpt lat="39.4052556" lon="16.9048"><ele>191.0</ele><time>2026-03-29T11:55:14.927Z</time></trkpt><trkpt lat="39.4052111" lon="16.9048899"><ele>191.0</ele><time>2026-03-29T11:55:15.933Z</time></trkpt><trkpt lat="39.4051639" lon="16.904974"><ele>191.0</ele><time>2026-03-29T11:55:16.929Z</time></trkpt><trkpt lat="39.405108" lon="16.9050499"><ele>191.0</ele><time>2026-03-29T11:55:17.931Z</time></trkpt><trkpt lat="39.4050476" lon="16.9051212"><ele>191.0</ele><time>2026-03-29T11:55:18.926Z</time></trkpt><trkpt lat="39.4049867" lon="16.9052012"><ele>191.0</ele><time>2026-03-29T11:55:19.938Z</time></trkpt><trkpt lat="39.4049282" lon="16.9052813"><ele>191.16666666666666</ele><time>2026-03-29T11:55:20.926Z</time></trkpt><trkpt lat="39.4048689" lon="16.9053647"><ele>191.33333333333331</ele><time>2026-03-29T11:55:21.932Z</time></trkpt><trkpt lat="39.404809" lon="16.9054472"><ele>191.5</ele><time>2026-03-29T11:55:22.932Z</time></trkpt><trkpt lat="39.4047534" lon="16.9055336"><ele>191.66666666666666</ele><time>2026-03-29T11:55:23.933Z</time></trkpt><trkpt lat="39.4047064" lon="16.9056154"><ele>191.83333333333334</ele><time>2026-03-29T11:55:24.937Z</time></trkpt><trkpt lat="39.4046735" lon="16.9056903"><ele>192.0</ele><time>2026-03-29T11:55:25.938Z</time></trkpt><trkpt lat="39.4046427" lon="16.9058208"><ele>192.5</ele><time>2026-03-29T11:55:27.941Z</time></trkpt><trkpt lat="39.4046834" lon="16.9059141"><ele>193.0</ele><time>2026-03-29T11:55:29.916Z</time></trkpt><trkpt lat="39.4047399" lon="16.9059765"><ele>193.5</ele><time>2026-03-29T11:55:32.92Z</time></trkpt><trkpt lat="39.4047334" lon="16.9060627"><ele>194.0</ele><time>2026-03-29T11:55:34.924Z</time></trkpt><trkpt lat="39.4046708" lon="16.9061759"><ele>194.5</ele><time>2026-03-29T11:55:36.931Z</time></trkpt><trkpt lat="39.4046252" lon="16.9062412"><ele>195.0</ele><time>2026-03-29T11:55:37.927Z</time></trkpt><trkpt lat="39.4045793" lon="16.9063021"><ele>193.66666666666666</ele><time>2026-03-29T11:55:38.927Z</time></trkpt><trkpt lat="39.4045373" lon="16.9063654"><ele>192.33333333333334</ele><time>2026-03-29T11:55:39.924Z</time></trkpt><trkpt lat="39.4044976" lon="16.9064346"><ele>191.0</ele><time>2026-03-29T11:55:40.945Z</time></trkpt><trkpt lat="39.4044999" lon="16.9065324"><ele>189.66666666666669</ele><time>2026-03-29T11:55:41.947Z</time></trkpt><trkpt lat="39.4045145" lon="16.9066419"><ele>188.33333333333334</ele><time>2026-03-29T11:55:42.938Z</time></trkpt><trkpt lat="39.4045205" lon="16.9067596"><ele>187.0</ele><time>2026-03-29T11:55:43.928Z</time></trkpt><trkpt lat="39.4045036" lon="16.906868"><ele>187.0</ele><time>2026-03-29T11:55:44.928Z</time></trkpt><trkpt lat="39.4044781" lon="16.9069571"><ele>187.0</ele><time>2026-03-29T11:55:45.936Z</time></trkpt><trkpt lat="39.4043669" lon="16.9069836"><ele>187.0</ele><time>2026-03-29T11:55:47.934Z</time></trkpt><trkpt lat="39.4042541" lon="16.9070365"><ele>187.0</ele><time>2026-03-29T11:55:49.927Z</time></trkpt><trkpt lat="39.4042029" lon="16.9071007"><ele>187.0</ele><time>2026-03-29T11:55:50.929Z</time></trkpt><trkpt lat="39.4041581" lon="16.9071747"><ele>187.0</ele><time>2026-03-29T11:55:51.92Z</time></trkpt><trkpt lat="39.4041078" lon="16.9072818"><ele>187.0</ele><time>2026-03-29T11:55:53.927Z</time></trkpt><trkpt lat="39.4040734" lon="16.9073683"><ele>187.0</ele><time>2026-03-29T11:55:57.934Z</time></trkpt><trkpt lat="39.4040675" lon="16.9074846"><ele>187.0</ele><time>2026-03-29T11:56:00.936Z</time></trkpt><trkpt lat="39.40408" lon="16.9076261"><ele>187.0</ele><time>2026-03-29T11:56:02.923Z</time></trkpt><trkpt lat="39.4040873" lon="16.9077158"><ele>187.0</ele><time>2026-03-29T11:56:03.934Z</time></trkpt><trkpt lat="39.4040799" lon="16.9078086"><ele>186.28571428571428</ele><time>2026-03-29T11:56:04.923Z</time></trkpt><trkpt lat="39.4040551" lon="16.9078958"><ele>185.57142857142858</ele><time>2026-03-29T11:56:05.931Z</time></trkpt><trkpt lat="39.4040196" lon="16.9079724"><ele>184.85714285714286</ele><time>2026-03-29T11:56:06.924Z</time></trkpt><trkpt lat="39.4039844" lon="16.9080484"><ele>184.14285714285714</ele><time>2026-03-29T11:56:07.924Z</time></trkpt><trkpt lat="39.403962" lon="16.9081317"><ele>183.42857142857144</ele><time>2026-03-29T11:56:08.93Z</time></trkpt><trkpt lat="39.4039531" lon="16.9082208"><ele>182.71428571428572</ele><time>2026-03-29T11:56:09.927Z</time></trkpt><trkpt lat="39.4039526" lon="16.9083115"><ele>182.0</ele><time>2026-03-29T11:56:10.928Z</time></trkpt><trkpt lat="39.4039536" lon="16.9084014"><ele>181.2</ele><time>2026-03-29T11:56:11.925Z</time></trkpt><trkpt lat="39.4039531" lon="16.9084847"><ele>180.39999999999998</ele><time>2026-03-29T11:56:12.933Z</time></trkpt><trkpt lat="39.4039189" lon="16.9086151"><ele>179.60000000000002</ele><time>2026-03-29T11:56:14.927Z</time></trkpt><trkpt lat="39.403852" lon="16.9087213"><ele>178.8</ele><time>2026-03-29T11:56:16.942Z</time></trkpt><trkpt lat="39.4037862" lon="16.9088078"><ele>178.0</ele><time>2026-03-29T11:56:18.916Z</time></trkpt><trkpt lat="39.4037303" lon="16.9089099"><ele>177.2</ele><time>2026-03-29T11:56:20.926Z</time></trkpt><trkpt lat="39.4037144" lon="16.9090405"><ele>176.4</ele><time>2026-03-29T11:56:22.925Z</time></trkpt><trkpt lat="39.4037263" lon="16.9091905"><ele>175.6</ele><time>2026-03-29T11:56:24.925Z</time></trkpt><trkpt lat="39.4037413" lon="16.9093338"><ele>174.79999999999998</ele><time>2026-03-29T11:56:26.94Z</time></trkpt><trkpt lat="39.4037507" lon="16.9094688"><ele>174.0</ele><time>2026-03-29T11:56:28.924Z</time></trkpt><trkpt lat="39.4037519" lon="16.909635"><ele>173.0</ele><time>2026-03-29T11:56:30.929Z</time></trkpt><trkpt lat="39.4037575" lon="16.9097344"><ele>172.0</ele><time>2026-03-29T11:56:31.925Z</time></trkpt><trkpt lat="39.403774" lon="16.9098401"><ele>171.0</ele><time>2026-03-29T11:56:32.929Z</time></trkpt><trkpt lat="39.4037994" lon="16.9099449"><ele>170.0</ele><time>2026-03-29T11:56:33.93Z</time></trkpt><trkpt lat="39.4038294" lon="16.9100457"><ele>169.0</ele><time>2026-03-29T11:56:34.921Z</time></trkpt><trkpt lat="39.4038605" lon="16.9101429"><ele>168.0</ele><time>2026-03-29T11:56:35.928Z</time></trkpt><trkpt lat="39.4038893" lon="16.9102365"><ele>167.28571428571428</ele><time>2026-03-29T11:56:36.908Z</time></trkpt><trkpt lat="39.4039122" lon="16.9103317"><ele>166.57142857142856</ele><time>2026-03-29T11:56:37.93Z</time></trkpt><trkpt lat="39.4039315" lon="16.9104271"><ele>165.85714285714286</ele><time>2026-03-29T11:56:38.928Z</time></trkpt><trkpt lat="39.4039556" lon="16.9105244"><ele>165.14285714285714</ele><time>2026-03-29T11:56:39.933Z</time></trkpt><trkpt lat="39.4039814" lon="16.9106182"><ele>164.42857142857142</ele><time>2026-03-29T11:56:40.934Z</time></trkpt><trkpt lat="39.4039978" lon="16.9107074"><ele>163.71428571428572</ele><time>2026-03-29T11:56:41.924Z</time></trkpt><trkpt lat="39.4040084" lon="16.9107882"><ele>163.0</ele><time>2026-03-29T11:56:42.927Z</time></trkpt><trkpt lat="39.4040351" lon="16.9109243"><ele>161.6</ele><time>2026-03-29T11:56:44.923Z</time></trkpt><trkpt lat="39.404076" lon="16.91107"><ele>160.20000000000002</ele><time>2026-03-29T11:56:46.924Z</time></trkpt><trkpt lat="39.4041439" lon="16.911181"><ele>158.8</ele><time>2026-03-29T11:56:48.927Z</time></trkpt><trkpt lat="39.4042252" lon="16.9111981"><ele>157.4</ele><time>2026-03-29T11:56:50.922Z</time></trkpt><trkpt lat="39.4042963" lon="16.9112129"><ele>156.0</ele><time>2026-03-29T11:56:52.94Z</time></trkpt><trkpt lat="39.4042665" lon="16.9113287"><ele>156.0</ele><time>2026-03-29T11:56:55.925Z</time></trkpt><trkpt lat="39.4041658" lon="16.9113813"><ele>156.0</ele><time>2026-03-29T11:56:57.944Z</time></trkpt><trkpt lat="39.4040665" lon="16.9113798"><ele>156.0</ele><time>2026-03-29T11:56:59.926Z</time></trkpt><trkpt lat="39.4039908" lon="16.9114115"><ele>156.0</ele><time>2026-03-29T11:57:01.931Z</time></trkpt><trkpt lat="39.4039522" lon="16.9115187"><ele>156.0</ele><time>2026-03-29T11:57:03.941Z</time></trkpt><trkpt lat="39.4039435" lon="16.9116797"><ele>155.2</ele><time>2026-03-29T11:57:05.927Z</time></trkpt><trkpt lat="39.4039376" lon="16.9117622"><ele>154.39999999999998</ele><time>2026-03-29T11:57:06.925Z</time></trkpt><trkpt lat="39.4039074" lon="16.9118997"><ele>153.6</ele><time>2026-03-29T11:57:08.927Z</time></trkpt><trkpt lat="39.403848" lon="16.9120161"><ele>152.79999999999998</ele><time>2026-03-29T11:57:10.924Z</time></trkpt><trkpt lat="39.4037607" lon="16.9120854"><ele>152.0</ele><time>2026-03-29T11:57:12.935Z</time></trkpt><trkpt lat="39.4037203" lon="16.9121947"><ele>150.66666666666666</ele><time>2026-03-29T11:57:14.926Z</time></trkpt><trkpt lat="39.4037113" lon="16.9123436"><ele>149.33333333333331</ele><time>2026-03-29T11:57:16.925Z</time></trkpt><trkpt lat="39.4036662" lon="16.9124887"><ele>148.0</ele><time>2026-03-29T11:57:18.925Z</time></trkpt><trkpt lat="39.4036405" lon="16.9125632"><ele>146.66666666666666</ele><time>2026-03-29T11:57:19.925Z</time></trkpt><trkpt lat="39.4036135" lon="16.9126498"><ele>145.33333333333334</ele><time>2026-03-29T11:57:20.931Z</time></trkpt><trkpt lat="39.4035885" lon="16.9127441"><ele>144.0</ele><time>2026-03-29T11:57:21.926Z</time></trkpt><trkpt lat="39.4035651" lon="16.9128422"><ele>144.0</ele><time>2026-03-29T11:57:22.928Z</time></trkpt><trkpt lat="39.4035399" lon="16.9129387"><ele>144.0</ele><time>2026-03-29T11:57:23.95Z</time></trkpt><trkpt lat="39.4035136" lon="16.9130361"><ele>144.0</ele><time>2026-03-29T11:57:24.945Z</time></trkpt><trkpt lat="39.4034874" lon="16.9131389"><ele>144.0</ele><time>2026-03-29T11:57:25.925Z</time></trkpt><trkpt lat="39.4034593" lon="16.9132448"><ele>144.0</ele><time>2026-03-29T11:57:26.932Z</time></trkpt><trkpt lat="39.403426" lon="16.9133436"><ele>144.0</ele><time>2026-03-29T11:57:27.918Z</time></trkpt><trkpt lat="39.403385" lon="16.9134289"><ele>144.0</ele><time>2026-03-29T11:57:28.928Z</time></trkpt><trkpt lat="39.4033077" lon="16.9135337"><ele>144.0</ele><time>2026-03-29T11:57:30.93Z</time></trkpt><trkpt lat="39.4032319" lon="16.9135831"><ele>144.0</ele><time>2026-03-29T11:57:32.939Z</time></trkpt><trkpt lat="39.4031267" lon="16.9136219"><ele>144.0</ele><time>2026-03-29T11:57:34.939Z</time></trkpt><trkpt lat="39.4030582" lon="16.9136441"><ele>144.0</ele><time>2026-03-29T11:57:35.919Z</time></trkpt><trkpt lat="39.4029843" lon="16.9136704"><ele>142.83333333333334</ele><time>2026-03-29T11:57:36.922Z</time></trkpt><trkpt lat="39.4029077" lon="16.9137002"><ele>141.66666666666666</ele><time>2026-03-29T11:57:37.929Z</time></trkpt><trkpt lat="39.4028293" lon="16.9137361"><ele>140.5</ele><time>2026-03-29T11:57:38.929Z</time></trkpt><trkpt lat="39.4027507" lon="16.9137806"><ele>139.33333333333331</ele><time>2026-03-29T11:57:39.928Z</time></trkpt><trkpt lat="39.4026725" lon="16.9138311"><ele>138.16666666666666</ele><time>2026-03-29T11:57:40.926Z</time></trkpt><trkpt lat="39.4025956" lon="16.9138834"><ele>137.0</ele><time>2026-03-29T11:57:41.928Z</time></trkpt><trkpt lat="39.4025247" lon="16.9139371"><ele>137.0</ele><time>2026-03-29T11:57:42.927Z</time></trkpt><trkpt lat="39.4024634" lon="16.9139902"><ele>137.0</ele><time>2026-03-29T11:57:43.937Z</time></trkpt><trkpt lat="39.4023752" lon="16.9140708"><ele>137.0</ele><time>2026-03-29T11:57:45.915Z</time></trkpt><trkpt lat="39.4023139" lon="16.9141249"><ele>137.0</ele><time>2026-03-29T11:57:47.919Z</time></trkpt><trkpt lat="39.4022636" lon="16.9141785"><ele>137.0</ele><time>2026-03-29T11:57:49.929Z</time></trkpt><trkpt lat="39.4022097" lon="16.9142681"><ele>137.0</ele><time>2026-03-29T11:57:52.913Z</time></trkpt><trkpt lat="39.4021327" lon="16.9143352"><ele>136.33333333333331</ele><time>2026-03-29T11:57:55.924Z</time></trkpt><trkpt lat="39.4020562" lon="16.9144093"><ele>135.66666666666666</ele><time>2026-03-29T11:57:57.928Z</time></trkpt><trkpt lat="39.4019836" lon="16.9144955"><ele>135.0</ele><time>2026-03-29T11:57:59.928Z</time></trkpt><trkpt lat="39.4019285" lon="16.9145624"><ele>134.33333333333334</ele><time>2026-03-29T11:58:01.936Z</time></trkpt><trkpt lat="39.4018727" lon="16.914633"><ele>133.66666666666669</ele><time>2026-03-29T11:58:03.928Z</time></trkpt><trkpt lat="39.4018216" lon="16.9146997"><ele>133.0</ele><time>2026-03-29T11:58:05.926Z</time></trkpt><trkpt lat="39.4017635" lon="16.9147871"><ele>133.0</ele><time>2026-03-29T11:58:07.925Z</time></trkpt><trkpt lat="39.4017029" lon="16.9149013"><ele>133.0</ele><time>2026-03-29T11:58:09.926Z</time></trkpt><trkpt lat="39.4016436" lon="16.9150343"><ele>133.0</ele><time>2026-03-29T11:58:11.932Z</time></trkpt><trkpt lat="39.4015951" lon="16.9151867"><ele>133.0</ele><time>2026-03-29T11:58:13.936Z</time></trkpt><trkpt lat="39.4015788" lon="16.9152713"><ele>133.0</ele><time>2026-03-29T11:58:14.923Z</time></trkpt><trkpt lat="39.4015697" lon="16.9153644"><ele>132.71428571428572</ele><time>2026-03-29T11:58:15.929Z</time></trkpt><trkpt lat="39.4015692" lon="16.9154641"><ele>132.42857142857144</ele><time>2026-03-29T11:58:16.933Z</time></trkpt><trkpt lat="39.4015702" lon="16.9155627"><ele>132.14285714285714</ele><time>2026-03-29T11:58:17.941Z</time></trkpt><trkpt lat="39.4015677" lon="16.9156536"><ele>131.85714285714286</ele><time>2026-03-29T11:58:18.901Z</time></trkpt><trkpt lat="39.4015622" lon="16.9157407"><ele>131.57142857142858</ele><time>2026-03-29T11:58:19.901Z</time></trkpt><trkpt lat="39.401557" lon="16.9158252"><ele>131.28571428571428</ele><time>2026-03-29T11:58:20.903Z</time></trkpt><trkpt lat="39.4015488" lon="16.9159095"><ele>131.0</ele><time>2026-03-29T11:58:21.901Z</time></trkpt><trkpt lat="39.4015341" lon="16.9159898"><ele>131.0</ele><time>2026-03-29T11:58:22.921Z</time></trkpt><trkpt lat="39.4014929" lon="16.9161281"><ele>131.0</ele><time>2026-03-29T11:58:24.934Z</time></trkpt><trkpt lat="39.4014566" lon="16.916234"><ele>131.0</ele><time>2026-03-29T11:58:26.934Z</time></trkpt><trkpt lat="39.4014331" lon="16.9163237"><ele>131.0</ele><time>2026-03-29T11:58:28.937Z</time></trkpt><trkpt lat="39.4014169" lon="16.9164051"><ele>131.0</ele><time>2026-03-29T11:58:30.932Z</time></trkpt><trkpt lat="39.4013931" lon="16.9165178"><ele>131.0</ele><time>2026-03-29T11:58:33.926Z</time></trkpt><trkpt lat="39.4014111" lon="16.9166265"><ele>131.4</ele><time>2026-03-29T11:58:35.926Z</time></trkpt><trkpt lat="39.401448" lon="16.9167452"><ele>131.8</ele><time>2026-03-29T11:58:37.916Z</time></trkpt><trkpt lat="39.4014961" lon="16.9168668"><ele>132.20000000000002</ele><time>2026-03-29T11:58:39.929Z</time></trkpt><trkpt lat="39.4015313" lon="16.9170032"><ele>132.6</ele><time>2026-03-29T11:58:41.925Z</time></trkpt><trkpt lat="39.401551" lon="16.9170863"><ele>133.0</ele><time>2026-03-29T11:58:42.93Z</time></trkpt><trkpt lat="39.4015736" lon="16.9171877"><ele>133.0</ele><time>2026-03-29T11:58:43.925Z</time></trkpt><trkpt lat="39.4015988" lon="16.9172975"><ele>133.0</ele><time>2026-03-29T11:58:44.929Z</time></trkpt><trkpt lat="39.4016254" lon="16.9174101"><ele>133.0</ele><time>2026-03-29T11:58:45.927Z</time></trkpt><trkpt lat="39.4016515" lon="16.9175249"><ele>133.0</ele><time>2026-03-29T11:58:46.92Z</time></trkpt><trkpt lat="39.4016792" lon="16.9176423"><ele>133.0</ele><time>2026-03-29T11:58:47.946Z</time></trkpt><trkpt lat="39.4017084" lon="16.9177606"><ele>133.20000000000002</ele><time>2026-03-29T11:58:48.927Z</time></trkpt><trkpt lat="39.4017378" lon="16.9178839"><ele>133.4</ele><time>2026-03-29T11:58:49.925Z</time></trkpt><trkpt lat="39.4017691" lon="16.9180094"><ele>133.60000000000002</ele><time>2026-03-29T11:58:50.928Z</time></trkpt><trkpt lat="39.4018007" lon="16.9181353"><ele>133.8</ele><time>2026-03-29T11:58:51.93Z</time></trkpt><trkpt lat="39.4018294" lon="16.9182621"><ele>134.0</ele><time>2026-03-29T11:58:52.937Z</time></trkpt><trkpt lat="39.4018574" lon="16.9183882"><ele>133.33333333333331</ele><time>2026-03-29T11:58:53.926Z</time></trkpt><trkpt lat="39.4018826" lon="16.9185114"><ele>132.66666666666666</ele><time>2026-03-29T11:58:54.923Z</time></trkpt><trkpt lat="39.4018955" lon="16.9186246"><ele>132.0</ele><time>2026-03-29T11:58:55.928Z</time></trkpt><trkpt lat="39.4018959" lon="16.918732"><ele>131.33333333333334</ele><time>2026-03-29T11:58:56.939Z</time></trkpt><trkpt lat="39.4018934" lon="16.9188406"><ele>130.66666666666669</ele><time>2026-03-29T11:58:57.919Z</time></trkpt><trkpt lat="39.4018916" lon="16.9189564"><ele>130.0</ele><time>2026-03-29T11:58:58.939Z</time></trkpt><trkpt lat="39.4018802" lon="16.9190777"><ele>130.0</ele><time>2026-03-29T11:58:59.928Z</time></trkpt><trkpt lat="39.4018583" lon="16.9192086"><ele>130.0</ele><time>2026-03-29T11:59:00.927Z</time></trkpt><trkpt lat="39.4018316" lon="16.9193469"><ele>130.0</ele><time>2026-03-29T11:59:01.935Z</time></trkpt><trkpt lat="39.4017991" lon="16.9194833"><ele>130.0</ele><time>2026-03-29T11:59:02.931Z</time></trkpt><trkpt lat="39.4017536" lon="16.9196105"><ele>130.0</ele><time>2026-03-29T11:59:03.923Z</time></trkpt><trkpt lat="39.4016949" lon="16.9197297"><ele>129.4</ele><time>2026-03-29T11:59:04.938Z</time></trkpt><trkpt lat="39.4016318" lon="16.9198452"><ele>128.8</ele><time>2026-03-29T11:59:05.935Z</time></trkpt><trkpt lat="39.401574" lon="16.9199649"><ele>128.2</ele><time>2026-03-29T11:59:06.926Z</time></trkpt><trkpt lat="39.4015334" lon="16.9200935"><ele>127.6</ele><time>2026-03-29T11:59:07.925Z</time></trkpt><trkpt lat="39.4015145" lon="16.9202217"><ele>127.0</ele><time>2026-03-29T11:59:08.91Z</time></trkpt><trkpt lat="39.4015171" lon="16.9203441"><ele>126.0</ele><time>2026-03-29T11:59:09.923Z</time></trkpt><trkpt lat="39.4015482" lon="16.9204627"><ele>124.99999999999999</ele><time>2026-03-29T11:59:10.925Z</time></trkpt><trkpt lat="39.4015906" lon="16.9205899"><ele>123.99999999999999</ele><time>2026-03-29T11:59:11.927Z</time></trkpt><trkpt lat="39.4016248" lon="16.9207223"><ele>123.0</ele><time>2026-03-29T11:59:12.931Z</time></trkpt><trkpt lat="39.4016403" lon="16.9208508"><ele>122.0</ele><time>2026-03-29T11:59:13.938Z</time></trkpt><trkpt lat="39.4016407" lon="16.9209764"><ele>121.33333333333333</ele><time>2026-03-29T11:59:14.928Z</time></trkpt><trkpt lat="39.4016468" lon="16.9210974"><ele>120.66666666666666</ele><time>2026-03-29T11:59:15.933Z</time></trkpt><trkpt lat="39.4016777" lon="16.9211927"><ele>120.0</ele><time>2026-03-29T11:59:16.933Z</time></trkpt><trkpt lat="39.401733" lon="16.921252"><ele>119.33333333333334</ele><time>2026-03-29T11:59:17.921Z</time></trkpt><trkpt lat="39.4018126" lon="16.9212814"><ele>118.66666666666667</ele><time>2026-03-29T11:59:18.925Z</time></trkpt><trkpt lat="39.4018993" lon="16.9213192"><ele>118.0</ele><time>2026-03-29T11:59:19.933Z</time></trkpt><trkpt lat="39.4019916" lon="16.9213689"><ele>118.0</ele><time>2026-03-29T11:59:20.918Z</time></trkpt><trkpt lat="39.4020842" lon="16.9214427"><ele>118.00000000000001</ele><time>2026-03-29T11:59:21.926Z</time></trkpt><trkpt lat="39.4021608" lon="16.9215199"><ele>118.00000000000001</ele><time>2026-03-29T11:59:22.925Z</time></trkpt><trkpt lat="39.4022222" lon="16.9215866"><ele>118.0</ele><time>2026-03-29T11:59:23.929Z</time></trkpt><trkpt lat="39.4022852" lon="16.9216724"><ele>118.0</ele><time>2026-03-29T11:59:25.919Z</time></trkpt><trkpt lat="39.4023573" lon="16.9217661"><ele>118.0</ele><time>2026-03-29T11:59:28.925Z</time></trkpt><trkpt lat="39.4024124" lon="16.9218666"><ele>118.00000000000001</ele><time>2026-03-29T11:59:30.92Z</time></trkpt><trkpt lat="39.4024161" lon="16.9220025"><ele>118.00000000000001</ele><time>2026-03-29T11:59:32.935Z</time></trkpt><trkpt lat="39.402456" lon="16.9221373"><ele>118.0</ele><time>2026-03-29T11:59:34.924Z</time></trkpt><trkpt lat="39.4025065" lon="16.9221907"><ele>118.0</ele><time>2026-03-29T11:59:35.93Z</time></trkpt><trkpt lat="39.4025693" lon="16.9222436"><ele>118.00000000000001</ele><time>2026-03-29T11:59:36.944Z</time></trkpt><trkpt lat="39.4026291" lon="16.9222928"><ele>118.0</ele><time>2026-03-29T11:59:37.925Z</time></trkpt><trkpt lat="39.4026759" lon="16.9223579"><ele>118.0</ele><time>2026-03-29T11:59:38.928Z</time></trkpt><trkpt lat="39.4027185" lon="16.922426"><ele>118.0</ele><time>2026-03-29T11:59:39.922Z</time></trkpt><trkpt lat="39.4027865" lon="16.9225473"><ele>118.00000000000001</ele><time>2026-03-29T11:59:41.924Z</time></trkpt><trkpt lat="39.4028319" lon="16.922607"><ele>118.0</ele><time>2026-03-29T11:59:43.93Z</time></trkpt><trkpt lat="39.4028871" lon="16.9226499"><ele>118.16666666666667</ele><time>2026-03-29T11:59:47.922Z</time></trkpt><trkpt lat="39.4029511" lon="16.9226968"><ele>118.33333333333334</ele><time>2026-03-29T12:00:03.929Z</time></trkpt><trkpt lat="39.4030091" lon="16.9227422"><ele>118.5</ele><time>2026-03-29T12:00:05.95Z</time></trkpt><trkpt lat="39.4030813" lon="16.9227992"><ele>118.66666666666666</ele><time>2026-03-29T12:00:07.924Z</time></trkpt><trkpt lat="39.4031756" lon="16.9228508"><ele>118.83333333333333</ele><time>2026-03-29T12:00:09.936Z</time></trkpt><trkpt lat="39.4032594" lon="16.9229015"><ele>119.0</ele><time>2026-03-29T12:00:11.928Z</time></trkpt><trkpt lat="39.4033117" lon="16.9229501"><ele>118.66666666666666</ele><time>2026-03-29T12:00:13.941Z</time></trkpt><trkpt lat="39.4033872" lon="16.9230148"><ele>118.33333333333333</ele><time>2026-03-29T12:00:19.933Z</time></trkpt><trkpt lat="39.4034392" lon="16.9230696"><ele>118.0</ele><time>2026-03-29T12:00:21.933Z</time></trkpt><trkpt lat="39.4034716" lon="16.9231468"><ele>117.66666666666666</ele><time>2026-03-29T12:00:23.936Z</time></trkpt><trkpt lat="39.403489" lon="16.9232616"><ele>117.33333333333333</ele><time>2026-03-29T12:00:25.928Z</time></trkpt><trkpt lat="39.4034866" lon="16.9234171"><ele>117.0</ele><time>2026-03-29T12:00:27.937Z</time></trkpt><trkpt lat="39.4034864" lon="16.9235007"><ele>117.83333333333333</ele><time>2026-03-29T12:00:28.905Z</time></trkpt><trkpt lat="39.4034967" lon="16.9235815"><ele>118.66666666666666</ele><time>2026-03-29T12:00:29.932Z</time></trkpt><trkpt lat="39.4035194" lon="16.9237094"><ele>119.5</ele><time>2026-03-29T12:00:31.934Z</time></trkpt><trkpt lat="39.4034891" lon="16.9238271"><ele>120.33333333333333</ele><time>2026-03-29T12:00:33.93Z</time></trkpt><trkpt lat="39.4034366" lon="16.9238893"><ele>121.16666666666666</ele><time>2026-03-29T12:00:34.93Z</time></trkpt><trkpt lat="39.4033676" lon="16.9239593"><ele>122.0</ele><time>2026-03-29T12:00:35.939Z</time></trkpt><trkpt lat="39.4032875" lon="16.924041"><ele>122.0</ele><time>2026-03-29T12:00:36.931Z</time></trkpt><trkpt lat="39.4031962" lon="16.9241651"><ele>122.0</ele><time>2026-03-29T12:00:37.923Z</time></trkpt><trkpt lat="39.4030989" lon="16.9243053"><ele>122.0</ele><time>2026-03-29T12:00:38.93Z</time></trkpt><trkpt lat="39.403008" lon="16.9244473"><ele>122.0</ele><time>2026-03-29T12:00:39.925Z</time></trkpt><trkpt lat="39.4029328" lon="16.9245891"><ele>123.8</ele><time>2026-03-29T12:00:40.927Z</time></trkpt><trkpt lat="39.4028704" lon="16.9247219"><ele>125.6</ele><time>2026-03-29T12:00:41.928Z</time></trkpt><trkpt lat="39.402822" lon="16.9248237"><ele>127.39999999999999</ele><time>2026-03-29T12:00:42.929Z</time></trkpt><trkpt lat="39.4027952" lon="16.9249181"><ele>129.2</ele><time>2026-03-29T12:00:44.927Z</time></trkpt><trkpt lat="39.4028951" lon="16.9249424"><ele>131.0</ele><time>2026-03-29T12:00:47.93Z</time></trkpt><trkpt lat="39.4029499" lon="16.9248828"><ele>133.6</ele><time>2026-03-29T12:00:48.926Z</time></trkpt><trkpt lat="39.4030074" lon="16.9247983"><ele>136.2</ele><time>2026-03-29T12:00:49.933Z</time></trkpt><trkpt lat="39.40307" lon="16.9247028"><ele>138.8</ele><time>2026-03-29T12:00:50.926Z</time></trkpt><trkpt lat="39.4031349" lon="16.9246025"><ele>141.4</ele><time>2026-03-29T12:00:51.948Z</time></trkpt><trkpt lat="39.4031982" lon="16.9245001"><ele>144.0</ele><time>2026-03-29T12:00:52.934Z</time></trkpt><trkpt lat="39.4032648" lon="16.9244032"><ele>144.0</ele><time>2026-03-29T12:00:53.937Z</time></trkpt><trkpt lat="39.4033292" lon="16.9243137"><ele>144.0</ele><time>2026-03-29T12:00:54.94Z</time></trkpt><trkpt lat="39.4033907" lon="16.9242136"><ele>144.0</ele><time>2026-03-29T12:00:55.925Z</time></trkpt><trkpt lat="39.403451" lon="16.9241016"><ele>144.0</ele><time>2026-03-29T12:00:56.931Z</time></trkpt><trkpt lat="39.4035183" lon="16.9239947"><ele>144.0</ele><time>2026-03-29T12:00:57.936Z</time></trkpt><trkpt lat="39.4035957" lon="16.9239007"><ele>140.75</ele><time>2026-03-29T12:00:58.93Z</time></trkpt><trkpt lat="39.4036826" lon="16.9238177"><ele>137.5</ele><time>2026-03-29T12:00:59.927Z</time></trkpt><trkpt lat="39.4037756" lon="16.9237353"><ele>134.25</ele><time>2026-03-29T12:01:00.935Z</time></trkpt><trkpt lat="39.403869" lon="16.9236479"><ele>131.0</ele><time>2026-03-29T12:01:01.935Z</time></trkpt><trkpt lat="39.4039643" lon="16.92356"><ele>131.0</ele><time>2026-03-29T12:01:02.926Z</time></trkpt><trkpt lat="39.4040602" lon="16.9234678"><ele>131.0</ele><time>2026-03-29T12:01:03.932Z</time></trkpt><trkpt lat="39.4041561" lon="16.9233739"><ele>131.0</ele><time>2026-03-29T12:01:04.929Z</time></trkpt><trkpt lat="39.4042522" lon="16.9232754"><ele>131.0</ele><time>2026-03-29T12:01:05.942Z</time></trkpt><trkpt lat="39.4043534" lon="16.9231706"><ele>129.5</ele><time>2026-03-29T12:01:06.938Z</time></trkpt><trkpt lat="39.404463" lon="16.9230578"><ele>128.0</ele><time>2026-03-29T12:01:07.945Z</time></trkpt><trkpt lat="39.4045692" lon="16.9229572"><ele>126.5</ele><time>2026-03-29T12:01:08.931Z</time></trkpt><trkpt lat="39.4046707" lon="16.9228901"><ele>125.0</ele><time>2026-03-29T12:01:09.942Z</time></trkpt><trkpt lat="39.4047664" lon="16.9228675"><ele>128.0</ele><time>2026-03-29T12:01:10.94Z</time></trkpt><trkpt lat="39.4048553" lon="16.9228868"><ele>131.0</ele><time>2026-03-29T12:01:11.936Z</time></trkpt><trkpt lat="39.4049418" lon="16.9229229"><ele>134.0</ele><time>2026-03-29T12:01:12.932Z</time></trkpt><trkpt lat="39.405013" lon="16.9230216"><ele>137.0</ele><time>2026-03-29T12:01:13.93Z</time></trkpt><trkpt lat="39.4050723" lon="16.9231606"><ele>140.0</ele><time>2026-03-29T12:01:14.921Z</time></trkpt><trkpt lat="39.4051164" lon="16.9233345"><ele>137.25</ele><time>2026-03-29T12:01:15.928Z</time></trkpt><trkpt lat="39.4051557" lon="16.9235097"><ele>134.5</ele><time>2026-03-29T12:01:16.929Z</time></trkpt><trkpt lat="39.405214" lon="16.9236587"><ele>131.75</ele><time>2026-03-29T12:01:17.929Z</time></trkpt><trkpt lat="39.4053036" lon="16.923762"><ele>129.0</ele><time>2026-03-29T12:01:18.939Z</time></trkpt><trkpt lat="39.405401" lon="16.923854"><ele>133.25</ele><time>2026-03-29T12:01:19.925Z</time></trkpt><trkpt lat="39.4055304" lon="16.9239234"><ele>137.5</ele><time>2026-03-29T12:01:20.933Z</time></trkpt><trkpt lat="39.4056726" lon="16.9239997"><ele>141.75</ele><time>2026-03-29T12:01:21.934Z</time></trkpt><trkpt lat="39.4058054" lon="16.9240853"><ele>146.0</ele><time>2026-03-29T12:01:22.927Z</time></trkpt><trkpt lat="39.4059259" lon="16.9241715"><ele>144.75</ele><time>2026-03-29T12:01:23.946Z</time></trkpt><trkpt lat="39.406039" lon="16.9242551"><ele>143.5</ele><time>2026-03-29T12:01:24.919Z</time></trkpt><trkpt lat="39.4061604" lon="16.9243304"><ele>142.25</ele><time>2026-03-29T12:01:25.934Z</time></trkpt><trkpt lat="39.4062842" lon="16.9243964"><ele>141.0</ele><time>2026-03-29T12:01:26.936Z</time></trkpt><trkpt lat="39.4064156" lon="16.9244398"><ele>139.25</ele><time>2026-03-29T12:01:27.922Z</time></trkpt><trkpt lat="39.4065509" lon="16.9244661"><ele>137.5</ele><time>2026-03-29T12:01:28.931Z</time></trkpt><trkpt lat="39.4066795" lon="16.9244749"><ele>135.75</ele><time>2026-03-29T12:01:29.915Z</time></trkpt><trkpt lat="39.4068068" lon="16.9244848"><ele>134.0</ele><time>2026-03-29T12:01:30.935Z</time></trkpt><trkpt lat="39.4069218" lon="16.9245073"><ele>134.0</ele><time>2026-03-29T12:01:31.92Z</time></trkpt><trkpt lat="39.4070227" lon="16.9245434"><ele>134.0</ele><time>2026-03-29T12:01:32.925Z</time></trkpt><trkpt lat="39.4071074" lon="16.9245884"><ele>134.0</ele><time>2026-03-29T12:01:33.94Z</time></trkpt><trkpt lat="39.4071708" lon="16.9246409"><ele>134.0</ele><time>2026-03-29T12:01:34.922Z</time></trkpt><trkpt lat="39.4072174" lon="16.9247024"><ele>134.0</ele><time>2026-03-29T12:01:35.93Z</time></trkpt><trkpt lat="39.4072768" lon="16.924777"><ele>134.0</ele><time>2026-03-29T12:01:36.926Z</time></trkpt><trkpt lat="39.4073577" lon="16.9248751"><ele>134.8</ele><time>2026-03-29T12:01:37.926Z</time></trkpt><trkpt lat="39.4074341" lon="16.9249886"><ele>135.60000000000002</ele><time>2026-03-29T12:01:38.924Z</time></trkpt><trkpt lat="39.4074891" lon="16.9251023"><ele>136.4</ele><time>2026-03-29T12:01:39.927Z</time></trkpt><trkpt lat="39.4075285" lon="16.9252236"><ele>137.20000000000002</ele><time>2026-03-29T12:01:40.93Z</time></trkpt><trkpt lat="39.4075603" lon="16.9253593"><ele>138.0</ele><time>2026-03-29T12:01:41.932Z</time></trkpt><trkpt lat="39.4075856" lon="16.9255106"><ele>138.0</ele><time>2026-03-29T12:01:42.929Z</time></trkpt><trkpt lat="39.4076114" lon="16.9256767"><ele>138.0</ele><time>2026-03-29T12:01:43.928Z</time></trkpt><trkpt lat="39.4076512" lon="16.9258497"><ele>138.0</ele><time>2026-03-29T12:01:44.935Z</time></trkpt><trkpt lat="39.4077039" lon="16.9260205"><ele>138.0</ele><time>2026-03-29T12:01:45.93Z</time></trkpt><trkpt lat="39.4077643" lon="16.9261825"><ele>136.5</ele><time>2026-03-29T12:01:46.93Z</time></trkpt><trkpt lat="39.4078307" lon="16.9263286"><ele>135.0</ele><time>2026-03-29T12:01:47.928Z</time></trkpt><trkpt lat="39.4079039" lon="16.9264775"><ele>133.5</ele><time>2026-03-29T12:01:48.926Z</time></trkpt><trkpt lat="39.4079656" lon="16.9266286"><ele>132.0</ele><time>2026-03-29T12:01:49.937Z</time></trkpt><trkpt lat="39.4080048" lon="16.9267839"><ele>136.25</ele><time>2026-03-29T12:01:50.927Z</time></trkpt><trkpt lat="39.4080142" lon="16.9269587"><ele>140.5</ele><time>2026-03-29T12:01:51.927Z</time></trkpt><trkpt lat="39.408012" lon="16.9271454"><ele>144.75</ele><time>2026-03-29T12:01:52.929Z</time></trkpt><trkpt lat="39.4080072" lon="16.9273337"><ele>149.0</ele><time>2026-03-29T12:01:53.929Z</time></trkpt><trkpt lat="39.408003" lon="16.9275112"><ele>144.75</ele><time>2026-03-29T12:01:54.924Z</time></trkpt><trkpt lat="39.4080039" lon="16.9276744"><ele>140.5</ele><time>2026-03-29T12:01:55.937Z</time></trkpt><trkpt lat="39.4080124" lon="16.9278221"><ele>136.25</ele><time>2026-03-29T12:01:56.931Z</time></trkpt><trkpt lat="39.4080388" lon="16.9279593"><ele>132.0</ele><time>2026-03-29T12:01:57.921Z</time></trkpt><trkpt lat="39.4080839" lon="16.9280916"><ele>132.0</ele><time>2026-03-29T12:01:58.934Z</time></trkpt><trkpt lat="39.4081513" lon="16.9282109"><ele>132.0</ele><time>2026-03-29T12:01:59.94Z</time></trkpt><trkpt lat="39.4082356" lon="16.928308"><ele>132.0</ele><time>2026-03-29T12:02:00.924Z</time></trkpt><trkpt lat="39.4083393" lon="16.928375"><ele>132.0</ele><time>2026-03-29T12:02:01.93Z</time></trkpt><trkpt lat="39.4084566" lon="16.9284055"><ele>128.5</ele><time>2026-03-29T12:02:02.935Z</time></trkpt><trkpt lat="39.4085812" lon="16.9284172"><ele>125.0</ele><time>2026-03-29T12:02:03.936Z</time></trkpt><trkpt lat="39.4087083" lon="16.9284246"><ele>121.5</ele><time>2026-03-29T12:02:04.929Z</time></trkpt><trkpt lat="39.4088362" lon="16.9284299"><ele>118.0</ele><time>2026-03-29T12:02:05.93Z</time></trkpt><trkpt lat="39.4089609" lon="16.9284369"><ele>117.60000000000001</ele><time>2026-03-29T12:02:06.929Z</time></trkpt><trkpt lat="39.4090794" lon="16.928445"><ele>117.20000000000002</ele><time>2026-03-29T12:02:07.934Z</time></trkpt><trkpt lat="39.4091892" lon="16.9284631"><ele>116.8</ele><time>2026-03-29T12:02:08.93Z</time></trkpt><trkpt lat="39.4092879" lon="16.9284977"><ele>116.4</ele><time>2026-03-29T12:02:09.929Z</time></trkpt><trkpt lat="39.4093679" lon="16.9285542"><ele>116.0</ele><time>2026-03-29T12:02:10.94Z</time></trkpt><trkpt lat="39.4094275" lon="16.9286316"><ele>116.0</ele><time>2026-03-29T12:02:11.946Z</time></trkpt><trkpt lat="39.4094578" lon="16.9287473"><ele>116.0</ele><time>2026-03-29T12:02:12.944Z</time></trkpt><trkpt lat="39.4094844" lon="16.9288822"><ele>116.0</ele><time>2026-03-29T12:02:13.928Z</time></trkpt><trkpt lat="39.4095157" lon="16.9290469"><ele>116.0</ele><time>2026-03-29T12:02:14.932Z</time></trkpt><trkpt lat="39.4095511" lon="16.9292321"><ele>113.33333333333333</ele><time>2026-03-29T12:02:15.932Z</time></trkpt><trkpt lat="39.4095881" lon="16.9294292"><ele>110.66666666666666</ele><time>2026-03-29T12:02:16.933Z</time></trkpt><trkpt lat="39.4096212" lon="16.929635"><ele>108.0</ele><time>2026-03-29T12:02:17.927Z</time></trkpt><trkpt lat="39.409652" lon="16.9298373"><ele>108.0</ele><time>2026-03-29T12:02:18.931Z</time></trkpt><trkpt lat="39.4096878" lon="16.9300247"><ele>108.0</ele><time>2026-03-29T12:02:19.931Z</time></trkpt><trkpt lat="39.4097377" lon="16.9301928"><ele>108.0</ele><time>2026-03-29T12:02:20.933Z</time></trkpt><trkpt lat="39.4098055" lon="16.9303356"><ele>108.0</ele><time>2026-03-29T12:02:21.949Z</time></trkpt><trkpt lat="39.4098858" lon="16.9304393"><ele>108.0</ele><time>2026-03-29T12:02:22.929Z</time></trkpt><trkpt lat="39.4099762" lon="16.9305107"><ele>108.00000000000001</ele><time>2026-03-29T12:02:23.933Z</time></trkpt><trkpt lat="39.4100765" lon="16.9305455"><ele>108.00000000000001</ele><time>2026-03-29T12:02:24.943Z</time></trkpt><trkpt lat="39.4101845" lon="16.9305424"><ele>108.0</ele><time>2026-03-29T12:02:25.951Z</time></trkpt><trkpt lat="39.4102966" lon="16.9305259"><ele>108.0</ele><time>2026-03-29T12:02:26.936Z</time></trkpt><trkpt lat="39.4104121" lon="16.9305136"><ele>107.0</ele><time>2026-03-29T12:02:27.934Z</time></trkpt><trkpt lat="39.4105307" lon="16.9305099"><ele>106.0</ele><time>2026-03-29T12:02:28.935Z</time></trkpt><trkpt lat="39.4106516" lon="16.9305139"><ele>105.0</ele><time>2026-03-29T12:02:29.933Z</time></trkpt><trkpt lat="39.4107736" lon="16.9305232"><ele>104.0</ele><time>2026-03-29T12:02:30.916Z</time></trkpt><trkpt lat="39.4108966" lon="16.9305333"><ele>104.0</ele><time>2026-03-29T12:02:31.944Z</time></trkpt><trkpt lat="39.4110099" lon="16.93054"><ele>104.0</ele><time>2026-03-29T12:02:32.935Z</time></trkpt><trkpt lat="39.4111149" lon="16.9305489"><ele>104.0</ele><time>2026-03-29T12:02:33.941Z</time></trkpt><trkpt lat="39.4112139" lon="16.9305572"><ele>104.0</ele><time>2026-03-29T12:02:34.934Z</time></trkpt><trkpt lat="39.4113085" lon="16.9305542"><ele>104.0</ele><time>2026-03-29T12:02:35.934Z</time></trkpt><trkpt lat="39.4114003" lon="16.9305473"><ele>103.4</ele><time>2026-03-29T12:02:36.932Z</time></trkpt><trkpt lat="39.4114933" lon="16.9305346"><ele>102.80000000000001</ele><time>2026-03-29T12:02:37.926Z</time></trkpt><trkpt lat="39.4115898" lon="16.9305101"><ele>102.19999999999999</ele><time>2026-03-29T12:02:38.938Z</time></trkpt><trkpt lat="39.4116925" lon="16.9304628"><ele>101.6</ele><time>2026-03-29T12:02:39.929Z</time></trkpt><trkpt lat="39.4118063" lon="16.9304114"><ele>101.0</ele><time>2026-03-29T12:02:40.944Z</time></trkpt><trkpt lat="39.411922" lon="16.9303643"><ele>101.0</ele><time>2026-03-29T12:02:41.914Z</time></trkpt><trkpt lat="39.4120434" lon="16.9303149"><ele>101.0</ele><time>2026-03-29T12:02:42.929Z</time></trkpt><trkpt lat="39.4121651" lon="16.9302582"><ele>101.0</ele><time>2026-03-29T12:02:43.936Z</time></trkpt><trkpt lat="39.4122861" lon="16.9301955"><ele>101.0</ele><time>2026-03-29T12:02:44.934Z</time></trkpt><trkpt lat="39.4124071" lon="16.9301244"><ele>100.5</ele><time>2026-03-29T12:02:45.932Z</time></trkpt><trkpt lat="39.4125291" lon="16.9300627"><ele>100.0</ele><time>2026-03-29T12:02:46.923Z</time></trkpt><trkpt lat="39.4126497" lon="16.930019"><ele>99.5</ele><time>2026-03-29T12:02:47.923Z</time></trkpt><trkpt lat="39.4127708" lon="16.929987"><ele>99.0</ele><time>2026-03-29T12:02:48.94Z</time></trkpt><trkpt lat="39.4128919" lon="16.9299614"><ele>100.0</ele><time>2026-03-29T12:02:49.926Z</time></trkpt><trkpt lat="39.4130146" lon="16.9299441"><ele>101.0</ele><time>2026-03-29T12:02:50.938Z</time></trkpt><trkpt lat="39.4131471" lon="16.929931"><ele>102.0</ele><time>2026-03-29T12:02:51.921Z</time></trkpt><trkpt lat="39.4133004" lon="16.9299195"><ele>103.0</ele><time>2026-03-29T12:02:52.927Z</time></trkpt><trkpt lat="39.4134632" lon="16.9299192"><ele>103.0</ele><time>2026-03-29T12:02:53.938Z</time></trkpt><trkpt lat="39.4136155" lon="16.9299277"><ele>103.0</ele><time>2026-03-29T12:02:54.926Z</time></trkpt><trkpt lat="39.4137535" lon="16.9299398"><ele>103.0</ele><time>2026-03-29T12:02:55.931Z</time></trkpt><trkpt lat="39.4138788" lon="16.9299663"><ele>103.0</ele><time>2026-03-29T12:02:56.933Z</time></trkpt><trkpt lat="39.4139919" lon="16.9300208"><ele>101.5</ele><time>2026-03-29T12:02:57.933Z</time></trkpt><trkpt lat="39.4141009" lon="16.9300995"><ele>100.0</ele><time>2026-03-29T12:02:58.938Z</time></trkpt><trkpt lat="39.4142004" lon="16.9301912"><ele>98.5</ele><time>2026-03-29T12:02:59.914Z</time></trkpt><trkpt lat="39.4142833" lon="16.9302948"><ele>97.0</ele><time>2026-03-29T12:03:00.907Z</time></trkpt><trkpt lat="39.4143531" lon="16.9304187"><ele>97.0</ele><time>2026-03-29T12:03:01.92Z</time></trkpt><trkpt lat="39.4144211" lon="16.9305514"><ele>97.0</ele><time>2026-03-29T12:03:02.941Z</time></trkpt><trkpt lat="39.4144892" lon="16.9306917"><ele>97.0</ele><time>2026-03-29T12:03:03.928Z</time></trkpt><trkpt lat="39.4145513" lon="16.9308317"><ele>97.0</ele><time>2026-03-29T12:03:04.927Z</time></trkpt><trkpt lat="39.4146059" lon="16.9309568"><ele>96.16666666666667</ele><time>2026-03-29T12:03:05.93Z</time></trkpt><trkpt lat="39.4146553" lon="16.9310641"><ele>95.33333333333334</ele><time>2026-03-29T12:03:06.931Z</time></trkpt><trkpt lat="39.4146979" lon="16.9311602"><ele>94.5</ele><time>2026-03-29T12:03:07.943Z</time></trkpt><trkpt lat="39.4147387" lon="16.931249"><ele>93.66666666666667</ele><time>2026-03-29T12:03:08.922Z</time></trkpt><trkpt lat="39.4147901" lon="16.9313352"><ele>92.83333333333334</ele><time>2026-03-29T12:03:09.926Z</time></trkpt><trkpt lat="39.4148579" lon="16.9314183"><ele>92.0</ele><time>2026-03-29T12:03:10.939Z</time></trkpt><trkpt lat="39.4149431" lon="16.9314941"><ele>92.0</ele><time>2026-03-29T12:03:11.926Z</time></trkpt><trkpt lat="39.4150389" lon="16.9315621"><ele>92.0</ele><time>2026-03-29T12:03:12.931Z</time></trkpt><trkpt lat="39.4151308" lon="16.9316189"><ele>92.0</ele><time>2026-03-29T12:03:13.925Z</time></trkpt><trkpt lat="39.4152143" lon="16.9316683"><ele>92.0</ele><time>2026-03-29T12:03:14.965Z</time></trkpt><trkpt lat="39.4152869" lon="16.9317098"><ele>92.0</ele><time>2026-03-29T12:03:15.955Z</time></trkpt><trkpt lat="39.415351" lon="16.931745"><ele>91.5</ele><time>2026-03-29T12:03:16.93Z</time></trkpt><trkpt lat="39.4154536" lon="16.9317982"><ele>91.0</ele><time>2026-03-29T12:03:18.934Z</time></trkpt><trkpt lat="39.4155413" lon="16.9318489"><ele>90.5</ele><time>2026-03-29T12:03:20.934Z</time></trkpt><trkpt lat="39.4156562" lon="16.9319266"><ele>90.0</ele><time>2026-03-29T12:03:22.94Z</time></trkpt><trkpt lat="39.4157586" lon="16.9319969"><ele>89.8</ele><time>2026-03-29T12:03:24.94Z</time></trkpt><trkpt lat="39.4158401" lon="16.9320431"><ele>89.6</ele><time>2026-03-29T12:03:26.96Z</time></trkpt><trkpt lat="39.4159591" lon="16.9320671"><ele>89.4</ele><time>2026-03-29T12:03:28.942Z</time></trkpt><trkpt lat="39.4160344" lon="16.9321131"><ele>89.2</ele><time>2026-03-29T12:03:29.948Z</time></trkpt><trkpt lat="39.4161176" lon="16.9321651"><ele>89.0</ele><time>2026-03-29T12:03:30.916Z</time></trkpt><trkpt lat="39.4162059" lon="16.9322142"><ele>89.0</ele><time>2026-03-29T12:03:31.928Z</time></trkpt><trkpt lat="39.4162943" lon="16.932268"><ele>89.0</ele><time>2026-03-29T12:03:32.931Z</time></trkpt><trkpt lat="39.4163811" lon="16.9323233"><ele>89.0</ele><time>2026-03-29T12:03:33.927Z</time></trkpt><trkpt lat="39.4164713" lon="16.9323782"><ele>89.0</ele><time>2026-03-29T12:03:34.929Z</time></trkpt><trkpt lat="39.4165611" lon="16.9324324"><ele>89.0</ele><time>2026-03-29T12:03:35.938Z</time></trkpt><trkpt lat="39.4166536" lon="16.9324855"><ele>89.0</ele><time>2026-03-29T12:03:36.936Z</time></trkpt><trkpt lat="39.4167478" lon="16.932537"><ele>89.0</ele><time>2026-03-29T12:03:37.932Z</time></trkpt><trkpt lat="39.4168423" lon="16.9325958"><ele>89.0</ele><time>2026-03-29T12:03:38.923Z</time></trkpt><trkpt lat="39.4169396" lon="16.9326646"><ele>89.0</ele><time>2026-03-29T12:03:39.925Z</time></trkpt><trkpt lat="39.417039" lon="16.9327308"><ele>89.0</ele><time>2026-03-29T12:03:40.907Z</time></trkpt><trkpt lat="39.4171425" lon="16.9327876"><ele>89.25</ele><time>2026-03-29T12:03:41.923Z</time></trkpt><trkpt lat="39.4172487" lon="16.9328404"><ele>89.5</ele><time>2026-03-29T12:03:42.917Z</time></trkpt><trkpt lat="39.4173608" lon="16.9328978"><ele>89.75</ele><time>2026-03-29T12:03:43.984Z</time></trkpt><trkpt lat="39.4174698" lon="16.9329574"><ele>90.0</ele><time>2026-03-29T12:03:44.932Z</time></trkpt><trkpt lat="39.4175844" lon="16.933017"><ele>90.0</ele><time>2026-03-29T12:03:45.928Z</time></trkpt><trkpt lat="39.4176977" lon="16.933074"><ele>90.0</ele><time>2026-03-29T12:03:46.925Z</time></trkpt><trkpt lat="39.417804" lon="16.9331354"><ele>90.0</ele><time>2026-03-29T12:03:47.927Z</time></trkpt><trkpt lat="39.4178985" lon="16.9332119"><ele>90.0</ele><time>2026-03-29T12:03:48.935Z</time></trkpt><trkpt lat="39.4179946" lon="16.9332807"><ele>89.25</ele><time>2026-03-29T12:03:49.939Z</time></trkpt><trkpt lat="39.4180949" lon="16.9333474"><ele>88.5</ele><time>2026-03-29T12:03:50.939Z</time></trkpt><trkpt lat="39.4181942" lon="16.9334299"><ele>87.75</ele><time>2026-03-29T12:03:51.934Z</time></trkpt><trkpt lat="39.4182958" lon="16.9335256"><ele>87.0</ele><time>2026-03-29T12:03:52.924Z</time></trkpt><trkpt lat="39.4183998" lon="16.9336282"><ele>87.0</ele><time>2026-03-29T12:03:53.932Z</time></trkpt><trkpt lat="39.4185053" lon="16.9337339"><ele>87.0</ele><time>2026-03-29T12:03:54.927Z</time></trkpt><trkpt lat="39.41861" lon="16.9338429"><ele>87.0</ele><time>2026-03-29T12:03:55.921Z</time></trkpt><trkpt lat="39.4187179" lon="16.9339506"><ele>87.0</ele><time>2026-03-29T12:03:56.942Z</time></trkpt><trkpt lat="39.4188251" lon="16.9340556"><ele>86.75</ele><time>2026-03-29T12:03:57.934Z</time></trkpt><trkpt lat="39.4189344" lon="16.9341618"><ele>86.5</ele><time>2026-03-29T12:03:58.936Z</time></trkpt><trkpt lat="39.4190423" lon="16.9342691"><ele>86.25</ele><time>2026-03-29T12:03:59.929Z</time></trkpt><trkpt lat="39.4191478" lon="16.9343809"><ele>86.0</ele><time>2026-03-29T12:04:00.933Z</time></trkpt><trkpt lat="39.4192548" lon="16.9344901"><ele>86.0</ele><time>2026-03-29T12:04:01.92Z</time></trkpt><trkpt lat="39.4193695" lon="16.9346017"><ele>86.0</ele><time>2026-03-29T12:04:02.922Z</time></trkpt><trkpt lat="39.4194935" lon="16.9347273"><ele>86.0</ele><time>2026-03-29T12:04:03.955Z</time></trkpt><trkpt lat="39.4196133" lon="16.9348509"><ele>86.0</ele><time>2026-03-29T12:04:04.938Z</time></trkpt><trkpt lat="39.4197281" lon="16.9349649"><ele>86.0</ele><time>2026-03-29T12:04:05.931Z</time></trkpt><trkpt lat="39.41984" lon="16.9350737"><ele>86.0</ele><time>2026-03-29T12:04:06.937Z</time></trkpt><trkpt lat="39.4199445" lon="16.9351755"><ele>86.0</ele><time>2026-03-29T12:04:07.93Z</time></trkpt><trkpt lat="39.4200403" lon="16.935272"><ele>86.0</ele><time>2026-03-29T12:04:08.936Z</time></trkpt><trkpt lat="39.4201272" lon="16.935355"><ele>86.0</ele><time>2026-03-29T12:04:09.93Z</time></trkpt><trkpt lat="39.4202085" lon="16.9354205"><ele>86.0</ele><time>2026-03-29T12:04:10.929Z</time></trkpt><trkpt lat="39.420278" lon="16.9354754"><ele>86.0</ele><time>2026-03-29T12:04:11.938Z</time></trkpt><trkpt lat="39.4203333" lon="16.9355317"><ele>86.0</ele><time>2026-03-29T12:04:12.938Z</time></trkpt><trkpt lat="39.4204178" lon="16.9356507"><ele>85.83333333333334</ele><time>2026-03-29T12:04:14.927Z</time></trkpt><trkpt lat="39.4205194" lon="16.9357123"><ele>85.66666666666667</ele><time>2026-03-29T12:04:16.924Z</time></trkpt><trkpt lat="39.4205836" lon="16.9357889"><ele>85.5</ele><time>2026-03-29T12:04:18.915Z</time></trkpt><trkpt lat="39.4206323" lon="16.9358485"><ele>85.33333333333333</ele><time>2026-03-29T12:04:19.933Z</time></trkpt><trkpt lat="39.4206889" lon="16.9359183"><ele>85.16666666666666</ele><time>2026-03-29T12:04:20.929Z</time></trkpt><trkpt lat="39.4207555" lon="16.9359894"><ele>85.0</ele><time>2026-03-29T12:04:21.942Z</time></trkpt><trkpt lat="39.4208245" lon="16.9360639"><ele>85.0</ele><time>2026-03-29T12:04:22.931Z</time></trkpt><trkpt lat="39.4208883" lon="16.9361526"><ele>85.0</ele><time>2026-03-29T12:04:23.929Z</time></trkpt><trkpt lat="39.4209465" lon="16.9362524"><ele>85.0</ele><time>2026-03-29T12:04:24.93Z</time></trkpt><trkpt lat="39.4209905" lon="16.9363459"><ele>85.0</ele><time>2026-03-29T12:04:25.928Z</time></trkpt><trkpt lat="39.4210265" lon="16.9364199"><ele>85.0</ele><time>2026-03-29T12:04:26.93Z</time></trkpt><trkpt lat="39.4210614" lon="16.9364942"><ele>85.0</ele><time>2026-03-29T12:04:27.923Z</time></trkpt><trkpt lat="39.4210945" lon="16.9365921"><ele>85.0</ele><time>2026-03-29T12:04:28.93Z</time></trkpt><trkpt lat="39.4211212" lon="16.9367137"><ele>85.0</ele><time>2026-03-29T12:04:29.924Z</time></trkpt><trkpt lat="39.4211417" lon="16.9368487"><ele>85.0</ele><time>2026-03-29T12:04:30.935Z</time></trkpt><trkpt lat="39.4211585" lon="16.9369924"><ele>85.0</ele><time>2026-03-29T12:04:31.931Z</time></trkpt><trkpt lat="39.4211775" lon="16.937143"><ele>85.0</ele><time>2026-03-29T12:04:32.93Z</time></trkpt><trkpt lat="39.4211985" lon="16.9373009"><ele>85.0</ele><time>2026-03-29T12:04:33.932Z</time></trkpt><trkpt lat="39.4212222" lon="16.9374546"><ele>85.0</ele><time>2026-03-29T12:04:34.933Z</time></trkpt><trkpt lat="39.4212593" lon="16.9376029"><ele>85.0</ele><time>2026-03-29T12:04:35.932Z</time></trkpt><trkpt lat="39.421306" lon="16.9377344"><ele>85.0</ele><time>2026-03-29T12:04:36.942Z</time></trkpt><trkpt lat="39.4213542" lon="16.9378497"><ele>85.4</ele><time>2026-03-29T12:04:37.933Z</time></trkpt><trkpt lat="39.4214136" lon="16.937947"><ele>85.8</ele><time>2026-03-29T12:04:38.941Z</time></trkpt><trkpt lat="39.4214714" lon="16.9380402"><ele>86.19999999999999</ele><time>2026-03-29T12:04:39.949Z</time></trkpt><trkpt lat="39.4215312" lon="16.9381298"><ele>86.6</ele><time>2026-03-29T12:04:40.936Z</time></trkpt><trkpt lat="39.4215927" lon="16.9382241"><ele>87.0</ele><time>2026-03-29T12:04:41.922Z</time></trkpt><trkpt lat="39.4216577" lon="16.9383277"><ele>85.75</ele><time>2026-03-29T12:04:42.931Z</time></trkpt><trkpt lat="39.4217269" lon="16.938436"><ele>84.5</ele><time>2026-03-29T12:04:43.932Z</time></trkpt><trkpt lat="39.4218027" lon="16.9385565"><ele>83.25</ele><time>2026-03-29T12:04:44.93Z</time></trkpt><trkpt lat="39.4218876" lon="16.9386935"><ele>82.0</ele><time>2026-03-29T12:04:45.922Z</time></trkpt><trkpt lat="39.4219759" lon="16.9388417"><ele>82.0</ele><time>2026-03-29T12:04:46.933Z</time></trkpt><trkpt lat="39.4220616" lon="16.9389863"><ele>82.0</ele><time>2026-03-29T12:04:47.93Z</time></trkpt><trkpt lat="39.422145" lon="16.939125"><ele>82.0</ele><time>2026-03-29T12:04:48.938Z</time></trkpt><trkpt lat="39.4222276" lon="16.9392575"><ele>82.0</ele><time>2026-03-29T12:04:49.931Z</time></trkpt><trkpt lat="39.4223151" lon="16.9393902"><ele>83.75</ele><time>2026-03-29T12:04:50.927Z</time></trkpt><trkpt lat="39.4224059" lon="16.9395318"><ele>85.5</ele><time>2026-03-29T12:04:51.937Z</time></trkpt><trkpt lat="39.4224929" lon="16.9396793"><ele>87.25</ele><time>2026-03-29T12:04:52.933Z</time></trkpt><trkpt lat="39.4225772" lon="16.9398219"><ele>89.0</ele><time>2026-03-29T12:04:53.924Z</time></trkpt><trkpt lat="39.4226527" lon="16.9399583"><ele>88.25</ele><time>2026-03-29T12:04:54.924Z</time></trkpt><trkpt lat="39.4227211" lon="16.9400895"><ele>87.5</ele><time>2026-03-29T12:04:55.935Z</time></trkpt><trkpt lat="39.4227875" lon="16.9402086"><ele>86.75</ele><time>2026-03-29T12:04:56.952Z</time></trkpt><trkpt lat="39.4228626" lon="16.940319"><ele>86.0</ele><time>2026-03-29T12:04:57.93Z</time></trkpt><trkpt lat="39.4229373" lon="16.9404417"><ele>87.25</ele><time>2026-03-29T12:04:58.932Z</time></trkpt><trkpt lat="39.4230127" lon="16.9405639"><ele>88.5</ele><time>2026-03-29T12:04:59.925Z</time></trkpt><trkpt lat="39.4230797" lon="16.9406897"><ele>89.75</ele><time>2026-03-29T12:05:00.938Z</time></trkpt><trkpt lat="39.4231325" lon="16.940821"><ele>91.0</ele><time>2026-03-29T12:05:01.94Z</time></trkpt><trkpt lat="39.4231797" lon="16.9409493"><ele>91.0</ele><time>2026-03-29T12:05:02.939Z</time></trkpt><trkpt lat="39.423218" lon="16.9410893"><ele>91.0</ele><time>2026-03-29T12:05:03.953Z</time></trkpt><trkpt lat="39.4232461" lon="16.941233"><ele>91.0</ele><time>2026-03-29T12:05:04.928Z</time></trkpt><trkpt lat="39.4232722" lon="16.9413826"><ele>91.0</ele><time>2026-03-29T12:05:05.942Z</time></trkpt><trkpt lat="39.4232996" lon="16.9415323"><ele>91.0</ele><time>2026-03-29T12:05:06.927Z</time></trkpt><trkpt lat="39.4233298" lon="16.9416826"><ele>91.0</ele><time>2026-03-29T12:05:07.938Z</time></trkpt><trkpt lat="39.4233605" lon="16.9418346"><ele>91.0</ele><time>2026-03-29T12:05:08.929Z</time></trkpt><trkpt lat="39.4233921" lon="16.9419875"><ele>91.0</ele><time>2026-03-29T12:05:09.932Z</time></trkpt><trkpt lat="39.4234181" lon="16.9421379"><ele>89.25</ele><time>2026-03-29T12:05:10.937Z</time></trkpt><trkpt lat="39.423441" lon="16.9422859"><ele>87.5</ele><time>2026-03-29T12:05:11.927Z</time></trkpt><trkpt lat="39.4234645" lon="16.942433"><ele>85.75</ele><time>2026-03-29T12:05:12.933Z</time></trkpt><trkpt lat="39.4234875" lon="16.9425771"><ele>84.0</ele><time>2026-03-29T12:05:13.916Z</time></trkpt><trkpt lat="39.4235216" lon="16.9427236"><ele>83.0</ele><time>2026-03-29T12:05:14.934Z</time></trkpt><trkpt lat="39.4235626" lon="16.9428636"><ele>82.0</ele><time>2026-03-29T12:05:15.933Z</time></trkpt><trkpt lat="39.4236044" lon="16.9430062"><ele>81.0</ele><time>2026-03-29T12:05:16.933Z</time></trkpt><trkpt lat="39.4236421" lon="16.943144"><ele>80.0</ele><time>2026-03-29T12:05:17.936Z</time></trkpt><trkpt lat="39.4236789" lon="16.9432804"><ele>79.6</ele><time>2026-03-29T12:05:18.933Z</time></trkpt><trkpt lat="39.4237172" lon="16.9434149"><ele>79.2</ele><time>2026-03-29T12:05:19.927Z</time></trkpt><trkpt lat="39.4237549" lon="16.9435437"><ele>78.8</ele><time>2026-03-29T12:05:20.923Z</time></trkpt><trkpt lat="39.4237889" lon="16.9436705"><ele>78.4</ele><time>2026-03-29T12:05:21.94Z</time></trkpt><trkpt lat="39.4238297" lon="16.9437908"><ele>78.0</ele><time>2026-03-29T12:05:22.928Z</time></trkpt><trkpt lat="39.4238855" lon="16.9439041"><ele>78.8</ele><time>2026-03-29T12:05:23.937Z</time></trkpt><trkpt lat="39.4239552" lon="16.9440049"><ele>79.6</ele><time>2026-03-29T12:05:24.923Z</time></trkpt><trkpt lat="39.4240368" lon="16.9440919"><ele>80.39999999999999</ele><time>2026-03-29T12:05:25.921Z</time></trkpt><trkpt lat="39.4241264" lon="16.9441664"><ele>81.19999999999999</ele><time>2026-03-29T12:05:26.932Z</time></trkpt><trkpt lat="39.4242162" lon="16.9442338"><ele>82.0</ele><time>2026-03-29T12:05:27.923Z</time></trkpt><trkpt lat="39.4243074" lon="16.9442984"><ele>80.39999999999999</ele><time>2026-03-29T12:05:28.928Z</time></trkpt><trkpt lat="39.4243964" lon="16.9443642"><ele>78.8</ele><time>2026-03-29T12:05:29.919Z</time></trkpt><trkpt lat="39.4244791" lon="16.9444436"><ele>77.2</ele><time>2026-03-29T12:05:30.926Z</time></trkpt><trkpt lat="39.4245497" lon="16.9445389"><ele>75.6</ele><time>2026-03-29T12:05:31.931Z</time></trkpt><trkpt lat="39.4246031" lon="16.944649"><ele>74.0</ele><time>2026-03-29T12:05:32.931Z</time></trkpt><trkpt lat="39.4246456" lon="16.9447692"><ele>74.60000000000001</ele><time>2026-03-29T12:05:33.924Z</time></trkpt><trkpt lat="39.4246831" lon="16.9448969"><ele>75.2</ele><time>2026-03-29T12:05:34.93Z</time></trkpt><trkpt lat="39.4247215" lon="16.9450273"><ele>75.80000000000001</ele><time>2026-03-29T12:05:35.927Z</time></trkpt><trkpt lat="39.4247582" lon="16.9451595"><ele>76.4</ele><time>2026-03-29T12:05:36.938Z</time></trkpt><trkpt lat="39.4247994" lon="16.9452873"><ele>77.0</ele><time>2026-03-29T12:05:37.925Z</time></trkpt><trkpt lat="39.4248456" lon="16.9454118"><ele>77.0</ele><time>2026-03-29T12:05:38.927Z</time></trkpt><trkpt lat="39.4248904" lon="16.9455352"><ele>77.0</ele><time>2026-03-29T12:05:39.928Z</time></trkpt><trkpt lat="39.424934" lon="16.9456578"><ele>77.0</ele><time>2026-03-29T12:05:40.926Z</time></trkpt><trkpt lat="39.4249786" lon="16.9457792"><ele>77.0</ele><time>2026-03-29T12:05:41.935Z</time></trkpt><trkpt lat="39.4250256" lon="16.9458995"><ele>77.0</ele><time>2026-03-29T12:05:42.953Z</time></trkpt><trkpt lat="39.425076" lon="16.9460112"><ele>76.33333333333334</ele><time>2026-03-29T12:05:43.926Z</time></trkpt><trkpt lat="39.4251296" lon="16.9461096"><ele>75.66666666666667</ele><time>2026-03-29T12:05:44.929Z</time></trkpt><trkpt lat="39.4251813" lon="16.9461887"><ele>75.0</ele><time>2026-03-29T12:05:45.927Z</time></trkpt><trkpt lat="39.4252281" lon="16.9462518"><ele>74.33333333333333</ele><time>2026-03-29T12:05:46.926Z</time></trkpt><trkpt lat="39.4252783" lon="16.9463409"><ele>73.66666666666666</ele><time>2026-03-29T12:05:48.922Z</time></trkpt><trkpt lat="39.4253118" lon="16.9464173"><ele>73.0</ele><time>2026-03-29T12:05:50.94Z</time></trkpt><trkpt lat="39.4253874" lon="16.9465645"><ele>73.0</ele><time>2026-03-29T12:05:52.941Z</time></trkpt><trkpt lat="39.4254341" lon="16.9466521"><ele>73.0</ele><time>2026-03-29T12:05:53.914Z</time></trkpt><trkpt lat="39.4254762" lon="16.9467503"><ele>73.0</ele><time>2026-03-29T12:05:54.922Z</time></trkpt><trkpt lat="39.4255173" lon="16.9468468"><ele>73.0</ele><time>2026-03-29T12:05:55.929Z</time></trkpt><trkpt lat="39.4255644" lon="16.9469445"><ele>73.0</ele><time>2026-03-29T12:05:56.935Z</time></trkpt><trkpt lat="39.4256185" lon="16.9470507"><ele>73.0</ele><time>2026-03-29T12:05:57.921Z</time></trkpt><trkpt lat="39.4256795" lon="16.9471699"><ele>72.6</ele><time>2026-03-29T12:05:58.932Z</time></trkpt><trkpt lat="39.4257422" lon="16.94729"><ele>72.19999999999999</ele><time>2026-03-29T12:05:59.93Z</time></trkpt><trkpt lat="39.4258019" lon="16.9474033"><ele>71.8</ele><time>2026-03-29T12:06:00.937Z</time></trkpt><trkpt lat="39.4258549" lon="16.9475038"><ele>71.39999999999999</ele><time>2026-03-29T12:06:01.93Z</time></trkpt><trkpt lat="39.425908" lon="16.9475843"><ele>71.0</ele><time>2026-03-29T12:06:02.927Z</time></trkpt><trkpt lat="39.4259599" lon="16.947645"><ele>71.0</ele><time>2026-03-29T12:06:03.937Z</time></trkpt><trkpt lat="39.4260112" lon="16.9477044"><ele>71.0</ele><time>2026-03-29T12:06:04.947Z</time></trkpt><trkpt lat="39.4260666" lon="16.9477636"><ele>71.0</ele><time>2026-03-29T12:06:05.928Z</time></trkpt><trkpt lat="39.4261267" lon="16.9478305"><ele>71.0</ele><time>2026-03-29T12:06:06.928Z</time></trkpt><trkpt lat="39.4261903" lon="16.9479024"><ele>71.0</ele><time>2026-03-29T12:06:07.926Z</time></trkpt><trkpt lat="39.4262571" lon="16.9479764"><ele>71.0</ele><time>2026-03-29T12:06:08.924Z</time></trkpt><trkpt lat="39.4263244" lon="16.9480542"><ele>71.0</ele><time>2026-03-29T12:06:09.93Z</time></trkpt><trkpt lat="39.4263912" lon="16.9481363"><ele>71.0</ele><time>2026-03-29T12:06:10.93Z</time></trkpt><trkpt lat="39.4264611" lon="16.9482212"><ele>71.0</ele><time>2026-03-29T12:06:11.934Z</time></trkpt><trkpt lat="39.4265357" lon="16.9482991"><ele>71.0</ele><time>2026-03-29T12:06:12.938Z</time></trkpt><trkpt lat="39.426612" lon="16.9483691"><ele>71.0</ele><time>2026-03-29T12:06:13.931Z</time></trkpt><trkpt lat="39.4266979" lon="16.9484041"><ele>71.0</ele><time>2026-03-29T12:06:14.929Z</time></trkpt><trkpt lat="39.4267863" lon="16.9484282"><ele>71.0</ele><time>2026-03-29T12:06:15.932Z</time></trkpt><trkpt lat="39.4268777" lon="16.9484425"><ele>71.0</ele><time>2026-03-29T12:06:16.915Z</time></trkpt><trkpt lat="39.4269768" lon="16.9484426"><ele>71.0</ele><time>2026-03-29T12:06:17.937Z</time></trkpt><trkpt lat="39.4270773" lon="16.9484375"><ele>71.0</ele><time>2026-03-29T12:06:18.925Z</time></trkpt><trkpt lat="39.427183" lon="16.9484286"><ele>70.6</ele><time>2026-03-29T12:06:19.921Z</time></trkpt><trkpt lat="39.4272902" lon="16.9484206"><ele>70.19999999999999</ele><time>2026-03-29T12:06:20.924Z</time></trkpt><trkpt lat="39.4273983" lon="16.9484153"><ele>69.80000000000001</ele><time>2026-03-29T12:06:21.92Z</time></trkpt><trkpt lat="39.4275048" lon="16.9484135"><ele>69.4</ele><time>2026-03-29T12:06:22.922Z</time></trkpt><trkpt lat="39.4276053" lon="16.9484149"><ele>69.0</ele><time>2026-03-29T12:06:23.926Z</time></trkpt><trkpt lat="39.427699" lon="16.9484312"><ele>69.0</ele><time>2026-03-29T12:06:24.932Z</time></trkpt><trkpt lat="39.4277894" lon="16.9484728"><ele>69.0</ele><time>2026-03-29T12:06:25.923Z</time></trkpt><trkpt lat="39.4278779" lon="16.9485347"><ele>69.0</ele><time>2026-03-29T12:06:26.923Z</time></trkpt><trkpt lat="39.4279638" lon="16.9486176"><ele>69.0</ele><time>2026-03-29T12:06:27.926Z</time></trkpt><trkpt lat="39.4280509" lon="16.9486982"><ele>69.0</ele><time>2026-03-29T12:06:28.933Z</time></trkpt><trkpt lat="39.4281413" lon="16.9487757"><ele>69.0</ele><time>2026-03-29T12:06:29.932Z</time></trkpt><trkpt lat="39.4282316" lon="16.9488527"><ele>69.0</ele><time>2026-03-29T12:06:30.93Z</time></trkpt><trkpt lat="39.4283179" lon="16.9489327"><ele>69.0</ele><time>2026-03-29T12:06:31.927Z</time></trkpt><trkpt lat="39.4284026" lon="16.9490104"><ele>69.0</ele><time>2026-03-29T12:06:32.937Z</time></trkpt><trkpt lat="39.4284943" lon="16.9490793"><ele>69.0</ele><time>2026-03-29T12:06:33.938Z</time></trkpt><trkpt lat="39.4285969" lon="16.9491402"><ele>69.0</ele><time>2026-03-29T12:06:34.933Z</time></trkpt><trkpt lat="39.4287062" lon="16.9491932"><ele>69.0</ele><time>2026-03-29T12:06:35.932Z</time></trkpt><trkpt lat="39.4288189" lon="16.9492379"><ele>69.0</ele><time>2026-03-29T12:06:36.927Z</time></trkpt><trkpt lat="39.428934" lon="16.9492796"><ele>69.0</ele><time>2026-03-29T12:06:37.922Z</time></trkpt><trkpt lat="39.42905" lon="16.9493241"><ele>68.25</ele><time>2026-03-29T12:06:38.925Z</time></trkpt><trkpt lat="39.4291683" lon="16.9493572"><ele>67.5</ele><time>2026-03-29T12:06:39.933Z</time></trkpt><trkpt lat="39.42929" lon="16.9493767"><ele>66.75</ele><time>2026-03-29T12:06:40.93Z</time></trkpt><trkpt lat="39.4294151" lon="16.9493877"><ele>66.0</ele><time>2026-03-29T12:06:41.928Z</time></trkpt><trkpt lat="39.429543" lon="16.9493913"><ele>66.25</ele><time>2026-03-29T12:06:42.934Z</time></trkpt><trkpt lat="39.4296718" lon="16.9493882"><ele>66.5</ele><time>2026-03-29T12:06:43.926Z</time></trkpt><trkpt lat="39.4298027" lon="16.9493775"><ele>66.75</ele><time>2026-03-29T12:06:44.927Z</time></trkpt><trkpt lat="39.4299332" lon="16.9493643"><ele>67.0</ele><time>2026-03-29T12:06:45.923Z</time></trkpt><trkpt lat="39.4300605" lon="16.9493539"><ele>67.0</ele><time>2026-03-29T12:06:46.931Z</time></trkpt><trkpt lat="39.4301824" lon="16.9493506"><ele>67.0</ele><time>2026-03-29T12:06:47.929Z</time></trkpt><trkpt lat="39.4303013" lon="16.94935"><ele>67.0</ele><time>2026-03-29T12:06:48.932Z</time></trkpt><trkpt lat="39.4304174" lon="16.9493495"><ele>67.0</ele><time>2026-03-29T12:06:49.932Z</time></trkpt><trkpt lat="39.4305312" lon="16.9493473"><ele>67.0</ele><time>2026-03-29T12:06:50.93Z</time></trkpt><trkpt lat="39.4306445" lon="16.949344"><ele>67.0</ele><time>2026-03-29T12:06:51.934Z</time></trkpt><trkpt lat="39.4307568" lon="16.9493374"><ele>67.0</ele><time>2026-03-29T12:06:52.926Z</time></trkpt><trkpt lat="39.4308691" lon="16.9493303"><ele>67.0</ele><time>2026-03-29T12:06:53.944Z</time></trkpt><trkpt lat="39.4309737" lon="16.9493281"><ele>67.0</ele><time>2026-03-29T12:06:54.933Z</time></trkpt><trkpt lat="39.4310711" lon="16.9493287"><ele>67.0</ele><time>2026-03-29T12:06:55.928Z</time></trkpt><trkpt lat="39.4311631" lon="16.9493324"><ele>67.0</ele><time>2026-03-29T12:06:56.931Z</time></trkpt><trkpt lat="39.4312541" lon="16.9493459"><ele>67.0</ele><time>2026-03-29T12:06:57.933Z</time></trkpt><trkpt lat="39.4313445" lon="16.9493762"><ele>67.0</ele><time>2026-03-29T12:06:58.952Z</time></trkpt><trkpt lat="39.4314329" lon="16.9494188"><ele>67.0</ele><time>2026-03-29T12:06:59.942Z</time></trkpt><trkpt lat="39.4315221" lon="16.9494715"><ele>66.5</ele><time>2026-03-29T12:07:00.931Z</time></trkpt><trkpt lat="39.4316154" lon="16.949529"><ele>66.0</ele><time>2026-03-29T12:07:01.92Z</time></trkpt><trkpt lat="39.4317171" lon="16.9495894"><ele>65.5</ele><time>2026-03-29T12:07:02.935Z</time></trkpt><trkpt lat="39.431824" lon="16.9496496"><ele>65.0</ele><time>2026-03-29T12:07:03.931Z</time></trkpt><trkpt lat="39.4319341" lon="16.9497115"><ele>65.0</ele><time>2026-03-29T12:07:04.942Z</time></trkpt><trkpt lat="39.4320437" lon="16.9497748"><ele>65.0</ele><time>2026-03-29T12:07:05.935Z</time></trkpt><trkpt lat="39.4321514" lon="16.9498394"><ele>65.0</ele><time>2026-03-29T12:07:06.934Z</time></trkpt><trkpt lat="39.4322555" lon="16.9499033"><ele>65.0</ele><time>2026-03-29T12:07:07.948Z</time></trkpt><trkpt lat="39.4323555" lon="16.9499651"><ele>64.8</ele><time>2026-03-29T12:07:08.937Z</time></trkpt><trkpt lat="39.432454" lon="16.9500279"><ele>64.6</ele><time>2026-03-29T12:07:09.924Z</time></trkpt><trkpt lat="39.4325484" lon="16.9500969"><ele>64.4</ele><time>2026-03-29T12:07:10.928Z</time></trkpt><trkpt lat="39.4326363" lon="16.9501756"><ele>64.2</ele><time>2026-03-29T12:07:11.935Z</time></trkpt><trkpt lat="39.4327213" lon="16.9502596"><ele>64.0</ele><time>2026-03-29T12:07:12.935Z</time></trkpt><trkpt lat="39.4328036" lon="16.9503482"><ele>64.0</ele><time>2026-03-29T12:07:13.924Z</time></trkpt><trkpt lat="39.4328799" lon="16.9504457"><ele>64.0</ele><time>2026-03-29T12:07:14.951Z</time></trkpt><trkpt lat="39.432945" lon="16.9505496"><ele>64.0</ele><time>2026-03-29T12:07:15.929Z</time></trkpt><trkpt lat="39.4330066" lon="16.950659"><ele>64.0</ele><time>2026-03-29T12:07:16.926Z</time></trkpt><trkpt lat="39.4330666" lon="16.9507699"><ele>64.0</ele><time>2026-03-29T12:07:17.932Z</time></trkpt><trkpt lat="39.4331246" lon="16.9508835"><ele>63.800000000000004</ele><time>2026-03-29T12:07:18.938Z</time></trkpt><trkpt lat="39.4331819" lon="16.9509983"><ele>63.60000000000001</ele><time>2026-03-29T12:07:19.933Z</time></trkpt><trkpt lat="39.4332388" lon="16.9511147"><ele>63.4</ele><time>2026-03-29T12:07:20.921Z</time></trkpt><trkpt lat="39.433294" lon="16.9512352"><ele>63.2</ele><time>2026-03-29T12:07:21.962Z</time></trkpt><trkpt lat="39.433352" lon="16.9513486"><ele>63.0</ele><time>2026-03-29T12:07:22.937Z</time></trkpt><trkpt lat="39.4334121" lon="16.9514588"><ele>63.0</ele><time>2026-03-29T12:07:23.926Z</time></trkpt><trkpt lat="39.4334715" lon="16.9515682"><ele>63.0</ele><time>2026-03-29T12:07:24.931Z</time></trkpt><trkpt lat="39.4335297" lon="16.9516793"><ele>63.0</ele><time>2026-03-29T12:07:25.94Z</time></trkpt><trkpt lat="39.4335872" lon="16.9517875"><ele>63.0</ele><time>2026-03-29T12:07:26.923Z</time></trkpt><trkpt lat="39.4336471" lon="16.9518969"><ele>63.0</ele><time>2026-03-29T12:07:27.938Z</time></trkpt><trkpt lat="39.4337046" lon="16.952001"><ele>63.0</ele><time>2026-03-29T12:07:28.932Z</time></trkpt><trkpt lat="39.4337586" lon="16.9521031"><ele>63.0</ele><time>2026-03-29T12:07:29.926Z</time></trkpt><trkpt lat="39.4338094" lon="16.9522036"><ele>63.0</ele><time>2026-03-29T12:07:30.934Z</time></trkpt><trkpt lat="39.433853" lon="16.9523093"><ele>63.0</ele><time>2026-03-29T12:07:31.93Z</time></trkpt><trkpt lat="39.4338954" lon="16.9524215"><ele>63.0</ele><time>2026-03-29T12:07:32.941Z</time></trkpt><trkpt lat="39.4339342" lon="16.9525456"><ele>62.8</ele><time>2026-03-29T12:07:33.936Z</time></trkpt><trkpt lat="39.4339727" lon="16.9526805"><ele>62.599999999999994</ele><time>2026-03-29T12:07:34.926Z</time></trkpt><trkpt lat="39.4340077" lon="16.9528146"><ele>62.400000000000006</ele><time>2026-03-29T12:07:35.914Z</time></trkpt><trkpt lat="39.4340371" lon="16.9529505"><ele>62.2</ele><time>2026-03-29T12:07:36.937Z</time></trkpt><trkpt lat="39.4340579" lon="16.9530841"><ele>62.0</ele><time>2026-03-29T12:07:37.931Z</time></trkpt><trkpt lat="39.4340735" lon="16.9532198"><ele>62.0</ele><time>2026-03-29T12:07:38.929Z</time></trkpt><trkpt lat="39.4340816" lon="16.9533542"><ele>62.0</ele><time>2026-03-29T12:07:39.923Z</time></trkpt><trkpt lat="39.4340846" lon="16.9534898"><ele>62.0</ele><time>2026-03-29T12:07:40.921Z</time></trkpt><trkpt lat="39.434084" lon="16.9536257"><ele>62.0</ele><time>2026-03-29T12:07:41.922Z</time></trkpt><trkpt lat="39.4340838" lon="16.9537606"><ele>62.0</ele><time>2026-03-29T12:07:42.921Z</time></trkpt><trkpt lat="39.4340863" lon="16.953897"><ele>61.6</ele><time>2026-03-29T12:07:43.924Z</time></trkpt><trkpt lat="39.4340911" lon="16.9540352"><ele>61.2</ele><time>2026-03-29T12:07:44.928Z</time></trkpt><trkpt lat="39.4341009" lon="16.9541729"><ele>60.8</ele><time>2026-03-29T12:07:45.922Z</time></trkpt><trkpt lat="39.4341188" lon="16.9543151"><ele>60.4</ele><time>2026-03-29T12:07:46.935Z</time></trkpt><trkpt lat="39.4341457" lon="16.954461"><ele>60.0</ele><time>2026-03-29T12:07:47.915Z</time></trkpt><trkpt lat="39.434178" lon="16.9546147"><ele>59.75</ele><time>2026-03-29T12:07:48.928Z</time></trkpt><trkpt lat="39.434212" lon="16.9547707"><ele>59.5</ele><time>2026-03-29T12:07:49.926Z</time></trkpt><trkpt lat="39.4342466" lon="16.9549284"><ele>59.25</ele><time>2026-03-29T12:07:50.927Z</time></trkpt><trkpt lat="39.4342806" lon="16.9550882"><ele>59.0</ele><time>2026-03-29T12:07:51.947Z</time></trkpt><trkpt lat="39.4343122" lon="16.9552447"><ele>59.0</ele><time>2026-03-29T12:07:52.929Z</time></trkpt><trkpt lat="39.434343" lon="16.9554023"><ele>59.0</ele><time>2026-03-29T12:07:53.929Z</time></trkpt><trkpt lat="39.4343724" lon="16.9555555"><ele>59.0</ele><time>2026-03-29T12:07:54.926Z</time></trkpt><trkpt lat="39.4343994" lon="16.9557023"><ele>59.0</ele><time>2026-03-29T12:07:55.923Z</time></trkpt><trkpt lat="39.434425" lon="16.9558447"><ele>59.0</ele><time>2026-03-29T12:07:56.966Z</time></trkpt><trkpt lat="39.4344484" lon="16.955978"><ele>59.00000000000001</ele><time>2026-03-29T12:07:57.942Z</time></trkpt><trkpt lat="39.4344717" lon="16.9561079"><ele>59.00000000000001</ele><time>2026-03-29T12:07:58.931Z</time></trkpt><trkpt lat="39.4345002" lon="16.9562332"><ele>59.0</ele><time>2026-03-29T12:07:59.933Z</time></trkpt><trkpt lat="39.434533" lon="16.9563566"><ele>59.0</ele><time>2026-03-29T12:08:00.935Z</time></trkpt><trkpt lat="39.4345615" lon="16.9564838"><ele>59.0</ele><time>2026-03-29T12:08:01.926Z</time></trkpt><trkpt lat="39.4345861" lon="16.9566133"><ele>59.00000000000001</ele><time>2026-03-29T12:08:02.933Z</time></trkpt><trkpt lat="39.4346109" lon="16.9567446"><ele>59.00000000000001</ele><time>2026-03-29T12:08:03.923Z</time></trkpt><trkpt lat="39.434638" lon="16.9568782"><ele>59.0</ele><time>2026-03-29T12:08:04.928Z</time></trkpt><trkpt lat="39.434666" lon="16.9570134"><ele>59.0</ele><time>2026-03-29T12:08:05.926Z</time></trkpt><trkpt lat="39.4346956" lon="16.9571517"><ele>59.0</ele><time>2026-03-29T12:08:06.927Z</time></trkpt><trkpt lat="39.4347269" lon="16.957291"><ele>59.0</ele><time>2026-03-29T12:08:07.929Z</time></trkpt><trkpt lat="39.4347599" lon="16.9574298"><ele>59.0</ele><time>2026-03-29T12:08:08.923Z</time></trkpt><trkpt lat="39.4347937" lon="16.9575692"><ele>59.0</ele><time>2026-03-29T12:08:09.927Z</time></trkpt><trkpt lat="39.4348327" lon="16.9577109"><ele>59.0</ele><time>2026-03-29T12:08:10.922Z</time></trkpt><trkpt lat="39.4348726" lon="16.9578579"><ele>59.0</ele><time>2026-03-29T12:08:11.933Z</time></trkpt><trkpt lat="39.4349125" lon="16.9580055"><ele>59.0</ele><time>2026-03-29T12:08:12.932Z</time></trkpt><trkpt lat="39.4349538" lon="16.9581513"><ele>59.0</ele><time>2026-03-29T12:08:13.928Z</time></trkpt><trkpt lat="39.4349977" lon="16.9582942"><ele>60.5</ele><time>2026-03-29T12:08:14.932Z</time></trkpt><trkpt lat="39.43504" lon="16.9584359"><ele>62.0</ele><time>2026-03-29T12:08:15.931Z</time></trkpt><trkpt lat="39.4350799" lon="16.9585864"><ele>63.5</ele><time>2026-03-29T12:08:16.931Z</time></trkpt><trkpt lat="39.4351215" lon="16.9587475"><ele>65.0</ele><time>2026-03-29T12:08:17.931Z</time></trkpt><trkpt lat="39.4351664" lon="16.9589116"><ele>65.0</ele><time>2026-03-29T12:08:18.941Z</time></trkpt><trkpt lat="39.4352061" lon="16.9590714"><ele>65.0</ele><time>2026-03-29T12:08:19.926Z</time></trkpt><trkpt lat="39.4352409" lon="16.9592285"><ele>65.0</ele><time>2026-03-29T12:08:20.939Z</time></trkpt><trkpt lat="39.4352661" lon="16.9593841"><ele>65.0</ele><time>2026-03-29T12:08:21.928Z</time></trkpt><trkpt lat="39.43528" lon="16.9595422"><ele>65.0</ele><time>2026-03-29T12:08:22.935Z</time></trkpt><trkpt lat="39.4352828" lon="16.9597022"><ele>65.0</ele><time>2026-03-29T12:08:23.935Z</time></trkpt><trkpt lat="39.4352752" lon="16.959867"><ele>65.0</ele><time>2026-03-29T12:08:24.929Z</time></trkpt><trkpt lat="39.4352634" lon="16.9600346"><ele>65.0</ele><time>2026-03-29T12:08:25.936Z</time></trkpt><trkpt lat="39.4352528" lon="16.9602025"><ele>64.25</ele><time>2026-03-29T12:08:26.94Z</time></trkpt><trkpt lat="39.435243" lon="16.9603708"><ele>63.5</ele><time>2026-03-29T12:08:27.931Z</time></trkpt><trkpt lat="39.4352336" lon="16.9605399"><ele>62.75</ele><time>2026-03-29T12:08:28.92Z</time></trkpt><trkpt lat="39.4352296" lon="16.9607177"><ele>62.0</ele><time>2026-03-29T12:08:29.925Z</time></trkpt><trkpt lat="39.435237" lon="16.960913"><ele>64.66666666666667</ele><time>2026-03-29T12:08:30.926Z</time></trkpt><trkpt lat="39.4352578" lon="16.9611302"><ele>67.33333333333333</ele><time>2026-03-29T12:08:31.938Z</time></trkpt><trkpt lat="39.4352911" lon="16.9613596"><ele>70.0</ele><time>2026-03-29T12:08:32.93Z</time></trkpt><trkpt lat="39.43533" lon="16.9615961"><ele>75.33333333333333</ele><time>2026-03-29T12:08:33.924Z</time></trkpt><trkpt lat="39.4353702" lon="16.961836"><ele>80.66666666666667</ele><time>2026-03-29T12:08:34.939Z</time></trkpt><trkpt lat="39.4354105" lon="16.9620739"><ele>86.0</ele><time>2026-03-29T12:08:35.935Z</time></trkpt><trkpt lat="39.4354517" lon="16.9623097"><ele>76.33333333333334</ele><time>2026-03-29T12:08:36.922Z</time></trkpt><trkpt lat="39.4354919" lon="16.9625378"><ele>66.66666666666667</ele><time>2026-03-29T12:08:37.934Z</time></trkpt><trkpt lat="39.4355334" lon="16.9627472"><ele>57.0</ele><time>2026-03-29T12:08:38.926Z</time></trkpt><trkpt lat="39.43559" lon="16.9629397"><ele>57.0</ele><time>2026-03-29T12:08:39.943Z</time></trkpt><trkpt lat="39.4356656" lon="16.9631101"><ele>57.0</ele><time>2026-03-29T12:08:40.932Z</time></trkpt><trkpt lat="39.435759" lon="16.9632661"><ele>57.0</ele><time>2026-03-29T12:08:41.932Z</time></trkpt><trkpt lat="39.4358494" lon="16.9634154"><ele>62.66666666666667</ele><time>2026-03-29T12:08:42.932Z</time></trkpt><trkpt lat="39.4359406" lon="16.9635732"><ele>68.33333333333334</ele><time>2026-03-29T12:08:43.928Z</time></trkpt><trkpt lat="39.436037" lon="16.963737"><ele>74.0</ele><time>2026-03-29T12:08:44.926Z</time></trkpt><trkpt lat="39.4361404" lon="16.9639064"><ele>74.0</ele><time>2026-03-29T12:08:45.927Z</time></trkpt><trkpt lat="39.4362518" lon="16.9640667"><ele>74.0</ele><time>2026-03-29T12:08:46.944Z</time></trkpt><trkpt lat="39.4363725" lon="16.9642116"><ele>74.0</ele><time>2026-03-29T12:08:47.926Z</time></trkpt><trkpt lat="39.4365169" lon="16.9643372"><ele>70.33333333333334</ele><time>2026-03-29T12:08:48.931Z</time></trkpt><trkpt lat="39.4366675" lon="16.9644545"><ele>66.66666666666667</ele><time>2026-03-29T12:08:49.929Z</time></trkpt><trkpt lat="39.4368168" lon="16.9645659"><ele>63.0</ele><time>2026-03-29T12:08:50.926Z</time></trkpt><trkpt lat="39.4369636" lon="16.9646722"><ele>63.0</ele><time>2026-03-29T12:08:51.933Z</time></trkpt><trkpt lat="39.4371026" lon="16.9647804"><ele>63.0</ele><time>2026-03-29T12:08:52.942Z</time></trkpt><trkpt lat="39.4372317" lon="16.9648959"><ele>63.0</ele><time>2026-03-29T12:08:53.932Z</time></trkpt><trkpt lat="39.4373533" lon="16.9650281"><ele>63.66666666666667</ele><time>2026-03-29T12:08:54.92Z</time></trkpt><trkpt lat="39.4374743" lon="16.9651716"><ele>64.33333333333334</ele><time>2026-03-29T12:08:55.919Z</time></trkpt><trkpt lat="39.4376017" lon="16.9653218"><ele>65.0</ele><time>2026-03-29T12:08:56.935Z</time></trkpt><trkpt lat="39.4377354" lon="16.9654804"><ele>65.0</ele><time>2026-03-29T12:08:57.921Z</time></trkpt><trkpt lat="39.4378752" lon="16.9656487"><ele>65.0</ele><time>2026-03-29T12:08:58.925Z</time></trkpt><trkpt lat="39.4380268" lon="16.9658351"><ele>65.0</ele><time>2026-03-29T12:08:59.931Z</time></trkpt><trkpt lat="39.4381783" lon="16.9660289"><ele>66.0</ele><time>2026-03-29T12:09:00.933Z</time></trkpt><trkpt lat="39.4383192" lon="16.9662105"><ele>67.0</ele><time>2026-03-29T12:09:01.928Z</time></trkpt><trkpt lat="39.4384533" lon="16.9663713"><ele>68.0</ele><time>2026-03-29T12:09:02.926Z</time></trkpt><trkpt lat="39.4385871" lon="16.9665088"><ele>68.0</ele><time>2026-03-29T12:09:03.925Z</time></trkpt><trkpt lat="39.4387272" lon="16.9666184"><ele>68.0</ele><time>2026-03-29T12:09:04.931Z</time></trkpt><trkpt lat="39.4388819" lon="16.9667048"><ele>68.0</ele><time>2026-03-29T12:09:05.925Z</time></trkpt><trkpt lat="39.4390412" lon="16.9667669"><ele>69.0</ele><time>2026-03-29T12:09:06.927Z</time></trkpt><trkpt lat="39.4391912" lon="16.9668121"><ele>70.0</ele><time>2026-03-29T12:09:07.917Z</time></trkpt><trkpt lat="39.4393253" lon="16.9668549"><ele>71.0</ele><time>2026-03-29T12:09:08.934Z</time></trkpt><trkpt lat="39.4394453" lon="16.9668933"><ele>72.0</ele><time>2026-03-29T12:09:09.942Z</time></trkpt><trkpt lat="39.4395551" lon="16.9669189"><ele>68.25</ele><time>2026-03-29T12:09:10.926Z</time></trkpt><trkpt lat="39.4396701" lon="16.9669465"><ele>64.5</ele><time>2026-03-29T12:09:11.932Z</time></trkpt><trkpt lat="39.439786" lon="16.9669821"><ele>60.75</ele><time>2026-03-29T12:09:12.924Z</time></trkpt><trkpt lat="39.4398975" lon="16.9670139"><ele>57.0</ele><time>2026-03-29T12:09:13.937Z</time></trkpt><trkpt lat="39.440009" lon="16.9670404"><ele>57.0</ele><time>2026-03-29T12:09:14.933Z</time></trkpt><trkpt lat="39.4401164" lon="16.9670931"><ele>57.0</ele><time>2026-03-29T12:09:15.931Z</time></trkpt><trkpt lat="39.4402201" lon="16.9671717"><ele>57.0</ele><time>2026-03-29T12:09:16.931Z</time></trkpt><trkpt lat="39.4403247" lon="16.9672643"><ele>57.0</ele><time>2026-03-29T12:09:17.926Z</time></trkpt><trkpt lat="39.4404277" lon="16.9673807"><ele>55.75</ele><time>2026-03-29T12:09:18.929Z</time></trkpt><trkpt lat="39.4405318" lon="16.9675101"><ele>54.5</ele><time>2026-03-29T12:09:19.926Z</time></trkpt><trkpt lat="39.4406381" lon="16.9676444"><ele>53.25</ele><time>2026-03-29T12:09:20.928Z</time></trkpt><trkpt lat="39.4407489" lon="16.9677815"><ele>52.0</ele><time>2026-03-29T12:09:21.923Z</time></trkpt><trkpt lat="39.4408617" lon="16.9679201"><ele>55.666666666666664</ele><time>2026-03-29T12:09:22.925Z</time></trkpt><trkpt lat="39.440975" lon="16.9680574"><ele>59.33333333333333</ele><time>2026-03-29T12:09:23.929Z</time></trkpt><trkpt lat="39.4410893" lon="16.968195"><ele>63.0</ele><time>2026-03-29T12:09:24.948Z</time></trkpt><trkpt lat="39.441198" lon="16.9683381"><ele>61.25</ele><time>2026-03-29T12:09:25.93Z</time></trkpt><trkpt lat="39.4413002" lon="16.9684824"><ele>59.5</ele><time>2026-03-29T12:09:26.951Z</time></trkpt><trkpt lat="39.4413901" lon="16.9686168"><ele>57.75</ele><time>2026-03-29T12:09:27.938Z</time></trkpt><trkpt lat="39.4414662" lon="16.9687489"><ele>56.0</ele><time>2026-03-29T12:09:28.938Z</time></trkpt><trkpt lat="39.4415309" lon="16.9688818"><ele>56.0</ele><time>2026-03-29T12:09:29.932Z</time></trkpt><trkpt lat="39.4415837" lon="16.9690189"><ele>56.0</ele><time>2026-03-29T12:09:30.929Z</time></trkpt><trkpt lat="39.4416268" lon="16.9691652"><ele>56.0</ele><time>2026-03-29T12:09:31.922Z</time></trkpt><trkpt lat="39.4416694" lon="16.9693185"><ele>56.0</ele><time>2026-03-29T12:09:32.928Z</time></trkpt><trkpt lat="39.4417111" lon="16.9694817"><ele>58.5</ele><time>2026-03-29T12:09:33.928Z</time></trkpt><trkpt lat="39.4417533" lon="16.9696566"><ele>61.0</ele><time>2026-03-29T12:09:34.924Z</time></trkpt><trkpt lat="39.4418036" lon="16.9698323"><ele>63.5</ele><time>2026-03-29T12:09:35.934Z</time></trkpt><trkpt lat="39.4418647" lon="16.9699955"><ele>66.0</ele><time>2026-03-29T12:09:36.924Z</time></trkpt><trkpt lat="39.4419318" lon="16.9701451"><ele>67.75</ele><time>2026-03-29T12:09:37.923Z</time></trkpt><trkpt lat="39.4419988" lon="16.9702806"><ele>69.5</ele><time>2026-03-29T12:09:38.925Z</time></trkpt><trkpt lat="39.4420785" lon="16.9703863"><ele>71.25</ele><time>2026-03-29T12:09:39.935Z</time></trkpt><trkpt lat="39.4421656" lon="16.9704821"><ele>73.0</ele><time>2026-03-29T12:09:40.932Z</time></trkpt><trkpt lat="39.4422514" lon="16.9705701"><ele>71.0</ele><time>2026-03-29T12:09:41.922Z</time></trkpt><trkpt lat="39.4423253" lon="16.9706544"><ele>69.0</ele><time>2026-03-29T12:09:42.927Z</time></trkpt><trkpt lat="39.4423938" lon="16.9707309"><ele>67.0</ele><time>2026-03-29T12:09:43.92Z</time></trkpt><trkpt lat="39.4424594" lon="16.9707942"><ele>65.0</ele><time>2026-03-29T12:09:44.928Z</time></trkpt><trkpt lat="39.4425159" lon="16.9708541"><ele>62.99999999999999</ele><time>2026-03-29T12:09:45.943Z</time></trkpt><trkpt lat="39.4425619" lon="16.970921"><ele>61.0</ele><time>2026-03-29T12:09:46.946Z</time></trkpt><trkpt lat="39.4426134" lon="16.9709941"><ele>61.0</ele><time>2026-03-29T12:09:47.929Z</time></trkpt><trkpt lat="39.4426693" lon="16.9710678"><ele>60.99999999999999</ele><time>2026-03-29T12:09:48.936Z</time></trkpt><trkpt lat="39.4427352" lon="16.9711446"><ele>60.99999999999999</ele><time>2026-03-29T12:09:49.934Z</time></trkpt><trkpt lat="39.4428134" lon="16.9712149"><ele>61.0</ele><time>2026-03-29T12:09:50.945Z</time></trkpt><trkpt lat="39.442893" lon="16.9712879"><ele>61.0</ele><time>2026-03-29T12:09:51.931Z</time></trkpt><trkpt lat="39.4429647" lon="16.9713707"><ele>61.8</ele><time>2026-03-29T12:09:52.93Z</time></trkpt><trkpt lat="39.4430213" lon="16.9714642"><ele>62.599999999999994</ele><time>2026-03-29T12:09:53.924Z</time></trkpt><trkpt lat="39.4430761" lon="16.9715664"><ele>63.4</ele><time>2026-03-29T12:09:54.933Z</time></trkpt><trkpt lat="39.4431441" lon="16.9716616"><ele>64.2</ele><time>2026-03-29T12:09:55.929Z</time></trkpt><trkpt lat="39.4432183" lon="16.9717517"><ele>65.0</ele><time>2026-03-29T12:09:56.933Z</time></trkpt><trkpt lat="39.4432873" lon="16.9718385"><ele>65.0</ele><time>2026-03-29T12:09:57.928Z</time></trkpt><trkpt lat="39.4433501" lon="16.9719205"><ele>65.0</ele><time>2026-03-29T12:09:58.937Z</time></trkpt><trkpt lat="39.443427" lon="16.9719817"><ele>65.0</ele><time>2026-03-29T12:09:59.926Z</time></trkpt><trkpt lat="39.4435147" lon="16.9720365"><ele>65.0</ele><time>2026-03-29T12:10:00.925Z</time></trkpt><trkpt lat="39.4436046" lon="16.9720986"><ele>65.0</ele><time>2026-03-29T12:10:01.932Z</time></trkpt><trkpt lat="39.4436967" lon="16.9721609"><ele>65.0</ele><time>2026-03-29T12:10:02.926Z</time></trkpt><trkpt lat="39.4437863" lon="16.9722193"><ele>65.0</ele><time>2026-03-29T12:10:03.935Z</time></trkpt><trkpt lat="39.4438634" lon="16.9722815"><ele>65.0</ele><time>2026-03-29T12:10:04.922Z</time></trkpt><trkpt lat="39.4439267" lon="16.9723538"><ele>65.0</ele><time>2026-03-29T12:10:05.922Z</time></trkpt><trkpt lat="39.4439854" lon="16.9724219"><ele>65.0</ele><time>2026-03-29T12:10:06.931Z</time></trkpt><trkpt lat="39.4440551" lon="16.9724798"><ele>65.0</ele><time>2026-03-29T12:10:07.925Z</time></trkpt><trkpt lat="39.4441313" lon="16.9725411"><ele>64.66666666666667</ele><time>2026-03-29T12:10:08.924Z</time></trkpt><trkpt lat="39.4442068" lon="16.9726021"><ele>64.33333333333334</ele><time>2026-03-29T12:10:09.933Z</time></trkpt><trkpt lat="39.444274" lon="16.9726631"><ele>64.0</ele><time>2026-03-29T12:10:10.924Z</time></trkpt><trkpt lat="39.4443348" lon="16.9727189"><ele>63.66666666666667</ele><time>2026-03-29T12:10:11.935Z</time></trkpt><trkpt lat="39.4443942" lon="16.9727598"><ele>63.333333333333336</ele><time>2026-03-29T12:10:12.936Z</time></trkpt><trkpt lat="39.4444596" lon="16.9727883"><ele>63.0</ele><time>2026-03-29T12:10:13.939Z</time></trkpt><trkpt lat="39.4445346" lon="16.9728146"><ele>63.0</ele><time>2026-03-29T12:10:14.931Z</time></trkpt><trkpt lat="39.4446197" lon="16.9728537"><ele>63.0</ele><time>2026-03-29T12:10:15.934Z</time></trkpt><trkpt lat="39.4447057" lon="16.9729092"><ele>63.0</ele><time>2026-03-29T12:10:16.934Z</time></trkpt><trkpt lat="39.4447922" lon="16.9729821"><ele>63.0</ele><time>2026-03-29T12:10:17.93Z</time></trkpt><trkpt lat="39.4448752" lon="16.9730704"><ele>63.0</ele><time>2026-03-29T12:10:18.937Z</time></trkpt><trkpt lat="39.4449581" lon="16.9731597"><ele>63.2</ele><time>2026-03-29T12:10:19.933Z</time></trkpt><trkpt lat="39.4450449" lon="16.9732366"><ele>63.4</ele><time>2026-03-29T12:10:20.928Z</time></trkpt><trkpt lat="39.4451345" lon="16.9733018"><ele>63.60000000000001</ele><time>2026-03-29T12:10:21.938Z</time></trkpt><trkpt lat="39.4452244" lon="16.9733611"><ele>63.800000000000004</ele><time>2026-03-29T12:10:22.922Z</time></trkpt><trkpt lat="39.4453058" lon="16.9734325"><ele>64.0</ele><time>2026-03-29T12:10:23.932Z</time></trkpt><trkpt lat="39.4453839" lon="16.9735076"><ele>61.0</ele><time>2026-03-29T12:10:24.942Z</time></trkpt><trkpt lat="39.4454669" lon="16.973582"><ele>58.00000000000001</ele><time>2026-03-29T12:10:25.927Z</time></trkpt><trkpt lat="39.4455525" lon="16.9736562"><ele>55.0</ele><time>2026-03-29T12:10:26.93Z</time></trkpt><trkpt lat="39.4456329" lon="16.9737482"><ele>52.0</ele><time>2026-03-29T12:10:27.925Z</time></trkpt><trkpt lat="39.4456997" lon="16.973854"><ele>49.0</ele><time>2026-03-29T12:10:28.936Z</time></trkpt><trkpt lat="39.4457481" lon="16.9739682"><ele>49.0</ele><time>2026-03-29T12:10:29.937Z</time></trkpt><trkpt lat="39.4457811" lon="16.974099"><ele>49.0</ele><time>2026-03-29T12:10:30.914Z</time></trkpt><trkpt lat="39.4458128" lon="16.9742433"><ele>49.0</ele><time>2026-03-29T12:10:31.946Z</time></trkpt><trkpt lat="39.445846" lon="16.97438"><ele>49.0</ele><time>2026-03-29T12:10:32.927Z</time></trkpt><trkpt lat="39.4458794" lon="16.9745179"><ele>49.0</ele><time>2026-03-29T12:10:33.928Z</time></trkpt><trkpt lat="39.4459107" lon="16.9746526"><ele>50.0</ele><time>2026-03-29T12:10:34.93Z</time></trkpt><trkpt lat="39.4459419" lon="16.9747818"><ele>51.0</ele><time>2026-03-29T12:10:35.933Z</time></trkpt><trkpt lat="39.4459702" lon="16.9749076"><ele>52.00000000000001</ele><time>2026-03-29T12:10:36.932Z</time></trkpt><trkpt lat="39.4459986" lon="16.9750304"><ele>53.0</ele><time>2026-03-29T12:10:37.929Z</time></trkpt><trkpt lat="39.446028" lon="16.9751525"><ele>54.0</ele><time>2026-03-29T12:10:38.93Z</time></trkpt><trkpt lat="39.4460577" lon="16.975274"><ele>55.2</ele><time>2026-03-29T12:10:39.936Z</time></trkpt><trkpt lat="39.4460848" lon="16.9754007"><ele>56.400000000000006</ele><time>2026-03-29T12:10:40.95Z</time></trkpt><trkpt lat="39.4461139" lon="16.9755316"><ele>57.6</ele><time>2026-03-29T12:10:41.924Z</time></trkpt><trkpt lat="39.4461461" lon="16.9756647"><ele>58.8</ele><time>2026-03-29T12:10:42.935Z</time></trkpt><trkpt lat="39.4461761" lon="16.9757951"><ele>60.0</ele><time>2026-03-29T12:10:43.932Z</time></trkpt><trkpt lat="39.4462027" lon="16.9759232"><ele>60.2</ele><time>2026-03-29T12:10:44.928Z</time></trkpt><trkpt lat="39.4462257" lon="16.9760489"><ele>60.4</ele><time>2026-03-29T12:10:45.93Z</time></trkpt><trkpt lat="39.4462402" lon="16.9761725"><ele>60.599999999999994</ele><time>2026-03-29T12:10:46.94Z</time></trkpt><trkpt lat="39.4462488" lon="16.9762953"><ele>60.8</ele><time>2026-03-29T12:10:47.938Z</time></trkpt><trkpt lat="39.4462337" lon="16.9764328"><ele>61.0</ele><time>2026-03-29T12:10:48.931Z</time></trkpt><trkpt lat="39.446215" lon="16.9765724"><ele>60.4</ele><time>2026-03-29T12:10:49.93Z</time></trkpt><trkpt lat="39.4462024" lon="16.9766991"><ele>59.8</ele><time>2026-03-29T12:10:50.925Z</time></trkpt><trkpt lat="39.4461956" lon="16.9768187"><ele>59.199999999999996</ele><time>2026-03-29T12:10:51.929Z</time></trkpt><trkpt lat="39.4461939" lon="16.9769376"><ele>58.599999999999994</ele><time>2026-03-29T12:10:52.918Z</time></trkpt><trkpt lat="39.4461945" lon="16.9770665"><ele>58.0</ele><time>2026-03-29T12:10:53.928Z</time></trkpt><trkpt lat="39.4461921" lon="16.9771993"><ele>58.0</ele><time>2026-03-29T12:10:54.913Z</time></trkpt><trkpt lat="39.446187" lon="16.9773334"><ele>58.0</ele><time>2026-03-29T12:10:55.923Z</time></trkpt><trkpt lat="39.4461826" lon="16.9774569"><ele>58.0</ele><time>2026-03-29T12:10:56.931Z</time></trkpt><trkpt lat="39.4461781" lon="16.9775691"><ele>58.0</ele><time>2026-03-29T12:10:57.927Z</time></trkpt><trkpt lat="39.4461686" lon="16.9776768"><ele>58.0</ele><time>2026-03-29T12:10:58.92Z</time></trkpt><trkpt lat="39.446152" lon="16.9777794"><ele>56.8</ele><time>2026-03-29T12:10:59.919Z</time></trkpt><trkpt lat="39.4461228" lon="16.9778762"><ele>55.599999999999994</ele><time>2026-03-29T12:11:00.932Z</time></trkpt><trkpt lat="39.446078" lon="16.9779686"><ele>54.400000000000006</ele><time>2026-03-29T12:11:01.929Z</time></trkpt><trkpt lat="39.446019" lon="16.9780578"><ele>53.2</ele><time>2026-03-29T12:11:02.93Z</time></trkpt><trkpt lat="39.4459462" lon="16.9781389"><ele>52.0</ele><time>2026-03-29T12:11:03.925Z</time></trkpt><trkpt lat="39.4458563" lon="16.9781994"><ele>52.0</ele><time>2026-03-29T12:11:04.929Z</time></trkpt><trkpt lat="39.4457574" lon="16.9782344"><ele>52.0</ele><time>2026-03-29T12:11:05.924Z</time></trkpt><trkpt lat="39.445648" lon="16.9782558"><ele>52.0</ele><time>2026-03-29T12:11:06.93Z</time></trkpt><trkpt lat="39.4455372" lon="16.9782735"><ele>52.0</ele><time>2026-03-29T12:11:07.935Z</time></trkpt><trkpt lat="39.4454269" lon="16.9782968"><ele>52.0</ele><time>2026-03-29T12:11:08.927Z</time></trkpt><trkpt lat="39.445318" lon="16.9783216"><ele>51.0</ele><time>2026-03-29T12:11:09.932Z</time></trkpt><trkpt lat="39.4452118" lon="16.9783411"><ele>50.0</ele><time>2026-03-29T12:11:10.929Z</time></trkpt><trkpt lat="39.4451069" lon="16.9783547"><ele>49.0</ele><time>2026-03-29T12:11:11.931Z</time></trkpt><trkpt lat="39.4450022" lon="16.9783685"><ele>48.0</ele><time>2026-03-29T12:11:12.931Z</time></trkpt><trkpt lat="39.4448938" lon="16.9783884"><ele>47.0</ele><time>2026-03-29T12:11:13.93Z</time></trkpt><trkpt lat="39.4447826" lon="16.9784168"><ele>47.0</ele><time>2026-03-29T12:11:14.945Z</time></trkpt><trkpt lat="39.4446709" lon="16.9784527"><ele>47.0</ele><time>2026-03-29T12:11:15.946Z</time></trkpt><trkpt lat="39.4445574" lon="16.9784958"><ele>47.0</ele><time>2026-03-29T12:11:16.925Z</time></trkpt><trkpt lat="39.444442" lon="16.9785459"><ele>47.0</ele><time>2026-03-29T12:11:17.938Z</time></trkpt><trkpt lat="39.444328" lon="16.9786001"><ele>48.75</ele><time>2026-03-29T12:11:18.929Z</time></trkpt><trkpt lat="39.4442129" lon="16.9786576"><ele>50.5</ele><time>2026-03-29T12:11:19.936Z</time></trkpt><trkpt lat="39.4440951" lon="16.9787099"><ele>52.25</ele><time>2026-03-29T12:11:20.946Z</time></trkpt><trkpt lat="39.4439737" lon="16.9787489"><ele>54.0</ele><time>2026-03-29T12:11:21.946Z</time></trkpt><trkpt lat="39.4438495" lon="16.9787755"><ele>54.25</ele><time>2026-03-29T12:11:22.935Z</time></trkpt><trkpt lat="39.4437251" lon="16.9787971"><ele>54.5</ele><time>2026-03-29T12:11:23.927Z</time></trkpt><trkpt lat="39.4435999" lon="16.9788166"><ele>54.75</ele><time>2026-03-29T12:11:24.931Z</time></trkpt><trkpt lat="39.4434755" lon="16.9788284"><ele>55.0</ele><time>2026-03-29T12:11:25.931Z</time></trkpt><trkpt lat="39.4433551" lon="16.978837"><ele>55.0</ele><time>2026-03-29T12:11:26.93Z</time></trkpt><trkpt lat="39.4432429" lon="16.9788447"><ele>55.0</ele><time>2026-03-29T12:11:27.932Z</time></trkpt><trkpt lat="39.4431481" lon="16.9788527"><ele>55.0</ele><time>2026-03-29T12:11:28.941Z</time></trkpt><trkpt lat="39.4430675" lon="16.978863"><ele>55.0</ele><time>2026-03-29T12:11:29.931Z</time></trkpt><trkpt lat="39.4429996" lon="16.978877"><ele>55.0</ele><time>2026-03-29T12:11:30.935Z</time></trkpt><trkpt lat="39.4429059" lon="16.9789032"><ele>55.4</ele><time>2026-03-29T12:11:32.951Z</time></trkpt><trkpt lat="39.4428267" lon="16.9789097"><ele>55.8</ele><time>2026-03-29T12:11:35.94Z</time></trkpt><trkpt lat="39.4427411" lon="16.9789051"><ele>56.2</ele><time>2026-03-29T12:11:39.942Z</time></trkpt><trkpt lat="39.44263" lon="16.9789008"><ele>56.6</ele><time>2026-03-29T12:11:41.943Z</time></trkpt><trkpt lat="39.4425054" lon="16.978888"><ele>57.0</ele><time>2026-03-29T12:11:43.924Z</time></trkpt><trkpt lat="39.4424423" lon="16.9788721"><ele>57.0</ele><time>2026-03-29T12:11:44.937Z</time></trkpt><trkpt lat="39.4423793" lon="16.9788526"><ele>56.99999999999999</ele><time>2026-03-29T12:11:45.927Z</time></trkpt><trkpt lat="39.4423146" lon="16.9788348"><ele>57.0</ele><time>2026-03-29T12:11:46.934Z</time></trkpt><trkpt lat="39.4422496" lon="16.9788193"><ele>57.0</ele><time>2026-03-29T12:11:47.935Z</time></trkpt><trkpt lat="39.4421837" lon="16.978808"><ele>56.99999999999999</ele><time>2026-03-29T12:11:48.93Z</time></trkpt><trkpt lat="39.4421174" lon="16.9788022"><ele>57.0</ele><time>2026-03-29T12:11:49.933Z</time></trkpt><trkpt lat="39.442051" lon="16.9788036"><ele>57.0</ele><time>2026-03-29T12:11:50.938Z</time></trkpt><trkpt lat="39.4419855" lon="16.9788115"><ele>56.833333333333336</ele><time>2026-03-29T12:11:51.937Z</time></trkpt><trkpt lat="39.4419232" lon="16.9788261"><ele>56.66666666666667</ele><time>2026-03-29T12:11:52.92Z</time></trkpt><trkpt lat="39.4418149" lon="16.9788762"><ele>56.5</ele><time>2026-03-29T12:11:54.942Z</time></trkpt><trkpt lat="39.4417018" lon="16.9789432"><ele>56.333333333333336</ele><time>2026-03-29T12:11:56.941Z</time></trkpt><trkpt lat="39.4416388" lon="16.9789769"><ele>56.16666666666667</ele><time>2026-03-29T12:11:57.933Z</time></trkpt><trkpt lat="39.4415748" lon="16.9790125"><ele>56.0</ele><time>2026-03-29T12:11:58.933Z</time></trkpt><trkpt lat="39.4415124" lon="16.979052"><ele>56.00000000000001</ele><time>2026-03-29T12:11:59.934Z</time></trkpt><trkpt lat="39.4414453" lon="16.9790947"><ele>56.0</ele><time>2026-03-29T12:12:00.915Z</time></trkpt><trkpt lat="39.4413655" lon="16.9791321"><ele>56.0</ele><time>2026-03-29T12:12:01.931Z</time></trkpt><trkpt lat="39.4412772" lon="16.9791504"><ele>56.0</ele><time>2026-03-29T12:12:02.937Z</time></trkpt><trkpt lat="39.4411863" lon="16.9791467"><ele>56.00000000000001</ele><time>2026-03-29T12:12:03.93Z</time></trkpt><trkpt lat="39.441097" lon="16.9791194"><ele>56.0</ele><time>2026-03-29T12:12:04.934Z</time></trkpt><trkpt lat="39.4410103" lon="16.9790717"><ele>56.66666666666667</ele><time>2026-03-29T12:12:05.932Z</time></trkpt><trkpt lat="39.4409269" lon="16.9790338"><ele>57.333333333333336</ele><time>2026-03-29T12:12:06.925Z</time></trkpt><trkpt lat="39.4408445" lon="16.9790023"><ele>58.0</ele><time>2026-03-29T12:12:07.927Z</time></trkpt><trkpt lat="39.440761" lon="16.9789668"><ele>58.66666666666667</ele><time>2026-03-29T12:12:08.926Z</time></trkpt><trkpt lat="39.4406763" lon="16.9789287"><ele>59.333333333333336</ele><time>2026-03-29T12:12:09.925Z</time></trkpt><trkpt lat="39.4405901" lon="16.9788911"><ele>60.0</ele><time>2026-03-29T12:12:10.928Z</time></trkpt><trkpt lat="39.4405017" lon="16.978855"><ele>59.8</ele><time>2026-03-29T12:12:11.938Z</time></trkpt><trkpt lat="39.4404109" lon="16.9788232"><ele>59.6</ele><time>2026-03-29T12:12:12.929Z</time></trkpt><trkpt lat="39.4403172" lon="16.9787978"><ele>59.400000000000006</ele><time>2026-03-29T12:12:13.928Z</time></trkpt><trkpt lat="39.4402223" lon="16.9787822"><ele>59.2</ele><time>2026-03-29T12:12:14.926Z</time></trkpt><trkpt lat="39.4401325" lon="16.9787803"><ele>59.0</ele><time>2026-03-29T12:12:15.924Z</time></trkpt><trkpt lat="39.4400532" lon="16.9787904"><ele>59.00000000000001</ele><time>2026-03-29T12:12:16.947Z</time></trkpt><trkpt lat="39.4399874" lon="16.9787982"><ele>59.0</ele><time>2026-03-29T12:12:17.927Z</time></trkpt><trkpt lat="39.4399001" lon="16.9788092"><ele>59.0</ele><time>2026-03-29T12:12:19.949Z</time></trkpt><trkpt lat="39.4398392" lon="16.9789115"><ele>59.0</ele><time>2026-03-29T12:14:54.947Z</time></trkpt><trkpt lat="39.4397818" lon="16.9789745"><ele>59.00000000000001</ele><time>2026-03-29T12:14:55.924Z</time></trkpt><trkpt lat="39.4396966" lon="16.9790436"><ele>59.0</ele><time>2026-03-29T12:14:56.927Z</time></trkpt><trkpt lat="39.4396065" lon="16.9791023"><ele>59.66666666666667</ele><time>2026-03-29T12:14:57.929Z</time></trkpt><trkpt lat="39.4395239" lon="16.9791487"><ele>60.333333333333336</ele><time>2026-03-29T12:14:58.939Z</time></trkpt><trkpt lat="39.4394464" lon="16.9791954"><ele>61.0</ele><time>2026-03-29T12:14:59.93Z</time></trkpt><trkpt lat="39.4393696" lon="16.9792489"><ele>61.66666666666667</ele><time>2026-03-29T12:15:00.925Z</time></trkpt><trkpt lat="39.4392933" lon="16.9793142"><ele>62.333333333333336</ele><time>2026-03-29T12:15:01.933Z</time></trkpt><trkpt lat="39.4392264" lon="16.9793881"><ele>63.0</ele><time>2026-03-29T12:15:02.932Z</time></trkpt><trkpt lat="39.4391722" lon="16.9794703"><ele>61.833333333333336</ele><time>2026-03-29T12:15:03.93Z</time></trkpt><trkpt lat="39.4391283" lon="16.9795628"><ele>60.66666666666667</ele><time>2026-03-29T12:15:04.927Z</time></trkpt><trkpt lat="39.4390861" lon="16.9796566"><ele>59.5</ele><time>2026-03-29T12:15:05.927Z</time></trkpt><trkpt lat="39.4390571" lon="16.9797603"><ele>58.333333333333336</ele><time>2026-03-29T12:15:06.925Z</time></trkpt><trkpt lat="39.4390357" lon="16.9798684"><ele>57.16666666666667</ele><time>2026-03-29T12:15:07.925Z</time></trkpt><trkpt lat="39.4390216" lon="16.9799815"><ele>56.0</ele><time>2026-03-29T12:15:08.934Z</time></trkpt><trkpt lat="39.4390102" lon="16.9800978"><ele>56.0</ele><time>2026-03-29T12:15:09.908Z</time></trkpt><trkpt lat="39.4390004" lon="16.9802185"><ele>55.99999999999999</ele><time>2026-03-29T12:15:10.926Z</time></trkpt><trkpt lat="39.4389934" lon="16.9803361"><ele>55.99999999999999</ele><time>2026-03-29T12:15:11.924Z</time></trkpt><trkpt lat="39.438984" lon="16.9804534"><ele>56.0</ele><time>2026-03-29T12:15:12.924Z</time></trkpt><trkpt lat="39.438967" lon="16.9805678"><ele>56.0</ele><time>2026-03-29T12:15:13.925Z</time></trkpt><trkpt lat="39.4389492" lon="16.980679"><ele>56.00000000000001</ele><time>2026-03-29T12:15:14.915Z</time></trkpt><trkpt lat="39.4389436" lon="16.9807833"><ele>56.0</ele><time>2026-03-29T12:15:15.928Z</time></trkpt><trkpt lat="39.4389611" lon="16.980883"><ele>56.0</ele><time>2026-03-29T12:15:16.917Z</time></trkpt><trkpt lat="39.4389901" lon="16.9809757"><ele>56.0</ele><time>2026-03-29T12:15:17.923Z</time></trkpt><trkpt lat="39.4390257" lon="16.9810671"><ele>56.00000000000001</ele><time>2026-03-29T12:15:18.925Z</time></trkpt><trkpt lat="39.4390658" lon="16.9811592"><ele>56.0</ele><time>2026-03-29T12:15:19.934Z</time></trkpt><trkpt lat="39.4391022" lon="16.9812539"><ele>56.333333333333336</ele><time>2026-03-29T12:15:20.93Z</time></trkpt><trkpt lat="39.4391311" lon="16.9813538"><ele>56.66666666666667</ele><time>2026-03-29T12:15:21.93Z</time></trkpt><trkpt lat="39.4391445" lon="16.9814568"><ele>57.0</ele><time>2026-03-29T12:15:22.93Z</time></trkpt><trkpt lat="39.4391387" lon="16.981554"><ele>57.33333333333333</ele><time>2026-03-29T12:15:23.925Z</time></trkpt><trkpt lat="39.4391195" lon="16.9816498"><ele>57.666666666666664</ele><time>2026-03-29T12:15:24.918Z</time></trkpt><trkpt lat="39.4390933" lon="16.9817483"><ele>58.0</ele><time>2026-03-29T12:15:25.93Z</time></trkpt><trkpt lat="39.4390671" lon="16.9818497"><ele>57.99999999999999</ele><time>2026-03-29T12:15:26.928Z</time></trkpt><trkpt lat="39.4390473" lon="16.9819564"><ele>58.0</ele><time>2026-03-29T12:15:27.928Z</time></trkpt><trkpt lat="39.4390395" lon="16.9820676"><ele>58.0</ele><time>2026-03-29T12:15:28.932Z</time></trkpt><trkpt lat="39.4390464" lon="16.9821816"><ele>58.0</ele><time>2026-03-29T12:15:29.93Z</time></trkpt><trkpt lat="39.4390717" lon="16.9822952"><ele>57.99999999999999</ele><time>2026-03-29T12:15:30.923Z</time></trkpt><trkpt lat="39.43911" lon="16.982406"><ele>58.0</ele><time>2026-03-29T12:15:31.933Z</time></trkpt><trkpt lat="39.43916" lon="16.982512"><ele>58.2</ele><time>2026-03-29T12:15:32.924Z</time></trkpt><trkpt lat="39.4392225" lon="16.9826117"><ele>58.4</ele><time>2026-03-29T12:15:33.925Z</time></trkpt><trkpt lat="39.4392954" lon="16.9827024"><ele>58.60000000000001</ele><time>2026-03-29T12:15:34.938Z</time></trkpt><trkpt lat="39.439377" lon="16.9827823"><ele>58.800000000000004</ele><time>2026-03-29T12:15:35.936Z</time></trkpt><trkpt lat="39.4394666" lon="16.9828518"><ele>59.0</ele><time>2026-03-29T12:15:36.942Z</time></trkpt><trkpt lat="39.4395603" lon="16.9829142"><ele>59.2</ele><time>2026-03-29T12:15:37.937Z</time></trkpt><trkpt lat="39.439655" lon="16.9829712"><ele>59.400000000000006</ele><time>2026-03-29T12:15:38.93Z</time></trkpt><trkpt lat="39.4397492" lon="16.9830254"><ele>59.6</ele><time>2026-03-29T12:15:39.93Z</time></trkpt><trkpt lat="39.4398419" lon="16.9830773"><ele>59.8</ele><time>2026-03-29T12:15:40.931Z</time></trkpt><trkpt lat="39.4399331" lon="16.9831258"><ele>60.0</ele><time>2026-03-29T12:15:41.923Z</time></trkpt><trkpt lat="39.4400247" lon="16.9831716"><ele>60.0</ele><time>2026-03-29T12:15:42.933Z</time></trkpt><trkpt lat="39.4401171" lon="16.9832138"><ele>60.0</ele><time>2026-03-29T12:15:43.949Z</time></trkpt><trkpt lat="39.44021" lon="16.983252"><ele>60.0</ele><time>2026-03-29T12:15:44.917Z</time></trkpt><trkpt lat="39.4403073" lon="16.9832884"><ele>60.0</ele><time>2026-03-29T12:15:45.926Z</time></trkpt><trkpt lat="39.4404064" lon="16.9833309"><ele>60.0</ele><time>2026-03-29T12:15:46.934Z</time></trkpt><trkpt lat="39.4405132" lon="16.9833928"><ele>63.66666666666667</ele><time>2026-03-29T12:15:47.922Z</time></trkpt><trkpt lat="39.4406442" lon="16.983471"><ele>67.33333333333334</ele><time>2026-03-29T12:15:48.931Z</time></trkpt><trkpt lat="39.4407946" lon="16.9835354"><ele>71.0</ele><time>2026-03-29T12:15:49.927Z</time></trkpt><trkpt lat="39.4409495" lon="16.9835701"><ele>71.0</ele><time>2026-03-29T12:15:50.928Z</time></trkpt><trkpt lat="39.4410963" lon="16.9835804"><ele>71.0</ele><time>2026-03-29T12:15:51.93Z</time></trkpt><trkpt lat="39.4412183" lon="16.9835806"><ele>71.0</ele><time>2026-03-29T12:15:52.93Z</time></trkpt><trkpt lat="39.4413064" lon="16.9835929"><ele>71.0</ele><time>2026-03-29T12:15:53.929Z</time></trkpt><trkpt lat="39.4413901" lon="16.9836664"><ele>70.5</ele><time>2026-03-29T12:15:55.922Z</time></trkpt><trkpt lat="39.4414144" lon="16.9837555"><ele>70.0</ele><time>2026-03-29T12:15:57.915Z</time></trkpt><trkpt lat="39.4414526" lon="16.9838486"><ele>69.5</ele><time>2026-03-29T12:15:59.926Z</time></trkpt><trkpt lat="39.4414975" lon="16.9839242"><ele>69.0</ele><time>2026-03-29T12:16:00.924Z</time></trkpt><trkpt lat="39.4415614" lon="16.9840296"><ele>68.5</ele><time>2026-03-29T12:16:01.934Z</time></trkpt><trkpt lat="39.4416324" lon="16.9841448"><ele>68.0</ele><time>2026-03-29T12:16:02.93Z</time></trkpt><trkpt lat="39.4417012" lon="16.9842534"><ele>69.83333333333334</ele><time>2026-03-29T12:16:03.932Z</time></trkpt><trkpt lat="39.441764" lon="16.9843457"><ele>71.66666666666667</ele><time>2026-03-29T12:16:04.929Z</time></trkpt><trkpt lat="39.4418274" lon="16.9844169"><ele>73.5</ele><time>2026-03-29T12:16:05.926Z</time></trkpt><trkpt lat="39.4418955" lon="16.9844609"><ele>75.33333333333333</ele><time>2026-03-29T12:16:06.94Z</time></trkpt><trkpt lat="39.4419736" lon="16.9844802"><ele>77.16666666666666</ele><time>2026-03-29T12:16:07.94Z</time></trkpt><trkpt lat="39.4420668" lon="16.9844875"><ele>79.0</ele><time>2026-03-29T12:16:08.926Z</time></trkpt><trkpt lat="39.4421717" lon="16.9844837"><ele>79.0</ele><time>2026-03-29T12:16:09.933Z</time></trkpt><trkpt lat="39.442272" lon="16.9844769"><ele>79.0</ele><time>2026-03-29T12:16:10.928Z</time></trkpt><trkpt lat="39.4423668" lon="16.984485"><ele>79.0</ele><time>2026-03-29T12:16:11.926Z</time></trkpt><trkpt lat="39.4424608" lon="16.9845169"><ele>79.0</ele><time>2026-03-29T12:16:12.926Z</time></trkpt><trkpt lat="39.4425601" lon="16.9845766"><ele>79.0</ele><time>2026-03-29T12:16:13.922Z</time></trkpt><trkpt lat="39.4426701" lon="16.9846575"><ele>79.0</ele><time>2026-03-29T12:16:14.924Z</time></trkpt><trkpt lat="39.4427853" lon="16.9847422"><ele>79.0</ele><time>2026-03-29T12:16:15.936Z</time></trkpt><trkpt lat="39.4429032" lon="16.9848152"><ele>79.0</ele><time>2026-03-29T12:16:16.937Z</time></trkpt><trkpt lat="39.4430205" lon="16.9848778"><ele>79.0</ele><time>2026-03-29T12:16:17.926Z</time></trkpt><trkpt lat="39.4431355" lon="16.9849374"><ele>78.8</ele><time>2026-03-29T12:16:18.937Z</time></trkpt><trkpt lat="39.4432428" lon="16.9849961"><ele>78.60000000000001</ele><time>2026-03-29T12:16:19.919Z</time></trkpt><trkpt lat="39.4433435" lon="16.9850573"><ele>78.4</ele><time>2026-03-29T12:16:20.929Z</time></trkpt><trkpt lat="39.4434305" lon="16.9851123"><ele>78.2</ele><time>2026-03-29T12:16:21.93Z</time></trkpt><trkpt lat="39.4435162" lon="16.9851482"><ele>78.0</ele><time>2026-03-29T12:16:22.931Z</time></trkpt><trkpt lat="39.443609" lon="16.9851653"><ele>79.75</ele><time>2026-03-29T12:16:23.932Z</time></trkpt><trkpt lat="39.4437131" lon="16.9851621"><ele>81.5</ele><time>2026-03-29T12:16:24.933Z</time></trkpt><trkpt lat="39.4438257" lon="16.9851591"><ele>83.25</ele><time>2026-03-29T12:16:25.924Z</time></trkpt><trkpt lat="39.4439442" lon="16.9851581"><ele>85.0</ele><time>2026-03-29T12:16:26.935Z</time></trkpt><trkpt lat="39.4440602" lon="16.9851569"><ele>85.0</ele><time>2026-03-29T12:16:27.933Z</time></trkpt><trkpt lat="39.4441667" lon="16.9851525"><ele>85.0</ele><time>2026-03-29T12:16:28.934Z</time></trkpt><trkpt lat="39.4442684" lon="16.985139"><ele>85.0</ele><time>2026-03-29T12:16:29.932Z</time></trkpt><trkpt lat="39.4443604" lon="16.9851242"><ele>85.0</ele><time>2026-03-29T12:16:30.922Z</time></trkpt><trkpt lat="39.4444467" lon="16.9851259"><ele>85.0</ele><time>2026-03-29T12:16:31.928Z</time></trkpt><trkpt lat="39.4445189" lon="16.9851593"><ele>85.0</ele><time>2026-03-29T12:16:32.934Z</time></trkpt><trkpt lat="39.4445717" lon="16.9852236"><ele>85.0</ele><time>2026-03-29T12:16:33.934Z</time></trkpt><trkpt lat="39.4446094" lon="16.9853136"><ele>85.0</ele><time>2026-03-29T12:16:34.932Z</time></trkpt><trkpt lat="39.4446429" lon="16.9854221"><ele>85.0</ele><time>2026-03-29T12:16:35.928Z</time></trkpt><trkpt lat="39.444679" lon="16.9855409"><ele>85.0</ele><time>2026-03-29T12:16:36.929Z</time></trkpt><trkpt lat="39.444722" lon="16.9856558"><ele>85.0</ele><time>2026-03-29T12:16:37.926Z</time></trkpt><trkpt lat="39.4447765" lon="16.9857469"><ele>85.0</ele><time>2026-03-29T12:16:38.94Z</time></trkpt><trkpt lat="39.4448456" lon="16.985804"><ele>85.0</ele><time>2026-03-29T12:16:39.939Z</time></trkpt><trkpt lat="39.444927" lon="16.9858359"><ele>85.0</ele><time>2026-03-29T12:16:40.926Z</time></trkpt><trkpt lat="39.4450193" lon="16.9858576"><ele>85.0</ele><time>2026-03-29T12:16:41.927Z</time></trkpt><trkpt lat="39.4451186" lon="16.985876"><ele>85.0</ele><time>2026-03-29T12:16:42.913Z</time></trkpt><trkpt lat="39.4452225" lon="16.9858844"><ele>86.2</ele><time>2026-03-29T12:16:43.933Z</time></trkpt><trkpt lat="39.4453271" lon="16.985892"><ele>87.4</ele><time>2026-03-29T12:16:44.933Z</time></trkpt><trkpt lat="39.4454297" lon="16.9859066"><ele>88.6</ele><time>2026-03-29T12:16:45.92Z</time></trkpt><trkpt lat="39.4455238" lon="16.9859405"><ele>89.8</ele><time>2026-03-29T12:16:46.932Z</time></trkpt><trkpt lat="39.4456012" lon="16.9860002"><ele>91.0</ele><time>2026-03-29T12:16:47.937Z</time></trkpt><trkpt lat="39.4456533" lon="16.986082"><ele>91.0</ele><time>2026-03-29T12:16:48.935Z</time></trkpt><trkpt lat="39.4456761" lon="16.986178"><ele>91.0</ele><time>2026-03-29T12:16:49.924Z</time></trkpt><trkpt lat="39.4456763" lon="16.9862848"><ele>91.0</ele><time>2026-03-29T12:16:50.948Z</time></trkpt><trkpt lat="39.4456453" lon="16.9864036"><ele>91.0</ele><time>2026-03-29T12:16:51.923Z</time></trkpt><trkpt lat="39.4456201" lon="16.986537"><ele>91.0</ele><time>2026-03-29T12:16:52.931Z</time></trkpt><trkpt lat="39.4456019" lon="16.9866795"><ele>93.19999999999999</ele><time>2026-03-29T12:16:53.925Z</time></trkpt><trkpt lat="39.4455925" lon="16.9868259"><ele>95.39999999999999</ele><time>2026-03-29T12:16:54.93Z</time></trkpt><trkpt lat="39.4455906" lon="16.9869651"><ele>97.6</ele><time>2026-03-29T12:16:55.935Z</time></trkpt><trkpt lat="39.4455958" lon="16.9870865"><ele>99.8</ele><time>2026-03-29T12:16:56.931Z</time></trkpt><trkpt lat="39.4456159" lon="16.9871886"><ele>102.0</ele><time>2026-03-29T12:16:57.931Z</time></trkpt><trkpt lat="39.4456555" lon="16.9872759"><ele>102.0</ele><time>2026-03-29T12:16:58.941Z</time></trkpt><trkpt lat="39.4457083" lon="16.9873648"><ele>102.0</ele><time>2026-03-29T12:16:59.938Z</time></trkpt><trkpt lat="39.4457566" lon="16.9874638"><ele>102.0</ele><time>2026-03-29T12:17:00.933Z</time></trkpt><trkpt lat="39.445798" lon="16.9875775"><ele>102.0</ele><time>2026-03-29T12:17:01.934Z</time></trkpt><trkpt lat="39.4458368" lon="16.987697"><ele>102.0</ele><time>2026-03-29T12:17:02.941Z</time></trkpt><trkpt lat="39.4458542" lon="16.987825"><ele>103.39999999999999</ele><time>2026-03-29T12:17:03.937Z</time></trkpt><trkpt lat="39.4458595" lon="16.9879583"><ele>104.8</ele><time>2026-03-29T12:17:04.928Z</time></trkpt><trkpt lat="39.4458613" lon="16.988095"><ele>106.2</ele><time>2026-03-29T12:17:05.926Z</time></trkpt><trkpt lat="39.4458678" lon="16.9882354"><ele>107.6</ele><time>2026-03-29T12:17:06.944Z</time></trkpt><trkpt lat="39.445885" lon="16.9883752"><ele>109.0</ele><time>2026-03-29T12:17:07.942Z</time></trkpt><trkpt lat="39.4459165" lon="16.9885087"><ele>110.16666666666667</ele><time>2026-03-29T12:17:08.928Z</time></trkpt><trkpt lat="39.445954" lon="16.9886362"><ele>111.33333333333334</ele><time>2026-03-29T12:17:09.934Z</time></trkpt><trkpt lat="39.4459911" lon="16.9887526"><ele>112.5</ele><time>2026-03-29T12:17:10.926Z</time></trkpt><trkpt lat="39.4460189" lon="16.9888532"><ele>113.66666666666666</ele><time>2026-03-29T12:17:11.929Z</time></trkpt><trkpt lat="39.446027" lon="16.988943"><ele>114.83333333333333</ele><time>2026-03-29T12:17:12.929Z</time></trkpt><trkpt lat="39.4460214" lon="16.9890277"><ele>116.0</ele><time>2026-03-29T12:17:13.944Z</time></trkpt><trkpt lat="39.4459757" lon="16.9890941"><ele>116.0</ele><time>2026-03-29T12:17:14.937Z</time></trkpt><trkpt lat="39.4458704" lon="16.9891461"><ele>116.0</ele><time>2026-03-29T12:17:16.956Z</time></trkpt><trkpt lat="39.4457594" lon="16.989174"><ele>116.0</ele><time>2026-03-29T12:17:18.927Z</time></trkpt><trkpt lat="39.4456508" lon="16.9892381"><ele>116.0</ele><time>2026-03-29T12:17:20.922Z</time></trkpt><trkpt lat="39.4455446" lon="16.9892914"><ele>115.6</ele><time>2026-03-29T12:17:22.941Z</time></trkpt><trkpt lat="39.4454638" lon="16.9893268"><ele>115.19999999999999</ele><time>2026-03-29T12:17:24.94Z</time></trkpt><trkpt lat="39.4453836" lon="16.9893599"><ele>114.80000000000001</ele><time>2026-03-29T12:17:27.929Z</time></trkpt><trkpt lat="39.445298" lon="16.9893988"><ele>114.4</ele><time>2026-03-29T12:17:29.919Z</time></trkpt><trkpt lat="39.4451941" lon="16.9894422"><ele>114.0</ele><time>2026-03-29T12:17:31.937Z</time></trkpt><trkpt lat="39.4450763" lon="16.9894815"><ele>117.0</ele><time>2026-03-29T12:17:33.924Z</time></trkpt><trkpt lat="39.4450137" lon="16.9894993"><ele>120.0</ele><time>2026-03-29T12:17:34.927Z</time></trkpt><trkpt lat="39.4449296" lon="16.98952"><ele>123.0</ele><time>2026-03-29T12:17:36.936Z</time></trkpt><trkpt lat="39.4448399" lon="16.9895352"><ele>126.0</ele><time>2026-03-29T12:17:39.928Z</time></trkpt><trkpt lat="39.4447556" lon="16.9895673"><ele>129.0</ele><time>2026-03-29T12:17:41.928Z</time></trkpt><trkpt lat="39.4446618" lon="16.9895823"><ele>132.0</ele><time>2026-03-29T12:17:43.945Z</time></trkpt><trkpt lat="39.4445569" lon="16.9896187"><ele>134.83333333333334</ele><time>2026-03-29T12:17:45.942Z</time></trkpt><trkpt lat="39.4444922" lon="16.9896394"><ele>137.66666666666666</ele><time>2026-03-29T12:17:46.929Z</time></trkpt><trkpt lat="39.4444246" lon="16.9896615"><ele>140.5</ele><time>2026-03-29T12:17:47.927Z</time></trkpt><trkpt lat="39.4443606" lon="16.989687"><ele>143.33333333333331</ele><time>2026-03-29T12:17:48.932Z</time></trkpt><trkpt lat="39.444261" lon="16.9897312"><ele>146.16666666666666</ele><time>2026-03-29T12:17:50.929Z</time></trkpt><trkpt lat="39.4441836" lon="16.9897624"><ele>149.0</ele><time>2026-03-29T12:17:52.917Z</time></trkpt><trkpt lat="39.4440917" lon="16.9897707"><ele>149.0</ele><time>2026-03-29T12:17:54.934Z</time></trkpt><trkpt lat="39.4439835" lon="16.989744"><ele>149.0</ele><time>2026-03-29T12:17:56.936Z</time></trkpt><trkpt lat="39.4438693" lon="16.989687"><ele>149.0</ele><time>2026-03-29T12:17:58.938Z</time></trkpt><trkpt lat="39.4437598" lon="16.9896294"><ele>149.0</ele><time>2026-03-29T12:18:00.934Z</time></trkpt><trkpt lat="39.4436597" lon="16.9895714"><ele>154.0</ele><time>2026-03-29T12:18:02.934Z</time></trkpt><trkpt lat="39.4435668" lon="16.9895214"><ele>159.0</ele><time>2026-03-29T12:18:04.934Z</time></trkpt><trkpt lat="39.4434733" lon="16.9894802"><ele>164.0</ele><time>2026-03-29T12:18:06.931Z</time></trkpt><trkpt lat="39.4433803" lon="16.9894585"><ele>169.0</ele><time>2026-03-29T12:18:08.943Z</time></trkpt><trkpt lat="39.4432963" lon="16.9894528"><ele>174.0</ele><time>2026-03-29T12:18:10.925Z</time></trkpt><trkpt lat="39.4432159" lon="16.9894328"><ele>174.0</ele><time>2026-03-29T12:18:12.928Z</time></trkpt><trkpt lat="39.4431492" lon="16.9893893"><ele>174.0</ele><time>2026-03-29T12:18:14.92Z</time></trkpt><trkpt lat="39.4430854" lon="16.9893521"><ele>174.0</ele><time>2026-03-29T12:18:16.918Z</time></trkpt><trkpt lat="39.442995" lon="16.9893284"><ele>174.0</ele><time>2026-03-29T12:18:18.932Z</time></trkpt><trkpt lat="39.4429046" lon="16.9893085"><ele>174.0</ele><time>2026-03-29T12:18:20.929Z</time></trkpt><trkpt lat="39.4428084" lon="16.9893004"><ele>174.0</ele><time>2026-03-29T12:18:22.924Z</time></trkpt><trkpt lat="39.4427185" lon="16.9892667"><ele>173.39999999999998</ele><time>2026-03-29T12:18:24.948Z</time></trkpt><trkpt lat="39.4426303" lon="16.9892462"><ele>172.8</ele><time>2026-03-29T12:18:26.926Z</time></trkpt><trkpt lat="39.4425422" lon="16.9892126"><ele>172.2</ele><time>2026-03-29T12:18:28.925Z</time></trkpt><trkpt lat="39.4424758" lon="16.9891146"><ele>171.60000000000002</ele><time>2026-03-29T12:18:30.936Z</time></trkpt><trkpt lat="39.4424112" lon="16.989016"><ele>171.0</ele><time>2026-03-29T12:18:32.929Z</time></trkpt><trkpt lat="39.4423402" lon="16.9889411"><ele>171.0</ele><time>2026-03-29T12:18:34.937Z</time></trkpt><trkpt lat="39.4422581" lon="16.9888862"><ele>171.0</ele><time>2026-03-29T12:18:36.933Z</time></trkpt><trkpt lat="39.4421734" lon="16.9888475"><ele>171.0</ele><time>2026-03-29T12:18:38.929Z</time></trkpt><trkpt lat="39.4421086" lon="16.9888225"><ele>171.0</ele><time>2026-03-29T12:18:40.933Z</time></trkpt><trkpt lat="39.4420242" lon="16.9887893"><ele>171.0</ele><time>2026-03-29T12:18:43.922Z</time></trkpt><trkpt lat="39.4419553" lon="16.9887504"><ele>171.0</ele><time>2026-03-29T12:18:45.937Z</time></trkpt><trkpt lat="39.4418811" lon="16.988692"><ele>174.16666666666666</ele><time>2026-03-29T12:18:47.93Z</time></trkpt><trkpt lat="39.4417967" lon="16.9886364"><ele>177.33333333333334</ele><time>2026-03-29T12:18:49.945Z</time></trkpt><trkpt lat="39.4417204" lon="16.9885957"><ele>180.5</ele><time>2026-03-29T12:18:51.933Z</time></trkpt><trkpt lat="39.4416518" lon="16.9885615"><ele>183.66666666666669</ele><time>2026-03-29T12:18:53.934Z</time></trkpt><trkpt lat="39.4415693" lon="16.9885416"><ele>186.83333333333334</ele><time>2026-03-29T12:18:55.923Z</time></trkpt><trkpt lat="39.4414739" lon="16.9885336"><ele>190.0</ele><time>2026-03-29T12:18:57.933Z</time></trkpt><trkpt lat="39.4413728" lon="16.9885475"><ele>190.6</ele><time>2026-03-29T12:18:59.933Z</time></trkpt><trkpt lat="39.441257" lon="16.9885551"><ele>191.2</ele><time>2026-03-29T12:19:01.923Z</time></trkpt><trkpt lat="39.4411505" lon="16.9885226"><ele>191.8</ele><time>2026-03-29T12:19:03.926Z</time></trkpt><trkpt lat="39.4410469" lon="16.9884772"><ele>192.4</ele><time>2026-03-29T12:19:05.92Z</time></trkpt><trkpt lat="39.4409359" lon="16.9884422"><ele>193.0</ele><time>2026-03-29T12:19:07.93Z</time></trkpt><trkpt lat="39.4408157" lon="16.9884297"><ele>192.99999999999997</ele><time>2026-03-29T12:19:09.933Z</time></trkpt><trkpt lat="39.4407488" lon="16.9884324"><ele>193.0</ele><time>2026-03-29T12:19:10.939Z</time></trkpt><trkpt lat="39.4406804" lon="16.9884402"><ele>193.0</ele><time>2026-03-29T12:19:11.933Z</time></trkpt><trkpt lat="39.4406133" lon="16.9884551"><ele>193.0</ele><time>2026-03-29T12:19:12.934Z</time></trkpt><trkpt lat="39.4405478" lon="16.9884746"><ele>192.99999999999997</ele><time>2026-03-29T12:19:13.947Z</time></trkpt><trkpt lat="39.4404334" lon="16.9885404"><ele>193.0</ele><time>2026-03-29T12:19:15.934Z</time></trkpt><trkpt lat="39.4403359" lon="16.9886374"><ele>193.2</ele><time>2026-03-29T12:19:17.936Z</time></trkpt><trkpt lat="39.4402479" lon="16.9887406"><ele>193.4</ele><time>2026-03-29T12:19:19.934Z</time></trkpt><trkpt lat="39.4401471" lon="16.9887494"><ele>193.6</ele><time>2026-03-29T12:19:21.926Z</time></trkpt><trkpt lat="39.4400446" lon="16.9886983"><ele>193.79999999999998</ele><time>2026-03-29T12:19:23.933Z</time></trkpt><trkpt lat="39.4399339" lon="16.9886903"><ele>194.0</ele><time>2026-03-29T12:19:25.944Z</time></trkpt><trkpt lat="39.4398259" lon="16.9886924"><ele>194.00000000000003</ele><time>2026-03-29T12:19:27.93Z</time></trkpt><trkpt lat="39.4397045" lon="16.9887242"><ele>194.0</ele><time>2026-03-29T12:19:29.93Z</time></trkpt><trkpt lat="39.4396412" lon="16.9887561"><ele>194.0</ele><time>2026-03-29T12:19:30.928Z</time></trkpt><trkpt lat="39.4395748" lon="16.9887896"><ele>194.0</ele><time>2026-03-29T12:19:31.923Z</time></trkpt><trkpt lat="39.4395088" lon="16.9888205"><ele>194.00000000000003</ele><time>2026-03-29T12:19:32.936Z</time></trkpt><trkpt lat="39.4394456" lon="16.9888559"><ele>194.0</ele><time>2026-03-29T12:19:33.927Z</time></trkpt><trkpt lat="39.4393888" lon="16.9889019"><ele>193.16666666666669</ele><time>2026-03-29T12:19:34.943Z</time></trkpt><trkpt lat="39.4393422" lon="16.9889615"><ele>192.33333333333334</ele><time>2026-03-29T12:19:35.928Z</time></trkpt><trkpt lat="39.4393052" lon="16.9890333"><ele>191.5</ele><time>2026-03-29T12:19:36.937Z</time></trkpt><trkpt lat="39.439271" lon="16.9891082"><ele>190.66666666666669</ele><time>2026-03-29T12:19:37.942Z</time></trkpt><trkpt lat="39.4392358" lon="16.9891786"><ele>189.83333333333334</ele><time>2026-03-29T12:19:38.924Z</time></trkpt><trkpt lat="39.4392001" lon="16.9892461"><ele>189.0</ele><time>2026-03-29T12:19:39.929Z</time></trkpt><trkpt lat="39.4391198" lon="16.9893735"><ele>188.0</ele><time>2026-03-29T12:19:41.929Z</time></trkpt><trkpt lat="39.4390742" lon="16.9894348"><ele>187.0</ele><time>2026-03-29T12:19:42.942Z</time></trkpt><trkpt lat="39.4390241" lon="16.9894908"><ele>186.0</ele><time>2026-03-29T12:19:43.936Z</time></trkpt><trkpt lat="39.4389677" lon="16.9895465"><ele>185.0</ele><time>2026-03-29T12:19:44.931Z</time></trkpt><trkpt lat="39.4389105" lon="16.9896008"><ele>184.0</ele><time>2026-03-29T12:19:45.93Z</time></trkpt><trkpt lat="39.4388597" lon="16.9896615"><ele>183.0</ele><time>2026-03-29T12:19:46.929Z</time></trkpt><trkpt lat="39.4388149" lon="16.9897203"><ele>182.0</ele><time>2026-03-29T12:19:47.933Z</time></trkpt><trkpt lat="39.4387386" lon="16.9898474"><ele>182.0</ele><time>2026-03-29T12:19:49.947Z</time></trkpt><trkpt lat="39.4386595" lon="16.9899532"><ele>182.0</ele><time>2026-03-29T12:19:51.934Z</time></trkpt><trkpt lat="39.4385757" lon="16.9900244"><ele>182.0</ele><time>2026-03-29T12:19:53.934Z</time></trkpt><trkpt lat="39.4384936" lon="16.990095"><ele>182.0</ele><time>2026-03-29T12:19:55.95Z</time></trkpt><trkpt lat="39.438404" lon="16.9901513"><ele>182.0</ele><time>2026-03-29T12:19:57.934Z</time></trkpt><trkpt lat="39.4383427" lon="16.9901795"><ele>181.66666666666666</ele><time>2026-03-29T12:19:59.939Z</time></trkpt><trkpt lat="39.4382754" lon="16.9902165"><ele>181.33333333333331</ele><time>2026-03-29T12:20:02.929Z</time></trkpt><trkpt lat="39.4381928" lon="16.99026"><ele>181.0</ele><time>2026-03-29T12:20:05.928Z</time></trkpt><trkpt lat="39.4381367" lon="16.990341"><ele>180.66666666666666</ele><time>2026-03-29T12:20:08.942Z</time></trkpt><trkpt lat="39.4380795" lon="16.9904122"><ele>180.33333333333334</ele><time>2026-03-29T12:20:10.925Z</time></trkpt><trkpt lat="39.4380271" lon="16.9904964"><ele>180.0</ele><time>2026-03-29T12:20:12.917Z</time></trkpt><trkpt lat="39.4379628" lon="16.9905884"><ele>180.0</ele><time>2026-03-29T12:20:14.937Z</time></trkpt><trkpt lat="39.4378685" lon="16.990664"><ele>180.0</ele><time>2026-03-29T12:20:16.93Z</time></trkpt><trkpt lat="39.4377644" lon="16.9907369"><ele>180.0</ele><time>2026-03-29T12:20:18.932Z</time></trkpt><trkpt lat="39.4377111" lon="16.990784"><ele>180.0</ele><time>2026-03-29T12:20:19.93Z</time></trkpt><trkpt lat="39.4376197" lon="16.9908919"><ele>180.0</ele><time>2026-03-29T12:20:21.949Z</time></trkpt><trkpt lat="39.4375496" lon="16.9910177"><ele>179.66666666666666</ele><time>2026-03-29T12:20:23.931Z</time></trkpt><trkpt lat="39.4374725" lon="16.9911389"><ele>179.33333333333334</ele><time>2026-03-29T12:20:25.937Z</time></trkpt><trkpt lat="39.4373832" lon="16.9912209"><ele>179.0</ele><time>2026-03-29T12:20:27.927Z</time></trkpt><trkpt lat="39.4373227" lon="16.9912454"><ele>178.66666666666669</ele><time>2026-03-29T12:20:28.939Z</time></trkpt><trkpt lat="39.4372576" lon="16.9912703"><ele>178.33333333333334</ele><time>2026-03-29T12:20:29.924Z</time></trkpt><trkpt lat="39.4371902" lon="16.9912928"><ele>178.0</ele><time>2026-03-29T12:20:30.93Z</time></trkpt><trkpt lat="39.4370954" lon="16.9913739"><ele>177.99999999999997</ele><time>2026-03-29T12:20:32.929Z</time></trkpt><trkpt lat="39.4370573" lon="16.9914393"><ele>178.0</ele><time>2026-03-29T12:20:33.93Z</time></trkpt><trkpt lat="39.4370246" lon="16.9915163"><ele>178.0</ele><time>2026-03-29T12:20:34.943Z</time></trkpt><trkpt lat="39.4369948" lon="16.9916027"><ele>178.0</ele><time>2026-03-29T12:20:35.934Z</time></trkpt><trkpt lat="39.43696" lon="16.9916908"><ele>178.0</ele><time>2026-03-29T12:20:36.939Z</time></trkpt><trkpt lat="39.4369267" lon="16.991771"><ele>177.99999999999997</ele><time>2026-03-29T12:20:37.927Z</time></trkpt><trkpt lat="39.4368662" lon="16.9918252"><ele>178.0</ele><time>2026-03-29T12:20:38.929Z</time></trkpt><trkpt lat="39.4367931" lon="16.9918674"><ele>180.66666666666669</ele><time>2026-03-29T12:20:39.941Z</time></trkpt><trkpt lat="39.4367297" lon="16.9919214"><ele>183.33333333333334</ele><time>2026-03-29T12:20:40.935Z</time></trkpt><trkpt lat="39.4366777" lon="16.9919783"><ele>186.0</ele><time>2026-03-29T12:20:41.932Z</time></trkpt><trkpt lat="39.4366199" lon="16.9921066"><ele>188.66666666666669</ele><time>2026-03-29T12:20:43.933Z</time></trkpt><trkpt lat="39.4366117" lon="16.9921973"><ele>191.33333333333334</ele><time>2026-03-29T12:20:44.925Z</time></trkpt><trkpt lat="39.4366016" lon="16.9922899"><ele>194.0</ele><time>2026-03-29T12:20:45.931Z</time></trkpt><trkpt lat="39.4365603" lon="16.9923549"><ele>194.0</ele><time>2026-03-29T12:20:46.926Z</time></trkpt><trkpt lat="39.4364415" lon="16.9924118"><ele>194.0</ele><time>2026-03-29T12:20:48.938Z</time></trkpt><trkpt lat="39.4363155" lon="16.9924219"><ele>194.0</ele><time>2026-03-29T12:20:50.931Z</time></trkpt><trkpt lat="39.4362113" lon="16.9924385"><ele>194.0</ele><time>2026-03-29T12:20:52.93Z</time></trkpt><trkpt lat="39.4361395" lon="16.9925123"><ele>193.33333333333334</ele><time>2026-03-29T12:20:54.939Z</time></trkpt><trkpt lat="39.4361116" lon="16.9926385"><ele>192.66666666666669</ele><time>2026-03-29T12:20:56.937Z</time></trkpt><trkpt lat="39.4360964" lon="16.9927415"><ele>192.0</ele><time>2026-03-29T12:20:58.933Z</time></trkpt><trkpt lat="39.4360788" lon="16.9928443"><ele>191.33333333333334</ele><time>2026-03-29T12:21:01.926Z</time></trkpt><trkpt lat="39.4360699" lon="16.9929444"><ele>190.66666666666669</ele><time>2026-03-29T12:21:06.926Z</time></trkpt><trkpt lat="39.4360398" lon="16.9930402"><ele>190.0</ele><time>2026-03-29T12:21:09.928Z</time></trkpt><trkpt lat="39.4359764" lon="16.9930923"><ele>190.0</ele><time>2026-03-29T12:21:13.932Z</time></trkpt><trkpt lat="39.435909" lon="16.9931126"><ele>190.0</ele><time>2026-03-29T12:21:16.927Z</time></trkpt><trkpt lat="39.4358483" lon="16.9931628"><ele>190.0</ele><time>2026-03-29T12:21:18.928Z</time></trkpt><trkpt lat="39.4357748" lon="16.9932394"><ele>190.0</ele><time>2026-03-29T12:21:21.919Z</time></trkpt><trkpt lat="39.4357103" lon="16.9932907"><ele>190.0</ele><time>2026-03-29T12:21:23.928Z</time></trkpt><trkpt lat="39.4356248" lon="16.9933318"><ele>190.0</ele><time>2026-03-29T12:21:25.938Z</time></trkpt><trkpt lat="39.4355531" lon="16.9933626"><ele>190.33333333333334</ele><time>2026-03-29T12:21:27.925Z</time></trkpt><trkpt lat="39.4354822" lon="16.9933916"><ele>190.66666666666669</ele><time>2026-03-29T12:21:29.924Z</time></trkpt><trkpt lat="39.4354081" lon="16.9934177"><ele>191.0</ele><time>2026-03-29T12:21:31.93Z</time></trkpt><trkpt lat="39.4353316" lon="16.9934397"><ele>191.33333333333334</ele><time>2026-03-29T12:21:33.925Z</time></trkpt><trkpt lat="39.4352382" lon="16.9934524"><ele>191.66666666666666</ele><time>2026-03-29T12:21:35.924Z</time></trkpt><trkpt lat="39.4351191" lon="16.9934872"><ele>192.0</ele><time>2026-03-29T12:21:37.931Z</time></trkpt><trkpt lat="39.4350174" lon="16.993548"><ele>192.0</ele><time>2026-03-29T12:21:39.946Z</time></trkpt><trkpt lat="39.4349468" lon="16.9936303"><ele>192.0</ele><time>2026-03-29T12:21:41.919Z</time></trkpt><trkpt lat="39.4349046" lon="16.9937261"><ele>192.0</ele><time>2026-03-29T12:21:44.911Z</time></trkpt><trkpt lat="39.4348793" lon="16.9938017"><ele>192.0</ele><time>2026-03-29T12:21:46.91Z</time></trkpt><trkpt lat="39.4348572" lon="16.9939048"><ele>192.0</ele><time>2026-03-29T12:21:48.91Z</time></trkpt><trkpt lat="39.4348374" lon="16.9940409"><ele>192.0</ele><time>2026-03-29T12:21:50.902Z</time></trkpt><trkpt lat="39.4347887" lon="16.9941877"><ele>193.28571428571428</ele><time>2026-03-29T12:21:52.921Z</time></trkpt><trkpt lat="39.4347572" lon="16.9942654"><ele>194.57142857142856</ele><time>2026-03-29T12:21:53.922Z</time></trkpt><trkpt lat="39.4347245" lon="16.9943402"><ele>195.85714285714283</ele><time>2026-03-29T12:21:54.924Z</time></trkpt><trkpt lat="39.4346934" lon="16.9944175"><ele>197.14285714285714</ele><time>2026-03-29T12:21:55.917Z</time></trkpt><trkpt lat="39.4346614" lon="16.9944997"><ele>198.42857142857144</ele><time>2026-03-29T12:21:56.934Z</time></trkpt><trkpt lat="39.4346363" lon="16.9945822"><ele>199.7142857142857</ele><time>2026-03-29T12:21:57.927Z</time></trkpt><trkpt lat="39.4346282" lon="16.9946655"><ele>201.0</ele><time>2026-03-29T12:21:58.924Z</time></trkpt><trkpt lat="39.4346267" lon="16.9947487"><ele>198.0</ele><time>2026-03-29T12:21:59.932Z</time></trkpt><trkpt lat="39.4346195" lon="16.9949106"><ele>195.0</ele><time>2026-03-29T12:22:01.911Z</time></trkpt><trkpt lat="39.4346067" lon="16.9950712"><ele>192.0</ele><time>2026-03-29T12:22:03.931Z</time></trkpt><trkpt lat="39.4345911" lon="16.995153"><ele>189.0</ele><time>2026-03-29T12:22:04.928Z</time></trkpt><trkpt lat="39.4345709" lon="16.9952342"><ele>186.0</ele><time>2026-03-29T12:22:05.933Z</time></trkpt><trkpt lat="39.4345449" lon="16.9953143"><ele>183.0</ele><time>2026-03-29T12:22:06.922Z</time></trkpt><trkpt lat="39.4345178" lon="16.9953936"><ele>183.0</ele><time>2026-03-29T12:22:07.935Z</time></trkpt><trkpt lat="39.4344927" lon="16.995474"><ele>183.0</ele><time>2026-03-29T12:22:08.925Z</time></trkpt><trkpt lat="39.4344665" lon="16.9955546"><ele>183.0</ele><time>2026-03-29T12:22:09.922Z</time></trkpt><trkpt lat="39.4344351" lon="16.9956321"><ele>183.0</ele><time>2026-03-29T12:22:10.925Z</time></trkpt><trkpt lat="39.4343992" lon="16.9957027"><ele>183.0</ele><time>2026-03-29T12:22:11.932Z</time></trkpt><trkpt lat="39.4343664" lon="16.9957728"><ele>183.0</ele><time>2026-03-29T12:22:12.924Z</time></trkpt><trkpt lat="39.434306" lon="16.9959098"><ele>184.2</ele><time>2026-03-29T12:22:14.929Z</time></trkpt><trkpt lat="39.4342683" lon="16.9960351"><ele>185.4</ele><time>2026-03-29T12:22:16.926Z</time></trkpt><trkpt lat="39.4342708" lon="16.9961735"><ele>186.6</ele><time>2026-03-29T12:22:18.926Z</time></trkpt><trkpt lat="39.4342896" lon="16.9963128"><ele>187.79999999999998</ele><time>2026-03-29T12:22:20.93Z</time></trkpt><trkpt lat="39.4343174" lon="16.9964545"><ele>189.0</ele><time>2026-03-29T12:22:22.927Z</time></trkpt><trkpt lat="39.4342893" lon="16.9965967"><ele>190.33333333333334</ele><time>2026-03-29T12:22:24.939Z</time></trkpt><trkpt lat="39.4342543" lon="16.9967309"><ele>191.66666666666669</ele><time>2026-03-29T12:22:26.94Z</time></trkpt><trkpt lat="39.4342642" lon="16.9968939"><ele>193.0</ele><time>2026-03-29T12:22:28.939Z</time></trkpt><trkpt lat="39.4342729" lon="16.9969828"><ele>194.33333333333334</ele><time>2026-03-29T12:22:29.934Z</time></trkpt><trkpt lat="39.4342749" lon="16.9970723"><ele>195.66666666666669</ele><time>2026-03-29T12:22:30.928Z</time></trkpt><trkpt lat="39.434271" lon="16.9971616"><ele>197.0</ele><time>2026-03-29T12:22:31.92Z</time></trkpt><trkpt lat="39.4342587" lon="16.9972466"><ele>197.0</ele><time>2026-03-29T12:22:32.929Z</time></trkpt><trkpt lat="39.4342273" lon="16.9974069"><ele>197.0</ele><time>2026-03-29T12:22:34.929Z</time></trkpt><trkpt lat="39.4342067" lon="16.9974888"><ele>197.0</ele><time>2026-03-29T12:22:35.933Z</time></trkpt><trkpt lat="39.4341527" lon="16.9976211"><ele>197.0</ele><time>2026-03-29T12:22:37.929Z</time></trkpt><trkpt lat="39.4340762" lon="16.9976857"><ele>197.0</ele><time>2026-03-29T12:22:39.933Z</time></trkpt><trkpt lat="39.4339995" lon="16.9976996"><ele>197.39999999999998</ele><time>2026-03-29T12:22:43.93Z</time></trkpt><trkpt lat="39.4339171" lon="16.9977203"><ele>197.79999999999998</ele><time>2026-03-29T12:22:45.928Z</time></trkpt><trkpt lat="39.4338124" lon="16.9977439"><ele>198.2</ele><time>2026-03-29T12:22:47.939Z</time></trkpt><trkpt lat="39.4337193" lon="16.9977862"><ele>198.6</ele><time>2026-03-29T12:22:49.927Z</time></trkpt><trkpt lat="39.4336286" lon="16.9978461"><ele>199.0</ele><time>2026-03-29T12:22:51.926Z</time></trkpt><trkpt lat="39.4335383" lon="16.9979017"><ele>198.99999999999997</ele><time>2026-03-29T12:22:53.935Z</time></trkpt><trkpt lat="39.4334677" lon="16.9979735"><ele>199.0</ele><time>2026-03-29T12:22:55.927Z</time></trkpt><trkpt lat="39.4334264" lon="16.9980515"><ele>199.0</ele><time>2026-03-29T12:22:57.929Z</time></trkpt><trkpt lat="39.4333702" lon="16.998118"><ele>199.0</ele><time>2026-03-29T12:22:59.938Z</time></trkpt><trkpt lat="39.4332997" lon="16.9981939"><ele>198.99999999999997</ele><time>2026-03-29T12:23:01.932Z</time></trkpt><trkpt lat="39.4332543" lon="16.998273"><ele>199.0</ele><time>2026-03-29T12:23:03.935Z</time></trkpt><trkpt lat="39.4331974" lon="16.9983564"><ele>200.0</ele><time>2026-03-29T12:23:05.935Z</time></trkpt><trkpt lat="39.4331187" lon="16.9984479"><ele>201.0</ele><time>2026-03-29T12:23:07.933Z</time></trkpt><trkpt lat="39.4330467" lon="16.9985166"><ele>202.0</ele><time>2026-03-29T12:23:09.923Z</time></trkpt><trkpt lat="39.4329831" lon="16.9985789"><ele>203.0</ele><time>2026-03-29T12:23:11.947Z</time></trkpt><trkpt lat="39.4329249" lon="16.998672"><ele>204.0</ele><time>2026-03-29T12:23:13.925Z</time></trkpt><trkpt lat="39.4328632" lon="16.9987708"><ele>204.66666666666666</ele><time>2026-03-29T12:23:15.934Z</time></trkpt><trkpt lat="39.4328178" lon="16.9988662"><ele>205.33333333333331</ele><time>2026-03-29T12:23:17.927Z</time></trkpt><trkpt lat="39.4328169" lon="16.9989952"><ele>206.0</ele><time>2026-03-29T12:23:19.929Z</time></trkpt><trkpt lat="39.4328115" lon="16.9991001"><ele>206.66666666666666</ele><time>2026-03-29T12:23:21.944Z</time></trkpt><trkpt lat="39.432806" lon="16.999186"><ele>207.33333333333331</ele><time>2026-03-29T12:23:23.925Z</time></trkpt><trkpt lat="39.4327742" lon="16.999318"><ele>208.0</ele><time>2026-03-29T12:23:26.924Z</time></trkpt><trkpt lat="39.4327235" lon="16.9994493"><ele>208.2</ele><time>2026-03-29T12:23:28.943Z</time></trkpt><trkpt lat="39.4326879" lon="16.9995182"><ele>208.4</ele><time>2026-03-29T12:23:29.93Z</time></trkpt><trkpt lat="39.4326276" lon="16.9996342"><ele>208.6</ele><time>2026-03-29T12:23:31.929Z</time></trkpt><trkpt lat="39.4325916" lon="16.9997318"><ele>208.79999999999998</ele><time>2026-03-29T12:23:33.915Z</time></trkpt><trkpt lat="39.4325836" lon="16.9998452"><ele>209.0</ele><time>2026-03-29T12:23:35.919Z</time></trkpt><trkpt lat="39.4325877" lon="16.9999839"><ele>209.0</ele><time>2026-03-29T12:23:37.904Z</time></trkpt><trkpt lat="39.4325777" lon="17.0001379"><ele>209.0</ele><time>2026-03-29T12:23:39.912Z</time></trkpt><trkpt lat="39.4324958" lon="17.0002388"><ele>209.0</ele><time>2026-03-29T12:23:41.906Z</time></trkpt><trkpt lat="39.4324004" lon="17.000298"><ele>209.0</ele><time>2026-03-29T12:23:43.913Z</time></trkpt><trkpt lat="39.4323337" lon="17.0003664"><ele>209.0</ele><time>2026-03-29T12:23:45.933Z</time></trkpt><trkpt lat="39.4322823" lon="17.0004631"><ele>209.00000000000003</ele><time>2026-03-29T12:23:48.907Z</time></trkpt><trkpt lat="39.4322559" lon="17.0005374"><ele>209.0</ele><time>2026-03-29T12:23:50.908Z</time></trkpt><trkpt lat="39.4322273" lon="17.0006513"><ele>209.0</ele><time>2026-03-29T12:23:52.931Z</time></trkpt><trkpt lat="39.4321916" lon="17.0007702"><ele>209.0</ele><time>2026-03-29T12:23:54.912Z</time></trkpt><trkpt lat="39.4321833" lon="17.0008904"><ele>209.00000000000003</ele><time>2026-03-29T12:23:56.918Z</time></trkpt><trkpt lat="39.4322357" lon="17.0009804"><ele>209.0</ele><time>2026-03-29T12:23:58.934Z</time></trkpt><trkpt lat="39.4323134" lon="17.0009321"><ele>209.00000000000003</ele><time>2026-03-29T12:24:00.91Z</time></trkpt><trkpt lat="39.4323889" lon="17.0008745"><ele>209.0</ele><time>2026-03-29T12:24:02.911Z</time></trkpt><trkpt lat="39.4324778" lon="17.0008285"><ele>209.0</ele><time>2026-03-29T12:24:04.93Z</time></trkpt><trkpt lat="39.4325503" lon="17.0008429"><ele>209.0</ele><time>2026-03-29T12:24:06.916Z</time></trkpt><trkpt lat="39.4325885" lon="17.0009128"><ele>209.00000000000003</ele><time>2026-03-29T12:24:08.913Z</time></trkpt><trkpt lat="39.4326141" lon="17.0009875"><ele>209.0</ele><time>2026-03-29T12:24:10.922Z</time></trkpt><trkpt lat="39.4325765" lon="17.0010552"><ele>210.16666666666669</ele><time>2026-03-29T12:24:13.919Z</time></trkpt><trkpt lat="39.4325178" lon="17.0010982"><ele>211.33333333333334</ele><time>2026-03-29T12:24:15.914Z</time></trkpt><trkpt lat="39.4324573" lon="17.0011887"><ele>212.5</ele><time>2026-03-29T12:24:18.923Z</time></trkpt><trkpt lat="39.4324082" lon="17.0012866"><ele>213.66666666666669</ele><time>2026-03-29T12:24:21.914Z</time></trkpt><trkpt lat="39.4324122" lon="17.0013683"><ele>214.83333333333334</ele><time>2026-03-29T12:24:23.92Z</time></trkpt><trkpt lat="39.4324419" lon="17.0014461"><ele>216.0</ele><time>2026-03-29T12:24:25.924Z</time></trkpt><trkpt lat="39.4324806" lon="17.0015211"><ele>216.0</ele><time>2026-03-29T12:24:27.925Z</time></trkpt><trkpt lat="39.4325163" lon="17.0015936"><ele>216.0</ele><time>2026-03-29T12:24:29.92Z</time></trkpt><trkpt lat="39.4325574" lon="17.0016884"><ele>216.0</ele><time>2026-03-29T12:24:31.926Z</time></trkpt><trkpt lat="39.4325916" lon="17.0017862"><ele>216.0</ele><time>2026-03-29T12:24:33.923Z</time></trkpt><trkpt lat="39.4326165" lon="17.0018766"><ele>216.0</ele><time>2026-03-29T12:24:35.937Z</time></trkpt><trkpt lat="39.4326268" lon="17.0019615"><ele>216.0</ele><time>2026-03-29T12:24:37.919Z</time></trkpt><trkpt lat="39.4326629" lon="17.0020393"><ele>216.0</ele><time>2026-03-29T12:24:39.911Z</time></trkpt><trkpt lat="39.4327326" lon="17.0020891"><ele>218.42857142857142</ele><time>2026-03-29T12:24:41.927Z</time></trkpt><trkpt lat="39.4328176" lon="17.0021314"><ele>220.85714285714283</ele><time>2026-03-29T12:24:44.928Z</time></trkpt><trkpt lat="39.43285" lon="17.0022043"><ele>223.28571428571428</ele><time>2026-03-29T12:24:46.917Z</time></trkpt><trkpt lat="39.4328889" lon="17.002271"><ele>225.71428571428572</ele><time>2026-03-29T12:24:48.923Z</time></trkpt><trkpt lat="39.4329632" lon="17.0022839"><ele>228.14285714285714</ele><time>2026-03-29T12:24:50.919Z</time></trkpt><trkpt lat="39.4330305" lon="17.00229"><ele>230.57142857142858</ele><time>2026-03-29T12:24:52.929Z</time></trkpt><trkpt lat="39.4330967" lon="17.0023228"><ele>233.0</ele><time>2026-03-29T12:24:54.915Z</time></trkpt><trkpt lat="39.4331154" lon="17.0024044"><ele>233.00000000000003</ele><time>2026-03-29T12:24:56.933Z</time></trkpt><trkpt lat="39.4330768" lon="17.0024862"><ele>233.0</ele><time>2026-03-29T12:24:58.931Z</time></trkpt><trkpt lat="39.4329816" lon="17.0025502"><ele>233.0</ele><time>2026-03-29T12:25:00.939Z</time></trkpt><trkpt lat="39.4329258" lon="17.0025882"><ele>233.0</ele><time>2026-03-29T12:25:01.944Z</time></trkpt><trkpt lat="39.4328646" lon="17.0026268"><ele>233.00000000000003</ele><time>2026-03-29T12:25:02.945Z</time></trkpt><trkpt lat="39.4327783" lon="17.0026987"><ele>233.0</ele><time>2026-03-29T12:25:04.936Z</time></trkpt><trkpt lat="39.4326968" lon="17.0027565"><ele>234.71428571428572</ele><time>2026-03-29T12:25:06.943Z</time></trkpt><trkpt lat="39.4326396" lon="17.0028044"><ele>236.42857142857142</ele><time>2026-03-29T12:25:07.935Z</time></trkpt><trkpt lat="39.4325833" lon="17.002873"><ele>238.14285714285714</ele><time>2026-03-29T12:25:08.948Z</time></trkpt><trkpt lat="39.432537" lon="17.0029479"><ele>239.85714285714286</ele><time>2026-03-29T12:25:09.93Z</time></trkpt><trkpt lat="39.4325011" lon="17.0030152"><ele>241.57142857142856</ele><time>2026-03-29T12:25:10.932Z</time></trkpt><trkpt lat="39.4324821" lon="17.0031007"><ele>243.28571428571428</ele><time>2026-03-29T12:25:12.934Z</time></trkpt><trkpt lat="39.4324595" lon="17.0032048"><ele>245.0</ele><time>2026-03-29T12:25:16.928Z</time></trkpt><trkpt lat="39.4324255" lon="17.0032974"><ele>245.71428571428572</ele><time>2026-03-29T12:25:18.924Z</time></trkpt><trkpt lat="39.4323841" lon="17.0033709"><ele>246.42857142857144</ele><time>2026-03-29T12:25:20.935Z</time></trkpt><trkpt lat="39.4323285" lon="17.0034154"><ele>247.14285714285714</ele><time>2026-03-29T12:25:22.926Z</time></trkpt><trkpt lat="39.4322674" lon="17.0034527"><ele>247.85714285714286</ele><time>2026-03-29T12:25:24.95Z</time></trkpt><trkpt lat="39.4321955" lon="17.0034837"><ele>248.57142857142858</ele><time>2026-03-29T12:25:28.937Z</time></trkpt><trkpt lat="39.4321085" lon="17.0034946"><ele>249.28571428571428</ele><time>2026-03-29T12:25:31.946Z</time></trkpt><trkpt lat="39.4320278" lon="17.0034942"><ele>250.0</ele><time>2026-03-29T12:25:34.922Z</time></trkpt><trkpt lat="39.4319436" lon="17.0034816"><ele>249.99999999999997</ele><time>2026-03-29T12:25:55.943Z</time></trkpt><trkpt lat="39.4318426" lon="17.0034068"><ele>250.0</ele><time>2026-03-29T12:25:57.933Z</time></trkpt><trkpt lat="39.4317868" lon="17.0033586"><ele>250.0</ele><time>2026-03-29T12:25:58.938Z</time></trkpt><trkpt lat="39.4317331" lon="17.0033066"><ele>250.0</ele><time>2026-03-29T12:25:59.933Z</time></trkpt><trkpt lat="39.4316816" lon="17.0032588"><ele>249.99999999999997</ele><time>2026-03-29T12:26:00.924Z</time></trkpt><trkpt lat="39.4315901" lon="17.0031641"><ele>250.0</ele><time>2026-03-29T12:26:02.93Z</time></trkpt><trkpt lat="39.4315314" lon="17.0030212"><ele>248.99999999999997</ele><time>2026-03-29T12:26:04.927Z</time></trkpt><trkpt lat="39.4315126" lon="17.0029388"><ele>248.0</ele><time>2026-03-29T12:26:05.94Z</time></trkpt><trkpt lat="39.4314956" lon="17.0028585"><ele>247.0</ele><time>2026-03-29T12:26:06.933Z</time></trkpt><trkpt lat="39.4314241" lon="17.0027348"><ele>246.0</ele><time>2026-03-29T12:26:08.925Z</time></trkpt><trkpt lat="39.4313068" lon="17.0026729"><ele>244.99999999999997</ele><time>2026-03-29T12:26:10.925Z</time></trkpt><trkpt lat="39.4312439" lon="17.0026616"><ele>244.0</ele><time>2026-03-29T12:26:11.904Z</time></trkpt><trkpt lat="39.4311809" lon="17.002657"><ele>250.5</ele><time>2026-03-29T12:26:12.917Z</time></trkpt><trkpt lat="39.4310599" lon="17.0026573"><ele>257.0</ele><time>2026-03-29T12:26:14.936Z</time></trkpt><trkpt lat="39.4309377" lon="17.0026543"><ele>263.5</ele><time>2026-03-29T12:26:16.933Z</time></trkpt><trkpt lat="39.4308233" lon="17.0026584"><ele>270.0</ele><time>2026-03-29T12:26:18.936Z</time></trkpt><trkpt lat="39.4307063" lon="17.002641"><ele>270.0</ele><time>2026-03-29T12:26:20.935Z</time></trkpt><trkpt lat="39.4305899" lon="17.0026082"><ele>270.0</ele><time>2026-03-29T12:26:22.934Z</time></trkpt><trkpt lat="39.4304985" lon="17.002585"><ele>270.0</ele><time>2026-03-29T12:26:24.928Z</time></trkpt><trkpt lat="39.4304032" lon="17.0025479"><ele>270.0</ele><time>2026-03-29T12:26:26.942Z</time></trkpt><trkpt lat="39.4303332" lon="17.0024309"><ele>270.0</ele><time>2026-03-29T12:26:28.942Z</time></trkpt><trkpt lat="39.4302808" lon="17.0023136"><ele>273.8333333333333</ele><time>2026-03-29T12:26:30.936Z</time></trkpt><trkpt lat="39.4301683" lon="17.002332"><ele>277.6666666666667</ele><time>2026-03-29T12:26:32.927Z</time></trkpt><trkpt lat="39.4301122" lon="17.0023863"><ele>281.5</ele><time>2026-03-29T12:26:33.937Z</time></trkpt><trkpt lat="39.4300476" lon="17.0024531"><ele>285.33333333333337</ele><time>2026-03-29T12:26:34.933Z</time></trkpt><trkpt lat="39.4299729" lon="17.0025146"><ele>289.1666666666667</ele><time>2026-03-29T12:26:35.933Z</time></trkpt><trkpt lat="39.4298982" lon="17.0025615"><ele>293.0</ele><time>2026-03-29T12:26:36.933Z</time></trkpt><trkpt lat="39.4298321" lon="17.0025963"><ele>293.0</ele><time>2026-03-29T12:26:37.936Z</time></trkpt><trkpt lat="39.4297343" lon="17.0026461"><ele>293.0</ele><time>2026-03-29T12:26:39.935Z</time></trkpt><trkpt lat="39.4296802" lon="17.0025972"><ele>293.0</ele><time>2026-03-29T12:26:43.943Z</time></trkpt><trkpt lat="39.4297323" lon="17.0025251"><ele>293.0</ele><time>2026-03-29T12:26:45.932Z</time></trkpt><trkpt lat="39.4298292" lon="17.0025027"><ele>293.0</ele><time>2026-03-29T12:26:47.925Z</time></trkpt><trkpt lat="39.4298796" lon="17.0024435"><ele>293.0</ele><time>2026-03-29T12:27:00.941Z</time></trkpt><trkpt lat="39.4299179" lon="17.0023702"><ele>293.6</ele><time>2026-03-29T12:27:02.931Z</time></trkpt><trkpt lat="39.4299737" lon="17.0022614"><ele>294.20000000000005</ele><time>2026-03-29T12:27:04.932Z</time></trkpt><trkpt lat="39.4300188" lon="17.0021407"><ele>294.8</ele><time>2026-03-29T12:27:06.929Z</time></trkpt><trkpt lat="39.4300397" lon="17.001989"><ele>295.40000000000003</ele><time>2026-03-29T12:27:08.927Z</time></trkpt><trkpt lat="39.4300429" lon="17.0018806"><ele>296.0</ele><time>2026-03-29T12:27:09.935Z</time></trkpt><trkpt lat="39.4300352" lon="17.0017734"><ele>296.0</ele><time>2026-03-29T12:27:10.931Z</time></trkpt><trkpt lat="39.4300155" lon="17.0016776"><ele>296.0</ele><time>2026-03-29T12:27:11.936Z</time></trkpt><trkpt lat="39.4299883" lon="17.0015995"><ele>296.0</ele><time>2026-03-29T12:27:12.932Z</time></trkpt><trkpt lat="39.4299134" lon="17.0014596"><ele>296.0</ele><time>2026-03-29T12:27:14.951Z</time></trkpt><trkpt lat="39.4298562" lon="17.0013784"><ele>296.0</ele><time>2026-03-29T12:27:15.935Z</time></trkpt><trkpt lat="39.4297867" lon="17.001288"><ele>294.2</ele><time>2026-03-29T12:27:16.936Z</time></trkpt><trkpt lat="39.4297131" lon="17.0011986"><ele>292.40000000000003</ele><time>2026-03-29T12:27:17.927Z</time></trkpt><trkpt lat="39.4296356" lon="17.0011155"><ele>290.6</ele><time>2026-03-29T12:27:18.929Z</time></trkpt><trkpt lat="39.4295586" lon="17.0010424"><ele>288.8</ele><time>2026-03-29T12:27:19.93Z</time></trkpt><trkpt lat="39.4294826" lon="17.0009789"><ele>287.0</ele><time>2026-03-29T12:27:20.924Z</time></trkpt><trkpt lat="39.4294098" lon="17.0009283"><ele>289.4</ele><time>2026-03-29T12:27:21.921Z</time></trkpt><trkpt lat="39.4293414" lon="17.0008882"><ele>291.79999999999995</ele><time>2026-03-29T12:27:22.934Z</time></trkpt><trkpt lat="39.4292302" lon="17.0008454"><ele>294.2</ele><time>2026-03-29T12:27:24.932Z</time></trkpt><trkpt lat="39.4291162" lon="17.0008288"><ele>296.59999999999997</ele><time>2026-03-29T12:27:26.923Z</time></trkpt><trkpt lat="39.4289766" lon="17.0008436"><ele>299.0</ele><time>2026-03-29T12:27:28.939Z</time></trkpt><trkpt lat="39.428886" lon="17.000868"><ele>300.25</ele><time>2026-03-29T12:27:29.938Z</time></trkpt><trkpt lat="39.4287841" lon="17.0009177"><ele>301.5</ele><time>2026-03-29T12:27:30.925Z</time></trkpt><trkpt lat="39.4286718" lon="17.0009861"><ele>302.75</ele><time>2026-03-29T12:27:31.923Z</time></trkpt><trkpt lat="39.428563" lon="17.0010772"><ele>304.0</ele><time>2026-03-29T12:27:32.932Z</time></trkpt><trkpt lat="39.4284632" lon="17.0011894"><ele>304.0</ele><time>2026-03-29T12:27:33.918Z</time></trkpt><trkpt lat="39.4283652" lon="17.0013414"><ele>304.0</ele><time>2026-03-29T12:27:34.927Z</time></trkpt><trkpt lat="39.4282711" lon="17.0014996"><ele>304.0</ele><time>2026-03-29T12:27:35.925Z</time></trkpt><trkpt lat="39.4281776" lon="17.0016529"><ele>305.0</ele><time>2026-03-29T12:27:36.927Z</time></trkpt><trkpt lat="39.4280816" lon="17.0017879"><ele>306.0</ele><time>2026-03-29T12:27:37.931Z</time></trkpt><trkpt lat="39.4279744" lon="17.0018883"><ele>307.0</ele><time>2026-03-29T12:27:38.932Z</time></trkpt><trkpt lat="39.427861" lon="17.0019545"><ele>308.0</ele><time>2026-03-29T12:27:39.93Z</time></trkpt><trkpt lat="39.4277462" lon="17.0019908"><ele>308.0</ele><time>2026-03-29T12:27:40.927Z</time></trkpt><trkpt lat="39.4276366" lon="17.0020072"><ele>308.0</ele><time>2026-03-29T12:27:41.924Z</time></trkpt><trkpt lat="39.4275651" lon="17.0020261"><ele>308.0</ele><time>2026-03-29T12:27:42.672Z</time></trkpt><trkpt lat="39.4274371" lon="17.0020307"><ele>308.0</ele><time>2026-03-29T12:27:43.932Z</time></trkpt><trkpt lat="39.4273437" lon="17.0020489"><ele>308.0</ele><time>2026-03-29T12:27:44.935Z</time></trkpt><trkpt lat="39.4272524" lon="17.0020666"><ele>308.0</ele><time>2026-03-29T12:27:45.916Z</time></trkpt><trkpt lat="39.4271623" lon="17.0020891"><ele>308.0</ele><time>2026-03-29T12:27:46.934Z</time></trkpt><trkpt lat="39.4270012" lon="17.0021688"><ele>308.0</ele><time>2026-03-29T12:27:48.996Z</time></trkpt><trkpt lat="39.4269315" lon="17.0022156"><ele>308.0</ele><time>2026-03-29T12:27:49.913Z</time></trkpt><trkpt lat="39.4268587" lon="17.0022657"><ele>308.0</ele><time>2026-03-29T12:27:50.961Z</time></trkpt><trkpt lat="39.4267882" lon="17.0023125"><ele>307.6666666666667</ele><time>2026-03-29T12:27:51.912Z</time></trkpt><trkpt lat="39.4267139" lon="17.0023643"><ele>307.33333333333337</ele><time>2026-03-29T12:27:52.909Z</time></trkpt><trkpt lat="39.4266392" lon="17.0024222"><ele>307.0</ele><time>2026-03-29T12:27:53.907Z</time></trkpt><trkpt lat="39.4265642" lon="17.0024829"><ele>306.6666666666667</ele><time>2026-03-29T12:27:54.909Z</time></trkpt><trkpt lat="39.4264856" lon="17.0025338"><ele>306.3333333333333</ele><time>2026-03-29T12:27:55.912Z</time></trkpt><trkpt lat="39.4264023" lon="17.0025804"><ele>306.0</ele><time>2026-03-29T12:27:56.914Z</time></trkpt><trkpt lat="39.4263184" lon="17.0026304"><ele>309.20000000000005</ele><time>2026-03-29T12:27:57.908Z</time></trkpt><trkpt lat="39.4262326" lon="17.002684"><ele>312.40000000000003</ele><time>2026-03-29T12:27:58.913Z</time></trkpt><trkpt lat="39.4261442" lon="17.0027366"><ele>315.6</ele><time>2026-03-29T12:27:59.91Z</time></trkpt><trkpt lat="39.4260565" lon="17.0027907"><ele>318.8</ele><time>2026-03-29T12:28:00.909Z</time></trkpt><trkpt lat="39.4259729" lon="17.0028565"><ele>322.0</ele><time>2026-03-29T12:28:01.912Z</time></trkpt><trkpt lat="39.425897" lon="17.0029256"><ele>322.0</ele><time>2026-03-29T12:28:02.909Z</time></trkpt><trkpt lat="39.4258284" lon="17.0029971"><ele>322.0</ele><time>2026-03-29T12:28:03.92Z</time></trkpt><trkpt lat="39.4257662" lon="17.0030802"><ele>322.0</ele><time>2026-03-29T12:28:04.921Z</time></trkpt><trkpt lat="39.4257104" lon="17.00316"><ele>322.0</ele><time>2026-03-29T12:28:05.91Z</time></trkpt><trkpt lat="39.4256557" lon="17.0032214"><ele>322.0</ele><time>2026-03-29T12:28:06.91Z</time></trkpt><trkpt lat="39.4255989" lon="17.0032604"><ele>322.0</ele><time>2026-03-29T12:28:07.91Z</time></trkpt><trkpt lat="39.4255006" lon="17.0032814"><ele>324.5</ele><time>2026-03-29T12:28:09.908Z</time></trkpt><trkpt lat="39.4255363" lon="17.0033885"><ele>327.0</ele><time>2026-03-29T12:28:23.914Z</time></trkpt><trkpt lat="39.4255777" lon="17.0034777"><ele>329.5</ele><time>2026-03-29T12:28:25.911Z</time></trkpt><trkpt lat="39.4255929" lon="17.0035741"><ele>332.0</ele><time>2026-03-29T12:28:27.908Z</time></trkpt><trkpt lat="39.4255834" lon="17.0037296"><ele>334.5</ele><time>2026-03-29T12:28:29.907Z</time></trkpt><trkpt lat="39.4255575" lon="17.0038261"><ele>337.0</ele><time>2026-03-29T12:28:30.908Z</time></trkpt><trkpt lat="39.4255324" lon="17.0039282"><ele>337.0</ele><time>2026-03-29T12:28:31.91Z</time></trkpt><trkpt lat="39.425497" lon="17.0040273"><ele>337.0</ele><time>2026-03-29T12:28:32.913Z</time></trkpt><trkpt lat="39.4254653" lon="17.0041192"><ele>337.0</ele><time>2026-03-29T12:28:33.912Z</time></trkpt><trkpt lat="39.4254482" lon="17.0042039"><ele>337.0</ele><time>2026-03-29T12:28:34.912Z</time></trkpt><trkpt lat="39.4254261" lon="17.0043445"><ele>337.0</ele><time>2026-03-29T12:28:36.914Z</time></trkpt><trkpt lat="39.42536" lon="17.0044654"><ele>338.7142857142857</ele><time>2026-03-29T12:28:38.911Z</time></trkpt><trkpt lat="39.4253007" lon="17.0045105"><ele>340.42857142857144</ele><time>2026-03-29T12:28:39.91Z</time></trkpt><trkpt lat="39.4252362" lon="17.0045471"><ele>342.1428571428571</ele><time>2026-03-29T12:28:40.909Z</time></trkpt><trkpt lat="39.4251674" lon="17.0045698"><ele>343.8571428571429</ele><time>2026-03-29T12:28:41.911Z</time></trkpt><trkpt lat="39.4250939" lon="17.0046021"><ele>345.57142857142856</ele><time>2026-03-29T12:28:42.906Z</time></trkpt><trkpt lat="39.4250192" lon="17.0046422"><ele>347.2857142857143</ele><time>2026-03-29T12:28:43.909Z</time></trkpt><trkpt lat="39.4249585" lon="17.0047074"><ele>349.0</ele><time>2026-03-29T12:28:44.909Z</time></trkpt><trkpt lat="39.4249006" lon="17.00478"><ele>349.0</ele><time>2026-03-29T12:28:45.939Z</time></trkpt><trkpt lat="39.4248317" lon="17.0048332"><ele>349.0</ele><time>2026-03-29T12:28:46.911Z</time></trkpt><trkpt lat="39.4247528" lon="17.0048753"><ele>349.0</ele><time>2026-03-29T12:28:47.911Z</time></trkpt><trkpt lat="39.4246723" lon="17.0049104"><ele>349.0</ele><time>2026-03-29T12:28:48.909Z</time></trkpt><trkpt lat="39.4245915" lon="17.004949"><ele>349.0</ele><time>2026-03-29T12:28:49.914Z</time></trkpt><trkpt lat="39.4245132" lon="17.004987"><ele>349.0</ele><time>2026-03-29T12:28:50.916Z</time></trkpt><trkpt lat="39.4244386" lon="17.0050248"><ele>347.0</ele><time>2026-03-29T12:28:51.91Z</time></trkpt><trkpt lat="39.4243644" lon="17.0050593"><ele>345.0</ele><time>2026-03-29T12:28:52.915Z</time></trkpt><trkpt lat="39.4242957" lon="17.0050878"><ele>343.0</ele><time>2026-03-29T12:28:53.91Z</time></trkpt><trkpt lat="39.4242326" lon="17.005112"><ele>341.0</ele><time>2026-03-29T12:28:54.913Z</time></trkpt><trkpt lat="39.4241147" lon="17.0051551"><ele>339.0</ele><time>2026-03-29T12:28:56.915Z</time></trkpt><trkpt lat="39.4239857" lon="17.0051515"><ele>339.0</ele><time>2026-03-29T12:28:58.907Z</time></trkpt><trkpt lat="39.4239174" lon="17.0051228"><ele>339.0</ele><time>2026-03-29T12:28:59.912Z</time></trkpt><trkpt lat="39.4238433" lon="17.0051045"><ele>339.0</ele><time>2026-03-29T12:29:00.913Z</time></trkpt><trkpt lat="39.4237592" lon="17.0051181"><ele>339.0</ele><time>2026-03-29T12:29:01.909Z</time></trkpt><trkpt lat="39.4236632" lon="17.0051737"><ele>339.0</ele><time>2026-03-29T12:29:02.915Z</time></trkpt><trkpt lat="39.4235751" lon="17.0052516"><ele>339.0</ele><time>2026-03-29T12:29:03.909Z</time></trkpt><trkpt lat="39.4235085" lon="17.0053514"><ele>339.0</ele><time>2026-03-29T12:29:04.915Z</time></trkpt><trkpt lat="39.423467" lon="17.0054715"><ele>339.0</ele><time>2026-03-29T12:29:05.905Z</time></trkpt><trkpt lat="39.4234443" lon="17.0055897"><ele>339.0</ele><time>2026-03-29T12:29:06.917Z</time></trkpt><trkpt lat="39.4234199" lon="17.0057005"><ele>339.0</ele><time>2026-03-29T12:29:07.914Z</time></trkpt><trkpt lat="39.4233776" lon="17.0057843"><ele>339.0</ele><time>2026-03-29T12:29:08.906Z</time></trkpt><trkpt lat="39.4233203" lon="17.0058405"><ele>339.0</ele><time>2026-03-29T12:29:09.908Z</time></trkpt><trkpt lat="39.4232576" lon="17.0058733"><ele>339.0</ele><time>2026-03-29T12:29:10.912Z</time></trkpt><trkpt lat="39.4231491" lon="17.0059535"><ele>339.0</ele><time>2026-03-29T12:29:12.91Z</time></trkpt><trkpt lat="39.423094" lon="17.006013"><ele>339.0</ele><time>2026-03-29T12:29:13.917Z</time></trkpt><trkpt lat="39.4230273" lon="17.0060686"><ele>339.0</ele><time>2026-03-29T12:29:14.912Z</time></trkpt><trkpt lat="39.4229513" lon="17.0061093"><ele>339.0</ele><time>2026-03-29T12:29:15.909Z</time></trkpt><trkpt lat="39.4228692" lon="17.0061469"><ele>339.0</ele><time>2026-03-29T12:29:16.912Z</time></trkpt><trkpt lat="39.4227859" lon="17.0061936"><ele>341.6666666666667</ele><time>2026-03-29T12:29:17.913Z</time></trkpt><trkpt lat="39.4227066" lon="17.0062449"><ele>344.3333333333333</ele><time>2026-03-29T12:29:18.911Z</time></trkpt><trkpt lat="39.4226327" lon="17.0063005"><ele>347.0</ele><time>2026-03-29T12:29:19.917Z</time></trkpt><trkpt lat="39.4225606" lon="17.0063476"><ele>349.66666666666663</ele><time>2026-03-29T12:29:20.905Z</time></trkpt><trkpt lat="39.4224941" lon="17.006389"><ele>352.3333333333333</ele><time>2026-03-29T12:29:21.908Z</time></trkpt><trkpt lat="39.4224373" lon="17.0064347"><ele>355.0</ele><time>2026-03-29T12:29:22.91Z</time></trkpt><trkpt lat="39.4223887" lon="17.0064873"><ele>355.0</ele><time>2026-03-29T12:29:23.908Z</time></trkpt><trkpt lat="39.4223384" lon="17.0065457"><ele>355.0</ele><time>2026-03-29T12:29:24.907Z</time></trkpt><trkpt lat="39.422285" lon="17.0066066"><ele>355.0</ele><time>2026-03-29T12:29:25.91Z</time></trkpt><trkpt lat="39.4222306" lon="17.0066714"><ele>355.0</ele><time>2026-03-29T12:29:26.908Z</time></trkpt><trkpt lat="39.4221759" lon="17.006737"><ele>355.0</ele><time>2026-03-29T12:29:27.919Z</time></trkpt><trkpt lat="39.4221215" lon="17.006797"><ele>355.0</ele><time>2026-03-29T12:29:28.913Z</time></trkpt><trkpt lat="39.4220694" lon="17.0068492"><ele>355.0</ele><time>2026-03-29T12:29:29.909Z</time></trkpt><trkpt lat="39.4219445" lon="17.0068711"><ele>351.8</ele><time>2026-03-29T12:29:31.915Z</time></trkpt><trkpt lat="39.4218668" lon="17.0068683"><ele>348.6</ele><time>2026-03-29T12:29:32.91Z</time></trkpt><trkpt lat="39.4217782" lon="17.0068793"><ele>345.4</ele><time>2026-03-29T12:29:33.912Z</time></trkpt><trkpt lat="39.4216849" lon="17.0069055"><ele>342.2</ele><time>2026-03-29T12:29:34.909Z</time></trkpt><trkpt lat="39.4215915" lon="17.0069343"><ele>339.0</ele><time>2026-03-29T12:29:35.908Z</time></trkpt><trkpt lat="39.421499" lon="17.0069355"><ele>339.0</ele><time>2026-03-29T12:29:36.909Z</time></trkpt><trkpt lat="39.4214124" lon="17.0069206"><ele>339.0</ele><time>2026-03-29T12:29:37.909Z</time></trkpt><trkpt lat="39.42134" lon="17.0069226"><ele>339.0</ele><time>2026-03-29T12:29:38.908Z</time></trkpt><trkpt lat="39.4212743" lon="17.0069395"><ele>339.0</ele><time>2026-03-29T12:29:39.908Z</time></trkpt><trkpt lat="39.4212244" lon="17.0070698"><ele>339.0</ele><time>2026-03-29T12:29:41.906Z</time></trkpt><trkpt lat="39.4212253" lon="17.007171"><ele>339.0</ele><time>2026-03-29T12:29:42.91Z</time></trkpt><trkpt lat="39.4212183" lon="17.0072814"><ele>337.1666666666667</ele><time>2026-03-29T12:29:43.917Z</time></trkpt><trkpt lat="39.4211887" lon="17.0073742"><ele>335.3333333333333</ele><time>2026-03-29T12:29:44.91Z</time></trkpt><trkpt lat="39.4211203" lon="17.0074194"><ele>333.5</ele><time>2026-03-29T12:29:45.911Z</time></trkpt><trkpt lat="39.4210412" lon="17.0074368"><ele>331.66666666666663</ele><time>2026-03-29T12:29:46.908Z</time></trkpt><trkpt lat="39.4209625" lon="17.007456"><ele>329.8333333333333</ele><time>2026-03-29T12:29:47.905Z</time></trkpt><trkpt lat="39.4208971" lon="17.0074878"><ele>328.0</ele><time>2026-03-29T12:29:48.904Z</time></trkpt><trkpt lat="39.4208255" lon="17.0075687"><ele>325.5</ele><time>2026-03-29T12:29:50.908Z</time></trkpt><trkpt lat="39.4207742" lon="17.0076749"><ele>323.0</ele><time>2026-03-29T12:29:52.906Z</time></trkpt><trkpt lat="39.4207232" lon="17.0077479"><ele>320.5</ele><time>2026-03-29T12:29:53.91Z</time></trkpt><trkpt lat="39.4206623" lon="17.0078234"><ele>318.0</ele><time>2026-03-29T12:29:54.909Z</time></trkpt><trkpt lat="39.4206" lon="17.0079007"><ele>315.5</ele><time>2026-03-29T12:29:55.913Z</time></trkpt><trkpt lat="39.4205486" lon="17.0079759"><ele>313.0</ele><time>2026-03-29T12:29:56.914Z</time></trkpt><trkpt lat="39.4204993" lon="17.0080452"><ele>310.8333333333333</ele><time>2026-03-29T12:29:57.91Z</time></trkpt><trkpt lat="39.4204526" lon="17.0081244"><ele>308.66666666666663</ele><time>2026-03-29T12:29:58.917Z</time></trkpt><trkpt lat="39.4204123" lon="17.0082041"><ele>306.5</ele><time>2026-03-29T12:29:59.911Z</time></trkpt><trkpt lat="39.4203765" lon="17.0082784"><ele>304.3333333333333</ele><time>2026-03-29T12:30:00.917Z</time></trkpt><trkpt lat="39.4203435" lon="17.0083629"><ele>302.1666666666667</ele><time>2026-03-29T12:30:01.914Z</time></trkpt><trkpt lat="39.420308" lon="17.008464"><ele>300.0</ele><time>2026-03-29T12:30:02.91Z</time></trkpt><trkpt lat="39.4202659" lon="17.0085754"><ele>300.0</ele><time>2026-03-29T12:30:03.91Z</time></trkpt><trkpt lat="39.4202075" lon="17.008684"><ele>300.0</ele><time>2026-03-29T12:30:04.918Z</time></trkpt><trkpt lat="39.4201413" lon="17.0087898"><ele>300.0</ele><time>2026-03-29T12:30:05.921Z</time></trkpt><trkpt lat="39.4200766" lon="17.0088878"><ele>300.0</ele><time>2026-03-29T12:30:06.913Z</time></trkpt><trkpt lat="39.4200177" lon="17.0089753"><ele>300.0</ele><time>2026-03-29T12:30:07.912Z</time></trkpt><trkpt lat="39.4199694" lon="17.0090404"><ele>300.0</ele><time>2026-03-29T12:30:08.918Z</time></trkpt><trkpt lat="39.4199183" lon="17.0090966"><ele>300.0</ele><time>2026-03-29T12:30:09.918Z</time></trkpt><trkpt lat="39.4198765" lon="17.0091665"><ele>300.0</ele><time>2026-03-29T12:30:10.916Z</time></trkpt><trkpt lat="39.4198446" lon="17.0092587"><ele>300.0</ele><time>2026-03-29T12:30:11.905Z</time></trkpt><trkpt lat="39.4198289" lon="17.0093609"><ele>300.0</ele><time>2026-03-29T12:30:12.907Z</time></trkpt><trkpt lat="39.4198256" lon="17.009468"><ele>300.0</ele><time>2026-03-29T12:30:13.919Z</time></trkpt><trkpt lat="39.4198326" lon="17.0095704"><ele>301.99999999999994</ele><time>2026-03-29T12:30:14.906Z</time></trkpt><trkpt lat="39.4198422" lon="17.0096679"><ele>304.0</ele><time>2026-03-29T12:30:15.91Z</time></trkpt><trkpt lat="39.4198411" lon="17.0097662"><ele>306.0</ele><time>2026-03-29T12:30:16.916Z</time></trkpt><trkpt lat="39.4198356" lon="17.0098574"><ele>308.0</ele><time>2026-03-29T12:30:17.91Z</time></trkpt><trkpt lat="39.4198063" lon="17.0099323"><ele>310.0</ele><time>2026-03-29T12:30:18.911Z</time></trkpt><trkpt lat="39.4197635" lon="17.010001"><ele>311.99999999999994</ele><time>2026-03-29T12:30:19.913Z</time></trkpt><trkpt lat="39.4197178" lon="17.0100751"><ele>314.0</ele><time>2026-03-29T12:30:20.916Z</time></trkpt><trkpt lat="39.4196763" lon="17.0101641"><ele>314.1666666666667</ele><time>2026-03-29T12:30:21.909Z</time></trkpt><trkpt lat="39.4196338" lon="17.0102631"><ele>314.33333333333337</ele><time>2026-03-29T12:30:22.914Z</time></trkpt><trkpt lat="39.4195952" lon="17.0103467"><ele>314.5</ele><time>2026-03-29T12:30:23.911Z</time></trkpt><trkpt lat="39.4195065" lon="17.010379"><ele>314.6666666666667</ele><time>2026-03-29T12:30:25.913Z</time></trkpt><trkpt lat="39.4194396" lon="17.0103572"><ele>314.8333333333333</ele><time>2026-03-29T12:30:26.916Z</time></trkpt><trkpt lat="39.419366" lon="17.0103427"><ele>315.0</ele><time>2026-03-29T12:30:27.909Z</time></trkpt><trkpt lat="39.4192984" lon="17.0103583"><ele>315.0</ele><time>2026-03-29T12:30:28.907Z</time></trkpt><trkpt lat="39.4192323" lon="17.0103858"><ele>315.0</ele><time>2026-03-29T12:30:29.904Z</time></trkpt><trkpt lat="39.4191786" lon="17.0104489"><ele>315.0</ele><time>2026-03-29T12:30:30.905Z</time></trkpt><trkpt lat="39.4191254" lon="17.0105207"><ele>315.0</ele><time>2026-03-29T12:30:31.908Z</time></trkpt><trkpt lat="39.4190812" lon="17.0106046"><ele>315.0</ele><time>2026-03-29T12:30:32.907Z</time></trkpt><trkpt lat="39.4190488" lon="17.0106933"><ele>315.0</ele><time>2026-03-29T12:30:33.91Z</time></trkpt><trkpt lat="39.4190373" lon="17.0107871"><ele>315.0</ele><time>2026-03-29T12:30:34.914Z</time></trkpt><trkpt lat="39.4190557" lon="17.0108986"><ele>314.5</ele><time>2026-03-29T12:30:35.911Z</time></trkpt><trkpt lat="39.4190788" lon="17.0110132"><ele>314.0</ele><time>2026-03-29T12:30:36.909Z</time></trkpt><trkpt lat="39.4191072" lon="17.0111141"><ele>313.5</ele><time>2026-03-29T12:30:37.912Z</time></trkpt><trkpt lat="39.4191407" lon="17.0112002"><ele>313.0</ele><time>2026-03-29T12:30:38.912Z</time></trkpt><trkpt lat="39.4191714" lon="17.0112854"><ele>312.5</ele><time>2026-03-29T12:30:39.91Z</time></trkpt><trkpt lat="39.4191992" lon="17.011368"><ele>312.0</ele><time>2026-03-29T12:30:40.913Z</time></trkpt><trkpt lat="39.4192114" lon="17.0115144"><ele>312.0</ele><time>2026-03-29T12:30:42.911Z</time></trkpt><trkpt lat="39.4191433" lon="17.0116051"><ele>312.0</ele><time>2026-03-29T12:30:44.908Z</time></trkpt><trkpt lat="39.4190735" lon="17.0116672"><ele>312.0</ele><time>2026-03-29T12:30:46.907Z</time></trkpt><trkpt lat="39.4189923" lon="17.0117081"><ele>312.0</ele><time>2026-03-29T12:30:48.907Z</time></trkpt><trkpt lat="39.4188719" lon="17.011726"><ele>312.0</ele><time>2026-03-29T12:30:50.912Z</time></trkpt><trkpt lat="39.4188063" lon="17.0117415"><ele>308.8333333333333</ele><time>2026-03-29T12:30:51.916Z</time></trkpt><trkpt lat="39.4187466" lon="17.0117744"><ele>305.6666666666667</ele><time>2026-03-29T12:30:52.905Z</time></trkpt><trkpt lat="39.4186964" lon="17.0118361"><ele>302.5</ele><time>2026-03-29T12:30:53.908Z</time></trkpt><trkpt lat="39.4186698" lon="17.0119317"><ele>299.33333333333337</ele><time>2026-03-29T12:30:54.909Z</time></trkpt><trkpt lat="39.4186542" lon="17.0120406"><ele>296.1666666666667</ele><time>2026-03-29T12:30:55.911Z</time></trkpt><trkpt lat="39.4186329" lon="17.012148"><ele>293.0</ele><time>2026-03-29T12:30:56.907Z</time></trkpt><trkpt lat="39.4186045" lon="17.0122496"><ele>293.0</ele><time>2026-03-29T12:30:57.909Z</time></trkpt><trkpt lat="39.4185547" lon="17.012333"><ele>293.0</ele><time>2026-03-29T12:30:58.91Z</time></trkpt><trkpt lat="39.4184791" lon="17.012397"><ele>293.0</ele><time>2026-03-29T12:30:59.911Z</time></trkpt><trkpt lat="39.4183806" lon="17.0124568"><ele>293.0</ele><time>2026-03-29T12:31:00.914Z</time></trkpt><trkpt lat="39.4182834" lon="17.0125122"><ele>293.0</ele><time>2026-03-29T12:31:01.907Z</time></trkpt><trkpt lat="39.4182017" lon="17.0125615"><ele>292.57142857142856</ele><time>2026-03-29T12:31:02.917Z</time></trkpt><trkpt lat="39.4181489" lon="17.0126287"><ele>292.1428571428571</ele><time>2026-03-29T12:31:03.909Z</time></trkpt><trkpt lat="39.4181022" lon="17.0127006"><ele>291.7142857142857</ele><time>2026-03-29T12:31:04.913Z</time></trkpt><trkpt lat="39.418064" lon="17.0127756"><ele>291.2857142857143</ele><time>2026-03-29T12:31:05.905Z</time></trkpt><trkpt lat="39.4180371" lon="17.0128609"><ele>290.8571428571429</ele><time>2026-03-29T12:31:06.907Z</time></trkpt><trkpt lat="39.4180207" lon="17.012952"><ele>290.42857142857144</ele><time>2026-03-29T12:31:07.907Z</time></trkpt><trkpt lat="39.4180092" lon="17.0130415"><ele>290.0</ele><time>2026-03-29T12:31:08.902Z</time></trkpt><trkpt lat="39.4179898" lon="17.0131352"><ele>288.0</ele><time>2026-03-29T12:31:09.908Z</time></trkpt><trkpt lat="39.4179542" lon="17.0132329"><ele>286.0</ele><time>2026-03-29T12:31:10.901Z</time></trkpt><trkpt lat="39.4179031" lon="17.0133324"><ele>284.0</ele><time>2026-03-29T12:31:11.904Z</time></trkpt><trkpt lat="39.4178479" lon="17.0134369"><ele>282.0</ele><time>2026-03-29T12:31:12.912Z</time></trkpt><trkpt lat="39.4177945" lon="17.0135408"><ele>280.0</ele><time>2026-03-29T12:31:13.91Z</time></trkpt><trkpt lat="39.4177463" lon="17.0136379"><ele>280.0</ele><time>2026-03-29T12:31:14.913Z</time></trkpt><trkpt lat="39.4177088" lon="17.0137363"><ele>280.0</ele><time>2026-03-29T12:31:15.912Z</time></trkpt><trkpt lat="39.4176753" lon="17.0138423"><ele>280.0</ele><time>2026-03-29T12:31:16.91Z</time></trkpt><trkpt lat="39.4176386" lon="17.0139666"><ele>280.0</ele><time>2026-03-29T12:31:17.913Z</time></trkpt><trkpt lat="39.4176012" lon="17.0140959"><ele>280.0</ele><time>2026-03-29T12:31:18.908Z</time></trkpt><trkpt lat="39.4175776" lon="17.0142199"><ele>281.5</ele><time>2026-03-29T12:31:19.907Z</time></trkpt><trkpt lat="39.4175633" lon="17.0143327"><ele>283.0</ele><time>2026-03-29T12:31:20.907Z</time></trkpt><trkpt lat="39.4175341" lon="17.0144209"><ele>284.5</ele><time>2026-03-29T12:31:21.913Z</time></trkpt><trkpt lat="39.4174887" lon="17.0144862"><ele>286.0</ele><time>2026-03-29T12:31:22.92Z</time></trkpt><trkpt lat="39.4174278" lon="17.014538"><ele>287.5</ele><time>2026-03-29T12:31:23.902Z</time></trkpt><trkpt lat="39.4173584" lon="17.0145888"><ele>289.0</ele><time>2026-03-29T12:31:24.91Z</time></trkpt><trkpt lat="39.4172846" lon="17.0146152"><ele>289.0</ele><time>2026-03-29T12:31:25.907Z</time></trkpt><trkpt lat="39.4172131" lon="17.0146321"><ele>289.0</ele><time>2026-03-29T12:31:26.918Z</time></trkpt><trkpt lat="39.4171368" lon="17.0146314"><ele>289.0</ele><time>2026-03-29T12:31:27.908Z</time></trkpt><trkpt lat="39.4170515" lon="17.0146272"><ele>289.0</ele><time>2026-03-29T12:31:28.905Z</time></trkpt><trkpt lat="39.4169601" lon="17.0146267"><ele>289.0</ele><time>2026-03-29T12:31:29.908Z</time></trkpt><trkpt lat="39.4168705" lon="17.0146463"><ele>289.0</ele><time>2026-03-29T12:31:30.905Z</time></trkpt><trkpt lat="39.4167895" lon="17.0146729"><ele>288.66666666666663</ele><time>2026-03-29T12:31:31.91Z</time></trkpt><trkpt lat="39.4167172" lon="17.0147084"><ele>288.3333333333333</ele><time>2026-03-29T12:31:32.912Z</time></trkpt><trkpt lat="39.4166429" lon="17.0147464"><ele>288.0</ele><time>2026-03-29T12:31:33.912Z</time></trkpt><trkpt lat="39.4165691" lon="17.0147912"><ele>287.6666666666667</ele><time>2026-03-29T12:31:34.908Z</time></trkpt><trkpt lat="39.416505" lon="17.0148482"><ele>287.33333333333337</ele><time>2026-03-29T12:31:35.911Z</time></trkpt><trkpt lat="39.4164577" lon="17.0149223"><ele>287.0</ele><time>2026-03-29T12:31:36.917Z</time></trkpt><trkpt lat="39.4164243" lon="17.015014"><ele>287.7142857142857</ele><time>2026-03-29T12:31:37.907Z</time></trkpt><trkpt lat="39.4163961" lon="17.0151052"><ele>288.42857142857144</ele><time>2026-03-29T12:31:38.911Z</time></trkpt><trkpt lat="39.4163861" lon="17.015198"><ele>289.1428571428571</ele><time>2026-03-29T12:31:39.908Z</time></trkpt><trkpt lat="39.4163972" lon="17.0152919"><ele>289.8571428571429</ele><time>2026-03-29T12:31:40.909Z</time></trkpt><trkpt lat="39.4164128" lon="17.0153843"><ele>290.57142857142856</ele><time>2026-03-29T12:31:41.907Z</time></trkpt><trkpt lat="39.4164116" lon="17.0154721"><ele>291.2857142857143</ele><time>2026-03-29T12:31:42.915Z</time></trkpt><trkpt lat="39.4163989" lon="17.0155524"><ele>292.0</ele><time>2026-03-29T12:31:43.906Z</time></trkpt><trkpt lat="39.416341" lon="17.0156971"><ele>292.0</ele><time>2026-03-29T12:31:45.905Z</time></trkpt><trkpt lat="39.4163329" lon="17.0157836"><ele>292.0</ele><time>2026-03-29T12:31:46.905Z</time></trkpt><trkpt lat="39.4163483" lon="17.0158714"><ele>292.0</ele><time>2026-03-29T12:31:47.904Z</time></trkpt><trkpt lat="39.4163714" lon="17.0159565"><ele>292.0</ele><time>2026-03-29T12:31:48.912Z</time></trkpt><trkpt lat="39.4163292" lon="17.0160929"><ele>292.0</ele><time>2026-03-29T12:31:50.907Z</time></trkpt><trkpt lat="39.4162849" lon="17.0161595"><ele>292.0</ele><time>2026-03-29T12:31:51.905Z</time></trkpt><trkpt lat="39.4162356" lon="17.0162273"><ele>291.0</ele><time>2026-03-29T12:31:52.915Z</time></trkpt><trkpt lat="39.4161873" lon="17.0162917"><ele>290.0</ele><time>2026-03-29T12:31:53.908Z</time></trkpt><trkpt lat="39.4161418" lon="17.0163635"><ele>289.0</ele><time>2026-03-29T12:31:54.917Z</time></trkpt><trkpt lat="39.4160978" lon="17.0164319"><ele>288.0</ele><time>2026-03-29T12:31:55.906Z</time></trkpt><trkpt lat="39.4160608" lon="17.0164999"><ele>287.0</ele><time>2026-03-29T12:31:56.91Z</time></trkpt><trkpt lat="39.4160328" lon="17.0165775"><ele>286.0</ele><time>2026-03-29T12:31:57.913Z</time></trkpt><trkpt lat="39.4160043" lon="17.0166671"><ele>285.0</ele><time>2026-03-29T12:31:58.911Z</time></trkpt><trkpt lat="39.4159673" lon="17.016755"><ele>285.0</ele><time>2026-03-29T12:31:59.906Z</time></trkpt><trkpt lat="39.4159122" lon="17.0168304"><ele>285.0</ele><time>2026-03-29T12:32:00.909Z</time></trkpt><trkpt lat="39.4158515" lon="17.0168994"><ele>285.0</ele><time>2026-03-29T12:32:01.924Z</time></trkpt><trkpt lat="39.4157832" lon="17.0169678"><ele>285.0</ele><time>2026-03-29T12:32:02.91Z</time></trkpt><trkpt lat="39.4157108" lon="17.0170351"><ele>285.0</ele><time>2026-03-29T12:32:03.921Z</time></trkpt><trkpt lat="39.4156408" lon="17.0170853"><ele>285.0</ele><time>2026-03-29T12:32:04.908Z</time></trkpt><trkpt lat="39.4155669" lon="17.0171258"><ele>285.0</ele><time>2026-03-29T12:32:05.911Z</time></trkpt><trkpt lat="39.4154904" lon="17.0171618"><ele>285.0</ele><time>2026-03-29T12:32:06.91Z</time></trkpt><trkpt lat="39.4154191" lon="17.0172139"><ele>285.0</ele><time>2026-03-29T12:32:07.912Z</time></trkpt><trkpt lat="39.4153606" lon="17.0172906"><ele>285.0</ele><time>2026-03-29T12:32:08.913Z</time></trkpt><trkpt lat="39.415308" lon="17.0173786"><ele>285.0</ele><time>2026-03-29T12:32:09.92Z</time></trkpt><trkpt lat="39.415255" lon="17.0174678"><ele>285.0</ele><time>2026-03-29T12:32:10.907Z</time></trkpt><trkpt lat="39.4152256" lon="17.0175894"><ele>280.0</ele><time>2026-03-29T12:32:11.915Z</time></trkpt><trkpt lat="39.4151982" lon="17.0177283"><ele>275.0</ele><time>2026-03-29T12:32:12.914Z</time></trkpt><trkpt lat="39.4151691" lon="17.0178746"><ele>270.0</ele><time>2026-03-29T12:32:13.922Z</time></trkpt><trkpt lat="39.4151403" lon="17.0180145"><ele>265.0</ele><time>2026-03-29T12:32:14.913Z</time></trkpt><trkpt lat="39.4151172" lon="17.018149"><ele>260.0</ele><time>2026-03-29T12:32:15.92Z</time></trkpt><trkpt lat="39.4150935" lon="17.0182693"><ele>262.0</ele><time>2026-03-29T12:32:16.91Z</time></trkpt><trkpt lat="39.4150621" lon="17.0183737"><ele>264.0</ele><time>2026-03-29T12:32:17.915Z</time></trkpt><trkpt lat="39.415023" lon="17.0184678"><ele>266.0</ele><time>2026-03-29T12:32:18.915Z</time></trkpt><trkpt lat="39.414985" lon="17.0185567"><ele>268.0</ele><time>2026-03-29T12:32:19.921Z</time></trkpt><trkpt lat="39.4149476" lon="17.0186417"><ele>270.0</ele><time>2026-03-29T12:32:20.914Z</time></trkpt><trkpt lat="39.4149113" lon="17.0187257"><ele>272.0</ele><time>2026-03-29T12:32:21.916Z</time></trkpt><trkpt lat="39.4148769" lon="17.0188119"><ele>272.0</ele><time>2026-03-29T12:32:22.915Z</time></trkpt><trkpt lat="39.4148493" lon="17.0189069"><ele>272.0</ele><time>2026-03-29T12:32:23.915Z</time></trkpt><trkpt lat="39.4148261" lon="17.0190047"><ele>272.0</ele><time>2026-03-29T12:32:24.911Z</time></trkpt><trkpt lat="39.4148228" lon="17.0191095"><ele>272.0</ele><time>2026-03-29T12:32:25.922Z</time></trkpt><trkpt lat="39.4148315" lon="17.0192129"><ele>272.0</ele><time>2026-03-29T12:32:26.912Z</time></trkpt><trkpt lat="39.414846" lon="17.01931"><ele>272.0</ele><time>2026-03-29T12:32:27.914Z</time></trkpt><trkpt lat="39.414844" lon="17.0193974"><ele>270.75</ele><time>2026-03-29T12:32:28.927Z</time></trkpt><trkpt lat="39.4147971" lon="17.0195332"><ele>269.5</ele><time>2026-03-29T12:32:30.926Z</time></trkpt><trkpt lat="39.4146949" lon="17.0196882"><ele>268.25</ele><time>2026-03-29T12:32:32.927Z</time></trkpt><trkpt lat="39.4146477" lon="17.0197935"><ele>267.0</ele><time>2026-03-29T12:32:33.919Z</time></trkpt><trkpt lat="39.4146043" lon="17.0199016"><ele>270.0</ele><time>2026-03-29T12:32:34.913Z</time></trkpt><trkpt lat="39.4145653" lon="17.0200022"><ele>273.0</ele><time>2026-03-29T12:32:35.922Z</time></trkpt><trkpt lat="39.4145374" lon="17.020103"><ele>276.0</ele><time>2026-03-29T12:32:36.927Z</time></trkpt><trkpt lat="39.4145275" lon="17.0202145"><ele>279.0</ele><time>2026-03-29T12:32:37.927Z</time></trkpt><trkpt lat="39.4145308" lon="17.0203268"><ele>282.0</ele><time>2026-03-29T12:32:38.915Z</time></trkpt><trkpt lat="39.414525" lon="17.0204405"><ele>285.0</ele><time>2026-03-29T12:32:39.923Z</time></trkpt><trkpt lat="39.414482" lon="17.0206716"><ele>285.0</ele><time>2026-03-29T12:32:41.923Z</time></trkpt><trkpt lat="39.4144554" lon="17.020793"><ele>285.0</ele><time>2026-03-29T12:32:42.91Z</time></trkpt><trkpt lat="39.4144339" lon="17.0209125"><ele>285.0</ele><time>2026-03-29T12:32:43.926Z</time></trkpt><trkpt lat="39.4144172" lon="17.0210112"><ele>285.0</ele><time>2026-03-29T12:32:44.927Z</time></trkpt><trkpt lat="39.4144222" lon="17.0211469"><ele>285.0</ele><time>2026-03-29T12:32:46.918Z</time></trkpt><trkpt lat="39.4144673" lon="17.0212244"><ele>286.5</ele><time>2026-03-29T12:32:47.915Z</time></trkpt><trkpt lat="39.4145266" lon="17.0213114"><ele>288.0</ele><time>2026-03-29T12:32:48.924Z</time></trkpt><trkpt lat="39.4145976" lon="17.021396"><ele>289.5</ele><time>2026-03-29T12:32:49.928Z</time></trkpt><trkpt lat="39.4147207" lon="17.0215676"><ele>291.0</ele><time>2026-03-29T12:32:51.928Z</time></trkpt><trkpt lat="39.4148412" lon="17.0216836"><ele>298.0</ele><time>2026-03-29T12:32:53.921Z</time></trkpt><trkpt lat="39.4149969" lon="17.021728"><ele>305.0</ele><time>2026-03-29T12:32:55.921Z</time></trkpt><trkpt lat="39.4151117" lon="17.0217788"><ele>312.0</ele><time>2026-03-29T12:32:57.916Z</time></trkpt><trkpt lat="39.4152336" lon="17.0219523"><ele>312.0</ele><time>2026-03-29T12:33:00.923Z</time></trkpt><trkpt lat="39.4152755" lon="17.0220344"><ele>312.0</ele><time>2026-03-29T12:33:01.914Z</time></trkpt><trkpt lat="39.4153184" lon="17.0221148"><ele>312.0</ele><time>2026-03-29T12:33:02.92Z</time></trkpt><trkpt lat="39.4153638" lon="17.0221892"><ele>312.0</ele><time>2026-03-29T12:33:03.921Z</time></trkpt><trkpt lat="39.4154112" lon="17.0222649"><ele>312.0</ele><time>2026-03-29T12:33:04.924Z</time></trkpt><trkpt lat="39.4154612" lon="17.0223582"><ele>312.0</ele><time>2026-03-29T12:33:05.935Z</time></trkpt><trkpt lat="39.4155175" lon="17.0224605"><ele>315.0</ele><time>2026-03-29T12:33:06.926Z</time></trkpt><trkpt lat="39.4156222" lon="17.0226391"><ele>318.0</ele><time>2026-03-29T12:33:08.92Z</time></trkpt><trkpt lat="39.4156657" lon="17.0227114"><ele>321.0</ele><time>2026-03-29T12:33:09.937Z</time></trkpt><trkpt lat="39.4157193" lon="17.0228328"><ele>324.0</ele><time>2026-03-29T12:33:11.919Z</time></trkpt><trkpt lat="39.4157532" lon="17.0229569"><ele>324.0</ele><time>2026-03-29T12:33:13.927Z</time></trkpt><trkpt lat="39.4158226" lon="17.0230762"><ele>324.0</ele><time>2026-03-29T12:33:15.927Z</time></trkpt><trkpt lat="39.4159515" lon="17.0231977"><ele>324.0</ele><time>2026-03-29T12:33:18.918Z</time></trkpt><trkpt lat="39.4160692" lon="17.0232017"><ele>324.0</ele><time>2026-03-29T12:33:20.929Z</time></trkpt><trkpt lat="39.4161454" lon="17.023179"><ele>324.0</ele><time>2026-03-29T12:33:21.925Z</time></trkpt><trkpt lat="39.4162386" lon="17.0231515"><ele>324.0</ele><time>2026-03-29T12:33:22.911Z</time></trkpt><trkpt lat="39.4163535" lon="17.023143"><ele>324.0</ele><time>2026-03-29T12:33:23.921Z</time></trkpt><trkpt lat="39.4166073" lon="17.0231643"><ele>322.75</ele><time>2026-03-29T12:33:25.928Z</time></trkpt><trkpt lat="39.4168362" lon="17.0231982"><ele>321.5</ele><time>2026-03-29T12:33:27.914Z</time></trkpt><trkpt lat="39.4169346" lon="17.0232142"><ele>320.25</ele><time>2026-03-29T12:33:28.923Z</time></trkpt><trkpt lat="39.4170311" lon="17.0232354"><ele>319.0</ele><time>2026-03-29T12:33:29.922Z</time></trkpt><trkpt lat="39.4171192" lon="17.0232549"><ele>315.2</ele><time>2026-03-29T12:33:30.938Z</time></trkpt><trkpt lat="39.4171953" lon="17.0232661"><ele>311.4</ele><time>2026-03-29T12:33:31.917Z</time></trkpt><trkpt lat="39.4173187" lon="17.0232056"><ele>307.6</ele><time>2026-03-29T12:33:33.918Z</time></trkpt><trkpt lat="39.4173891" lon="17.0231342"><ele>303.8</ele><time>2026-03-29T12:33:35.926Z</time></trkpt><trkpt lat="39.4174382" lon="17.0230516"><ele>300.0</ele><time>2026-03-29T12:33:38.922Z</time></trkpt><trkpt lat="39.4174771" lon="17.0229702"><ele>300.0</ele><time>2026-03-29T12:33:40.917Z</time></trkpt><trkpt lat="39.4175386" lon="17.0228633"><ele>300.0</ele><time>2026-03-29T12:33:42.928Z</time></trkpt><trkpt lat="39.4176367" lon="17.02279"><ele>300.0</ele><time>2026-03-29T12:33:44.917Z</time></trkpt><trkpt lat="39.4177073" lon="17.0227487"><ele>300.0</ele><time>2026-03-29T12:33:45.921Z</time></trkpt><trkpt lat="39.4177762" lon="17.0226917"><ele>300.0</ele><time>2026-03-29T12:33:46.934Z</time></trkpt><trkpt lat="39.4179211" lon="17.0226038"><ele>299.0</ele><time>2026-03-29T12:33:48.917Z</time></trkpt><trkpt lat="39.4180054" lon="17.022594"><ele>298.0</ele><time>2026-03-29T12:33:49.932Z</time></trkpt><trkpt lat="39.4180866" lon="17.0225875"><ele>297.0</ele><time>2026-03-29T12:33:50.918Z</time></trkpt><trkpt lat="39.4181624" lon="17.022557"><ele>296.0</ele><time>2026-03-29T12:33:51.913Z</time></trkpt><trkpt lat="39.4182312" lon="17.0225017"><ele>295.0</ele><time>2026-03-29T12:33:52.921Z</time></trkpt><trkpt lat="39.4182947" lon="17.02244"><ele>294.0</ele><time>2026-03-29T12:33:53.937Z</time></trkpt><trkpt lat="39.418362" lon="17.0223951"><ele>290.0</ele><time>2026-03-29T12:33:54.92Z</time></trkpt><trkpt lat="39.4185014" lon="17.0223995"><ele>286.0</ele><time>2026-03-29T12:33:56.917Z</time></trkpt><trkpt lat="39.4186906" lon="17.0224249"><ele>282.0</ele><time>2026-03-29T12:33:58.934Z</time></trkpt><trkpt lat="39.4189154" lon="17.0224772"><ele>283.75</ele><time>2026-03-29T12:34:00.921Z</time></trkpt><trkpt lat="39.4191207" lon="17.0225029"><ele>285.5</ele><time>2026-03-29T12:34:02.925Z</time></trkpt><trkpt lat="39.4192127" lon="17.022509"><ele>287.25</ele><time>2026-03-29T12:34:03.916Z</time></trkpt><trkpt lat="39.4193548" lon="17.0225253"><ele>289.0</ele><time>2026-03-29T12:34:05.92Z</time></trkpt><trkpt lat="39.4194524" lon="17.0226033"><ele>289.0</ele><time>2026-03-29T12:34:08.925Z</time></trkpt><trkpt lat="39.4195544" lon="17.0226426"><ele>289.0</ele><time>2026-03-29T12:34:11.926Z</time></trkpt><trkpt lat="39.4196697" lon="17.0226827"><ele>289.0</ele><time>2026-03-29T12:34:13.924Z</time></trkpt><trkpt lat="39.4197796" lon="17.022709"><ele>289.0</ele><time>2026-03-29T12:34:15.939Z</time></trkpt><trkpt lat="39.4198594" lon="17.0227872"><ele>289.0</ele><time>2026-03-29T12:34:18.984Z</time></trkpt><trkpt lat="39.4197846" lon="17.0229871"><ele>288.0</ele><time>2026-03-29T12:34:21.923Z</time></trkpt><trkpt lat="39.4197321" lon="17.023144"><ele>287.0</ele><time>2026-03-29T12:34:24.916Z</time></trkpt><trkpt lat="39.4197165" lon="17.0233112"><ele>286.0</ele><time>2026-03-29T12:34:27.93Z</time></trkpt><trkpt lat="39.4197284" lon="17.0233952"><ele>285.0</ele><time>2026-03-29T12:34:29.93Z</time></trkpt><trkpt lat="39.4197004" lon="17.0235327"><ele>284.0</ele><time>2026-03-29T12:34:32.917Z</time></trkpt><trkpt lat="39.4196242" lon="17.0236774"><ele>284.0</ele><time>2026-03-29T12:34:35.922Z</time></trkpt><trkpt lat="39.4194891" lon="17.0236417"><ele>284.0</ele><time>2026-03-29T12:34:38.924Z</time></trkpt><trkpt lat="39.4193857" lon="17.0236032"><ele>284.0</ele><time>2026-03-29T12:34:40.928Z</time></trkpt><trkpt lat="39.4193125" lon="17.0236195"><ele>284.0</ele><time>2026-03-29T12:34:42.936Z</time></trkpt><trkpt lat="39.4193155" lon="17.0237266"><ele>284.0</ele><time>2026-03-29T12:34:44.923Z</time></trkpt><trkpt lat="39.419351" lon="17.023803"><ele>284.0</ele><time>2026-03-29T12:34:47.928Z</time></trkpt><trkpt lat="39.4193353" lon="17.0239186"><ele>284.0</ele><time>2026-03-29T12:34:50.923Z</time></trkpt><trkpt lat="39.4193313" lon="17.0240529"><ele>284.0</ele><time>2026-03-29T12:34:53.935Z</time></trkpt><trkpt lat="39.41938" lon="17.0241489"><ele>284.0</ele><time>2026-03-29T12:34:55.944Z</time></trkpt><trkpt lat="39.4194464" lon="17.0242495"><ele>284.0</ele><time>2026-03-29T12:34:57.92Z</time></trkpt><trkpt lat="39.4195257" lon="17.0243603"><ele>278.8</ele><time>2026-03-29T12:34:59.94Z</time></trkpt><trkpt lat="39.4196195" lon="17.0245236"><ele>273.59999999999997</ele><time>2026-03-29T12:35:01.914Z</time></trkpt><trkpt lat="39.4196688" lon="17.0245948"><ele>268.4</ele><time>2026-03-29T12:35:02.909Z</time></trkpt><trkpt lat="39.4197209" lon="17.0246438"><ele>263.2</ele><time>2026-03-29T12:35:03.923Z</time></trkpt><trkpt lat="39.4198084" lon="17.0247216"><ele>258.0</ele><time>2026-03-29T12:35:05.931Z</time></trkpt><trkpt lat="39.4198923" lon="17.024808"><ele>257.4</ele><time>2026-03-29T12:35:07.922Z</time></trkpt><trkpt lat="39.4200508" lon="17.0249136"><ele>256.8</ele><time>2026-03-29T12:35:10.915Z</time></trkpt><trkpt lat="39.4201598" lon="17.0249737"><ele>256.2</ele><time>2026-03-29T12:35:12.927Z</time></trkpt><trkpt lat="39.4202173" lon="17.025018"><ele>255.6</ele><time>2026-03-29T12:35:13.927Z</time></trkpt><trkpt lat="39.4202722" lon="17.0250633"><ele>255.0</ele><time>2026-03-29T12:35:14.921Z</time></trkpt><trkpt lat="39.4203825" lon="17.0251473"><ele>249.2</ele><time>2026-03-29T12:35:16.938Z</time></trkpt><trkpt lat="39.4204928" lon="17.0251964"><ele>243.4</ele><time>2026-03-29T12:35:18.911Z</time></trkpt><trkpt lat="39.4205906" lon="17.0252049"><ele>237.60000000000002</ele><time>2026-03-29T12:35:20.927Z</time></trkpt><trkpt lat="39.4207058" lon="17.0252425"><ele>231.8</ele><time>2026-03-29T12:35:23.925Z</time></trkpt><trkpt lat="39.4207641" lon="17.0253045"><ele>226.0</ele><time>2026-03-29T12:35:25.926Z</time></trkpt><trkpt lat="39.4208094" lon="17.0253752"><ele>226.0</ele><time>2026-03-29T12:35:27.923Z</time></trkpt><trkpt lat="39.4209101" lon="17.0254662"><ele>226.00000000000003</ele><time>2026-03-29T12:35:30.916Z</time></trkpt><trkpt lat="39.4209531" lon="17.0255549"><ele>226.00000000000003</ele><time>2026-03-29T12:35:32.927Z</time></trkpt><trkpt lat="39.4209697" lon="17.0256663"><ele>226.0</ele><time>2026-03-29T12:35:34.935Z</time></trkpt><trkpt lat="39.4210215" lon="17.0257828"><ele>226.0</ele><time>2026-03-29T12:35:36.928Z</time></trkpt><trkpt lat="39.4210972" lon="17.0259005"><ele>224.99999999999997</ele><time>2026-03-29T12:35:38.926Z</time></trkpt><trkpt lat="39.4211564" lon="17.0259759"><ele>224.0</ele><time>2026-03-29T12:35:40.912Z</time></trkpt><trkpt lat="39.4212187" lon="17.0260566"><ele>223.0</ele><time>2026-03-29T12:35:43.924Z</time></trkpt><trkpt lat="39.4212717" lon="17.0261152"><ele>222.0</ele><time>2026-03-29T12:35:45.931Z</time></trkpt><trkpt lat="39.4213336" lon="17.026183"><ele>220.99999999999997</ele><time>2026-03-29T12:35:47.911Z</time></trkpt><trkpt lat="39.4213945" lon="17.02625"><ele>220.0</ele><time>2026-03-29T12:35:49.943Z</time></trkpt><trkpt lat="39.4214619" lon="17.0263181"><ele>216.5</ele><time>2026-03-29T12:35:51.91Z</time></trkpt><trkpt lat="39.4215348" lon="17.0263873"><ele>213.0</ele><time>2026-03-29T12:35:53.928Z</time></trkpt><trkpt lat="39.4216151" lon="17.0264597"><ele>209.5</ele><time>2026-03-29T12:35:55.921Z</time></trkpt><trkpt lat="39.4217107" lon="17.0265459"><ele>206.0</ele><time>2026-03-29T12:35:57.926Z</time></trkpt><trkpt lat="39.4218791" lon="17.0267013"><ele>205.33333333333334</ele><time>2026-03-29T12:36:00.922Z</time></trkpt><trkpt lat="39.4219602" lon="17.0267666"><ele>204.66666666666669</ele><time>2026-03-29T12:36:01.932Z</time></trkpt><trkpt lat="39.4221553" lon="17.0269121"><ele>204.0</ele><time>2026-03-29T12:36:03.939Z</time></trkpt><trkpt lat="39.4223545" lon="17.0270432"><ele>203.16666666666666</ele><time>2026-03-29T12:36:05.93Z</time></trkpt><trkpt lat="39.4224533" lon="17.0270976"><ele>202.33333333333331</ele><time>2026-03-29T12:36:06.944Z</time></trkpt><trkpt lat="39.4225387" lon="17.027153"><ele>201.5</ele><time>2026-03-29T12:36:07.929Z</time></trkpt><trkpt lat="39.4226035" lon="17.0272166"><ele>200.66666666666666</ele><time>2026-03-29T12:36:08.916Z</time></trkpt><trkpt lat="39.4226456" lon="17.0272955"><ele>199.83333333333331</ele><time>2026-03-29T12:36:09.931Z</time></trkpt><trkpt lat="39.422671" lon="17.027395"><ele>199.0</ele><time>2026-03-29T12:36:10.944Z</time></trkpt><trkpt lat="39.422691" lon="17.0275004"><ele>199.0</ele><time>2026-03-29T12:36:11.928Z</time></trkpt><trkpt lat="39.4227351" lon="17.0276945"><ele>199.0</ele><time>2026-03-29T12:36:13.922Z</time></trkpt><trkpt lat="39.4227636" lon="17.0278832"><ele>199.0</ele><time>2026-03-29T12:36:15.935Z</time></trkpt><trkpt lat="39.4227677" lon="17.0279674"><ele>199.0</ele><time>2026-03-29T12:36:16.998Z</time></trkpt><trkpt lat="39.4227476" lon="17.0280545"><ele>199.0</ele><time>2026-03-29T12:36:17.946Z</time></trkpt><trkpt lat="39.4227356" lon="17.028153"><ele>198.99999999999997</ele><time>2026-03-29T12:36:18.961Z</time></trkpt><trkpt lat="39.4227472" lon="17.0282463"><ele>199.0</ele><time>2026-03-29T12:36:19.937Z</time></trkpt><trkpt lat="39.4227849" lon="17.0283358"><ele>199.0</ele><time>2026-03-29T12:36:20.934Z</time></trkpt><trkpt lat="39.4228537" lon="17.0284188"><ele>199.0</ele><time>2026-03-29T12:36:21.923Z</time></trkpt><trkpt lat="39.4229272" lon="17.0284969"><ele>198.99999999999997</ele><time>2026-03-29T12:36:22.933Z</time></trkpt><trkpt lat="39.4230029" lon="17.0285713"><ele>199.0</ele><time>2026-03-29T12:36:23.94Z</time></trkpt><trkpt lat="39.4230768" lon="17.0286444"><ele>200.5</ele><time>2026-03-29T12:36:24.933Z</time></trkpt><trkpt lat="39.423164" lon="17.0287095"><ele>202.0</ele><time>2026-03-29T12:36:25.93Z</time></trkpt><trkpt lat="39.4233533" lon="17.0288377"><ele>203.5</ele><time>2026-03-29T12:36:27.938Z</time></trkpt><trkpt lat="39.423449" lon="17.0289076"><ele>205.0</ele><time>2026-03-29T12:36:28.938Z</time></trkpt><trkpt lat="39.4235432" lon="17.0289771"><ele>205.0</ele><time>2026-03-29T12:36:29.935Z</time></trkpt><trkpt lat="39.4236345" lon="17.029038"><ele>205.0</ele><time>2026-03-29T12:36:30.933Z</time></trkpt><trkpt lat="39.4237259" lon="17.0290855"><ele>205.0</ele><time>2026-03-29T12:36:31.931Z</time></trkpt><trkpt lat="39.4238965" lon="17.0291402"><ele>205.0</ele><time>2026-03-29T12:36:33.92Z</time></trkpt><trkpt lat="39.4240428" lon="17.0291686"><ele>201.25</ele><time>2026-03-29T12:36:35.927Z</time></trkpt><trkpt lat="39.4241658" lon="17.0292114"><ele>197.5</ele><time>2026-03-29T12:36:37.927Z</time></trkpt><trkpt lat="39.4242603" lon="17.0293181"><ele>193.75</ele><time>2026-03-29T12:36:39.936Z</time></trkpt><trkpt lat="39.4243424" lon="17.0295455"><ele>190.0</ele><time>2026-03-29T12:36:42.914Z</time></trkpt><trkpt lat="39.4243769" lon="17.029639"><ele>190.0</ele><time>2026-03-29T12:36:43.927Z</time></trkpt><trkpt lat="39.424474" lon="17.0298254"><ele>190.0</ele><time>2026-03-29T12:36:45.924Z</time></trkpt><trkpt lat="39.4245813" lon="17.030006"><ele>190.0</ele><time>2026-03-29T12:36:47.933Z</time></trkpt><trkpt lat="39.4246493" lon="17.0300774"><ele>190.0</ele><time>2026-03-29T12:36:48.93Z</time></trkpt><trkpt lat="39.424806" lon="17.0301922"><ele>182.0</ele><time>2026-03-29T12:36:50.933Z</time></trkpt><trkpt lat="39.4248879" lon="17.0302343"><ele>174.0</ele><time>2026-03-29T12:36:51.921Z</time></trkpt><trkpt lat="39.4250584" lon="17.0303097"><ele>166.0</ele><time>2026-03-29T12:36:53.912Z</time></trkpt><trkpt lat="39.4252332" lon="17.0303965"><ele>166.0</ele><time>2026-03-29T12:36:55.925Z</time></trkpt><trkpt lat="39.4254012" lon="17.0305063"><ele>166.0</ele><time>2026-03-29T12:36:57.922Z</time></trkpt><trkpt lat="39.4254761" lon="17.0305779"><ele>166.0</ele><time>2026-03-29T12:36:58.917Z</time></trkpt><trkpt lat="39.4255409" lon="17.0306659"><ele>166.0</ele><time>2026-03-29T12:36:59.924Z</time></trkpt><trkpt lat="39.4256348" lon="17.0308813"><ele>167.0</ele><time>2026-03-29T12:37:01.931Z</time></trkpt><trkpt lat="39.4257169" lon="17.0311149"><ele>168.0</ele><time>2026-03-29T12:37:03.929Z</time></trkpt><trkpt lat="39.4257591" lon="17.0312349"><ele>169.0</ele><time>2026-03-29T12:37:04.933Z</time></trkpt><trkpt lat="39.4258489" lon="17.0314701"><ele>169.0</ele><time>2026-03-29T12:37:06.915Z</time></trkpt><trkpt lat="39.4258846" lon="17.0315879"><ele>169.0</ele><time>2026-03-29T12:37:07.921Z</time></trkpt><trkpt lat="39.4259355" lon="17.0318188"><ele>169.0</ele><time>2026-03-29T12:37:09.924Z</time></trkpt><trkpt lat="39.4259642" lon="17.0320275"><ele>169.0</ele><time>2026-03-29T12:37:11.928Z</time></trkpt><trkpt lat="39.4259819" lon="17.0321188"><ele>167.0</ele><time>2026-03-29T12:37:12.933Z</time></trkpt><trkpt lat="39.4260317" lon="17.0322962"><ele>165.0</ele><time>2026-03-29T12:37:14.934Z</time></trkpt><trkpt lat="39.4260612" lon="17.0323856"><ele>163.0</ele><time>2026-03-29T12:37:15.932Z</time></trkpt><trkpt lat="39.426127" lon="17.0325784"><ele>161.0</ele><time>2026-03-29T12:37:17.918Z</time></trkpt><trkpt lat="39.4261721" lon="17.0326626"><ele>160.66666666666666</ele><time>2026-03-29T12:37:18.945Z</time></trkpt><trkpt lat="39.4262275" lon="17.0327202"><ele>160.33333333333331</ele><time>2026-03-29T12:37:19.923Z</time></trkpt><trkpt lat="39.4262936" lon="17.0327623"><ele>160.0</ele><time>2026-03-29T12:37:20.931Z</time></trkpt><trkpt lat="39.4263696" lon="17.0327996"><ele>159.66666666666666</ele><time>2026-03-29T12:37:21.929Z</time></trkpt><trkpt lat="39.4264562" lon="17.0328417"><ele>159.33333333333334</ele><time>2026-03-29T12:37:22.927Z</time></trkpt><trkpt lat="39.4265495" lon="17.0328839"><ele>159.0</ele><time>2026-03-29T12:37:23.917Z</time></trkpt><trkpt lat="39.4266462" lon="17.0329244"><ele>159.0</ele><time>2026-03-29T12:37:24.928Z</time></trkpt><trkpt lat="39.4268355" lon="17.0329517"><ele>159.0</ele><time>2026-03-29T12:37:26.914Z</time></trkpt><trkpt lat="39.4269289" lon="17.0329506"><ele>159.0</ele><time>2026-03-29T12:37:27.927Z</time></trkpt><trkpt lat="39.4270196" lon="17.0329695"><ele>159.0</ele><time>2026-03-29T12:37:28.922Z</time></trkpt><trkpt lat="39.4271084" lon="17.0330104"><ele>154.0</ele><time>2026-03-29T12:37:29.923Z</time></trkpt><trkpt lat="39.4271963" lon="17.0330649"><ele>149.0</ele><time>2026-03-29T12:37:30.916Z</time></trkpt><trkpt lat="39.4272818" lon="17.0331327"><ele>144.0</ele><time>2026-03-29T12:37:31.928Z</time></trkpt><trkpt lat="39.4274368" lon="17.0332904"><ele>139.0</ele><time>2026-03-29T12:37:33.924Z</time></trkpt><trkpt lat="39.4275621" lon="17.033455"><ele>136.8</ele><time>2026-03-29T12:37:35.923Z</time></trkpt><trkpt lat="39.4276015" lon="17.0335506"><ele>134.60000000000002</ele><time>2026-03-29T12:37:36.93Z</time></trkpt><trkpt lat="39.4276239" lon="17.033653"><ele>132.4</ele><time>2026-03-29T12:37:37.926Z</time></trkpt><trkpt lat="39.4276577" lon="17.0338635"><ele>130.20000000000002</ele><time>2026-03-29T12:37:39.943Z</time></trkpt><trkpt lat="39.4276774" lon="17.0339665"><ele>128.0</ele><time>2026-03-29T12:37:40.921Z</time></trkpt><trkpt lat="39.4277494" lon="17.0342634"><ele>126.0</ele><time>2026-03-29T12:37:43.922Z</time></trkpt><trkpt lat="39.4277834" lon="17.0343531"><ele>124.00000000000001</ele><time>2026-03-29T12:37:44.926Z</time></trkpt><trkpt lat="39.4278554" lon="17.0345152"><ele>122.00000000000001</ele><time>2026-03-29T12:37:46.922Z</time></trkpt><trkpt lat="39.4279391" lon="17.034667"><ele>120.0</ele><time>2026-03-29T12:37:48.926Z</time></trkpt><trkpt lat="39.4279979" lon="17.0347278"><ele>118.0</ele><time>2026-03-29T12:37:49.929Z</time></trkpt><trkpt lat="39.4281416" lon="17.0347861"><ele>116.80000000000001</ele><time>2026-03-29T12:37:51.924Z</time></trkpt><trkpt lat="39.4282745" lon="17.0348338"><ele>115.60000000000001</ele><time>2026-03-29T12:37:53.933Z</time></trkpt><trkpt lat="39.4283709" lon="17.0349746"><ele>114.39999999999999</ele><time>2026-03-29T12:37:55.916Z</time></trkpt><trkpt lat="39.4284173" lon="17.0350556"><ele>113.19999999999999</ele><time>2026-03-29T12:37:56.919Z</time></trkpt><trkpt lat="39.4284569" lon="17.035138"><ele>112.0</ele><time>2026-03-29T12:37:57.92Z</time></trkpt><trkpt lat="39.4284926" lon="17.0353395"><ele>112.0</ele><time>2026-03-29T12:37:59.934Z</time></trkpt><trkpt lat="39.4285428" lon="17.0355422"><ele>112.0</ele><time>2026-03-29T12:38:01.932Z</time></trkpt><trkpt lat="39.4285997" lon="17.0357094"><ele>112.0</ele><time>2026-03-29T12:38:03.922Z</time></trkpt><trkpt lat="39.4286094" lon="17.0358612"><ele>112.0</ele><time>2026-03-29T12:38:05.929Z</time></trkpt><trkpt lat="39.4286166" lon="17.0360164"><ele>111.50000000000001</ele><time>2026-03-29T12:38:07.926Z</time></trkpt><trkpt lat="39.4286173" lon="17.0361074"><ele>111.0</ele><time>2026-03-29T12:38:08.94Z</time></trkpt><trkpt lat="39.4286076" lon="17.0362056"><ele>110.5</ele><time>2026-03-29T12:38:09.922Z</time></trkpt><trkpt lat="39.4285799" lon="17.0363054"><ele>110.0</ele><time>2026-03-29T12:38:10.937Z</time></trkpt><trkpt lat="39.428544" lon="17.0364042"><ele>109.50000000000001</ele><time>2026-03-29T12:38:11.923Z</time></trkpt><trkpt lat="39.4285259" lon="17.0365022"><ele>109.0</ele><time>2026-03-29T12:38:12.937Z</time></trkpt><trkpt lat="39.4285373" lon="17.036593"><ele>107.80000000000001</ele><time>2026-03-29T12:38:13.927Z</time></trkpt><trkpt lat="39.4285637" lon="17.0366826"><ele>106.60000000000001</ele><time>2026-03-29T12:38:14.928Z</time></trkpt><trkpt lat="39.4286172" lon="17.0367571"><ele>105.4</ele><time>2026-03-29T12:38:15.948Z</time></trkpt><trkpt lat="39.4287402" lon="17.0369045"><ele>104.2</ele><time>2026-03-29T12:38:17.918Z</time></trkpt><trkpt lat="39.4287983" lon="17.0369738"><ele>103.0</ele><time>2026-03-29T12:38:18.922Z</time></trkpt><trkpt lat="39.4288456" lon="17.0370471"><ele>103.0</ele><time>2026-03-29T12:38:19.925Z</time></trkpt><trkpt lat="39.4288939" lon="17.0372187"><ele>103.0</ele><time>2026-03-29T12:38:21.938Z</time></trkpt><trkpt lat="39.4288781" lon="17.0373019"><ele>103.0</ele><time>2026-03-29T12:38:22.926Z</time></trkpt><trkpt lat="39.4288385" lon="17.0373716"><ele>103.0</ele><time>2026-03-29T12:38:23.925Z</time></trkpt><trkpt lat="39.4287919" lon="17.0374391"><ele>103.0</ele><time>2026-03-29T12:38:24.934Z</time></trkpt><trkpt lat="39.4287608" lon="17.0375879"><ele>100.5</ele><time>2026-03-29T12:38:26.923Z</time></trkpt><trkpt lat="39.4288551" lon="17.0377145"><ele>98.0</ele><time>2026-03-29T12:38:28.943Z</time></trkpt><trkpt lat="39.4289925" lon="17.0378455"><ele>95.5</ele><time>2026-03-29T12:38:30.926Z</time></trkpt><trkpt lat="39.4290667" lon="17.0379112"><ele>93.0</ele><time>2026-03-29T12:38:31.932Z</time></trkpt><trkpt lat="39.4291459" lon="17.037965"><ele>93.0</ele><time>2026-03-29T12:38:32.93Z</time></trkpt><trkpt lat="39.4293201" lon="17.0380345"><ele>93.0</ele><time>2026-03-29T12:38:34.918Z</time></trkpt><trkpt lat="39.4295092" lon="17.0381022"><ele>93.0</ele><time>2026-03-29T12:38:36.933Z</time></trkpt><trkpt lat="39.42961" lon="17.0381381"><ele>89.75</ele><time>2026-03-29T12:38:37.941Z</time></trkpt><trkpt lat="39.4297909" lon="17.0382398"><ele>86.5</ele><time>2026-03-29T12:38:39.931Z</time></trkpt><trkpt lat="39.4298524" lon="17.0383213"><ele>83.25</ele><time>2026-03-29T12:38:40.919Z</time></trkpt><trkpt lat="39.4299052" lon="17.0384103"><ele>80.0</ele><time>2026-03-29T12:38:41.936Z</time></trkpt><trkpt lat="39.4300062" lon="17.038607"><ele>80.25</ele><time>2026-03-29T12:38:43.919Z</time></trkpt><trkpt lat="39.4300903" lon="17.0388526"><ele>80.5</ele><time>2026-03-29T12:38:45.926Z</time></trkpt><trkpt lat="39.4301213" lon="17.0389867"><ele>80.75</ele><time>2026-03-29T12:38:46.926Z</time></trkpt><trkpt lat="39.4301434" lon="17.0391243"><ele>81.0</ele><time>2026-03-29T12:38:47.917Z</time></trkpt><trkpt lat="39.4301602" lon="17.0392614"><ele>81.0</ele><time>2026-03-29T12:38:48.927Z</time></trkpt><trkpt lat="39.4301711" lon="17.0393979"><ele>81.0</ele><time>2026-03-29T12:38:49.931Z</time></trkpt><trkpt lat="39.4301703" lon="17.0396353"><ele>81.0</ele><time>2026-03-29T12:38:51.915Z</time></trkpt><trkpt lat="39.4301881" lon="17.0397253"><ele>81.0</ele><time>2026-03-29T12:38:52.927Z</time></trkpt><trkpt lat="39.4302275" lon="17.0397913"><ele>81.0</ele><time>2026-03-29T12:38:53.921Z</time></trkpt><trkpt lat="39.4302932" lon="17.039837"><ele>81.0</ele><time>2026-03-29T12:38:54.92Z</time></trkpt><trkpt lat="39.4303738" lon="17.0398774"><ele>81.0</ele><time>2026-03-29T12:38:55.934Z</time></trkpt><trkpt lat="39.4304561" lon="17.0399292"><ele>81.0</ele><time>2026-03-29T12:38:56.935Z</time></trkpt><trkpt lat="39.4305168" lon="17.0400212"><ele>81.0</ele><time>2026-03-29T12:38:57.922Z</time></trkpt><trkpt lat="39.430554" lon="17.0401206"><ele>81.0</ele><time>2026-03-29T12:38:58.923Z</time></trkpt><trkpt lat="39.4305417" lon="17.0402201"><ele>81.0</ele><time>2026-03-29T12:38:59.928Z</time></trkpt><trkpt lat="39.4303892" lon="17.0404663"><ele>80.6</ele><time>2026-03-29T12:39:02.922Z</time></trkpt><trkpt lat="39.4303428" lon="17.0405809"><ele>80.19999999999999</ele><time>2026-03-29T12:39:03.929Z</time></trkpt><trkpt lat="39.4303145" lon="17.0406976"><ele>79.80000000000001</ele><time>2026-03-29T12:39:04.926Z</time></trkpt><trkpt lat="39.4303066" lon="17.0408072"><ele>79.4</ele><time>2026-03-29T12:39:05.926Z</time></trkpt><trkpt lat="39.4303092" lon="17.0409054"><ele>79.0</ele><time>2026-03-29T12:39:06.92Z</time></trkpt><trkpt lat="39.4302942" lon="17.0410927"><ele>78.75</ele><time>2026-03-29T12:39:08.922Z</time></trkpt><trkpt lat="39.4302647" lon="17.0411975"><ele>78.5</ele><time>2026-03-29T12:39:09.937Z</time></trkpt><trkpt lat="39.4302345" lon="17.0413116"><ele>78.25</ele><time>2026-03-29T12:39:10.922Z</time></trkpt><trkpt lat="39.4302004" lon="17.0414369"><ele>78.0</ele><time>2026-03-29T12:39:11.943Z</time></trkpt><trkpt lat="39.4301385" lon="17.0416857"><ele>77.75</ele><time>2026-03-29T12:39:13.92Z</time></trkpt><trkpt lat="39.4301079" lon="17.041814"><ele>77.5</ele><time>2026-03-29T12:39:14.924Z</time></trkpt><trkpt lat="39.4300781" lon="17.04194"><ele>77.25</ele><time>2026-03-29T12:39:15.926Z</time></trkpt><trkpt lat="39.430025" lon="17.0421778"><ele>77.0</ele><time>2026-03-29T12:39:17.924Z</time></trkpt><trkpt lat="39.430011" lon="17.0422958"><ele>77.0</ele><time>2026-03-29T12:39:18.925Z</time></trkpt><trkpt lat="39.4300019" lon="17.0424109"><ele>77.0</ele><time>2026-03-29T12:39:19.937Z</time></trkpt><trkpt lat="39.4299961" lon="17.042523"><ele>77.0</ele><time>2026-03-29T12:39:20.946Z</time></trkpt><trkpt lat="39.4299875" lon="17.0426341"><ele>77.0</ele><time>2026-03-29T12:39:21.921Z</time></trkpt><trkpt lat="39.4299744" lon="17.04287"><ele>77.0</ele><time>2026-03-29T12:39:23.94Z</time></trkpt><trkpt lat="39.429975" lon="17.042992"><ele>77.0</ele><time>2026-03-29T12:39:24.948Z</time></trkpt><trkpt lat="39.4299829" lon="17.0431173"><ele>77.0</ele><time>2026-03-29T12:39:25.93Z</time></trkpt><trkpt lat="39.4300008" lon="17.0432423"><ele>77.0</ele><time>2026-03-29T12:39:26.915Z</time></trkpt><trkpt lat="39.4300347" lon="17.043362"><ele>77.0</ele><time>2026-03-29T12:39:27.942Z</time></trkpt><trkpt lat="39.4301466" lon="17.0435663"><ele>76.0</ele><time>2026-03-29T12:39:29.923Z</time></trkpt><trkpt lat="39.4302156" lon="17.0436655"><ele>75.0</ele><time>2026-03-29T12:39:30.931Z</time></trkpt><trkpt lat="39.4303387" lon="17.0438662"><ele>74.0</ele><time>2026-03-29T12:39:32.921Z</time></trkpt><trkpt lat="39.4303904" lon="17.0439614"><ele>73.0</ele><time>2026-03-29T12:39:33.928Z</time></trkpt><trkpt lat="39.4304418" lon="17.044057"><ele>72.4</ele><time>2026-03-29T12:39:34.929Z</time></trkpt><trkpt lat="39.4304872" lon="17.0441609"><ele>71.8</ele><time>2026-03-29T12:39:35.927Z</time></trkpt><trkpt lat="39.430528" lon="17.0442686"><ele>71.2</ele><time>2026-03-29T12:39:36.929Z</time></trkpt><trkpt lat="39.4305676" lon="17.0443806"><ele>70.6</ele><time>2026-03-29T12:39:37.941Z</time></trkpt><trkpt lat="39.4306102" lon="17.044494"><ele>70.0</ele><time>2026-03-29T12:39:38.935Z</time></trkpt><trkpt lat="39.4306876" lon="17.0446883"><ele>70.0</ele><time>2026-03-29T12:39:40.931Z</time></trkpt><trkpt lat="39.4308163" lon="17.0447806"><ele>70.0</ele><time>2026-03-29T12:39:43.927Z</time></trkpt><trkpt lat="39.4309503" lon="17.0448169"><ele>70.0</ele><time>2026-03-29T12:39:45.95Z</time></trkpt><trkpt lat="39.4310935" lon="17.0448585"><ele>70.0</ele><time>2026-03-29T12:39:47.929Z</time></trkpt><trkpt lat="39.4311663" lon="17.0448809"><ele>70.0</ele><time>2026-03-29T12:39:48.936Z</time></trkpt><trkpt lat="39.4312391" lon="17.0448995"><ele>70.0</ele><time>2026-03-29T12:39:49.925Z</time></trkpt><trkpt lat="39.4313095" lon="17.0449205"><ele>70.0</ele><time>2026-03-29T12:39:50.924Z</time></trkpt><trkpt lat="39.4313768" lon="17.0449448"><ele>70.0</ele><time>2026-03-29T12:39:51.938Z</time></trkpt><trkpt lat="39.4314423" lon="17.0449653"><ele>70.0</ele><time>2026-03-29T12:39:52.934Z</time></trkpt><trkpt lat="39.4315103" lon="17.0449845"><ele>70.0</ele><time>2026-03-29T12:39:53.932Z</time></trkpt><trkpt lat="39.4315799" lon="17.0450048"><ele>70.0</ele><time>2026-03-29T12:39:54.932Z</time></trkpt><trkpt lat="39.4317252" lon="17.0450304"><ele>69.16666666666666</ele><time>2026-03-29T12:39:56.934Z</time></trkpt><trkpt lat="39.4317901" lon="17.0450481"><ele>68.33333333333333</ele><time>2026-03-29T12:39:57.931Z</time></trkpt><trkpt lat="39.4318896" lon="17.0451336"><ele>67.5</ele><time>2026-03-29T12:39:59.929Z</time></trkpt><trkpt lat="39.4319292" lon="17.0452039"><ele>66.66666666666667</ele><time>2026-03-29T12:40:00.932Z</time></trkpt><trkpt lat="39.4319688" lon="17.0452829"><ele>65.83333333333334</ele><time>2026-03-29T12:40:01.922Z</time></trkpt><trkpt lat="39.4320135" lon="17.0453634"><ele>65.0</ele><time>2026-03-29T12:40:02.935Z</time></trkpt><trkpt lat="39.4321059" lon="17.0455184"><ele>63.6</ele><time>2026-03-29T12:40:04.928Z</time></trkpt><trkpt lat="39.4321556" lon="17.0455922"><ele>62.2</ele><time>2026-03-29T12:40:05.945Z</time></trkpt><trkpt lat="39.4322048" lon="17.0456632"><ele>60.8</ele><time>2026-03-29T12:40:06.928Z</time></trkpt><trkpt lat="39.4322539" lon="17.0457388"><ele>59.4</ele><time>2026-03-29T12:40:07.943Z</time></trkpt><trkpt lat="39.4323575" lon="17.0458944"><ele>58.0</ele><time>2026-03-29T12:40:09.937Z</time></trkpt><trkpt lat="39.4324563" lon="17.0460695"><ele>58.0</ele><time>2026-03-29T12:40:11.93Z</time></trkpt><trkpt lat="39.4325005" lon="17.0461619"><ele>58.0</ele><time>2026-03-29T12:40:12.923Z</time></trkpt><trkpt lat="39.4325458" lon="17.046251"><ele>58.0</ele><time>2026-03-29T12:40:13.923Z</time></trkpt><trkpt lat="39.4326392" lon="17.0464095"><ele>58.0</ele><time>2026-03-29T12:40:15.935Z</time></trkpt><trkpt lat="39.4327319" lon="17.0465283"><ele>57.99999999999999</ele><time>2026-03-29T12:40:17.916Z</time></trkpt><trkpt lat="39.4328089" lon="17.0466107"><ele>58.0</ele><time>2026-03-29T12:40:19.92Z</time></trkpt><trkpt lat="39.4328809" lon="17.0466977"><ele>58.0</ele><time>2026-03-29T12:40:21.93Z</time></trkpt><trkpt lat="39.432928" lon="17.0467524"><ele>58.0</ele><time>2026-03-29T12:40:22.927Z</time></trkpt><trkpt lat="39.4329862" lon="17.0468161"><ele>57.99999999999999</ele><time>2026-03-29T12:40:23.921Z</time></trkpt><trkpt lat="39.4330492" lon="17.0468884"><ele>58.0</ele><time>2026-03-29T12:40:24.93Z</time></trkpt><trkpt lat="39.4331146" lon="17.0469606"><ele>56.75</ele><time>2026-03-29T12:40:25.931Z</time></trkpt><trkpt lat="39.4331835" lon="17.0470315"><ele>55.5</ele><time>2026-03-29T12:40:26.935Z</time></trkpt><trkpt lat="39.4333278" lon="17.0471721"><ele>54.25</ele><time>2026-03-29T12:40:28.937Z</time></trkpt><trkpt lat="39.4334801" lon="17.0472877"><ele>53.0</ele><time>2026-03-29T12:40:30.912Z</time></trkpt><trkpt lat="39.4335636" lon="17.0473277"><ele>53.0</ele><time>2026-03-29T12:40:31.925Z</time></trkpt><trkpt lat="39.4336472" lon="17.0473646"><ele>53.0</ele><time>2026-03-29T12:40:32.938Z</time></trkpt><trkpt lat="39.4337264" lon="17.0473981"><ele>53.0</ele><time>2026-03-29T12:40:33.92Z</time></trkpt><trkpt lat="39.4338713" lon="17.0474556"><ele>53.0</ele><time>2026-03-29T12:40:35.925Z</time></trkpt><trkpt lat="39.4339775" lon="17.0475421"><ele>53.0</ele><time>2026-03-29T12:40:37.938Z</time></trkpt><trkpt lat="39.4340224" lon="17.047645"><ele>53.25</ele><time>2026-03-29T12:40:39.917Z</time></trkpt><trkpt lat="39.434073" lon="17.0477653"><ele>53.5</ele><time>2026-03-29T12:40:41.928Z</time></trkpt><trkpt lat="39.4340934" lon="17.0479187"><ele>53.75</ele><time>2026-03-29T12:40:43.919Z</time></trkpt><trkpt lat="39.4340781" lon="17.0480854"><ele>54.0</ele><time>2026-03-29T12:40:45.921Z</time></trkpt><trkpt lat="39.4340942" lon="17.0482363"><ele>54.25</ele><time>2026-03-29T12:40:47.921Z</time></trkpt><trkpt lat="39.4342111" lon="17.0484556"><ele>54.5</ele><time>2026-03-29T12:40:50.937Z</time></trkpt><trkpt lat="39.4342604" lon="17.0485393"><ele>54.75</ele><time>2026-03-29T12:40:51.944Z</time></trkpt><trkpt lat="39.4343037" lon="17.0486144"><ele>55.0</ele><time>2026-03-29T12:40:52.944Z</time></trkpt><trkpt lat="39.4343641" lon="17.0487166"><ele>54.99999999999999</ele><time>2026-03-29T12:40:54.921Z</time></trkpt><trkpt lat="39.4344424" lon="17.0488385"><ele>55.0</ele><time>2026-03-29T12:40:57.93Z</time></trkpt><trkpt lat="39.4344829" lon="17.0489028"><ele>55.0</ele><time>2026-03-29T12:40:58.933Z</time></trkpt><trkpt lat="39.4345272" lon="17.0489724"><ele>55.0</ele><time>2026-03-29T12:40:59.926Z</time></trkpt><trkpt lat="39.4345733" lon="17.049044"><ele>54.99999999999999</ele><time>2026-03-29T12:41:00.934Z</time></trkpt><trkpt lat="39.4346178" lon="17.0491161"><ele>55.0</ele><time>2026-03-29T12:41:01.92Z</time></trkpt><trkpt lat="39.4347083" lon="17.0492613"><ele>51.75</ele><time>2026-03-29T12:41:03.929Z</time></trkpt><trkpt lat="39.4347555" lon="17.0493338"><ele>48.5</ele><time>2026-03-29T12:41:04.924Z</time></trkpt><trkpt lat="39.4348393" lon="17.0494882"><ele>45.25</ele><time>2026-03-29T12:41:06.933Z</time></trkpt><trkpt lat="39.4348786" lon="17.0495726"><ele>42.0</ele><time>2026-03-29T12:41:07.928Z</time></trkpt><trkpt lat="39.4349745" lon="17.0497597"><ele>42.0</ele><time>2026-03-29T12:41:09.937Z</time></trkpt><trkpt lat="39.4350296" lon="17.0498527"><ele>42.0</ele><time>2026-03-29T12:41:10.925Z</time></trkpt><trkpt lat="39.4350877" lon="17.0499404"><ele>42.0</ele><time>2026-03-29T12:41:11.918Z</time></trkpt><trkpt lat="39.4351711" lon="17.0500002"><ele>42.0</ele><time>2026-03-29T12:41:12.929Z</time></trkpt><trkpt lat="39.435264" lon="17.0500463"><ele>42.0</ele><time>2026-03-29T12:41:13.929Z</time></trkpt><trkpt lat="39.4353599" lon="17.0500891"><ele>36.333333333333336</ele><time>2026-03-29T12:41:14.93Z</time></trkpt><trkpt lat="39.4355488" lon="17.0501763"><ele>30.666666666666668</ele><time>2026-03-29T12:41:16.926Z</time></trkpt><trkpt lat="39.4357399" lon="17.0502818"><ele>25.0</ele><time>2026-03-29T12:41:18.934Z</time></trkpt><trkpt lat="39.4359353" lon="17.0503865"><ele>25.0</ele><time>2026-03-29T12:41:20.919Z</time></trkpt><trkpt lat="39.4360366" lon="17.0504299"><ele>25.0</ele><time>2026-03-29T12:41:21.918Z</time></trkpt><trkpt lat="39.4361353" lon="17.0504798"><ele>25.0</ele><time>2026-03-29T12:41:22.927Z</time></trkpt><trkpt lat="39.4363155" lon="17.0506184"><ele>25.0</ele><time>2026-03-29T12:41:24.922Z</time></trkpt><trkpt lat="39.4364008" lon="17.0506979"><ele>23.75</ele><time>2026-03-29T12:41:25.932Z</time></trkpt><trkpt lat="39.4364872" lon="17.0507752"><ele>22.5</ele><time>2026-03-29T12:41:26.93Z</time></trkpt><trkpt lat="39.4365757" lon="17.0508486"><ele>21.25</ele><time>2026-03-29T12:41:27.938Z</time></trkpt><trkpt lat="39.4367502" lon="17.0509956"><ele>20.0</ele><time>2026-03-29T12:41:29.917Z</time></trkpt><trkpt lat="39.4368389" lon="17.0510661"><ele>20.0</ele><time>2026-03-29T12:41:30.94Z</time></trkpt><trkpt lat="39.436918" lon="17.0511293"><ele>20.0</ele><time>2026-03-29T12:41:31.93Z</time></trkpt><trkpt lat="39.4369897" lon="17.0511761"><ele>20.0</ele><time>2026-03-29T12:41:32.928Z</time></trkpt><trkpt lat="39.4370624" lon="17.0512122"><ele>20.0</ele><time>2026-03-29T12:41:33.928Z</time></trkpt><trkpt lat="39.4371394" lon="17.0512488"><ele>20.0</ele><time>2026-03-29T12:41:34.927Z</time></trkpt><trkpt lat="39.43722" lon="17.051289"><ele>20.0</ele><time>2026-03-29T12:41:35.929Z</time></trkpt><trkpt lat="39.4373866" lon="17.0513784"><ele>19.6</ele><time>2026-03-29T12:41:37.911Z</time></trkpt><trkpt lat="39.4374694" lon="17.0514181"><ele>19.2</ele><time>2026-03-29T12:41:38.917Z</time></trkpt><trkpt lat="39.4375489" lon="17.0514541"><ele>18.8</ele><time>2026-03-29T12:41:39.938Z</time></trkpt><trkpt lat="39.4376854" lon="17.0515391"><ele>18.4</ele><time>2026-03-29T12:41:41.917Z</time></trkpt><trkpt lat="39.43774" lon="17.051587"><ele>18.0</ele><time>2026-03-29T12:41:42.92Z</time></trkpt><trkpt lat="39.4378011" lon="17.0516627"><ele>17.8</ele><time>2026-03-29T12:41:44.918Z</time></trkpt><trkpt lat="39.4377851" lon="17.0518028"><ele>17.6</ele><time>2026-03-29T12:41:54.043Z</time></trkpt><trkpt lat="39.4377188" lon="17.0518917"><ele>17.4</ele><time>2026-03-29T12:41:55.921Z</time></trkpt><trkpt lat="39.4376289" lon="17.052003"><ele>17.2</ele><time>2026-03-29T12:41:57.93Z</time></trkpt><trkpt lat="39.4375396" lon="17.0521069"><ele>17.0</ele><time>2026-03-29T12:41:59.929Z</time></trkpt><trkpt lat="39.4374679" lon="17.0522009"><ele>17.0</ele><time>2026-03-29T12:42:01.935Z</time></trkpt><trkpt lat="39.4373896" lon="17.0522941"><ele>17.0</ele><time>2026-03-29T12:42:04.925Z</time></trkpt><trkpt lat="39.437325" lon="17.0523702"><ele>17.0</ele><time>2026-03-29T12:42:07.916Z</time></trkpt><trkpt lat="39.4372821" lon="17.0524311"><ele>17.0</ele><time>2026-03-29T12:42:09.938Z</time></trkpt><trkpt lat="39.4372357" lon="17.0524922"><ele>17.0</ele><time>2026-03-29T12:42:11.922Z</time></trkpt><trkpt lat="39.4371791" lon="17.052585"><ele>17.0</ele><time>2026-03-29T12:42:13.931Z</time></trkpt><trkpt lat="39.4370945" lon="17.0527204"><ele>19.4</ele><time>2026-03-29T12:42:15.919Z</time></trkpt><trkpt lat="39.4370425" lon="17.0527923"><ele>21.799999999999997</ele><time>2026-03-29T12:42:16.921Z</time></trkpt><trkpt lat="39.4369896" lon="17.0528646"><ele>24.2</ele><time>2026-03-29T12:42:17.922Z</time></trkpt><trkpt lat="39.4368852" lon="17.0529986"><ele>26.599999999999998</ele><time>2026-03-29T12:42:19.927Z</time></trkpt><trkpt lat="39.4368349" lon="17.0530565"><ele>29.0</ele><time>2026-03-29T12:42:20.946Z</time></trkpt><trkpt lat="39.4367327" lon="17.0532018"><ele>26.0</ele><time>2026-03-29T12:42:23.932Z</time></trkpt><trkpt lat="39.436677" lon="17.0532902"><ele>23.0</ele><time>2026-03-29T12:42:25.92Z</time></trkpt><trkpt lat="39.436609" lon="17.0533978"><ele>20.0</ele><time>2026-03-29T12:42:28.94Z</time></trkpt><trkpt lat="39.4365415" lon="17.0535431"><ele>17.0</ele><time>2026-03-29T12:42:32.936Z</time></trkpt><trkpt lat="39.4364295" lon="17.05371"><ele>20.333333333333336</ele><time>2026-03-29T12:42:35.922Z</time></trkpt><trkpt lat="39.4362873" lon="17.0538489"><ele>23.666666666666668</ele><time>2026-03-29T12:42:37.922Z</time></trkpt><trkpt lat="39.436095" lon="17.0540524"><ele>27.0</ele><time>2026-03-29T12:42:40.92Z</time></trkpt><trkpt lat="39.4360416" lon="17.0541147"><ele>23.333333333333332</ele><time>2026-03-29T12:42:41.92Z</time></trkpt><trkpt lat="39.4359139" lon="17.0542705"><ele>19.666666666666664</ele><time>2026-03-29T12:42:43.928Z</time></trkpt><trkpt lat="39.4358418" lon="17.0543597"><ele>16.0</ele><time>2026-03-29T12:42:44.926Z</time></trkpt><trkpt lat="39.4356645" lon="17.0545861"><ele>16.0</ele><time>2026-03-29T12:42:46.93Z</time></trkpt><trkpt lat="39.4355684" lon="17.0547119"><ele>16.0</ele><time>2026-03-29T12:42:47.933Z</time></trkpt><trkpt lat="39.4354853" lon="17.0548165"><ele>16.0</ele><time>2026-03-29T12:42:48.917Z</time></trkpt><trkpt lat="39.435418" lon="17.0548981"><ele>16.0</ele><time>2026-03-29T12:42:49.923Z</time></trkpt><trkpt lat="39.4353593" lon="17.0549673"><ele>16.0</ele><time>2026-03-29T12:42:50.925Z</time></trkpt><trkpt lat="39.4352997" lon="17.055036"><ele>15.5</ele><time>2026-03-29T12:42:51.921Z</time></trkpt><trkpt lat="39.4352407" lon="17.0551034"><ele>15.0</ele><time>2026-03-29T12:42:52.926Z</time></trkpt><trkpt lat="39.4351441" lon="17.0552187"><ele>14.5</ele><time>2026-03-29T12:42:54.922Z</time></trkpt><trkpt lat="39.4350464" lon="17.0553359"><ele>14.0</ele><time>2026-03-29T12:42:56.919Z</time></trkpt><trkpt lat="39.4349249" lon="17.055486"><ele>14.0</ele><time>2026-03-29T12:42:58.92Z</time></trkpt><trkpt lat="39.4348577" lon="17.0555695"><ele>14.0</ele><time>2026-03-29T12:42:59.929Z</time></trkpt><trkpt lat="39.4347182" lon="17.0557406"><ele>14.0</ele><time>2026-03-29T12:43:01.916Z</time></trkpt><trkpt lat="39.4346489" lon="17.0558244"><ele>14.0</ele><time>2026-03-29T12:43:02.925Z</time></trkpt><trkpt lat="39.43458" lon="17.0559034"><ele>13.333333333333334</ele><time>2026-03-29T12:43:03.927Z</time></trkpt><trkpt lat="39.4345087" lon="17.0559738"><ele>12.666666666666668</ele><time>2026-03-29T12:43:04.918Z</time></trkpt><trkpt lat="39.4344328" lon="17.0560311"><ele>12.0</ele><time>2026-03-29T12:43:05.929Z</time></trkpt><trkpt lat="39.4343539" lon="17.0560733"><ele>11.333333333333334</ele><time>2026-03-29T12:43:06.936Z</time></trkpt><trkpt lat="39.4342706" lon="17.0561033"><ele>10.666666666666668</ele><time>2026-03-29T12:43:07.939Z</time></trkpt><trkpt lat="39.4341814" lon="17.0561241"><ele>10.0</ele><time>2026-03-29T12:43:08.928Z</time></trkpt><trkpt lat="39.4339871" lon="17.0561471"><ele>10.0</ele><time>2026-03-29T12:43:10.931Z</time></trkpt><trkpt lat="39.4338868" lon="17.0561398"><ele>10.0</ele><time>2026-03-29T12:43:11.921Z</time></trkpt><trkpt lat="39.4336801" lon="17.0560822"><ele>10.0</ele><time>2026-03-29T12:43:13.933Z</time></trkpt><trkpt lat="39.4335854" lon="17.0560368"><ele>10.0</ele><time>2026-03-29T12:43:14.934Z</time></trkpt><trkpt lat="39.4334507" lon="17.0559593"><ele>10.833333333333334</ele><time>2026-03-29T12:43:16.941Z</time></trkpt><trkpt lat="39.4333685" lon="17.0559146"><ele>11.666666666666668</ele><time>2026-03-29T12:43:18.918Z</time></trkpt><trkpt lat="39.4333002" lon="17.0559334"><ele>12.5</ele><time>2026-03-29T12:43:21.925Z</time></trkpt><trkpt lat="39.433339" lon="17.0560283"><ele>13.333333333333334</ele><time>2026-03-29T12:43:24.914Z</time></trkpt><trkpt lat="39.4333439" lon="17.0561336"><ele>14.166666666666666</ele><time>2026-03-29T12:43:27.908Z</time></trkpt><trkpt lat="39.433263" lon="17.0561714"><ele>15.0</ele><time>2026-03-29T12:43:29.927Z</time></trkpt><trkpt lat="39.4331586" lon="17.0562036"><ele>15.0</ele><time>2026-03-29T12:43:31.931Z</time></trkpt><trkpt lat="39.4330671" lon="17.0562717"><ele>15.0</ele><time>2026-03-29T12:43:33.922Z</time></trkpt><trkpt lat="39.4329865" lon="17.0563641"><ele>15.0</ele><time>2026-03-29T12:43:35.921Z</time></trkpt><trkpt lat="39.4328912" lon="17.0564645"><ele>15.0</ele><time>2026-03-29T12:43:37.927Z</time></trkpt><trkpt lat="39.4328155" lon="17.0565883"><ele>18.6</ele><time>2026-03-29T12:43:39.934Z</time></trkpt><trkpt lat="39.4327519" lon="17.0567321"><ele>22.2</ele><time>2026-03-29T12:43:41.92Z</time></trkpt><trkpt lat="39.4327149" lon="17.0568199"><ele>25.799999999999997</ele><time>2026-03-29T12:43:43.938Z</time></trkpt><trkpt lat="39.4327257" lon="17.0569065"><ele>29.4</ele><time>2026-03-29T12:43:45.929Z</time></trkpt><trkpt lat="39.4326393" lon="17.0569924"><ele>33.0</ele><time>2026-03-29T12:43:48.916Z</time></trkpt><trkpt lat="39.4325621" lon="17.0570097"><ele>33.0</ele><time>2026-03-29T12:43:50.938Z</time></trkpt><trkpt lat="39.4324828" lon="17.0570386"><ele>33.0</ele><time>2026-03-29T12:43:52.942Z</time></trkpt><trkpt lat="39.4323995" lon="17.0570748"><ele>33.0</ele><time>2026-03-29T12:43:54.927Z</time></trkpt><trkpt lat="39.4323019" lon="17.0571368"><ele>33.0</ele><time>2026-03-29T12:43:56.914Z</time></trkpt><trkpt lat="39.4322422" lon="17.0571645"><ele>33.0</ele><time>2026-03-29T12:43:57.938Z</time></trkpt><trkpt lat="39.4321784" lon="17.0571911"><ele>33.0</ele><time>2026-03-29T12:43:58.936Z</time></trkpt><trkpt lat="39.4321171" lon="17.0572232"><ele>34.0</ele><time>2026-03-29T12:43:59.929Z</time></trkpt><trkpt lat="39.432002" lon="17.0572751"><ele>35.0</ele><time>2026-03-29T12:44:01.926Z</time></trkpt><trkpt lat="39.4318726" lon="17.0572784"><ele>36.0</ele><time>2026-03-29T12:44:03.935Z</time></trkpt><trkpt lat="39.4317381" lon="17.0572677"><ele>37.0</ele><time>2026-03-29T12:44:05.927Z</time></trkpt><trkpt lat="39.4316667" lon="17.0572634"><ele>37.0</ele><time>2026-03-29T12:44:06.922Z</time></trkpt><trkpt lat="39.4315014" lon="17.057247"><ele>37.0</ele><time>2026-03-29T12:44:08.924Z</time></trkpt><trkpt lat="39.4314172" lon="17.0572216"><ele>37.0</ele><time>2026-03-29T12:44:09.926Z</time></trkpt><trkpt lat="39.4312474" lon="17.0571515"><ele>37.0</ele><time>2026-03-29T12:44:11.922Z</time></trkpt><trkpt lat="39.4311626" lon="17.0571133"><ele>38.0</ele><time>2026-03-29T12:44:12.935Z</time></trkpt><trkpt lat="39.4310772" lon="17.0570784"><ele>39.0</ele><time>2026-03-29T12:44:13.951Z</time></trkpt><trkpt lat="39.4309074" lon="17.0569919"><ele>40.0</ele><time>2026-03-29T12:44:15.921Z</time></trkpt><trkpt lat="39.43082" lon="17.056944"><ele>41.0</ele><time>2026-03-29T12:44:16.936Z</time></trkpt><trkpt lat="39.4307365" lon="17.056903"><ele>41.0</ele><time>2026-03-29T12:44:17.927Z</time></trkpt><trkpt lat="39.4306622" lon="17.0568807"><ele>41.0</ele><time>2026-03-29T12:44:18.924Z</time></trkpt><trkpt lat="39.4305927" lon="17.0568688"><ele>41.0</ele><time>2026-03-29T12:44:19.943Z</time></trkpt><trkpt lat="39.4305207" lon="17.0568567"><ele>41.0</ele><time>2026-03-29T12:44:20.935Z</time></trkpt><trkpt lat="39.4304395" lon="17.0568428"><ele>41.0</ele><time>2026-03-29T12:44:21.935Z</time></trkpt><trkpt lat="39.4303521" lon="17.05685"><ele>41.0</ele><time>2026-03-29T12:44:22.921Z</time></trkpt><trkpt lat="39.4302659" lon="17.0568572"><ele>42.75</ele><time>2026-03-29T12:44:23.927Z</time></trkpt><trkpt lat="39.4301279" lon="17.056866"><ele>44.5</ele><time>2026-03-29T12:44:25.925Z</time></trkpt><trkpt lat="39.4299998" lon="17.0568427"><ele>46.25</ele><time>2026-03-29T12:44:27.937Z</time></trkpt><trkpt lat="39.4299263" lon="17.0568138"><ele>48.0</ele><time>2026-03-29T12:44:28.938Z</time></trkpt><trkpt lat="39.4297389" lon="17.0567379"><ele>48.25</ele><time>2026-03-29T12:44:30.923Z</time></trkpt><trkpt lat="39.4296289" lon="17.0567129"><ele>48.5</ele><time>2026-03-29T12:44:31.931Z</time></trkpt><trkpt lat="39.4295246" lon="17.0566911"><ele>48.75</ele><time>2026-03-29T12:44:32.938Z</time></trkpt><trkpt lat="39.4293475" lon="17.0566333"><ele>49.0</ele><time>2026-03-29T12:44:34.93Z</time></trkpt><trkpt lat="39.4292654" lon="17.0565865"><ele>48.99999999999999</ele><time>2026-03-29T12:44:35.928Z</time></trkpt><trkpt lat="39.4291854" lon="17.0565409"><ele>49.0</ele><time>2026-03-29T12:44:36.945Z</time></trkpt><trkpt lat="39.4291065" lon="17.0565057"><ele>49.0</ele><time>2026-03-29T12:44:37.927Z</time></trkpt><trkpt lat="39.4290356" lon="17.0564743"><ele>49.0</ele><time>2026-03-29T12:44:38.924Z</time></trkpt><trkpt lat="39.4289667" lon="17.0564504"><ele>48.99999999999999</ele><time>2026-03-29T12:44:39.923Z</time></trkpt><trkpt lat="39.4288949" lon="17.0564145"><ele>49.0</ele><time>2026-03-29T12:44:40.928Z</time></trkpt><trkpt lat="39.4288229" lon="17.0563672"><ele>49.400000000000006</ele><time>2026-03-29T12:44:41.931Z</time></trkpt><trkpt lat="39.4287506" lon="17.0563145"><ele>49.8</ele><time>2026-03-29T12:44:42.929Z</time></trkpt><trkpt lat="39.4286721" lon="17.0562593"><ele>50.2</ele><time>2026-03-29T12:44:43.923Z</time></trkpt><trkpt lat="39.4285819" lon="17.0562078"><ele>50.599999999999994</ele><time>2026-03-29T12:44:44.932Z</time></trkpt><trkpt lat="39.4284819" lon="17.0561604"><ele>51.0</ele><time>2026-03-29T12:44:45.927Z</time></trkpt><trkpt lat="39.4283807" lon="17.0561126"><ele>51.0</ele><time>2026-03-29T12:44:46.93Z</time></trkpt><trkpt lat="39.428283" lon="17.0560716"><ele>51.0</ele><time>2026-03-29T12:44:47.922Z</time></trkpt><trkpt lat="39.4281877" lon="17.0560368"><ele>51.0</ele><time>2026-03-29T12:44:48.933Z</time></trkpt><trkpt lat="39.4280168" lon="17.055977"><ele>51.0</ele><time>2026-03-29T12:44:50.932Z</time></trkpt><trkpt lat="39.4279338" lon="17.0559306"><ele>51.333333333333336</ele><time>2026-03-29T12:44:51.932Z</time></trkpt><trkpt lat="39.4278484" lon="17.0558757"><ele>51.66666666666667</ele><time>2026-03-29T12:44:52.929Z</time></trkpt><trkpt lat="39.4277646" lon="17.0558179"><ele>52.0</ele><time>2026-03-29T12:44:53.927Z</time></trkpt><trkpt lat="39.4276834" lon="17.0557623"><ele>52.333333333333336</ele><time>2026-03-29T12:44:54.941Z</time></trkpt><trkpt lat="39.42761" lon="17.0557081"><ele>52.66666666666667</ele><time>2026-03-29T12:44:55.931Z</time></trkpt><trkpt lat="39.4275446" lon="17.0556614"><ele>53.0</ele><time>2026-03-29T12:44:56.922Z</time></trkpt><trkpt lat="39.4274651" lon="17.0555204"><ele>53.0</ele><time>2026-03-29T12:44:58.931Z</time></trkpt><trkpt lat="39.4274309" lon="17.0554179"><ele>53.0</ele><time>2026-03-29T12:44:59.931Z</time></trkpt><trkpt lat="39.427336" lon="17.0552062"><ele>53.0</ele><time>2026-03-29T12:45:01.937Z</time></trkpt><trkpt lat="39.427211" lon="17.0550001"><ele>54.0</ele><time>2026-03-29T12:45:03.94Z</time></trkpt><trkpt lat="39.4270307" lon="17.0548103"><ele>55.0</ele><time>2026-03-29T12:45:05.923Z</time></trkpt><trkpt lat="39.4269409" lon="17.0547254"><ele>56.0</ele><time>2026-03-29T12:45:06.93Z</time></trkpt><trkpt lat="39.4268378" lon="17.0545345"><ele>56.0</ele><time>2026-03-29T12:45:08.937Z</time></trkpt><trkpt lat="39.4268131" lon="17.0543398"><ele>56.0</ele><time>2026-03-29T12:45:10.927Z</time></trkpt><trkpt lat="39.4267619" lon="17.0541446"><ele>56.0</ele><time>2026-03-29T12:45:12.942Z</time></trkpt><trkpt lat="39.4267155" lon="17.0540515"><ele>56.0</ele><time>2026-03-29T12:45:13.938Z</time></trkpt><trkpt lat="39.4266425" lon="17.0539475"><ele>56.0</ele><time>2026-03-29T12:45:14.921Z</time></trkpt><trkpt lat="39.4265606" lon="17.0538407"><ele>56.0</ele><time>2026-03-29T12:45:15.942Z</time></trkpt><trkpt lat="39.4264823" lon="17.0537375"><ele>56.0</ele><time>2026-03-29T12:45:16.934Z</time></trkpt><trkpt lat="39.426341" lon="17.053544"><ele>56.0</ele><time>2026-03-29T12:45:18.93Z</time></trkpt><trkpt lat="39.4262773" lon="17.0534565"><ele>55.8</ele><time>2026-03-29T12:45:19.928Z</time></trkpt><trkpt lat="39.4262192" lon="17.0533859"><ele>55.599999999999994</ele><time>2026-03-29T12:45:20.926Z</time></trkpt><trkpt lat="39.426164" lon="17.0533397"><ele>55.4</ele><time>2026-03-29T12:45:21.922Z</time></trkpt><trkpt lat="39.4260538" lon="17.0533286"><ele>55.2</ele><time>2026-03-29T12:45:23.924Z</time></trkpt><trkpt lat="39.4259806" lon="17.0533614"><ele>55.0</ele><time>2026-03-29T12:45:24.924Z</time></trkpt><trkpt lat="39.425803" lon="17.0534148"><ele>55.0</ele><time>2026-03-29T12:45:26.93Z</time></trkpt><trkpt lat="39.4257099" lon="17.053407"><ele>55.0</ele><time>2026-03-29T12:45:27.918Z</time></trkpt><trkpt lat="39.4255216" lon="17.0533859"><ele>55.0</ele><time>2026-03-29T12:45:29.929Z</time></trkpt><trkpt lat="39.4254283" lon="17.053391"><ele>55.0</ele><time>2026-03-29T12:45:30.931Z</time></trkpt><trkpt lat="39.4253351" lon="17.0534301"><ele>54.33333333333333</ele><time>2026-03-29T12:45:31.933Z</time></trkpt><trkpt lat="39.42524" lon="17.0534668"><ele>53.666666666666664</ele><time>2026-03-29T12:45:32.948Z</time></trkpt><trkpt lat="39.4251456" lon="17.0534867"><ele>53.0</ele><time>2026-03-29T12:45:33.935Z</time></trkpt><trkpt lat="39.4250564" lon="17.0534815"><ele>52.33333333333333</ele><time>2026-03-29T12:45:34.925Z</time></trkpt><trkpt lat="39.424984" lon="17.0534489"><ele>51.666666666666664</ele><time>2026-03-29T12:45:35.931Z</time></trkpt><trkpt lat="39.4249088" lon="17.0534082"><ele>51.0</ele><time>2026-03-29T12:45:37.928Z</time></trkpt><trkpt lat="39.4247905" lon="17.0535049"><ele>51.0</ele><time>2026-03-29T12:45:40.931Z</time></trkpt><trkpt lat="39.4246985" lon="17.0536127"><ele>51.0</ele><time>2026-03-29T12:45:41.939Z</time></trkpt><trkpt lat="39.424591" lon="17.0537482"><ele>51.0</ele><time>2026-03-29T12:45:42.921Z</time></trkpt><trkpt lat="39.4244849" lon="17.0538896"><ele>51.0</ele><time>2026-03-29T12:45:43.931Z</time></trkpt><trkpt lat="39.4243309" lon="17.0541432"><ele>51.0</ele><time>2026-03-29T12:45:45.914Z</time></trkpt><trkpt lat="39.4242794" lon="17.0542741"><ele>51.0</ele><time>2026-03-29T12:45:46.917Z</time></trkpt><trkpt lat="39.4242407" lon="17.0544102"><ele>51.0</ele><time>2026-03-29T12:45:47.929Z</time></trkpt><trkpt lat="39.4241976" lon="17.0546967"><ele>50.5</ele><time>2026-03-29T12:45:49.923Z</time></trkpt><trkpt lat="39.4241832" lon="17.0550143"><ele>50.0</ele><time>2026-03-29T12:45:51.934Z</time></trkpt><trkpt lat="39.4241762" lon="17.0553484"><ele>50.0</ele><time>2026-03-29T12:45:53.931Z</time></trkpt><trkpt lat="39.4241689" lon="17.0555079"><ele>50.0</ele><time>2026-03-29T12:45:54.932Z</time></trkpt><trkpt lat="39.4241399" lon="17.0558044"><ele>50.0</ele><time>2026-03-29T12:45:56.923Z</time></trkpt><trkpt lat="39.4241161" lon="17.0559452"><ele>49.75</ele><time>2026-03-29T12:45:57.935Z</time></trkpt><trkpt lat="39.4240814" lon="17.0560802"><ele>49.5</ele><time>2026-03-29T12:45:58.922Z</time></trkpt><trkpt lat="39.423973" lon="17.0563316"><ele>49.25</ele><time>2026-03-29T12:46:00.927Z</time></trkpt><trkpt lat="39.4239043" lon="17.0564406"><ele>49.0</ele><time>2026-03-29T12:46:01.936Z</time></trkpt><trkpt lat="39.4237285" lon="17.0566362"><ele>50.0</ele><time>2026-03-29T12:46:03.945Z</time></trkpt><trkpt lat="39.4235016" lon="17.0568066"><ele>51.0</ele><time>2026-03-29T12:46:05.922Z</time></trkpt><trkpt lat="39.4232557" lon="17.0569837"><ele>51.0</ele><time>2026-03-29T12:46:07.928Z</time></trkpt><trkpt lat="39.4229999" lon="17.0572315"><ele>51.0</ele><time>2026-03-29T12:46:09.927Z</time></trkpt><trkpt lat="39.4227851" lon="17.0575324"><ele>47.5</ele><time>2026-03-29T12:46:11.935Z</time></trkpt><trkpt lat="39.4226087" lon="17.0578074"><ele>44.0</ele><time>2026-03-29T12:46:13.944Z</time></trkpt><trkpt lat="39.4224338" lon="17.0580747"><ele>45.0</ele><time>2026-03-29T12:46:15.927Z</time></trkpt><trkpt lat="39.4222549" lon="17.0583604"><ele>46.0</ele><time>2026-03-29T12:46:17.924Z</time></trkpt><trkpt lat="39.4221485" lon="17.0585245"><ele>42.66666666666667</ele><time>2026-03-29T12:46:18.932Z</time></trkpt><trkpt lat="39.4220238" lon="17.0586954"><ele>39.333333333333336</ele><time>2026-03-29T12:46:19.929Z</time></trkpt><trkpt lat="39.4218984" lon="17.0588578"><ele>36.0</ele><time>2026-03-29T12:46:20.924Z</time></trkpt><trkpt lat="39.4217841" lon="17.0590048"><ele>37.25</ele><time>2026-03-29T12:46:21.918Z</time></trkpt><trkpt lat="39.4216764" lon="17.0591377"><ele>38.5</ele><time>2026-03-29T12:46:22.917Z</time></trkpt><trkpt lat="39.4215739" lon="17.0592599"><ele>39.75</ele><time>2026-03-29T12:46:23.926Z</time></trkpt><trkpt lat="39.4214752" lon="17.0593774"><ele>41.0</ele><time>2026-03-29T12:46:24.927Z</time></trkpt><trkpt lat="39.4213724" lon="17.0595004"><ele>40.0</ele><time>2026-03-29T12:46:25.916Z</time></trkpt><trkpt lat="39.421264" lon="17.0596302"><ele>39.0</ele><time>2026-03-29T12:46:26.925Z</time></trkpt><trkpt lat="39.4211585" lon="17.059761"><ele>38.0</ele><time>2026-03-29T12:46:27.92Z</time></trkpt><trkpt lat="39.4210517" lon="17.0598911"><ele>37.0</ele><time>2026-03-29T12:46:28.93Z</time></trkpt><trkpt lat="39.4209416" lon="17.0600173"><ele>37.0</ele><time>2026-03-29T12:46:29.928Z</time></trkpt><trkpt lat="39.4206884" lon="17.0602682"><ele>37.0</ele><time>2026-03-29T12:46:31.917Z</time></trkpt><trkpt lat="39.4205212" lon="17.060405"><ele>29.0</ele><time>2026-03-29T12:46:32.927Z</time></trkpt><trkpt lat="39.4201166" lon="17.0606793"><ele>29.0</ele><time>2026-03-29T12:46:34.914Z</time></trkpt><trkpt lat="39.4197173" lon="17.0609209"><ele>29.0</ele><time>2026-03-29T12:46:36.927Z</time></trkpt><trkpt lat="39.419544" lon="17.0610224"><ele>29.0</ele><time>2026-03-29T12:46:37.919Z</time></trkpt><trkpt lat="39.4193781" lon="17.0611216"><ele>29.0</ele><time>2026-03-29T12:46:38.918Z</time></trkpt><trkpt lat="39.4192274" lon="17.0612201"><ele>29.0</ele><time>2026-03-29T12:46:39.92Z</time></trkpt><trkpt lat="39.4189778" lon="17.0614771"><ele>27.5</ele><time>2026-03-29T12:46:41.917Z</time></trkpt><trkpt lat="39.4188112" lon="17.0618277"><ele>26.0</ele><time>2026-03-29T12:46:43.919Z</time></trkpt><trkpt lat="39.4187637" lon="17.0620166"><ele>26.0</ele><time>2026-03-29T12:46:44.919Z</time></trkpt><trkpt lat="39.4187248" lon="17.0623826"><ele>26.0</ele><time>2026-03-29T12:46:46.926Z</time></trkpt><trkpt lat="39.4187109" lon="17.0627027"><ele>25.75</ele><time>2026-03-29T12:46:48.911Z</time></trkpt><trkpt lat="39.4186993" lon="17.0628442"><ele>25.5</ele><time>2026-03-29T12:46:49.922Z</time></trkpt><trkpt lat="39.418666" lon="17.0630684"><ele>25.25</ele><time>2026-03-29T12:46:51.921Z</time></trkpt><trkpt lat="39.4185919" lon="17.0631827"><ele>25.0</ele><time>2026-03-29T12:46:53.923Z</time></trkpt><trkpt lat="39.4184675" lon="17.0630648"><ele>25.0</ele><time>2026-03-29T12:46:56.913Z</time></trkpt><trkpt lat="39.4184182" lon="17.0629494"><ele>25.0</ele><time>2026-03-29T12:46:58.929Z</time></trkpt><trkpt lat="39.4183373" lon="17.0628839"><ele>25.0</ele><time>2026-03-29T12:47:00.926Z</time></trkpt><trkpt lat="39.4182341" lon="17.0627723"><ele>25.0</ele><time>2026-03-29T12:47:02.925Z</time></trkpt><trkpt lat="39.4181772" lon="17.0627017"><ele>25.0</ele><time>2026-03-29T12:47:03.923Z</time></trkpt><trkpt lat="39.4181262" lon="17.0626285"><ele>25.0</ele><time>2026-03-29T12:47:04.926Z</time></trkpt><trkpt lat="39.4180732" lon="17.0625562"><ele>25.0</ele><time>2026-03-29T12:47:05.933Z</time></trkpt><trkpt lat="39.4179677" lon="17.0623937"><ele>25.0</ele><time>2026-03-29T12:47:07.918Z</time></trkpt><trkpt lat="39.4179188" lon="17.0621712"><ele>25.0</ele><time>2026-03-29T12:47:09.909Z</time></trkpt><trkpt lat="39.4179312" lon="17.0620354"><ele>24.8</ele><time>2026-03-29T12:47:10.922Z</time></trkpt><trkpt lat="39.4179457" lon="17.061905"><ele>24.6</ele><time>2026-03-29T12:47:11.921Z</time></trkpt><trkpt lat="39.4179481" lon="17.0617863"><ele>24.4</ele><time>2026-03-29T12:47:12.922Z</time></trkpt><trkpt lat="39.4179221" lon="17.0616791"><ele>24.2</ele><time>2026-03-29T12:47:13.918Z</time></trkpt><trkpt lat="39.4178585" lon="17.0615812"><ele>24.0</ele><time>2026-03-29T12:47:14.926Z</time></trkpt><trkpt lat="39.4176938" lon="17.0613231"><ele>26.666666666666664</ele><time>2026-03-29T12:47:16.909Z</time></trkpt><trkpt lat="39.41761" lon="17.0611801"><ele>29.333333333333332</ele><time>2026-03-29T12:47:17.916Z</time></trkpt><trkpt lat="39.4175211" lon="17.061033"><ele>32.0</ele><time>2026-03-29T12:47:18.918Z</time></trkpt><trkpt lat="39.4173569" lon="17.0607291"><ele>31.0</ele><time>2026-03-29T12:47:20.917Z</time></trkpt><trkpt lat="39.4172955" lon="17.0605732"><ele>30.0</ele><time>2026-03-29T12:47:21.962Z</time></trkpt><trkpt lat="39.4172417" lon="17.0604161"><ele>29.0</ele><time>2026-03-29T12:47:22.915Z</time></trkpt><trkpt lat="39.417187" lon="17.0602497"><ele>28.0</ele><time>2026-03-29T12:47:23.917Z</time></trkpt><trkpt lat="39.4171357" lon="17.0600782"><ele>28.666666666666668</ele><time>2026-03-29T12:47:24.922Z</time></trkpt><trkpt lat="39.4170839" lon="17.0599094"><ele>29.333333333333336</ele><time>2026-03-29T12:47:25.918Z</time></trkpt><trkpt lat="39.41694" lon="17.0596166"><ele>30.0</ele><time>2026-03-29T12:47:27.926Z</time></trkpt><trkpt lat="39.4167719" lon="17.0593797"><ele>30.0</ele><time>2026-03-29T12:47:29.929Z</time></trkpt><trkpt lat="39.4167239" lon="17.0592046"><ele>30.0</ele><time>2026-03-29T12:47:31.925Z</time></trkpt><trkpt lat="39.4167812" lon="17.0591326"><ele>30.0</ele><time>2026-03-29T12:47:32.925Z</time></trkpt><trkpt lat="39.416848" lon="17.0590456"><ele>30.0</ele><time>2026-03-29T12:47:33.917Z</time></trkpt><trkpt lat="39.4169203" lon="17.0589386"><ele>30.0</ele><time>2026-03-29T12:47:34.912Z</time></trkpt><trkpt lat="39.4169932" lon="17.0588159"><ele>30.4</ele><time>2026-03-29T12:47:35.914Z</time></trkpt><trkpt lat="39.4170617" lon="17.0586863"><ele>30.8</ele><time>2026-03-29T12:47:36.923Z</time></trkpt><trkpt lat="39.4171259" lon="17.0585648"><ele>31.200000000000003</ele><time>2026-03-29T12:47:37.924Z</time></trkpt><trkpt lat="39.4171696" lon="17.0584485"><ele>31.6</ele><time>2026-03-29T12:47:38.913Z</time></trkpt><trkpt lat="39.417198" lon="17.058336"><ele>32.0</ele><time>2026-03-29T12:47:39.933Z</time></trkpt><trkpt lat="39.417157" lon="17.0581488"><ele>36.25</ele><time>2026-03-29T12:47:41.909Z</time></trkpt><trkpt lat="39.4171051" lon="17.0580681"><ele>40.5</ele><time>2026-03-29T12:47:42.925Z</time></trkpt><trkpt lat="39.4170282" lon="17.0579962"><ele>44.75</ele><time>2026-03-29T12:47:43.914Z</time></trkpt><trkpt lat="39.4168013" lon="17.0578912"><ele>49.0</ele><time>2026-03-29T12:47:45.925Z</time></trkpt><trkpt lat="39.4166954" lon="17.057821"><ele>49.0</ele><time>2026-03-29T12:47:46.925Z</time></trkpt><trkpt lat="39.4166059" lon="17.0577453"><ele>49.0</ele><time>2026-03-29T12:47:47.918Z</time></trkpt><trkpt lat="39.4164415" lon="17.0575653"><ele>49.0</ele><time>2026-03-29T12:47:49.93Z</time></trkpt><trkpt lat="39.4163592" lon="17.0574591"><ele>49.0</ele><time>2026-03-29T12:47:50.921Z</time></trkpt><trkpt lat="39.4162793" lon="17.057351"><ele>45.0</ele><time>2026-03-29T12:47:51.912Z</time></trkpt><trkpt lat="39.4162046" lon="17.0572393"><ele>41.0</ele><time>2026-03-29T12:47:52.927Z</time></trkpt><trkpt lat="39.416141" lon="17.0571211"><ele>37.0</ele><time>2026-03-29T12:47:53.911Z</time></trkpt><trkpt lat="39.4160291" lon="17.0568454"><ele>37.0</ele><time>2026-03-29T12:47:55.914Z</time></trkpt><trkpt lat="39.4159792" lon="17.0566973"><ele>37.0</ele><time>2026-03-29T12:47:56.914Z</time></trkpt><trkpt lat="39.4158662" lon="17.0564142"><ele>37.0</ele><time>2026-03-29T12:47:58.932Z</time></trkpt><trkpt lat="39.4157498" lon="17.0561252"><ele>38.0</ele><time>2026-03-29T12:48:00.919Z</time></trkpt><trkpt lat="39.4157073" lon="17.0559671"><ele>39.0</ele><time>2026-03-29T12:48:01.925Z</time></trkpt><trkpt lat="39.4156291" lon="17.0556416"><ele>40.0</ele><time>2026-03-29T12:48:03.934Z</time></trkpt><trkpt lat="39.4155609" lon="17.0553651"><ele>41.0</ele><time>2026-03-29T12:48:05.928Z</time></trkpt><trkpt lat="39.4155172" lon="17.0551457"><ele>42.0</ele><time>2026-03-29T12:48:07.924Z</time></trkpt><trkpt lat="39.4154861" lon="17.055049"><ele>43.0</ele><time>2026-03-29T12:48:08.932Z</time></trkpt><trkpt lat="39.4154538" lon="17.0549319"><ele>44.0</ele><time>2026-03-29T12:48:09.922Z</time></trkpt><trkpt lat="39.415421" lon="17.054797"><ele>41.0</ele><time>2026-03-29T12:48:10.926Z</time></trkpt><trkpt lat="39.4153843" lon="17.0546541"><ele>38.0</ele><time>2026-03-29T12:48:11.921Z</time></trkpt><trkpt lat="39.4153459" lon="17.0545054"><ele>35.0</ele><time>2026-03-29T12:48:12.916Z</time></trkpt><trkpt lat="39.4153107" lon="17.0543485"><ele>32.0</ele><time>2026-03-29T12:48:13.918Z</time></trkpt><trkpt lat="39.4152739" lon="17.0541861"><ele>34.75</ele><time>2026-03-29T12:48:14.926Z</time></trkpt><trkpt lat="39.415225" lon="17.0540361"><ele>37.5</ele><time>2026-03-29T12:48:15.926Z</time></trkpt><trkpt lat="39.4151548" lon="17.0538922"><ele>40.25</ele><time>2026-03-29T12:48:16.917Z</time></trkpt><trkpt lat="39.415078" lon="17.0537365"><ele>43.0</ele><time>2026-03-29T12:48:17.932Z</time></trkpt><trkpt lat="39.4150167" lon="17.053565"><ele>43.0</ele><time>2026-03-29T12:48:18.914Z</time></trkpt><trkpt lat="39.4149646" lon="17.053372"><ele>43.0</ele><time>2026-03-29T12:48:19.913Z</time></trkpt><trkpt lat="39.4149089" lon="17.0531701"><ele>43.0</ele><time>2026-03-29T12:48:20.918Z</time></trkpt><trkpt lat="39.4148092" lon="17.0528013"><ele>45.0</ele><time>2026-03-29T12:48:22.932Z</time></trkpt><trkpt lat="39.414753" lon="17.0524857"><ele>47.0</ele><time>2026-03-29T12:48:24.921Z</time></trkpt><trkpt lat="39.4147427" lon="17.052316"><ele>49.0</ele><time>2026-03-29T12:48:25.929Z</time></trkpt><trkpt lat="39.4147285" lon="17.0521447"><ele>50.0</ele><time>2026-03-29T12:48:26.941Z</time></trkpt><trkpt lat="39.4147012" lon="17.051981"><ele>51.0</ele><time>2026-03-29T12:48:27.926Z</time></trkpt><trkpt lat="39.4146474" lon="17.0518311"><ele>52.0</ele><time>2026-03-29T12:48:28.918Z</time></trkpt><trkpt lat="39.4145725" lon="17.0516876"><ele>53.0</ele><time>2026-03-29T12:48:29.93Z</time></trkpt><trkpt lat="39.4144178" lon="17.051376"><ele>53.0</ele><time>2026-03-29T12:48:31.917Z</time></trkpt><trkpt lat="39.4142813" lon="17.0510013"><ele>53.0</ele><time>2026-03-29T12:48:33.92Z</time></trkpt><trkpt lat="39.4141254" lon="17.0507168"><ele>56.333333333333336</ele><time>2026-03-29T12:48:35.916Z</time></trkpt><trkpt lat="39.4139777" lon="17.0505059"><ele>59.66666666666667</ele><time>2026-03-29T12:48:37.922Z</time></trkpt><trkpt lat="39.4139111" lon="17.050403"><ele>63.0</ele><time>2026-03-29T12:48:38.931Z</time></trkpt><trkpt lat="39.4138372" lon="17.050164"><ele>59.0</ele><time>2026-03-29T12:48:40.917Z</time></trkpt><trkpt lat="39.4138216" lon="17.0500392"><ele>55.0</ele><time>2026-03-29T12:48:41.919Z</time></trkpt><trkpt lat="39.4138151" lon="17.0499242"><ele>51.0</ele><time>2026-03-29T12:48:42.921Z</time></trkpt><trkpt lat="39.4138174" lon="17.0496953"><ele>47.0</ele><time>2026-03-29T12:48:44.93Z</time></trkpt><trkpt lat="39.4137985" lon="17.0495824"><ele>47.0</ele><time>2026-03-29T12:48:45.947Z</time></trkpt><trkpt lat="39.4137006" lon="17.0493952"><ele>47.0</ele><time>2026-03-29T12:48:47.913Z</time></trkpt><trkpt lat="39.4136184" lon="17.0493271"><ele>47.0</ele><time>2026-03-29T12:48:48.931Z</time></trkpt><trkpt lat="39.4135209" lon="17.0492666"><ele>47.0</ele><time>2026-03-29T12:48:49.927Z</time></trkpt><trkpt lat="39.4134277" lon="17.0491874"><ele>49.2</ele><time>2026-03-29T12:48:50.916Z</time></trkpt><trkpt lat="39.4133534" lon="17.0490964"><ele>51.400000000000006</ele><time>2026-03-29T12:48:51.93Z</time></trkpt><trkpt lat="39.4132912" lon="17.0490113"><ele>53.599999999999994</ele><time>2026-03-29T12:48:52.93Z</time></trkpt><trkpt lat="39.4132355" lon="17.0489357"><ele>55.8</ele><time>2026-03-29T12:48:53.931Z</time></trkpt><trkpt lat="39.4131823" lon="17.0488641"><ele>58.0</ele><time>2026-03-29T12:48:54.926Z</time></trkpt><trkpt lat="39.4131137" lon="17.0487187"><ele>57.99999999999999</ele><time>2026-03-29T12:48:56.923Z</time></trkpt><trkpt lat="39.4131077" lon="17.0486338"><ele>58.0</ele><time>2026-03-29T12:48:57.919Z</time></trkpt><trkpt lat="39.4131055" lon="17.0485433"><ele>58.0</ele><time>2026-03-29T12:48:58.939Z</time></trkpt><trkpt lat="39.4130999" lon="17.0484476"><ele>58.0</ele><time>2026-03-29T12:48:59.929Z</time></trkpt><trkpt lat="39.4130929" lon="17.04835"><ele>57.99999999999999</ele><time>2026-03-29T12:49:00.915Z</time></trkpt><trkpt lat="39.4130888" lon="17.0482359"><ele>58.0</ele><time>2026-03-29T12:49:01.924Z</time></trkpt><trkpt lat="39.4130738" lon="17.0481187"><ele>58.5</ele><time>2026-03-29T12:49:02.93Z</time></trkpt><trkpt lat="39.4129944" lon="17.0478657"><ele>59.0</ele><time>2026-03-29T12:49:04.933Z</time></trkpt><trkpt lat="39.4129527" lon="17.0477408"><ele>59.5</ele><time>2026-03-29T12:49:05.927Z</time></trkpt><trkpt lat="39.412929" lon="17.0476094"><ele>60.0</ele><time>2026-03-29T12:49:06.934Z</time></trkpt><trkpt lat="39.4129212" lon="17.0474681"><ele>58.25</ele><time>2026-03-29T12:49:07.927Z</time></trkpt><trkpt lat="39.4129263" lon="17.0473156"><ele>56.5</ele><time>2026-03-29T12:49:08.92Z</time></trkpt><trkpt lat="39.4129399" lon="17.0471671"><ele>54.75</ele><time>2026-03-29T12:49:09.918Z</time></trkpt><trkpt lat="39.412969" lon="17.0470379"><ele>53.0</ele><time>2026-03-29T12:49:10.925Z</time></trkpt><trkpt lat="39.4130732" lon="17.0468448"><ele>53.0</ele><time>2026-03-29T12:49:12.926Z</time></trkpt><trkpt lat="39.4131167" lon="17.0466528"><ele>53.0</ele><time>2026-03-29T12:49:14.915Z</time></trkpt><trkpt lat="39.4130982" lon="17.0465353"><ele>53.0</ele><time>2026-03-29T12:49:15.922Z</time></trkpt><trkpt lat="39.4130445" lon="17.0462469"><ele>57.0</ele><time>2026-03-29T12:49:17.919Z</time></trkpt><trkpt lat="39.4129988" lon="17.0459298"><ele>61.0</ele><time>2026-03-29T12:49:19.924Z</time></trkpt><trkpt lat="39.4129984" lon="17.0456094"><ele>61.5</ele><time>2026-03-29T12:49:21.925Z</time></trkpt><trkpt lat="39.4130211" lon="17.0453375"><ele>62.0</ele><time>2026-03-29T12:49:23.908Z</time></trkpt><trkpt lat="39.4130529" lon="17.0452212"><ele>62.5</ele><time>2026-03-29T12:49:24.918Z</time></trkpt><trkpt lat="39.4130979" lon="17.0451043"><ele>63.0</ele><time>2026-03-29T12:49:25.916Z</time></trkpt><trkpt lat="39.4131905" lon="17.0448389"><ele>63.0</ele><time>2026-03-29T12:49:27.938Z</time></trkpt><trkpt lat="39.4132182" lon="17.0445375"><ele>63.0</ele><time>2026-03-29T12:49:29.908Z</time></trkpt><trkpt lat="39.413217" lon="17.044388"><ele>63.0</ele><time>2026-03-29T12:49:30.917Z</time></trkpt><trkpt lat="39.4132055" lon="17.0442499"><ele>61.0</ele><time>2026-03-29T12:49:31.921Z</time></trkpt><trkpt lat="39.4131743" lon="17.0439488"><ele>59.0</ele><time>2026-03-29T12:49:33.924Z</time></trkpt><trkpt lat="39.4131678" lon="17.0436181"><ele>59.0</ele><time>2026-03-29T12:49:35.914Z</time></trkpt><trkpt lat="39.413169" lon="17.0434669"><ele>59.0</ele><time>2026-03-29T12:49:36.92Z</time></trkpt><trkpt lat="39.4131554" lon="17.0431866"><ele>59.0</ele><time>2026-03-29T12:49:38.914Z</time></trkpt><trkpt lat="39.4130916" lon="17.0429651"><ele>58.0</ele><time>2026-03-29T12:49:40.936Z</time></trkpt><trkpt lat="39.413027" lon="17.0428884"><ele>57.0</ele><time>2026-03-29T12:49:41.924Z</time></trkpt><trkpt lat="39.4128071" lon="17.0428044"><ele>56.0</ele><time>2026-03-29T12:49:43.924Z</time></trkpt><trkpt lat="39.4125651" lon="17.0427156"><ele>56.0</ele><time>2026-03-29T12:49:45.922Z</time></trkpt><trkpt lat="39.4123402" lon="17.0426798"><ele>56.0</ele><time>2026-03-29T12:49:47.924Z</time></trkpt><trkpt lat="39.4122195" lon="17.042711"><ele>56.0</ele><time>2026-03-29T12:49:48.943Z</time></trkpt><trkpt lat="39.4119813" lon="17.0427835"><ele>56.0</ele><time>2026-03-29T12:49:50.927Z</time></trkpt><trkpt lat="39.411712" lon="17.0428532"><ele>56.0</ele><time>2026-03-29T12:49:52.93Z</time></trkpt><trkpt lat="39.4114431" lon="17.042928"><ele>53.333333333333336</ele><time>2026-03-29T12:49:54.921Z</time></trkpt><trkpt lat="39.4111929" lon="17.0430017"><ele>50.66666666666667</ele><time>2026-03-29T12:49:56.939Z</time></trkpt><trkpt lat="39.4110795" lon="17.0430362"><ele>48.0</ele><time>2026-03-29T12:49:57.93Z</time></trkpt><trkpt lat="39.4109785" lon="17.0430693"><ele>48.0</ele><time>2026-03-29T12:49:58.934Z</time></trkpt><trkpt lat="39.4108882" lon="17.0430924"><ele>48.0</ele><time>2026-03-29T12:49:59.924Z</time></trkpt><trkpt lat="39.4108065" lon="17.0431013"><ele>48.0</ele><time>2026-03-29T12:50:00.919Z</time></trkpt><trkpt lat="39.410674" lon="17.0430447"><ele>48.0</ele><time>2026-03-29T12:50:02.922Z</time></trkpt><trkpt lat="39.4105783" lon="17.0428744"><ele>48.0</ele><time>2026-03-29T12:50:04.921Z</time></trkpt><trkpt lat="39.4105499" lon="17.0427748"><ele>48.0</ele><time>2026-03-29T12:50:05.933Z</time></trkpt><trkpt lat="39.4105247" lon="17.0426758"><ele>48.0</ele><time>2026-03-29T12:50:06.932Z</time></trkpt><trkpt lat="39.4104941" lon="17.0425915"><ele>48.0</ele><time>2026-03-29T12:50:07.926Z</time></trkpt><trkpt lat="39.410515" lon="17.0423168"><ele>48.0</ele><time>2026-03-29T12:50:10.929Z</time></trkpt><trkpt lat="39.4105527" lon="17.0421866"><ele>48.5</ele><time>2026-03-29T12:50:12.925Z</time></trkpt><trkpt lat="39.410571" lon="17.0421012"><ele>49.0</ele><time>2026-03-29T12:50:14.93Z</time></trkpt><trkpt lat="39.4105579" lon="17.0419558"><ele>49.5</ele><time>2026-03-29T12:50:16.92Z</time></trkpt><trkpt lat="39.4104415" lon="17.0419459"><ele>50.0</ele><time>2026-03-29T12:50:18.921Z</time></trkpt><trkpt lat="39.4103426" lon="17.0421339"><ele>48.75</ele><time>2026-03-29T12:50:20.916Z</time></trkpt><trkpt lat="39.4102763" lon="17.0422765"><ele>47.5</ele><time>2026-03-29T12:50:21.925Z</time></trkpt><trkpt lat="39.410202" lon="17.0424201"><ele>46.25</ele><time>2026-03-29T12:50:22.926Z</time></trkpt><trkpt lat="39.4101462" lon="17.0425643"><ele>45.0</ele><time>2026-03-29T12:50:23.922Z</time></trkpt><trkpt lat="39.4100908" lon="17.0428708"><ele>45.0</ele><time>2026-03-29T12:50:25.923Z</time></trkpt><trkpt lat="39.410025" lon="17.0431934"><ele>45.0</ele><time>2026-03-29T12:50:27.914Z</time></trkpt><trkpt lat="39.4099935" lon="17.0433701"><ele>45.0</ele><time>2026-03-29T12:50:28.916Z</time></trkpt><trkpt lat="39.4099696" lon="17.0435373"><ele>45.25</ele><time>2026-03-29T12:50:29.926Z</time></trkpt><trkpt lat="39.4099456" lon="17.0437925"><ele>45.5</ele><time>2026-03-29T12:50:31.919Z</time></trkpt><trkpt lat="39.4098997" lon="17.0439082"><ele>45.75</ele><time>2026-03-29T12:50:32.939Z</time></trkpt><trkpt lat="39.4098566" lon="17.0440451"><ele>46.0</ele><time>2026-03-29T12:50:33.926Z</time></trkpt><trkpt lat="39.4098261" lon="17.0442113"><ele>46.5</ele><time>2026-03-29T12:50:34.93Z</time></trkpt><trkpt lat="39.4097944" lon="17.0445874"><ele>47.0</ele><time>2026-03-29T12:50:36.927Z</time></trkpt><trkpt lat="39.4097585" lon="17.0449698"><ele>46.0</ele><time>2026-03-29T12:50:38.929Z</time></trkpt><trkpt lat="39.4097002" lon="17.0453463"><ele>45.0</ele><time>2026-03-29T12:50:40.93Z</time></trkpt><trkpt lat="39.4096458" lon="17.0457653"><ele>45.0</ele><time>2026-03-29T12:50:42.922Z</time></trkpt><trkpt lat="39.4096324" lon="17.0461127"><ele>45.0</ele><time>2026-03-29T12:50:44.926Z</time></trkpt><trkpt lat="39.4096456" lon="17.04625"><ele>45.0</ele><time>2026-03-29T12:50:45.938Z</time></trkpt><trkpt lat="39.409663" lon="17.0464788"><ele>48.6</ele><time>2026-03-29T12:50:47.923Z</time></trkpt><trkpt lat="39.4096389" lon="17.0466525"><ele>52.2</ele><time>2026-03-29T12:50:49.919Z</time></trkpt><trkpt lat="39.4096045" lon="17.046766"><ele>55.8</ele><time>2026-03-29T12:51:18.929Z</time></trkpt><trkpt lat="39.4096139" lon="17.0468618"><ele>59.4</ele><time>2026-03-29T12:52:58.932Z</time></trkpt><trkpt lat="39.4096107" lon="17.0469608"><ele>63.0</ele><time>2026-03-29T12:53:00.936Z</time></trkpt><trkpt lat="39.4095984" lon="17.0470724"><ele>63.0</ele><time>2026-03-29T12:53:02.931Z</time></trkpt><trkpt lat="39.40958" lon="17.0472186"><ele>63.0</ele><time>2026-03-29T12:53:04.926Z</time></trkpt><trkpt lat="39.4095645" lon="17.0473073"><ele>63.0</ele><time>2026-03-29T12:53:05.929Z</time></trkpt><trkpt lat="39.4095446" lon="17.0473955"><ele>63.0</ele><time>2026-03-29T12:53:06.933Z</time></trkpt><trkpt lat="39.4095203" lon="17.0474813"><ele>63.0</ele><time>2026-03-29T12:53:07.938Z</time></trkpt><trkpt lat="39.4094966" lon="17.0475649"><ele>63.0</ele><time>2026-03-29T12:53:08.946Z</time></trkpt><trkpt lat="39.4094646" lon="17.0476407"><ele>64.33333333333333</ele><time>2026-03-29T12:53:09.933Z</time></trkpt><trkpt lat="39.4094228" lon="17.0477107"><ele>65.66666666666667</ele><time>2026-03-29T12:53:10.92Z</time></trkpt><trkpt lat="39.4093706" lon="17.0477751"><ele>67.0</ele><time>2026-03-29T12:53:11.95Z</time></trkpt><trkpt lat="39.4093046" lon="17.0478435"><ele>68.33333333333334</ele><time>2026-03-29T12:53:12.956Z</time></trkpt><trkpt lat="39.4092334" lon="17.0479141"><ele>69.66666666666667</ele><time>2026-03-29T12:53:13.927Z</time></trkpt><trkpt lat="39.4091569" lon="17.0479734"><ele>71.0</ele><time>2026-03-29T12:53:14.917Z</time></trkpt><trkpt lat="39.4090749" lon="17.0480204"><ele>71.0</ele><time>2026-03-29T12:53:15.932Z</time></trkpt><trkpt lat="39.4089926" lon="17.0480683"><ele>71.0</ele><time>2026-03-29T12:53:16.922Z</time></trkpt><trkpt lat="39.4089167" lon="17.0481321"><ele>71.0</ele><time>2026-03-29T12:53:17.946Z</time></trkpt><trkpt lat="39.4088478" lon="17.0482016"><ele>71.0</ele><time>2026-03-29T12:53:18.936Z</time></trkpt><trkpt lat="39.4087734" lon="17.0482665"><ele>71.0</ele><time>2026-03-29T12:53:19.931Z</time></trkpt><trkpt lat="39.4086869" lon="17.0483176"><ele>74.8</ele><time>2026-03-29T12:53:20.916Z</time></trkpt><trkpt lat="39.4085906" lon="17.0483618"><ele>78.6</ele><time>2026-03-29T12:53:21.928Z</time></trkpt><trkpt lat="39.4084892" lon="17.0484014"><ele>82.4</ele><time>2026-03-29T12:53:22.931Z</time></trkpt><trkpt lat="39.4083845" lon="17.0484377"><ele>86.2</ele><time>2026-03-29T12:53:23.924Z</time></trkpt><trkpt lat="39.4082761" lon="17.0484691"><ele>90.0</ele><time>2026-03-29T12:53:24.926Z</time></trkpt><trkpt lat="39.4081647" lon="17.0484945"><ele>90.0</ele><time>2026-03-29T12:53:25.93Z</time></trkpt><trkpt lat="39.4080511" lon="17.0485158"><ele>90.0</ele><time>2026-03-29T12:53:26.925Z</time></trkpt><trkpt lat="39.4079356" lon="17.0485339"><ele>90.0</ele><time>2026-03-29T12:53:27.913Z</time></trkpt><trkpt lat="39.4078149" lon="17.0485473"><ele>90.0</ele><time>2026-03-29T12:53:28.94Z</time></trkpt><trkpt lat="39.4076917" lon="17.0485584"><ele>92.25</ele><time>2026-03-29T12:53:29.912Z</time></trkpt><trkpt lat="39.4075628" lon="17.0485685"><ele>94.5</ele><time>2026-03-29T12:53:30.923Z</time></trkpt><trkpt lat="39.4074326" lon="17.048576"><ele>96.75</ele><time>2026-03-29T12:53:31.925Z</time></trkpt><trkpt lat="39.4073018" lon="17.0485831"><ele>99.0</ele><time>2026-03-29T12:53:32.926Z</time></trkpt><trkpt lat="39.4071783" lon="17.0485811"><ele>101.6</ele><time>2026-03-29T12:53:33.924Z</time></trkpt><trkpt lat="39.4070627" lon="17.0485725"><ele>104.2</ele><time>2026-03-29T12:53:34.925Z</time></trkpt><trkpt lat="39.4069551" lon="17.0485582"><ele>106.79999999999998</ele><time>2026-03-29T12:53:35.948Z</time></trkpt><trkpt lat="39.4068571" lon="17.0485434"><ele>109.39999999999999</ele><time>2026-03-29T12:53:36.922Z</time></trkpt><trkpt lat="39.4067753" lon="17.0485122"><ele>112.0</ele><time>2026-03-29T12:53:37.932Z</time></trkpt><trkpt lat="39.4067162" lon="17.0484537"><ele>112.00000000000001</ele><time>2026-03-29T12:53:38.931Z</time></trkpt><trkpt lat="39.4066659" lon="17.0483797"><ele>112.0</ele><time>2026-03-29T12:53:39.937Z</time></trkpt><trkpt lat="39.4066431" lon="17.0482797"><ele>112.0</ele><time>2026-03-29T12:53:40.924Z</time></trkpt><trkpt lat="39.4066329" lon="17.0481635"><ele>112.0</ele><time>2026-03-29T12:53:41.926Z</time></trkpt><trkpt lat="39.4066281" lon="17.048039"><ele>112.00000000000001</ele><time>2026-03-29T12:53:42.943Z</time></trkpt><trkpt lat="39.4066222" lon="17.0479114"><ele>112.0</ele><time>2026-03-29T12:53:43.929Z</time></trkpt><trkpt lat="39.4065998" lon="17.0477893"><ele>111.0</ele><time>2026-03-29T12:53:44.925Z</time></trkpt><trkpt lat="39.4065478" lon="17.047677"><ele>109.99999999999999</ele><time>2026-03-29T12:53:45.931Z</time></trkpt><trkpt lat="39.4064735" lon="17.0475795"><ele>108.99999999999999</ele><time>2026-03-29T12:53:46.932Z</time></trkpt><trkpt lat="39.406388" lon="17.0475005"><ele>108.0</ele><time>2026-03-29T12:53:47.935Z</time></trkpt><trkpt lat="39.4063003" lon="17.0474475"><ele>107.0</ele><time>2026-03-29T12:53:48.927Z</time></trkpt><trkpt lat="39.4062154" lon="17.0474166"><ele>112.39999999999999</ele><time>2026-03-29T12:53:49.94Z</time></trkpt><trkpt lat="39.4061453" lon="17.0474133"><ele>117.79999999999998</ele><time>2026-03-29T12:53:50.928Z</time></trkpt><trkpt lat="39.4060714" lon="17.0474758"><ele>123.2</ele><time>2026-03-29T12:53:52.928Z</time></trkpt><trkpt lat="39.4060543" lon="17.0475902"><ele>128.6</ele><time>2026-03-29T12:53:54.943Z</time></trkpt><trkpt lat="39.406098" lon="17.0477184"><ele>134.0</ele><time>2026-03-29T12:53:56.931Z</time></trkpt><trkpt lat="39.4061407" lon="17.0478618"><ele>134.0</ele><time>2026-03-29T12:53:58.935Z</time></trkpt><trkpt lat="39.4061579" lon="17.0480125"><ele>134.0</ele><time>2026-03-29T12:54:00.931Z</time></trkpt><trkpt lat="39.4061691" lon="17.0481697"><ele>134.0</ele><time>2026-03-29T12:54:02.926Z</time></trkpt><trkpt lat="39.4061324" lon="17.048321"><ele>134.0</ele><time>2026-03-29T12:54:04.936Z</time></trkpt><trkpt lat="39.4060846" lon="17.0483998"><ele>134.0</ele><time>2026-03-29T12:54:05.952Z</time></trkpt><trkpt lat="39.4060356" lon="17.0484911"><ele>134.8</ele><time>2026-03-29T12:54:06.945Z</time></trkpt><trkpt lat="39.4059868" lon="17.0485918"><ele>135.60000000000002</ele><time>2026-03-29T12:54:07.947Z</time></trkpt><trkpt lat="39.4059372" lon="17.0486923"><ele>136.4</ele><time>2026-03-29T12:54:08.931Z</time></trkpt><trkpt lat="39.4058709" lon="17.0487781"><ele>137.20000000000002</ele><time>2026-03-29T12:54:09.934Z</time></trkpt><trkpt lat="39.4058031" lon="17.0488548"><ele>138.0</ele><time>2026-03-29T12:54:10.942Z</time></trkpt><trkpt lat="39.4057311" lon="17.0489153"><ele>138.0</ele><time>2026-03-29T12:54:11.941Z</time></trkpt><trkpt lat="39.4056542" lon="17.0489705"><ele>138.0</ele><time>2026-03-29T12:54:12.934Z</time></trkpt><trkpt lat="39.4055774" lon="17.0490225"><ele>138.0</ele><time>2026-03-29T12:54:13.933Z</time></trkpt><trkpt lat="39.4055018" lon="17.0490773"><ele>138.0</ele><time>2026-03-29T12:54:14.929Z</time></trkpt><trkpt lat="39.4054312" lon="17.0491342"><ele>138.0</ele><time>2026-03-29T12:54:15.943Z</time></trkpt><trkpt lat="39.4053732" lon="17.0491952"><ele>138.0</ele><time>2026-03-29T12:54:16.931Z</time></trkpt><trkpt lat="39.4053211" lon="17.0492584"><ele>140.66666666666666</ele><time>2026-03-29T12:54:17.93Z</time></trkpt><trkpt lat="39.4052853" lon="17.0493355"><ele>143.33333333333334</ele><time>2026-03-29T12:54:18.941Z</time></trkpt><trkpt lat="39.4052627" lon="17.0494231"><ele>146.0</ele><time>2026-03-29T12:54:19.925Z</time></trkpt><trkpt lat="39.4052577" lon="17.0495134"><ele>148.66666666666669</ele><time>2026-03-29T12:54:20.942Z</time></trkpt><trkpt lat="39.4052608" lon="17.049597"><ele>151.33333333333334</ele><time>2026-03-29T12:54:21.94Z</time></trkpt><trkpt lat="39.4052668" lon="17.0497489"><ele>154.0</ele><time>2026-03-29T12:54:23.939Z</time></trkpt><trkpt lat="39.405277" lon="17.0498929"><ele>153.33333333333334</ele><time>2026-03-29T12:54:25.942Z</time></trkpt><trkpt lat="39.4053176" lon="17.0499696"><ele>152.66666666666669</ele><time>2026-03-29T12:54:27.931Z</time></trkpt><trkpt lat="39.4053823" lon="17.0500406"><ele>152.0</ele><time>2026-03-29T12:54:30.934Z</time></trkpt><trkpt lat="39.4054533" lon="17.0501228"><ele>151.33333333333334</ele><time>2026-03-29T12:54:32.937Z</time></trkpt><trkpt lat="39.4055296" lon="17.0502262"><ele>150.66666666666666</ele><time>2026-03-29T12:54:34.939Z</time></trkpt><trkpt lat="39.4055903" lon="17.0503056"><ele>150.0</ele><time>2026-03-29T12:54:36.948Z</time></trkpt><trkpt lat="39.4056425" lon="17.0503793"><ele>150.0</ele><time>2026-03-29T12:54:38.933Z</time></trkpt><trkpt lat="39.4056194" lon="17.0504683"><ele>150.0</ele><time>2026-03-29T12:54:41.936Z</time></trkpt><trkpt lat="39.4055525" lon="17.0504717"><ele>150.0</ele><time>2026-03-29T12:54:43.93Z</time></trkpt><trkpt lat="39.4054443" lon="17.0504701"><ele>150.0</ele><time>2026-03-29T12:54:45.936Z</time></trkpt><trkpt lat="39.4053799" lon="17.0504734"><ele>150.0</ele><time>2026-03-29T12:54:46.936Z</time></trkpt><trkpt lat="39.4053122" lon="17.0504808"><ele>150.0</ele><time>2026-03-29T12:54:47.939Z</time></trkpt><trkpt lat="39.4052425" lon="17.0504888"><ele>150.0</ele><time>2026-03-29T12:54:48.931Z</time></trkpt><trkpt lat="39.4051645" lon="17.0504946"><ele>150.0</ele><time>2026-03-29T12:54:49.939Z</time></trkpt><trkpt lat="39.4050795" lon="17.0505016"><ele>150.0</ele><time>2026-03-29T12:54:50.93Z</time></trkpt><trkpt lat="39.4049933" lon="17.0505085"><ele>150.0</ele><time>2026-03-29T12:54:51.935Z</time></trkpt><trkpt lat="39.4049064" lon="17.0505131"><ele>150.0</ele><time>2026-03-29T12:54:52.931Z</time></trkpt><trkpt lat="39.4048224" lon="17.0505177"><ele>150.0</ele><time>2026-03-29T12:54:53.935Z</time></trkpt><trkpt lat="39.4047448" lon="17.0505234"><ele>150.0</ele><time>2026-03-29T12:54:54.935Z</time></trkpt><trkpt lat="39.4046649" lon="17.0505266"><ele>150.0</ele><time>2026-03-29T12:54:55.946Z</time></trkpt><trkpt lat="39.4045827" lon="17.0505278"><ele>150.0</ele><time>2026-03-29T12:54:56.934Z</time></trkpt><trkpt lat="39.4045003" lon="17.050528"><ele>150.0</ele><time>2026-03-29T12:54:57.94Z</time></trkpt><trkpt lat="39.4044205" lon="17.0505293"><ele>150.0</ele><time>2026-03-29T12:54:58.939Z</time></trkpt><trkpt lat="39.4043377" lon="17.0505363"><ele>150.0</ele><time>2026-03-29T12:54:59.943Z</time></trkpt><trkpt lat="39.404254" lon="17.0505419"><ele>149.83333333333334</ele><time>2026-03-29T12:55:00.934Z</time></trkpt><trkpt lat="39.4041681" lon="17.0505462"><ele>149.66666666666666</ele><time>2026-03-29T12:55:01.923Z</time></trkpt><trkpt lat="39.4040789" lon="17.0505492"><ele>149.5</ele><time>2026-03-29T12:55:02.934Z</time></trkpt><trkpt lat="39.4039876" lon="17.0505506"><ele>149.33333333333331</ele><time>2026-03-29T12:55:03.931Z</time></trkpt><trkpt lat="39.4038969" lon="17.0505493"><ele>149.16666666666666</ele><time>2026-03-29T12:55:04.929Z</time></trkpt><trkpt lat="39.4038066" lon="17.0505419"><ele>149.0</ele><time>2026-03-29T12:55:05.945Z</time></trkpt><trkpt lat="39.4037248" lon="17.0505318"><ele>148.66666666666666</ele><time>2026-03-29T12:55:06.931Z</time></trkpt><trkpt lat="39.403648" lon="17.0505142"><ele>148.33333333333331</ele><time>2026-03-29T12:55:07.929Z</time></trkpt><trkpt lat="39.4035712" lon="17.0504949"><ele>148.0</ele><time>2026-03-29T12:55:08.932Z</time></trkpt><trkpt lat="39.403495" lon="17.0504771"><ele>147.66666666666666</ele><time>2026-03-29T12:55:09.93Z</time></trkpt><trkpt lat="39.4034158" lon="17.0504797"><ele>147.33333333333334</ele><time>2026-03-29T12:55:10.935Z</time></trkpt><trkpt lat="39.4033312" lon="17.0504895"><ele>147.0</ele><time>2026-03-29T12:55:11.93Z</time></trkpt><trkpt lat="39.403253" lon="17.0505029"><ele>147.0</ele><time>2026-03-29T12:55:12.941Z</time></trkpt><trkpt lat="39.4031853" lon="17.0505048"><ele>147.0</ele><time>2026-03-29T12:55:13.937Z</time></trkpt><trkpt lat="39.4031192" lon="17.0504851"><ele>147.0</ele><time>2026-03-29T12:55:14.935Z</time></trkpt><trkpt lat="39.4030546" lon="17.0504513"><ele>147.0</ele><time>2026-03-29T12:55:15.938Z</time></trkpt><trkpt lat="39.4029882" lon="17.0504189"><ele>147.0</ele><time>2026-03-29T12:55:16.934Z</time></trkpt><trkpt lat="39.402915" lon="17.0503987"><ele>147.0</ele><time>2026-03-29T12:55:17.935Z</time></trkpt><trkpt lat="39.4028318" lon="17.0503888"><ele>147.0</ele><time>2026-03-29T12:55:18.934Z</time></trkpt><trkpt lat="39.402745" lon="17.0503802"><ele>144.83333333333334</ele><time>2026-03-29T12:55:19.928Z</time></trkpt><trkpt lat="39.4026566" lon="17.0503836"><ele>142.66666666666666</ele><time>2026-03-29T12:55:20.95Z</time></trkpt><trkpt lat="39.4025778" lon="17.0504004"><ele>140.5</ele><time>2026-03-29T12:55:21.936Z</time></trkpt><trkpt lat="39.402505" lon="17.0504099"><ele>138.33333333333331</ele><time>2026-03-29T12:55:22.935Z</time></trkpt><trkpt lat="39.4024403" lon="17.05042"><ele>136.16666666666666</ele><time>2026-03-29T12:55:23.927Z</time></trkpt><trkpt lat="39.4023172" lon="17.0504146"><ele>134.0</ele><time>2026-03-29T12:55:25.927Z</time></trkpt><trkpt lat="39.4022554" lon="17.0503963"><ele>131.83333333333331</ele><time>2026-03-29T12:55:26.943Z</time></trkpt><trkpt lat="39.4021431" lon="17.0503139"><ele>129.66666666666666</ele><time>2026-03-29T12:55:28.936Z</time></trkpt><trkpt lat="39.402083" lon="17.0502888"><ele>127.5</ele><time>2026-03-29T12:55:29.945Z</time></trkpt><trkpt lat="39.4019599" lon="17.050265"><ele>125.33333333333334</ele><time>2026-03-29T12:55:31.934Z</time></trkpt><trkpt lat="39.4018942" lon="17.050262"><ele>123.16666666666667</ele><time>2026-03-29T12:55:32.933Z</time></trkpt><trkpt lat="39.4018282" lon="17.0502705"><ele>121.0</ele><time>2026-03-29T12:55:33.935Z</time></trkpt><trkpt lat="39.4017538" lon="17.0502705"><ele>121.00000000000001</ele><time>2026-03-29T12:55:34.933Z</time></trkpt><trkpt lat="39.4016714" lon="17.0502582"><ele>121.0</ele><time>2026-03-29T12:55:35.934Z</time></trkpt><trkpt lat="39.4015991" lon="17.0502307"><ele>121.0</ele><time>2026-03-29T12:55:36.932Z</time></trkpt><trkpt lat="39.4015418" lon="17.0501923"><ele>121.0</ele><time>2026-03-29T12:55:37.927Z</time></trkpt><trkpt lat="39.4014555" lon="17.0500882"><ele>121.00000000000001</ele><time>2026-03-29T12:55:39.962Z</time></trkpt><trkpt lat="39.4013741" lon="17.050019"><ele>121.0</ele><time>2026-03-29T12:55:41.928Z</time></trkpt><trkpt lat="39.4012535" lon="17.0500016"><ele>117.83333333333334</ele><time>2026-03-29T12:55:43.924Z</time></trkpt><trkpt lat="39.4011514" lon="17.050005"><ele>114.66666666666667</ele><time>2026-03-29T12:55:45.934Z</time></trkpt><trkpt lat="39.4010785" lon="17.0500219"><ele>111.5</ele><time>2026-03-29T12:55:47.94Z</time></trkpt><trkpt lat="39.4010133" lon="17.0500248"><ele>108.33333333333334</ele><time>2026-03-29T12:55:49.932Z</time></trkpt><trkpt lat="39.4009204" lon="17.0500188"><ele>105.16666666666667</ele><time>2026-03-29T12:55:52.938Z</time></trkpt><trkpt lat="39.4008521" lon="17.0500091"><ele>102.0</ele><time>2026-03-29T12:55:54.935Z</time></trkpt><trkpt lat="39.4007645" lon="17.0499821"><ele>99.39999999999999</ele><time>2026-03-29T12:55:57.935Z</time></trkpt><trkpt lat="39.4006935" lon="17.0499533"><ele>96.8</ele><time>2026-03-29T12:55:59.948Z</time></trkpt><trkpt lat="39.4006123" lon="17.0498975"><ele>94.2</ele><time>2026-03-29T12:56:01.931Z</time></trkpt><trkpt lat="39.4005381" lon="17.0498186"><ele>91.6</ele><time>2026-03-29T12:56:03.933Z</time></trkpt><trkpt lat="39.4004523" lon="17.0497567"><ele>89.0</ele><time>2026-03-29T12:56:05.933Z</time></trkpt><trkpt lat="39.4003349" lon="17.0497199"><ele>89.0</ele><time>2026-03-29T12:56:07.936Z</time></trkpt><trkpt lat="39.4002279" lon="17.049659"><ele>89.0</ele><time>2026-03-29T12:56:09.931Z</time></trkpt><trkpt lat="39.4001326" lon="17.0496024"><ele>89.0</ele><time>2026-03-29T12:56:11.929Z</time></trkpt><trkpt lat="39.4000567" lon="17.0495852"><ele>89.0</ele><time>2026-03-29T12:56:13.922Z</time></trkpt><trkpt lat="39.4000224" lon="17.0496561"><ele>89.0</ele><time>2026-03-29T12:56:15.921Z</time></trkpt><trkpt lat="39.4000663" lon="17.0497795"><ele>89.0</ele><time>2026-03-29T12:56:17.937Z</time></trkpt><trkpt lat="39.4001072" lon="17.0498535"><ele>89.0</ele><time>2026-03-29T12:56:18.93Z</time></trkpt><trkpt lat="39.4001476" lon="17.049928"><ele>89.0</ele><time>2026-03-29T12:56:19.936Z</time></trkpt><trkpt lat="39.4002008" lon="17.0500498"><ele>89.0</ele><time>2026-03-29T12:56:21.937Z</time></trkpt><trkpt lat="39.4001899" lon="17.0501491"><ele>89.0</ele><time>2026-03-29T12:56:23.928Z</time></trkpt><trkpt lat="39.4001725" lon="17.0502388"><ele>89.0</ele><time>2026-03-29T12:56:25.931Z</time></trkpt><trkpt lat="39.4001518" lon="17.0503284"><ele>88.0</ele><time>2026-03-29T12:56:28.928Z</time></trkpt><trkpt lat="39.4001805" lon="17.050411"><ele>87.0</ele><time>2026-03-29T12:56:34.925Z</time></trkpt><trkpt lat="39.4002292" lon="17.0504808"><ele>86.0</ele><time>2026-03-29T12:56:39.93Z</time></trkpt><trkpt lat="39.4002178" lon="17.0505652"><ele>85.0</ele><time>2026-03-29T12:56:44.93Z</time></trkpt><trkpt lat="39.4002164" lon="17.0506777"><ele>84.0</ele><time>2026-03-29T12:56:48.936Z</time></trkpt><trkpt lat="39.4002545" lon="17.050754"><ele>83.0</ele><time>2026-03-29T12:56:50.938Z</time></trkpt><trkpt lat="39.400319" lon="17.0508357"><ele>83.0</ele><time>2026-03-29T12:56:52.934Z</time></trkpt><trkpt lat="39.4003727" lon="17.0509451"><ele>83.0</ele><time>2026-03-29T12:56:54.929Z</time></trkpt><trkpt lat="39.4004108" lon="17.0510728"><ele>83.0</ele><time>2026-03-29T12:56:56.932Z</time></trkpt><trkpt lat="39.4004614" lon="17.0511917"><ele>83.0</ele><time>2026-03-29T12:56:58.93Z</time></trkpt><trkpt lat="39.4005225" lon="17.0513137"><ele>83.0</ele><time>2026-03-29T12:57:00.928Z</time></trkpt><trkpt lat="39.4005751" lon="17.0514413"><ele>83.0</ele><time>2026-03-29T12:57:02.933Z</time></trkpt><trkpt lat="39.4006199" lon="17.0515325"><ele>83.0</ele><time>2026-03-29T12:57:04.931Z</time></trkpt><trkpt lat="39.4006576" lon="17.051604"><ele>83.0</ele><time>2026-03-29T12:57:08.929Z</time></trkpt><trkpt lat="39.4006919" lon="17.0516776"><ele>83.0</ele><time>2026-03-29T12:57:16.949Z</time></trkpt><trkpt lat="39.400736" lon="17.0517738"><ele>83.0</ele><time>2026-03-29T12:57:20.936Z</time></trkpt><trkpt lat="39.4007758" lon="17.0518627"><ele>83.0</ele><time>2026-03-29T12:57:23.93Z</time></trkpt><trkpt lat="39.4008239" lon="17.0519164"><ele>83.0</ele><time>2026-03-29T12:57:25.925Z</time></trkpt><trkpt lat="39.4008896" lon="17.0519689"><ele>82.0</ele><time>2026-03-29T12:57:28.922Z</time></trkpt><trkpt lat="39.4009532" lon="17.0520043"><ele>81.0</ele><time>2026-03-29T12:57:32.939Z</time></trkpt><trkpt lat="39.4010159" lon="17.0520431"><ele>80.0</ele><time>2026-03-29T12:57:37.932Z</time></trkpt><trkpt lat="39.4010819" lon="17.0520868"><ele>79.0</ele><time>2026-03-29T12:57:51.929Z</time></trkpt><trkpt lat="39.4010856" lon="17.0521845"><ele>78.0</ele><time>2026-03-29T12:57:54.933Z</time></trkpt><trkpt lat="39.401129" lon="17.0522524"><ele>77.0</ele><time>2026-03-29T12:57:57.934Z</time></trkpt><trkpt lat="39.4011997" lon="17.0522529"><ele>76.0</ele><time>2026-03-29T12:58:01.936Z</time></trkpt><trkpt lat="39.4012873" lon="17.052286"><ele>77.0</ele><time>2026-03-29T12:58:05.925Z</time></trkpt><trkpt lat="39.4013768" lon="17.0523079"><ele>78.0</ele><time>2026-03-29T12:58:07.925Z</time></trkpt><trkpt lat="39.4014579" lon="17.0523266"><ele>79.0</ele><time>2026-03-29T12:58:09.925Z</time></trkpt><trkpt lat="39.4015275" lon="17.052342"><ele>80.0</ele><time>2026-03-29T12:58:11.916Z</time></trkpt><trkpt lat="39.4016161" lon="17.0523509"><ele>81.0</ele><time>2026-03-29T12:58:13.943Z</time></trkpt><trkpt lat="39.4017339" lon="17.0524065"><ele>81.0</ele><time>2026-03-29T12:58:15.93Z</time></trkpt><trkpt lat="39.4017889" lon="17.0524492"><ele>81.0</ele><time>2026-03-29T12:58:16.924Z</time></trkpt><trkpt lat="39.4018884" lon="17.0525384"><ele>81.0</ele><time>2026-03-29T12:58:18.957Z</time></trkpt><trkpt lat="39.4019769" lon="17.052623"><ele>81.0</ele><time>2026-03-29T12:58:20.932Z</time></trkpt><trkpt lat="39.4020357" lon="17.0527168"><ele>81.0</ele><time>2026-03-29T12:58:22.93Z</time></trkpt><trkpt lat="39.4020764" lon="17.052824"><ele>79.8</ele><time>2026-03-29T12:58:24.933Z</time></trkpt><trkpt lat="39.402108" lon="17.0529438"><ele>78.6</ele><time>2026-03-29T12:58:26.929Z</time></trkpt><trkpt lat="39.4021351" lon="17.0530537"><ele>77.4</ele><time>2026-03-29T12:58:29.952Z</time></trkpt><trkpt lat="39.4021897" lon="17.0531321"><ele>76.2</ele><time>2026-03-29T12:58:33.93Z</time></trkpt><trkpt lat="39.4022659" lon="17.0532096"><ele>75.0</ele><time>2026-03-29T12:58:36.929Z</time></trkpt><trkpt lat="39.4023353" lon="17.0533166"><ele>75.0</ele><time>2026-03-29T12:58:38.935Z</time></trkpt><trkpt lat="39.4024024" lon="17.0534085"><ele>75.0</ele><time>2026-03-29T12:58:40.907Z</time></trkpt><trkpt lat="39.4024271" lon="17.053533"><ele>75.0</ele><time>2026-03-29T12:58:42.921Z</time></trkpt><trkpt lat="39.4024427" lon="17.0536336"><ele>75.0</ele><time>2026-03-29T12:58:44.911Z</time></trkpt><trkpt lat="39.4024778" lon="17.0537046"><ele>75.0</ele><time>2026-03-29T12:58:47.917Z</time></trkpt><trkpt lat="39.4025391" lon="17.0537783"><ele>75.0</ele><time>2026-03-29T12:58:58.934Z</time></trkpt><trkpt lat="39.4025926" lon="17.0538374"><ele>74.99999999999999</ele><time>2026-03-29T12:59:01.923Z</time></trkpt><trkpt lat="39.4026498" lon="17.0538812"><ele>75.0</ele><time>2026-03-29T12:59:04.927Z</time></trkpt><trkpt lat="39.4026996" lon="17.0539511"><ele>75.0</ele><time>2026-03-29T12:59:09.939Z</time></trkpt><trkpt lat="39.4027509" lon="17.0540179"><ele>75.0</ele><time>2026-03-29T12:59:15.949Z</time></trkpt><trkpt lat="39.4028053" lon="17.0540594"><ele>75.0</ele><time>2026-03-29T12:59:20.925Z</time></trkpt><trkpt lat="39.4028564" lon="17.0541171"><ele>74.99999999999999</ele><time>2026-03-29T12:59:24.932Z</time></trkpt><trkpt lat="39.4028944" lon="17.0542108"><ele>75.0</ele><time>2026-03-29T12:59:28.934Z</time></trkpt><trkpt lat="39.4029479" lon="17.0542635"><ele>74.8</ele><time>2026-03-29T12:59:34.943Z</time></trkpt><trkpt lat="39.4029916" lon="17.054338"><ele>74.6</ele><time>2026-03-29T12:59:36.928Z</time></trkpt><trkpt lat="39.4030543" lon="17.0544693"><ele>74.4</ele><time>2026-03-29T12:59:38.933Z</time></trkpt><trkpt lat="39.4031413" lon="17.0545603"><ele>74.2</ele><time>2026-03-29T12:59:40.933Z</time></trkpt><trkpt lat="39.4032184" lon="17.0546657"><ele>74.0</ele><time>2026-03-29T12:59:42.929Z</time></trkpt><trkpt lat="39.403284" lon="17.054768"><ele>74.0</ele><time>2026-03-29T12:59:44.935Z</time></trkpt><trkpt lat="39.4033578" lon="17.0548452"><ele>74.0</ele><time>2026-03-29T12:59:46.934Z</time></trkpt><trkpt lat="39.4034481" lon="17.0549097"><ele>74.0</ele><time>2026-03-29T12:59:48.934Z</time></trkpt><trkpt lat="39.4035435" lon="17.0549671"><ele>74.0</ele><time>2026-03-29T12:59:50.938Z</time></trkpt><trkpt lat="39.4036422" lon="17.055038"><ele>74.0</ele><time>2026-03-29T12:59:52.929Z</time></trkpt><trkpt lat="39.4036399" lon="17.0551646"><ele>72.83333333333334</ele><time>2026-03-29T12:59:54.927Z</time></trkpt><trkpt lat="39.4035986" lon="17.0552311"><ele>71.66666666666667</ele><time>2026-03-29T12:59:55.937Z</time></trkpt><trkpt lat="39.4035472" lon="17.0552963"><ele>70.5</ele><time>2026-03-29T12:59:56.933Z</time></trkpt><trkpt lat="39.4034963" lon="17.05537"><ele>69.33333333333333</ele><time>2026-03-29T12:59:57.941Z</time></trkpt><trkpt lat="39.4034524" lon="17.0554542"><ele>68.16666666666666</ele><time>2026-03-29T12:59:58.959Z</time></trkpt><trkpt lat="39.4034141" lon="17.0555354"><ele>67.0</ele><time>2026-03-29T12:59:59.939Z</time></trkpt><trkpt lat="39.4033669" lon="17.0556589"><ele>67.0</ele><time>2026-03-29T13:00:01.93Z</time></trkpt><trkpt lat="39.4033399" lon="17.0557457"><ele>67.0</ele><time>2026-03-29T13:00:05.933Z</time></trkpt><trkpt lat="39.4033257" lon="17.0558512"><ele>67.0</ele><time>2026-03-29T13:00:08.93Z</time></trkpt><trkpt lat="39.4033243" lon="17.0559544"><ele>67.0</ele><time>2026-03-29T13:00:10.943Z</time></trkpt><trkpt lat="39.4033207" lon="17.0560479"><ele>67.0</ele><time>2026-03-29T13:00:12.927Z</time></trkpt><trkpt lat="39.4033305" lon="17.0561326"><ele>67.0</ele><time>2026-03-29T13:00:14.93Z</time></trkpt><trkpt lat="39.403359" lon="17.0562494"><ele>66.4</ele><time>2026-03-29T13:00:16.948Z</time></trkpt><trkpt lat="39.4033929" lon="17.0563889"><ele>65.80000000000001</ele><time>2026-03-29T13:00:18.933Z</time></trkpt><trkpt lat="39.403442" lon="17.0565238"><ele>65.2</ele><time>2026-03-29T13:00:20.938Z</time></trkpt><trkpt lat="39.4034795" lon="17.0566301"><ele>64.60000000000001</ele><time>2026-03-29T13:00:22.938Z</time></trkpt><trkpt lat="39.4035256" lon="17.0566914"><ele>64.0</ele><time>2026-03-29T13:00:24.937Z</time></trkpt><trkpt lat="39.4035855" lon="17.0567669"><ele>63.800000000000004</ele><time>2026-03-29T13:00:26.924Z</time></trkpt><trkpt lat="39.4036466" lon="17.0568545"><ele>63.60000000000001</ele><time>2026-03-29T13:00:28.932Z</time></trkpt><trkpt lat="39.4037168" lon="17.0569423"><ele>63.4</ele><time>2026-03-29T13:00:30.94Z</time></trkpt><trkpt lat="39.4037903" lon="17.0570651"><ele>63.2</ele><time>2026-03-29T13:00:32.932Z</time></trkpt><trkpt lat="39.4038339" lon="17.0572178"><ele>63.0</ele><time>2026-03-29T13:00:34.929Z</time></trkpt><trkpt lat="39.4038459" lon="17.0573039"><ele>63.14285714285714</ele><time>2026-03-29T13:00:35.932Z</time></trkpt><trkpt lat="39.4038564" lon="17.0573904"><ele>63.285714285714285</ele><time>2026-03-29T13:00:36.933Z</time></trkpt><trkpt lat="39.4038698" lon="17.0574743"><ele>63.42857142857143</ele><time>2026-03-29T13:00:37.938Z</time></trkpt><trkpt lat="39.4039107" lon="17.0576175"><ele>63.57142857142857</ele><time>2026-03-29T13:00:39.931Z</time></trkpt><trkpt lat="39.403958" lon="17.0576827"><ele>63.71428571428571</ele><time>2026-03-29T13:00:41.946Z</time></trkpt><trkpt lat="39.4040144" lon="17.0577191"><ele>63.857142857142854</ele><time>2026-03-29T13:00:44.935Z</time></trkpt><trkpt lat="39.4040727" lon="17.0577512"><ele>64.0</ele><time>2026-03-29T13:00:48.928Z</time></trkpt><trkpt lat="39.4041615" lon="17.0578035"><ele>64.0</ele><time>2026-03-29T13:00:52.937Z</time></trkpt><trkpt lat="39.4042303" lon="17.0578799"><ele>64.0</ele><time>2026-03-29T13:00:54.946Z</time></trkpt><trkpt lat="39.4043147" lon="17.0579351"><ele>64.0</ele><time>2026-03-29T13:00:56.935Z</time></trkpt><trkpt lat="39.4043957" lon="17.0580048"><ele>64.0</ele><time>2026-03-29T13:00:58.944Z</time></trkpt><trkpt lat="39.4044457" lon="17.0581238"><ele>64.0</ele><time>2026-03-29T13:01:00.942Z</time></trkpt><trkpt lat="39.4044659" lon="17.0582058"><ele>64.0</ele><time>2026-03-29T13:01:01.931Z</time></trkpt><trkpt lat="39.4044819" lon="17.0582887"><ele>64.0</ele><time>2026-03-29T13:01:02.925Z</time></trkpt><trkpt lat="39.4045283" lon="17.0584319"><ele>64.0</ele><time>2026-03-29T13:01:04.929Z</time></trkpt><trkpt lat="39.4046003" lon="17.058539"><ele>64.0</ele><time>2026-03-29T13:01:06.933Z</time></trkpt><trkpt lat="39.4046536" lon="17.0586263"><ele>64.0</ele><time>2026-03-29T13:01:08.934Z</time></trkpt><trkpt lat="39.4047085" lon="17.0586973"><ele>63.99999999999999</ele><time>2026-03-29T13:01:10.936Z</time></trkpt><trkpt lat="39.4047585" lon="17.0587577"><ele>64.0</ele><time>2026-03-29T13:01:12.935Z</time></trkpt><trkpt lat="39.4048191" lon="17.0588471"><ele>64.0</ele><time>2026-03-29T13:01:15.922Z</time></trkpt><trkpt lat="39.4048704" lon="17.0588963"><ele>64.0</ele><time>2026-03-29T13:01:19.929Z</time></trkpt><trkpt lat="39.4049401" lon="17.058948"><ele>63.99999999999999</ele><time>2026-03-29T13:01:31.93Z</time></trkpt><trkpt lat="39.4050135" lon="17.0590217"><ele>64.0</ele><time>2026-03-29T13:01:33.93Z</time></trkpt><trkpt lat="39.4050818" lon="17.0591286"><ele>62.6</ele><time>2026-03-29T13:01:35.928Z</time></trkpt><trkpt lat="39.4051286" lon="17.0592578"><ele>61.2</ele><time>2026-03-29T13:01:37.945Z</time></trkpt><trkpt lat="39.4051554" lon="17.0594164"><ele>59.800000000000004</ele><time>2026-03-29T13:01:39.934Z</time></trkpt><trkpt lat="39.4051616" lon="17.0594987"><ele>58.400000000000006</ele><time>2026-03-29T13:01:40.928Z</time></trkpt><trkpt lat="39.4051445" lon="17.0596525"><ele>57.0</ele><time>2026-03-29T13:01:42.931Z</time></trkpt><trkpt lat="39.4051043" lon="17.059774"><ele>57.0</ele><time>2026-03-29T13:01:44.93Z</time></trkpt><trkpt lat="39.4050567" lon="17.0599019"><ele>57.0</ele><time>2026-03-29T13:01:46.929Z</time></trkpt><trkpt lat="39.4050065" lon="17.0600492"><ele>57.0</ele><time>2026-03-29T13:01:48.936Z</time></trkpt><trkpt lat="39.4049853" lon="17.0601291"><ele>57.0</ele><time>2026-03-29T13:01:49.931Z</time></trkpt><trkpt lat="39.4049683" lon="17.0602139"><ele>57.0</ele><time>2026-03-29T13:01:50.926Z</time></trkpt><trkpt lat="39.4049492" lon="17.0602981"><ele>57.0</ele><time>2026-03-29T13:01:51.931Z</time></trkpt><trkpt lat="39.4049246" lon="17.0603782"><ele>57.0</ele><time>2026-03-29T13:01:52.933Z</time></trkpt><trkpt lat="39.4048972" lon="17.0604524"><ele>57.0</ele><time>2026-03-29T13:01:53.939Z</time></trkpt><trkpt lat="39.4048611" lon="17.0605608"><ele>57.0</ele><time>2026-03-29T13:01:55.917Z</time></trkpt><trkpt lat="39.4048199" lon="17.0606495"><ele>57.0</ele><time>2026-03-29T13:01:57.929Z</time></trkpt><trkpt lat="39.4047475" lon="17.0607683"><ele>57.0</ele><time>2026-03-29T13:01:59.93Z</time></trkpt><trkpt lat="39.4046981" lon="17.0608297"><ele>57.0</ele><time>2026-03-29T13:02:00.932Z</time></trkpt><trkpt lat="39.4046475" lon="17.0608915"><ele>56.400000000000006</ele><time>2026-03-29T13:02:01.929Z</time></trkpt><trkpt lat="39.4045956" lon="17.0610193"><ele>55.800000000000004</ele><time>2026-03-29T13:02:03.949Z</time></trkpt><trkpt lat="39.4046125" lon="17.0611264"><ele>55.2</ele><time>2026-03-29T13:02:05.93Z</time></trkpt><trkpt lat="39.4046683" lon="17.0612265"><ele>54.6</ele><time>2026-03-29T13:02:07.937Z</time></trkpt><trkpt lat="39.4047476" lon="17.0613238"><ele>54.0</ele><time>2026-03-29T13:02:09.925Z</time></trkpt><trkpt lat="39.4048375" lon="17.0613954"><ele>54.0</ele><time>2026-03-29T13:02:11.924Z</time></trkpt><trkpt lat="39.4049609" lon="17.0614416"><ele>54.00000000000001</ele><time>2026-03-29T13:02:13.924Z</time></trkpt><trkpt lat="39.4050288" lon="17.0614688"><ele>54.00000000000001</ele><time>2026-03-29T13:02:14.93Z</time></trkpt><trkpt lat="39.4050904" lon="17.0614949"><ele>54.0</ele><time>2026-03-29T13:02:15.911Z</time></trkpt><trkpt lat="39.4051935" lon="17.0615338"><ele>54.0</ele><time>2026-03-29T13:02:17.931Z</time></trkpt><trkpt lat="39.4052764" lon="17.0615965"><ele>54.0</ele><time>2026-03-29T13:02:19.919Z</time></trkpt><trkpt lat="39.4052981" lon="17.061721"><ele>54.00000000000001</ele><time>2026-03-29T13:02:21.934Z</time></trkpt><trkpt lat="39.4052757" lon="17.0618449"><ele>54.00000000000001</ele><time>2026-03-29T13:02:23.929Z</time></trkpt><trkpt lat="39.4052961" lon="17.0619413"><ele>54.0</ele><time>2026-03-29T13:02:25.953Z</time></trkpt><trkpt lat="39.4053606" lon="17.0620563"><ele>54.0</ele><time>2026-03-29T13:02:27.927Z</time></trkpt><trkpt lat="39.4054391" lon="17.0621766"><ele>54.0</ele><time>2026-03-29T13:02:29.926Z</time></trkpt><trkpt lat="39.4054767" lon="17.0622479"><ele>54.0</ele><time>2026-03-29T13:02:30.931Z</time></trkpt><trkpt lat="39.4055041" lon="17.0623294"><ele>54.0</ele><time>2026-03-29T13:02:31.938Z</time></trkpt><trkpt lat="39.4055269" lon="17.0624186"><ele>54.0</ele><time>2026-03-29T13:02:32.935Z</time></trkpt><trkpt lat="39.4055524" lon="17.0625045"><ele>54.0</ele><time>2026-03-29T13:02:33.925Z</time></trkpt><trkpt lat="39.4055578" lon="17.0626611"><ele>54.0</ele><time>2026-03-29T13:02:35.927Z</time></trkpt><trkpt lat="39.4055268" lon="17.062743"><ele>53.666666666666664</ele><time>2026-03-29T13:02:36.929Z</time></trkpt><trkpt lat="39.4054992" lon="17.0628271"><ele>53.33333333333333</ele><time>2026-03-29T13:02:37.929Z</time></trkpt><trkpt lat="39.4054803" lon="17.0629094"><ele>53.0</ele><time>2026-03-29T13:02:38.932Z</time></trkpt><trkpt lat="39.4054551" lon="17.0630405"><ele>52.666666666666664</ele><time>2026-03-29T13:02:40.925Z</time></trkpt><trkpt lat="39.405468" lon="17.0631548"><ele>52.33333333333333</ele><time>2026-03-29T13:02:42.919Z</time></trkpt><trkpt lat="39.40548" lon="17.0632433"><ele>52.0</ele><time>2026-03-29T13:02:44.926Z</time></trkpt><trkpt lat="39.4055001" lon="17.0633814"><ele>51.6</ele><time>2026-03-29T13:02:46.923Z</time></trkpt><trkpt lat="39.4055232" lon="17.0635161"><ele>51.2</ele><time>2026-03-29T13:02:48.936Z</time></trkpt><trkpt lat="39.4055697" lon="17.0636325"><ele>50.8</ele><time>2026-03-29T13:02:50.934Z</time></trkpt><trkpt lat="39.4056407" lon="17.063742"><ele>50.4</ele><time>2026-03-29T13:02:52.934Z</time></trkpt><trkpt lat="39.4057058" lon="17.0638135"><ele>50.0</ele><time>2026-03-29T13:02:54.929Z</time></trkpt><trkpt lat="39.4057847" lon="17.063861"><ele>50.0</ele><time>2026-03-29T13:02:56.944Z</time></trkpt><trkpt lat="39.4058478" lon="17.0639428"><ele>50.0</ele><time>2026-03-29T13:02:58.933Z</time></trkpt><trkpt lat="39.4058659" lon="17.0640819"><ele>50.0</ele><time>2026-03-29T13:03:00.934Z</time></trkpt><trkpt lat="39.4058535" lon="17.0642436"><ele>50.0</ele><time>2026-03-29T13:03:02.925Z</time></trkpt><trkpt lat="39.4058575" lon="17.064384"><ele>50.0</ele><time>2026-03-29T13:03:04.933Z</time></trkpt><trkpt lat="39.4058609" lon="17.0645261"><ele>50.00000000000001</ele><time>2026-03-29T13:03:06.928Z</time></trkpt><trkpt lat="39.4058576" lon="17.0646655"><ele>50.0</ele><time>2026-03-29T13:03:08.931Z</time></trkpt><trkpt lat="39.4058574" lon="17.0647754"><ele>50.0</ele><time>2026-03-29T13:03:10.931Z</time></trkpt><trkpt lat="39.4058816" lon="17.0648616"><ele>50.0</ele><time>2026-03-29T13:03:14.936Z</time></trkpt><trkpt lat="39.4059103" lon="17.0649437"><ele>50.00000000000001</ele><time>2026-03-29T13:03:20.932Z</time></trkpt><trkpt lat="39.4059161" lon="17.06504"><ele>50.0</ele><time>2026-03-29T13:04:39.905Z</time></trkpt><trkpt lat="39.4059604" lon="17.0651498"><ele>49.833333333333336</ele><time>2026-03-29T13:04:41.905Z</time></trkpt><trkpt lat="39.4060141" lon="17.06524"><ele>49.66666666666667</ele><time>2026-03-29T13:04:43.909Z</time></trkpt><trkpt lat="39.4060573" lon="17.0653025"><ele>49.5</ele><time>2026-03-29T13:04:45.906Z</time></trkpt><trkpt lat="39.4060798" lon="17.0653823"><ele>49.33333333333333</ele><time>2026-03-29T13:04:54.909Z</time></trkpt><trkpt lat="39.4060765" lon="17.0654734"><ele>49.166666666666664</ele><time>2026-03-29T13:04:56.909Z</time></trkpt><trkpt lat="39.4060507" lon="17.0655877"><ele>49.0</ele><time>2026-03-29T13:04:58.914Z</time></trkpt><trkpt lat="39.406003" lon="17.0657071"><ele>49.166666666666664</ele><time>2026-03-29T13:05:00.905Z</time></trkpt><trkpt lat="39.4059532" lon="17.0658083"><ele>49.33333333333333</ele><time>2026-03-29T13:05:02.913Z</time></trkpt><trkpt lat="39.4059192" lon="17.0658876"><ele>49.5</ele><time>2026-03-29T13:05:04.921Z</time></trkpt><trkpt lat="39.4058955" lon="17.0659985"><ele>49.66666666666667</ele><time>2026-03-29T13:05:07.907Z</time></trkpt><trkpt lat="39.4058905" lon="17.0660979"><ele>49.833333333333336</ele><time>2026-03-29T13:05:09.905Z</time></trkpt><trkpt lat="39.4058813" lon="17.0662285"><ele>50.0</ele><time>2026-03-29T13:05:11.91Z</time></trkpt><trkpt lat="39.4058628" lon="17.0663612"><ele>50.00000000000001</ele><time>2026-03-29T13:05:13.912Z</time></trkpt><trkpt lat="39.4058423" lon="17.066475"><ele>50.0</ele><time>2026-03-29T13:05:15.904Z</time></trkpt><trkpt lat="39.4058103" lon="17.0665574"><ele>50.0</ele><time>2026-03-29T13:05:17.912Z</time></trkpt><trkpt lat="39.4057592" lon="17.0666468"><ele>50.0</ele><time>2026-03-29T13:05:20.913Z</time></trkpt><trkpt lat="39.4057603" lon="17.0667623"><ele>50.00000000000001</ele><time>2026-03-29T13:05:23.921Z</time></trkpt><trkpt lat="39.4057576" lon="17.0668621"><ele>50.0</ele><time>2026-03-29T13:05:25.91Z</time></trkpt><trkpt lat="39.4057661" lon="17.0670032"><ele>51.6</ele><time>2026-03-29T13:05:27.911Z</time></trkpt><trkpt lat="39.4057668" lon="17.067151"><ele>53.2</ele><time>2026-03-29T13:05:29.912Z</time></trkpt><trkpt lat="39.4057626" lon="17.0672972"><ele>54.8</ele><time>2026-03-29T13:05:31.91Z</time></trkpt><trkpt lat="39.4057632" lon="17.067425"><ele>56.4</ele><time>2026-03-29T13:05:33.912Z</time></trkpt><trkpt lat="39.4057417" lon="17.0675564"><ele>58.0</ele><time>2026-03-29T13:05:35.912Z</time></trkpt><trkpt lat="39.4057013" lon="17.0676993"><ele>60.00000000000001</ele><time>2026-03-29T13:05:37.902Z</time></trkpt><trkpt lat="39.405683" lon="17.0677786"><ele>62.0</ele><time>2026-03-29T13:05:38.906Z</time></trkpt><trkpt lat="39.4056681" lon="17.0678643"><ele>64.0</ele><time>2026-03-29T13:05:39.91Z</time></trkpt><trkpt lat="39.4056447" lon="17.0679547"><ele>66.0</ele><time>2026-03-29T13:05:40.907Z</time></trkpt><trkpt lat="39.4056151" lon="17.0680487"><ele>68.0</ele><time>2026-03-29T13:05:41.905Z</time></trkpt><trkpt lat="39.4055854" lon="17.0681356"><ele>70.00000000000001</ele><time>2026-03-29T13:05:42.903Z</time></trkpt><trkpt lat="39.4055554" lon="17.0682178"><ele>72.0</ele><time>2026-03-29T13:05:43.901Z</time></trkpt><trkpt lat="39.4055134" lon="17.0682922"><ele>73.16666666666667</ele><time>2026-03-29T13:05:44.914Z</time></trkpt><trkpt lat="39.4054727" lon="17.0683628"><ele>74.33333333333333</ele><time>2026-03-29T13:05:45.906Z</time></trkpt><trkpt lat="39.4054336" lon="17.0684289"><ele>75.5</ele><time>2026-03-29T13:05:46.908Z</time></trkpt><trkpt lat="39.4053903" lon="17.0684886"><ele>76.66666666666666</ele><time>2026-03-29T13:05:47.906Z</time></trkpt><trkpt lat="39.4053446" lon="17.0685482"><ele>77.83333333333333</ele><time>2026-03-29T13:05:48.909Z</time></trkpt><trkpt lat="39.405258" lon="17.0686601"><ele>79.0</ele><time>2026-03-29T13:05:50.908Z</time></trkpt><trkpt lat="39.4051712" lon="17.0687612"><ele>79.0</ele><time>2026-03-29T13:05:52.905Z</time></trkpt><trkpt lat="39.4051082" lon="17.0688497"><ele>79.0</ele><time>2026-03-29T13:05:54.907Z</time></trkpt><trkpt lat="39.4050117" lon="17.0689129"><ele>79.0</ele><time>2026-03-29T13:05:56.917Z</time></trkpt><trkpt lat="39.4049435" lon="17.0689382"><ele>79.0</ele><time>2026-03-29T13:05:57.916Z</time></trkpt><trkpt lat="39.4048611" lon="17.0689716"><ele>79.0</ele><time>2026-03-29T13:05:58.91Z</time></trkpt><trkpt lat="39.4047667" lon="17.0690188"><ele>79.0</ele><time>2026-03-29T13:05:59.906Z</time></trkpt><trkpt lat="39.404667" lon="17.0690806"><ele>79.0</ele><time>2026-03-29T13:06:00.913Z</time></trkpt><trkpt lat="39.4045739" lon="17.0691539"><ele>79.0</ele><time>2026-03-29T13:06:01.913Z</time></trkpt><trkpt lat="39.4044974" lon="17.0692349"><ele>79.0</ele><time>2026-03-29T13:06:02.904Z</time></trkpt><trkpt lat="39.404435" lon="17.0693183"><ele>79.0</ele><time>2026-03-29T13:06:03.907Z</time></trkpt><trkpt lat="39.4043825" lon="17.0693979"><ele>79.0</ele><time>2026-03-29T13:06:04.912Z</time></trkpt><trkpt lat="39.4043308" lon="17.0694783"><ele>79.0</ele><time>2026-03-29T13:06:05.909Z</time></trkpt><trkpt lat="39.4042754" lon="17.0695606"><ele>79.0</ele><time>2026-03-29T13:06:06.92Z</time></trkpt><trkpt lat="39.4042224" lon="17.0696374"><ele>79.0</ele><time>2026-03-29T13:06:07.909Z</time></trkpt><trkpt lat="39.4041693" lon="17.0697119"><ele>79.0</ele><time>2026-03-29T13:06:08.902Z</time></trkpt><trkpt lat="39.4041155" lon="17.0697873"><ele>79.0</ele><time>2026-03-29T13:06:09.905Z</time></trkpt><trkpt lat="39.4040641" lon="17.0698602"><ele>79.0</ele><time>2026-03-29T13:06:10.904Z</time></trkpt><trkpt lat="39.4040174" lon="17.0699242"><ele>79.0</ele><time>2026-03-29T13:06:11.905Z</time></trkpt><trkpt lat="39.4039685" lon="17.0699828"><ele>79.0</ele><time>2026-03-29T13:06:12.911Z</time></trkpt><trkpt lat="39.4039126" lon="17.0700434"><ele>79.0</ele><time>2026-03-29T13:06:13.91Z</time></trkpt><trkpt lat="39.4038492" lon="17.0701141"><ele>79.0</ele><time>2026-03-29T13:06:14.905Z</time></trkpt><trkpt lat="39.4037797" lon="17.0701969"><ele>79.0</ele><time>2026-03-29T13:06:15.906Z</time></trkpt><trkpt lat="39.4037094" lon="17.0702861"><ele>79.2</ele><time>2026-03-29T13:06:16.922Z</time></trkpt><trkpt lat="39.4036362" lon="17.0703817"><ele>79.4</ele><time>2026-03-29T13:06:17.905Z</time></trkpt><trkpt lat="39.4035621" lon="17.0704822"><ele>79.6</ele><time>2026-03-29T13:06:18.923Z</time></trkpt><trkpt lat="39.4034884" lon="17.0705833"><ele>79.8</ele><time>2026-03-29T13:06:19.906Z</time></trkpt><trkpt lat="39.4034082" lon="17.0706829"><ele>80.0</ele><time>2026-03-29T13:06:20.902Z</time></trkpt><trkpt lat="39.4033172" lon="17.0707752"><ele>80.0</ele><time>2026-03-29T13:06:21.917Z</time></trkpt><trkpt lat="39.4032176" lon="17.0708576"><ele>80.0</ele><time>2026-03-29T13:06:22.91Z</time></trkpt><trkpt lat="39.403117" lon="17.0709241"><ele>80.0</ele><time>2026-03-29T13:06:23.915Z</time></trkpt><trkpt lat="39.403023" lon="17.0709739"><ele>80.0</ele><time>2026-03-29T13:06:24.912Z</time></trkpt><trkpt lat="39.402932" lon="17.0710121"><ele>80.0</ele><time>2026-03-29T13:06:25.913Z</time></trkpt><trkpt lat="39.402839" lon="17.0710381"><ele>80.2</ele><time>2026-03-29T13:06:26.902Z</time></trkpt><trkpt lat="39.4027402" lon="17.0710521"><ele>80.4</ele><time>2026-03-29T13:06:27.907Z</time></trkpt><trkpt lat="39.4026389" lon="17.0710635"><ele>80.6</ele><time>2026-03-29T13:06:28.915Z</time></trkpt><trkpt lat="39.4025321" lon="17.071065"><ele>80.8</ele><time>2026-03-29T13:06:29.909Z</time></trkpt><trkpt lat="39.4024135" lon="17.0710604"><ele>81.0</ele><time>2026-03-29T13:06:30.908Z</time></trkpt><trkpt lat="39.4022857" lon="17.0710522"><ele>80.75</ele><time>2026-03-29T13:06:31.915Z</time></trkpt><trkpt lat="39.4021547" lon="17.0710455"><ele>80.5</ele><time>2026-03-29T13:06:32.902Z</time></trkpt><trkpt lat="39.4020193" lon="17.0710443"><ele>80.25</ele><time>2026-03-29T13:06:33.91Z</time></trkpt><trkpt lat="39.4018834" lon="17.0710493"><ele>80.0</ele><time>2026-03-29T13:06:34.911Z</time></trkpt><trkpt lat="39.4017477" lon="17.0710582"><ele>80.0</ele><time>2026-03-29T13:06:35.914Z</time></trkpt><trkpt lat="39.4016141" lon="17.0710724"><ele>80.0</ele><time>2026-03-29T13:06:36.915Z</time></trkpt><trkpt lat="39.4014812" lon="17.0710861"><ele>80.0</ele><time>2026-03-29T13:06:37.922Z</time></trkpt><trkpt lat="39.4013537" lon="17.0710984"><ele>80.0</ele><time>2026-03-29T13:06:38.905Z</time></trkpt><trkpt lat="39.4012254" lon="17.07111"><ele>79.75</ele><time>2026-03-29T13:06:39.911Z</time></trkpt><trkpt lat="39.4010955" lon="17.0711201"><ele>79.5</ele><time>2026-03-29T13:06:40.903Z</time></trkpt><trkpt lat="39.4009694" lon="17.0711316"><ele>79.25</ele><time>2026-03-29T13:06:41.905Z</time></trkpt><trkpt lat="39.4008569" lon="17.0711448"><ele>79.0</ele><time>2026-03-29T13:06:42.917Z</time></trkpt><trkpt lat="39.4007585" lon="17.0711584"><ele>79.0</ele><time>2026-03-29T13:06:43.909Z</time></trkpt><trkpt lat="39.4006646" lon="17.0711714"><ele>79.0</ele><time>2026-03-29T13:06:44.908Z</time></trkpt><trkpt lat="39.4005712" lon="17.071183"><ele>79.0</ele><time>2026-03-29T13:06:45.907Z</time></trkpt><trkpt lat="39.4004781" lon="17.0711962"><ele>79.0</ele><time>2026-03-29T13:06:46.906Z</time></trkpt><trkpt lat="39.4003838" lon="17.0712125"><ele>79.0</ele><time>2026-03-29T13:06:47.915Z</time></trkpt><trkpt lat="39.4002884" lon="17.0712305"><ele>80.0</ele><time>2026-03-29T13:06:48.908Z</time></trkpt><trkpt lat="39.4001913" lon="17.0712546"><ele>81.0</ele><time>2026-03-29T13:06:49.91Z</time></trkpt><trkpt lat="39.4000929" lon="17.0712867"><ele>82.0</ele><time>2026-03-29T13:06:50.91Z</time></trkpt><trkpt lat="39.4" lon="17.0713241"><ele>83.0</ele><time>2026-03-29T13:06:51.907Z</time></trkpt><trkpt lat="39.3999185" lon="17.071364"><ele>84.0</ele><time>2026-03-29T13:06:52.904Z</time></trkpt><trkpt lat="39.3998465" lon="17.0714055"><ele>84.0</ele><time>2026-03-29T13:06:53.918Z</time></trkpt><trkpt lat="39.3997816" lon="17.0714501"><ele>84.0</ele><time>2026-03-29T13:06:54.903Z</time></trkpt><trkpt lat="39.3997173" lon="17.0714977"><ele>84.0</ele><time>2026-03-29T13:06:55.909Z</time></trkpt><trkpt lat="39.3996486" lon="17.0715492"><ele>84.0</ele><time>2026-03-29T13:06:56.913Z</time></trkpt><trkpt lat="39.3995709" lon="17.0716012"><ele>84.0</ele><time>2026-03-29T13:06:57.91Z</time></trkpt><trkpt lat="39.399482" lon="17.0716513"><ele>84.0</ele><time>2026-03-29T13:06:58.923Z</time></trkpt><trkpt lat="39.3993848" lon="17.0717041"><ele>85.0</ele><time>2026-03-29T13:06:59.909Z</time></trkpt><trkpt lat="39.3992803" lon="17.0717578"><ele>86.0</ele><time>2026-03-29T13:07:00.912Z</time></trkpt><trkpt lat="39.3991719" lon="17.071808"><ele>87.0</ele><time>2026-03-29T13:07:01.913Z</time></trkpt><trkpt lat="39.3990601" lon="17.0718533"><ele>88.0</ele><time>2026-03-29T13:07:02.908Z</time></trkpt><trkpt lat="39.3989452" lon="17.0718948"><ele>89.33333333333333</ele><time>2026-03-29T13:07:03.91Z</time></trkpt><trkpt lat="39.3988284" lon="17.071936"><ele>90.66666666666667</ele><time>2026-03-29T13:07:04.923Z</time></trkpt><trkpt lat="39.3987107" lon="17.0719773"><ele>92.0</ele><time>2026-03-29T13:07:05.916Z</time></trkpt><trkpt lat="39.398471" lon="17.0720582"><ele>92.0</ele><time>2026-03-29T13:07:07.905Z</time></trkpt><trkpt lat="39.3983492" lon="17.0721019"><ele>92.0</ele><time>2026-03-29T13:07:08.908Z</time></trkpt><trkpt lat="39.3982265" lon="17.0721491"><ele>92.0</ele><time>2026-03-29T13:07:09.917Z</time></trkpt><trkpt lat="39.398104" lon="17.0721971"><ele>92.0</ele><time>2026-03-29T13:07:10.906Z</time></trkpt><trkpt lat="39.3979805" lon="17.0722494"><ele>91.25</ele><time>2026-03-29T13:07:11.909Z</time></trkpt><trkpt lat="39.3978588" lon="17.0723096"><ele>90.5</ele><time>2026-03-29T13:07:12.904Z</time></trkpt><trkpt lat="39.3977387" lon="17.0723782"><ele>89.75</ele><time>2026-03-29T13:07:13.905Z</time></trkpt><trkpt lat="39.3976207" lon="17.0724528"><ele>89.0</ele><time>2026-03-29T13:07:14.914Z</time></trkpt><trkpt lat="39.3975053" lon="17.0725301"><ele>89.0</ele><time>2026-03-29T13:07:15.905Z</time></trkpt><trkpt lat="39.3973895" lon="17.072607"><ele>89.0</ele><time>2026-03-29T13:07:16.909Z</time></trkpt><trkpt lat="39.3972768" lon="17.0726857"><ele>89.0</ele><time>2026-03-29T13:07:17.911Z</time></trkpt><trkpt lat="39.3971649" lon="17.0727658"><ele>89.0</ele><time>2026-03-29T13:07:18.911Z</time></trkpt><trkpt lat="39.3970483" lon="17.0728481"><ele>91.0</ele><time>2026-03-29T13:07:19.92Z</time></trkpt><trkpt lat="39.3969266" lon="17.0729333"><ele>93.0</ele><time>2026-03-29T13:07:20.914Z</time></trkpt><trkpt lat="39.3968014" lon="17.0730238"><ele>95.0</ele><time>2026-03-29T13:07:21.907Z</time></trkpt><trkpt lat="39.3966749" lon="17.0731209"><ele>97.0</ele><time>2026-03-29T13:07:22.911Z</time></trkpt><trkpt lat="39.3965481" lon="17.0732217"><ele>97.0</ele><time>2026-03-29T13:07:23.908Z</time></trkpt><trkpt lat="39.3964236" lon="17.0733225"><ele>97.0</ele><time>2026-03-29T13:07:24.906Z</time></trkpt><trkpt lat="39.3963088" lon="17.0734181"><ele>97.0</ele><time>2026-03-29T13:07:25.91Z</time></trkpt><trkpt lat="39.3962075" lon="17.0735096"><ele>97.0</ele><time>2026-03-29T13:07:26.911Z</time></trkpt><trkpt lat="39.396114" lon="17.0735914"><ele>97.0</ele><time>2026-03-29T13:07:27.905Z</time></trkpt><trkpt lat="39.3960266" lon="17.0736579"><ele>97.0</ele><time>2026-03-29T13:07:28.911Z</time></trkpt><trkpt lat="39.3959487" lon="17.0737092"><ele>97.0</ele><time>2026-03-29T13:07:29.905Z</time></trkpt><trkpt lat="39.3958846" lon="17.0737571"><ele>97.0</ele><time>2026-03-29T13:07:30.907Z</time></trkpt><trkpt lat="39.3958275" lon="17.0738627"><ele>97.0</ele><time>2026-03-29T13:07:32.912Z</time></trkpt><trkpt lat="39.3958938" lon="17.0739487"><ele>97.0</ele><time>2026-03-29T13:07:35.915Z</time></trkpt><trkpt lat="39.3959785" lon="17.0739768"><ele>97.0</ele><time>2026-03-29T13:07:37.91Z</time></trkpt><trkpt lat="39.3960857" lon="17.0740241"><ele>97.0</ele><time>2026-03-29T13:07:39.902Z</time></trkpt><trkpt lat="39.3962041" lon="17.0740162"><ele>97.0</ele><time>2026-03-29T13:07:41.906Z</time></trkpt><trkpt lat="39.396316" lon="17.0739709"><ele>97.0</ele><time>2026-03-29T13:07:43.9Z</time></trkpt><trkpt lat="39.3964341" lon="17.0739943"><ele>95.85714285714285</ele><time>2026-03-29T13:07:45.909Z</time></trkpt><trkpt lat="39.3964901" lon="17.0740415"><ele>94.71428571428572</ele><time>2026-03-29T13:07:46.908Z</time></trkpt><trkpt lat="39.3965466" lon="17.0740952"><ele>93.57142857142857</ele><time>2026-03-29T13:07:47.905Z</time></trkpt><trkpt lat="39.3966018" lon="17.0741515"><ele>92.42857142857142</ele><time>2026-03-29T13:07:48.907Z</time></trkpt><trkpt lat="39.3966543" lon="17.0742124"><ele>91.28571428571428</ele><time>2026-03-29T13:07:49.902Z</time></trkpt><trkpt lat="39.3967034" lon="17.0742808"><ele>90.14285714285714</ele><time>2026-03-29T13:07:50.915Z</time></trkpt><trkpt lat="39.3967502" lon="17.0743515"><ele>89.0</ele><time>2026-03-29T13:07:51.909Z</time></trkpt><trkpt lat="39.3967991" lon="17.0744233"><ele>88.83333333333334</ele><time>2026-03-29T13:07:52.915Z</time></trkpt><trkpt lat="39.3968487" lon="17.0744976"><ele>88.66666666666667</ele><time>2026-03-29T13:07:53.91Z</time></trkpt><trkpt lat="39.3968994" lon="17.0745741"><ele>88.5</ele><time>2026-03-29T13:07:54.911Z</time></trkpt><trkpt lat="39.3969534" lon="17.0746486"><ele>88.33333333333333</ele><time>2026-03-29T13:07:55.913Z</time></trkpt><trkpt lat="39.3970123" lon="17.0747185"><ele>88.16666666666666</ele><time>2026-03-29T13:07:56.916Z</time></trkpt><trkpt lat="39.3970736" lon="17.0747832"><ele>88.0</ele><time>2026-03-29T13:07:57.903Z</time></trkpt><trkpt lat="39.3971385" lon="17.0748453"><ele>86.83333333333333</ele><time>2026-03-29T13:07:58.905Z</time></trkpt><trkpt lat="39.3972042" lon="17.0749003"><ele>85.66666666666666</ele><time>2026-03-29T13:07:59.909Z</time></trkpt><trkpt lat="39.3972626" lon="17.0749463"><ele>84.5</ele><time>2026-03-29T13:08:00.915Z</time></trkpt><trkpt lat="39.3973462" lon="17.075022"><ele>83.33333333333333</ele><time>2026-03-29T13:08:02.918Z</time></trkpt><trkpt lat="39.3974448" lon="17.0751127"><ele>82.16666666666667</ele><time>2026-03-29T13:08:04.91Z</time></trkpt><trkpt lat="39.3975078" lon="17.0751708"><ele>81.0</ele><time>2026-03-29T13:08:05.91Z</time></trkpt><trkpt lat="39.397574" lon="17.0752386"><ele>81.0</ele><time>2026-03-29T13:08:06.914Z</time></trkpt><trkpt lat="39.3976446" lon="17.0753112"><ele>81.0</ele><time>2026-03-29T13:08:07.912Z</time></trkpt><trkpt lat="39.3977206" lon="17.0753827"><ele>81.0</ele><time>2026-03-29T13:08:08.909Z</time></trkpt><trkpt lat="39.3978009" lon="17.0754521"><ele>81.0</ele><time>2026-03-29T13:08:09.908Z</time></trkpt><trkpt lat="39.3978823" lon="17.0755212"><ele>81.0</ele><time>2026-03-29T13:08:10.91Z</time></trkpt><trkpt lat="39.3979631" lon="17.0755916"><ele>80.6</ele><time>2026-03-29T13:08:11.911Z</time></trkpt><trkpt lat="39.3980394" lon="17.0756593"><ele>80.19999999999999</ele><time>2026-03-29T13:08:12.901Z</time></trkpt><trkpt lat="39.398113" lon="17.0757178"><ele>79.80000000000001</ele><time>2026-03-29T13:08:13.906Z</time></trkpt><trkpt lat="39.3981935" lon="17.0757603"><ele>79.4</ele><time>2026-03-29T13:08:14.905Z</time></trkpt><trkpt lat="39.398284" lon="17.07579"><ele>79.0</ele><time>2026-03-29T13:08:15.904Z</time></trkpt><trkpt lat="39.3983779" lon="17.0758213"><ele>79.0</ele><time>2026-03-29T13:08:16.907Z</time></trkpt><trkpt lat="39.3984665" lon="17.0758631"><ele>79.0</ele><time>2026-03-29T13:08:17.915Z</time></trkpt><trkpt lat="39.3985507" lon="17.0759092"><ele>79.0</ele><time>2026-03-29T13:08:18.908Z</time></trkpt><trkpt lat="39.3986439" lon="17.0759737"><ele>79.0</ele><time>2026-03-29T13:08:19.907Z</time></trkpt><trkpt lat="39.3987405" lon="17.0760417"><ele>79.0</ele><time>2026-03-29T13:08:20.912Z</time></trkpt><trkpt lat="39.3988346" lon="17.0761108"><ele>78.2</ele><time>2026-03-29T13:08:21.913Z</time></trkpt><trkpt lat="39.3989243" lon="17.076178"><ele>77.4</ele><time>2026-03-29T13:08:22.905Z</time></trkpt><trkpt lat="39.3990104" lon="17.0762411"><ele>76.6</ele><time>2026-03-29T13:08:23.904Z</time></trkpt><trkpt lat="39.3990927" lon="17.0763027"><ele>75.8</ele><time>2026-03-29T13:08:24.915Z</time></trkpt><trkpt lat="39.3991695" lon="17.0763598"><ele>75.0</ele><time>2026-03-29T13:08:25.907Z</time></trkpt><trkpt lat="39.3992462" lon="17.0764086"><ele>75.0</ele><time>2026-03-29T13:08:26.915Z</time></trkpt><trkpt lat="39.3993233" lon="17.0764554"><ele>75.0</ele><time>2026-03-29T13:08:27.909Z</time></trkpt><trkpt lat="39.3993982" lon="17.0765109"><ele>75.0</ele><time>2026-03-29T13:08:28.905Z</time></trkpt><trkpt lat="39.3994694" lon="17.0765877"><ele>75.0</ele><time>2026-03-29T13:08:29.906Z</time></trkpt><trkpt lat="39.3995388" lon="17.0766723"><ele>75.0</ele><time>2026-03-29T13:08:30.913Z</time></trkpt><trkpt lat="39.3996107" lon="17.0767643"><ele>74.0</ele><time>2026-03-29T13:08:31.913Z</time></trkpt><trkpt lat="39.3996873" lon="17.0768595"><ele>73.0</ele><time>2026-03-29T13:08:32.914Z</time></trkpt><trkpt lat="39.3997642" lon="17.0769534"><ele>72.0</ele><time>2026-03-29T13:08:33.909Z</time></trkpt><trkpt lat="39.3998493" lon="17.0770388"><ele>71.0</ele><time>2026-03-29T13:08:34.908Z</time></trkpt><trkpt lat="39.3999314" lon="17.0771316"><ele>70.0</ele><time>2026-03-29T13:08:35.906Z</time></trkpt><trkpt lat="39.4000094" lon="17.0772362"><ele>70.0</ele><time>2026-03-29T13:08:36.907Z</time></trkpt><trkpt lat="39.4000855" lon="17.0773468"><ele>70.0</ele><time>2026-03-29T13:08:37.917Z</time></trkpt><trkpt lat="39.4001597" lon="17.0774579"><ele>70.0</ele><time>2026-03-29T13:08:38.917Z</time></trkpt><trkpt lat="39.4002296" lon="17.0775698"><ele>70.0</ele><time>2026-03-29T13:08:39.915Z</time></trkpt><trkpt lat="39.4002972" lon="17.0776786"><ele>70.0</ele><time>2026-03-29T13:08:40.903Z</time></trkpt><trkpt lat="39.4003633" lon="17.0777876"><ele>70.0</ele><time>2026-03-29T13:08:41.908Z</time></trkpt><trkpt lat="39.4004303" lon="17.0778927"><ele>70.0</ele><time>2026-03-29T13:08:42.915Z</time></trkpt><trkpt lat="39.4004963" lon="17.0779933"><ele>70.0</ele><time>2026-03-29T13:08:43.909Z</time></trkpt><trkpt lat="39.4005605" lon="17.0780906"><ele>70.0</ele><time>2026-03-29T13:08:44.91Z</time></trkpt><trkpt lat="39.4006183" lon="17.0781755"><ele>70.0</ele><time>2026-03-29T13:08:45.909Z</time></trkpt><trkpt lat="39.4006682" lon="17.0782446"><ele>69.66666666666666</ele><time>2026-03-29T13:08:46.915Z</time></trkpt><trkpt lat="39.400715" lon="17.0783075"><ele>69.33333333333333</ele><time>2026-03-29T13:08:47.92Z</time></trkpt><trkpt lat="39.4007724" lon="17.0783663"><ele>69.0</ele><time>2026-03-29T13:08:48.916Z</time></trkpt><trkpt lat="39.4008417" lon="17.07842"><ele>68.66666666666667</ele><time>2026-03-29T13:08:49.912Z</time></trkpt><trkpt lat="39.4009161" lon="17.0784661"><ele>68.33333333333334</ele><time>2026-03-29T13:08:50.912Z</time></trkpt><trkpt lat="39.4010008" lon="17.0785066"><ele>68.0</ele><time>2026-03-29T13:08:51.915Z</time></trkpt><trkpt lat="39.4010859" lon="17.0785397"><ele>68.0</ele><time>2026-03-29T13:08:52.908Z</time></trkpt><trkpt lat="39.4011584" lon="17.0785848"><ele>68.0</ele><time>2026-03-29T13:08:53.907Z</time></trkpt><trkpt lat="39.4012248" lon="17.0786377"><ele>68.0</ele><time>2026-03-29T13:08:54.914Z</time></trkpt><trkpt lat="39.4012935" lon="17.078696"><ele>68.0</ele><time>2026-03-29T13:08:55.918Z</time></trkpt><trkpt lat="39.4013675" lon="17.0787552"><ele>68.0</ele><time>2026-03-29T13:08:56.914Z</time></trkpt><trkpt lat="39.4014495" lon="17.0788053"><ele>68.0</ele><time>2026-03-29T13:08:57.911Z</time></trkpt><trkpt lat="39.4015436" lon="17.0788455"><ele>68.16666666666667</ele><time>2026-03-29T13:08:58.93Z</time></trkpt><trkpt lat="39.4016393" lon="17.0788814"><ele>68.33333333333334</ele><time>2026-03-29T13:08:59.923Z</time></trkpt><trkpt lat="39.4017298" lon="17.0789126"><ele>68.5</ele><time>2026-03-29T13:09:00.908Z</time></trkpt><trkpt lat="39.4018151" lon="17.0789465"><ele>68.66666666666667</ele><time>2026-03-29T13:09:01.918Z</time></trkpt><trkpt lat="39.4018921" lon="17.0789813"><ele>68.83333333333333</ele><time>2026-03-29T13:09:02.908Z</time></trkpt><trkpt lat="39.4019599" lon="17.0790183"><ele>69.0</ele><time>2026-03-29T13:09:03.921Z</time></trkpt><trkpt lat="39.4020744" lon="17.0790467"><ele>68.5</ele><time>2026-03-29T13:09:05.914Z</time></trkpt><trkpt lat="39.402199" lon="17.0790334"><ele>68.0</ele><time>2026-03-29T13:09:07.911Z</time></trkpt><trkpt lat="39.4022735" lon="17.0790229"><ele>67.5</ele><time>2026-03-29T13:09:08.922Z</time></trkpt><trkpt lat="39.4023508" lon="17.079019"><ele>67.0</ele><time>2026-03-29T13:09:09.92Z</time></trkpt><trkpt lat="39.4024271" lon="17.0790242"><ele>66.5</ele><time>2026-03-29T13:09:10.914Z</time></trkpt><trkpt lat="39.4025004" lon="17.0790476"><ele>66.0</ele><time>2026-03-29T13:09:11.92Z</time></trkpt><trkpt lat="39.4025725" lon="17.0790827"><ele>66.83333333333333</ele><time>2026-03-29T13:09:12.926Z</time></trkpt><trkpt lat="39.4026381" lon="17.0791273"><ele>67.66666666666667</ele><time>2026-03-29T13:09:13.914Z</time></trkpt><trkpt lat="39.4027" lon="17.0791695"><ele>68.5</ele><time>2026-03-29T13:09:14.92Z</time></trkpt><trkpt lat="39.4027543" lon="17.0792224"><ele>69.33333333333334</ele><time>2026-03-29T13:09:15.923Z</time></trkpt><trkpt lat="39.4028462" lon="17.0793021"><ele>70.16666666666667</ele><time>2026-03-29T13:09:17.923Z</time></trkpt><trkpt lat="39.4029044" lon="17.0793534"><ele>71.0</ele><time>2026-03-29T13:09:19.92Z</time></trkpt><trkpt lat="39.4029639" lon="17.0794104"><ele>70.0</ele><time>2026-03-29T13:09:21.923Z</time></trkpt><trkpt lat="39.4030279" lon="17.0794615"><ele>69.0</ele><time>2026-03-29T13:09:24.914Z</time></trkpt><trkpt lat="39.4031095" lon="17.0795392"><ele>68.0</ele><time>2026-03-29T13:09:27.916Z</time></trkpt><trkpt lat="39.4032172" lon="17.0796147"><ele>67.0</ele><time>2026-03-29T13:09:29.927Z</time></trkpt><trkpt lat="39.4032753" lon="17.0796505"><ele>66.0</ele><time>2026-03-29T13:09:30.908Z</time></trkpt><trkpt lat="39.4033416" lon="17.0796833"><ele>65.0</ele><time>2026-03-29T13:09:31.918Z</time></trkpt><trkpt lat="39.4034082" lon="17.0797136"><ele>65.00000000000001</ele><time>2026-03-29T13:09:32.93Z</time></trkpt><trkpt lat="39.4034754" lon="17.0797453"><ele>65.0</ele><time>2026-03-29T13:09:33.919Z</time></trkpt><trkpt lat="39.40354" lon="17.0797744"><ele>65.0</ele><time>2026-03-29T13:09:34.906Z</time></trkpt><trkpt lat="39.403607" lon="17.0798043"><ele>65.0</ele><time>2026-03-29T13:09:35.929Z</time></trkpt><trkpt lat="39.4036728" lon="17.0798359"><ele>65.0</ele><time>2026-03-29T13:09:36.921Z</time></trkpt><trkpt lat="39.4037335" lon="17.0798689"><ele>65.00000000000001</ele><time>2026-03-29T13:09:37.913Z</time></trkpt><trkpt lat="39.4037924" lon="17.079902"><ele>65.0</ele><time>2026-03-29T13:09:38.925Z</time></trkpt><trkpt lat="39.4038493" lon="17.0799395"><ele>64.16666666666667</ele><time>2026-03-29T13:09:39.917Z</time></trkpt><trkpt lat="39.4039302" lon="17.0799848"><ele>63.333333333333336</ele><time>2026-03-29T13:09:41.918Z</time></trkpt><trkpt lat="39.4040019" lon="17.0800234"><ele>62.5</ele><time>2026-03-29T13:09:44.927Z</time></trkpt><trkpt lat="39.4040651" lon="17.0800488"><ele>61.66666666666667</ele><time>2026-03-29T13:09:46.907Z</time></trkpt><trkpt lat="39.404141" lon="17.0800593"><ele>60.833333333333336</ele><time>2026-03-29T13:09:49.921Z</time></trkpt><trkpt lat="39.4042135" lon="17.0800771"><ele>60.0</ele><time>2026-03-29T13:09:53.921Z</time></trkpt><trkpt lat="39.4042873" lon="17.0800854"><ele>60.0</ele><time>2026-03-29T13:09:55.94Z</time></trkpt><trkpt lat="39.4043747" lon="17.0800699"><ele>60.0</ele><time>2026-03-29T13:09:57.911Z</time></trkpt><trkpt lat="39.4044729" lon="17.080051"><ele>60.0</ele><time>2026-03-29T13:09:59.934Z</time></trkpt><trkpt lat="39.4045859" lon="17.080028"><ele>60.0</ele><time>2026-03-29T13:10:01.927Z</time></trkpt><trkpt lat="39.4047084" lon="17.080012"><ele>60.0</ele><time>2026-03-29T13:10:03.91Z</time></trkpt><trkpt lat="39.4048214" lon="17.0800206"><ele>59.5</ele><time>2026-03-29T13:10:05.929Z</time></trkpt><trkpt lat="39.4049141" lon="17.0800242"><ele>59.0</ele><time>2026-03-29T13:10:07.922Z</time></trkpt><trkpt lat="39.4049777" lon="17.0800249"><ele>58.5</ele><time>2026-03-29T13:10:09.922Z</time></trkpt><trkpt lat="39.405048" lon="17.0800387"><ele>58.0</ele><time>2026-03-29T13:10:11.924Z</time></trkpt><trkpt lat="39.4051463" lon="17.0801211"><ele>57.5</ele><time>2026-03-29T13:10:13.922Z</time></trkpt><trkpt lat="39.4052073" lon="17.080176"><ele>57.0</ele><time>2026-03-29T13:10:14.915Z</time></trkpt><trkpt lat="39.4052713" lon="17.0802302"><ele>57.0</ele><time>2026-03-29T13:10:15.923Z</time></trkpt><trkpt lat="39.4053364" lon="17.0802856"><ele>57.0</ele><time>2026-03-29T13:10:16.924Z</time></trkpt><trkpt lat="39.4054031" lon="17.0803472"><ele>57.0</ele><time>2026-03-29T13:10:17.914Z</time></trkpt><trkpt lat="39.4054685" lon="17.0804117"><ele>57.0</ele><time>2026-03-29T13:10:18.911Z</time></trkpt><trkpt lat="39.4055357" lon="17.0804884"><ele>57.0</ele><time>2026-03-29T13:10:19.928Z</time></trkpt><trkpt lat="39.4056036" lon="17.0805669"><ele>57.0</ele><time>2026-03-29T13:10:20.919Z</time></trkpt><trkpt lat="39.4056741" lon="17.0806435"><ele>57.166666666666664</ele><time>2026-03-29T13:10:21.911Z</time></trkpt><trkpt lat="39.4057462" lon="17.0807213"><ele>57.33333333333333</ele><time>2026-03-29T13:10:22.925Z</time></trkpt><trkpt lat="39.4058147" lon="17.0808015"><ele>57.5</ele><time>2026-03-29T13:10:23.918Z</time></trkpt><trkpt lat="39.4058761" lon="17.0808771"><ele>57.666666666666664</ele><time>2026-03-29T13:10:24.924Z</time></trkpt><trkpt lat="39.4059224" lon="17.0809507"><ele>57.83333333333333</ele><time>2026-03-29T13:10:25.919Z</time></trkpt><trkpt lat="39.405964" lon="17.0810242"><ele>58.0</ele><time>2026-03-29T13:10:26.925Z</time></trkpt><trkpt lat="39.4060032" lon="17.0810885"><ele>57.99999999999999</ele><time>2026-03-29T13:10:27.925Z</time></trkpt><trkpt lat="39.4060857" lon="17.0811847"><ele>58.0</ele><time>2026-03-29T13:10:29.924Z</time></trkpt><trkpt lat="39.4061795" lon="17.0812591"><ele>58.0</ele><time>2026-03-29T13:10:31.924Z</time></trkpt><trkpt lat="39.4062367" lon="17.0812975"><ele>58.0</ele><time>2026-03-29T13:10:32.928Z</time></trkpt><trkpt lat="39.4062978" lon="17.0813385"><ele>57.99999999999999</ele><time>2026-03-29T13:10:33.928Z</time></trkpt><trkpt lat="39.4063563" lon="17.0813852"><ele>58.0</ele><time>2026-03-29T13:10:34.915Z</time></trkpt><trkpt lat="39.4064138" lon="17.0814378"><ele>57.83333333333333</ele><time>2026-03-29T13:10:35.92Z</time></trkpt><trkpt lat="39.4064716" lon="17.0814848"><ele>57.666666666666664</ele><time>2026-03-29T13:10:36.913Z</time></trkpt><trkpt lat="39.4065312" lon="17.0815287"><ele>57.5</ele><time>2026-03-29T13:10:37.913Z</time></trkpt><trkpt lat="39.4065908" lon="17.0815726"><ele>57.33333333333333</ele><time>2026-03-29T13:10:38.912Z</time></trkpt><trkpt lat="39.4066486" lon="17.0816176"><ele>57.166666666666664</ele><time>2026-03-29T13:10:39.921Z</time></trkpt><trkpt lat="39.4067597" lon="17.0816867"><ele>57.0</ele><time>2026-03-29T13:10:41.925Z</time></trkpt><trkpt lat="39.4068731" lon="17.0817569"><ele>57.333333333333336</ele><time>2026-03-29T13:10:43.925Z</time></trkpt><trkpt lat="39.4069375" lon="17.0817978"><ele>57.66666666666667</ele><time>2026-03-29T13:10:44.92Z</time></trkpt><trkpt lat="39.4070086" lon="17.0818365"><ele>58.0</ele><time>2026-03-29T13:10:45.912Z</time></trkpt><trkpt lat="39.4070859" lon="17.0818707"><ele>58.333333333333336</ele><time>2026-03-29T13:10:46.918Z</time></trkpt><trkpt lat="39.4071672" lon="17.0819034"><ele>58.66666666666667</ele><time>2026-03-29T13:10:47.919Z</time></trkpt><trkpt lat="39.4072536" lon="17.081938"><ele>59.0</ele><time>2026-03-29T13:10:48.921Z</time></trkpt><trkpt lat="39.4073446" lon="17.0819788"><ele>59.333333333333336</ele><time>2026-03-29T13:10:49.916Z</time></trkpt><trkpt lat="39.4074376" lon="17.0820237"><ele>59.66666666666667</ele><time>2026-03-29T13:10:50.922Z</time></trkpt><trkpt lat="39.4075287" lon="17.0820636"><ele>60.0</ele><time>2026-03-29T13:10:51.923Z</time></trkpt><trkpt lat="39.4076143" lon="17.0820974"><ele>60.33333333333333</ele><time>2026-03-29T13:10:52.934Z</time></trkpt><trkpt lat="39.4076883" lon="17.0821315"><ele>60.666666666666664</ele><time>2026-03-29T13:10:53.923Z</time></trkpt><trkpt lat="39.4077487" lon="17.0821642"><ele>61.0</ele><time>2026-03-29T13:10:54.913Z</time></trkpt><trkpt lat="39.4078448" lon="17.0822232"><ele>61.0</ele><time>2026-03-29T13:10:56.924Z</time></trkpt><trkpt lat="39.4079405" lon="17.082305"><ele>60.99999999999999</ele><time>2026-03-29T13:10:58.937Z</time></trkpt><trkpt lat="39.4080958" lon="17.0824483"><ele>60.99999999999999</ele><time>2026-03-29T13:11:01.92Z</time></trkpt><trkpt lat="39.4081553" lon="17.0824956"><ele>61.0</ele><time>2026-03-29T13:11:02.919Z</time></trkpt><trkpt lat="39.4082151" lon="17.082548"><ele>61.0</ele><time>2026-03-29T13:11:03.923Z</time></trkpt><trkpt lat="39.4082729" lon="17.0826062"><ele>60.83333333333333</ele><time>2026-03-29T13:11:04.913Z</time></trkpt><trkpt lat="39.408333" lon="17.0826639"><ele>60.666666666666664</ele><time>2026-03-29T13:11:05.918Z</time></trkpt><trkpt lat="39.4083975" lon="17.0827213"><ele>60.5</ele><time>2026-03-29T13:11:06.92Z</time></trkpt><trkpt lat="39.4084642" lon="17.0827836"><ele>60.33333333333333</ele><time>2026-03-29T13:11:07.914Z</time></trkpt><trkpt lat="39.4085327" lon="17.0828509"><ele>60.166666666666664</ele><time>2026-03-29T13:11:08.918Z</time></trkpt><trkpt lat="39.4086043" lon="17.0829199"><ele>60.0</ele><time>2026-03-29T13:11:09.937Z</time></trkpt><trkpt lat="39.4086751" lon="17.0829856"><ele>60.0</ele><time>2026-03-29T13:11:10.922Z</time></trkpt><trkpt lat="39.4087542" lon="17.0830515"><ele>60.0</ele><time>2026-03-29T13:11:11.919Z</time></trkpt><trkpt lat="39.4088368" lon="17.0831196"><ele>60.0</ele><time>2026-03-29T13:11:12.926Z</time></trkpt><trkpt lat="39.4089203" lon="17.0831895"><ele>60.0</ele><time>2026-03-29T13:11:13.927Z</time></trkpt><trkpt lat="39.4090051" lon="17.0832588"><ele>60.0</ele><time>2026-03-29T13:11:14.923Z</time></trkpt><trkpt lat="39.4090916" lon="17.0833296"><ele>59.6</ele><time>2026-03-29T13:11:15.921Z</time></trkpt><trkpt lat="39.4091793" lon="17.0833992"><ele>59.2</ele><time>2026-03-29T13:11:16.931Z</time></trkpt><trkpt lat="39.409267" lon="17.0834665"><ele>58.8</ele><time>2026-03-29T13:11:17.922Z</time></trkpt><trkpt lat="39.4093531" lon="17.0835336"><ele>58.4</ele><time>2026-03-29T13:11:18.92Z</time></trkpt><trkpt lat="39.4094391" lon="17.0835995"><ele>58.0</ele><time>2026-03-29T13:11:19.919Z</time></trkpt><trkpt lat="39.4095213" lon="17.0836605"><ele>57.99999999999999</ele><time>2026-03-29T13:11:20.923Z</time></trkpt><trkpt lat="39.4095995" lon="17.0837174"><ele>58.0</ele><time>2026-03-29T13:11:21.922Z</time></trkpt><trkpt lat="39.409669" lon="17.0837807"><ele>58.0</ele><time>2026-03-29T13:11:22.928Z</time></trkpt><trkpt lat="39.4097298" lon="17.0838459"><ele>58.0</ele><time>2026-03-29T13:11:23.925Z</time></trkpt><trkpt lat="39.4097671" lon="17.0839406"><ele>57.99999999999999</ele><time>2026-03-29T13:11:24.925Z</time></trkpt><trkpt lat="39.4097906" lon="17.0840454"><ele>58.0</ele><time>2026-03-29T13:11:25.923Z</time></trkpt><trkpt lat="39.4098111" lon="17.0841573"><ele>58.0</ele><time>2026-03-29T13:11:26.931Z</time></trkpt><trkpt lat="39.4098331" lon="17.0842726"><ele>58.0</ele><time>2026-03-29T13:11:27.917Z</time></trkpt><trkpt lat="39.4098596" lon="17.0843896"><ele>58.0</ele><time>2026-03-29T13:11:28.914Z</time></trkpt><trkpt lat="39.4098923" lon="17.0845031"><ele>58.0</ele><time>2026-03-29T13:11:29.915Z</time></trkpt><trkpt lat="39.4099282" lon="17.0846123"><ele>58.0</ele><time>2026-03-29T13:11:30.915Z</time></trkpt><trkpt lat="39.409963" lon="17.0847192"><ele>57.99999999999999</ele><time>2026-03-29T13:11:31.932Z</time></trkpt><trkpt lat="39.409999" lon="17.0848219"><ele>58.0</ele><time>2026-03-29T13:11:32.922Z</time></trkpt><trkpt lat="39.4100389" lon="17.0849214"><ele>58.0</ele><time>2026-03-29T13:11:33.913Z</time></trkpt><trkpt lat="39.4100822" lon="17.0850192"><ele>58.0</ele><time>2026-03-29T13:11:34.923Z</time></trkpt><trkpt lat="39.4101211" lon="17.0851199"><ele>57.99999999999999</ele><time>2026-03-29T13:11:35.915Z</time></trkpt><trkpt lat="39.4101544" lon="17.0852324"><ele>58.0</ele><time>2026-03-29T13:11:36.917Z</time></trkpt><trkpt lat="39.4101832" lon="17.085359"><ele>57.5</ele><time>2026-03-29T13:11:37.921Z</time></trkpt><trkpt lat="39.4102106" lon="17.0854987"><ele>57.0</ele><time>2026-03-29T13:11:38.92Z</time></trkpt><trkpt lat="39.4102357" lon="17.0856483"><ele>56.5</ele><time>2026-03-29T13:11:39.915Z</time></trkpt><trkpt lat="39.4102531" lon="17.0858051"><ele>56.0</ele><time>2026-03-29T13:11:40.918Z</time></trkpt><trkpt lat="39.4102716" lon="17.0859622"><ele>55.5</ele><time>2026-03-29T13:11:41.916Z</time></trkpt><trkpt lat="39.4102925" lon="17.0861161"><ele>55.0</ele><time>2026-03-29T13:11:42.918Z</time></trkpt><trkpt lat="39.4103168" lon="17.086268"><ele>54.5</ele><time>2026-03-29T13:11:43.921Z</time></trkpt><trkpt lat="39.4103421" lon="17.0864199"><ele>54.0</ele><time>2026-03-29T13:11:44.923Z</time></trkpt><trkpt lat="39.4103676" lon="17.0865723"><ele>54.0</ele><time>2026-03-29T13:11:45.913Z</time></trkpt><trkpt lat="39.4103943" lon="17.0867282"><ele>54.0</ele><time>2026-03-29T13:11:46.914Z</time></trkpt><trkpt lat="39.4104264" lon="17.0868898"><ele>54.0</ele><time>2026-03-29T13:11:47.918Z</time></trkpt><trkpt lat="39.4104664" lon="17.0870525"><ele>54.0</ele><time>2026-03-29T13:11:48.913Z</time></trkpt><trkpt lat="39.410508" lon="17.0872107"><ele>53.5</ele><time>2026-03-29T13:11:49.919Z</time></trkpt><trkpt lat="39.4105518" lon="17.0873603"><ele>53.0</ele><time>2026-03-29T13:11:50.92Z</time></trkpt><trkpt lat="39.4105964" lon="17.0875102"><ele>52.5</ele><time>2026-03-29T13:11:51.915Z</time></trkpt><trkpt lat="39.4106397" lon="17.0876592"><ele>52.0</ele><time>2026-03-29T13:11:52.925Z</time></trkpt><trkpt lat="39.4106735" lon="17.0878044"><ele>51.5</ele><time>2026-03-29T13:11:53.925Z</time></trkpt><trkpt lat="39.410699" lon="17.0879406"><ele>51.0</ele><time>2026-03-29T13:11:54.93Z</time></trkpt><trkpt lat="39.410729" lon="17.0880783"><ele>50.5</ele><time>2026-03-29T13:11:55.93Z</time></trkpt><trkpt lat="39.4107664" lon="17.0882204"><ele>50.0</ele><time>2026-03-29T13:11:56.918Z</time></trkpt><trkpt lat="39.4108067" lon="17.0883631"><ele>49.6</ele><time>2026-03-29T13:11:57.912Z</time></trkpt><trkpt lat="39.410855" lon="17.0885007"><ele>49.2</ele><time>2026-03-29T13:11:58.928Z</time></trkpt><trkpt lat="39.4108986" lon="17.0886277"><ele>48.8</ele><time>2026-03-29T13:11:59.917Z</time></trkpt><trkpt lat="39.4109363" lon="17.0887474"><ele>48.4</ele><time>2026-03-29T13:12:00.915Z</time></trkpt><trkpt lat="39.4109711" lon="17.0888534"><ele>48.0</ele><time>2026-03-29T13:12:01.921Z</time></trkpt><trkpt lat="39.4110055" lon="17.0889442"><ele>48.0</ele><time>2026-03-29T13:12:02.919Z</time></trkpt><trkpt lat="39.4110396" lon="17.0890196"><ele>48.0</ele><time>2026-03-29T13:12:03.919Z</time></trkpt><trkpt lat="39.4110891" lon="17.0891195"><ele>48.0</ele><time>2026-03-29T13:12:05.912Z</time></trkpt><trkpt lat="39.4111255" lon="17.0892081"><ele>48.0</ele><time>2026-03-29T13:12:28.914Z</time></trkpt><trkpt lat="39.4111693" lon="17.0893201"><ele>48.0</ele><time>2026-03-29T13:12:30.927Z</time></trkpt><trkpt lat="39.4112079" lon="17.0893905"><ele>48.0</ele><time>2026-03-29T13:12:31.916Z</time></trkpt><trkpt lat="39.4112568" lon="17.0894649"><ele>47.333333333333336</ele><time>2026-03-29T13:12:32.916Z</time></trkpt><trkpt lat="39.4113098" lon="17.0895429"><ele>46.666666666666664</ele><time>2026-03-29T13:12:33.916Z</time></trkpt><trkpt lat="39.41136" lon="17.0896244"><ele>46.0</ele><time>2026-03-29T13:12:34.93Z</time></trkpt><trkpt lat="39.4114063" lon="17.089711"><ele>45.33333333333333</ele><time>2026-03-29T13:12:35.915Z</time></trkpt><trkpt lat="39.4114523" lon="17.0898014"><ele>44.666666666666664</ele><time>2026-03-29T13:12:36.907Z</time></trkpt><trkpt lat="39.411494" lon="17.0898965"><ele>44.0</ele><time>2026-03-29T13:12:37.923Z</time></trkpt><trkpt lat="39.4115289" lon="17.0899952"><ele>42.0</ele><time>2026-03-29T13:12:38.913Z</time></trkpt><trkpt lat="39.4115567" lon="17.0900985"><ele>40.0</ele><time>2026-03-29T13:12:39.916Z</time></trkpt><trkpt lat="39.4115865" lon="17.0902059"><ele>38.0</ele><time>2026-03-29T13:12:40.919Z</time></trkpt><trkpt lat="39.4116176" lon="17.0903179"><ele>36.0</ele><time>2026-03-29T13:12:41.914Z</time></trkpt><trkpt lat="39.4116466" lon="17.0904328"><ele>34.0</ele><time>2026-03-29T13:12:42.911Z</time></trkpt><trkpt lat="39.4116723" lon="17.0905522"><ele>34.0</ele><time>2026-03-29T13:12:43.913Z</time></trkpt><trkpt lat="39.4117033" lon="17.0906723"><ele>34.0</ele><time>2026-03-29T13:12:44.921Z</time></trkpt><trkpt lat="39.4117373" lon="17.0907918"><ele>34.0</ele><time>2026-03-29T13:12:45.915Z</time></trkpt><trkpt lat="39.4117736" lon="17.0909143"><ele>34.0</ele><time>2026-03-29T13:12:46.921Z</time></trkpt><trkpt lat="39.4118074" lon="17.0910376"><ele>34.0</ele><time>2026-03-29T13:12:47.931Z</time></trkpt><trkpt lat="39.411836" lon="17.0911582"><ele>32.333333333333336</ele><time>2026-03-29T13:12:48.931Z</time></trkpt><trkpt lat="39.4118655" lon="17.0912744"><ele>30.666666666666668</ele><time>2026-03-29T13:12:49.918Z</time></trkpt><trkpt lat="39.411891" lon="17.0913939"><ele>29.0</ele><time>2026-03-29T13:12:50.919Z</time></trkpt><trkpt lat="39.4119078" lon="17.0915091"><ele>27.333333333333336</ele><time>2026-03-29T13:12:51.906Z</time></trkpt><trkpt lat="39.4119184" lon="17.0916164"><ele>25.666666666666668</ele><time>2026-03-29T13:12:52.916Z</time></trkpt><trkpt lat="39.4119255" lon="17.0917116"><ele>24.0</ele><time>2026-03-29T13:12:53.918Z</time></trkpt><trkpt lat="39.4119242" lon="17.0917962"><ele>22.833333333333332</ele><time>2026-03-29T13:12:54.911Z</time></trkpt><trkpt lat="39.411893" lon="17.0919079"><ele>21.666666666666668</ele><time>2026-03-29T13:12:56.917Z</time></trkpt><trkpt lat="39.4118212" lon="17.0919921"><ele>20.5</ele><time>2026-03-29T13:12:59.912Z</time></trkpt><trkpt lat="39.4117808" lon="17.0920867"><ele>19.333333333333336</ele><time>2026-03-29T13:13:01.911Z</time></trkpt><trkpt lat="39.4117974" lon="17.0922224"><ele>18.166666666666668</ele><time>2026-03-29T13:13:03.924Z</time></trkpt><trkpt lat="39.411828" lon="17.0922997"><ele>17.0</ele><time>2026-03-29T13:13:04.914Z</time></trkpt><trkpt lat="39.4118639" lon="17.0923801"><ele>16.142857142857142</ele><time>2026-03-29T13:13:05.92Z</time></trkpt><trkpt lat="39.4118997" lon="17.0924584"><ele>15.285714285714285</ele><time>2026-03-29T13:13:06.915Z</time></trkpt><trkpt lat="39.4119323" lon="17.0925385"><ele>14.428571428571427</ele><time>2026-03-29T13:13:07.913Z</time></trkpt><trkpt lat="39.4119609" lon="17.0926163"><ele>13.57142857142857</ele><time>2026-03-29T13:13:08.913Z</time></trkpt><trkpt lat="39.4119746" lon="17.0926991"><ele>12.714285714285714</ele><time>2026-03-29T13:13:09.922Z</time></trkpt><trkpt lat="39.4119815" lon="17.0927844"><ele>11.857142857142858</ele><time>2026-03-29T13:13:10.92Z</time></trkpt><trkpt lat="39.4119806" lon="17.0928766"><ele>11.0</ele><time>2026-03-29T13:13:11.915Z</time></trkpt><trkpt lat="39.4119713" lon="17.0929754"><ele>11.0</ele><time>2026-03-29T13:13:12.917Z</time></trkpt><trkpt lat="39.4119533" lon="17.0930762"><ele>11.0</ele><time>2026-03-29T13:13:13.919Z</time></trkpt><trkpt lat="39.4119332" lon="17.0931715"><ele>11.0</ele><time>2026-03-29T13:13:14.916Z</time></trkpt><trkpt lat="39.4119191" lon="17.0932558"><ele>11.0</ele><time>2026-03-29T13:13:15.92Z</time></trkpt><trkpt lat="39.4119124" lon="17.0933579"><ele>11.0</ele><time>2026-03-29T13:13:17.916Z</time></trkpt><trkpt lat="39.411846" lon="17.0933965"><ele>11.0</ele><time>2026-03-29T13:13:20.924Z</time></trkpt><trkpt lat="39.4117578" lon="17.093384"><ele>10.4</ele><time>2026-03-29T13:13:22.914Z</time></trkpt><trkpt lat="39.4116256" lon="17.0933778"><ele>9.8</ele><time>2026-03-29T13:13:24.913Z</time></trkpt><trkpt lat="39.4115519" lon="17.0933823"><ele>9.200000000000001</ele><time>2026-03-29T13:13:25.909Z</time></trkpt><trkpt lat="39.4114747" lon="17.0933989"><ele>8.600000000000001</ele><time>2026-03-29T13:13:26.919Z</time></trkpt><trkpt lat="39.4113938" lon="17.0934233"><ele>8.0</ele><time>2026-03-29T13:13:27.921Z</time></trkpt><trkpt lat="39.4113113" lon="17.0934488"><ele>7.833333333333333</ele><time>2026-03-29T13:13:28.914Z</time></trkpt><trkpt lat="39.4112319" lon="17.0934666"><ele>7.666666666666666</ele><time>2026-03-29T13:13:29.913Z</time></trkpt><trkpt lat="39.4111566" lon="17.0934691"><ele>7.5</ele><time>2026-03-29T13:13:30.917Z</time></trkpt><trkpt lat="39.4110804" lon="17.0934554"><ele>7.333333333333334</ele><time>2026-03-29T13:13:31.918Z</time></trkpt><trkpt lat="39.4109996" lon="17.093433"><ele>7.166666666666667</ele><time>2026-03-29T13:13:32.912Z</time></trkpt><trkpt lat="39.4109147" lon="17.0934091"><ele>7.0</ele><time>2026-03-29T13:13:33.916Z</time></trkpt><trkpt lat="39.4108291" lon="17.0933931"><ele>7.000000000000001</ele><time>2026-03-29T13:13:34.917Z</time></trkpt><trkpt lat="39.4107418" lon="17.0933929"><ele>7.0</ele><time>2026-03-29T13:13:35.917Z</time></trkpt><trkpt lat="39.4106537" lon="17.0934075"><ele>7.0</ele><time>2026-03-29T13:13:36.914Z</time></trkpt><trkpt lat="39.4105695" lon="17.0934337"><ele>7.0</ele><time>2026-03-29T13:13:37.921Z</time></trkpt><trkpt lat="39.4104948" lon="17.0934657"><ele>7.000000000000001</ele><time>2026-03-29T13:13:38.913Z</time></trkpt><trkpt lat="39.4104269" lon="17.0934985"><ele>7.0</ele><time>2026-03-29T13:13:39.909Z</time></trkpt><trkpt lat="39.4103639" lon="17.0935285"><ele>7.8</ele><time>2026-03-29T13:13:40.933Z</time></trkpt><trkpt lat="39.4102548" lon="17.0935697"><ele>8.6</ele><time>2026-03-29T13:13:42.915Z</time></trkpt><trkpt lat="39.4101924" lon="17.0936367"><ele>9.4</ele><time>2026-03-29T13:13:44.916Z</time></trkpt><trkpt lat="39.4101902" lon="17.0937486"><ele>10.200000000000001</ele><time>2026-03-29T13:13:46.918Z</time></trkpt><trkpt lat="39.4102314" lon="17.0938739"><ele>11.0</ele><time>2026-03-29T13:13:48.918Z</time></trkpt><trkpt lat="39.4102155" lon="17.0940086"><ele>10.8</ele><time>2026-03-29T13:13:50.917Z</time></trkpt><trkpt lat="39.4101349" lon="17.094098"><ele>10.600000000000001</ele><time>2026-03-29T13:13:52.914Z</time></trkpt><trkpt lat="39.4100136" lon="17.0941373"><ele>10.4</ele><time>2026-03-29T13:13:54.915Z</time></trkpt><trkpt lat="39.4099266" lon="17.0941841"><ele>10.2</ele><time>2026-03-29T13:13:56.917Z</time></trkpt><trkpt lat="39.4098913" lon="17.0942652"><ele>10.0</ele><time>2026-03-29T13:13:59.922Z</time></trkpt><trkpt lat="39.4098295" lon="17.0943229"><ele>10.0</ele><time>2026-03-29T13:14:02.912Z</time></trkpt><trkpt lat="39.4097355" lon="17.094329"><ele>10.0</ele><time>2026-03-29T13:14:04.92Z</time></trkpt><trkpt lat="39.4096741" lon="17.0942964"><ele>10.0</ele><time>2026-03-29T13:14:06.918Z</time></trkpt><trkpt lat="39.4095642" lon="17.0943132"><ele>10.0</ele><time>2026-03-29T13:14:10.915Z</time></trkpt><trkpt lat="39.4094591" lon="17.0943348"><ele>10.0</ele><time>2026-03-29T13:14:12.918Z</time></trkpt><trkpt lat="39.4093517" lon="17.094278"><ele>9.833333333333334</ele><time>2026-03-29T13:14:14.914Z</time></trkpt><trkpt lat="39.4092601" lon="17.0942172"><ele>9.666666666666668</ele><time>2026-03-29T13:14:16.918Z</time></trkpt><trkpt lat="39.4092032" lon="17.0941783"><ele>9.5</ele><time>2026-03-29T13:14:18.922Z</time></trkpt><trkpt lat="39.4091328" lon="17.0940998"><ele>9.333333333333334</ele><time>2026-03-29T13:14:21.919Z</time></trkpt><trkpt lat="39.4090688" lon="17.0940372"><ele>9.166666666666666</ele><time>2026-03-29T13:14:23.915Z</time></trkpt><trkpt lat="39.4089853" lon="17.093975"><ele>9.0</ele><time>2026-03-29T13:14:25.931Z</time></trkpt><trkpt lat="39.4088924" lon="17.0939228"><ele>9.5</ele><time>2026-03-29T13:14:27.917Z</time></trkpt><trkpt lat="39.4087856" lon="17.0938765"><ele>10.0</ele><time>2026-03-29T13:14:29.925Z</time></trkpt><trkpt lat="39.4086865" lon="17.0938613"><ele>10.5</ele><time>2026-03-29T13:14:31.921Z</time></trkpt><trkpt lat="39.4085833" lon="17.0938703"><ele>11.0</ele><time>2026-03-29T13:14:33.911Z</time></trkpt><trkpt lat="39.4085203" lon="17.0938801"><ele>11.5</ele><time>2026-03-29T13:14:34.914Z</time></trkpt><trkpt lat="39.4084536" lon="17.0938923"><ele>12.0</ele><time>2026-03-29T13:14:35.915Z</time></trkpt><trkpt lat="39.4083853" lon="17.0939023"><ele>12.0</ele><time>2026-03-29T13:14:36.921Z</time></trkpt><trkpt lat="39.4083104" lon="17.0939152"><ele>12.0</ele><time>2026-03-29T13:14:37.915Z</time></trkpt><trkpt lat="39.4082305" lon="17.0939324"><ele>12.0</ele><time>2026-03-29T13:14:38.914Z</time></trkpt><trkpt lat="39.4081507" lon="17.0939511"><ele>12.0</ele><time>2026-03-29T13:14:39.914Z</time></trkpt><trkpt lat="39.4080737" lon="17.0939802"><ele>12.0</ele><time>2026-03-29T13:14:40.92Z</time></trkpt><trkpt lat="39.4079977" lon="17.0940157"><ele>12.0</ele><time>2026-03-29T13:14:41.912Z</time></trkpt><trkpt lat="39.4079208" lon="17.094053"><ele>12.0</ele><time>2026-03-29T13:14:42.909Z</time></trkpt><trkpt lat="39.4078439" lon="17.0941011"><ele>12.0</ele><time>2026-03-29T13:14:43.918Z</time></trkpt><trkpt lat="39.4077733" lon="17.0941587"><ele>12.0</ele><time>2026-03-29T13:14:44.915Z</time></trkpt><trkpt lat="39.4077118" lon="17.094216"><ele>12.0</ele><time>2026-03-29T13:14:45.918Z</time></trkpt><trkpt lat="39.4076613" lon="17.0942753"><ele>12.0</ele><time>2026-03-29T13:14:46.923Z</time></trkpt><trkpt lat="39.4076134" lon="17.0943304"><ele>12.0</ele><time>2026-03-29T13:14:47.919Z</time></trkpt><trkpt lat="39.4075082" lon="17.0944273"><ele>12.0</ele><time>2026-03-29T13:14:49.913Z</time></trkpt><trkpt lat="39.407449" lon="17.0944855"><ele>12.0</ele><time>2026-03-29T13:14:50.957Z</time></trkpt><trkpt lat="39.4073913" lon="17.094546"><ele>12.0</ele><time>2026-03-29T13:14:51.913Z</time></trkpt><trkpt lat="39.4073346" lon="17.0946064"><ele>12.0</ele><time>2026-03-29T13:14:52.917Z</time></trkpt><trkpt lat="39.4072825" lon="17.0946677"><ele>12.0</ele><time>2026-03-29T13:14:53.911Z</time></trkpt><trkpt lat="39.4072349" lon="17.0947288"><ele>12.0</ele><time>2026-03-29T13:14:54.919Z</time></trkpt><trkpt lat="39.4071484" lon="17.0948226"><ele>12.166666666666666</ele><time>2026-03-29T13:14:56.917Z</time></trkpt><trkpt lat="39.407065" lon="17.0948952"><ele>12.333333333333332</ele><time>2026-03-29T13:14:58.914Z</time></trkpt><trkpt lat="39.4069621" lon="17.0949622"><ele>12.5</ele><time>2026-03-29T13:15:00.918Z</time></trkpt><trkpt lat="39.406903" lon="17.0949925"><ele>12.666666666666666</ele><time>2026-03-29T13:15:01.908Z</time></trkpt><trkpt lat="39.4068443" lon="17.0950264"><ele>12.833333333333332</ele><time>2026-03-29T13:15:02.92Z</time></trkpt><trkpt lat="39.4067834" lon="17.0950515"><ele>13.0</ele><time>2026-03-29T13:15:03.915Z</time></trkpt><trkpt lat="39.4067189" lon="17.0950668"><ele>13.0</ele><time>2026-03-29T13:15:04.912Z</time></trkpt><trkpt lat="39.406655" lon="17.0950774"><ele>13.0</ele><time>2026-03-29T13:15:05.911Z</time></trkpt><trkpt lat="39.4065922" lon="17.095094"><ele>13.0</ele><time>2026-03-29T13:15:06.921Z</time></trkpt><trkpt lat="39.4064795" lon="17.0951283"><ele>13.0</ele><time>2026-03-29T13:15:08.909Z</time></trkpt><trkpt lat="39.4063764" lon="17.0951429"><ele>13.0</ele><time>2026-03-29T13:15:10.911Z</time></trkpt><trkpt lat="39.406261" lon="17.0951647"><ele>13.4</ele><time>2026-03-29T13:15:12.919Z</time></trkpt><trkpt lat="39.406168" lon="17.0951929"><ele>13.8</ele><time>2026-03-29T13:15:14.913Z</time></trkpt><trkpt lat="39.4060618" lon="17.0952165"><ele>14.2</ele><time>2026-03-29T13:15:16.912Z</time></trkpt><trkpt lat="39.4059542" lon="17.0952755"><ele>14.6</ele><time>2026-03-29T13:15:18.917Z</time></trkpt><trkpt lat="39.4058794" lon="17.0953588"><ele>15.0</ele><time>2026-03-29T13:15:20.92Z</time></trkpt><trkpt lat="39.4058088" lon="17.0954507"><ele>15.0</ele><time>2026-03-29T13:15:22.913Z</time></trkpt><trkpt lat="39.405741" lon="17.0955732"><ele>15.0</ele><time>2026-03-29T13:15:24.917Z</time></trkpt><trkpt lat="39.4057017" lon="17.0957187"><ele>15.0</ele><time>2026-03-29T13:15:26.912Z</time></trkpt><trkpt lat="39.4056725" lon="17.0957911"><ele>15.0</ele><time>2026-03-29T13:15:27.906Z</time></trkpt><trkpt lat="39.4056362" lon="17.095861"><ele>15.0</ele><time>2026-03-29T13:15:28.932Z</time></trkpt><trkpt lat="39.4055618" lon="17.0959898"><ele>14.833333333333334</ele><time>2026-03-29T13:15:30.907Z</time></trkpt><trkpt lat="39.4054675" lon="17.0961047"><ele>14.666666666666668</ele><time>2026-03-29T13:15:32.921Z</time></trkpt><trkpt lat="39.4054129" lon="17.0961667"><ele>14.5</ele><time>2026-03-29T13:15:33.915Z</time></trkpt><trkpt lat="39.4053537" lon="17.0962291"><ele>14.333333333333334</ele><time>2026-03-29T13:15:34.916Z</time></trkpt><trkpt lat="39.4052907" lon="17.0962908"><ele>14.166666666666668</ele><time>2026-03-29T13:15:35.918Z</time></trkpt><trkpt lat="39.4052243" lon="17.0963517"><ele>14.0</ele><time>2026-03-29T13:15:36.916Z</time></trkpt><trkpt lat="39.4051568" lon="17.0964068"><ele>14.0</ele><time>2026-03-29T13:15:37.921Z</time></trkpt><trkpt lat="39.4050937" lon="17.0964559"><ele>13.999999999999998</ele><time>2026-03-29T13:15:38.914Z</time></trkpt><trkpt lat="39.4049772" lon="17.0964997"><ele>13.999999999999998</ele><time>2026-03-29T13:15:40.91Z</time></trkpt><trkpt lat="39.4048809" lon="17.0964988"><ele>14.0</ele><time>2026-03-29T13:15:42.912Z</time></trkpt><trkpt lat="39.404801" lon="17.0965205"><ele>14.0</ele><time>2026-03-29T13:15:44.938Z</time></trkpt><trkpt lat="39.4046878" lon="17.096536"><ele>14.142857142857142</ele><time>2026-03-29T13:15:46.927Z</time></trkpt><trkpt lat="39.4046208" lon="17.0965403"><ele>14.285714285714285</ele><time>2026-03-29T13:15:47.915Z</time></trkpt><trkpt lat="39.404553" lon="17.096546"><ele>14.428571428571429</ele><time>2026-03-29T13:15:48.917Z</time></trkpt><trkpt lat="39.4044876" lon="17.0965613"><ele>14.571428571428571</ele><time>2026-03-29T13:15:49.917Z</time></trkpt><trkpt lat="39.4044235" lon="17.0965894"><ele>14.714285714285714</ele><time>2026-03-29T13:15:50.909Z</time></trkpt><trkpt lat="39.4043567" lon="17.0966125"><ele>14.857142857142858</ele><time>2026-03-29T13:15:51.914Z</time></trkpt><trkpt lat="39.4042928" lon="17.096613"><ele>15.0</ele><time>2026-03-29T13:15:52.917Z</time></trkpt><trkpt lat="39.4041737" lon="17.0965884"><ele>15.5</ele><time>2026-03-29T13:15:54.917Z</time></trkpt><trkpt lat="39.4041079" lon="17.0965721"><ele>16.0</ele><time>2026-03-29T13:15:55.925Z</time></trkpt><trkpt lat="39.4040323" lon="17.0965493"><ele>16.5</ele><time>2026-03-29T13:15:56.924Z</time></trkpt><trkpt lat="39.4039519" lon="17.0965246"><ele>17.0</ele><time>2026-03-29T13:15:57.909Z</time></trkpt><trkpt lat="39.4038732" lon="17.0965075"><ele>17.5</ele><time>2026-03-29T13:15:58.919Z</time></trkpt><trkpt lat="39.4038049" lon="17.0964979"><ele>18.0</ele><time>2026-03-29T13:15:59.916Z</time></trkpt><trkpt lat="39.4036984" lon="17.0964939"><ele>18.6</ele><time>2026-03-29T13:16:01.915Z</time></trkpt><trkpt lat="39.4035962" lon="17.096485"><ele>19.200000000000003</ele><time>2026-03-29T13:16:03.918Z</time></trkpt><trkpt lat="39.4034881" lon="17.0965021"><ele>19.8</ele><time>2026-03-29T13:16:05.913Z</time></trkpt><trkpt lat="39.4033715" lon="17.0964802"><ele>20.400000000000002</ele><time>2026-03-29T13:16:07.92Z</time></trkpt><trkpt lat="39.4032656" lon="17.0964742"><ele>21.0</ele><time>2026-03-29T13:16:09.916Z</time></trkpt><trkpt lat="39.403185" lon="17.0965483"><ele>20.666666666666668</ele><time>2026-03-29T13:16:11.918Z</time></trkpt><trkpt lat="39.4031307" lon="17.0966348"><ele>20.333333333333332</ele><time>2026-03-29T13:16:13.917Z</time></trkpt><trkpt lat="39.4030879" lon="17.0967237"><ele>20.0</ele><time>2026-03-29T13:16:15.921Z</time></trkpt><trkpt lat="39.4030611" lon="17.0968303"><ele>19.666666666666664</ele><time>2026-03-29T13:16:17.919Z</time></trkpt><trkpt lat="39.4030595" lon="17.0969696"><ele>19.333333333333332</ele><time>2026-03-29T13:16:19.915Z</time></trkpt><trkpt lat="39.4030004" lon="17.09705"><ele>19.0</ele><time>2026-03-29T13:16:21.936Z</time></trkpt><trkpt lat="39.4029221" lon="17.0970687"><ele>19.0</ele><time>2026-03-29T13:16:23.909Z</time></trkpt><trkpt lat="39.4028509" lon="17.0970657"><ele>19.0</ele><time>2026-03-29T13:16:25.91Z</time></trkpt><trkpt lat="39.4027622" lon="17.0970594"><ele>19.0</ele><time>2026-03-29T13:16:29.917Z</time></trkpt><trkpt lat="39.4026773" lon="17.0971112"><ele>19.0</ele><time>2026-03-29T13:16:32.926Z</time></trkpt><trkpt lat="39.4026103" lon="17.0971766"><ele>19.0</ele><time>2026-03-29T13:16:34.921Z</time></trkpt><trkpt lat="39.402539" lon="17.0972519"><ele>19.0</ele><time>2026-03-29T13:16:36.915Z</time></trkpt><trkpt lat="39.4024538" lon="17.0973382"><ele>19.0</ele><time>2026-03-29T13:16:38.91Z</time></trkpt><trkpt lat="39.4023615" lon="17.0974187"><ele>19.0</ele><time>2026-03-29T13:16:40.914Z</time></trkpt><trkpt lat="39.4022985" lon="17.097477"><ele>19.0</ele><time>2026-03-29T13:16:42.918Z</time></trkpt><trkpt lat="39.4022287" lon="17.097537"><ele>19.0</ele><time>2026-03-29T13:16:44.92Z</time></trkpt><trkpt lat="39.4021729" lon="17.0976549"><ele>19.0</ele><time>2026-03-29T13:16:46.925Z</time></trkpt><trkpt lat="39.4021542" lon="17.0977371"><ele>19.0</ele><time>2026-03-29T13:16:47.918Z</time></trkpt><trkpt lat="39.4021347" lon="17.0978192"><ele>19.333333333333332</ele><time>2026-03-29T13:16:48.92Z</time></trkpt><trkpt lat="39.4020524" lon="17.0979246"><ele>19.666666666666664</ele><time>2026-03-29T13:16:50.914Z</time></trkpt><trkpt lat="39.4019941" lon="17.0979915"><ele>20.0</ele><time>2026-03-29T13:16:53.917Z</time></trkpt><trkpt lat="39.4019406" lon="17.0980635"><ele>20.333333333333332</ele><time>2026-03-29T13:16:57.911Z</time></trkpt><trkpt lat="39.4018557" lon="17.0981088"><ele>20.666666666666668</ele><time>2026-03-29T13:17:00.923Z</time></trkpt><trkpt lat="39.4017718" lon="17.0981297"><ele>21.0</ele><time>2026-03-29T13:17:02.913Z</time></trkpt><trkpt lat="39.4016664" lon="17.0981358"><ele>21.0</ele><time>2026-03-29T13:17:04.92Z</time></trkpt><trkpt lat="39.4015421" lon="17.0981522"><ele>21.0</ele><time>2026-03-29T13:17:06.913Z</time></trkpt><trkpt lat="39.4014783" lon="17.0981609"><ele>21.0</ele><time>2026-03-29T13:17:07.914Z</time></trkpt><trkpt lat="39.4013717" lon="17.0982195"><ele>21.0</ele><time>2026-03-29T13:17:09.924Z</time></trkpt><trkpt lat="39.4012956" lon="17.0983501"><ele>21.0</ele><time>2026-03-29T13:17:11.918Z</time></trkpt><trkpt lat="39.4012607" lon="17.0984203"><ele>21.285714285714285</ele><time>2026-03-29T13:17:12.922Z</time></trkpt><trkpt lat="39.4012251" lon="17.0984905"><ele>21.57142857142857</ele><time>2026-03-29T13:17:13.915Z</time></trkpt><trkpt lat="39.4011865" lon="17.0985658"><ele>21.857142857142858</ele><time>2026-03-29T13:17:14.923Z</time></trkpt><trkpt lat="39.4011463" lon="17.0986466"><ele>22.142857142857142</ele><time>2026-03-29T13:17:15.904Z</time></trkpt><trkpt lat="39.4011074" lon="17.0987268"><ele>22.428571428571427</ele><time>2026-03-29T13:17:16.913Z</time></trkpt><trkpt lat="39.4010696" lon="17.0987932"><ele>22.714285714285715</ele><time>2026-03-29T13:17:17.921Z</time></trkpt><trkpt lat="39.4010259" lon="17.0988528"><ele>23.0</ele><time>2026-03-29T13:17:18.917Z</time></trkpt><trkpt lat="39.4009737" lon="17.0989086"><ele>23.0</ele><time>2026-03-29T13:17:19.919Z</time></trkpt><trkpt lat="39.4009224" lon="17.0989601"><ele>23.0</ele><time>2026-03-29T13:17:20.93Z</time></trkpt><trkpt lat="39.4009053" lon="17.0990723"><ele>23.0</ele><time>2026-03-29T13:17:22.909Z</time></trkpt><trkpt lat="39.4010028" lon="17.0991139"><ele>23.0</ele><time>2026-03-29T13:17:24.917Z</time></trkpt><trkpt lat="39.4011252" lon="17.0991007"><ele>23.0</ele><time>2026-03-29T13:17:26.907Z</time></trkpt><trkpt lat="39.4011896" lon="17.0991"><ele>23.0</ele><time>2026-03-29T13:17:27.921Z</time></trkpt><trkpt lat="39.4012561" lon="17.0991088"><ele>23.28571428571429</ele><time>2026-03-29T13:17:28.925Z</time></trkpt><trkpt lat="39.4013236" lon="17.0991239"><ele>23.57142857142857</ele><time>2026-03-29T13:17:29.914Z</time></trkpt><trkpt lat="39.4013928" lon="17.0991411"><ele>23.857142857142858</ele><time>2026-03-29T13:17:30.918Z</time></trkpt><trkpt lat="39.4014594" lon="17.0991687"><ele>24.142857142857146</ele><time>2026-03-29T13:17:31.912Z</time></trkpt><trkpt lat="39.4015242" lon="17.0992027"><ele>24.42857142857143</ele><time>2026-03-29T13:17:32.926Z</time></trkpt><trkpt lat="39.4015919" lon="17.0992352"><ele>24.714285714285715</ele><time>2026-03-29T13:17:33.913Z</time></trkpt><trkpt lat="39.401655" lon="17.0992772"><ele>25.0</ele><time>2026-03-29T13:17:34.91Z</time></trkpt><trkpt lat="39.4016947" lon="17.0994094"><ele>25.000000000000004</ele><time>2026-03-29T13:17:36.916Z</time></trkpt><trkpt lat="39.4016385" lon="17.0995059"><ele>25.0</ele><time>2026-03-29T13:17:38.929Z</time></trkpt><trkpt lat="39.4015791" lon="17.0995348"><ele>25.0</ele><time>2026-03-29T13:17:39.921Z</time></trkpt><trkpt lat="39.4015133" lon="17.0995701"><ele>25.0</ele><time>2026-03-29T13:17:40.911Z</time></trkpt><trkpt lat="39.4014448" lon="17.0996194"><ele>25.000000000000004</ele><time>2026-03-29T13:17:41.932Z</time></trkpt><trkpt lat="39.4013742" lon="17.099676"><ele>25.0</ele><time>2026-03-29T13:17:42.921Z</time></trkpt><trkpt lat="39.4013034" lon="17.0997408"><ele>25.0</ele><time>2026-03-29T13:17:43.912Z</time></trkpt><trkpt lat="39.4012306" lon="17.0998109"><ele>25.0</ele><time>2026-03-29T13:17:44.922Z</time></trkpt><trkpt lat="39.4011611" lon="17.0999058"><ele>25.0</ele><time>2026-03-29T13:17:45.922Z</time></trkpt><trkpt lat="39.4010927" lon="17.1000237"><ele>25.0</ele><time>2026-03-29T13:17:46.916Z</time></trkpt><trkpt lat="39.4010239" lon="17.1001469"><ele>25.0</ele><time>2026-03-29T13:17:47.916Z</time></trkpt><trkpt lat="39.4009593" lon="17.1002645"><ele>27.6</ele><time>2026-03-29T13:17:48.92Z</time></trkpt><trkpt lat="39.400901" lon="17.1003737"><ele>30.2</ele><time>2026-03-29T13:17:49.915Z</time></trkpt><trkpt lat="39.4008503" lon="17.1004679"><ele>32.8</ele><time>2026-03-29T13:17:50.922Z</time></trkpt><trkpt lat="39.4008055" lon="17.1005605"><ele>35.4</ele><time>2026-03-29T13:17:51.92Z</time></trkpt><trkpt lat="39.4007654" lon="17.1006603"><ele>38.0</ele><time>2026-03-29T13:17:52.912Z</time></trkpt><trkpt lat="39.4007354" lon="17.1007728"><ele>39.166666666666664</ele><time>2026-03-29T13:17:53.916Z</time></trkpt><trkpt lat="39.4007132" lon="17.1008806"><ele>40.33333333333333</ele><time>2026-03-29T13:17:54.911Z</time></trkpt><trkpt lat="39.4006802" lon="17.1009662"><ele>41.5</ele><time>2026-03-29T13:17:55.918Z</time></trkpt><trkpt lat="39.4006381" lon="17.1010446"><ele>42.666666666666664</ele><time>2026-03-29T13:17:56.927Z</time></trkpt><trkpt lat="39.4005771" lon="17.1011138"><ele>43.833333333333336</ele><time>2026-03-29T13:17:57.924Z</time></trkpt><trkpt lat="39.4005089" lon="17.1011848"><ele>45.0</ele><time>2026-03-29T13:17:58.922Z</time></trkpt><trkpt lat="39.4004283" lon="17.1012415"><ele>45.0</ele><time>2026-03-29T13:17:59.925Z</time></trkpt><trkpt lat="39.4003447" lon="17.1012918"><ele>45.0</ele><time>2026-03-29T13:18:00.922Z</time></trkpt><trkpt lat="39.4002609" lon="17.1013483"><ele>45.0</ele><time>2026-03-29T13:18:01.914Z</time></trkpt><trkpt lat="39.4001788" lon="17.1013969"><ele>45.0</ele><time>2026-03-29T13:18:02.938Z</time></trkpt><trkpt lat="39.400097" lon="17.1014357"><ele>45.0</ele><time>2026-03-29T13:18:03.942Z</time></trkpt><trkpt lat="39.4000117" lon="17.1014656"><ele>45.0</ele><time>2026-03-29T13:18:04.914Z</time></trkpt><trkpt lat="39.3999216" lon="17.1014853"><ele>45.0</ele><time>2026-03-29T13:18:05.918Z</time></trkpt><trkpt lat="39.3998323" lon="17.1014978"><ele>45.0</ele><time>2026-03-29T13:18:06.922Z</time></trkpt><trkpt lat="39.3997479" lon="17.1014959"><ele>45.0</ele><time>2026-03-29T13:18:07.912Z</time></trkpt><trkpt lat="39.39966" lon="17.1014846"><ele>45.0</ele><time>2026-03-29T13:18:08.923Z</time></trkpt><trkpt lat="39.3995714" lon="17.1014886"><ele>45.0</ele><time>2026-03-29T13:18:09.914Z</time></trkpt><trkpt lat="39.3994802" lon="17.1015001"><ele>45.2</ele><time>2026-03-29T13:18:10.921Z</time></trkpt><trkpt lat="39.3993877" lon="17.101512"><ele>45.4</ele><time>2026-03-29T13:18:11.923Z</time></trkpt><trkpt lat="39.3992879" lon="17.1014973"><ele>45.599999999999994</ele><time>2026-03-29T13:18:12.916Z</time></trkpt><trkpt lat="39.3991913" lon="17.1014469"><ele>45.8</ele><time>2026-03-29T13:18:13.927Z</time></trkpt><trkpt lat="39.3991041" lon="17.1013644"><ele>46.0</ele><time>2026-03-29T13:18:14.924Z</time></trkpt><trkpt lat="39.3990293" lon="17.1012725"><ele>46.0</ele><time>2026-03-29T13:18:15.919Z</time></trkpt><trkpt lat="39.39896" lon="17.101198"><ele>46.0</ele><time>2026-03-29T13:18:16.924Z</time></trkpt><trkpt lat="39.398889" lon="17.1011512"><ele>46.0</ele><time>2026-03-29T13:18:17.929Z</time></trkpt><trkpt lat="39.3988077" lon="17.101114"><ele>46.0</ele><time>2026-03-29T13:18:18.919Z</time></trkpt><trkpt lat="39.3987177" lon="17.101069"><ele>46.0</ele><time>2026-03-29T13:18:19.913Z</time></trkpt><trkpt lat="39.3986222" lon="17.1010162"><ele>46.75</ele><time>2026-03-29T13:18:20.92Z</time></trkpt><trkpt lat="39.3985213" lon="17.1009539"><ele>47.5</ele><time>2026-03-29T13:18:21.92Z</time></trkpt><trkpt lat="39.3984131" lon="17.1008926"><ele>48.25</ele><time>2026-03-29T13:18:22.911Z</time></trkpt><trkpt lat="39.3982959" lon="17.1008598"><ele>49.0</ele><time>2026-03-29T13:18:23.931Z</time></trkpt><trkpt lat="39.3981722" lon="17.1008475"><ele>49.0</ele><time>2026-03-29T13:18:24.915Z</time></trkpt><trkpt lat="39.3980388" lon="17.1008701"><ele>49.0</ele><time>2026-03-29T13:18:25.916Z</time></trkpt><trkpt lat="39.3979054" lon="17.100889"><ele>49.0</ele><time>2026-03-29T13:18:26.917Z</time></trkpt><trkpt lat="39.3977773" lon="17.1009026"><ele>49.0</ele><time>2026-03-29T13:18:27.915Z</time></trkpt><trkpt lat="39.3976576" lon="17.1009103"><ele>49.0</ele><time>2026-03-29T13:18:28.924Z</time></trkpt><trkpt lat="39.3975513" lon="17.1009162"><ele>49.0</ele><time>2026-03-29T13:18:29.912Z</time></trkpt><trkpt lat="39.3974558" lon="17.1009299"><ele>49.0</ele><time>2026-03-29T13:18:30.921Z</time></trkpt><trkpt lat="39.3973876" lon="17.1009929"><ele>49.0</ele><time>2026-03-29T13:18:31.922Z</time></trkpt><trkpt lat="39.3973406" lon="17.1010991"><ele>49.0</ele><time>2026-03-29T13:18:32.918Z</time></trkpt><trkpt lat="39.3972973" lon="17.1012274"><ele>49.0</ele><time>2026-03-29T13:18:33.919Z</time></trkpt><trkpt lat="39.3972376" lon="17.1013515"><ele>49.0</ele><time>2026-03-29T13:18:34.917Z</time></trkpt><trkpt lat="39.3971549" lon="17.101456"><ele>49.0</ele><time>2026-03-29T13:18:35.928Z</time></trkpt><trkpt lat="39.397056" lon="17.1015451"><ele>49.0</ele><time>2026-03-29T13:18:36.92Z</time></trkpt><trkpt lat="39.3969466" lon="17.1016288"><ele>49.75</ele><time>2026-03-29T13:18:37.927Z</time></trkpt><trkpt lat="39.3968339" lon="17.10171"><ele>50.5</ele><time>2026-03-29T13:18:38.919Z</time></trkpt><trkpt lat="39.3967177" lon="17.1017911"><ele>51.25</ele><time>2026-03-29T13:18:39.922Z</time></trkpt><trkpt lat="39.3965944" lon="17.1018542"><ele>52.0</ele><time>2026-03-29T13:18:40.926Z</time></trkpt><trkpt lat="39.3964645" lon="17.1018964"><ele>52.0</ele><time>2026-03-29T13:18:41.918Z</time></trkpt><trkpt lat="39.3963439" lon="17.1019419"><ele>52.0</ele><time>2026-03-29T13:18:42.919Z</time></trkpt><trkpt lat="39.3962417" lon="17.1020056"><ele>52.0</ele><time>2026-03-29T13:18:43.918Z</time></trkpt><trkpt lat="39.3961541" lon="17.1020748"><ele>52.0</ele><time>2026-03-29T13:18:44.93Z</time></trkpt><trkpt lat="39.3960687" lon="17.1021319"><ele>52.0</ele><time>2026-03-29T13:18:45.916Z</time></trkpt><trkpt lat="39.395974" lon="17.1021685"><ele>51.99999999999999</ele><time>2026-03-29T13:18:46.917Z</time></trkpt><trkpt lat="39.3958815" lon="17.1021886"><ele>52.0</ele><time>2026-03-29T13:18:47.922Z</time></trkpt><trkpt lat="39.395801" lon="17.102207"><ele>52.0</ele><time>2026-03-29T13:18:48.92Z</time></trkpt><trkpt lat="39.3957292" lon="17.102233"><ele>52.0</ele><time>2026-03-29T13:18:49.91Z</time></trkpt><trkpt lat="39.3956619" lon="17.1022709"><ele>51.99999999999999</ele><time>2026-03-29T13:18:50.923Z</time></trkpt><trkpt lat="39.3956025" lon="17.1023152"><ele>52.0</ele><time>2026-03-29T13:18:51.921Z</time></trkpt><trkpt lat="39.3955474" lon="17.1023614"><ele>52.166666666666664</ele><time>2026-03-29T13:18:52.919Z</time></trkpt><trkpt lat="39.3954882" lon="17.1024064"><ele>52.33333333333333</ele><time>2026-03-29T13:18:53.924Z</time></trkpt><trkpt lat="39.3954258" lon="17.1024524"><ele>52.5</ele><time>2026-03-29T13:18:54.916Z</time></trkpt><trkpt lat="39.3953609" lon="17.1025015"><ele>52.66666666666667</ele><time>2026-03-29T13:18:55.916Z</time></trkpt><trkpt lat="39.3952935" lon="17.1025515"><ele>52.833333333333336</ele><time>2026-03-29T13:18:56.923Z</time></trkpt><trkpt lat="39.395221" lon="17.1025998"><ele>53.0</ele><time>2026-03-29T13:18:57.927Z</time></trkpt><trkpt lat="39.395141" lon="17.102647"><ele>53.0</ele><time>2026-03-29T13:18:58.923Z</time></trkpt><trkpt lat="39.3950573" lon="17.1026963"><ele>53.0</ele><time>2026-03-29T13:18:59.916Z</time></trkpt><trkpt lat="39.3949721" lon="17.1027487"><ele>53.0</ele><time>2026-03-29T13:19:00.91Z</time></trkpt><trkpt lat="39.3948833" lon="17.1028039"><ele>53.0</ele><time>2026-03-29T13:19:01.917Z</time></trkpt><trkpt lat="39.3947915" lon="17.1028588"><ele>53.0</ele><time>2026-03-29T13:19:02.92Z</time></trkpt><trkpt lat="39.3946979" lon="17.1029131"><ele>52.8</ele><time>2026-03-29T13:19:03.915Z</time></trkpt><trkpt lat="39.3946022" lon="17.1029675"><ele>52.599999999999994</ele><time>2026-03-29T13:19:04.92Z</time></trkpt><trkpt lat="39.3945041" lon="17.1030181"><ele>52.400000000000006</ele><time>2026-03-29T13:19:05.941Z</time></trkpt><trkpt lat="39.3944047" lon="17.1030603"><ele>52.2</ele><time>2026-03-29T13:19:06.923Z</time></trkpt><trkpt lat="39.3943031" lon="17.103097"><ele>52.0</ele><time>2026-03-29T13:19:07.916Z</time></trkpt><trkpt lat="39.3941995" lon="17.1031323"><ele>52.0</ele><time>2026-03-29T13:19:08.925Z</time></trkpt><trkpt lat="39.3940954" lon="17.1031681"><ele>52.0</ele><time>2026-03-29T13:19:09.918Z</time></trkpt><trkpt lat="39.3939902" lon="17.1032057"><ele>52.0</ele><time>2026-03-29T13:19:10.91Z</time></trkpt><trkpt lat="39.393884" lon="17.1032364"><ele>52.0</ele><time>2026-03-29T13:19:11.924Z</time></trkpt><trkpt lat="39.3937784" lon="17.1032454"><ele>52.0</ele><time>2026-03-29T13:19:12.924Z</time></trkpt><trkpt lat="39.3936703" lon="17.1032352"><ele>52.5</ele><time>2026-03-29T13:19:13.923Z</time></trkpt><trkpt lat="39.3935585" lon="17.1032122"><ele>53.0</ele><time>2026-03-29T13:19:14.919Z</time></trkpt><trkpt lat="39.3934434" lon="17.1031873"><ele>53.5</ele><time>2026-03-29T13:19:15.927Z</time></trkpt><trkpt lat="39.3933287" lon="17.1031683"><ele>54.0</ele><time>2026-03-29T13:19:16.925Z</time></trkpt><trkpt lat="39.3932178" lon="17.1031555"><ele>54.0</ele><time>2026-03-29T13:19:17.918Z</time></trkpt><trkpt lat="39.3931111" lon="17.1031454"><ele>54.00000000000001</ele><time>2026-03-29T13:19:18.919Z</time></trkpt><trkpt lat="39.3930059" lon="17.1031384"><ele>54.00000000000001</ele><time>2026-03-29T13:19:19.919Z</time></trkpt><trkpt lat="39.3928984" lon="17.1031324"><ele>54.0</ele><time>2026-03-29T13:19:20.918Z</time></trkpt><trkpt lat="39.3927885" lon="17.1031094"><ele>54.0</ele><time>2026-03-29T13:19:21.918Z</time></trkpt><trkpt lat="39.3926788" lon="17.1030777"><ele>54.6</ele><time>2026-03-29T13:19:22.923Z</time></trkpt><trkpt lat="39.3925695" lon="17.1030431"><ele>55.2</ele><time>2026-03-29T13:19:23.919Z</time></trkpt><trkpt lat="39.3924706" lon="17.1030137"><ele>55.800000000000004</ele><time>2026-03-29T13:19:24.916Z</time></trkpt><trkpt lat="39.3923758" lon="17.1029856"><ele>56.400000000000006</ele><time>2026-03-29T13:19:25.928Z</time></trkpt><trkpt lat="39.3922743" lon="17.102952"><ele>57.0</ele><time>2026-03-29T13:19:26.94Z</time></trkpt><trkpt lat="39.3921615" lon="17.1029164"><ele>57.25</ele><time>2026-03-29T13:19:27.916Z</time></trkpt><trkpt lat="39.3920366" lon="17.1028798"><ele>57.5</ele><time>2026-03-29T13:19:28.915Z</time></trkpt><trkpt lat="39.3919073" lon="17.1028439"><ele>57.75</ele><time>2026-03-29T13:19:29.919Z</time></trkpt><trkpt lat="39.3917774" lon="17.1028107"><ele>58.0</ele><time>2026-03-29T13:19:30.924Z</time></trkpt><trkpt lat="39.3916492" lon="17.1027826"><ele>58.0</ele><time>2026-03-29T13:19:31.925Z</time></trkpt><trkpt lat="39.3915211" lon="17.1027556"><ele>58.0</ele><time>2026-03-29T13:19:32.926Z</time></trkpt><trkpt lat="39.391391" lon="17.1027255"><ele>58.0</ele><time>2026-03-29T13:19:33.922Z</time></trkpt><trkpt lat="39.391261" lon="17.1026935"><ele>58.0</ele><time>2026-03-29T13:19:34.913Z</time></trkpt><trkpt lat="39.39113" lon="17.1026621"><ele>58.25</ele><time>2026-03-29T13:19:35.919Z</time></trkpt><trkpt lat="39.3909998" lon="17.1026315"><ele>58.5</ele><time>2026-03-29T13:19:36.922Z</time></trkpt><trkpt lat="39.3908783" lon="17.1026012"><ele>58.75</ele><time>2026-03-29T13:19:37.911Z</time></trkpt><trkpt lat="39.3907692" lon="17.1025728"><ele>59.0</ele><time>2026-03-29T13:19:38.929Z</time></trkpt><trkpt lat="39.3906752" lon="17.1025466"><ele>59.0</ele><time>2026-03-29T13:19:39.922Z</time></trkpt><trkpt lat="39.3905937" lon="17.1025224"><ele>59.00000000000001</ele><time>2026-03-29T13:19:40.922Z</time></trkpt><trkpt lat="39.3905242" lon="17.1025042"><ele>59.00000000000001</ele><time>2026-03-29T13:19:41.914Z</time></trkpt><trkpt lat="39.3904054" lon="17.1024725"><ele>59.0</ele><time>2026-03-29T13:19:43.92Z</time></trkpt><trkpt lat="39.3902836" lon="17.1024269"><ele>59.0</ele><time>2026-03-29T13:19:45.917Z</time></trkpt><trkpt lat="39.3902193" lon="17.1024008"><ele>59.00000000000001</ele><time>2026-03-29T13:19:46.924Z</time></trkpt><trkpt lat="39.390153" lon="17.1023737"><ele>59.0</ele><time>2026-03-29T13:19:47.932Z</time></trkpt><trkpt lat="39.390085" lon="17.1023476"><ele>59.0</ele><time>2026-03-29T13:19:48.919Z</time></trkpt><trkpt lat="39.390013" lon="17.1023209"><ele>59.0</ele><time>2026-03-29T13:19:49.917Z</time></trkpt><trkpt lat="39.3899364" lon="17.102292"><ele>59.00000000000001</ele><time>2026-03-29T13:19:50.921Z</time></trkpt><trkpt lat="39.3898575" lon="17.1022631"><ele>59.0</ele><time>2026-03-29T13:19:51.923Z</time></trkpt><trkpt lat="39.3897797" lon="17.1022358"><ele>59.00000000000001</ele><time>2026-03-29T13:19:52.923Z</time></trkpt><trkpt lat="39.389706" lon="17.1022115"><ele>59.0</ele><time>2026-03-29T13:19:53.922Z</time></trkpt><trkpt lat="39.3896383" lon="17.1021921"><ele>59.0</ele><time>2026-03-29T13:19:54.92Z</time></trkpt><trkpt lat="39.3895286" lon="17.1021568"><ele>59.0</ele><time>2026-03-29T13:19:56.914Z</time></trkpt><trkpt lat="39.3894443" lon="17.1021336"><ele>59.00000000000001</ele><time>2026-03-29T13:19:58.927Z</time></trkpt><trkpt lat="39.3893623" lon="17.1021444"><ele>59.0</ele><time>2026-03-29T13:20:00.925Z</time></trkpt><trkpt lat="39.3892871" lon="17.102169"><ele>59.50000000000001</ele><time>2026-03-29T13:20:02.918Z</time></trkpt><trkpt lat="39.3892036" lon="17.1021854"><ele>60.0</ele><time>2026-03-29T13:20:04.919Z</time></trkpt><trkpt lat="39.3891051" lon="17.1022153"><ele>60.5</ele><time>2026-03-29T13:20:06.928Z</time></trkpt><trkpt lat="39.3889863" lon="17.1022344"><ele>61.0</ele><time>2026-03-29T13:20:08.919Z</time></trkpt><trkpt lat="39.388921" lon="17.1022407"><ele>61.50000000000001</ele><time>2026-03-29T13:20:09.92Z</time></trkpt><trkpt lat="39.3888568" lon="17.1022532"><ele>62.0</ele><time>2026-03-29T13:20:10.929Z</time></trkpt><trkpt lat="39.3887927" lon="17.1022637"><ele>62.00000000000001</ele><time>2026-03-29T13:20:11.916Z</time></trkpt><trkpt lat="39.3887252" lon="17.1022706"><ele>62.0</ele><time>2026-03-29T13:20:12.923Z</time></trkpt><trkpt lat="39.3886529" lon="17.10228"><ele>62.0</ele><time>2026-03-29T13:20:13.916Z</time></trkpt><trkpt lat="39.3885753" lon="17.1022923"><ele>62.0</ele><time>2026-03-29T13:20:14.923Z</time></trkpt><trkpt lat="39.3884956" lon="17.1023081"><ele>62.00000000000001</ele><time>2026-03-29T13:20:15.916Z</time></trkpt><trkpt lat="39.3884123" lon="17.1023233"><ele>62.0</ele><time>2026-03-29T13:20:16.923Z</time></trkpt><trkpt lat="39.3883279" lon="17.1023355"><ele>62.00000000000001</ele><time>2026-03-29T13:20:17.921Z</time></trkpt><trkpt lat="39.3882449" lon="17.1023503"><ele>62.0</ele><time>2026-03-29T13:20:18.915Z</time></trkpt><trkpt lat="39.3881628" lon="17.1023658"><ele>62.0</ele><time>2026-03-29T13:20:19.908Z</time></trkpt><trkpt lat="39.3880759" lon="17.102381"><ele>62.0</ele><time>2026-03-29T13:20:20.919Z</time></trkpt><trkpt lat="39.3879844" lon="17.1023967"><ele>62.00000000000001</ele><time>2026-03-29T13:20:21.923Z</time></trkpt><trkpt lat="39.3878929" lon="17.1024122"><ele>62.0</ele><time>2026-03-29T13:20:22.917Z</time></trkpt><trkpt lat="39.3878022" lon="17.1024259"><ele>61.8</ele><time>2026-03-29T13:20:23.915Z</time></trkpt><trkpt lat="39.3877116" lon="17.1024388"><ele>61.6</ele><time>2026-03-29T13:20:24.914Z</time></trkpt><trkpt lat="39.3876203" lon="17.1024543"><ele>61.39999999999999</ele><time>2026-03-29T13:20:25.924Z</time></trkpt><trkpt lat="39.3875283" lon="17.1024671"><ele>61.199999999999996</ele><time>2026-03-29T13:20:26.924Z</time></trkpt><trkpt lat="39.387436" lon="17.1024807"><ele>61.0</ele><time>2026-03-29T13:20:27.929Z</time></trkpt><trkpt lat="39.3873442" lon="17.1024976"><ele>61.0</ele><time>2026-03-29T13:20:28.919Z</time></trkpt><trkpt lat="39.3872514" lon="17.102517"><ele>60.99999999999999</ele><time>2026-03-29T13:20:29.913Z</time></trkpt><trkpt lat="39.3871578" lon="17.1025335"><ele>60.99999999999999</ele><time>2026-03-29T13:20:30.916Z</time></trkpt><trkpt lat="39.3870646" lon="17.102553"><ele>61.0</ele><time>2026-03-29T13:20:31.922Z</time></trkpt><trkpt lat="39.3869706" lon="17.102572"><ele>61.0</ele><time>2026-03-29T13:20:32.919Z</time></trkpt><trkpt lat="39.3868749" lon="17.1025882"><ele>61.33333333333333</ele><time>2026-03-29T13:20:33.918Z</time></trkpt><trkpt lat="39.3867788" lon="17.1026008"><ele>61.666666666666664</ele><time>2026-03-29T13:20:34.919Z</time></trkpt><trkpt lat="39.3866871" lon="17.1026135"><ele>62.0</ele><time>2026-03-29T13:20:35.922Z</time></trkpt><trkpt lat="39.3866022" lon="17.10263"><ele>62.33333333333333</ele><time>2026-03-29T13:20:36.914Z</time></trkpt><trkpt lat="39.3865233" lon="17.1026453"><ele>62.666666666666664</ele><time>2026-03-29T13:20:37.922Z</time></trkpt><trkpt lat="39.3864514" lon="17.1026572"><ele>63.0</ele><time>2026-03-29T13:20:38.926Z</time></trkpt><trkpt lat="39.3863869" lon="17.1026657"><ele>63.4</ele><time>2026-03-29T13:20:39.919Z</time></trkpt><trkpt lat="39.3862973" lon="17.1026805"><ele>63.8</ele><time>2026-03-29T13:20:41.921Z</time></trkpt><trkpt lat="39.3862096" lon="17.1026995"><ele>64.2</ele><time>2026-03-29T13:20:44.928Z</time></trkpt><trkpt lat="39.3861215" lon="17.1027219"><ele>64.6</ele><time>2026-03-29T13:20:46.911Z</time></trkpt><trkpt lat="39.3860203" lon="17.1027327"><ele>65.0</ele><time>2026-03-29T13:20:48.914Z</time></trkpt><trkpt lat="39.3859426" lon="17.1027655"><ele>65.0</ele><time>2026-03-29T13:20:50.923Z</time></trkpt><trkpt lat="39.3859451" lon="17.1028514"><ele>65.0</ele><time>2026-03-29T13:20:52.924Z</time></trkpt><trkpt lat="39.3860356" lon="17.1029243"><ele>65.0</ele><time>2026-03-29T13:20:54.924Z</time></trkpt><trkpt lat="39.3861118" lon="17.1030416"><ele>65.0</ele><time>2026-03-29T13:20:56.914Z</time></trkpt><trkpt lat="39.3860669" lon="17.1031918"><ele>65.0</ele><time>2026-03-29T13:20:58.923Z</time></trkpt><trkpt lat="39.3860291" lon="17.1032772"><ele>64.85714285714286</ele><time>2026-03-29T13:20:59.923Z</time></trkpt><trkpt lat="39.3859995" lon="17.1033721"><ele>64.71428571428572</ele><time>2026-03-29T13:21:00.917Z</time></trkpt><trkpt lat="39.3859727" lon="17.1034689"><ele>64.57142857142857</ele><time>2026-03-29T13:21:01.912Z</time></trkpt><trkpt lat="39.3859476" lon="17.1035646"><ele>64.42857142857143</ele><time>2026-03-29T13:21:02.924Z</time></trkpt><trkpt lat="39.3859236" lon="17.1036531"><ele>64.28571428571428</ele><time>2026-03-29T13:21:03.91Z</time></trkpt><trkpt lat="39.3859081" lon="17.10374"><ele>64.14285714285714</ele><time>2026-03-29T13:21:04.918Z</time></trkpt><trkpt lat="39.3859166" lon="17.1038224"><ele>64.0</ele><time>2026-03-29T13:21:05.919Z</time></trkpt><trkpt lat="39.3859835" lon="17.1039477"><ele>64.0</ele><time>2026-03-29T13:21:07.923Z</time></trkpt><trkpt lat="39.3860525" lon="17.1040441"><ele>64.0</ele><time>2026-03-29T13:21:09.914Z</time></trkpt><trkpt lat="39.386117" lon="17.1041599"><ele>64.0</ele><time>2026-03-29T13:21:11.92Z</time></trkpt><trkpt lat="39.3861338" lon="17.1043167"><ele>64.0</ele><time>2026-03-29T13:21:13.93Z</time></trkpt><trkpt lat="39.3861161" lon="17.1044039"><ele>64.0</ele><time>2026-03-29T13:21:14.918Z</time></trkpt><trkpt lat="39.3860995" lon="17.1044931"><ele>64.0</ele><time>2026-03-29T13:21:15.912Z</time></trkpt><trkpt lat="39.3861396" lon="17.1046207"><ele>64.0</ele><time>2026-03-29T13:21:17.915Z</time></trkpt><trkpt lat="39.3862521" lon="17.1046675"><ele>64.0</ele><time>2026-03-29T13:21:19.913Z</time></trkpt><trkpt lat="39.3863207" lon="17.1046935"><ele>64.0</ele><time>2026-03-29T13:21:20.921Z</time></trkpt><trkpt lat="39.3863936" lon="17.1047222"><ele>64.0</ele><time>2026-03-29T13:21:21.923Z</time></trkpt><trkpt lat="39.3864696" lon="17.1047474"><ele>63.99999999999999</ele><time>2026-03-29T13:21:22.915Z</time></trkpt><trkpt lat="39.3865484" lon="17.1047762"><ele>64.0</ele><time>2026-03-29T13:21:23.922Z</time></trkpt><trkpt lat="39.386629" lon="17.1048077"><ele>64.0</ele><time>2026-03-29T13:21:24.925Z</time></trkpt><trkpt lat="39.3867069" lon="17.1048521"><ele>64.0</ele><time>2026-03-29T13:21:25.922Z</time></trkpt><trkpt lat="39.3867862" lon="17.104898"><ele>63.99999999999999</ele><time>2026-03-29T13:21:26.919Z</time></trkpt><trkpt lat="39.3868676" lon="17.1049439"><ele>64.0</ele><time>2026-03-29T13:21:27.92Z</time></trkpt><trkpt lat="39.3869506" lon="17.1049893"><ele>64.16666666666666</ele><time>2026-03-29T13:21:28.915Z</time></trkpt><trkpt lat="39.3870337" lon="17.1050342"><ele>64.33333333333333</ele><time>2026-03-29T13:21:29.92Z</time></trkpt><trkpt lat="39.3871161" lon="17.1050799"><ele>64.5</ele><time>2026-03-29T13:21:30.921Z</time></trkpt><trkpt lat="39.387192" lon="17.105123"><ele>64.66666666666667</ele><time>2026-03-29T13:21:31.911Z</time></trkpt><trkpt lat="39.3872605" lon="17.1051608"><ele>64.83333333333334</ele><time>2026-03-29T13:21:32.922Z</time></trkpt><trkpt lat="39.3873217" lon="17.1051946"><ele>65.0</ele><time>2026-03-29T13:21:33.917Z</time></trkpt><trkpt lat="39.3874067" lon="17.105268"><ele>65.0</ele><time>2026-03-29T13:21:35.92Z</time></trkpt><trkpt lat="39.3874221" lon="17.1053558"><ele>65.0</ele><time>2026-03-29T13:21:37.926Z</time></trkpt><trkpt lat="39.3874058" lon="17.1054525"><ele>65.0</ele><time>2026-03-29T13:21:39.926Z</time></trkpt><trkpt lat="39.3873198" lon="17.1055303"><ele>65.0</ele><time>2026-03-29T13:21:41.936Z</time></trkpt><trkpt lat="39.3872163" lon="17.1055862"><ele>65.0</ele><time>2026-03-29T13:21:43.927Z</time></trkpt><trkpt lat="39.3871437" lon="17.1056413"><ele>65.0</ele><time>2026-03-29T13:21:45.919Z</time></trkpt><trkpt lat="39.3870821" lon="17.1056949"><ele>64.33333333333334</ele><time>2026-03-29T13:21:47.922Z</time></trkpt><trkpt lat="39.3870248" lon="17.1057349"><ele>63.66666666666667</ele><time>2026-03-29T13:21:49.929Z</time></trkpt><trkpt lat="39.3869549" lon="17.1058124"><ele>63.0</ele><time>2026-03-29T13:21:52.92Z</time></trkpt><trkpt lat="39.3869249" lon="17.1058889"><ele>62.33333333333333</ele><time>2026-03-29T13:21:54.912Z</time></trkpt><trkpt lat="39.3868707" lon="17.1059773"><ele>61.666666666666664</ele><time>2026-03-29T13:21:58.92Z</time></trkpt><trkpt lat="39.3868372" lon="17.1061072"><ele>61.0</ele><time>2026-03-29T13:22:00.921Z</time></trkpt><trkpt lat="39.3868711" lon="17.1062447"><ele>60.33333333333333</ele><time>2026-03-29T13:22:02.928Z</time></trkpt><trkpt lat="39.3869284" lon="17.1063924"><ele>59.666666666666664</ele><time>2026-03-29T13:22:04.918Z</time></trkpt><trkpt lat="39.3869625" lon="17.1064724"><ele>59.0</ele><time>2026-03-29T13:22:05.92Z</time></trkpt><trkpt lat="39.3870024" lon="17.1065613"><ele>58.33333333333333</ele><time>2026-03-29T13:22:06.92Z</time></trkpt><trkpt lat="39.3870421" lon="17.1066516"><ele>57.666666666666664</ele><time>2026-03-29T13:22:07.914Z</time></trkpt><trkpt lat="39.3870803" lon="17.1067401"><ele>57.0</ele><time>2026-03-29T13:22:08.921Z</time></trkpt><trkpt lat="39.3871134" lon="17.1068247"><ele>57.0</ele><time>2026-03-29T13:22:09.914Z</time></trkpt><trkpt lat="39.3871451" lon="17.106906"><ele>56.99999999999999</ele><time>2026-03-29T13:22:10.919Z</time></trkpt><trkpt lat="39.3871761" lon="17.1069846"><ele>57.0</ele><time>2026-03-29T13:22:11.923Z</time></trkpt><trkpt lat="39.3871856" lon="17.1070669"><ele>57.0</ele><time>2026-03-29T13:22:12.93Z</time></trkpt><trkpt lat="39.3871885" lon="17.1071575"><ele>56.99999999999999</ele><time>2026-03-29T13:22:13.92Z</time></trkpt><trkpt lat="39.3871851" lon="17.1072498"><ele>57.0</ele><time>2026-03-29T13:22:14.92Z</time></trkpt><trkpt lat="39.3871687" lon="17.1073374"><ele>57.0</ele><time>2026-03-29T13:22:15.917Z</time></trkpt><trkpt lat="39.3871513" lon="17.1074183"><ele>56.400000000000006</ele><time>2026-03-29T13:22:16.916Z</time></trkpt><trkpt lat="39.3871331" lon="17.1075564"><ele>55.800000000000004</ele><time>2026-03-29T13:22:18.916Z</time></trkpt><trkpt lat="39.3871592" lon="17.1076611"><ele>55.2</ele><time>2026-03-29T13:22:20.925Z</time></trkpt><trkpt lat="39.3871809" lon="17.1077403"><ele>54.6</ele><time>2026-03-29T13:22:22.918Z</time></trkpt><trkpt lat="39.3872238" lon="17.1079052"><ele>54.0</ele><time>2026-03-29T13:22:24.924Z</time></trkpt><trkpt lat="39.387275" lon="17.1079765"><ele>53.857142857142854</ele><time>2026-03-29T13:22:25.911Z</time></trkpt><trkpt lat="39.3873317" lon="17.1080455"><ele>53.71428571428571</ele><time>2026-03-29T13:22:26.928Z</time></trkpt><trkpt lat="39.3873909" lon="17.1081067"><ele>53.57142857142857</ele><time>2026-03-29T13:22:27.924Z</time></trkpt><trkpt lat="39.3874468" lon="17.1081577"><ele>53.42857142857143</ele><time>2026-03-29T13:22:28.919Z</time></trkpt><trkpt lat="39.3875084" lon="17.1082018"><ele>53.285714285714285</ele><time>2026-03-29T13:22:29.917Z</time></trkpt><trkpt lat="39.3875712" lon="17.1082426"><ele>53.142857142857146</ele><time>2026-03-29T13:22:30.923Z</time></trkpt><trkpt lat="39.3876326" lon="17.1082849"><ele>53.0</ele><time>2026-03-29T13:22:31.918Z</time></trkpt><trkpt lat="39.3876947" lon="17.1083264"><ele>52.285714285714285</ele><time>2026-03-29T13:22:32.921Z</time></trkpt><trkpt lat="39.3877577" lon="17.1083679"><ele>51.57142857142857</ele><time>2026-03-29T13:22:33.923Z</time></trkpt><trkpt lat="39.3878179" lon="17.1084146"><ele>50.857142857142854</ele><time>2026-03-29T13:22:34.917Z</time></trkpt><trkpt lat="39.3878795" lon="17.1084579"><ele>50.14285714285714</ele><time>2026-03-29T13:22:35.92Z</time></trkpt><trkpt lat="39.3879432" lon="17.1084896"><ele>49.42857142857143</ele><time>2026-03-29T13:22:36.921Z</time></trkpt><trkpt lat="39.3880081" lon="17.1085109"><ele>48.71428571428571</ele><time>2026-03-29T13:22:37.923Z</time></trkpt><trkpt lat="39.3880695" lon="17.1085406"><ele>48.0</ele><time>2026-03-29T13:22:38.925Z</time></trkpt><trkpt lat="39.3881269" lon="17.1085836"><ele>48.0</ele><time>2026-03-29T13:22:39.921Z</time></trkpt><trkpt lat="39.3881788" lon="17.1086413"><ele>48.0</ele><time>2026-03-29T13:22:40.924Z</time></trkpt><trkpt lat="39.3882234" lon="17.1087129"><ele>48.0</ele><time>2026-03-29T13:22:41.93Z</time></trkpt><trkpt lat="39.3882679" lon="17.1087939"><ele>48.0</ele><time>2026-03-29T13:22:42.92Z</time></trkpt><trkpt lat="39.3883203" lon="17.1088762"><ele>48.0</ele><time>2026-03-29T13:22:43.92Z</time></trkpt><trkpt lat="39.3883795" lon="17.1089538"><ele>48.0</ele><time>2026-03-29T13:22:44.915Z</time></trkpt><trkpt lat="39.3884439" lon="17.1090251"><ele>47.5</ele><time>2026-03-29T13:22:45.919Z</time></trkpt><trkpt lat="39.388507" lon="17.1090875"><ele>47.0</ele><time>2026-03-29T13:22:46.919Z</time></trkpt><trkpt lat="39.3885611" lon="17.1091428"><ele>46.5</ele><time>2026-03-29T13:22:47.911Z</time></trkpt><trkpt lat="39.3885974" lon="17.1092125"><ele>46.0</ele><time>2026-03-29T13:22:48.921Z</time></trkpt><trkpt lat="39.3886575" lon="17.1093378"><ele>45.5</ele><time>2026-03-29T13:22:50.922Z</time></trkpt><trkpt lat="39.3887026" lon="17.1094187"><ele>45.0</ele><time>2026-03-29T13:22:52.923Z</time></trkpt><trkpt lat="39.3887733" lon="17.1094805"><ele>45.666666666666664</ele><time>2026-03-29T13:27:20.929Z</time></trkpt><trkpt lat="39.3888473" lon="17.1095471"><ele>46.33333333333333</ele><time>2026-03-29T13:27:23.919Z</time></trkpt><trkpt lat="39.388898" lon="17.1096276"><ele>47.0</ele><time>2026-03-29T13:27:25.923Z</time></trkpt><trkpt lat="39.3889332" lon="17.109728"><ele>47.666666666666664</ele><time>2026-03-29T13:27:27.934Z</time></trkpt><trkpt lat="39.3889419" lon="17.1098156"><ele>48.33333333333333</ele><time>2026-03-29T13:27:34.926Z</time></trkpt><trkpt lat="39.3889678" lon="17.1099291"><ele>49.0</ele><time>2026-03-29T13:27:38.922Z</time></trkpt><trkpt lat="39.3889896" lon="17.1100097"><ele>47.49999999999999</ele><time>2026-03-29T13:27:40.925Z</time></trkpt><trkpt lat="39.3890152" lon="17.1100882"><ele>46.0</ele><time>2026-03-29T13:27:42.924Z</time></trkpt><trkpt lat="39.3890417" lon="17.1101831"><ele>44.5</ele><time>2026-03-29T13:27:44.919Z</time></trkpt><trkpt lat="39.3890882" lon="17.1103009"><ele>43.0</ele><time>2026-03-29T13:27:46.928Z</time></trkpt><trkpt lat="39.3891467" lon="17.1103961"><ele>41.5</ele><time>2026-03-29T13:27:48.923Z</time></trkpt><trkpt lat="39.3892096" lon="17.1105013"><ele>40.0</ele><time>2026-03-29T13:27:50.924Z</time></trkpt><trkpt lat="39.3892662" lon="17.1105811"><ele>40.0</ele><time>2026-03-29T13:27:52.928Z</time></trkpt><trkpt lat="39.38929" lon="17.1106896"><ele>40.0</ele><time>2026-03-29T13:27:55.941Z</time></trkpt><trkpt lat="39.389263" lon="17.110787"><ele>40.0</ele><time>2026-03-29T13:27:58.943Z</time></trkpt><trkpt lat="39.3892216" lon="17.1108669"><ele>40.0</ele><time>2026-03-29T13:28:01.93Z</time></trkpt><trkpt lat="39.3891796" lon="17.1109561"><ele>40.0</ele><time>2026-03-29T13:28:03.926Z</time></trkpt><trkpt lat="39.3891595" lon="17.1110649"><ele>40.0</ele><time>2026-03-29T13:28:05.929Z</time></trkpt><trkpt lat="39.3891195" lon="17.1111836"><ele>39.4</ele><time>2026-03-29T13:28:07.931Z</time></trkpt><trkpt lat="39.3890731" lon="17.1113023"><ele>38.8</ele><time>2026-03-29T13:28:09.916Z</time></trkpt><trkpt lat="39.3890533" lon="17.1113878"><ele>38.2</ele><time>2026-03-29T13:28:10.925Z</time></trkpt><trkpt lat="39.3890321" lon="17.1114972"><ele>37.6</ele><time>2026-03-29T13:28:11.919Z</time></trkpt><trkpt lat="39.389013" lon="17.111625"><ele>37.0</ele><time>2026-03-29T13:28:12.922Z</time></trkpt><trkpt lat="39.3890054" lon="17.1117568"><ele>36.333333333333336</ele><time>2026-03-29T13:28:13.924Z</time></trkpt><trkpt lat="39.3890127" lon="17.1118795"><ele>35.66666666666667</ele><time>2026-03-29T13:28:14.934Z</time></trkpt><trkpt lat="39.3890334" lon="17.1119856"><ele>35.0</ele><time>2026-03-29T13:28:15.924Z</time></trkpt><trkpt lat="39.3890654" lon="17.11208"><ele>34.333333333333336</ele><time>2026-03-29T13:28:16.91Z</time></trkpt><trkpt lat="39.3891038" lon="17.1121723"><ele>33.666666666666664</ele><time>2026-03-29T13:28:17.925Z</time></trkpt><trkpt lat="39.3891465" lon="17.112264"><ele>33.0</ele><time>2026-03-29T13:28:18.931Z</time></trkpt><trkpt lat="39.3891935" lon="17.112352"><ele>32.714285714285715</ele><time>2026-03-29T13:28:19.922Z</time></trkpt><trkpt lat="39.3892442" lon="17.1124345"><ele>32.42857142857143</ele><time>2026-03-29T13:28:20.912Z</time></trkpt><trkpt lat="39.3892971" lon="17.1125084"><ele>32.142857142857146</ele><time>2026-03-29T13:28:21.928Z</time></trkpt><trkpt lat="39.3893486" lon="17.1125757"><ele>31.857142857142858</ele><time>2026-03-29T13:28:22.93Z</time></trkpt><trkpt lat="39.3893967" lon="17.112647"><ele>31.571428571428577</ele><time>2026-03-29T13:28:23.922Z</time></trkpt><trkpt lat="39.3894436" lon="17.1127186"><ele>31.28571428571429</ele><time>2026-03-29T13:28:24.916Z</time></trkpt><trkpt lat="39.3894898" lon="17.1127828"><ele>31.0</ele><time>2026-03-29T13:28:25.933Z</time></trkpt><trkpt lat="39.3895339" lon="17.1128444"><ele>31.0</ele><time>2026-03-29T13:28:26.92Z</time></trkpt><trkpt lat="39.3895758" lon="17.1129075"><ele>31.0</ele><time>2026-03-29T13:28:27.926Z</time></trkpt><trkpt lat="39.3896466" lon="17.1130287"><ele>31.0</ele><time>2026-03-29T13:28:29.923Z</time></trkpt><trkpt lat="39.3897022" lon="17.1131655"><ele>31.0</ele><time>2026-03-29T13:28:31.92Z</time></trkpt><trkpt lat="39.3897264" lon="17.1132479"><ele>31.0</ele><time>2026-03-29T13:28:32.931Z</time></trkpt><trkpt lat="39.3897464" lon="17.1133965"><ele>30.8</ele><time>2026-03-29T13:28:34.93Z</time></trkpt><trkpt lat="39.3897526" lon="17.1135014"><ele>30.6</ele><time>2026-03-29T13:28:36.927Z</time></trkpt><trkpt lat="39.3897693" lon="17.1136535"><ele>30.4</ele><time>2026-03-29T13:28:38.919Z</time></trkpt><trkpt lat="39.3897681" lon="17.1137778"><ele>30.2</ele><time>2026-03-29T13:28:39.915Z</time></trkpt><trkpt lat="39.3897627" lon="17.1139143"><ele>30.0</ele><time>2026-03-29T13:28:40.916Z</time></trkpt><trkpt lat="39.3897471" lon="17.1140266"><ele>30.0</ele><time>2026-03-29T13:28:41.923Z</time></trkpt><trkpt lat="39.3897036" lon="17.1141152"><ele>30.0</ele><time>2026-03-29T13:28:43.924Z</time></trkpt><trkpt lat="39.3896352" lon="17.1140976"><ele>30.0</ele><time>2026-03-29T13:28:46.919Z</time></trkpt><trkpt lat="39.3895446" lon="17.114104"><ele>30.0</ele><time>2026-03-29T13:28:48.915Z</time></trkpt><trkpt lat="39.3894519" lon="17.1141773"><ele>30.0</ele><time>2026-03-29T13:28:50.923Z</time></trkpt><trkpt lat="39.389396" lon="17.1142235"><ele>30.0</ele><time>2026-03-29T13:28:51.926Z</time></trkpt><trkpt lat="39.3893367" lon="17.1142712"><ele>30.42857142857143</ele><time>2026-03-29T13:28:52.941Z</time></trkpt><trkpt lat="39.3892781" lon="17.1143118"><ele>30.857142857142854</ele><time>2026-03-29T13:28:53.921Z</time></trkpt><trkpt lat="39.3892195" lon="17.114347"><ele>31.285714285714285</ele><time>2026-03-29T13:28:54.912Z</time></trkpt><trkpt lat="39.38916" lon="17.1143833"><ele>31.714285714285715</ele><time>2026-03-29T13:28:55.918Z</time></trkpt><trkpt lat="39.389091" lon="17.1144123"><ele>32.142857142857146</ele><time>2026-03-29T13:28:56.915Z</time></trkpt><trkpt lat="39.3890192" lon="17.1144274"><ele>32.57142857142857</ele><time>2026-03-29T13:28:57.919Z</time></trkpt><trkpt lat="39.3889479" lon="17.1144337"><ele>33.0</ele><time>2026-03-29T13:28:58.929Z</time></trkpt><trkpt lat="39.3888855" lon="17.1144179"><ele>34.833333333333336</ele><time>2026-03-29T13:28:59.921Z</time></trkpt><trkpt lat="39.3888222" lon="17.1143957"><ele>36.666666666666664</ele><time>2026-03-29T13:29:00.913Z</time></trkpt><trkpt lat="39.3887533" lon="17.1143688"><ele>38.5</ele><time>2026-03-29T13:29:01.925Z</time></trkpt><trkpt lat="39.3886845" lon="17.1143548"><ele>40.33333333333333</ele><time>2026-03-29T13:29:02.921Z</time></trkpt><trkpt lat="39.3886182" lon="17.114357"><ele>42.166666666666664</ele><time>2026-03-29T13:29:03.931Z</time></trkpt><trkpt lat="39.3885126" lon="17.1143647"><ele>44.0</ele><time>2026-03-29T13:29:05.927Z</time></trkpt><trkpt lat="39.3884368" lon="17.1144284"><ele>44.0</ele><time>2026-03-29T13:29:07.932Z</time></trkpt><trkpt lat="39.3883726" lon="17.1145465"><ele>44.0</ele><time>2026-03-29T13:29:09.928Z</time></trkpt><trkpt lat="39.3883262" lon="17.1146046"><ele>44.0</ele><time>2026-03-29T13:29:10.922Z</time></trkpt><trkpt lat="39.3882705" lon="17.1146712"><ele>44.0</ele><time>2026-03-29T13:29:11.926Z</time></trkpt><trkpt lat="39.3882077" lon="17.1147442"><ele>44.0</ele><time>2026-03-29T13:29:12.926Z</time></trkpt><trkpt lat="39.3881456" lon="17.1148343"><ele>44.0</ele><time>2026-03-29T13:29:13.917Z</time></trkpt><trkpt lat="39.3880843" lon="17.1149243"><ele>44.6</ele><time>2026-03-29T13:29:14.924Z</time></trkpt><trkpt lat="39.3880098" lon="17.114996"><ele>45.2</ele><time>2026-03-29T13:29:15.931Z</time></trkpt><trkpt lat="39.3879287" lon="17.1150638"><ele>45.800000000000004</ele><time>2026-03-29T13:29:16.92Z</time></trkpt><trkpt lat="39.3878429" lon="17.1151207"><ele>46.400000000000006</ele><time>2026-03-29T13:29:17.933Z</time></trkpt><trkpt lat="39.3877573" lon="17.1151646"><ele>47.0</ele><time>2026-03-29T13:29:18.925Z</time></trkpt><trkpt lat="39.3876736" lon="17.1151913"><ele>47.0</ele><time>2026-03-29T13:29:19.922Z</time></trkpt><trkpt lat="39.3875917" lon="17.1152068"><ele>47.0</ele><time>2026-03-29T13:29:20.932Z</time></trkpt><trkpt lat="39.3875154" lon="17.115214"><ele>47.0</ele><time>2026-03-29T13:29:21.927Z</time></trkpt><trkpt lat="39.3874414" lon="17.1152018"><ele>47.0</ele><time>2026-03-29T13:29:22.93Z</time></trkpt><trkpt lat="39.3873618" lon="17.1151673"><ele>47.0</ele><time>2026-03-29T13:29:23.926Z</time></trkpt><trkpt lat="39.3872745" lon="17.1151268"><ele>47.0</ele><time>2026-03-29T13:29:24.925Z</time></trkpt><trkpt lat="39.3871785" lon="17.1150904"><ele>47.0</ele><time>2026-03-29T13:29:25.943Z</time></trkpt><trkpt lat="39.3870812" lon="17.1150515"><ele>47.0</ele><time>2026-03-29T13:29:26.926Z</time></trkpt><trkpt lat="39.3869851" lon="17.115012"><ele>47.0</ele><time>2026-03-29T13:29:27.928Z</time></trkpt><trkpt lat="39.3868962" lon="17.1149692"><ele>47.0</ele><time>2026-03-29T13:29:28.928Z</time></trkpt><trkpt lat="39.3868122" lon="17.1149184"><ele>47.0</ele><time>2026-03-29T13:29:29.927Z</time></trkpt><trkpt lat="39.3867287" lon="17.1148711"><ele>47.400000000000006</ele><time>2026-03-29T13:29:30.934Z</time></trkpt><trkpt lat="39.3866385" lon="17.1148509"><ele>47.800000000000004</ele><time>2026-03-29T13:29:31.928Z</time></trkpt><trkpt lat="39.38654" lon="17.1148563"><ele>48.2</ele><time>2026-03-29T13:29:32.924Z</time></trkpt><trkpt lat="39.3864407" lon="17.1148708"><ele>48.6</ele><time>2026-03-29T13:29:33.93Z</time></trkpt><trkpt lat="39.3863509" lon="17.114883"><ele>49.0</ele><time>2026-03-29T13:29:34.92Z</time></trkpt><trkpt lat="39.386271" lon="17.1148945"><ele>48.99999999999999</ele><time>2026-03-29T13:29:35.923Z</time></trkpt><trkpt lat="39.3862015" lon="17.1149151"><ele>49.0</ele><time>2026-03-29T13:29:36.921Z</time></trkpt><trkpt lat="39.3861384" lon="17.1149376"><ele>49.0</ele><time>2026-03-29T13:29:37.924Z</time></trkpt><trkpt lat="39.3860236" lon="17.1148958"><ele>49.0</ele><time>2026-03-29T13:29:39.921Z</time></trkpt><trkpt lat="39.3859653" lon="17.1148263"><ele>48.99999999999999</ele><time>2026-03-29T13:29:40.93Z</time></trkpt><trkpt lat="39.3859017" lon="17.1147817"><ele>49.0</ele><time>2026-03-29T13:29:41.919Z</time></trkpt><trkpt lat="39.3858309" lon="17.1147728"><ele>49.0</ele><time>2026-03-29T13:29:42.932Z</time></trkpt><trkpt lat="39.3857589" lon="17.1148013"><ele>49.0</ele><time>2026-03-29T13:29:43.926Z</time></trkpt><trkpt lat="39.3856754" lon="17.1148637"><ele>49.0</ele><time>2026-03-29T13:29:44.926Z</time></trkpt><trkpt lat="39.385581" lon="17.1149359"><ele>49.0</ele><time>2026-03-29T13:29:45.922Z</time></trkpt><trkpt lat="39.3854911" lon="17.1150063"><ele>49.0</ele><time>2026-03-29T13:29:46.924Z</time></trkpt><trkpt lat="39.3854193" lon="17.1150643"><ele>49.666666666666664</ele><time>2026-03-29T13:29:47.923Z</time></trkpt><trkpt lat="39.3853577" lon="17.1151165"><ele>50.33333333333333</ele><time>2026-03-29T13:29:48.942Z</time></trkpt><trkpt lat="39.3853086" lon="17.1151828"><ele>51.0</ele><time>2026-03-29T13:29:49.922Z</time></trkpt><trkpt lat="39.3852559" lon="17.1152539"><ele>51.66666666666667</ele><time>2026-03-29T13:29:50.913Z</time></trkpt><trkpt lat="39.385207" lon="17.1153317"><ele>52.333333333333336</ele><time>2026-03-29T13:29:51.921Z</time></trkpt><trkpt lat="39.3851671" lon="17.1154185"><ele>53.0</ele><time>2026-03-29T13:29:52.923Z</time></trkpt><trkpt lat="39.3851333" lon="17.1155112"><ele>53.00000000000001</ele><time>2026-03-29T13:29:53.92Z</time></trkpt><trkpt lat="39.3851018" lon="17.115604"><ele>53.0</ele><time>2026-03-29T13:29:54.925Z</time></trkpt><trkpt lat="39.3850693" lon="17.1156898"><ele>53.0</ele><time>2026-03-29T13:29:55.913Z</time></trkpt><trkpt lat="39.3850062" lon="17.1157506"><ele>53.0</ele><time>2026-03-29T13:29:56.924Z</time></trkpt><trkpt lat="39.3849382" lon="17.1158074"><ele>53.00000000000001</ele><time>2026-03-29T13:29:57.919Z</time></trkpt><trkpt lat="39.3848744" lon="17.1158584"><ele>53.0</ele><time>2026-03-29T13:29:58.916Z</time></trkpt><trkpt lat="39.3848128" lon="17.1159078"><ele>53.16666666666667</ele><time>2026-03-29T13:29:59.918Z</time></trkpt><trkpt lat="39.38475" lon="17.1159572"><ele>53.333333333333336</ele><time>2026-03-29T13:30:00.914Z</time></trkpt><trkpt lat="39.3846831" lon="17.116005"><ele>53.5</ele><time>2026-03-29T13:30:01.914Z</time></trkpt><trkpt lat="39.3846167" lon="17.1160576"><ele>53.66666666666667</ele><time>2026-03-29T13:30:02.914Z</time></trkpt><trkpt lat="39.3845534" lon="17.1161216"><ele>53.833333333333336</ele><time>2026-03-29T13:30:03.919Z</time></trkpt><trkpt lat="39.3844936" lon="17.1161904"><ele>54.0</ele><time>2026-03-29T13:30:04.916Z</time></trkpt><trkpt lat="39.3844353" lon="17.1162491"><ele>54.0</ele><time>2026-03-29T13:30:05.914Z</time></trkpt><trkpt lat="39.3843665" lon="17.1162726"><ele>54.0</ele><time>2026-03-29T13:30:06.917Z</time></trkpt><trkpt lat="39.3842827" lon="17.1162653"><ele>54.0</ele><time>2026-03-29T13:30:07.917Z</time></trkpt><trkpt lat="39.3841907" lon="17.1162435"><ele>54.0</ele><time>2026-03-29T13:30:08.921Z</time></trkpt><trkpt lat="39.3840992" lon="17.116227"><ele>54.0</ele><time>2026-03-29T13:30:09.933Z</time></trkpt><trkpt lat="39.384018" lon="17.1162324"><ele>54.0</ele><time>2026-03-29T13:30:10.912Z</time></trkpt><trkpt lat="39.3839448" lon="17.1162548"><ele>54.0</ele><time>2026-03-29T13:30:11.914Z</time></trkpt><trkpt lat="39.383876" lon="17.1162845"><ele>54.0</ele><time>2026-03-29T13:30:12.918Z</time></trkpt><trkpt lat="39.3838122" lon="17.1163088"><ele>54.0</ele><time>2026-03-29T13:30:13.924Z</time></trkpt><trkpt lat="39.383696" lon="17.1163403"><ele>54.0</ele><time>2026-03-29T13:30:15.916Z</time></trkpt><trkpt lat="39.3836319" lon="17.1163495"><ele>54.0</ele><time>2026-03-29T13:30:16.917Z</time></trkpt><trkpt lat="39.3835622" lon="17.1163631"><ele>54.0</ele><time>2026-03-29T13:30:17.914Z</time></trkpt><trkpt lat="39.3834945" lon="17.1163793"><ele>53.2</ele><time>2026-03-29T13:30:18.919Z</time></trkpt><trkpt lat="39.3833823" lon="17.1163642"><ele>52.400000000000006</ele><time>2026-03-29T13:30:20.917Z</time></trkpt><trkpt lat="39.3833355" lon="17.1162627"><ele>51.6</ele><time>2026-03-29T13:30:22.921Z</time></trkpt><trkpt lat="39.3833642" lon="17.1161564"><ele>50.8</ele><time>2026-03-29T13:30:24.923Z</time></trkpt><trkpt lat="39.3833889" lon="17.1160488"><ele>50.0</ele><time>2026-03-29T13:30:26.928Z</time></trkpt><trkpt lat="39.3833994" lon="17.1159144"><ele>50.00000000000001</ele><time>2026-03-29T13:30:28.927Z</time></trkpt><trkpt lat="39.3833919" lon="17.1157532"><ele>50.0</ele><time>2026-03-29T13:30:30.918Z</time></trkpt><trkpt lat="39.3833732" lon="17.1156725"><ele>50.0</ele><time>2026-03-29T13:30:31.922Z</time></trkpt><trkpt lat="39.3833547" lon="17.1155944"><ele>50.0</ele><time>2026-03-29T13:30:32.918Z</time></trkpt><trkpt lat="39.3833423" lon="17.1155106"><ele>50.00000000000001</ele><time>2026-03-29T13:30:33.92Z</time></trkpt><trkpt lat="39.3833314" lon="17.1154257"><ele>50.0</ele><time>2026-03-29T13:30:34.926Z</time></trkpt><trkpt lat="39.3833192" lon="17.1153423"><ele>50.66666666666667</ele><time>2026-03-29T13:30:35.916Z</time></trkpt><trkpt lat="39.3832995" lon="17.1152579"><ele>51.333333333333336</ele><time>2026-03-29T13:30:36.922Z</time></trkpt><trkpt lat="39.3832776" lon="17.1151715"><ele>52.0</ele><time>2026-03-29T13:30:37.913Z</time></trkpt><trkpt lat="39.3832357" lon="17.1150797"><ele>52.66666666666667</ele><time>2026-03-29T13:30:38.916Z</time></trkpt><trkpt lat="39.383188" lon="17.1149801"><ele>53.333333333333336</ele><time>2026-03-29T13:30:39.921Z</time></trkpt><trkpt lat="39.3831424" lon="17.1148764"><ele>54.0</ele><time>2026-03-29T13:30:40.923Z</time></trkpt><trkpt lat="39.3830978" lon="17.1147756"><ele>54.0</ele><time>2026-03-29T13:30:41.933Z</time></trkpt><trkpt lat="39.3830577" lon="17.1146823"><ele>54.0</ele><time>2026-03-29T13:30:42.921Z</time></trkpt><trkpt lat="39.3830282" lon="17.1145881"><ele>54.0</ele><time>2026-03-29T13:30:43.921Z</time></trkpt><trkpt lat="39.3829997" lon="17.1144954"><ele>54.0</ele><time>2026-03-29T13:30:44.922Z</time></trkpt><trkpt lat="39.3829688" lon="17.1144047"><ele>54.0</ele><time>2026-03-29T13:30:45.94Z</time></trkpt><trkpt lat="39.3829386" lon="17.1143119"><ele>54.0</ele><time>2026-03-29T13:30:46.92Z</time></trkpt><trkpt lat="39.3829029" lon="17.1142181"><ele>53.666666666666664</ele><time>2026-03-29T13:30:47.915Z</time></trkpt><trkpt lat="39.3828563" lon="17.1141299"><ele>53.33333333333333</ele><time>2026-03-29T13:30:48.926Z</time></trkpt><trkpt lat="39.3828112" lon="17.1140418"><ele>53.0</ele><time>2026-03-29T13:30:49.931Z</time></trkpt><trkpt lat="39.3827442" lon="17.1139736"><ele>52.666666666666664</ele><time>2026-03-29T13:30:50.925Z</time></trkpt><trkpt lat="39.3826804" lon="17.1138965"><ele>52.33333333333333</ele><time>2026-03-29T13:30:51.914Z</time></trkpt><trkpt lat="39.3826292" lon="17.1138112"><ele>52.0</ele><time>2026-03-29T13:30:52.915Z</time></trkpt><trkpt lat="39.38259" lon="17.1137287"><ele>51.99999999999999</ele><time>2026-03-29T13:30:53.919Z</time></trkpt><trkpt lat="39.3825566" lon="17.1136551"><ele>52.0</ele><time>2026-03-29T13:30:54.938Z</time></trkpt><trkpt lat="39.3824969" lon="17.1135329"><ele>52.0</ele><time>2026-03-29T13:30:56.913Z</time></trkpt><trkpt lat="39.3824412" lon="17.1134249"><ele>52.0</ele><time>2026-03-29T13:30:58.924Z</time></trkpt><trkpt lat="39.3823897" lon="17.1133259"><ele>51.99999999999999</ele><time>2026-03-29T13:31:00.915Z</time></trkpt><trkpt lat="39.3823574" lon="17.1132539"><ele>52.0</ele><time>2026-03-29T13:31:02.92Z</time></trkpt><trkpt lat="39.3824138" lon="17.1133506"><ele>52.0</ele><time>2026-03-29T13:31:27.948Z</time></trkpt><trkpt lat="39.3824701" lon="17.1134903"><ele>52.0</ele><time>2026-03-29T13:31:29.933Z</time></trkpt><trkpt lat="39.3825119" lon="17.113585"><ele>52.0</ele><time>2026-03-29T13:31:30.926Z</time></trkpt><trkpt lat="39.3825571" lon="17.113688"><ele>52.0</ele><time>2026-03-29T13:31:31.928Z</time></trkpt><trkpt lat="39.3826075" lon="17.1137989"><ele>52.0</ele><time>2026-03-29T13:31:32.939Z</time></trkpt><trkpt lat="39.3826602" lon="17.1139051"><ele>52.0</ele><time>2026-03-29T13:31:33.927Z</time></trkpt><trkpt lat="39.3827221" lon="17.1139956"><ele>52.0</ele><time>2026-03-29T13:31:34.917Z</time></trkpt><trkpt lat="39.382792" lon="17.1140748"><ele>52.0</ele><time>2026-03-29T13:31:35.932Z</time></trkpt><trkpt lat="39.3828611" lon="17.1141549"><ele>52.0</ele><time>2026-03-29T13:31:36.924Z</time></trkpt><trkpt lat="39.3829163" lon="17.1142476"><ele>52.0</ele><time>2026-03-29T13:31:37.912Z</time></trkpt><trkpt lat="39.3829558" lon="17.1143547"><ele>52.400000000000006</ele><time>2026-03-29T13:31:38.923Z</time></trkpt><trkpt lat="39.3829879" lon="17.1144694"><ele>52.800000000000004</ele><time>2026-03-29T13:31:39.928Z</time></trkpt><trkpt lat="39.3830202" lon="17.1145829"><ele>53.2</ele><time>2026-03-29T13:31:40.921Z</time></trkpt><trkpt lat="39.3830557" lon="17.1146955"><ele>53.6</ele><time>2026-03-29T13:31:41.931Z</time></trkpt><trkpt lat="39.3830928" lon="17.1148005"><ele>54.0</ele><time>2026-03-29T13:31:42.924Z</time></trkpt><trkpt lat="39.3831325" lon="17.1148936"><ele>54.0</ele><time>2026-03-29T13:31:43.925Z</time></trkpt><trkpt lat="39.3831722" lon="17.1149836"><ele>54.0</ele><time>2026-03-29T13:31:44.92Z</time></trkpt><trkpt lat="39.3832111" lon="17.115076"><ele>54.0</ele><time>2026-03-29T13:31:45.924Z</time></trkpt><trkpt lat="39.3832481" lon="17.11516"><ele>54.0</ele><time>2026-03-29T13:31:46.91Z</time></trkpt><trkpt lat="39.3832809" lon="17.1152479"><ele>54.0</ele><time>2026-03-29T13:31:47.918Z</time></trkpt><trkpt lat="39.3833103" lon="17.1153403"><ele>54.0</ele><time>2026-03-29T13:31:48.935Z</time></trkpt><trkpt lat="39.3833312" lon="17.1154486"><ele>54.0</ele><time>2026-03-29T13:31:49.929Z</time></trkpt><trkpt lat="39.3833464" lon="17.1155623"><ele>54.0</ele><time>2026-03-29T13:31:50.917Z</time></trkpt><trkpt lat="39.383363" lon="17.1156756"><ele>54.0</ele><time>2026-03-29T13:31:51.923Z</time></trkpt><trkpt lat="39.3833816" lon="17.1157884"><ele>54.0</ele><time>2026-03-29T13:31:52.922Z</time></trkpt><trkpt lat="39.3833952" lon="17.1159031"><ele>54.0</ele><time>2026-03-29T13:31:53.913Z</time></trkpt><trkpt lat="39.3834031" lon="17.1160135"><ele>54.0</ele><time>2026-03-29T13:31:54.916Z</time></trkpt><trkpt lat="39.3833922" lon="17.1161062"><ele>53.333333333333336</ele><time>2026-03-29T13:31:55.915Z</time></trkpt><trkpt lat="39.3833789" lon="17.1161915"><ele>52.66666666666667</ele><time>2026-03-29T13:31:56.92Z</time></trkpt><trkpt lat="39.3833958" lon="17.1163188"><ele>52.0</ele><time>2026-03-29T13:31:58.941Z</time></trkpt><trkpt lat="39.3834737" lon="17.1163644"><ele>51.333333333333336</ele><time>2026-03-29T13:32:00.919Z</time></trkpt><trkpt lat="39.3835405" lon="17.1163777"><ele>50.66666666666667</ele><time>2026-03-29T13:32:02.928Z</time></trkpt><trkpt lat="39.3836293" lon="17.1163554"><ele>50.0</ele><time>2026-03-29T13:32:04.925Z</time></trkpt><trkpt lat="39.3837461" lon="17.1162715"><ele>50.00000000000001</ele><time>2026-03-29T13:32:06.916Z</time></trkpt><trkpt lat="39.3838177" lon="17.1162297"><ele>50.0</ele><time>2026-03-29T13:32:07.933Z</time></trkpt><trkpt lat="39.3838919" lon="17.1161927"><ele>50.0</ele><time>2026-03-29T13:32:08.947Z</time></trkpt><trkpt lat="39.3839715" lon="17.116163"><ele>50.0</ele><time>2026-03-29T13:32:09.927Z</time></trkpt><trkpt lat="39.3840581" lon="17.1161387"><ele>50.00000000000001</ele><time>2026-03-29T13:32:10.916Z</time></trkpt><trkpt lat="39.3841471" lon="17.1161186"><ele>50.0</ele><time>2026-03-29T13:32:11.921Z</time></trkpt><trkpt lat="39.3842315" lon="17.1161027"><ele>50.66666666666667</ele><time>2026-03-29T13:32:12.925Z</time></trkpt><trkpt lat="39.3843028" lon="17.116077"><ele>51.333333333333336</ele><time>2026-03-29T13:32:13.916Z</time></trkpt><trkpt lat="39.3843655" lon="17.116044"><ele>52.0</ele><time>2026-03-29T13:32:14.925Z</time></trkpt><trkpt lat="39.3844236" lon="17.1158972"><ele>52.66666666666667</ele><time>2026-03-29T13:32:16.914Z</time></trkpt><trkpt lat="39.3844101" lon="17.115804"><ele>53.333333333333336</ele><time>2026-03-29T13:32:17.92Z</time></trkpt><trkpt lat="39.3843883" lon="17.115717"><ele>54.0</ele><time>2026-03-29T13:32:18.923Z</time></trkpt><trkpt lat="39.3843924" lon="17.1155982"><ele>58.0</ele><time>2026-03-29T13:32:20.918Z</time></trkpt></trkseg></trk></gpx>